DAFTAR JEMAAH BERHAK KONFIRMASI PELUNASAN DAN PEMBAYARAN PELUNASAN Bipih TAHUN 1443H/2022M
PROVINSI JAWA TENGAH
NO NO. PORSI NAMA TANGGAL LAHIR ALAMAT KAB/KOTA KETERANGAN
1 1100141128 SUTRIANTO 25/3/1962 GUNUNGSIMPING KAB. CILACAP
2 1100160538 SITI ROHMI 2/9/1972 BANYUNGANTI RT 03 RW 02 KAB. SEMARANG
3 1100182421 RIESKA PERMATA SARI 16/3/1988 [Link] WIBOWO SELATAN NO.13 RT01 RW04 KOTA SURAKARTA
4 1100190922 DARIS JAKA ALMASAH 6/10/1997 BOTOKAN RT02 RW09 KAB. SUKOHARJO
5 1100203426 IKA NELLA ZULFA 21/6/1982 WARUNGASEM RT 01 RW 01 KAB. BATANG
6 1100241295 DR IMAM MARZUQI 7/8/1978 NGANGKRUK BARU 25/08 PRAMBANAN KLATEN KAB. KLATEN
7 1100242976 AHMADI 28/8/1975 WONOLOPO RT.003/010 KOTA SEMARANG
8 1100242979 NUR LATIFAH 17/7/1972 WONOLOPO RT.003/010 KOTA SEMARANG
9 1100253743 SANDI SADTIWI SOEHARJO 27/2/1971 MLATI KIDUL KAB. KUDUS
10 1100290337 SUNARTI 5/6/1968 KAYUGERITAN RT.02/04 KAB. PEKALONGAN
11 1100297582 REDHY SATYA CAESARINKA 18/09/1993 JL. JENGGOLO 50 RT 02 RW. 09 KOTA MAGELANG
12 1100309636 ISTIKHAROH 12/10/1968 TUWEL RT.03/01 BOJONG KAB. TEGAL
13 1100310576 WIWIK DARIYATI 10/09/1965 CEKELAN 02/04 KAB. MAGELANG
14 1100311199 NISROCHAH 30/06/1963 SALAKBROJO RT.03/03 KEDUNGWUNI KAB. PEKALONGAN
15 1100311885 ASHIF SHOLAHUDDIN 20/07/2001 SELOJARI 01/02 KAB. GROBOGAN
16 1100313991 ROHIM FIRDAUS RADI 11/06/1961 KARANGMANGU RT 005 RW 001 KAB. REMBANG
17 1100313993 LIANAH MUHAMMAD MASKUN 06/10/1968 KARANGMANGU RT 005 RW 001 KAB. REMBANG
18 1100318908 AHMAD ROFIQ PROF,DR, MA 14/07/1959 [Link] SELATAN NO.7 RT04 RW06 KOTA SEMARANG
19 1100320591 SUYATNI 05/01/1975 GUYANGAN 05/01 KAB. GROBOGAN
20 1100328440 SITI ZUHARIYAH ROHMAT SACHRONI 08/08/1976 BUMIAGUNG RT02.01 KAB. KEBUMEN
21 1100328444 DANURI DULAH SUHUDI DULAH ISMAN 28/08/1967 BUMIAGUNG RT.002/001 KAB. KEBUMEN
22 1100334143 ISTIKOMAH ZULIATI 03/07/1976 KRAJAN RT 001 / RW 001 KAB. PURWOREJO
23 1100337029 I MADE YUSJAYA GIRI 23/05/1968 PERUM JUNGKE PERMAI BLOK E NO.8 KAB. KARANGANYAR
24 1100338376 ISTIQOMAH MASRUR SADIYO 22/09/1981 BULUNGCANGKRING RT.03 RW.01 KAB. KUDUS
25 1100338513 HARTATIK 24/06/1977 DSN GLAGAH RT 01 RW 01 KAB. WONOSOBO
26 1100340052 MUHAMMAD ABDUH HISYAM 15/07/1967 [Link] RT 04 RW 03 KAB. KEBUMEN
27 1100342205 ADDIN ALBANA, S. PSI 22/12/1982 SANTREN RT. 02 RW. 08 KAB. MAGELANG
28 1100342206 LISNA HANDAYANI HARAHAP 18/06/1987 SANTREN RT. 02 RW. 08 KAB. MAGELANG
29 1100342891 MUHAMMAD HUSEN PRABOWO 15/01/1976 KABERAN 02/05 KAB. KLATEN
30 1100345399 YAYUK MULYANI 17/11/1971 KEBURUSAN RT 02/01 KAB. PURWOREJO
31 1100347685 MAZID ILMA ROFIDA 10/08/2001 JL MR ISKANDAR LR 12/2 KAB. BLORA
32 1100347895 MALTUF FITRI, SE, MSI 16/10/1974 PERUM IAIN BLOK I NO. 2 RT 1 RW 3 KOTA SEMARANG
33 1100352466 MUKHAMAD TAUFIQ MIFTAKHUL MUTTAQIN 23/07/1991 TENGGELES RT.04 RW.02 KAB. KUDUS
34 1100353527 AKHMAD SUHELI 08/05/1961 PABUARAN RT.2/2 PURWOKERTO UTARA KAB. BANYUMAS
35 1100353634 KABUL SUBAHID 17/10/1971 DRAJAT RT 02/03 KAB. KLATEN
36 1100355712 BAMBANG ARIYANTO SUTRIMAN 27/09/1983 PADURENAN RT 01 RW 01 GEBOG KUDUS KAB. KUDUS
37 1100357407 MUCHAMAD A'BDULLOH MUKHBAR MIZDA 22/09/1988 KRANJI RT.07/09 KEDUNGWUNI TIMUR KAB. PEKALONGAN
38 1100357522 NISWATUN KHSANAH 14/06/1979 KRAJAN RT.02/RW.02 KAB. KENDAL
39 1100357523 NUR AZIZ 12/08/1972 KRAJAN RT.02/RW.02 KAB. KENDAL
40 1100358060 AHMAD MUBASIRIN SAYUTI 14/10/1960 GABUS 1/7 GABUS KAB. PATI
41 1100358643 HERLINA MAYANGSARI 18/06/1990 PLALAR RT. 01 RW. 01 KAB. MAGELANG
42 1100359061 RISZE VEDHA SARI 23/07/1979 [Link] BIROWO KOTA SEMARANG
43 1100360325 SUMARTI HARTATI 07/07/1977 JL. ARUM INDAH V/6 NO.22 RT.009 RW.010 KOTA TEGAL
44 1100362927 SRI KUSMIYATI 10/09/1972 SAMBEK RT 01 RW 03 KAB. WONOSOBO
45 1100364971 NUR HIDAYATI 16/12/1981 SIDOREJO KAB. MAGELANG
46 1100367117 IQDAM AUN RAFIQ 15/08/1990 CITROSONO NO. 25 RT. 01 RW. 01 KAB. MAGELANG
47 1100370294 SARINEM 06/03/1960 BANJARANYAR RT. 03/07 KAB. BANYUMAS
48 1100370355 ANNISA KHUSNI ISNAINI 01/09/1988 SURONATAN NO.217 RT02 RW04 KAB. TEMANGGUNG
49 1100370418 ICHSANUDIN 17/12/1987 CAMPURSARI RT 09 RW 02 KAB. WONOSOBO
50 1100370438 SUMIATUN 15/04/1975 JL. PANDANSARI VI RT 6 RW 8 KOTA SEMARANG
51 1100370964 MACHFUDH 14/12/1987 KARTOSURO KAB. SUKOHARJO
52 1100373617 ROCHAYATI 06/02/1980 PERUM TUGU ASRI BLOK A-27 RT 10 RW 5 KOTA SEMARANG
53 1100373926 ASRIANTO ADI NUGROHO 25/03/1981 PERUM BPD II NO.33 RT.07 RW.04 KOTA SEMARANG
54 1100374468 ISKANDAR 10/12/1966 NGEMPLAK RT.03/RW.04 KAB. SUKOHARJO
55 1100375010 MUSRIAH 27/11/1971 JL. SUYUDONO NO. 41 RT 01 RW 02 KOTA SEMARANG
56 1100375570 TOHAR 10/07/1963 JL. YOS SUDARSO GG. SAWAUNGGAL I 1/1 KAB. BANYUMAS
57 1100376556 MUH ROZI 14/08/1962 TURUNAN RT.06/03 GENTAN SUSUKAN KAB. SEMARANG
58 1100377358 FATA MUSTHAFA 07/09/1985 KRAJAN 03/01 KAB. MAGELANG
59 1100377450 AMINUDIN MUHTAR 27/09/1985 GADING PERMAI AM-08 RT.04/09 KAB. SUKOHARJO
60 1100377505 MUHAMMAD MANSYUR EFENDI 17/10/1968 MARGOYOSO RT.001 RW.002 KALINYAMATAN KAB. JEPARA
61 1100377508 UMAYATUN ALIAHMADI SUJONO 05/05/1969 MARGOYOSO RT.001 RW.002 KALINYAMATAN KAB. JEPARA
62 1100378527 SUYATI DEWI GIMAN BAJURI 25/04/1963 KEDUNGDOWO RT 01 RW 05 KAB. KUDUS
63 1100379191 HARJANTO 27/03/1977 MANGUNHARJO RT 001 / RW 002 KAB. WONOGIRI
64 1100379806 KISMIATI 20/10/1971 KRAJAN KIDUL RT.03/RW.04 KAB. KENDAL
65 1100380439 SAIFUL BAHRI 16/12/1962 WIJO RT.02/01 GETAS WONOPRINGGO KAB. PEKALONGAN
66 1100381434 RISKA ANDREANI AGUSTIAWATI 05/06/1987 KRIDALOKA RT.02/07 KAB. KENDAL
67 1100381606 DJOKO SAPTOMO SE 11/09/1964 JL. ABABIL INDAH NO.32 RT.10 RW.10 KOTA TEGAL
68 1100381932 MULYATI 31/12/1963 [Link] BUSRO GANG 1 02/13 KAB. GROBOGAN
69 1100382083 NUR WIDAYATI,IR 13/03/1961 GADUNGAN KAB. KLATEN
70 1100383099 MUNAWAROTI 21/06/1960 DK. BOJA RT.04 RW.02 KAB. BATANG
71 1100383571 SULIKAN FATEKUR SADIRAH 01/01/1960 KUDUKERAS 3/1 JUWANA KAB. PATI
72 1100384123 RUKMI WIDIARTI 10/09/1965 [Link] V NO.6 RT.11/11 KOTA SEMARANG
73 1100384126 AKHMAD CAHYADI 06/04/1963 [Link] V NO.6 RT.11/11 KOTA SEMARANG
74 1100385082 NAFI'AN MUSTIKA DAWUD 24/11/1963 MEJOBO RT 08 RW 02 KAB. KUDUS
75 1100385269 WASNI 01/11/1970 GUMELAR RT. 2/9 KAB. BANYUMAS
76 1100386391 AHMAD MUSAFFAK 22/11/1975 KRAJAN I RT. 05/02 KAB. MAGELANG
77 1100387026 SURYATI 04/05/1965 KALIJARAN RT 004 / RW 001 KAB. PURBALINGGA
78 1100387032 DIANA ROSYADA 27/10/1981 SINGGALANG NO.5 RT.06/01 KOTA SEMARANG
79 1100387068 NASUCHA KASLAN SARYADI SAPON 02/01/1963 PURWOSARI RT.01 RW.07 KAB. KUDUS
80 1100387200 MUAFIQ 10/08/1959 TEMPURAN 06/09 KAB. MAGELANG
81 1100387382 ELNATH TORRES ERIDANY 22/02/1982 JL. SINGGALANG NO. 5 RT 6 RW 1 KOTA SEMARANG
82 1100387448 ANISAH SETIYANINGSIH 17/07/1979 TARABAN RT.08 RW.08 PAGUYANGAN KAB. BREBES
83 1100388904 SRI SUNARSIH SUNYOTO PUPON 11/03/1963 TAHUNAN 03/02 KAB. JEPARA
84 1100389055 KAMTO 19/04/1981 JAMBUDESA RT 03/04 KAB. PURBALINGGA
85 1100389653 NURUL LAILY FITRIANA 14/10/1974 SUMBER GIRANG RT 001 RW 002 LASEM KAB. REMBANG
86 1100391009 NADLIF 03/10/1960 REJOSARI RT.03/10 KOTA SEMARANG
87 1100392398 RIZAL PRADIKDA HASIM 22/12/1997 KRAJAN RT.04 RW.02 KAB. MAGELANG
88 1100393048 SITI MUTMAINAH 26/03/1973 PASIR KULON RT. 1/2 KAB. BANYUMAS
89 1100393721 YUDIYANTO 12/03/1960 JATEN RT 02 RW 01 KAB. BOYOLALI
90 1100393977 INDAH SUBEKTI SUPARMAN 31/12/1977 SENDANG 02/02 [Link] KAB. JEPARA
91 1100393980 ACHMAD SURURI MOH ANWAR 01/10/1971 SENDANG 02/02 [Link] KAB. JEPARA
92 1100394202 MUZDALIFAH NUR SLAMET 15/08/1995 UJUNG PANDAN KAB. JEPARA
93 1100394704 ENDAH LESTARI HANDAYANI 03/10/1979 NOTOSUMAN RT.04/05 KAB. SUKOHARJO
94 1100394707 ENDAH RISWANDARI 25/12/1975 WARU RT. 03 RW. 02 KAB. KARANGANYAR
95 1100394781 AIDA YULIAWATI 20/07/1975 JL. CANDI PENATARAN UTARA I RT 9 RW 4 KOTA SEMARANG
96 1100395226 TUSYANTO 31/12/1965 BUTUH RT 28 RW 10 KAB. WONOSOBO
97 1100395595 KIKI LUQMANUL HAKIM 14/11/1982 KETANGGUNGAN NO. 58RT.04/03 KETANGGUNGAN KAB. BREBES
98 1100395599 NURUL MUTMAINNAH 24/05/1987 KETANGGUNGAN NO.58 RT.04/03 KETANGGUNGAN KAB. BREBES
99 1100396454 SUGENG SARJANTO WAGIYO 21/04/1970 [Link] RT 01 RW 01 KAB. KEBUMEN
100 1100396870 YENI APRIATIN 06/04/1979 BABAKAN RT 003 / RW 001 KAB. PURBALINGGA
101 1100398049 IPING PRIYATNA 02/08/1980 TEGALGONDO 01/02 KAB. KLATEN
102 1100398683 ADITYA FAJAR HERMANTO 10/10/1986 GEMOLONG RT 04/02 KAB. SRAGEN
103 1100401441 RANI NUR SYAMSIDAR 13/04/2001 JL. TLOGOSARIRAYA II NO. 96 RT 9 RW 3 KOTA SEMARANG
104 1100401470 TOLIB 06/07/1962 ANDONGSILI RT 05/02 KAB. WONOSOBO
105 1100401764 KURNIA SETYANINGRUM 07/07/1987 KENDIL, RT.03/RW.07 KAB. TEMANGGUNG
106 1100402029 HERNAWATI 07/01/1965 MLATI KIDUL RT 01 RW 02 KAB. KUDUS
107 1100402478 MUTASIM 31/10/1977 NORAGAN RT04 RW02 KAB. TEMANGGUNG
108 1100402634 DEVI SUTRISNO 14/07/1983 GANDOKAN, A 74, RT.03/RW.06 KAB. TEMANGGUNG
109 1100402865 FADHILAH FATIHANNISA MOHAMMAD QOMARUDIN
05/09/1991 HONGGOSOCO RT.02 RW.01 KAB. KUDUS
110 1100402874 SUBAEDI 28/12/1970 YOSOREJO RT.01/02 KOTA SEMARANG
111 1100403204 CANTAS RAIHANA 27/02/2001 SOKARAJA TENGAH RT. 1/2 KAB. BANYUMAS
112 1100403534 AGUS NUGROHO,DRS 22/08/1967 WATESALIT RT.03 RW.06 KAB. BATANG
113 1100404018 KUSNANTO SASTRO SYARIF 25/05/1968 GEMBONG 2/9 GEMBONG KAB. PATI
114 1100404022 ARIN CAHYAWATI SOEGENG 14/12/1976 GEMBONG 2/9 GEMBONG KAB. PATI
115 1100404128 SUTIMAH 29/05/1969 BENGLE RT 10 RW 05 KAB. BOYOLALI
116 1100404296 SUWARNO KARMIN GRONTOL 19/03/1981 MONDOTEKO RT 003 RW 002 REMBANG KAB. REMBANG
117 1100404299 AGUS SUGIYONO 10/08/1982 KAPENCAR RT 02 RW 08 KAB. WONOSOBO
118 1100404310 MUHAMAD MUZAKI NAWAWI 03/07/1975 BOJONGSARI RT. 02. 05 KAB. KEBUMEN
119 1100404657 AGUS SUPRIYANTO 29/12/1973 KALIMENENG RT 01/02 KAB. PURWOREJO
120 1100404696 KORIAH 13/06/1971 KAMBANGAN RT.01 RW.04 KAB. BATANG
121 1100404907 SUPARNO SUPARMAN RONO PAS 26/07/1960 KABONGAN KIDUL RT 004 RW 002 REMBANG KAB. REMBANG
122 1100404934 ANDRIAN DWI RIZKI SETYAWAN 12/05/1995 KABONGAN KIDUL RT 004 RW 002 REMBANG KAB. REMBANG
123 1100404945 DITA OKTAVIANI AYUNINGTYAS 29/10/1997 KABONGAN KIDUL RT 004 RW 002 REMBANG KAB. REMBANG
NO NO. PORSI NAMA TANGGAL LAHIR ALAMAT KAB/KOTA KETERANGAN
124 1100405038 M AMINUN AL AMINANTO 07/04/1977 KUWOJO 02/03 KAB. GROBOGAN
125 1100405041 MUSLIH 12/10/1965 JL. KENDENG NO. 24 RT03 RW01 KAB. CILACAP
126 1100405305 ARIS ADIYANTO 05/07/1967 KAMBANGAN RT.01 RW.04 KAB. BATANG
127 1100405500 TANISAH 26/06/1978 SIDAPURNA RT. 21/03 DUKUHTURI KAB. TEGAL
128 1100405502 TURATNO 21/04/1972 SIDAPURNA RT. 21/03 DUKUHTURI KAB. TEGAL
129 1100405681 SOYO DRS 15/07/1968 PURWOSARI RT 06 KAB. SRAGEN
130 1100405727 DAHRI 07/09/1975 KWADUNGAN RT05 RW02 KAB. TEMANGGUNG
131 1100405911 IMAM SANTOSO 06/07/1961 KARANGMALANG 06/03 KAB. MAGELANG
132 1100406150 DAKHIROH 01/01/1959 KEBASEN RT.09 RW.02 KAB. BANYUMAS
133 1100406159 SHINTA AHDIANI ZULFA 28/10/1997 KEBASEN RT. 9/2 KAB. BANYUMAS
134 1100406265 ENDANG SRI HASTUTI 24/10/1964 KRASAK, RT. 06/01 BREBES KAB. BREBES
135 1100406274 TARSIDIN 06/07/1964 KRASAK, RT. 06/01 BREBES KAB. BREBES
136 1100406356 SOLEH SUDARSONO SUKONGADIYO 05/11/1962 POTROYUDAN RT.003/002 KAB. JEPARA
137 1100406409 SRI WIGATI 23/12/1969 PAYAMAN KAB. MAGELANG
138 1100407426 MUCHRODIN 11/04/1972 JL MANGGA 29 RT01 RW04 KAB. CILACAP
139 1100407429 SITI JAENAH 08/07/1977 JL MANGGA 29 RT01 RW04 KAB. CILACAP
140 1100407667 ARIF KHUZAINI 21/07/1971 SIMBANG WETAN KAB. PEKALONGAN
141 1100407668 HARTI 03/07/1979 SIMBANG WETAN KAB. PEKALONGAN
142 1100407812 WANTO 05/06/1959 KEMURANG KULON RT. 01/02 TANJUNG KAB. BREBES
143 1100407814 WITRI 21/01/1961 KEMURANG KULON RT. 01/02 TANJUNG KAB. BREBES
144 1100407886 KHUYAEMAH 15/10/1957 [Link] RT.01 RW.01 KAB. BATANG
145 1100408269 ISTI KAROMAH 11/06/1972 LAMUK RT 04 RW 04 KAB. TEMANGGUNG
146 1100408490 BETTY ANOVIA 14/04/1973 JL.A YANI NO.35 01/07 KAB. GROBOGAN
147 1100408651 SLAMET RIYADI MAD SOLATIN 04/08/1973 SRATI RT. 02. 01 KAB. KEBUMEN
148 1100408756 HANIK NURUL QOYYIMAH 15/09/1965 JL. JINTEN NO. 1 RT 03 RW 01 KAB. BOYOLALI
149 1100408769 ADNAN BUYUNG MA'NAWI 27/07/1987 JL. JINTEN NO. 1 RT 03 RW 01 KAB. BOYOLALI
150 1100408837 MOH ALI HASAN DHUHRI 16/08/1978 WONOKETINGAL RT 03 RW 03 KAB. DEMAK
151 1100408898 ABDUL AZIS 14/06/1974 GONDANG RT 17 RW 04 KAB. WONOSOBO
152 1100408972 SUTIKWO 16/12/1970 KALISUREN RT 01 RW 06 KAB. WONOSOBO
153 1100409496 WALUYO RAHARJO 10/06/1964 KERON 30/13 KAB. KLATEN
154 1100409865 SUMIRIN ACHMAD SUWARNO 26/07/1958 HADIPOLO RT 02 RW 01 KAB. KUDUS
155 1100410220 ANI KHASBIYAH 30/05/1976 KARANGMALANG RT 002 / RW 004 KAB. PURBALINGGA
156 1100410401 ANISSA PUSPITA SARI 25/06/1983 LAWEYAN RT 02 RW 01 KOTA SURAKARTA
157 1100410500 LESTARI 08/09/1962 KAUMAN UTARA RT 07 RW 14 KAB. WONOSOBO
158 1100410546 AKHMAD KOMARUDIN SUKIMAN 16/12/1980 DS SAWANGAN RT 01/05 KUWARASAN KAB. KEBUMEN
159 1100410562 JAMINGIL 16/07/1982 KEDUNGJATI RT 001 RW 008 KAB. PURBALINGGA
160 1100410795 SUMIYATI 17/07/1972 SAMBIRATA RT.01 RW.03 KAB. BANYUMAS
161 1100410810 TUGIRAH 07/10/1959 TURIREJO RT.05/09 KAB. DEMAK
162 1100410815 SUWARDI 28/07/1957 KRACAK RT.02 RW.08 KAB. BANYUMAS
163 1100411128 NOOR CHOLIS SAREH ARIFIN 08/10/1972 KALIPUTU RT 04 RW 03 KAB. KUDUS
164 1100411174 LAMIDI 31/08/1971 REJOSARI RT 07 RW 02 KAB. BOYOLALI
165 1100411437 MAHMUDI SA'DULLAH SITI ROMLAH 17/12/1972 KAJEN 1/1 MARGOYOSO KAB. PATI
166 1100411494 ABDUL KHOLIQ MASLUR SHODIQ 10/03/1970 PELANG RT 001 RW 002 SARANG KAB. REMBANG
167 1100411626 SITI HANIK MULIKAH 04/06/1982 [Link] BAKAR NO.5 RT.03/02 PACAR TIRTO KAB. PEKALONGAN
168 1100411637 SITI MARIATUL KIFTIYAH 07/05/1979 PELANG RT 001 RW 002 SARANG KAB. REMBANG
169 1100411777 MOHAMAD SYAROFUDDIN ISMAIL QOIMAS 20/07/1960 LETEH RT 002 RW 001 REMBANG KAB. REMBANG
170 1100411782 NURUL KHOTIMAH MUCHLAS 16/01/1986 LETEH RT 002 RW 001 REMBANG KAB. REMBANG
171 1100411783 KASMADI 22/12/1962 KENDAYAAN RT.02/RW.04 KAB. KENDAL
172 1100411838 SUKINAH ARDIYANTI 15/03/1970 DSN SOKAWERA WETAN RT. 02 RW. 11 DESA KUBANGKANG
KAB. CILACAP
173 1100411936 SODIK RIYANTO 03/09/1980 BEBER 03/02 KAB. GROBOGAN
174 1100411937 DWI ERNAWATI 05/06/1988 BEBER 03/02 KAB. GROBOGAN
175 1100412115 SRI SUSWATI 20/10/1967 JL. PUCANG TAMA RAYA NO.03 RT.05/28 KAB. DEMAK
176 1100412123 TRI SUHAEKA 24/09/1968 JL. PUCANG TAMA RAYA NO.03 RT.05/28 KAB. DEMAK
177 1100412632 KASMONAH 09/06/1969 KARANGMULYO RT.04 RW.01 KAB. KENDAL
178 1100413628 ROHMANI 11/06/1972 BANDUNG RT. 04 /05 KOTA TEGAL
179 1100413686 ARIF NURWIYANTO 30/03/1973 SUMBERJOSARI KAB. GROBOGAN
180 1100413720 SUDOYO HERMAWAN 18/09/1974 KEMBARAN RT.03/01 KEBUMEN KAB. KEBUMEN
181 1100413866 FAISAL NURUL KHAQ 05/10/1994 KRASAK 04/04 KAB. JEPARA
182 1100413960 SAFAATUN 19/02/1962 SUDIPAYUNG RT 001 / RW 005 KAB. KENDAL
183 1100413981 KHUDORI 15/02/1963 KEDUNGWRINGIN RT 2/4 KAB. BANYUMAS
184 1100413983 PARMINAH 26/01/1963 KEDUNGWRINGIN RT. 2/4 KAB. BANYUMAS
185 1100414021 SUPARMI, SPI 15/05/1977 KARANGRI 10/05 KAB. KLATEN
186 1100414055 RIYADI, SE, SST, AK 22/04/1976 KARANGRI 10/05 KAB. KLATEN
187 1100414381 SRI SUHARTINI, DRA 08/11/1959 BUKIT CEMARA INDAH X/C1-4 RT.06/13 KOTA SEMARANG
188 1100414650 SARMINAH 27/10/1959 LINGK. ARGODEWI, NO.32, RT.03 RW.03 KAB. TEMANGGUNG
189 1100414655 ADI SUPANGGYO, BA, [Link]. 05/03/1959 LING. ARGODEWI NO. 32 RT03 RW03 KAB. TEMANGGUNG
190 1100414665 SRININGSIH 25/10/1969 NGEMPON KAB. TEMANGGUNG
191 1100414675 MUHAIMIN MAS'UDI SIRAT 20/04/1962 SENDANG 01/02 KEC. KALINYAMATAN KAB. JEPARA
192 1100414940 RUSDIANA NUGRAHADI 04/03/1985 POTROWIJAYAN RT 04 RW 02 KAB. WONOSOBO
193 1100415000 HOLISOH 24/06/1970 SIDOMULYO, RT.01/RW.01 KAB. TEMANGGUNG
194 1100415023 JUNEDI 13/12/1964 SIDOMULYO, RT.01/RW.01 KAB. TEMANGGUNG
195 1100415424 TUGINO 20/09/1963 GAWANGAN RT.02/RW.03 KAB. SUKOHARJO
196 1100415586 NUR ZAHIROH 08/04/1964 MAYANGAN RT.22/08 WIRADESA KAB. PEKALONGAN
197 1100415817 S. ZAHROH KARYO TUGI 12/08/1967 KUWASEN 02/01 KAB. JEPARA
198 1100416252 MUH KHOLIK 08/09/1976 MANGGISAN RT 04 RW 08 KAB. WONOSOBO
199 1100416338 AHMAD MIFDLOLI JASMANI 05/05/1964 PRAMBATAN KIDUL RT.10 RW.02 KAB. KUDUS
200 1100416571 YOSSY KURNIAWAN 28/06/1981 DK SELOTUGU RT.04 RW.04 KAB. KENDAL
201 1100416579 SITI AMINAH 22/03/1985 [Link] RT.04 RW.04 KAB. KENDAL
202 1100416766 KHAYATUN 23/06/1959 KALIANGET RT 08 RW 02 KAB. WONOSOBO
203 1100416798 ISTIYONO 14/06/1973 NGIMBRANG, RT.01/RW.04 KAB. TEMANGGUNG
204 1100416855 WATINAH 29/09/1959 KEBONPOLO NO. 2 RT. 07 RW. 10 KOTA MAGELANG
205 1100417151 SARONO 16/07/1958 GAWANGAN RT.02/RW.03 KAB. SUKOHARJO
206 1100417522 SURANTO 04/12/1978 MOROSARI 02/08 KAB. GROBOGAN
207 1100417524 SUCIATI 16/03/1986 MOROSARI 02/08 KAB. GROBOGAN
208 1100417648 SUMARYONO 10/11/1967 DUSUN GOWOK RT.02 RW.04 KAB. KENDAL
209 1100417666 DIAN MALIKHAH 16/02/1997 GAJAH TIMUR DALAM III RT 4 / RW 008 KOTA SEMARANG
210 1100417721 SUWIGNYO 21/12/1962 KARANGDOWO RT.02 RW.01 KAB. KENDAL
211 1100417735 SRI WIJI RESPATI 31/12/1967 KARANGDOWO RT.02 RW.01 KAB. KENDAL
212 1100417883 SONYA AYU KOMALASARI 31/10/1998 JL. EMPU BARADHA NO. 51 RT. 01/05 KAB. SUKOHARJO
213 1100417887 NONOEK RETNANINGSIH 19/02/1962 JL. EMPU BARADA NO. 51 RT. 01/05 KAB. SUKOHARJO
214 1100417920 MOH. ABROR 20/11/1978 GANDU KIDUL RT.03/07 DADIREJO TIRTO KAB. PEKALONGAN
215 1100417974 ASNA MISRI 07/05/1985 GANDU KIDUL RT.03/07 DADIREJO TIRTO KAB. PEKALONGAN
216 1100418081 NGAFIF 04/08/1964 JL. RASAMALA I NO. 77 RT.02 RW.11 KAB. BANYUMAS
217 1100418084 AKHNAF NAUFAL AFIF 16/02/2002 JL. RASAMALA I NO.77 RT.02 RW.11 KAB. BANYUMAS
218 1100418089 ROYYAN AUDIA AFIF 11/09/1996 JL. RASAMALA I NO. 77 RT.02 RW.11 KAB. BANYUMAS
219 1100418091 SITI AISYUL KHUDRIYAH 21/08/1970 JL. RASAMALA I NO. 77 RT.02 RW.11 KAB. BANYUMAS
220 1100418153 DWI NUR HIDAYAT 11/06/1980 GRENGGENG RT. 04. 02 KARANGANYAR KAB. KEBUMEN
221 1100418494 SUKARNI 01/08/1958 PUTATAN RT 08/02 KAB. SRAGEN
222 1100418712 AFAN MUFTI HARTONI 03/10/1976 GEGER 01/01 KAB. MAGELANG
223 1100418723 MUSTARI KURNIAWATI 23/12/1977 TEMPURSARI 15/06 KAB. KLATEN
224 1100418726 ANISA MUNASIFAH 16/12/1981 GEGER 01/01 KAB. MAGELANG
225 1100418777 ALI ISFIHANI 10/08/1983 TUWEL RT 002 / RW 004 KAB. TEGAL
226 1100418815 SUMARNO 31/08/1980 KAWIS RT 23/08 KAB. SRAGEN
227 1100418862 NURKHOLID 29/11/1965 KLAMPOK RT. 01/03 WANASRI KAB. BREBES
228 1100418865 IKRIMAH 18/12/1977 KLAMPOK RT.01/03 WANASARI KAB. BREBES
229 1100418875 KUNARDI 06/02/1967 [Link] ENDAH VIII B-24 RT.7/2 KAB. PATI
230 1100418942 FARIDA KASWADI SUTIYONO 06/09/1982 PETEKEYAN 02/01 KAB. JEPARA
231 1100419153 SITI ROHMAH 14/05/1979 BAKALAN RT 06 RW 03 KAB. WONOSOBO
232 1100419325 INNA RUWIYAH 25/05/1973 BEJI RT.03 RW.01 KAB. BATANG
233 1100419554 MUHAMAD KHAKAM ABU BAKAR 27/01/1974 PURWOGONDO 06/01 KEC. KALINYAMATAN KAB. JEPARA
234 1100419560 NUR ROHMAH TAS'AN TASMEN 03/05/1978 PURWOGONDO 06/01 KEC, KALINYAMATAN KAB. JEPARA
235 1100419711 JAMARI WAGIMAN MUKINAH 07/06/1968 BENDAR 1/5 JUWANA KAB. PATI
236 1100419996 CHAMIDAH 16/10/1963 SIDAURIP RT. 04 RW. 02 KAB. CILACAP
237 1100420011 YUNIYARSO 04/06/1968 KALANGSONO DK. GENTAN RT.02 RW.02 KAB. BATANG
238 1100420031 SUMYATI 12/05/1968 KALANGSONO DK. GENTAN RT.02 RW.02 KAB. BATANG
239 1100420032 REVILIA FARDIANA 09/07/1993 KALANGSONO DK. GENTAN RT.02 RW.02 KAB. BATANG
240 1100420044 M ADLAN AJIK 22/02/1998 PRINGLANGU GG. 7 NO. 21 RT. 2 RW. 1 KOTA PEKALONGAN
241 1100420046 KHAISUN NAJAH 23/09/1967 PRINGLANGU GG. 7 NO. 21 RT.2 RW. 01 KOTA PEKALONGAN
242 1100420071 FACHRUR ROZI,DRS,MAG 01/05/1969 KARONSIH BARU III/112 RT.04/12 KOTA SEMARANG
243 1100420467 SITI 'AISAH 01/03/1961 KUYUDAN RT 05/05 KAB. SUKOHARJO
244 1100420500 WIDIYA ERNAYANI 03/10/1980 KARANGSARI RT 02 RW 06 KAB. TEMANGGUNG
245 1100420533 SULISTYONINGSIH 02/03/1959 [Link] SEREG 10 KRANJI RT 5 / RW 7 KAB. BANYUMAS
246 1100420646 NUR HIDAYATI 06/05/1976 PAGAH LOR RT 04 KAB. SRAGEN
247 1100420793 MUHAMMAD ARIEF NURDIANSYAH 23/12/1994 SENDANGREJO RT.01/07 NYATNYONO KAB. SEMARANG
248 1100420878 MUHAMMAD LUTFI HAKIM 26/07/1978 DAREN 02/01 KAB. JEPARA
249 1100420884 NADHIEF MOCHAROR 21/10/1964 GRABYAG PAIT RT.02 RW.01 KAB. PEKALONGAN
250 1100420886 ULIL MUFTAQORROH SHONHADJI 01/01/1982 DAREN 02/01 KAB. JEPARA
251 1100421091 LILIK MUIZATUN KHASANAH 11/07/1986 BANGSRI 02/17 KAB. JEPARA
NO NO. PORSI NAMA TANGGAL LAHIR ALAMAT KAB/KOTA KETERANGAN
252 1100421103 LULUK AGUS YULIANTO 26/07/1980 BANGSRI 02/17 KAB. JEPARA
253 1100421666 SRI ENDAH NURUL CHOTIMAH 10/08/1968 TLOGOREJO RT01 RW02 KAB. TEMANGGUNG
254 1100421814 SITI MAEMUNAH 27/02/1960 [Link] NO.4 RT. 2/6 KAB. BANYUMAS
255 1100421864 CARMI 31/12/1960 LUMINGSER RT. 02/01 ADIWERNA KAB. TEGAL
256 1100421993 ARIFAH HERDIYANTI 25/01/1993 SEMAWUNGDALEMAN RT 01/01 KAB. PURWOREJO
257 1100422196 RUSMIYAH HIDAYATI, AMK 19/08/1975 WAHYU TEMURUN III/33 RT.09/21 KOTA SEMARANG
258 1100423126 ALIF SETIYONO 08/10/1983 JETIS RT 02/06 KAB. PURWOREJO
259 1100423192 SUCI MERAK ATI 02/05/1982 KAUMAN SELATAN RT 10 RW 13 KAB. WONOSOBO
260 1100423194 FATKUR ROCHMAN 23/03/1981 KAUMAN SELATAN NO. 116 RT.10/13 KAB. WONOSOBO
261 1100423206 MISBAHUDIN NASHAN AMIR 06/06/1969 MEJOBO RT 10 RW 04 KAB. KUDUS
262 1100423217 KHOIRUL FAIZIN ABDAR 01/06/1967 LORAMKULON RT.04 RW.04 KAB. KUDUS
263 1100423515 BASIR 29/02/1964 SINGOPRANAN 02/01 KAB. GROBOGAN
264 1100423516 APRI DYAH PAMULATSIH 22/04/1977 MAWEN 07/04 KAB. KLATEN
265 1100423517 MASWAH 07/03/1971 SINGOPRANAN 02/01 KAB. GROBOGAN
266 1100423520 PURNOMO HADI 05/09/1974 MAWEN 07/04 KAB. KLATEN
267 1100423535 MOCH SOLIKIN 10/12/1961 GANG JAMUR 05/02 KAB. GROBOGAN
268 1100423537 SRI SUSILOWATI 18/05/1964 GANG JAMUR 05/02 KAB. GROBOGAN
269 1100423566 SAIFUL MUJIB 13/03/1997 DS. NGAMPEL RT. 03 RW. 01 KAB. BLORA
270 1100423569 ASYHARI NGUSMAN SUMI 10/04/1966 KETANGGAN 01/03 GEMBONG KAB. PATI
271 1100423581 NAILAL HUDA ACHMAD YATIM 26/07/1957 PURWOSARI RT 01 RW 04 KAB. KUDUS
272 1100423858 UMI ROJI'AH 08/10/1972 DSN. SIPOL RT.01 RW.03 KAB. SEMARANG
273 1100423981 NURYATI 02/04/1967 CANDIROTO RT 003 / RW 001 KAB. KENDAL
274 1100424263 SUWANTO JUPRI TO PARMIN 30/04/1974 JEKULO RT.02 RW.07 KAB. KUDUS
275 1100424315 SITI ZUBAEDAH MUSKAN 03/01/1992 JEKULO RT.02 RW.07 KAB. KUDUS
276 1100424398 ERNI HAYATI HM 27/08/1973 KALISUMUR RT. 01/01 BUMIAYU KAB. BREBES
277 1100424401 BASUNI NASUKHA 20/05/1968 KALISUMUR RT. 01/01 BUMIAYU KAB. BREBES
278 1100424489 SUPARMI 02/02/1967 NGAWEN RT 02 RT 01 KAB. BLORA
279 1100424821 ROMLIYAH 20/10/1983 WONOBODRO RT.02 RW.03 KAB. BATANG
280 1100424844 ROHAMAH 31/12/1960 BABADAN RT.01 RW.04 KAB. BATANG
281 1100424872 SRI SUSILOWATI 06/05/1974 DONOREJO SIKIDANG RT.02 RW.02 KAB. BATANG
282 1100424900 ABDUL GHOFUR 26/08/1972 DONOREJO RT.02 RW.02 KAB. BATANG
283 1100424989 MAHMUDI 05/10/1976 JL. ARIDHO RT 006 / RW 001 KOTA PEKALONGAN
284 1100424990 MUCHAMMAD NOER HABIBIE 07/01/1987 KALORAN RT.02 RW.06 KAB. WONOGIRI
285 1100425008 MANISAH NURSIDIK MAD PALIL 01/01/1967 ADIKARSO RT.01/01 KAB. KEBUMEN
286 1100425191 WIWIN RODLIYATI, SHI 27/06/1982 NGLANGAK RT 04 KAB. SRAGEN
287 1100425201 AGUS APRIYANTO, AMD 25/09/1981 NGLANGAK RT 04 KAB. SRAGEN
288 1100425386 SRI LESTARI 05/12/1979 JL. PANGGUNG BARU NO. 68 RT. 10/06 KOTA TEGAL
289 1100425459 MUHAMMAD IMAM SAFI'I 19/06/1972 JATIMULYA RT.03/05 LEBAKSIU KAB. TEGAL
290 1100425461 HERNIAWATI 29/08/1977 JATIMULYA RT.03/05 LEBAKSIU KAB. TEGAL
291 1100425643 HADI WALUYO, SE 07/11/1968 BENDO RT. 02 RW. 01 KAB. KARANGANYAR
292 1100425730 WALUYO SIDIK 10/04/1963 DSN SIDASARI RT. 04 RW. 03 KAB. CILACAP
293 1100425737 ADMI 05/07/1965 SIDASARI 021 RT. 04 RW. 03 KAB. CILACAP
294 1100425870 ISSUBUR 23/08/1976 LIBAK, NO. 193, RT.02/RW.04 KAB. TEMANGGUNG
295 1100426078 SUSILO 03/11/1983 NGRACAH 04/09 KAB. GROBOGAN
296 1100426186 SUMARNI ABADI SAHIL 16/04/1960 JEKULO RT 01 RW 02 KAB. KUDUS
297 1100426649 KAFIATUL CHULASOH 19/12/1957 BRENGKEL 72 RT. 01/06 KAB. MAGELANG
298 1100426729 BUDI SUSANTO SOEKEMI 15/08/1967 JURANG RT 03 RW 06 KAB. KUDUS
299 1100426730 SRI SUGIYARTI KASURI SUDIRNO 05/05/1967 JURANG RT 03 RW 06 KAB. KUDUS
300 1100426809 DWI SURYO WIJAYAKUSUMA 31/03/1985 MALANGGATEN 1492 RT. 01 RW. 10 KOTA MAGELANG
301 1100426812 NUR KHASANAH 25/02/1986 MALANGGATEN 1492 RT. 01 RW. 10 KOTA MAGELANG
302 1100426909 SITI ASIYAH 28/08/1982 LIMPUNG [Link] RT.02 RW.02 KAB. BATANG
303 1100426912 SITI ROCHMAH 08/01/1989 LIMPUNG DK. LIMPUNG RT.02 RW.02 KAB. BATANG
304 1100426927 MARIYANI DILA SARI 22/07/1980 KARANGSARI RT.05/RW.02 KAB. KENDAL
305 1100427067 SRI ASTUTI 12/06/1960 JL. CEMPAKA I NO.12 RT.01/03 KAB. DEMAK
306 1100427072 R. SOEPRIHADI 01/11/1958 JL. CEMPAKA I NO.12 RT.01/03 KAB. DEMAK
307 1100427174 IDA SUPRIHATI 13/12/1977 LING. MALIYAN RT08 RW01 KAB. TEMANGGUNG
308 1100427204 ROSDA LISTYANTORO 22/03/1985 JL DR CIPTO 05 RT04 RW01 KAB. CILACAP
309 1100427212 TUMIRAH 09/03/1962 JL DR CIPTO 05 RT04 RW01 KAB. CILACAP
310 1100427500 NUR EKO NANIK MASRUROH 01/02/1981 TUMBREP REMBUL NO.01 RT.02 RW.07 KAB. BATANG
311 1100427504 [Link] 21/04/1974 TUMBREP REMBUL NO.01 RT.02 RW.07 KAB. BATANG
312 1100427900 AHMAD BASIRAN 25/12/1969 KABUTUH RT 13 RW 05 KAB. WONOSOBO
313 1100427940 SRI YUNARNI 29/06/1966 REJOSARI RT.03/RW.03 KAB. KENDAL
314 1100427944 MULYO SATOTO 30/06/1994 REJOSARI RT.03/RW.03 KAB. KENDAL
315 1100428074 RIPTINGAH 21/12/1974 GEMBLENGAN RT 03 RW 01 KAB. WONOSOBO
316 1100428267 KHAERUNISA 31/10/1985 DUKUHTENGAH RT.06/01 KETANGGUNGAN KAB. BREBES
317 1100428410 MUJI ASTUTI MIDJO 10/01/1960 PATEMON RT. 01. 02 KAB. KEBUMEN
318 1100428442 KHUSNUL KHOTIMAH 06/06/1980 LAMUK LEGOK, RT.02/RW.01 KAB. TEMANGGUNG
319 1100428453 SHOLIHIN 17/09/1974 LAMUK LEGOK, RT.02/RW.01 KAB. TEMANGGUNG
320 1100428540 NURCHAYATI 21/03/1974 KARANGGEDANG RT. 2/1 KAB. BANYUMAS
321 1100428659 EDY SUNARNO 01/01/1969 BLABAK 04/08 KAB. MAGELANG
322 1100428667 MUZAKI 20/07/1968 PETORAN RT.02 RW.05 KOTA SURAKARTA
323 1100428681 TITIK HARTATI 22/09/1970 PETORAN RT.02 RW.05 KOTA SURAKARTA
324 1100428773 TARMUJI 29/09/1982 GONDANG TIMUR RT.02 RW.01 KAB. BATANG
325 1100428791 ANIS MUFIDAH 07/12/1971 PEDURUNGAN KIDUL KOTA SEMARANG
326 1100429434 SUHIROH JOHAR ZEN 18/02/1958 KALIBANGKANG RT. 01. 02 KAB. KEBUMEN
327 1100429446 SYAFRUDIN 12/01/1968 CABEYAN 02/05 KAB. MAGELANG
328 1100429502 SRI UTAMI SUKAWI 02/01/1981 TAWANGHARJO 1/3 WWEDARIJAKSA KAB. PATI
329 1100429505 MUHADI ABDUL LADI 27/02/1976 TAWANGHARJO 1/3 WWEDARIJAKSA KAB. PATI
330 1100429791 TURIPAH 03/08/1958 BUGANGAN RT.04/02 KEDUNGWUNI KAB. PEKALONGAN
331 1100429793 MAULANA GHOZALI 01/02/1991 BUGANGAN RT.04/02 KEDUNGWUNI KAB. PEKALONGAN
332 1100429869 DIYAH LUSIANA 08/03/1977 SAWAHJOHO NO.36 RT.10 RW.04 KAB. BATANG
333 1100429939 DUTA AJI HARNASUTA 31/05/1989 JL. ARJUNA III NO.13 RT.05/10 LEREP KAB. SEMARANG
334 1100430060 SUBIMAN [Link] 01/12/1959 KARANGAYAR 02/02 KAB. KLATEN
335 1100430169 SUPRIYONO 30/03/1979 TINGGARJAYA RT 001 / RW 006 KAB. BANYUMAS
336 1100430184 MUSLIH 12/02/1962 DARMAKRADENAN RT.01 RW.02 KAB. BANYUMAS
337 1100430339 AYU FITRIA HELMIYATI 06/06/1986 DS. PANOLAN RT 01/01 KAB. BLORA
338 1100430352 HERI SUPRIYANTO 05/05/1973 DS. MARGOREJO 43/18 KAB. MAGELANG
339 1100430491 VITHA HIESTINE NINGRUM 07/07/1990 REJOSARI, NO. 39, RT.03/RW.02 KAB. TEMANGGUNG
340 1100430495 ZAENAL MUBAROK 10/12/1986 NGLUWING, RT.02/RW.09 KAB. TEMANGGUNG
341 1100430563 MUCHAMAD ANWARI 23/06/1991 PAKIS PUTIH RT.02/01 KEDUNGWUNI KAB. PEKALONGAN
342 1100430616 ENDANG WIJIASTUTI 06/04/1958 KAUMAN UTARA NO.04 RT.08/01 KAB. DEMAK
343 1100430942 CATUR ARI WIDODO 21/05/1986 JL CERME 451 RT02 RW13 KAB. CILACAP
344 1100431068 KHAMDI 21/03/1990 PANGENREJO RT 01/02 KAB. PURWOREJO
345 1100431070 DALILAH 02/02/1974 PANGENREJO RT 01/02 KAB. PURWOREJO
346 1100431078 SULFIYAH 21/12/1998 JL. BRIGJEN KATAMSO 37 RT 001 / RW 002 KAB. PURWOREJO
347 1100431096 ACHFAR SHOFWAN KARMAN 08/06/1965 KRIYAN RT.012/003 [Link] KAB. JEPARA
348 1100431104 KHILMIZAH MUHDI SULKHAN 16/01/1974 KRIYAN RT.012/003 [Link] KAB. JEPARA
349 1100431270 SUKODERI 01/09/1980 DK DUREN RT 004 / RW 003 KAB. JEPARA
350 1100431335 AGUNG EKO WIBOWO 21/05/1980 PECANGAAN KULON 03/03 KAB. JEPARA
351 1100431336 LILI AMALIA MOCHTAR 13/10/1984 PECANGAAN KULON RT.003/003 KAB. JEPARA
352 1100431338 CANDRA SETYO NUGROHO 02/10/1985 PECANGAAN KULON RT.004/006 KAB. JEPARA
353 1100431565 TUTI SUGIHARTATI 12/10/1962 JL. CANDI NO. 01 RT 03 RW 02 BOJANEGARA KAB. PURBALINGGA
354 1100431568 NGUDIARTO 11/08/1959 JL. CANDI NO. 01 RT 03 RW 02 BOJANEGARA KAB. PURBALINGGA
355 1100431589 SUTAWI YATIMAN SARENGAT 11/11/1972 GETASSRABI RT 05 RW 04 KAB. KUDUS
356 1100431594 NUR ROSYIDAH ABDUL JALIL 11/04/1976 GETASSRABI RT 05 RW 04 KAB. KUDUS
357 1100431621 NOOR CHOLIS 25/06/1979 KIRIG RT 001 / RW 002 KAB. KUDUS
358 1100432011 SISWADI SUKO RUMISIH 29/01/1979 KETITANG WETAN 5/1 BATANGAN KAB. PATI
359 1100432074 SUGIYARNO 16/07/1961 DUSUN SLENTO RT.02/RW.03 KAB. KENDAL
360 1100432149 M. THOHIR 08/01/1962 SIMBANG WETAN RT.11/04 BUARAN KAB. PEKALONGAN
361 1100432155 ANIS FARKHA MALISA 17/01/1994 SIMBANG WETAN RT.11/04 BUARAN KAB. PEKALONGAN
362 1100432358 TATI PRAMUKARTI 04/12/1962 KARANG TENGAH RT.11 RW.05 KAB. WONOSOBO
363 1100432360 TURAH IBNU MUFTI SANJAYA 10/08/1963 KARANG TENGAH RT.11 RW.05 KAB. WONOSOBO
364 1100432974 MIFTAHUL HIDAYAT 01/07/1976 JL AYANI 02 RT02 RW02 DESA CIPARI KEC CIPARIKAB.
KAB CILACAP
C
365 1100433096 RANGGI ARDIYOSO 14/05/1990 DK. JATISARI RT 003 / RW 003 KAB. PATI
366 1100433224 ALI MUSTAJIB 15/03/1972 PADURESO, RT.04/RW.01 KAB. TEMANGGUNG
367 1100433477 WASIYATI 26/11/1971 MAYASARI RT 04 RW 06 KAB. WONOSOBO
368 1100433481 FATCHUROCHMAN 24/08/1970 MAYASARI RT 04 RW 06 KAB. WONOSOBO
369 1100433819 IBNU HASIM 26/09/1971 NGADISONO RT. 08 RW. 04 KAB. WONOSOBO
370 1100433940 WAHYUDI 08/07/1973 KARANGTEJO, RT.05/RW.03 KAB. TEMANGGUNG
371 1100433948 SUYENTIN 07/03/1972 KARANGTEJO, RT 05/RW 03 KAB. TEMANGGUNG
372 1100434029 KUSEN 04/04/1965 GRINTING RT. 03/02 BULAKAMBA KAB. BREBES
373 1100434031 DARSINAH 26/04/1965 GRINTING RT. 03/02 BULAKAMBA KAB. BREBES
374 1100434037 SALMAN 20/07/1983 JL A YANI RT03 RW08 KAB. CILACAP
375 1100434354 NURUL INAYAH 01/04/1996 JL. PUNGKURAN PAGERSARI RT.01/RW.01 WELERI KAB. KENDAL
376 1100434448 SUKIJO, DRS, MPD 13/09/1957 SABRANGAN 02/05 KAB. KLATEN
377 1100434537 ROCHAMIN 10/05/1969 KEBONSARI, RT.03/RW.01 KAB. TEMANGGUNG
378 1100434544 RUSDI SANTOSO 11/08/1972 NGOREYAN 03/02 KAB. KLATEN
379 1100434619 MAFTUKHIN 20/02/1989 JUWIRING RT.04/RW.03 KAB. KENDAL
NO NO. PORSI NAMA TANGGAL LAHIR ALAMAT KAB/KOTA KETERANGAN
380 1100434713 MAHIDI 14/01/1966 BRECEK RT 04 RW 01 KAB. PURBALINGGA
381 1100434815 PARIPURNO 20/05/1975 GODONGAN [Link] 06/02 KAB. GROBOGAN
382 1100434818 KARSIPAH 02/05/1979 GODONGAN 06/02 KAB. GROBOGAN
383 1100434867 SITI SAMROH 16/08/1966 MENDURAN 06/01 KAB. GROBOGAN
384 1100434883 ANIK ROSYIDAH 28/04/1983 PRANGKOAN 01/01 KAB. MAGELANG
385 1100434885 RAKHMAD IKHSAN NUR KHAMIN 10/02/1982 PRANGKO'AN RT. 01/01 KAB. MAGELANG
386 1100434932 DEWI ZULAICHAH 04/07/1991 JL. MAYJEN BAMBANG SOEGENG 06/02 KAB. MAGELANG
387 1100435086 EDI WAHYU WIDODO 17/10/1970 REJOSARI, RT.03/RW.03 KAB. TEMANGGUNG
388 1100435095 SITI QOIDAH 29/01/1965 LAMUK LEGOK, RT.02/RW.01 KAB. TEMANGGUNG
389 1100435140 BOTHOK PURWANTORO 05/10/1966 TLILIR, RT.02/RW.01 KAB. TEMANGGUNG
390 1100435144 FATKHUL BAROROH 13/07/1995 TLILIR, RT.02/RW.01 KAB. TEMANGGUNG
391 1100435159 ARI WIDYANINGSIH 23/12/1985 TLILIR, RT.02/RW.01 KAB. TEMANGGUNG
392 1100435161 MUH KHAERODIN 08/02/1984 TLILIR, RT.02/RW.01 KAB. TEMANGGUNG
393 1100435169 ISTIANAH 12/12/1982 TLILIR, RT.05/RW.01 KAB. TEMANGGUNG
394 1100435208 ANITA WAHYUNINGRUM SOEGIMAN 28/11/1982 LORAM WETAN RT 03 RW 06 KAB. KUDUS
395 1100435215 AKHMAD MUNDAKIR H.M. IDRIS 21/08/1964 LORAMWETAN RT.03 RW.06 KAB. KUDUS
396 1100435233 SUYITNO 13/10/1957 LANGGAR RT 02 RW 02 KAB. PURBALINGGA
397 1100435242 SITI MASITHOH 08/06/1963 LANGGAR RT 02 RW 02 KAB. PURBALINGGA
398 1100435250 SUTARYO 17/09/1973 LANGGAR RT 01 RW 07 KAB. PURBALINGGA
399 1100435258 SUMINEM SEMIYONO 09/10/1963 DK. DALANGAN RT. 02/08 KAB. SUKOHARJO
400 1100435314 MURSIDI SANGKAN POEDJO PRANOTO 05/05/1965 KARANGREJO 01/03 JUWANA KAB. PATI
401 1100435321 MARDI SUKIMAN MARNI 01/07/1957 DUKUTALIT 02/01 JUWANA KAB. PATI
402 1100435325 IKHSANUDIN 29/07/1976 TLILIR, RT.05/RW.01 KAB. TEMANGGUNG
403 1100435340 SUTARSI SARDJU TARSIH 10/10/1966 KARANGREJO 01/03 JUWANA KAB. PATI
404 1100435348 SUMINARSI SARJU SUTARSIH 07/07/1971 DUKUTALIT 02/01 JUWANA KAB. PATI
405 1100435361 SUNDOYO SUYOTO RADI 09/03/1962 DUKUTALIT 01/02 JUWANA KAB. PATI
406 1100435370 YUSUF ARIFIN 26/04/1985 LAMUK LEGOK, RT.03/RW.01 KAB. TEMANGGUNG
407 1100435453 NUR LAILA 27/07/1969 GRIYA BUARAN INDAH BLOK A /6 RT.1/8 KOTA PEKALONGAN
408 1100435490 WAHYUNINGSIH 02/01/1960 KUPANG LOR RT.03 / 03 KUPANG LOR KAB. SEMARANG
409 1100435533 KORINATANI 24/09/1962 JL. KIJANG RT.04/02 TRAYEMAN KAB. TEGAL
410 1100435534 SUKARDI 28/02/1960 JL. KIJANG RT.04/02 TRAYEMAN KAB. TEGAL
411 1100435590 YUSUP AS'ADI 17/12/1960 PRM KALIBAGORBLK B NO.22 RT.5/5 KAB. BANYUMAS
412 1100435592 SRI ARUM PURWANINGSIH 21/01/1966 PRM KALIBAGOR BLK B 22 RT.5/5 KAB. BANYUMAS
413 1100435627 EKA SURYANINGSIH 29/12/1977 PAWEDEN RT.18/06 BUARAN KAB. PEKALONGAN
414 1100435631 SUTORO 01/08/1971 PAWEDEN RT.18/06 BUARAN KAB. PEKALONGAN
415 1100435642 DRA. SITI HARYATI 03/08/1957 JL ARJUNA III NO.13 RT.05/10 LEREP KAB. SEMARANG
416 1100435653 MARHENI DJONO PURWANTO 08/01/1959 SRATEN PERMAI BLOK S2 RT.05/07 SRATETN KAB. SEMARANG
417 1100435658 ADRIAN DWI SAPUTRO 15/02/1989 PERUM KOTA BARU NO 102 RT.003/013 BLOTONGAN
KAB. SEMARANG
418 1100435695 UMI SALAMAH EW 16/10/1960 [Link] RT. 7/3 KAB. BANYUMAS
419 1100435731 NOVIALITA CHAKIM 10/11/1980 REJOSARI, RT.03/RW.03 KAB. TEMANGGUNG
420 1100435738 KASRIAH 10/11/1968 SIDAPURNA RT.19/03 DUKUHTURI KAB. TEGAL
421 1100435740 KASIR 12/03/1964 SIDAPURNA RT.19/03 DUKUHTURI KAB. TEGAL
422 1100435757 ARDHI YULIANTO 23/07/1983 JABUNGAN KOTA SEMARANG
423 1100435760 LUSSIA CHRISTINA 26/12/1982 JABUNGAN KOTA SEMARANG
424 1100435763 YULIA PUSPITA SARI 21/07/1985 NGEMPLAK 07/03 KAB. KLATEN
425 1100435766 HERI NURYANTO 10/10/1976 NGEMPLAK 07/03 KAB. KLATEN
426 1100435768 NURUR FAJRI CHIKMAWATI 26/06/1974 GEMIRING KIDUL 01/01 KAB. JEPARA
427 1100435769 SUPARNO 09/04/1972 SEMUNGGANG RT 02 RW 11 KAB. WONOSOBO
428 1100435774 SISWOYO 15/03/1966 PONCORUSA RT. 01 RW.02 KAB. SEMARANG
429 1100435776 JONAH 31/12/1965 REMBUL RT.07/03 BOJONG KAB. TEGAL
430 1100435777 FENDI NOVELIANDIKA 16/11/1994 KEL. BERAN RT.01/02 BERAN BLORA KAB. BLORA
431 1100435779 ZULIATI KARSANI REBO 13/02/1960 KALIPUCANG WETAN 007/001 KAB. JEPARA
432 1100435781 TITIK LIASRUM ISNAINI 02/02/1966 KEL. BERAN RT 01/02 KAB. BLORA
433 1100435783 TARNO 01/07/1960 REMBUL RT.07/02 BOJONG KAB. TEGAL
434 1100435784 SITI NURJANNAH RAJID 12/10/1975 SEDAN RT 004 RW 001 SEDAN KAB. REMBANG
435 1100435786 MUSTAKIM FATCHURROHMAN MASRUN 13/08/1968 SEDAN RT 004 RW 001 SEDAN KAB. REMBANG
436 1100435788 ZAENAL ARIFIN 16/07/1968 PENJALIN RT.01/RW.03 KAB. KENDAL
437 1100435791 ENIK KISWATI KASMANI 26/04/1970 SUMBERJO RT 004 RW 003 REMBANG KAB. REMBANG
438 1100435792 LASMIN PRASETYO KASNAN 18/02/1964 SUMBERJO RT 004 RW 003 REMBANG KAB. REMBANG
439 1100435793 URIPAH MUSTAJAB NGALIMUN 02/03/1970 SARANGMEDURO RT 002 RW 001 SARANG KAB. REMBANG
440 1100435794 UMI ISNAENI 28/10/1974 PENJALIN RT.01/RW.03 KAB. KENDAL
441 1100435795 JUMAIDI NASIRAN DARI 03/05/1964 SARANG MEDURO RT 002 RW 001 SARANG KAB. REMBANG
442 1100435798 SARMINI RADIMAN NGATIMAN 19/08/1960 DEMAAN RT 002 RW 001 GUNEM KAB. REMBANG
443 1100435800 LILIK ROSYIDAH MASKAN 17/05/1974 TROSO RT.004/001 KAB. JEPARA
444 1100435802 RODIATI 12/01/1962 JL PERINTIS 06 RT05 RW01 KAB. CILACAP
445 1100435812 SRI SULASTRI SAIMIN 14/07/1971 KALIGARANG RT 05/02 KAB. JEPARA
446 1100435813 SUWARNO SURYOMO SURYO 18/06/1969 KALIGARANG RT 05/02 KAB. JEPARA
447 1100435814 FITRININGSIH 01/04/1960 JL. PERKUTUT NO. 19 RT.02/03 KEMANTRAN KAB. TEGAL
448 1100435815 BAMBANG SUHARJO HADIYANTO 20/04/1970 TROSO RT.004/001 KAB. JEPARA
449 1100435819 PUJIATI 31/12/1971 JL TONGKOL 103 RT02 RW04 KAB. CILACAP
450 1100435820 MUNTHOLIB 04/02/1984 GONDANG RT.01/RW.01 KAB. KENDAL
451 1100435821 MULYONO 12/06/1976 GONDANG RT 01/01 KAB. SUKOHARJO
452 1100435822 AGUS AHMADI 14/06/1978 LING TEGALSARI RT.02 RW.08 KAB. SEMARANG
453 1100435826 DESSY TWINTRI SIERA 07/12/1977 LING TEGALSARI RT.02 RW.08 KAB. SEMARANG
454 1100435833 SULISTIYONO KIMIN MURTINI 24/12/1968 SUKOHARJO 1/4 MARGOREJO KAB. PATI
455 1100435836 SUDARYONO 06/07/1965 KUTOARJO RT 03/10 KAB. PURWOREJO
456 1100435838 ROHIM 07/09/1965 DONOWANGUN RT.02/01 TALUN KAB. PEKALONGAN
457 1100435841 SULISTIYATI 28/06/1977 DONOWANGUN RT.03/01 TALUN KAB. PEKALONGAN
458 1100435842 SUYATMINI 23/07/1969 KUTOARJO RT 03/10 KAB. PURWOREJO
459 1100435843 TUTIK WURYANI SOEKRAN 22/10/1969 SUKOHARJO 1/4 MARGOREJO KAB. PATI
460 1100435845 WISHNU WIBISONO,IR 01/10/1963 [Link] SRI REJEKI NO.26 RT.07/02 KOTA SEMARANG
461 1100435846 SRI INDARWATI,SE 12/12/1966 [Link] SRI REJEKI NO.26 RT.07/02 KOTA SEMARANG
462 1100435847 FIRMAN ALAMSYAH 23/10/1965 JL MURAI NO 25 RT 05 RW. 12 PRUM BGI KAB. KARANGANYAR
463 1100435848 JUMINAH 09/09/1959 GADING RT.06/02 TUNTANG KAB. SEMARANG
464 1100435856 DARSONO 02/02/1970 PEJAREN 02/01 KAB. GROBOGAN
465 1100435860 SULISTYOWATI 13/01/1963 [Link] AHMAD DAHLAN PALEMBAHAN 09/08 KAB. GROBOGAN
466 1100435861 KHUSNUL ABIDIN 19/08/1977 GONDANG RT.01/RW.01 KAB. KENDAL
467 1100435868 ERNA SUSANTI 16/11/1973 JL. GAJAH AMDA NO 45 02/20 KAB. GROBOGAN
468 1100435869 SRI MIRAH 06/01/1962 DESA KALIREJO RT.04 RW.01 KAB. KENDAL
469 1100435870 KASWATI 02/08/1962 MRICO 01/03 KAB. GROBOGAN
470 1100435871 MARDIYAH 02/04/1966 SINDURAJA RT 01 RW 08 KAB. PURBALINGGA
471 1100435872 INDA FATMASARI 16/05/1980 SAMBIROTO BARU RT.03/11 KOTA SEMARANG
472 1100435873 JENI TRIANAWATI 09/01/1976 KANDANGAN RT 01 / RW 04 KAB. GROBOGAN
473 1100435874 AGUNG PRASETYO 18/03/1979 SAMBIROTO BARU RT.03/11 KOTA SEMARANG
474 1100435875 ENDANG YULINA 25/05/1967 PERUMDA 02/20 KAB. GROBOGAN
475 1100435876 DAMINING 23/11/1980 TANJUNGSARI I C NO.14 RT.08/06 KOTA SEMARANG
476 1100435877 ISWARININGDYAH 25/02/1968 DUSUN REJOSARI RT.03/RW.04 KAB. KENDAL
477 1100435878 SOLEKHUN 27/05/1980 TANJUNGSARI I C NO.14 RT.08/06 KOTA SEMARANG
478 1100435879 EDY SANTOSO 12/01/1968 JL. GAJAH MADA NO. 45 02/20 KAB. GROBOGAN
479 1100435881 YUSUF SETIYO SUWARSO, SE 31/12/1969 KEMANTRAN RT.01/03 KRAMAT KAB. TEGAL
480 1100435884 SITI RIWAYATI 14/01/1971 KEMANTRAN RT.01/03 KRAMAT KAB. TEGAL
481 1100435885 HURI 05/08/1957 PERUMDA 02/20 KAB. GROBOGAN
482 1100435887 SUDJARI 04/01/1962 DUSUN REJOSARI RT.03/RW.04 KAB. KENDAL
483 1100435889 LELY ROHMANI,DRA 04/02/1968 KUNCEN 04/06 KAB. KLATEN
484 1100435890 SRI SUDI HARTININGSIH 08/07/1958 JL A YANI 03 RT04 RW06 KAB. CILACAP
485 1100435897 MASROKAN,DRS 10/10/1963 KUNCEN 04/06 KAB. KLATEN
486 1100435898 NUR HIDAYAH 01/07/1968 SUKOREJO [Link] RT.04 RW.02 KAB. BATANG
487 1100435900 KASIM SUSANTO 18/08/1959 JL A YANI 03 RT04 RW06 KAB. CILACAP
488 1100435914 SUDIYAH 12/08/1971 SAMBENG KULON RT 01 RW 01 KAB. BANYUMAS
489 1100435920 RIZKY NUGROHO HERY BHASKORO 29/11/1996 TEMPEL RT 04 RW 11 KAB. WONOSOBO
490 1100435921 LAILATUL FITRIYAH ABDUL ROHMAN 11/04/1983 KALIPUCANG KULON 03/03 KAB. JEPARA
491 1100435923 SUKARDI 26/10/1972 DUKUH SUCEN RT 03 RW 02 KAB. BLORA
492 1100435925 BAMBANG HERYANTO 10/12/1960 TEMPEL RT 04 RW 11 KAB. WONOSOBO
493 1100435927 SAEKUN 07/04/1959 JATEN I RT 1 RW 8 KOTA SEMARANG
494 1100435929 KASMANI 06/08/1957 JATEN GEDE TIMUR III RT 001 / RW 006 KOTA SEMARANG
495 1100435934 MAMEIK SLAMET 12/05/1963 JL. TAMPOMAS SELATAN III/26 RT 6 RW 1 KOTA SEMARANG
496 1100435935 AHMAD SYAEKHU NURYASIN 11/05/1970 KRAJAN PRUWATAN RT.07/RW.03 BUMIAYU KAB. BREBES
497 1100435936 MUTAMIM ULA 13/07/1977 NGASINAN RT 10/03 KAB. SRAGEN
498 1100435938 SRIHADININGSIH 05/11/1957 [Link] II NO.217 RT.01/05 BREBES KAB. BREBES
499 1100435939 MUHAMAD KHOIRI MANSUR 09/09/1980 KALIPUCANG KULON 03/03 KAB. JEPARA
500 1100435941 SULASIH 30/12/1983 NGASINAN RT 10/03 KAB. SRAGEN
501 1100435946 HENNI LISTIYOWATI SOEDARTO 17/08/1979 SUKOLILO 6/5 SUKOLILO KAB. PATI
502 1100435947 PRAMONO KLIWON SUMINI 14/08/1969 SUKOLILO 6/5 SUKOLILO KAB. PATI
503 1100435951 WIWIN HERLINAWATI 25/02/1973 JL. KRANGGAN POMPA NO. 266 RT.01/02 KOTA SEMARANG
504 1100435956 SRI HARNI IRIANTI 08/04/1962 SAWAHAN BARU RT.03/RW.08 KAB. SUKOHARJO
505 1100435957 SRI YATI YUSAK PASINI 15/06/1966 SUKOHARJO 03/02 MARGOREJO KAB. PATI
506 1100435958 SAKDIYAH 16/10/1965 TEPUS 13/03 KAB. MAGELANG
507 1100435960 PURYANTO PAIJAN MACHMUDAH 24/07/1960 SUKOHARJO 03/02 MARGOREJO KAB. PATI
NO NO. PORSI NAMA TANGGAL LAHIR ALAMAT KAB/KOTA KETERANGAN
508 1100435963 MUHSON 18/03/1961 TEPUS 13/03 KAB. MAGELANG
509 1100435964 DALIMIN 19/11/1965 BENERSARI RT 27 KAB. SRAGEN
510 1100435966 ANIK HASTUTI 01/11/1971 BENERSARI RT 27 KAB. SRAGEN
511 1100435967 A. ZUBER 11/08/1963 BAKALAN RT 06 RW 08 KAB. WONOSOBO
512 1100435968 TUMIATI 15/07/1970 GLEMPANG PASIR RT03 RW07 KAB. CILACAP
513 1100435969 GUNAWAN SISWANTO 03/02/1984 [Link] 2 CEMANI RT.07/RW.13 KAB. SUKOHARJO
514 1100435970 SUTIYEM 08/08/1965 JLN. KADEMANGAN 2 CEMANI RT.07/RW.13 KAB. SUKOHARJO
515 1100435972 ROZANAH 01/06/1970 KADIPATEN RT.03/02 WIRADESA KAB. PEKALONGAN
516 1100435973 ROZIKIN 18/08/1965 KADIPATEN RT.03/02 WIRADESA KAB. PEKALONGAN
517 1100435977 SOFIAH 10/10/1958 SEKARAN RT.03/03 KOTA SEMARANG
518 1100435981 SUKIYAH 01/07/1960 RANCAWULUH RT. 02/01 BULAKAMBA KAB. BREBES
519 1100435982 BARIROH 05/05/1974 SOKO RT.04 RW.02 KOTA PEKALONGAN
520 1100435983 KHASANI 25/02/1969 JL. OTTO ISKANDARDINATA RT.01 RW.04 KOTA PEKALONGAN
521 1100435984 SISWANTO SUKARSO SULASTRI 10/07/1979 PATI WETAN 4/1 PATI KAB. PATI
522 1100435985 AYU YUANITA WURYANTO 16/01/1985 PATI WETAN 4/1 PATI KAB. PATI
523 1100435994 HARWATI SAMBI PARINI 12/04/1982 MANTINGAN 20/06 KAB. JEPARA
524 1100435997 MASRIAH HADI SUPANGKAT 26/06/1968 DRESI KULON RT 002 RW 001 KALIORI KAB. REMBANG
525 1100435998 SUDAR 31/12/1957 GONDANG RT.03 RW.03 KAB. KENDAL
526 1100435999 EDY SUCIPTO SURATMAN 09/01/1960 DRESI KULON RT 002 RW 001 KALIORI KAB. REMBANG
527 1100436006 WASILATUN ABDUR ROHIM RUBAWI 21/05/1973 SAMBONG RT 002 RW 002 SEDAN KAB. REMBANG
528 1100436009 NGATMI DJALUD REPO 31/12/1960 KESAMBI RT.05 RW.08 KAB. KUDUS
529 1100436015 UNIK WINDI ASTUTI 20/08/1979 KRAJAN PRUWATAN RT.07/RW.03 BUMIAYU KAB. BREBES
530 1100436018 UNTUNG TAUFIK 20/02/1963 JL. RE. MARTADINATA NO.10 RT.05 RW.01 KAB. BATANG
531 1100436019 UMI KHURAEROH 15/06/1975 BANJARANYAR RT.4/1 KAB. BANYUMAS
532 1100436024 AHMAD KHAERUDIN 15/03/1964 BANJARANYAR RT. 4/1 KAB. BANYUMAS
533 1100436027 MUNANTI 31/12/1961 GONDANG RT.03 RW.03 KAB. KENDAL
534 1100436032 HAN WICAKSONO 30/12/1980 PUCUNGSARI 25/09 KAB. MAGELANG
535 1100436036 MAR'ATUN RASIDAN ASRI 01/07/1964 SENDANGMULYO RT 002 RW 001 SLUKE KAB. REMBANG
536 1100436038 NUR KHAYATI 05/04/1985 SENDANGMULYO RT 002 RW 001 SLUKE KAB. REMBANG
537 1100436041 SRI PURWANINGSIH,SPD 18/02/1963 LANGENHARJO 09/05 KAB. KLATEN
538 1100436042 SRI DAMAIATI 20/05/1960 JAGAPURA NO. 08 RT. 06/02 KERSANA KAB. BREBES
539 1100436045 DA'AN REMANTO 11/10/1957 JAGAPURA NO. 08 RT. 06/02 KERSANA KAB. BREBES
540 1100436049 MUKOROBIN,SPD 11/08/1962 LANGENHARJO 09/05 KAB. KLATEN
541 1100436050 ZAENATUN 31/12/1957 CETOKAN RT. 16/08 KAB. MAGELANG
542 1100436051 BADARUDIN 27/04/1974 BUTUH RT. 02/09 KAB. MAGELANG
543 1100436067 AGUS MUSLIH 02/12/1978 DSN KRAWITAN RT 002 RW 001 KAB. TEMANGGUNG
544 1100436069 JAPAR 20/07/1984 JL. JEND. SUDIRMAN NO. 345 RT 003 / RW 001 KAB. CILACAP
545 1100436071 TATIK KRISTIYANAH 05/06/1980 DSN KRAWITAN RT 002 RW 001 KAB. TEMANGGUNG
546 1100436077 MASITOH 18/07/1962 BREKAT RT.12/01 TARUB KAB. TEGAL
547 1100436079 MUGI ASTUTI 17/02/1962 JL PAMUGARAN RT02 RW05 KAB. CILACAP
548 1100436083 SLAMET RIYADI SURONO 05/04/1964 SEKURO 06/02 KAB. JEPARA
549 1100436086 RINA MICRONIK 14/08/1976 LIMPUNG RT.03 RW.02 KAB. BATANG
550 1100436088 MISADI 01/06/1963 DELISEN RT.05 RW.02 KAB. BATANG
551 1100436089 SUYATMI SUMARSONO DULATIF 20/05/1969 SEKURO 06/02 KAB. JEPARA
552 1100436090 RUSPAN 11/06/1960 BUBAKAN RT 2 RW 3 KOTA SEMARANG
553 1100436091 SRIYANA 16/10/1963 GODEGAN RT.04/RW.15 KAB. SUKOHARJO
554 1100436092 UMSIYAH 31/12/1960 BUBAKAN RT.02/03 KOTA SEMARANG
555 1100436093 SULASTRI 18/07/1967 GODEGAN RT.04/RW.15 KAB. SUKOHARJO
556 1100436096 LATIFAH 05/05/1972 BOJONGMINGGIR GG.5 RT.12/06 BOJONG KAB. PEKALONGAN
557 1100436101 IDEA RISETA PERMANASARI 07/07/1972 JL. PALA BARAT I BLOK K NO.15 RT.12/09 KAB. TEGAL
558 1100436102 SOLIHIN 30/12/1957 BREKAT RT.12/01 TARUB KAB. TEGAL
559 1100436103 UBAIDILLAH 01/01/1962 BOJONGMINGGIR GG.5 RT.12/06 BOJONG KAB. PEKALONGAN
560 1100436104 BUDI PRATIKTO 12/07/1961 JL. PALA BARAT I BLOK K NO.15 RT.12/09 KAB. TEGAL
561 1100436105 SURAMIN RAMIDJAN TOMARSO 10/11/1964 TAWANGREJO RT 006 RW 003 SARANG KAB. REMBANG
562 1100436109 MUHAMAD SHOBIRIN 27/03/1978 KARANGSONO RT.07/01 KAB. DEMAK
563 1100436110 SITI MAESAROH 10/05/1979 KARANGSONO RT.07/01 KAB. DEMAK
564 1100436111 SHAFRAN AGUSTIAR 05/03/1974 JL. KENANGA WIKU II NO.301 RT.01/04 KAB. DEMAK
565 1100436112 ASIFIN AL 21/11/1968 YOSOREJO RT. 1 RW. 4 KOTA PEKALONGAN
566 1100436113 [Link] 18/05/1962 DSN. KEDEMUNGAN RT. 07 RW. 02 KAB. PEMALANG
567 1100436114 WIWIN WIDDHIASTUTI 27/12/1973 JL. KENANGA WIKU II NO.301 RT.01/04 KAB. DEMAK
568 1100436115 MUSRIPAH 31/12/1969 YOSOREJO RT. 1 RW. 4 KOTA PEKALONGAN
569 1100436117 SUMINI 08/04/1958 BOGOSARI RT.04/03 KAB. DEMAK
570 1100436118 KASTINAH 25/05/1965 SIDOREJO RT.02/05 KAB. DEMAK
571 1100436119 NURMAWADAH 08/10/1977 SIDOREJO RT.02/05 KAB. DEMAK
572 1100436122 NGADINO 03/07/1964 SIDOREJO RT.02/05 KAB. DEMAK
573 1100436125 SUCI QUR'ANI 14/09/1969 DESA LONING RT. 07 RW. 02 KAB. PEMALANG
574 1100436127 NUR SALIM 10/10/1976 SIDOREJO RT.02/05 KAB. DEMAK
575 1100436139 ACHMAD FADHOL KODIM, BBA 28/08/1965 LIMPUNG RT.03 RW.02 KAB. BATANG
576 1100436149 KASNIAH 01/07/1960 MAJATENGAH RT 14 RW 05 KAB. PURBALINGGA
577 1100436157 SUPARTI 01/08/1960 GONDANG BARU RT 14 KAB. SRAGEN
578 1100436161 SUNARYO 07/02/1959 PURWODADI RT. 1/2 KAB. BANYUMAS
579 1100436163 FARIDA HASANAH AHMAD SALIM 01/08/1982 BARONGAN RT.04 RW.01 KAB. KUDUS
580 1100436167 HARIYONO MARTOPODO HARJONGAS 08/12/1974 BARONGAN RT.04 RW.01 KAB. KUDUS
581 1100436169 HARTINI 11/09/1968 KARANGREJO VI NO. 2 RT.03/07 KOTA SEMARANG
582 1100436175 SUTARMAN 09/06/1963 KREBET RT 13 KAB. SRAGEN
583 1100436177 SRI MURJIATMI 15/07/1971 KREBET RT 13 KAB. SRAGEN
584 1100436179 SURANI 03/05/1964 KARANGREJO VI NO.2 RT.03/07 KOTA SEMARANG
585 1100436183 HERY INDRANINGRUM 18/02/1959 WIRADESA RT.14/03 WIRADESA KAB. PEKALONGAN
586 1100436184 YULANDA SAFIRA HUSNA 13/04/1998 KEDUNGDOWO RT 01 RW 02 KAB. KUDUS
587 1100436185 SANTO DWIYONO 23/02/1977 [Link] 195 SUMPIUH RT. 4/1 KAB. BANYUMAS
588 1100436186 LINAWATI 23/09/1983 [Link] 195 SUMPIUH RT. 4/1 KAB. BANYUMAS
589 1100436188 MAS'ANAH SANUSI LEGIDIN 20/03/1973 KEDUNGDOWO RT 01 RW 02 KAB. KUDUS
590 1100436189 SUTARJO 12/05/1969 NGRANDU RT 02/02 KAB. SRAGEN
591 1100436190 NURHIDAYATI , SPD 08/11/1972 NGRANDU RT 02/02 KAB. SRAGEN
592 1100436191 KARDIYO 06/08/1959 SETITIR RT 01 RW 12 KAB. WONOSOBO
593 1100436196 SUKESI 10/02/1963 SETITIR RT 01 RW 12 KAB. WONOSOBO
594 1100436198 JUMADI HADI SUNARTO 31/12/1957 PENGKOK RT 17/05 KAB. SRAGEN
595 1100436199 SUMINAH 31/12/1958 PENGKOK RT 17/05 KAB. SRAGEN
596 1100436207 MUNDAKIR,[Link] 20/10/1963 KALIBOYO NO.01 RT.03 RW.01 KAB. BATANG
597 1100436209 SIH SETYA ARUM 19/02/1968 KALIBOYO NO.01 RT.03 RW.01 KAB. BATANG
598 1100436210 KASMI 31/12/1960 BEJIREJO RT 01/03 KAB. BLORA
599 1100436212 SUYATMI 25/07/1960 KEDUNGLERI RT. 01 RW. 03 KAB. WONOGIRI
600 1100436214 TAMSI 05/11/1958 KEDUNGLERI RT 01 RW 03 KAB. WONOGIRI
601 1100436215 MU'ASARAH MUNJI SUJAK 30/12/1963 BAJINGJOWO RT 002 RW 001 SARANG KAB. REMBANG
602 1100436217 SUKANAH MUSTAHAL ACHWAN 21/08/1973 BAJINGMEDURO RT 003 RW 001 SARANG KAB. REMBANG
603 1100436220 CASINAH 03/12/1968 KRAKAHAN RT.05/01 TANJUNG KAB. BREBES
604 1100436222 NUR AENI 12/06/1962 KRAKAHAN RT.03/01 TANJUNG KAB. BREBES
605 1100436223 KOSIRIN 23/04/1958 KRAKAHAN RT.03/01 TANJUNG KAB. BREBES
606 1100436225 MUHAMMAD ALI MUNIF, [Link] 06/09/1961 JL. ANGKATAN 45 GG 6 NO.7 RT.01 RW.03 KOTA PEKALONGAN
607 1100436227 AFNI'AH, [Link] 09/05/1961 JL. ANGKATAN 45 GG.6 NO.7 RT.01 RW.03 KOTA PEKALONGAN
608 1100436229 NURI ISMIYATI 28/03/1962 BULAK RT 01 KAB. SRAGEN
609 1100436232 NANIK SRI WAHYUNI 16/01/1976 SENDANGWATES RT 02/01 KAB. BLORA
610 1100436233 JOKO LELONO 04/04/1970 SENDANGWATES RT 02/01 KAB. BLORA
611 1100436234 DRS. MUTOHAR 13/06/1960 GAGAAN RT 04/01 KAB. BLORA
612 1100436235 ENDANG PURBANINGSIH 18/01/1966 GAGAAN RT 04/01 KAB. BLORA
613 1100436244 ROCHMANTO 13/06/1970 KONGSI RT 01 RW 04 KAB. WONOSOBO
614 1100436245 IFAYANTI 08/01/1974 KONGSI RT 01 RW 04 KAB. WONOSOBO
615 1100436249 SRI WATI 15/04/1968 SIMBANG DESA RT.12 RW.04 KAB. BATANG
616 1100436250 SAMINAH KARIBAN GAMPANG 01/07/1961 KALIPUCANG WETAN 003/001 KAB. JEPARA
617 1100436251 SARNI SUPINGI KUSMEN 05/04/1973 SAMPUNG RT 002 RW 002 SARANG KAB. REMBANG
618 1100436252 SUNIPAH 05/10/1967 REJOSARI RT 04/08 KAB. DEMAK
619 1100436253 SUBKHAN 26/04/1967 SIMBANG DESA RT.12 RW.04 KAB. BATANG
620 1100436254 ASMADI 25/12/1962 REJOSARI RT 04/08 KAB. DEMAK
621 1100436255 MUSRIAH 19/07/1963 WONOSEGORO RT 02 RW 04 KAB. BOYOLALI
622 1100436257 PONISAH 29/11/1973 SIMBANG DESA RT.11 RW.04 KAB. BATANG
623 1100436258 SRIATI 12/02/1976 KALIMANGGIS ROWOSARI RT.02 RW.01 KAB. BATANG
624 1100436259 M. ALI IMRON ROSYADI 05/08/1964 SIMBANG DESA RT.13 RW.04 KAB. BATANG
625 1100436261 SISWANTI 23/12/1966 SUMBEREJO RT 03/01 KAB. BLORA
626 1100436262 FATIMAH PARJO WASIYO 27/03/1958 KUMBO RT 007 RW 004 SEDAN KAB. REMBANG
627 1100436263 CASTIANAH 26/04/1962 SIMBANG DESA RT.12 RW.04 KAB. BATANG
628 1100436266 WALEH TASLIM RAKIBAN 06/04/1958 KUMBO RT 007 RW 004 SEDAN KAB. REMBANG
629 1100436268 IWAN ARI NATALIA 25/12/1984 SUMBEREJO RT 003 / RW 001 KAB. BLORA
630 1100436269 YAMINAH 03/07/1959 GEDANGAN 03/05 KAB. MAGELANG
631 1100436272 SUKIMIN 03/08/1962 KLANGON KULON RT. 01 RW. 02 KAB. KARANGANYAR
632 1100436273 KASTAMBAR KARSUM SYAMSURI 19/02/1969 SIDIGEDE 08/02 KAB. JEPARA
633 1100436275 KUSNAH KAPANDI BOREK 03/02/1975 SIDIGEDE 08/02 KAB. JEPARA
634 1100436276 NAILIL HIKMAH CHUMAIDI 09/01/1983 BONDO 03/09 KAB. JEPARA
635 1100436277 SARWIASIH 10/11/1967 KLANGON KULON RT. 01 RW. 02 KAB. KARANGANYAR
NO NO. PORSI NAMA TANGGAL LAHIR ALAMAT KAB/KOTA KETERANGAN
636 1100436278 MUALIF AGUS MAWARDI 09/03/1980 BONDO RT 03/09 KAB. JEPARA
637 1100436280 NAFISATUL UMMIYAH 25/05/2001 SENEPO BARAT RT 02/03 KAB. PURWOREJO
638 1100436286 ROPIAH 06/12/1969 BANJARANYAR RT.02/04 BREBES KAB. BREBES
639 1100436289 AHMAD KOSIM 31/12/1968 BANJARANYAR RT.02/04 BREBES KAB. BREBES
640 1100436290 DARMANTO 28/07/1973 DUNGJANGAN RT. 03 RW. 02 KAB. KARANGANYAR
641 1100436291 HAYATI INDRIYANI SJAKUR ROHADI 22/12/1962 SODITAN RT 006 RW 003 LASEM KAB. REMBANG
642 1100436294 SUJINAH 11/01/1963 KEMLOKO RT 01 RW 04 KAB. TEMANGGUNG
643 1100436295 SOLIKHATI ACHMADI KASBAN 01/07/1963 MAYONG LOR 05/04 KAB. JEPARA
644 1100436296 DAIMATUL CHOIRIYAH, [Link] 10/12/1978 DUNGJANGAN RT. 03 RW. 02 KAB. KARANGANYAR
645 1100436297 MADOLAH SUMARTO DOTO 11/09/1959 MAYONG LOR 05/04 KAB. JEPARA
646 1100436298 SALIYEM 07/05/1964 [Link] TIMUR RT.09/09 KOTA SEMARANG
647 1100436301 RAHAYU 17/09/1974 DESA LONING RT. 09 RW. 03 KAB. PEMALANG
648 1100436303 NAHRI 05/06/1968 DESA LONING RT. 09 RW. 03 KAB. PEMALANG
649 1100436306 TUTI WINARNI 04/08/1963 BRAMBANG RT.03/01 KAB. DEMAK
650 1100436308 ASMINAH 03/08/1966 KUTOARJO RT 03/03 KAB. PURWOREJO
651 1100436311 ROCHANI 25/12/1961 JUBANG RT.05/02 BULAKAMBA KAB. BREBES
652 1100436312 NURROKHIM 21/09/1968 SAYUNG RT 02 RW 01 KAB. DEMAK
653 1100436313 SUBALI RUSMIN WARSI 25/08/1962 GROWONG KIDUL 02/01 JUWANA KAB. PATI
654 1100436314 MASTIAH 30/05/1977 SAYUNG RT 02 RW 01 KAB. DEMAK
655 1100436322 SUJITO 13/10/1970 JL. HASANUDIN RT 05/01 KAB. BLORA
656 1100436323 NURNANINGSIH 09/12/1976 JL. HASANUDIN RT 05/01 KAB. BLORA
657 1100436326 AMANTO 06/07/1969 CILONGOK RT. 5/2 KAB. BANYUMAS
658 1100436328 KUSTINI 01/05/1971 CILONGOK RT. 5/2 KAB. BANYUMAS
659 1100436329 SITI MAISAROH 26/05/1974 NGALURAN RT.03/03 KAB. DEMAK
660 1100436330 MOH MUNASIR 06/05/1972 NGALURAN RT.03/03 KAB. DEMAK
661 1100436336 SOLIKIN SUKADI SUKARDI 15/09/1964 SIDOWAYAH RT 001 RW 001 PANCUR KAB. REMBANG
662 1100436337 MUALIYAH 31/03/1972 [Link] BARAT RT.07 RW.02 KAB. PEMALANG
663 1100436338 RONISAH 18/12/1964 JEMBAYAT RT.03/02 MARGASARI KAB. TEGAL
664 1100436339 AHMAD MAHALI 10/03/1967 DK. KRAJAN BARAT RT. 07 RW. 02 KAB. PEMALANG
665 1100436341 KURIDIN 04/07/1963 JEMBAYAT RT.03/02 MARGASARI KAB. TEGAL
666 1100436342 ALIFAH NUR LAELA 19/06/1960 DS. BRUMBUNG RT 05/01 KAB. BLORA
667 1100436343 IMAM SAFI'I 02/11/1964 KLAPAGADING KULON RT.3/9 KAB. BANYUMAS
668 1100436344 TRI HARYANTI 25/08/1973 KLAPAGADING KULON RT. 3/9 KAB. BANYUMAS
669 1100436346 RUSMINAH SUWARDI SUNDARBI 18/09/1977 NGURENSITI 4/3 WEDARIJAKSA KAB. PATI
670 1100436348 BIBIT SUKARMANI RAHAYU 08/02/1969 NGURENSITI 4/3 WEDARIJAKSA KAB. PATI
671 1100436349 LULUK HAMIDAH SOETOJO GONDO JUWONO 01/02/1978 KADILANGU 1/2 TRANGKIL KAB. PATI
672 1100436351 NASORI 14/05/1965 DSN. KEBONSARI RT. 01 RW. 16 KAB. PEMALANG
673 1100436352 MISBAKHUL MUNIR RUHANI 01/06/1977 KADILANGU 1/2 TRANGKIL KAB. PATI
674 1100436354 MIFTAHUL JANNAH SOETOJO GONDO JUWONO 07/03/1974 KADILANGU 1/2 TRANGKIL KAB. PATI
675 1100436357 EKO YUNAEDI SUJITO 08/06/1967 KADILANGU 1/2 TRANGKIL KAB. PATI
676 1100436358 TITIK HARIYANTI SOEHADI 14/12/1958 PATI LOR 10/1 PATI KAB. PATI
677 1100436360 SYAFI'I SAKIMAN WAINAH 07/06/1964 BODEH 3/4 PUCAKWANGI KAB. PATI
678 1100436361 TURINAH 14/02/1970 DSN. KEBONSARI RT. 01 RW. 16 KAB. PEMALANG
679 1100436363 SULASTRI SASTRO SATAM 03/09/1966 BAKARAN WETAN 3/1 JUWANA KAB. PATI
680 1100436365 AYUN FARIQOH 19/07/1988 LAMUK LEGOK, RT.03/RW.01 KAB. TEMANGGUNG
681 1100436368 UMROTUN KHASANAH 19/06/1975 BUARAN GG. 3 RT. 5 RW. 3 KOTA PEKALONGAN
682 1100436369 SITI FATIMAH 27/04/1973 DUSUN REJADADI RT04 RW02 KAB. CILACAP
683 1100436373 TARNYA 16/08/1970 TEMBELANG RT.08/02 NO.11 JATIBARANG KAB. BREBES
684 1100436374 SADIYEM 16/03/1960 DUSUN MULYADADI RT04 RW05 KAB. CILACAP
685 1100436375 MUHAMMAD AZKAL HAMMAM 18/04/2003 BUARAN GG.3 RT.05 RW.03 BUARAN PEKALONGAN
KOTA
SELATAN
PEKALONGAN
686 1100436376 SAPUNAH 08/07/1970 TEMBELANG RT.08/02 NO.11 JATIBARANG KAB. BREBES
687 1100436377 SRI HARTATI 12/06/1958 SIGAMBIR RT. 01/01 BREBES KAB. BREBES
688 1100436382 MUSYAWAROH 11/06/1966 KRATON KIDUL GG.4 NO.30 RT.03 RW.02 KOTA PEKALONGAN
689 1100436387 ENDANG TRISILOWATI 15/12/1976 JL. SEMBOJA RT.04/06 PAKEMBARAN KAB. TEGAL
690 1100436391 BAKRI SHOLEH KANAH 14/09/1960 SENDANGREJO 1/1 TAYU KAB. PATI
691 1100436392 SITI KUSTINAH SUMO RASNO 02/08/1965 SENDANGREJO 01/01 TAYU KAB. PATI
692 1100436393 WINASIH 29/04/1963 MAGERU RT 02/01 KAB. SRAGEN
693 1100436394 YASIROH NURALI KAPRAWI 31/12/1960 SAMBUNG RT 06 RW 03 KAB. KUDUS
694 1100436401 IRYONO 01/06/1968 JAMBETSARI RT.01 RW.01 KAB. KENDAL
695 1100436402 MAHMUDAH 22/11/1976 WARU RT.06/03 KAB. DEMAK
696 1100436406 ABDUL SYAKUR, [Link] 14/01/1974 JL. SEMBOJA RT.04/06 PAKEMBARAN KAB. TEGAL
697 1100436407 ALI MAS'UT 27/12/1971 WARU RT.06/03 KAB. DEMAK
698 1100436410 MAFTUFAH MAKMURI MUSYAROFAH 01/11/1965 MARGOTUHU KIDUL 3/3 MARGOYOSO KAB. PATI
699 1100436413 QOMARUDDIN MARZUKI KOMARIYAH 16/04/1963 MORGOTUHU KIDUL 3/3 MARGOYOSO KAB. PATI
700 1100436415 KASMAN 14/02/1968 JERUKGULUNG RT.05/02 KAB. DEMAK
701 1100436417 SITI NUNIK 05/01/1972 JERUKGULUNG RT.05/02 KAB. DEMAK
702 1100436419 SITI KOTIJAH 25/04/1976 PUCANGREJO RT.03 RW.03 KAB. KENDAL
703 1100436420 SITI RUKAYAH SOPYAN 01/05/1967 TRIGUNO 06/01 PUCAKWANGI KAB. PATI
704 1100436421 MARNI SOPYAN SATIMAH 14/08/1964 TRIGUNO 03/01 PUCAKWANGI KAB. PATI
705 1100436423 SUBAGI DARNOSO SARIMPI 04/08/1962 TRIGUNO 06/01 PUCAKWANGI KAB. PATI
706 1100436428 MUHLISIN 27/08/1969 AMONGROGO RT.02 RW.07 KAB. BATANG
707 1100436430 SITI CHOTIMAH 07/04/1962 KAYUPURING 02/16 KAB. MAGELANG
708 1100436432 MUZAYANAH 03/06/1979 AMONGROGO RT.02 RW.07 KAB. BATANG
709 1100436433 MUSAFIK 26/07/1965 TEMBOK RT.02 RW.01 KAB. BATANG
710 1100436435 MUHAMMAD NURYANTO 10/09/1968 BARONGAN 13/05 KAB. MAGELANG
711 1100436436 NANIK 28/04/1968 TEMBOK RT.02 RW301 KAB. BATANG
712 1100436438 SULASTRI LELES SRIATI 01/07/1961 BUMIMULYO 1/3 BATANGAN KAB. PATI
713 1100436439 SRI NURYANTO 20/05/1974 DSN. SIRAP RT.03 RW.06 KAB. SEMARANG
714 1100436441 IQONATUN 11/10/1976 BARONGAN 13/05 KAB. MAGELANG
715 1100436442 MUNJAENAH 23/01/1978 DSN. SIRAP RT.03 RW.06 KAB. SEMARANG
716 1100436443 SARNI 12/06/1967 AMONGROGO RT.04 RW.02 KAB. BATANG
717 1100436446 SULASTRI 13/06/1958 DSN. SIRAP RT.03 RW.06 KAB. SEMARANG
718 1100436447 TURIYAH 07/01/1966 DELISEN RT.05 RW.02 KAB. BATANG
719 1100436449 KHAIRUMAN 24/01/1959 AMONGROGO [Link] RT.01 RW.06 KAB. BATANG
720 1100436450 MUH. FURQON 19/04/1987 BABADAN NO.34 RT.02 RW.04 KAB. BATANG
721 1100436451 NANY SULISTYAWATI 30/09/1966 GRAHA PERMAI GG. KRESNA 16 RT 02/16 KAB. BLORA
722 1100436457 SUYARSO SUWARNO KAWIT 02/09/1969 GENENGMULYO 02/02 JUWANA KAB. PATI
723 1100436458 KASRIATUN MASTUR WARTINI 14/08/1975 GENENGMULYO 2/2 JUWANA KAB. PATI
724 1100436459 MUHAJIRIN 13/10/1968 PUCANGREJO RT.03 RW.03 KAB. KENDAL
725 1100436460 NINIK RENANINGSIH, S. PD 12/04/1961 JL. [Link] LR 6/24B RT 02/02 KAB. BLORA
726 1100436461 SUDARYATI DARMIN MIJAN 28/04/1970 PIJI RT 04 RW O4 KAB. KUDUS
727 1100436463 SUKIS HADI MAT NGAPIN 17/08/1964 PIJI RT 04 RW 04 KAB. KUDUS
728 1100436464 SRI PUAH ,[Link] 20/12/1970 PURI GEDAWANG INDAH BLOK G-15 RT.03/06 KOTA SEMARANG
729 1100436465 RISTA EMIRIA AFRIDA APRIANY 08/04/1991 PURI GEDAWANG INDAH BLOK G-15 RT.03/06 KOTA SEMARANG
730 1100436478 SRI GIYANTI 11/11/1960 PEDAK RT 26/12 KAB. SRAGEN
731 1100436479 MUJIYONO 12/07/1959 PEDAK RT 26/12 KAB. SRAGEN
732 1100436482 SUDIHARIYANI 04/05/1963 BORO KULON RT 02/04 KAB. PURWOREJO
733 1100436486 PONIMAH MOHAMAD ICHWAN 13/04/1963 PETANHAN RT. 01. 02 KAB. KEBUMEN
734 1100436490 SUNARWI SAMPAN SAGIMIN 06/06/1960 NGELING 02/02 KAB. JEPARA
735 1100436491 SRI SUYANTI TUMAN 29/03/1970 NGELING 02/02 KAB. JEPARA
736 1100436496 NARYANTO 01/10/1973 WIRADADI RT. 3/3 KAB. BANYUMAS
737 1100436498 EUIS YULIA 08/07/1975 WIRADADI RT. 3/3 KAB. BANYUMAS
738 1100436500 AGUS SULISTYO PRABOWO,ST 03/08/1975 BOJA NO.15 RT.01 RW.01 KAB. BATANG
739 1100436501 ROSDIANA PRADANI 20/09/1980 BOJA NO.15 RT.01 RW.01 KAB. BATANG
740 1100436502 SUTILAH 21/12/1962 JL. NGLAJO 5A/12 RT 06/09 KAB. BLORA
741 1100436504 MULYANTI 12/09/1961 JL. NGLAJO LR 5A/14A RT 06/09 KAB. BLORA
742 1100436505 SUDJONO 18/08/1958 JL NGLAJO 5A/12 RT 06/09 KAB. BLORA
743 1100436508 MUSTAGHFIROH 19/08/1969 GEBANG SELATAN RT.01/RW.05 KAB. KENDAL
744 1100436510 MUH SAYUTI 11/07/1968 GEBANG SELATAN RT.01/RW.05 KAB. KENDAL
745 1100436511 PAMUJI TRI HARTONO 02/02/1961 KUTOSARI TLAHAP RT.06 RW.01 KAB. BATANG
746 1100436513 MUS RIBUT 30/04/1966 KUTOSARI TLAHAP RT.06 RW.01 KAB. BATANG
747 1100436518 KHUMAIDAH ACHMAD SAMSURI 16/02/1961 JEPANGPAKIS RT.02 RW.04 KAB. KUDUS
748 1100436522 RISMIYATI NURINDARWATI 04/01/1965 BANYUANYAR RT.01 RW.04 KOTA SURAKARTA
749 1100436527 HARNANIK KARJONO SUKINI 07/03/1973 TUNJUNGREJO 1/7 MARGOYOSO KAB. PATI
750 1100436528 ALAIK TAUFIQULLAH 11/09/1997 JEPANGPAKIS RT.02 RW.04 KAB. KUDUS
751 1100436530 SUWARJO WAIDIN NYAMI 15/04/1967 TUNJUNGREJO 1/7 MARGOYOSO KAB. PATI
752 1100436532 SYAHRUL ADHIM CHAYAT 16/12/1966 LORAMKULON RT.04 RW.04 KAB. KUDUS
753 1100436533 MAESAROH 15/11/1960 JL. PIERE TENDEAN NO. 90 RT. 02/09 KOTA TEGAL
754 1100436534 SRI CHONI NURWATI 05/11/1963 LORAMKULON RT.04 RW.04 KAB. KUDUS
755 1100436536 RUSDI 11/05/1963 SATRIYAN [Link] RT.02 RW.03 KAB. BATANG
756 1100436537 KASMAD 23/11/1960 SINDURAJA RT 01 RW 02 KAB. PURBALINGGA
757 1100436538 UMI CHOLIFAH 31/12/1968 SATRIYAN [Link] RT.02 RW.03 KAB. BATANG
758 1100436539 MURYATI 25/11/1964 SINDURAJA RT 01 RW 02 KAB. PURBALINGGA
759 1100436541 M. FARCHAN TONTOWI 19/11/1959 KP. KRANGGAN 04 RT.02/RW.03 KAB. KENDAL
760 1100436543 KARMAN 24/01/1960 KALIURIP RT 003 RW 004 KAB. BANJARNEGARA
761 1100436544 SARINEM 01/01/1972 KALIURIP RT 003 RW 004 KAB. BANJARNEGARA
762 1100436546 SETYO WIDODO 03/04/1963 GETAS RT. 02 RW. 10 KAB. KARANGANYAR
763 1100436548 ARIEF DIANAWATI 16/03/1963 GETAS RT. 02 RW. 10 KAB. KARANGANYAR
NO NO. PORSI NAMA TANGGAL LAHIR ALAMAT KAB/KOTA KETERANGAN
764 1100436558 ABDUL ROIS 06/06/1958 PEJAREN 01/02 KAB. GROBOGAN
765 1100436560 AHMAD SAHID 15/05/1962 LOIRENG RT.03/01 KAB. DEMAK
766 1100436562 SUBARTO 17/04/1965 JL. ARJUNA 3 NO H22 RT 04 RW 04 KAB. PURBALINGGA
767 1100436564 LENY KARISMAWATI 19/08/1998 PEJAREN 01/02 KAB. GROBOGAN
768 1100436568 SUTOMO HARJO UTOMO 17/07/1967 JETIS 05/07 KAB. GROBOGAN
769 1100436569 LILIEK SUSIANA 16/04/1975 PLAMONGAN INDAH BLOK E3 NO.42 RT.03/29 KAB. DEMAK
770 1100436571 SUBHAN 24/11/1975 PLAMONGAN INDAH BLOK E3 NO.42 RT.03/29 KAB. DEMAK
771 1100436572 MARTINI 17/08/1957 KWAON 08/04 KAB. KLATEN
772 1100436573 WARSIJEM 09/10/1959 BRUMBUNG 03/09 KAB. GROBOGAN
773 1100436575 NASRIPAH 17/04/1966 JL.H.A. ABDURROHMAN RT.06/01 PACAR TIRTO KAB. PEKALONGAN
774 1100436577 M ZUBAIDI PANADI ZAENAB 10/09/1967 TUNJUNGREJO 1/5 MARGOYOSO KAB. PATI
775 1100436578 NGATIMAN 23/02/1967 JANGKUNGHARJO 09/04 KAB. GROBOGAN
776 1100436579 JUMIRAH 17/01/1970 JANGKUNGHARJO 09/04 KAB. GROBOGAN
777 1100436583 SOYO 12/07/1961 BULU 07/04 KAB. GROBOGAN
778 1100436585 RUKOYAH 03/09/1958 NGLINGGO 02/05 KAB. GROBOGAN
779 1100436586 MASAMAH PANADI ZAENAB 29/08/1962 TUNJUNGREJO 01/05 MARGOYOSO KAB. PATI
780 1100436593 TORO DWIJOSENO 07/04/1969 PRM GRIYA SATRIA 2 L 17 RT.2/10 SUMAMPIR KAB. BANYUMAS
781 1100436594 KHANIFIYAH 20/10/1976 PRM GSI 2 JL .PAJANG 17 RT.2/10 SMPR KAB. BANYUMAS
782 1100436596 MU'ADAH PANADI ZAENAB 01/07/1964 TUNJUNGREJO 01/05 MARGOYOSO KAB. PATI
783 1100436601 SITI MUCHAROMAH 28/08/1958 JENENGAN 03/01 KAB. GROBOGAN
784 1100436602 USWATUN KHASANAH 06/09/1967 LOIRENG RT.03/01 KAB. DEMAK
785 1100436603 SRI UTAMI 20/02/1975 BABADAN RT.04 RW.02 KAB. BATANG
786 1100436610 SUNARTI SUNARDI SAMINAH 18/04/1966 ASEMPAPAN 1/3 TRANGKIL KAB. PATI
787 1100436612 RUKENTI 23/10/1958 KALIRANDU RT. 08 RW. 02 KAB. PEMALANG
788 1100436615 KASWADI 20/06/1963 SUMBERSARI RT03 RW04 KAB. TEMANGGUNG
789 1100436616 JIYAH 14/02/1959 LIMBANGAN RT01 RW02 KAB. TEMANGGUNG
790 1100436618 MUHTAMIL 29/12/1961 JL KH SYARBINI 116 RT02 RW03 KAB. CILACAP
791 1100436620 MISJANAH 10/09/1963 KAUMAN RT.04 RW.05 KAB. BATANG
792 1100436621 SUHARJO 20/10/1957 KAUMAN RT.04 RW.05 KAB. BATANG
793 1100436622 TUFI SUSANA, SH 20/01/1967 JL. BUKIT ANYELIR II/249A RT.02/20 KOTA SEMARANG
794 1100436623 TUTIK ARTIYAH 02/06/1969 KALIANGKRIKK II RT. 03/03 KAB. MAGELANG
795 1100436625 KOMARIYAH 23/03/1963 KEBONAGUNG RT.03/RW.03 KAB. KENDAL
796 1100436626 PUDJI REGIATNO, DRS 24/07/1963 JL. BUKIT ANYELIR II/249A RT.02/20 KOTA SEMARANG
797 1100436627 MUNINDAR 17/03/1969 GORANGAN KIDUL 08/07 KAB. MAGELANG
798 1100436633 KHODERI 05/06/1960 GORANGAN KIDUL 08/07 KAB. MAGELANG
799 1100436635 SRI MARYUNANI 27/06/1967 JL. SAMOSIR RAYA NO. 208 RT. 04 RW. 14 KAB. PEMALANG
800 1100436637 FDM WIDAYATI 25/03/1966 BANYUPUTIH RT.05 RW.01 KAB. BATANG
801 1100436639 ANANG FAIFIN 12/05/1965 [Link] RAYA NO.208 RT.04 RW.14 KAB. PEMALANG
802 1100436640 ANDRI ASTUTI 28/08/1973 JL PINANG XII TURI RT 03/010 KAB. SUKOHARJO
803 1100436642 SRI MURTINI 27/06/1961 JL. DWORO WATI NO 5 09/21 KAB. GROBOGAN
804 1100436645 AHMAD TAUFIK 13/09/1977 PUNGANGAN RT.03 RW.01 KAB. BATANG
805 1100436646 KOMARIYAH 31/12/1982 PUNGANGAN RT.03 RW.01 KAB. BATANG
806 1100436647 HARTINI 20/03/1962 [Link] XI/10 RT.02/03 KOTA SEMARANG
807 1100436649 NARTI TAIP TARNUJI 11/02/1958 KENONGO RT 003 RW 002 SEDAN KAB. REMBANG
808 1100436650 ARIFIN 08/10/1970 BOGOSARI RT.02/RW.01 KAB. KENDAL
809 1100436652 SITI YAYUK NURHASANAH 23/04/1974 BOGOSARI RT.02/RW.01 KAB. KENDAL
810 1100436655 UMI ULYANI 18/02/1972 DUKUHJATI KIDUL RT.03/01 PANGKAH KAB. TEGAL
811 1100436657 MUHAMAD FARUK 23/10/1972 DUKUHJATI KIDUL RT.03/01 PANGKAH KAB. TEGAL
812 1100436658 SUKARSIH 12/03/1969 KALIKONDANG RT.04/05 KAB. DEMAK
813 1100436660 ANTON AGUS SETYAWAN, SE 16/08/1974 TAPEN RT.04 RW.05 KOTA SURAKARTA
814 1100436662 NURUL HIKMAWATI, SE 25/03/1976 TAPEN RT04 RW 05 KOTA SURAKARTA
815 1100436666 AKHMAD MUJANI 02/10/1970 TIMBANGREJA RT.02/02 LEBAKSIU KAB. TEGAL
816 1100436668 NURUL UYUN 25/01/1982 TIMBANGREJA RT.02/02 LEBAKSIU KAB. TEGAL
817 1100436671 MUSFIDA 07/11/1970 LEBAKSIU KIDUL RT.07/02 KAB. TEGAL
818 1100436674 DARNITI WAJIMAN MUTIRTO 09/01/1964 MENORO RT 001 RW 002 SEDAN KAB. REMBANG
819 1100436677 CHUMAIMAH RABIAT MUKIBUN 18/08/1973 SARANGMEDURO RT 008 RW 002 SARANG KAB. REMBANG
820 1100436678 AGUS SRI WIDAGDO 22/06/1975 TLOBONG RT.04/RW.06 KAB. SUKOHARJO
821 1100436679 ABDUL MALIK SADIKAN MUNTASIR 12/06/1967 SARANG MEDURO RT 006 RW 002 SARANG KAB. REMBANG
822 1100436680 SA'ADAH MUCHITH SUMIATI 05/02/1965 NGASINAN RT 005 RW 002 KRAGAN KAB. REMBANG
823 1100436681 LULUK HENDRAWATI 12/11/1973 TLOBONG RT.04/RW.06 KAB. SUKOHARJO
824 1100436682 SYAUBARI KUSNO MARTO UTOMO 17/01/1965 KARAS RT 004 RW 002 SEDAN KAB. REMBANG
825 1100436683 WINASIH 29/10/1962 TUNGU 04/01 KAB. GROBOGAN
826 1100436684 IMROATUNAZIZAH MANSYUR KASMINO 22/11/1972 KARAS RT 004 RW 002 SEDAN KAB. REMBANG
827 1100436685 ATIKA OKTAFIANI 06/10/1985 PESANTUNAN RT. 07/05 WANASARI KAB. BREBES
828 1100436690 JAEMAH 21/08/1965 PESANTUNAN RT.07/05 WANASARI KAB. BREBES
829 1100436692 SAHURI ASNAWI RUKINI 28/09/1959 TLUWUK 4/2 WEDARIJAKSA KAB. PATI
830 1100436694 RISKIYAH,[Link] 30/05/1967 PAGERGUNUNG RT.03 RW.02 KAB. PEMALANG
831 1100436696 CARWATI DARWI SUCI 25/01/1964 TLUWUK 4/2 WEDARIJAKSA KAB. PATI
832 1100436697 BUDI WIDIARTI,SKM 06/08/1975 [Link] GANESHA SELATAN III/43 RT.04/04 KOTA SEMARANG
833 1100436698 YAYAH SOPHIYAH 18/09/1978 JL HALMAHERA 52 02/01 KAB. KLATEN
834 1100436700 ERNA SETYAWATI 11/02/1973 JL HALMAHERA 52 02/01 KAB. KLATEN
835 1100436703 BAMBANG SUKOCO, SE 19/07/1969 JL. TMN GANESHA SELATAN III/43 RT.04/04 KOTA SEMARANG
836 1100436706 UMROATUN 11/12/1960 SAWOJAJAR RT.02/03 WANASARI KAB. BREBES
837 1100436707 MINARNINGSIH 10/12/1978 NGASEM 03/08 KAB. GROBOGAN
838 1100436708 RATNA KURNIASIH 16/11/1980 REJOSARI BARAT [Link] RT.05 RW.03 KAB. BATANG
839 1100436711 SAMSUDIN 29/10/1979 REJOSARI BARAT [Link] RT.05 RW.03 KAB. BATANG
840 1100436713 BASUKI SOEWARNO 29/04/1968 KLIPANG PESONA ASRI II BLK E/45 RT.01/28 KOTA SEMARANG
841 1100436717 PUJI LESTARI 10/08/1967 KARANGMANGU RT. 4/1 KAB. BANYUMAS
842 1100436718 SUPRI RAHARYANI 13/04/1968 KLIPANG PESONA ASRI II BLK E/45 RT.01/28 KOTA SEMARANG
843 1100436720 URIP WIDODO 05/10/1961 [Link] KALI JAGA WIROSARI NO.5 03/08 KAB. BATANG
844 1100436722 ZUHROTUN NISWAH 18/03/1963 [Link] KALI JAGA WIROSARI NO.05 03/08 KAB. BATANG
845 1100436724 ABDUL LATIEF 17/03/1963 BADAKARYA RT 001 RW 004 KAB. BANJARNEGARA
846 1100436726 SOHIROH 01/03/1967 BADAKARYA RT 001 RW 004 KAB. BANJARNEGARA
847 1100436728 SOLEH 22/11/1962 CIMOHONG RT.01/03 BULAKAMBA KAB. BREBES
848 1100436729 TOYAH 12/06/1969 CIMOHONG RT.01/03 BULAKAMBA KAB. BREBES
849 1100436731 ROHIMAH 01/07/1965 [Link] RT.04 RW.01 KAB. PEMALANG
850 1100436736 IDAFATI 31/05/1960 KARANGLO 02/01 KAB. KLATEN
851 1100436737 NGADEM 18/07/1958 GEBANGSARI RT. 3/1 KAB. BANYUMAS
852 1100436738 [Link] 04/06/1964 [Link] RT.04 RW.04 KAB. PEMALANG
853 1100436742 SLAMET BUDIYONO 13/09/1974 BUMIAYU 02/03 KAB. MAGELANG
854 1100436744 SUKARNO DJARIMAN MULYANI 01/09/1968 KUDUR 2/1 WINONG KAB. PATI
855 1100436749 SALMAN DULAH MUKMIN 19/05/1962 DONOSARI RT. 05. 01 KAB. KEBUMEN
856 1100436751 ATTEMI 31/10/1961 JAMBETSARI RT.01 RW.01 KAB. KENDAL
857 1100436754 WATIMAH 15/07/1957 KEMLOKO, RT.04/RW.04 KAB. TEMANGGUNG
858 1100436756 SUMIATI PANDU SULASTRI 15/05/1980 KUDUR 2/1 WINONG KAB. PATI
859 1100436758 SAFANGATUN ABDUL MUSTOFA 02/06/1961 GIWANGRETNO RT. 01. 02 KAB. KEBUMEN
860 1100436759 ABDUL YADIN ACHMAD 14/06/1972 BADAMITA RT 003 RW 003 KAB. BANJARNEGARA
861 1100436768 SRI DARSINI 30/03/1959 KUMUDASMORO DALAM IV RT.02/05 KOTA SEMARANG
862 1100436769 SUDARNO 09/11/1964 JL. MURIA I RT. 04 RW. 16 KAB. PEMALANG
863 1100436774 SITI KUNDARI 20/09/1983 MOJOLASAN 02/08 KAB. GROBOGAN
864 1100436776 MAKHFUDH 26/12/1968 JL. SOEKARNO HATTA 231 RT.11/RW.06 KAB. KENDAL
865 1100436777 MOHAMMAD SAYUTI 13/11/1976 MOJOLASAN 02/08 KAB. GROBOGAN
866 1100436778 JAMIYA 26/01/1959 [Link] DALAM IV RT.02/05 KOTA SEMARANG
867 1100436780 MASRIYAH 03/07/1970 [Link] I RT.04 RW.16 KAB. PEMALANG
868 1100436783 [Link] SUGIYONO 27/05/1972 [Link] NO.7 RT.05 RW.20 KAB. PEMALANG
869 1100436787 SITI ANISAH 19/02/1983 JL. SOEKARNO HATTA 231 RT.11/RW.05 KAB. KENDAL
870 1100436788 PARTI KASMIJAN MERTO 06/07/1961 MULYOHARJO RT03/05 KAB. JEPARA
871 1100436790 NINIK SUMARNI 05/08/1960 BANJARDAWA PERMAI RT.03 RW.06 KAB. PEMALANG
872 1100436791 AKMATO SOLEH TUGIRAN 11/06/1975 MULYOHARJO RT 07/04 KAB. JEPARA
873 1100436793 MINARSIH MUH BADERUN 17/03/1983 MULYOHARJO RT 07/04 KAB. JEPARA
874 1100436796 DARTI 01/08/1965 SUMBERSARI RT03 RW04 KAB. TEMANGGUNG
875 1100436797 NITA WIDHIARSI 08/05/1982 BANYUURIP BARAT NO.104 RT03 RW01 KAB. TEMANGGUNG
876 1100436798 PRAYOGI 24/03/1962 MAKAM RT 03 RW 05 KAB. PURBALINGGA
877 1100436801 WISHNU AJI SURYOKO, SE 12/05/1974 BANYUURIP BARAT NO.104 RT03 RW01 KAB. TEMANGGUNG
878 1100436802 RUMIYAH 09/11/1966 MAKAM RT 03 RW 05 KAB. PURBALINGGA
879 1100436805 SURTINAH MADROCHMAT KARTADIWANGSA 30/12/1963 KARANGPOH RT.07/02 KAB. KEBUMEN
880 1100436806 AMIRUDIN MADLIYAS WIRAJI 02/01/1962 KARANGPOH RT.07/02 KAB. KEBUMEN
881 1100436808 MIFTAHUR ROHMAN 26/01/1980 KERANGKULON RT 01 RW 05 KAB. DEMAK
882 1100436809 IDRUS ANJASMORO 31/01/1983 MAKAM RT 03 RW 05 KAB. PURBALINGGA
883 1100436812 INDARTI 15/08/1984 MAKAM RT 03 RW 05 KAB. PURBALINGGA
884 1100436813 ENDAH HASTUTI 24/08/1972 PER KANDRI PESONA ASRI E1/04 RT.01/04 KOTA SEMARANG
885 1100436815 PARSITI 17/05/1967 MAKAM RT 04 RW 01 KAB. PURBALINGGA
886 1100436816 SUPADI 14/01/1972 PERUM KANDRI PESONA ASRI E1/4 RT.01/04 KOTA SEMARANG
887 1100436817 DYAH BARORO EKA MURTI 15/09/1976 CARUBAN RT.02/RW.03 KAB. KENDAL
888 1100436818 SARNOTO 30/11/1970 KEBONADEM RT.01/RW.01 KAB. KENDAL
889 1100436820 SRI MURNIATI 30/01/1975 KEBONADEM RT.01/RW.01 KAB. KENDAL
890 1100436821 ERLY SUKRISMARLIN 05/03/1959 JL. CENDRAWASIH RT.01/05 SINDANG KAB. TEGAL
891 1100436823 JUWARTI TROMIN KARSI 07/06/1962 RACI 1/2 BATANGAN KAB. PATI
NO NO. PORSI NAMA TANGGAL LAHIR ALAMAT KAB/KOTA KETERANGAN
892 1100436827 M. SOBIRIN 27/12/1966 LEBO RT.22 /RW.07 KAB. KENDAL
893 1100436828 WAGIYONO 02/01/1964 TEKEN RT. 01 RW. 05 KAB. KARANGANYAR
894 1100436829 NINIK SUWANTI 29/08/1969 TEKEN RT. 01 RW. 05 KAB. KARANGANYAR
895 1100436832 SUGIANTO AL SAJAN 03/06/1970 LARANGAN RT 003 RW 003 KAB. BANJARNEGARA
896 1100436833 NASIKHUDIN MOCH SHOLEH 24/11/1978 MUKTIHARJO 1/5 MARGOREJO KAB. PATI
897 1100436834 NOOR YASIN NASIDIN 12/09/1967 DAREN 04/03 KAB. JEPARA
898 1100436835 DUNING ERNAWATI NUR SALIM 20/01/1977 MUKTIHARJO 1/5 MARGOREJO KAB. PATI
899 1100436836 WAGINI 18/10/1972 LARANGAN RT 003 RW 003 KAB. BANJARNEGARA
900 1100436837 SUHARSO PANJANG KARMINI 16/01/1978 KUNIRAN 5/1 BATANGAN KAB. PATI
901 1100436838 SITI ROFIAH BUSIRI 10/05/1975 DAREN RT 04/03 KAB. JEPARA
902 1100436839 KHARISUN 27/08/1970 PARAKANCANGGAH RT 002 RW 006 KAB. BANJARNEGARA
903 1100436842 SUSANTO PARTO TEGO 21/09/1965 KARANGGONDANG RT 05/04 KAB. JEPARA
904 1100436844 CATUR NOVIYANTI 04/11/1964 KEPUTRAN GG.5 NO.4 RT.04 RW.04 KOTA PEKALONGAN
905 1100436845 PUJI RAHAYU NAHSAN SIDIQ 20/12/1968 KARANGGONDANG RT 05//04 KAB. JEPARA
906 1100436846 ACHMAD AGUS RIZAL 05/08/1971 KEPUTRAN GG.5 NO.4 RT.04 RW.04 KOTA PEKALONGAN
907 1100436849 YULIA NINGSIH 21/07/1963 MEKARSARI RT 02/11 KAB. SRAGEN
908 1100436850 MARINI 08/08/1960 DSN.I RT.03 RW.01 KAB. PEMALANG
909 1100436851 RODOTUN NIKMAH 18/03/1986 RAKIT RT 04 / RW 04 KAB. BANJARNEGARA
910 1100436853 NUR HAMIM MASHUDI 14/05/1961 SUMBEREJO 1/6 JAKEN KAB. PATI
911 1100436854 KANURI 08/08/1958 DSN.I RT.03 RW.01 KAB. PEMALANG
912 1100436856 NURUL KHOTIMAH ABDUL WAHAB 30/10/1970 SUMBEREJO 1/6 JAKEN KAB. PATI
913 1100436857 BASMI BUWADJI SUKENI 12/12/1965 TRIGUNO 03/01 PUCAKWANGI KAB. PATI
914 1100436858 RUSMIATI RUKANI SUNTARI 12/07/1968 KUNIRAN 5/1 BATANGAN KAB. PATI
915 1100436859 SHODIQUN MARHABAN MUSTAINAH 12/07/1960 TRIGUNO 04/02 PUCAKWANGI KAB. PATI
916 1100436863 JOKO SUNGKONO SUKARDJO 04/06/1958 TRIGUNO 03/01 PUCAKWANGI KAB. PATI
917 1100436864 DJATMIKO YUNIARDY WIDODO 25/06/1970 JL. H. SYATHORI NO.03 RT.02/XI BREBES KAB. BREBES
918 1100436865 WIDAYANTI SAMIDIN RUSMIATI 13/02/1985 KUNIRAN 5/1 BATANGAN KAB. PATI
919 1100436868 FITRIANA AENUN 24/06/1971 JL H. SYATHORI NO.3 RT.02/XI BREBES KAB. BREBES
920 1100436871 DARYONO 08/09/1970 PEGIRINGAN RT. 08 RW. 05 KAB. PEMALANG
921 1100436873 WARITATI 11/05/1967 JL HUSNI TAMRIN NO.62 RT.06/03 BREBES KAB. BREBES
922 1100436874 PURWOTO HADI 18/05/1962 JL HUSNI THAMRIN NO.62 RT.06/03 BREBES KAB. BREBES
923 1100436876 BUDRIYAH KASIMIN SARMI 04/04/1969 SIDIGEDE RT 12/03 KAB. JEPARA
924 1100436879 SABARI LEGIMAN MADIYAN 12/10/1964 SIDIGEDE 12/03 KAB. JEPARA
925 1100436881 WASTIAH 31/12/1957 BABADAN [Link] RT.02 RW.02 KAB. BATANG
926 1100436882 INDRATI DEWI 01/02/1962 SAMBIROTO RT 06 RW 01 KAB. BLORA
927 1100436883 BAMBANG DWIPOYONO 14/11/1961 SAMBIROTO RT 06 RW 01 KAB. BLORA
928 1100436884 OKY DWI NURHAYATI 02/10/1979 KINIBALU IV/10 RT 03 RW 02 TANDANG KOTA SEMARANG
929 1100436885 IRFAN 29/02/1968 SIWADAS RT 01 RW 03 KAB. WONOSOBO
930 1100436887 AMAD NARTONO 10/09/1959 TIMBANG RT.03 RW.01 KAB. WONOSOBO
931 1100436890 DARYONO 13/07/1973 BABADAN RT.03 RW.01 KAB. BATANG
932 1100436891 MUDLIUN 25/07/1972 PASUNTEN RT 03 RW 03 KAB. WONOSOBO
933 1100436893 AMANAH 22/02/1975 BABADAN RT.03 RW.01 KAB. BATANG
934 1100436898 SITI SUPARTINAH 10/09/1977 PASUNTEN RT 03 RW 03 KAB. WONOSOBO
935 1100436899 RIYANTO 28/04/1970 LIMBANGAN RT 02/02 KAB. PURWOREJO
936 1100436900 MISDIN 01/12/1962 PUNGANGAN KRENGGAN RT.04 RW.02 KAB. BATANG
937 1100436901 WARJIAH 23/03/1967 PUNGANGAN KRENGGAN RT.04 RW.02 KAB. BATANG
938 1100436902 AHMAD MAKIN ABDULLAH 16/08/1972 KEMBANG 2/3 DUKUHSETI KAB. PATI
939 1100436903 ENDANG BUDHI HASTUTI 17/03/1958 KUTABANJARNEGARA RT 005 RW 004 KAB. BANJARNEGARA
940 1100436905 NOR HIDAYAH ABDULLAH ZABIDI 30/01/1969 KEMBANG 2/3 DUKUHSETI KAB. PATI
941 1100436913 ULFA ARIFAH 16/04/1977 SIWADAS RT 01 RW 03 KAB. WONOSOBO
942 1100436914 EFAYANTI 04/04/1974 PASEKARAN PERUM KORPRI D 15 03/04 KAB. BATANG
943 1100436917 SITI ZAENAB 05/06/1969 LEBO RT.22/RW.07 KAB. KENDAL
944 1100436919 PUJI ASTUTI SUYOTO 06/09/1968 SUWAWAL 04/02 KAB. JEPARA
945 1100436922 EKO ITANTO AMAT 18/06/1967 SUWAWAL 04/02 KAB. JEPARA
946 1100436925 SUKO TRIYANTO 01/12/1963 KAMULYAN RT. 6/1 KAB. BANYUMAS
947 1100436926 ENDANG RAHAYU 03/02/1972 KARANGMOJO RT 08 RW 04 KAB. BLORA
948 1100436930 WABINGAH 01/12/1963 KAMULYAN RT. 6/1 KAB. BANYUMAS
949 1100436932 TARMIDI 10/01/1970 KARANGMOJO RT 08 RW 04 KAB. BLORA
950 1100436933 YUDY SISTURINO SOLIHIN, SE, MSI 30/06/1978 JL. MENJANGAN IV/14 RT.03/04 KOTA SEMARANG
951 1100436934 RINNA PRASMAWATI, SKM 25/05/1980 JL. MENJANGAN IV/14 RT.03/04 KOTA SEMARANG
952 1100436938 WASIAH 10/09/1960 KEDUNGWUNGU RT.10/02 JATINEGARA KAB. TEGAL
953 1100436940 UMMI MAHBUBAH SOBRI 08/07/1987 BANJARAGUNG 02/05 KAB. JEPARA
954 1100436942 KHAFIDIN 15/05/1964 CENGGINI RT.02/04 BALAPULANG KAB. TEGAL
955 1100436943 MUAWANAH 01/07/1967 CENGGINI RT.02/04 BALAPULANG KAB. TEGAL
956 1100436944 R. SATYA ADI WICAKSONO 17/01/1987 JL. JATIWANGI NO. 20 RT.09/17 KOTA SEMARANG
957 1100436946 DESRIZAL KURNIAWAN 29/12/1979 PERUM WONOREJO JL. ARJUNA DC 5 RT. 04/22 KAB. KARANGANYAR
958 1100436947 SRI RAHAYU 06/08/1969 LAMPER TENGAH X/18 RT.02/08 KOTA SEMARANG
959 1100436948 SUSWANTO 12/02/1968 LAMPERTENGAH X NO 18 RT 02 RW 08 KOTA SEMARANG
960 1100436952 BAMBANG SETYANTO 02/12/1961 KALILUNJAR RT 001 RW 003 KAB. BANJARNEGARA
961 1100436953 SUTARJO 06/06/1965 MADUKARA RT 003 RW 005 KAB. BANJARNEGARA
962 1100436954 MUHAMMAD ALI BURHAN 12/01/1979 BANJARAGUNG 02/05 KAB. JEPARA
963 1100436955 MISKIYAH 30/04/1970 MADUKARA RT 003 RW 005 KAB. BANJARNEGARA
964 1100436956 SRI SUNARNI 18/01/1981 PERUM WONOREJO JL ARJUNA DC 5 RT. 04/22 KAB. KARANGANYAR
965 1100436958 EKO SUYONO 24/03/1961 JL DIENG NO 5 SUBUR MAKMUR RT. 02/25 KAB. KARANGANYAR
966 1100436960 LILIK KUSMIYATI 08/11/1962 JOMBOR INDAH RT. 04/03 KAB. SUKOHARJO
967 1100436961 RAHAYU SUKANTARI, DRA., [Link] 28/12/1962 JL. DIENG NO 5 SUBUR MAKMUR RT. 02/25 KAB. KARANGANYAR
968 1100436962 SUBIJAKTA, [Link] 15/12/1959 BOJONG RT.01/02 KAB. TEGAL
969 1100436963 NUR KHIKMAH 25/11/1970 BOJONG RT.01/02 KAB. TEGAL
970 1100436964 MIMIN MU'MINATUN 20/09/1963 PODOSUGIH GG. VII / 466 RT. 03 RW. 05 KOTA PEKALONGAN
971 1100436965 YUSMAR ARIFIN 22/12/1966 PODOSUGIH [Link] /466 RT. 3 RW. 5 KOTA PEKALONGAN
972 1100436966 MISBAROKAH 31/12/1962 JL. RAJAWALI UTARA 47 RT. 2 RW. 1 KOTA PEKALONGAN
973 1100436967 IKA WARYATUN 06/07/1981 PETAMBAKAN RT 001 RW 004 KAB. BANJARNEGARA
974 1100436968 SUYATNI 27/04/1960 KALIBARU TIMUR KOTA SEMARANG
975 1100436971 TURIPTO 09/12/1972 PETAMBAKAN RT 001 RW 004 KAB. BANJARNEGARA
976 1100436974 AGUS PRAYOGO 30/08/1987 DUSUN SEGRUMUNG RT.04 RW.07 KAB. KENDAL
977 1100436975 LEGINO 11/11/1962 KUTAYASA RT 002 RW 002 KAB. BANJARNEGARA
978 1100436978 YUWANA 27/08/1967 JL KANGURU TIMUR I/8 RT 01 RW 01 KOTA SEMARANG
979 1100436979 NUNIK UNAENI 09/04/1964 KUTAYASA RT 002 RW 002 KAB. BANJARNEGARA
980 1100436980 MOHAMAD AFIQ 27/03/1993 KARANGWARU RT 04 RW 04 SIDOREJO SAYUNG KAB. DEMAK
981 1100436984 MASRUKAH 11/08/1969 SIDOREJO RT 04 RW 04 KAB. DEMAK
982 1100436986 MIFTAH PURWANTO 30/09/1965 KENDALREJO RT.005 RW.011 KOTA SURAKARTA
983 1100436987 SUYANTI 06/09/1972 MUKTIHARJO KIDUL RT.05 RW.8 KOTA SEMARANG
984 1100436988 KUSDI 25/03/1964 MUKTIHARJO KIDUL RT.05 RW.8 KOTA SEMARANG
985 1100436989 UMI HANIFAH 16/09/1966 KENDALREJO RT.05 RW.11 KOTA SURAKARTA
986 1100436992 DJULASTRI AGUSISWATI 17/08/1973 JL. KANGURU TIMUR I/8 RT.01/01 KOTA SEMARANG
987 1100436995 SLAMET 06/07/1966 NGEMBAT KEMBANG RT 13 KAB. SRAGEN
988 1100436997 PRAPTI 31/12/1969 NGEMBAT KEMBANG RT 13 KAB. SRAGEN
989 1100436998 BUDI SANTOSO 23/03/1970 [Link] RT.09/04 ROWOKEMBU KAB. PEKALONGAN
990 1100437000 SRI UMI KULSUM 23/02/1976 [Link] RT.09/04 ROWOKEMBU KAB. PEKALONGAN
991 1100437001 HANUNG PRANANTYO 23/04/1979 PENITEN NO. 24 RT 01 RW 01 KOTA MAGELANG
992 1100437004 ABDUL GHONI 06/10/1967 BANYURIP ALIT GG. 5 25 A RT. 1 RW. 4 KOTA PEKALONGAN
993 1100437005 SUWARIDAH 31/12/1965 NOYONTAAN [Link] NO.11A RT.03 RW.03 KOTA PEKALONGAN
994 1100437007 DJOKO SANTOSO ASTRO 12/08/1957 PENGKOL 03/07 KAB. JEPARA
995 1100437009 NUR CHAMIDAH 01/06/1973 JL. HOS COKROAMINOTO 482 RT. 3 RW. 3 KOTA PEKALONGAN
996 1100437012 NINIK TANGKASWATI RUMAT 10/08/1958 PENGKOL 003/007 KAB. JEPARA
997 1100437014 DJOKO SURJATNO, SH 28/01/1961 SAPTA PRASETYA TENGAH III/8 RT.04/03 KOTA SEMARANG
998 1100437015 MUNIFAH 01/07/1965 DSN. IV PURWOSARI RT. 02 RW. 08 KAB. PEMALANG
999 1100437017 SRI WANITO 02/10/1965 SAPTA PRASETYA TENGAH III/30 RT 4 RW 3 KOTA SEMARANG
1000 1100437018 ASIKIN 09/01/1962 [Link] RT.02 RW.08 KAB. PEMALANG
1001 1100437024 SUYATI 17/08/1963 TEMON 04/01 KAB. GROBOGAN
1002 1100437025 NGADIMAN 21/04/1960 TEMON 04/01 KAB. GROBOGAN
1003 1100437028 NURKHOLIS 11/07/1962 REMBUL RT.04/01 BOJONG KAB. TEGAL
1004 1100437031 SITI RUAIDA NOOR ROCHMAD 12/05/1972 WERGUWETAN RT 01 RW 05 KAB. KUDUS
1005 1100437032 DARTI 01/07/1966 LING KALONGAN 06/01 KAB. GROBOGAN
1006 1100437034 KHALIMAH 20/09/1964 REMBUL RT.04/01 BOJONG KAB. TEGAL
1007 1100437036 SONHAJI SAID SUWARNO 24/10/1970 WERGUWETAN RT 01 RW 05 KAB. KUDUS
1008 1100437042 MARGO 31/12/1964 GULANG TENGAH 04/02 KAB. GROBOGAN
1009 1100437046 SITI SAFAATUN MARSINI 19/06/1976 KETITANGWETAN 5/1 BATANGAN KAB. PATI
1010 1100437047 MARSIH 08/07/1967 GULANG TENGAH 04/02 KAB. GROBOGAN
1011 1100437048 ABDULLAH SARKAWI LEGINAH 07/08/1960 KETITANGWETAN 5/1 BATANGAN KAB. PATI
1012 1100437049 NAPSIYAH TURMUNDI SADIMAN 31/12/1963 UNDAAN KIDUL RT 01 RW 05 KAB. KUDUS
1013 1100437050 WAHYU NUR HIDAYAT 04/06/1962 PESANTREN RT.04/RW.02 KAB. KENDAL
1014 1100437051 YAJI KARSAN RASIYAH 01/07/1957 KETITANGWETAN 2/2 BATANGAN KAB. PATI
1015 1100437052 SULATIN PASIDIN MIRAH 08/06/1968 KETITANGWETAN 2/2 BATANGAN KAB. PATI
1016 1100437054 MUNARTI 01/07/1960 DUKUH BULU RT. 03 RW. 02 KAB. PEMALANG
1017 1100437055 SUWARTINI MAT SALIM 12/01/1966 SUKOHARJO 4/5 WEDARIJAKSA KAB. PATI
1018 1100437056 KHOLIL SUTAWI SUKARNI 29/01/1960 SUKOHARJO 4/5 WEDARIJAKSA KAB. PATI
1019 1100437057 ENY SULISTIYOWATI LEGIMAN 06/12/1977 SUKOHARJO 7/5 WEDARIJAKSA KAB. PATI
NO NO. PORSI NAMA TANGGAL LAHIR ALAMAT KAB/KOTA KETERANGAN
1020 1100437058 SUTRISNO MAT SALIM 10/05/1973 SUKOHARJO 7/5 WEDARIJAKSA KAB. PATI
1021 1100437064 IMAM NAWAWI 16/08/1967 KLUWUT RT.05/12 BULAKAMBA KAB. BREBES
1022 1100437067 RODIYAH 15/09/1979 KLUWUT RT.05/12 BULAKAMBA KAB. BREBES
1023 1100437068 JUNAENAH 07/04/1972 PADOMASAN RT.05 RW.02 KAB. BATANG
1024 1100437069 MARGIONO,SE 09/12/1964 PADOMASAN RT.05 RW.02 KAB. BATANG
1025 1100437070 SRI DWI LESTARI RINDARTI 14/02/1961 TAMANWINANGUN RT.01/10 KAB. KEBUMEN
1026 1100437072 SUTIRAH 06/11/1961 PRANGKOKAN, RT.07/RW.02 KAB. TEMANGGUNG
1027 1100437074 SUKARDI MOCHAMAD SUHUDIN 05/09/1977 LEMAHDUWUR RT. 02. 06 KAB. KEBUMEN
1028 1100437077 SUHARTO KARNO SUTIKNO 07/09/1960 TAMANWINANGUN RT.01/10 KAB. KEBUMEN
1029 1100437079 ROHIDAH 09/08/1960 PRANGKOKAN, RT.05/RW.01 KAB. TEMANGGUNG
1030 1100437080 RICHAYATUN 12/03/1975 MANGKANG WETAN RT.02/04 KOTA SEMARANG
1031 1100437083 MASFUATUN ZUHDI SIDIQ 09/05/1961 ROBAYAN 20/03 KEC. KALINYAMATAN KAB. JEPARA
1032 1100437085 SUYONO 12/05/1967 JL. PALA BARAT I BLOK [Link].36 RT.03/09 KAB. TEGAL
1033 1100437086 NYOMEDIYONO 11/05/1959 KALANGAN RT.09 RW.02 KAB. SEMARANG
1034 1100437087 DAMSRI WONGSO WOLO 16/03/1962 WIROTO RT 005 RW 002 KALIORI KAB. REMBANG
1035 1100437089 JUMINI 23/04/1959 KALANGAN RT.09 RW.02 KAB. SEMARANG
1036 1100437090 AMBAR SURATMI AMAD NGALIMIN 24/03/1962 PEGANDAN 1/1 MARGOREJO KAB. PATI
1037 1100437091 MASTUTI 07/09/1969 [Link] BARAT I BLOK C NO.36 RT.03/09 KAB. TEGAL
1038 1100437092 JUMINTO BUSONO SANAH 11/07/1960 PEGANDAN 1/1 MARGOREJO KAB. PATI
1039 1100437095 MUSFIT EFENDI 07/01/1969 DUKUH SEMILIRAN RT.03 RW.01 KAB. PEMALANG
1040 1100437096 NISWATI MUDHOFAR ADENAN 10/08/1964 KEMUJAN 02/04 KAB. JEPARA
1041 1100437098 SITI ROMLAH 31/12/1974 DUKUH SEMILIRAN RT.03 RW.01 KAB. PEMALANG
1042 1100437100 HENY PURYANTO SUGITO 10/11/1972 TRIKARSO RT.02/04 KAB. KEBUMEN
1043 1100437101 ISROKIB SABAR WARISAH 04/07/1962 KEMUJAN 02/04 KAB. JEPARA
1044 1100437103 DIDI HENDRATNO 23/05/1969 PAGONGAN RT. 04/02 DUKUHTURI KAB. TEGAL
1045 1100437104 MARSIH SUPARMAN MUNASAH 01/07/1975 MINTOBASUKI KAB. PATI
1046 1100437106 MAHWIYAH 11/09/1959 KRANJANG KIDUL KAB. MAGELANG
1047 1100437107 DYNA OKTIANA, ST 07/10/1984 JL. TMN DURIAN IV/12 RT.02/01 KOTA SEMARANG
1048 1100437108 CATUR KUNTI HARINI 06/09/1964 PAGONGAN RT. 04/02 DUKUHTURI KAB. TEGAL
1049 1100437110 SURATNO 10/02/1962 TEPIMULYO RT.05/RW.08 KAB. KENDAL
1050 1100437111 REZA MALIK KUSTAMTOKO 22/07/1984 JL TAMAN DURIAN IV NO 12 RT 02 RW 01 KOTA SEMARANG
1051 1100437112 SUTONO SAMIN SRIYATUN 01/07/1966 MINTOBASUKI KAB. PATI
1052 1100437114 DHURIPAH 02/08/1969 TEPIMULYO RT.05/RW.08 KAB. KENDAL
1053 1100437115 AMI YUSRIANI 04/06/1974 DESA KEBONHARJO RT.07 RW.08 KAB. KENDAL
1054 1100437117 WIDAYANTO 20/05/1991 KUWASEN LAMA RT 001 / RW 003 KOTA SEMARANG
1055 1100437118 HINDUN RASMI 31/12/1960 BRUNOREJO RT 01/07 KAB. PURWOREJO
1056 1100437121 WARSIMIN 04/03/1961 DK. SIWARAK RT.04/02 KOTA SEMARANG
1057 1100437123 ISTIKOMAH 15/10/1973 LUBANGLOR RT 04/02 KAB. PURWOREJO
1058 1100437129 REDI PRIYONO SOEKARSO 04/03/1970 MUSTOKOHARJO 1/1 PATI KAB. PATI
1059 1100437132 SUKARDI 18/03/1961 SIDOREJO RT. 02/04 PURWOREJO KAB. PURWOREJO
1060 1100437134 AHMAD ZUBAIDI 07/10/1978 JENGGOT GG. 4 RT. 1 RW. 8 KOTA PEKALONGAN
1061 1100437135 PURWANTO 14/04/1971 DESA KEBONHARJO RT.07 RW.08 KAB. KENDAL
1062 1100437137 SUMARTI 05/07/1959 SIDOREJO RT 02/04 KAB. PURWOREJO
1063 1100437139 ATMAH 27/04/1972 WONOREJO RT.09/01 KAB. DEMAK
1064 1100437140 CHUDAEPAH 05/11/1968 MANGUNSAREN RT. 04/01 TARUB KAB. TEGAL
1065 1100437141 MUKFI FITROH 21/08/1979 JENGGOT GG. 4 RT. 1 RW. 8 KOTA PEKALONGAN
1066 1100437142 SUMIYEM 14/03/1963 [Link] 2 SOKANEGARA RT.3/11 KAB. BANYUMAS
1067 1100437143 HARINI DIESTIANA 14/12/1971 PEDURUNGAN KIDUL III/56 RT.02/01 KOTA SEMARANG
1068 1100437144 IBADI ABDI RAHMAN 13/02/1960 JOMBOR INDAH RT. 04/03 KAB. SUKOHARJO
1069 1100437145 KANAD 27/08/1960 MANGUNSAREN RT. 04/01 TARUB KAB. TEGAL
1070 1100437146 MIFBAKHUDDIN, SKM 26/06/1968 PEDURUNGAN KIDUL III/56 RT.02/01 KOTA SEMARANG
1071 1100437147 RODIYAH 12/04/1960 LINGGAPURA KAB. BREBES
1072 1100437148 SITI NURHAYATI 18/11/1975 KARANGMANGU RT 003 RW 001 KAB. BANJARNEGARA
1073 1100437150 NUR HIDAYAH 09/09/1962 BANYURIP ALIT GG. 4 NO. 41 RT.4 / 4 KOTA PEKALONGAN
1074 1100437151 MUHAMAD ZAINUDIN DULROHIM 09/11/1958 PANDANSARI RT. 06. 02 KAB. KEBUMEN
1075 1100437152 NURHADI 19/05/1961 JEKETRO 04/01 KAB. GROBOGAN
1076 1100437153 SISWATI 09/06/1971 PLOSOHARJO 02/01 KAB. GROBOGAN
1077 1100437154 AGUS HAKIM MUHAMAD ZAINUDIN 24/08/1988 PANDANSARI RT. 06. 02 KAB. KEBUMEN
1078 1100437155 FATEKHAH 01/09/1968 JEKETRO 04/01 KAB. GROBOGAN
1079 1100437157 ROSIDAH 10/07/1966 [Link] BARAT RT.03 RW.07 KAB. KENDAL
1080 1100437158 HERMAN 30/12/1958 [Link] BARAT RTR.03 RW.07 KAB. KENDAL
1081 1100437159 ASIH MARTANTI 25/03/1972 JL. BANOWATI RAYA NO. 22 RT.06/01 KOTA SEMARANG
1082 1100437160 SIHAR PRATIKNO 05/07/1964 JL BANOWATI RAYA NO 22 RT 06 RW 01 KOTA SEMARANG
1083 1100437163 MUKHAMAD ANSORI 07/10/1967 SIDOHARJO RT 03/02 KAB. PURWOREJO
1084 1100437166 RUBANIYAH 25/06/1967 SIDOHARJO RT 03/02 KAB. PURWOREJO
1085 1100437167 LISANA MAKSUM MASTUR 10/01/1987 KALIPUCANG WETAN 07/01 KAB. JEPARA
1086 1100437170 MUHAMMAD HANIS KASBOLAH 17/09/1979 KALIPUCANG WETAN 07/01 KAB. JEPARA
1087 1100437174 SUHEM 19/01/1967 DUSUN CIMANGGU WETAN RT02 RW03 KAB. CILACAP
1088 1100437177 TRISNANI DWIHAPSARI 04/07/1982 PERUM BPI BLOK F - 15 RT 08 RW 10 KOTA SEMARANG
1089 1100437178 EMI KUSMIATI 28/03/1973 KEBUMEN RT. 1/1 KAB. BANYUMAS
1090 1100437179 SUDARTO 13/05/1966 KEBUMEN RT. 1/1 KAB. BANYUMAS
1091 1100437180 SITI NURKAYATI 02/02/1982 DSN. BONOMIRI RT.31/05 KEDUNGRINGIN KAB. SEMARANG
1092 1100437181 SRIYANTO 18/07/1968 GG. BUDIMULYA I NO.18 RT.06/RW.08 KAB. KENDAL
1093 1100437182 WARSONO 06/06/1974 DSN. BONOMIRI RT.31 / 05 KEDUNGRINGIN KAB. SEMARANG
1094 1100437183 PUDJI ARIJANTI 14/02/1974 GG. BUDIMULYA I NO.18 RT.06/RW.08 KAB. KENDAL
1095 1100437184 INDAH WAHYUNINGSIH 18/09/1970 JL. GAYAMSARI IV/22 RT.01/12 KOTA SEMARANG
1096 1100437185 LAELATUL AROFIYAH 10/11/1975 KEBONAGUNG RT.05/04 KAB. DEMAK
1097 1100437186 DANANG SETYA DHARMA 26/06/1981 PERUM BPI F-15 RT 08 RW 10 PURWOYOSO KOTA SEMARANG
1098 1100437187 SETIYONO 13/12/1963 GAYAMSARI IV NO 22 RT 01 RW 12 KOTA SEMARANG
1099 1100437188 SETIYANTO 22/06/1967 JL. PEDURUNGAN KIDUL 6 NO.57 RT.02/01 KOTA SEMARANG
1100 1100437191 SUGIYO 17/01/1966 GADINGAN 16/09 KAB. KLATEN
1101 1100437192 NANDANA SATYA PRAYOGA 03/09/1998 PEDURUNGAN KIDUL 6 NO. 57 RT.02/01 KOTA SEMARANG
1102 1100437193 SRI NURYATI 10/10/1967 JL. PEDURUNGAN KIDUL 6 NO.57 RT.02/01 KOTA SEMARANG
1103 1100437195 SUKUR 03/01/1972 KEBONAGUNG RT.05/04 KAB. DEMAK
1104 1100437201 DWI SAKTI ENDANG SUPRIYATI 28/10/1967 JL. PLAMONGAN HIJAU NO.34 RT.04/08 KOTA SEMARANG
1105 1100437203 RODHIYAH 05/07/1957 TEGALSARI RT.01/RW.03 KAB. KENDAL
1106 1100437204 MUHAMAD MUHSHIY TSALIS 09/10/1993 SURONATAN NO.217 RT02 RW04 KAB. TEMANGGUNG
1107 1100437206 NUR CHATIMAH 02/02/1975 KARANGKOBAR RT 001 RW 001 KAB. BANJARNEGARA
1108 1100437207 RAHAYU PURWATI 30/05/1960 JL. PLAMONGAN HIJAU NO. 33 RT.04/08 KOTA SEMARANG
1109 1100437208 M. MUHKLISIN 31/12/1958 JAGONG RT 01 RW02 KAB. BLORA
1110 1100437209 NEVRI RETRIYANTI 25/04/1964 JL SINGOSARI TIMUR H - 58 RT 01 RW 09 KOTA SEMARANG
1111 1100437210 ZAENAL FANANI MATZAENURI 04/07/1964 SONEYAN 2/1 MARGOYOSO KAB. PATI
1112 1100437211 TINAH 10/04/1975 PENANGGUNGAN RT 002 RW 004 KAB. BANJARNEGARA
1113 1100437212 NUR HIDAYAH 31/12/1969 JAGONG RT 01 RW 02 KAB. BLORA
1114 1100437213 HITNO 17/02/1970 PENANGGUNGAN RT 002 RW 004 KAB. BANJARNEGARA
1115 1100437214 SUWITO SIRIN PONI 28/12/1961 SONEYAN 2/3 MARGOYOSO KAB. PATI
1116 1100437215 TUMYATI 17/09/1979 CONDONGCAMPUR RT 003 RW 002 KAB. BANJARNEGARA
1117 1100437216 NARTI NASIRIN SUKIRAH 24/12/1968 SONEYAN 2/3 MARGOYOSO KAB. PATI
1118 1100437219 SITI KAFIDHOH 17/03/1973 GOWONG RT. 04/04 BRUNO KAB. PURWOREJO
1119 1100437222 SAMI SUKAMIN LAGIMAN 20/01/1961 KRIKILAN RT 002 RW 001 SUMBER KAB. REMBANG
1120 1100437224 KASIM RASMAN IBAN 31/12/1958 KRIKILAN RT 002 RW 001 SUMBER KAB. REMBANG
1121 1100437225 MUNFARIDAH MAWARDI USMAN 21/04/1972 TEMPERAK RT 002 RW 001 SARANG KAB. REMBANG
1122 1100437226 MUSLIMIN 14/03/1973 CONDONGCAMPUR RT 003 RW 002 KAB. BANJARNEGARA
1123 1100437227 SUHUD 12/07/1965 TEMPERAK RT RT 002 RW 001 SARANG KAB. REMBANG
1124 1100437229 MUTIAH 25/09/1965 KRAJAN 05/02 KAB. GROBOGAN
1125 1100437230 HENDRI KUSWANTO 11/11/1960 SUMBERAN SELATAN RT.03 RW.03 KAB. WONOSOBO
1126 1100437232 TARMUJI AL KAMSAH 06/09/1963 DARMAYASA RT 008 RW 003 KAB. BANJARNEGARA
1127 1100437234 BONEM 03/04/1960 KALIBENING RT 001 RW 006 KAB. BANJARNEGARA
1128 1100437235 ARRI MULATSIH 02/10/1966 SUMBERAN SELATAN RT 03 RW 03 KAB. WONOSOBO
1129 1100437236 WARSIDI 06/01/1974 JANGKUNGHARJO 07/04 KAB. GROBOGAN
1130 1100437237 WIDODO 15/06/1967 BETENGSARI RT. 02/12 KAB. SUKOHARJO
1131 1100437238 SUMBARYONO 28/12/1959 KAUMAN PERUMNAS KAUMAN RT.05 RW.08 KAB. BATANG
1132 1100437240 DEWI PURWANINGRUM 10/06/1977 BETENGSARI RT. 02/12 KAB. SUKOHARJO
1133 1100437241 SULISTYOWATI 26/03/1964 KAUMAN PERUMNAS KAUMAN RT.05 RW.08 KAB. BATANG
1134 1100437242 SRI RUKAYATI 11/01/1976 JANGKUNGHARJO 07/04 KAB. GROBOGAN
1135 1100437245 HARNINGRUM 11/01/1958 KERTAHARJA RT.02/02 KRAMAT KAB. TEGAL
1136 1100437247 SUMIATI 11/05/1971 CELEP RT 17 KAB. SRAGEN
1137 1100437248 SUPARNO, SPD,MPD 11/07/1962 CELEP RT 17 KAB. SRAGEN
1138 1100437249 SULASES 01/07/1960 BAMBAN RT.03/03 LEMAHABANG DORO KAB. PEKALONGAN
1139 1100437250 TUGINEM KARTAREJA MIRUN 12/12/1958 KALISARI RT. 01. 04 KAB. KEBUMEN
1140 1100437255 SADEM MUHAMAD IKHSAN 12/11/1958 KALISARI RT. 01. 04 KAB. KEBUMEN
1141 1100437257 TUGIYEM 25/11/1968 NGASEM 02/20 KAB. KLATEN
1142 1100437258 MASYKUR AL HASAN 10/10/1975 SUSUKAN RT 001 RW 007 KAB. KEBUMEN
1143 1100437260 MUHTAROM MUHAMAD IKHSAN 19/07/1964 KALISARI RT.01/04 KAB. KEBUMEN
1144 1100437261 SALAMAH 23/05/1966 KARANGANYAR RT.03/02 KEDUNGBANTENG KAB. TEGAL
1145 1100437262 MIFTAHUL AZIZ 17/07/1965 KARANGANYAR RT.03/02 KEDUNGBANTENG KAB. TEGAL
1146 1100437263 KHOMSIYAH SUMARTO YASAREJA 17/08/1968 KALISARI RT.01/04 KAB. KEBUMEN
1147 1100437264 TUCHEMI 01/07/1963 BAKAL RT 004 RW 003 KAB. BANJARNEGARA
NO NO. PORSI NAMA TANGGAL LAHIR ALAMAT KAB/KOTA KETERANGAN
1148 1100437266 SEPTININGSIH 26/05/1974 SINDURAJA RT 01 RW 07 KAB. PURBALINGGA
1149 1100437267 NAKEM 31/12/1963 JL PESISIR 025 RT01 RW01 KAB. CILACAP
1150 1100437269 DARIYAH 17/02/1960 SIDAKANGEN RT 002 RW 003 KAB. BANJARNEGARA
1151 1100437270 MAENAH 15/12/1962 BOJONGSARI RT 02 RW 04 KAB. PURBALINGGA
1152 1100437272 RINA UTAMI 02/06/1972 JL. TMN ARYA MUKTI TIMUR V/151 RT.09/04 KOTA SEMARANG
1153 1100437273 ZAENAL ABIDIN 08/10/1963 SIDAKANGEN RT 002 RW 003 KAB. BANJARNEGARA
1154 1100437277 WEDYANTORO AJI SISWADI 24/10/1975 KARANGGAYAM RT.02/01 KAB. KEBUMEN
1155 1100437279 RAHAYU TRI RESTIKAWATI 29/06/1977 KARANGGAYAM RT. 02. 01 KAB. KEBUMEN
1156 1100437281 SUTARYO 10/04/1970 SUMILIR RT 08 RW 03 KAB. PURBALINGGA
1157 1100437282 RUSMINAH 08/12/1971 SUMILIR RT 08 RW 03 KAB. PURBALINGGA
1158 1100437283 ASEP SAEPUL MU'MININ 10/05/1989 GANGGAWANG RT.03/01 SALEM KAB. BREBES
1159 1100437287 WIDYATMOKO JAHURI SITI AMINAH 08/05/1971 ANGKATAN KIDUL 01/02 TAMBAKROMO KAB. PATI
1160 1100437289 LEVINA LUSIANA PANGEMANAN 12/04/1971 ANGKATAN KIDUL 01/02 TAMBAKROMO KAB. PATI
1161 1100437290 SATIMAH SADIWANGSA SADIPA 19/12/1964 PANDANSARI RT. 06. 02 KAB. KEBUMEN
1162 1100437292 AMINUDIN 10/05/1970 JL GIRIWANGI 08 RT06 RW03 KAB. CILACAP
1163 1100437293 TITIK RAHMAWATI 17/12/1963 [Link] BARAT VI/17 RT.12/01 KOTA SEMARANG
1164 1100437295 NURYANTO 01/07/1978 PASURENAN. RT. 003/001 KAB. BANJARNEGARA
1165 1100437297 YULIANTI 28/07/1967 JL GIRIWANGI 08 RT06 RW03 KAB. CILACAP
1166 1100437298 ARWATI 10/07/1980 PASURENAN RT.03 RW,01 KAB. BANJARNEGARA
1167 1100437300 RATMI 01/07/1966 BAKAL RT 004 RW 003 KAB. BANJARNEGARA
1168 1100437304 N KHOZIN 16/10/1960 LEMPONGSARI RT 3 RW 4 KOTA SEMARANG
1169 1100437305 TUGINI MAD SAERI SEDAWIKRAMA 13/12/1964 KALISARI RT.01/04 KAB. KEBUMEN
1170 1100437307 AHTARUNNISA FAUZIA HANIFA 01/11/1993 [Link] POMPA NO.214 RT.01/02 KOTA SEMARANG
1171 1100437308 MOHAMMAD BAHTIAR MS 26/03/1990 [Link] POMPA 215 RT.01/02 KOTA SEMARANG
1172 1100437311 SUPRAPTO, SKM 18/05/1970 BKT BERINGIN LESTARI IV NO. 128 RT 7/14 KOTA SEMARANG
1173 1100437313 SAMIASIH 07/02/1972 BKT BERINGIN LESTARI IV NO. 128 RT 7/14 KOTA SEMARANG
1174 1100437315 DARYANTO 31/12/1959 BRANGKAL 16/08 KAB. KLATEN
1175 1100437316 MARDIYAH ABU SUPYAN DULAH MAKMUR 15/07/1971 KEBULUSAN RT.10/03 KAB. KEBUMEN
1176 1100437317 NGALIMIN 22/08/1968 KUTOARJO RT 03/05 KAB. PURWOREJO
1177 1100437319 SYAKIRIN DULAH MUKMIN H 22/05/1960 KEBULUSAN RT.10/03 KAB. KEBUMEN
1178 1100437321 MUDJI SURYANTO 10/04/1963 JL. P. KEMERDEKAAN GG. 25 NO. 21 RT. 8/6 KOTA TEGAL
1179 1100437322 NGASINAH 21/11/1969 DK. KALIJALIN RT 05/03 KAB. BLORA
1180 1100437323 SITI FATIMAH 10/12/1965 BRANGKAL 16/08 KAB. KLATEN
1181 1100437325 NYOTO 03/05/1963 DK. KALIJALIN RT 05/03 KAB. BLORA
1182 1100437327 SITI QOMARIYAH 26/12/1976 JL A YANI 02 RT02 RW02 KAB. CILACAP
1183 1100437328 SUWARNI 22/12/1957 BERU 07/04 KAB. GROBOGAN
1184 1100437329 ROMDIKAH 24/07/1971 DSN. TAWANGSARI RT.01/03 SEMOWO PABELAN KAB. SEMARANG
1185 1100437330 ROSNANI 01/10/1963 JL. P. KEMERDEKAAN GG. 25 NO. 21 RT. 8/6 KOTA TEGAL
1186 1100437333 GUSING SUMARYO 11/07/1962 ASINAN RT 002 RW 003 KAB. BANJARNEGARA
1187 1100437334 SISWALIYAH 02/03/1962 [Link] 2 RT.01/10 KOTA SEMARANG
1188 1100437336 SISWANTO 25/10/1959 JL. SAWOJAJAR 2 RT 1 RW 10 KOTA SEMARANG
1189 1100437337 DEWI KUSUMA WARDANI, DRA. MSI 26/03/1970 PERUM GRIYAN BARU RT. 01 RW. 13 KAB. KARANGANYAR
1190 1100437338 ZAETUN 06/08/1970 PURWAHAMBA RT. 14/06 SURADADI KAB. TEGAL
1191 1100437340 UMBAR SETYO RAHAYU 10/01/1963 SUMBERSARI RT. 04/10 BANYUURIP KAB. PURWOREJO
1192 1100437342 ARIFIN 21/12/1960 PURWAHAMBA RT. 14/06 SURADADI KAB. TEGAL
1193 1100437345 PANGADI, DRS., MSI 12/10/1957 PERUM GRIYAN BARU RT. 01 RW. 13 KAB. KARANGANYAR
1194 1100437347 BAWON 31/12/1966 GAWIS WETAN RT.01 RW.09 KAB. WONOSOBO
1195 1100437350 KANAPI 14/09/1958 JL. ABIMANYU GG. 3 NO. 28 RT. 005/002 KOTA TEGAL
1196 1100437351 NURYANTO 07/03/1958 GAWIS WETAN RT 01 RW 09 KAB. WONOSOBO
1197 1100437354 SITI KHAMIDAH NUR MUHAMMAD AHMAD DAHLAN14/02/1973 ADIKARSO RT.01/04 KAB. KEBUMEN
1198 1100437356 FAJAR HURU SETYOWATI 29/05/1966 LAJER RT.01/04 KAB. KEBUMEN
1199 1100437357 GIYONO 29/04/1971 SEPARE RT. 01 RW. 09 KAB. KARANGANYAR
1200 1100437358 BEROJI HASIM SALIM 18/02/1958 LAJER RT. 01. 04 KAB. KEBUMEN
1201 1100437362 SUHARTI MUH MUSTARI 05/05/1964 TASIKHARJO RT 005 RW 001 KALIORI KAB. REMBANG
1202 1100437363 ENDANG WURYANTI 29/08/1967 NORITO RT. 02 RW. 02 KAB. KARANGANYAR
1203 1100437369 SRI SUKARNI 02/10/1979 SEPARE RT. 01 RW. 09 KAB. KARANGANYAR
1204 1100437374 ASIH SETYO ASIH 10/07/1972 KARANGMULYA RT.04/02 BOJONG KAB. TEGAL
1205 1100437376 EDI PUJI WALUYO 04/01/1959 MANTRIANOM RT 001 RW 003 KAB. BANJARNEGARA
1206 1100437377 MUIFATUL LAELIYAH 13/08/1960 MANTRIANOM RT 001 RW 003 KAB. BANJARNEGARA
1207 1100437378 SAKRONI, [Link]. 12/07/1968 KARANGMULYA RT. 04/02 BOJONG KAB. TEGAL
1208 1100437383 SUMIATUN 31/12/1960 DAMARSARI RT.01 RW.01 KAB. KENDAL
1209 1100437385 DARDI GIMUN DASAH 28/05/1972 MULYOHARJO 16/3 PATI KAB. PATI
1210 1100437387 SAMSUDIN 01/11/1970 KERTAYASA RT. 02/01 KRAMAT KAB. TEGAL
1211 1100437388 EKAWATI 12/10/1975 KERTAYASA RT. 02/01 KRAMAT KAB. TEGAL
1212 1100437389 JAMILAH 31/12/1965 WEDIASIN RT.06 RW.04 KAB. WONOSOBO
1213 1100437390 BADRIYAH SUTAHAN SENGGRING 02/09/1971 GUWOSOBOKERTO 04/01 KAB. JEPARA
1214 1100437393 ETI NUR KHAYATI 20/10/1967 MLAYANG RT. 03/02 SIRAMPOG KAB. BREBES
1215 1100437395 SUTRISNO SOLEKAN PAENGGAN 19/07/1970 GUWOSOBOKERTO 04/01 KAB. JEPARA
1216 1100437396 PURLINA PARDAN SUKINAH 28/04/1970 SONEYAN 2/1 MARGOYOSO KAB. PATI
1217 1100437398 SENEN, ST 25/08/1969 SEKIP RT 03 RW 08 KOTA SURAKARTA
1218 1100437399 MUNTIAH SUPARTO SULIYAH 01/09/1975 MULYOHARJO 16/3 PATI KAB. PATI
1219 1100437400 ROYIM DRS. 26/03/1962 JL. WIDURI NO. 11 RT. 01 / 06 KOTA TEGAL
1220 1100437401 LANANG ASIKIN 02/06/1958 MLAYANG RT.03/02 SIRAMPOG KAB. BREBES
1221 1100437402 DAHLAN SADIMIN SARBANI 07/06/1965 SIDIGEDE 08/02 KAB. JEPARA
1222 1100437403 TAAT SUBAGIO 07/04/1973 WEDIASIN RT.06 RW.04 KAB. WONOSOBO
1223 1100437405 LISTIYOWATI 21/10/1968 JL. WIDURI NO. 11 RT. 01 / 06 KOTA TEGAL
1224 1100437406 YUNITA IRA KUNARI, SPD 13/06/1972 SEKIP RT 03 RW 08 KOTA SURAKARTA
1225 1100437407 ZULAFIAH SUTAHAN SENGGRING 13/07/1966 SIDIGEDE 08/02 KAB. JEPARA
1226 1100437410 MUGIYONO 06/03/1959 JL. GAJAH MADA PERUMDA 02/20 KAB. GROBOGAN
1227 1100437411 ATIK PURWANINGSIH 14/05/1965 JL. GAJAH MADA PERUMDA 02/20 KAB. GROBOGAN
1228 1100437412 KASTIMAH 07/06/1965 WEDUNG RT.03/01 KAB. DEMAK
1229 1100437413 ROFINGAH 22/06/1987 PENAWANGAN RT 06 RW 01 KAB. WONOSOBO
1230 1100437414 NUR KHAMID 06/08/1979 PENAWANGAN RT.06 RW.01 KAB. WONOSOBO
1231 1100437416 LAKCMI 31/03/1970 NGLAWU 01/05 KAB. GROBOGAN
1232 1100437417 SUMITRI ASIH 22/11/1963 JL. PUTER NO.4 B RT.07 RW.03 KOTA TEGAL
1233 1100437419 AMIN YUHDI 05/09/1965 PASIR KIDUL RT. 1/2 KAB. BANYUMAS
1234 1100437422 NURUL QOMARIYAH 30/07/1970 PASIR KIDUL RT. 1/2 KAB. BANYUMAS
1235 1100437423 KARYATI 27/06/1961 LANGGEN RT.09/02 TALANG KAB. TEGAL
1236 1100437425 WARSO 17/06/1967 DUKUHWALUH RT. 3/10 KAB. BANYUMAS
1237 1100437426 TUGI PRIHATIN MAD CHALIMI 19/04/1958 KALIREJO RT. 02. 07 KAB. KEBUMEN
1238 1100437427 KARTO 02/02/1962 LANGGEN RT.09/02 TALANG KAB. TEGAL
1239 1100437428 SUWENI 25/06/1967 DUKUH WALUH RT. 3/10 KAB. BANYUMAS
1240 1100437430 JAMILAH SUKARDI ASTRO 12/08/1968 RENGGING 12/02 KAB. JEPARA
1241 1100437431 ASROFI ALI DIMYATI RASEMAN 02/12/1968 RENGGING 12/02 KAB. JEPARA
1242 1100437433 MURNIHATI 20/03/1969 DUKUHBENDA RT.05/04 BUMIJAWA KAB. TEGAL
1243 1100437434 SITI MARYATI MOHAMAD TASIRUN 15/05/1958 KALIREJO RT.02/07 KAB. KEBUMEN
1244 1100437435 ACHMAD MUSLICH 30/09/1962 DUKUHBENDA RT.05/04 BUMIJAWA KAB. TEGAL
1245 1100437438 SAMINEM 31/12/1959 PEDAK RT 25/12 KAB. SRAGEN
1246 1100437439 TENTREM MIYATI 02/01/1963 GEDANGAN 02/05 KAB. MAGELANG
1247 1100437440 ANINDYAH WIRATRI 06/03/1975 JL. KESATRIAN KULON E-38 RT 04 RW 02 KOTA MAGELANG
1248 1100437442 GUNAWAN 02/03/1958 DONOYUDAN RT 12 KAB. SRAGEN
1249 1100437444 BUDHI SETIAWAN TRIHANTORO 24/07/1972 JL. KESATRIAN KULON E-38 RT 04 RW 02 KOTA MAGELANG
1250 1100437447 MARFUAH 01/09/1963 DONOYUDAN RT 12 KAB. SRAGEN
1251 1100437449 YASIR 31/12/1958 GEDANGAN 03/05 KAB. MAGELANG
1252 1100437450 SUTRI 31/12/1962 GEDANGAN 03/05 KAB. MAGELANG
1253 1100437454 MEGAWATI 02/03/1962 [Link] 669 RT. 3/4 PASIR KIDUL KAB. BANYUMAS
1254 1100437455 SUWARYO 31/08/1962 JL. PUTERAN RT. 07 RW. 03 KAB. CILACAP
1255 1100437456 TASRIPAH 26/04/1968 JL. PUTERAN RT. 07 RW. 03 KAB. CILACAP
1256 1100437457 USMAN ALI SALMAN 05/07/1974 NEPAK 05/02 KAB. MAGELANG
1257 1100437458 SUTARJI 19/10/1972 BEGALON RT.02 RW.04 KOTA SURAKARTA
1258 1100437459 PONIRAH 03/03/1977 BEGALON RT.002 RW.004 KOTA SURAKARTA
1259 1100437460 NURUL FAIDAH 28/11/1982 NEPAK 05/02 KAB. MAGELANG
1260 1100437461 TAUFIQ IHSANUDIN 28/07/1988 TUWUHSARI RT.02 RW.06 KAB. BOYOLALI
1261 1100437463 SITI NURJANAH 14/10/1969 SANGGRAHAN RT.01/RW.02 KAB. SUKOHARJO
1262 1100437464 MULYONO 06/04/1962 SANGGRAHAN RT.01/RW.02 KAB. SUKOHARJO
1263 1100437465 LUKMAN ADI NUGROHO 13/12/1995 KARANGBAWANG RT. 4/2 KAB. BANYUMAS
1264 1100437468 ZEN ASSEGAF 08/09/1971 JL. MUJAHIR NO. 12 RT 2 RW 9 KOTA SEMARANG
1265 1100437469 SRI WIDAYATI 29/06/1966 JL. ANYELIR MOGA 3 RT. 01 RW. 08 KAB. PEMALANG
1266 1100437470 SIDAH AYU OKTAVIA 15/10/1977 [Link] NO.12 RT.02/09 KOTA SEMARANG
1267 1100437471 CHOIROTUL KHASANAH 16/02/1970 KARANGBAWANG RT. 4/2 KAB. BANYUMAS
1268 1100437472 SRI PURWANTI 12/04/1962 TUWUHSARI RT.02 RW.06 KAB. BOYOLALI
1269 1100437474 SUKARMAN 13/03/1966 KETINGGRING RT 01 RW 07 KAB. WONOSOBO
1270 1100437476 SUDARNI 12/04/1970 KAUMAN 03/04 KAB. GROBOGAN
1271 1100437477 ISTIAWAN TRIHANDOKO 08/09/1968 KRAPYAK 01/01 KAB. MAGELANG
1272 1100437479 KHOLIFAH 14/08/1972 KETINGGRING RT.01 RW.07 KAB. WONOSOBO
1273 1100437480 BASARI 18/06/1968 KEBONAGUNG RT.04 RW.04 KAB. KENDAL
1274 1100437481 AFIFAH 16/12/1968 KRAPYAK 01/01 KAB. MAGELANG
1275 1100437482 UMI ASROFAH WALUYO IRSYAD 10/01/1975 KARANGDUWUR RT.03/02 KAB. KEBUMEN
NO NO. PORSI NAMA TANGGAL LAHIR ALAMAT KAB/KOTA KETERANGAN
1276 1100437485 MANIRAH KARMIDI JOKROMO 06/01/1982 NGASINAN RT. 01. 01 BONOROWO KAB. KEBUMEN
1277 1100437486 AMIR MUSTOFA AKHMAD SYAHIDA 16/08/1971 KARANGDUWUR RT. 03. 02 KAB. KEBUMEN
1278 1100437490 KUMSIATI 10/07/1969 KEBONAGUNG RT.04 RW.04 KAB. KENDAL
1279 1100437491 ANIK MURWANTI, DRA 26/09/1966 BADRAN BARU RT. 08 RW. 08 KAB. KARANGANYAR
1280 1100437493 SITI SULASTRI 08/10/1969 [Link] NO.3 TELUK RT. 2/14 KAB. BANYUMAS
1281 1100437494 WAHYUDI, SE 12/05/1975 JL. JALAK NO.013 RT.03 RW.06 KOTA SURAKARTA
1282 1100437495 AYU WIDININGSIH , [Link] 10/02/1982 JL. JALAK NO.13 RT. 13 RT.06 KERTEN KOTA SURAKARTA
1283 1100437496 RUTH INDRIYANI 03/12/1957 JL. JALAK NO.013 RT.03 RW.06 KOTA SURAKARTA
1284 1100437497 HAMDANI 19/12/1967 JATIREJO RT 02 RW 02 KAB. BOYOLALI
1285 1100437500 NGADIMAN, DRS 19/05/1958 BADRANBARU RT 08 RW08 KAB. KARANGANYAR
1286 1100437501 IRNA RUTINAWATI 13/11/1972 JL. TALANGSARI RAYA NO.28B RT.01/01 KOTA SEMARANG
1287 1100437502 SUPRAPTI 15/02/1970 JATIREJO RT 02 RW 02 KAB. BOYOLALI
1288 1100437503 MUSLIMAH AHMAD MUSLIM 20/05/1980 KRAPYAK 06/09 KAB. JEPARA
1289 1100437504 ENDRADI JOKO NUGROHO 08/02/1971 TALANGSARI RAYA 28 B RT 02 RW 07 KOTA SEMARANG
1290 1100437505 NUR HAMIDAH MARIYOTO 02/12/1979 BULUNGAN 06/01 KEC. PAKIS AJI KAB. JEPARA
1291 1100437506 MUHAMMAD RODLI TAMAM 03/04/1972 BULUNGAN 06/01 KEC. PAKIS AJI KAB. JEPARA
1292 1100437509 MUKHLIS SHOLIKIN WARSYAM 30/09/1978 KRAPYAK 06/09 KAB. JEPARA
1293 1100437513 GIYANTI 11/11/1982 KARANG KIDUL RT 007 / RW 002 KAB. KARANGANYAR
1294 1100437514 MISBAHUL MUNIR SODIQIN 08/10/1971 NANGGUNGAN 03/03 KAB. GROBOGAN
1295 1100437516 SUMINI 15/08/1978 NANGGUNGAN 03/03 KAB. GROBOGAN
1296 1100437517 SUPARMI 01/03/1962 KARANG KIDUL RT. 07 RW. 02 KAB. KARANGANYAR
1297 1100437518 SUPADMI 02/05/1979 KARANG KIDUL RT. 07 RW. 02 KAB. KARANGANYAR
1298 1100437520 MUHTAROM 20/06/1969 KARANG KIDUL RT. 07 RW. 02 KAB. KARANGANYAR
1299 1100437521 MASIRAN 23/03/1962 KAUMAN RT 02 RW 02 KAB. BLORA
1300 1100437523 MASROKAH 11/09/1957 WEDING RT 01/02 KAB. DEMAK
1301 1100437525 KHODIJAH 10/05/1959 KEBANDINGAN RT.02/01 KEDUNGBANTENG KAB. TEGAL
1302 1100437528 ARINI ROHMAH CHUMAIDI 07/07/1968 JL. HASANUDIN 116 B RT 09 RW 06 KOTA SALATIGA
1303 1100437529 FATMAWATI 28/10/1987 KEBANDINGAN RT. 08/02 KEDUNGBANTENG KAB. TEGAL
1304 1100437531 WAWAN 11/02/1980 KEBANDINGAN RT. 08/02 KEDUNGBANTENG KAB. TEGAL
1305 1100437533 TRIYONO WARDI JOYO 05/09/1957 JL. HASANUDIN 116B RT 09 RW 06 KOTA SALATIGA
1306 1100437535 SUKAMTO ZA 01/07/1963 BAKAL RT.02 RW.03 KAB. BANJARNEGARA
1307 1100437536 EKO BUDI SANTOSO 26/06/1964 WERGUKULON RT.03 RW.03 KAB. KUDUS
1308 1100437537 NUR KHAYIS 01/07/1968 BAKAL RT 002 RW 003 KAB. BANJARNEGARA
1309 1100437539 TUTIK SETIYANI 18/03/1974 KAUMAN RT 02 RW 02 KAB. BLORA
1310 1100437540 NGARPAN SULAN KASMI 05/01/1958 GERIT 2/4 CLUWAK KAB. PATI
1311 1100437541 MUHAMMAD SOKHIB KURDI 28/05/1966 MANYARGADING 05/02 KEC. KALINYAMATAN KAB. JEPARA
1312 1100437542 NIDYA SILVANA 26/05/1978 [Link] 25-A RT.01/02 KOTA SEMARANG
1313 1100437543 SURAMI SALIMIN REBO 24/12/1973 MAGERSARI RT 001 RW 002 REMBANG KAB. REMBANG
1314 1100437544 ARIF MUSTOFA SUTRIMO 06/02/1985 MANYARGADING 05/02 KEC. KALINYAMATAN KAB. JEPARA
1315 1100437545 SUTRISNO SUPRAPTO DASAR 05/06/1970 MAGERSARI RT 001 RW 002 REMBANG KAB. REMBANG
1316 1100437546 MUTMAINAH SUTRIMO KENCENG 12/03/1978 MANYARGADING 05/02 KEC. KALINYAMATAN KAB. JEPARA
1317 1100437547 SONNY AGUS DWIARSO 02/08/1972 JL. SISINGAMANGARAJA NO. 25 A RT 1 RW 2 KOTA SEMARANG
1318 1100437548 SUBARTI SUROTO SUMINAH 08/08/1963 GERIT 2/4 CLUWAK KAB. PATI
1319 1100437549 DRA. RETNO RUSDJIJATI 15/02/1969 TEGALARUM 060 RT. 02/15 KAB. MAGELANG
1320 1100437550 DONIE ANDRIANTO 03/03/1977 BUMIAYU RT.04/03 BUMIAYU KAB. BREBES
1321 1100437553 SUGENG PRIYANTO 16/07/1970 [Link] RT.04 RW.05 KAB. PEMALANG
1322 1100437555 MASNURI 07/11/1961 SENDANGREJO KAB. BLORA
1323 1100437556 SULISTYONINGRUM 09/03/1972 [Link] RT.04 RW.05 JEBED UTARA TAMAN KAB. PEMALANG
1324 1100437557 WIKE INDAH PERTIWI 02/04/1978 BUMIAYU RT.04/03 BUMIAYU KAB. BREBES
1325 1100437558 SUWARDO, SE 27/02/1979 PAKIS 03/01 KAB. KLATEN
1326 1100437559 ADI MOELJONO 04/10/1958 JL. ARWANA I NO.22 RT.09/12 UNGARAN KAB. SEMARANG
1327 1100437561 NUNUK SUPRIYATI DARSONO PURWOATMOJO 08/10/1960 KARANGDUWUR RT.01/03 KAB. KEBUMEN
1328 1100437563 LARASATI 19/04/1969 [Link] RT.04 RW.05 KAB. PEMALANG
1329 1100437564 RETNO SASANTI 27/12/1963 JL. ARWANA I NO.22 RT.09/12 UNGARAN KAB. SEMARANG
1330 1100437565 SAMSUDIN DIMYATI BAKRI 29/07/1957 KARANGDUWUR RT. 01. 03 KAB. KEBUMEN
1331 1100437567 INDAH RETNOWATI 20/12/1964 JEBED UTARA RT. 02 RW. 01 KAB. PEMALANG
1332 1100437568 SUNARTO 11/03/1959 JEBED UTARA RT. 02 RW. 01 KAB. PEMALANG
1333 1100437570 BAHRUL ULUM ALY ACHSAN 07/09/1970 SUNGGINGAN RT 01 RW 02 KAB. KUDUS
1334 1100437571 ESTI ERVIYANI SUHADI 04/10/1977 SUNGGINGAN RT 01 RW 02 KAB. KUDUS
1335 1100437573 NANI SUTARNI 21/07/1966 DUKUHREJO RT 01/03 KAB. PURWOREJO
1336 1100437574 SUPARMAN 25/10/1967 DUKUHREJO RT 01/03 KAB. PURWOREJO
1337 1100437576 IKA YULIYATI, SE 22/01/1980 PAKIS 03/01 KAB. KLATEN
1338 1100437577 YUSNA ROSALIA,SE,MM 02/06/1982 PRAPATAN PAKIS 11/03 KAB. KLATEN
1339 1100437578 ACHMAD MUSYAFA' 05/01/1976 TANGKISAN RT.01/RW.07 KAB. KENDAL
1340 1100437579 SITI RIZQIYANTI 10/11/1977 TANGKISAN RT.01/RW.07 KAB. KENDAL
1341 1100437580 MUFRODAH AHMAD ASROHIM 22/07/1981 TROSO 008/003 KAB. JEPARA
1342 1100437584 MUDLOFAR AMIRUL MUKMININ 10/07/1973 TROSO 08/03 KAB. JEPARA
1343 1100437585 UKHROWIYAH 25/07/1976 JL. METESEH RAYA RT.02/01 KOTA SEMARANG
1344 1100437586 SUKARTO 15/12/1959 JAGAPURA RT.02/04 KERSANA KAB. BREBES
1345 1100437587 SOLICHAH 19/11/1964 JAGAPURA RT.02/04 KERSANA KAB. BREBES
1346 1100437588 ALI MUSYAFAK ZUHDI 11/11/1973 JL. METESEH RAYA RT.02/01 KOTA SEMARANG
1347 1100437590 RAOLAH 04/05/1959 PENDE RT.01/06 KERSANA KAB. BREBES
1348 1100437591 MUJIYARTI 16/06/1965 BUMIJAWA RT. 09/01 KAB. TEGAL
1349 1100437592 SYAFI'I 05/05/1960 BUMIJAWA RT. 09/01 KAB. TEGAL
1350 1100437593 SITI ATIYAH 22/10/1974 TANJUNGHARJA RT. 02/01 KRAMAT KAB. TEGAL
1351 1100437595 RISMAYATI 10/08/1967 JL. KUDUS BINTORO RT 09/09 KAB. DEMAK
1352 1100437596 IPIT FITRIANI 11/09/1977 PEKAJANGAN GG.15 RT.11/04 KEDUNGWUNI KAB. PEKALONGAN
1353 1100437597 MUHAMMAD SABIKHIS 06/08/1976 PEKAJANGAN GG.15 RT.11/04 KEDUNGWUNI KAB. PEKALONGAN
1354 1100437598 SULASTRI 07/08/1965 BATUR AGUNG 03/02 KAB. GROBOGAN
1355 1100437602 TITIN HARYANI 30/03/1960 KEPUH RT.01 RW.01 KAB. WONOGIRI
1356 1100437607 SITI FATIMAH 13/03/1967 NGLIMUT RT.02/RW.01 KAB. KENDAL
1357 1100437609 MUTINAH 31/12/1957 WIROSARI RT.04/RW.01 KAB. KENDAL
1358 1100437610 AHMAD MUZAYYIN SUMARDI 19/03/1975 NGEMPLAK KIDUL 5/3 MARGOYOSO KAB. PATI
1359 1100437611 ILYA ISFIYATI MOH SHOLEH 04/08/1983 NGEMPLAK KIDUL 5/3 MARGOYOSO KAB. PATI
1360 1100437613 SUWARNI 28/03/1958 REJOSARI RT.05/08 KAB. DEMAK
1361 1100437614 SUMARDI 01/01/1959 REJOSARI RT.05/08 KAB. DEMAK
1362 1100437615 SUTIKNO SH 09/03/1963 PUNDUHSARI 02/02 KAB. MAGELANG
1363 1100437617 MARNI 06/11/1961 WATES KULON RT.02 RW.03 KAB. WONOGIRI
1364 1100437618 HESTIN HERMAWATI 14/12/1983 PURNAMANDALA BLOK. O - 13 RT.06 RW.05 KAB. WONOSOBO
1365 1100437619 DRA. MUSFIROH 17/07/1968 PUNDUH SARI 02/02 KAB. MAGELANG
1366 1100437621 NUR WAHIDAH 06/11/1977 REJOSARI RT 01/04 KAB. DEMAK
1367 1100437622 ANTON UDIYONO 23/05/1975 PURNAMANDALA BLOK O-13 RT 06 RW 05 KAB. WONOSOBO
1368 1100437623 RISWANTO 05/07/1962 KARANGRAU RT. 3/2 KAB. BANYUMAS
1369 1100437624 ENDANG SUWARTI 18/02/1963 KARANGRAU RT. 3/2 KAB. BANYUMAS
1370 1100437626 JUMAIN 25/05/1958 WRINGINJAJAR RT.03/04 KAB. DEMAK
1371 1100437627 AKHMAD MURSYIDI 21/09/1976 GG. JUJUR RT.09/RW.03 KAB. KENDAL
1372 1100437628 NUR AZIZAH 15/07/1987 PUTAT RT 003 / RW 004 KAB. DEMAK
1373 1100437629 KRISTANTO KERTORAHARDJO 17/01/1971 DUKUH WRINGIN RT.03/02 WANASARI KAB. BREBES
1374 1100437630 KODIJAH 11/06/1972 DUKUH WRINGIN RT.03/02 WANASARI KAB. BREBES
1375 1100437631 TRIANA NURHAYATI 20/12/1975 GG. JUJUR RT.09/RW.03 KAB. KENDAL
1376 1100437633 PENDI 05/08/1967 PILANGSARI RT 18/05 KAB. SRAGEN
1377 1100437634 RETNO NINGSIH 29/04/1958 JL. PERDAMAIAN RT. 05/01 KUDAILE KAB. TEGAL
1378 1100437635 ROFII 03/10/1962 KARANGMALANG RT.05/01 KETANGGUNGAN KAB. BREBES
1379 1100437636 NURHAYATI 03/01/1973 KEMUNING RT.04/01 KRAMAT KAB. TEGAL
1380 1100437637 NURIKA HURINA PRILIANTI 05/04/1981 PILANGSARI RT 18 KAB. SRAGEN
1381 1100437638 SUNARJO 27/12/1959 JL. PERDAMAIAN RT. 05/01 KUDAILE KAB. TEGAL
1382 1100437639 SUMITRO 16/06/1968 KEMUNING RT.04/01 KRAMAT KAB. TEGAL
1383 1100437640 IMAM FAHRURROZI SAHID 11/03/1979 SRATI RT.01/03 KAB. KEBUMEN
1384 1100437644 DAURI 11/11/1970 GERLANG KRADENAN RT.01 RW.01 KAB. BATANG
1385 1100437645 MUGIYONO 25/12/1967 GERLANG KRADENAN RT.01 RW.01 KAB. BATANG
1386 1100437646 SUKAESIH 03/04/1965 DUSUN KUBANGREJA RT. 01 RW. 02 KAB. CILACAP
1387 1100437647 KARSO 15/04/1960 DUSUN KUBANGREJA RT. 01 RW. 02 KAB. CILACAP
1388 1100437648 ACHMAD YUSAK 10/11/1961 PURWOSARI RT.02/04 KAB. DEMAK
1389 1100437649 PENI MIYATUN 10/11/1962 PURWOSARI RT.02/04 KAB. DEMAK
1390 1100437651 FARIKHIN 12/06/1974 CEPOGO 13/05 KAB. MAGELANG
1391 1100437654 AMPRIAH 31/12/1965 DWOROWATI VI RT.01/09 KOTA SEMARANG
1392 1100437655 SITI KOMAH 14/02/1960 TAWANG RAJEKWESI RT.05/04 KOTA SEMARANG
1393 1100437656 MUKIJAN 05/04/1958 TAWANG RAJEKWESI RT.05/04 KOTA SEMARANG
1394 1100437658 KHAERUDIN 11/11/1975 TUWEL RT.01/01 BOJONG KAB. TEGAL
1395 1100437660 NUR FAIZIN 14/04/1966 HARJOSARI RT.01/01 DORO KAB. PEKALONGAN
1396 1100437662 SARYONO 04/02/1970 PAGERANDONG RT 03 RW 01 KAB. PURBALINGGA
1397 1100437663 SAFA'ATUN 16/09/1967 [Link] RT.01/01 HARJOSARI DORO KAB. PEKALONGAN
1398 1100437664 MARYONO MOHAMAD YAHYA 09/03/1961 BABADSARI RT. 03. 04 KAB. KEBUMEN
1399 1100437666 MUHAMAD SYURUR 18/08/1976 KAUMAN 18/08 KAB. MAGELANG
1400 1100437667 PURWATI 12/03/1978 PAGERANDONG RT 03 RW 01 KAB. PURBALINGGA
1401 1100437668 ENDANG WIDYO WATY 17/05/1973 TAMANWINANGUN RT. 02. 03 KAB. KEBUMEN
1402 1100437669 SRI HARIYANI 17/08/1968 BOGORAN 01/01 KAB. KLATEN
1403 1100437671 PRAYITNO SURIPNO NAYAPRAWIRA 03/10/1970 TAMANWINANGUN RT. 02. 03 KAB. KEBUMEN
NO NO. PORSI NAMA TANGGAL LAHIR ALAMAT KAB/KOTA KETERANGAN
1404 1100437672 SUPARMAN 10/06/1965 BOGORAN 02/01 KAB. KLATEN
1405 1100437675 HARYANTO, SE, MM 17/06/1973 KEMIRI 22/10 KAB. KLATEN
1406 1100437676 MAHRUP 01/07/1958 PENANGGUNGAN RT 001 RW 003 KAB. BANJARNEGARA
1407 1100437677 ZAMRONI HAMID 22/04/1967 SIMBANG KULON RT.17/06 BUARAN KAB. PEKALONGAN
1408 1100437678 LIYATI 01/07/1959 PENANGGUNGAN RT 001 RW 003 KAB. BANJARNEGARA
1409 1100437679 TURAIHAN 09/09/1979 KAUMAN 18/08 KAB. MAGELANG
1410 1100437680 KHAFIDIN 06/02/1969 GEMURUH RT 003 RW 010 KAB. BANJARNEGARA
1411 1100437682 FATIMAH EL FATKHIYAH 23/12/1972 SIMBANG KULON RT.17/06 BUARAN KAB. PEKALONGAN
1412 1100437684 EKO ARIF WIJAYANTO 24/01/1985 WONOTUNGGAL [Link] RT.16 RW.03 KAB. BATANG
1413 1100437685 ELLY SUBIYANTI [Link] 25/08/1962 JL. [Link] GG. KWISTA NO.8 RT.03/03 KOTA TEGAL
1414 1100437687 SAD ADIYATI 04/12/1975 GEMURUH RT 003 RW 010 KAB. BANJARNEGARA
1415 1100437688 DANIK VERIANINGTYAS 28/01/1985 WONOTUNGGAL [Link] RT.16 RW.03 KAB. BATANG
1416 1100437689 NURUL GAYATRI, SPD 09/06/1975 KEMIRI 22/10 KAB. KLATEN
1417 1100437690 JUWARSO 06/01/1959 PENAWANGAN RT 001 RW 002 KAB. BANJARNEGARA
1418 1100437691 MAESAROH 02/09/1959 [Link] GG.20 NO.12 RT.14 RW.07 KOTA TEGAL
1419 1100437692 LILIS SETIYOWATI 19/01/1981 KAUMAN 18/08 KAB. MAGELANG
1420 1100437694 AHMAD SAMSUDIN 01/01/1971 JAMBEARUM RT.04/RW.01 KAB. KENDAL
1421 1100437695 KARSINAH 20/11/1964 PENAWANGAN RT 001 RW 001 KAB. BANJARNEGARA
1422 1100437697 ACHMAD BASIR 08/12/1960 KARANG TENGAH RT.05/RW.04 KAB. KENDAL
1423 1100437699 SITI NURKAYATI 24/03/1976 JAMBEARUM RT.04/RW.01 KAB. KENDAL
1424 1100437701 YAHMANTO 17/11/1962 GUTOKO RT.11/05 KEBON AGUNG KAJEN KAB. PEKALONGAN
1425 1100437702 MUSTOFA 09/08/1970 KARANGKOBAR RT 001 RW 001 KAB. BANJARNEGARA
1426 1100437704 SITI AISAH 10/01/1978 KAUMAN 18/08 KAB. MAGELANG
1427 1100437706 YUSUF HASYIM WASBIR 07/04/1975 PEKALONGAN 3/1 WINONG KAB. PATI
1428 1100437707 ASMONAH SUHADI SRINI SHOFIYAH 04/04/1976 PEKALONGAN 3/1 WINONG KAB. PATI
1429 1100437709 MUSTOFIAH 05/03/1962 KARANG TENGAH RT.05/RW.04 KAB. KENDAL
1430 1100437710 SRI PARJUNI 19/10/1961 GUTOKO RT.11/05 KEBON AGUNG KAJEN KAB. PEKALONGAN
1431 1100437711 SUTARNO DJAIS RASIYO 14/05/1963 SAMBONG RT 002 RW 001 SEDAN KAB. REMBANG
1432 1100437712 DIYASWATI RASMIN SARJIO 11/10/1969 SAMBONG RT 002 RW 001 SEDAN KAB. REMBANG
1433 1100437714 SUPARTI KASMURI SUKINI 09/07/1963 TRIGUNO 04/01 PUCAKWANGI KAB. PATI
1434 1100437716 DARYANTO RAJIMIN SUDARMI 03/01/1962 PELEMGEDE 05/02 PUCAKWANGI KAB. PATI
1435 1100437717 KASMIYATUN JUHDI KUSNI 15/12/1961 PELEMGEDE 05/02 PUCAKWANGI KAB. PATI
1436 1100437722 SURMINAH WIRYOSEMITO AMAD KASMO 31/12/1961 LEMBUPURWO RT.01/05 KAB. KEBUMEN
1437 1100437723 WIWIK PRASETYANINGSIH 30/11/1964 SITIMULYO LR 3A/9 RT 07/10 KAB. BLORA
1438 1100437728 ENDANG SURASMINI KARTO DIHARJO 27/08/1959 SELANG RT. 02. 01 KAB. KEBUMEN
1439 1100437730 SUTISWO,DRS 26/03/1958 WANGANDALEM RT.03/01 BREBES KAB. BREBES
1440 1100437731 MUSLIH 15/02/1965 DEMPET RT.01/05 KAB. DEMAK
1441 1100437732 SRI ENI WATI 07/07/1970 WANGANDALEM RT.03/01 BREBES KAB. BREBES
1442 1100437733 SITI UMI FATIKAH 23/08/1975 DEMPET RT.01/05 KAB. DEMAK
1443 1100437736 NAFIQOH 11/10/1970 LIMBANGAN RT.02/04 LOSARI KAB. BREBES
1444 1100437738 SUMIYATI KROMO REBAN 07/09/1972 NGAWEN 1/1 MARGOREJO KAB. PATI
1445 1100437739 JUWARIYAH 08/10/1967 KARANGASEM SLTN [Link] NO.35 01/01 KAB. BATANG
1446 1100437740 H. WASMUD 13/02/1966 KARANGASEM SLTN [Link] NO.35 01/01 KAB. BATANG
1447 1100437741 RUKIN 01/01/1962 BEJIREJO RT 02/03 KAB. BLORA
1448 1100437742 TUTRINI 01/07/1961 KEPAKISAN RT 001 RW 002 KAB. BANJARNEGARA
1449 1100437743 TORIS 07/11/1960 KEPAKISAN RT 001 RW 002 KAB. BANJARNEGARA
1450 1100437744 UMI WINDIYARTI 25/10/1964 BLAMBANGAN RT 003 RW 004 KAB. BANJARNEGARA
1451 1100437745 EDI SUJARWO MASKURI 21/03/1976 JEPAT KIDUL 1/2 TAYU KAB. PATI
1452 1100437746 LAELI NUGRAHENI HERAWATI 24/06/1974 TOSARI REJO RT 08 RW 06 KAB. WONOSOBO
1453 1100437747 RIKHA WIDHI ASTUTI 01/05/1981 JEPAT KIDUL 1/2 TAYU KAB. PATI
1454 1100437749 SALMAH SAIDAH 26/02/1964 KARANGANYAR RT.03/03 TIRTO KAB. PEKALONGAN
1455 1100437750 MUHAMMAD YANUAR FIRDAUS 25/01/2002 KARANGANYAR GG.18 RT 005 /RW 003 KAB. PEKALONGAN
1456 1100437751 MUHAMMAD SHODLI 06/02/1980 CIMUNDING RT.02 RW.03 BANJARHARJO KAB. BREBES
1457 1100437752 KHUSNUL KHOTIMAH 16/03/1985 CIMUNDING RT.02 RW.03 BANJARHARJO KAB. BREBES
1458 1100437753 TEJO HARTOKO ADMOSUWITO 19/02/1960 TEGALREJO PERMAI NO. 031 RT 03 RW 09 KOTA SALATIGA
1459 1100437754 MUNANDAR 12/04/1968 JL. RAJAWALI NO.15 RT.04/05 TANJUNG KAB. BREBES
1460 1100437755 ISMI DRALIA BUSRAN 09/09/1964 TEGALREJO PERMAI NO. 031 RT 03 RW 09 KOTA SALATIGA
1461 1100437756 INDON ROIDAH 14/04/1969 JL. RAJAWALI NO.15 RT.04/05 TANJUNG KAB. BREBES
1462 1100437759 SUMARNI SUWITO SUWARNO 03/04/1964 PRAGEN RT 002 RW 001 PAMOTAN KAB. REMBANG
1463 1100437760 INDATI 02/08/1959 GEMBLENGMULYO RT.004 RW.002 PANCUR KAB. REMBANG
1464 1100437761 MOHAMMAD DWI MAHINDRA FAIZAL 05/03/1990 PRAGEN RT 002 RW 001 PAMOTAN KAB. REMBANG
1465 1100437762 ENDAH SRI WAHYUNI 26/09/1973 PAGENDISAN 4/1 WINONG KAB. PATI
1466 1100437763 KASMURI 27/09/1963 DUSUN SAPEN RT.02/RW.02 KAB. KENDAL
1467 1100437764 CHADIUN AL WASTOYO 05/12/1959 SINDURAJA RT 01 RW 01 KAB. PURBALINGGA
1468 1100437765 SUMIYATI 12/06/1964 DUSUN SAPEN RT.02/RW.02 KAB. KENDAL
1469 1100437766 ARWATI 28/04/1982 SINDURAJA RT 01 RW 01 KAB. PURBALINGGA
1470 1100437769 SUNITI, [Link] 09/09/1960 KALIGAYAM RT.06/02 TALANG KAB. TEGAL
1471 1100437770 SUKARAS 02/11/1959 KALIGAYAM RT.06/02 TALANG KAB. TEGAL
1472 1100437771 MOHAMAD SAJIDIN MOHAMAD SIDIK 29/04/1963 GEMEKSEKTI RT.03/03 KAB. KEBUMEN
1473 1100437772 SITI KHUDRIYAH SOLEH SUWANDI MIHARDJA 25/06/1968 GEMEKSEKTI RT.03/03 KAB. KEBUMEN
1474 1100437775 ISTIKANAH AHMAD SUDARWI 10/05/1970 TAYU KULON 5/2 TAYU KAB. PATI
1475 1100437777 ALI SHODIQIN ABDUL HAMID 06/04/1966 TAYU KULON 5/2 TAYU KAB. PATI
1476 1100437778 KHOLIQ ABDUL HAMID DRS 03/03/1966 TAWANGREJO 3/6 WINONG KAB. PATI
1477 1100437779 ANI AGUSTIYANI MASLAHAH SPDI MSI 10/08/1970 TAWANGREJO 3/6 WINONG KAB. PATI
1478 1100437783 FERIE SULISTIONO 03/02/1979 JL. SUMBING NO 3A RT. 04 RW. 17 KAB. PEMALANG
1479 1100437784 HENNY ANGGRAINI KUSUMAWATI 05/04/1962 JL. WALET NO. 14 RT. 1 RW. 1 BINAGRIYA KOTA PEKALONGAN
1480 1100437785 SOEROSO 11/10/1962 [Link] 14 RT. 1 RW. 1 BINAGRIYA KOTA PEKALONGAN
1481 1100437786 EVIEN PURWI LUSIASARI 24/04/1979 JL. SUMBING NO 3A RT. 04 RW. 17 KAB. PEMALANG
1482 1100437792 EDI KUSUMAWATI TASERIN 04/07/1982 CEPOGO 02/01 KEC. KEMBANG KAB. JEPARA
1483 1100437794 MINHAYATI KUNJARI MUHTAR 16/06/1975 SROBYONG 03/03 KAB. JEPARA
1484 1100437800 SUMARSIH 02/05/1960 TEMBELANG RT.05/RW.02 KAB. KENDAL
1485 1100437803 ASMUAT 11/12/1959 PUTAT 04/01 KAB. GROBOGAN
1486 1100437804 SUMIYATI 03/07/1963 KAUMAN 01/01 KAB. KLATEN
1487 1100437805 WARDINEM 02/07/1973 JL DR RAJIMAN NO 627 BRATAN RT 007/006 KOTA SURAKARTA
1488 1100437806 HARDIANTO 04/08/1976 GRIYA ALAM SENTOSA RT.04 RW.09 PASIRANGINKAB. WONOGIRI
1489 1100437807 ENDANG INDRIYATI 26/01/1973 CIPELEM RT.02/RW.03 BULAKAMBA KAB. BREBES
1490 1100437809 ITA NURMASARI 27/05/1979 PERUM PSIS E/1 RT.01/14 KOTA SEMARANG
1491 1100437811 WARTIM 17/09/1960 KARANGTENGAH RT. 6/1 KAB. BANYUMAS
1492 1100437812 SUPRAPTIMAH 24/11/1960 DUKUHAN RT 03 RW 06 KOTA SURAKARTA
1493 1100437813 TABID RUDIYANTO 16/01/1971 CIPELEM RT.02/RW.03 BULAKAMBA KAB. BREBES
1494 1100437814 LANJAR JUMIATUN 15/11/1963 PULOREJO 03/06 KAB. KLATEN
1495 1100437815 KASNO 31/12/1957 JANGKUNHARJO 09/02 KAB. GROBOGAN
1496 1100437816 ANSHORI ALI DACHWAN 15/07/1969 SROBYONG 03/03 KAB. JEPARA
1497 1100437817 WARTINI 31/12/1962 JANGKUNGHARJO 09/02 KAB. GROBOGAN
1498 1100437818 MUHAMMAD ULIN NUHA 18/07/1998 SARIPAN JL KH.A. FAUZAN 001/001 KAB. JEPARA
1499 1100437819 KAMAJI MATKIRAN SIRAN 02/06/1961 SARIPAN JL. KH. A. FAUZAN 001/001 KAB. JEPARA
1500 1100437820 YUSMINARSIH DWI PUTRANTI 14/04/1977 DUKUH KRAJAN RT 003 RW 001 KAB. BANJARNEGARA
1501 1100437821 HARTOYO SAMPAN SAGIMIN 17/09/1959 NGELING 02/02 KAB. JEPARA
1502 1100437822 SUDIBYO 14/09/1976 DUKUH KRAJAN RT 003 RW 001 KAB. BANJARNEGARA
1503 1100437823 KAINAH 29/07/1971 KARANG TENGAH RT. 6/1 KAB. BANYUMAS
1504 1100437824 BUDIARTO 08/09/1962 TANGKISAN RT 007 RW 001 KAB. BANJARNEGARA
1505 1100437825 SUBIYATI MARKUM TISNO 29/05/1964 NGELING 02/02 KAB. JEPARA
1506 1100437826 RAHMAN SETYOKO 26/02/1985 TANGKISAN RT 007 RW 001 KAB. BANJARNEGARA
1507 1100437831 SUSMARIYAH 26/05/1967 GUMELAR RT 002 RW 002 KAB. BANJARNEGARA
1508 1100437832 EDY HARYANTO SRI HARTONO 07/01/1974 MULYOHARJO 07/04 KAB. JEPARA
1509 1100437836 ANNA FARIDA ASTUTI 12/04/1974 MULYOHARJO 07/04 KAB. JEPARA
1510 1100437838 SITI MASITOH 12/05/1980 KALIGANGSA RT. 001/002 KOTA TEGAL
1511 1100437840 AHMAD MA'SUM 15/10/1960 MENGANTI RT 01 RW 01 KAB. WONOSOBO
1512 1100437841 AGUS SETIYADI 03/08/1974 PERUM PSIS E/1 RT.01/14 KOTA SEMARANG
1513 1100437844 SUMAJI EFENDI 06/01/1976 KALIGANGSA RT. 01 RW. 2 KOTA TEGAL
1514 1100437846 ISMIYATI 28/04/1961 [Link] NO.161 RT.04/RW.07 BREBES KAB. BREBES
1515 1100437847 SUSILO HADI SATMOKO 11/09/1957 TEMBELANG RT.05/RW.02 KAB. KENDAL
1516 1100437848 TOHARI 12/08/1959 [Link] NO.161 RT.04/RW.07 BREBES KAB. BREBES
1517 1100437849 HERY PURWIYANTO MANGUNDIHARJO 08/06/1966 PERUM ARGOMULYO C NO. 59 RT 03 RW 10 KOTA SALATIGA
1518 1100437850 MOH. SAMSUN KASDU 11/03/1965 GLEBEG RT 001 RW 003 SULANG KAB. REMBANG
1519 1100437851 AMBAR RETNA SINAR WULAN 21/09/1970 PERUM ARGOMULYO C NO. 59 RT 03 RW 10 KOTA SALATIGA
1520 1100437852 SUPARNO 05/06/1960 CAMPURSARI, RT.05/RW.02 KAB. TEMANGGUNG
1521 1100437853 DARYONO 14/06/1960 KLUWIH RT.03 RW.05 KAB. BATANG
1522 1100437854 KUSTINI 07/08/1968 BAGENG RT 001 / RW 003 KAB. PATI
1523 1100437855 ROCHDIANA 09/12/1961 KLUWIH RT.03 RW.05 KAB. BATANG
1524 1100437856 MUNARIS 03/07/1962 JL. MERAK BLOK L-4 NO.27 RT.01 RW.05 KAB. BANYUMAS
1525 1100437857 SUDARSIH 05/07/1965 CAMPURSARI, RT.05/RW.02 KAB. TEMANGGUNG
1526 1100437859 NURJANAH 11/05/1971 JL. MERAK BLOK L-4NO.27 RT 01/05 KAB. BANYUMAS
1527 1100437860 SITI NURBAYANI 05/07/1965 BASENG RT 02/06 KAB. SUKOHARJO
1528 1100437861 SRI HARYANI KARSONO HARJOSUWITO 01/08/1967 SIDOHARJO RT.05/03 KAB. KEBUMEN
1529 1100437868 MURSIDAH 28/12/1981 SINGOREJO RT.01/02 KAB. DEMAK
1530 1100437869 KASMI 02/02/1958 MAGERSARI RT 22 RW 08 KAB. BOYOLALI
1531 1100437870 JANNATIYANA SUWINDA 01/01/1996 DUSUN SEMANDING RT.05 RW.03 KAB. KEBUMEN
NO NO. PORSI NAMA TANGGAL LAHIR ALAMAT KAB/KOTA KETERANGAN
1532 1100437871 RUSMINI 09/10/1960 NANGSRI LOR RT. 02 RW. 04 KAB. KARANGANYAR
1533 1100437872 TEGUH INDARYONO,DRS 01/07/1963 PAGUYANGAN RT.01/RW.03 PAGUYANGAN KAB. BREBES
1534 1100437873 TUNIRAH 12/04/1968 PAGUYANGAN RT.01/RW.02 PAGUYANGAN KAB. BREBES
1535 1100437874 SRI PATIN 10/03/1968 PASIR RT.05/06 KAB. DEMAK
1536 1100437875 AGUS SUTONO 07/08/1965 KARANGTURI RT.07/08 BUMIAYU KAB. BREBES
1537 1100437876 KHOEROTUL ZAHRO 03/12/1973 KARANGTURI RT.07/08 BUMIAYU KAB. BREBES
1538 1100437877 MUHIB 12/04/1962 PASIR RT.05/06 KAB. DEMAK
1539 1100437878 NUR NAHYATI 10/07/1984 PASIR RT.05/06 KAB. DEMAK
1540 1100437880 IZUL FITRIYATUN 30/12/1977 TUWEL RT.01/01 BOJONG KAB. TEGAL
1541 1100437881 SUYARSIH 20/03/1964 PASIR RT.05/06 KAB. DEMAK
1542 1100437882 SATIRAH 19/05/1964 PANGENJURUTENGAH RT 03/08 KAB. PURWOREJO
1543 1100437883 TEGUH RIYANTO 07/02/1961 PANGENJURUTENGAH RT 03/08 KAB. PURWOREJO
1544 1100437884 SUPRIYAH 31/05/1958 KEMIRI KIDUL RT 02/03 KAB. PURWOREJO
1545 1100437885 MUNAKI 16/03/1962 PENGKOL 01/10 KAB. KLATEN
1546 1100437886 SODERI 13/03/1969 PODOREJO RT 3 RW 4 KOTA SEMARANG
1547 1100437888 BUSAIRI 02/06/1966 SUMBEREJO RT.03/09 KAB. DEMAK
1548 1100437889 PARMI 11/06/1961 PENGKOL 01/10 KAB. KLATEN
1549 1100437890 SUMIAH 02/05/1961 SUMBEREJO RT.03/09 KAB. DEMAK
1550 1100437891 NYARMI 06/08/1972 PODOREJO RT 3 RW 4 KOTA SEMARANG
1551 1100437895 SUJONO PANGI ATMO 02/02/1967 PRAMBATAN LOR RT.02 RW.01 KAB. KUDUS
1552 1100437896 SUTINAH SHOLEH MATAKRIM 05/07/1975 PRAMBATAN LOR RT.02 RW.01 KAB. KUDUS
1553 1100437898 SURAHMI KASIM MAD YASID 23/10/1969 WALUYO RT.02/06 KAB. KEBUMEN
1554 1100437899 SATIMAN SOMINGIN MAD KUSEN 08/04/1965 WALUYO RT.02/06 KAB. KEBUMEN
1555 1100437900 HADI LASIPAN RUMAIN 08/08/1975 KUWUKAN RT 02 RW 01 KAB. KUDUS
1556 1100437901 SRI ATMINI MAT ZUHRI 01/05/1976 KUWUKAN RT.02 RW.01 KAB. KUDUS
1557 1100437902 SITI MARYAM 03/01/1960 JL. MAWAR GG.4 NO.44 RT.04 RW.05 KOTA TEGAL
1558 1100437903 SISWANTO 02/12/1973 KRAJAN 01/02 KAB. GROBOGAN
1559 1100437904 KAHARSANA JOMO SUMARI 12/07/1957 KABONGAN KIDUL RT 001 RW 003 REMBANG KAB. REMBANG
1560 1100437905 SITI AMINAH 27/04/1974 KRAJAN 01/02 KAB. GROBOGAN
1561 1100437906 NGASRI KARDIMAN PAK DI 03/03/1959 KABONGAN KIDUL RT 001 RW 003 REMBANG KAB. REMBANG
1562 1100437907 SUPARDI 09/08/1957 CANDIDUKUH 05/04 KAB. GROBOGAN
1563 1100437909 MASRUROH 17/03/1973 SUMBARANG RT.10/03 JATINEGARA KAB. TEGAL
1564 1100437910 ZAENAL ARIPIN 12/06/1965 SUMBARANG RT.10/03 JATINEGARA KAB. TEGAL
1565 1100437912 ANDRI MAULANA 28/09/1998 JL. MAWAR GG.4 NO.44 RT 004 / RW 005 KOTA TEGAL
1566 1100437914 SUMIRAH JAPAR SIMAN 28/01/1963 SENDANGMULYO RT 002 RW 002 KRAGAN KAB. REMBANG
1567 1100437915 MUNTASIROH 10/10/1973 BATURSARI RT.01/04 KAB. DEMAK
1568 1100437916 SURAJI TARMO SUWARI 18/04/1959 SENDANGMULYO RT 002 RW 002 KRAGAN KAB. REMBANG
1569 1100437917 AHMADI 25/05/1966 BATURSARI RT.01/04 KAB. DEMAK
1570 1100437920 MASDUKI 02/02/1962 TUGUREJO RT.03/04 KOTA SEMARANG
1571 1100437922 KUSNAN 17/04/1960 TEGALREJO 01/01 KAB. KLATEN
1572 1100437923 UMI NANGIMAH 06/04/1968 TEGALREJO 01/01 KAB. KLATEN
1573 1100437927 KISWATUN 15/06/1965 TUGUREJO RT.03/04 KOTA SEMARANG
1574 1100437928 NUR KHOLIL SUDONO ABDULROHMAN 05/06/1977 NGABUL 04/04 KAB. JEPARA
1575 1100437929 ABDUL ROCHIM 12/01/1983 TEGAL 01/01 KAB. GROBOGAN
1576 1100437932 HANIFAH RAJAB ABDULQODIR 14/05/1984 NGABUL 04/04 KAB. JEPARA
1577 1100437935 ROZANAH 21/04/1960 DUSUN BULAK II RT.03 RW.02 KAB. KENDAL
1578 1100437936 MULYADI, SE. MM 14/05/1958 DUKUHAN RT 03 RW 06 KOTA SURAKARTA
1579 1100437937 ANZARI SYAHPUTRO MASRUP 06/02/1995 RANDUKUNING 8/3 PATI LOR PATI KAB. PATI
1580 1100437938 MUALIMIN 29/08/1968 JEKETRO 02/02 KAB. GROBOGAN
1581 1100437940 NUR HAMIDAH 22/08/1974 JEKETRO 02/02 KAB. GROBOGAN
1582 1100437941 SETYO WIDIARTI SUNARDI 27/05/1965 RANDUKUNING 8/3 PATI LOR PATI KAB. PATI
1583 1100437943 MASRUP KHAZIN KHOTIDJAH 21/12/1962 RANDUKUNING 8/3 PATI LOR PATI KAB. PATI
1584 1100437945 BUDIARTO 29/12/1963 SIDOHARJO RT.03/03 KAB. DEMAK
1585 1100437946 SITI SUJATMI 03/07/1968 SIDOHARJO RT.03/03 KAB. DEMAK
1586 1100437947 SUYADI 21/12/1962 KECILA RT. 2/7 KAB. BANYUMAS
1587 1100437948 YOVITA SYLVIA NANDA 16/07/1999 RANDUKUNING 8/3 PATI LOR PATI KAB. PATI
1588 1100437950 ERNA DIAN NILAWATI 20/06/1973 PER. SINAR SAWUNGGALING B-18 RT.05/14 KOTA SEMARANG
1589 1100437951 SAIRAH 08/10/1963 LODAYA RT.02 RW.01 KAB. PEMALANG
1590 1100437952 ULUNG PRIJOWOBOWO 21/08/1969 PER. SINAR SAWUNGGALING B-18 RT.05/14 KOTA SEMARANG
1591 1100437953 MUKMINAH 21/11/1963 KECILA RT. 2/7 KAB. BANYUMAS
1592 1100437954 TASRUN RATIBAN KAMIDIN 05/03/1960 GUNUNGMULYO RT 006 RW 002 SARANG KAB. REMBANG
1593 1100437955 SUMARYATI 10/12/1965 DEMPEL KIDUL RT 1 RW 16 KOTA SEMARANG
1594 1100437956 KARNO 10/12/1958 LODAYA RT.02 RW.01 KAB. PEMALANG
1595 1100437958 SARIYATI MURDANI KARTO KASMIN 20/02/1967 GUNUNGMULYO RT 006 RW 002 SARANG KAB. REMBANG
1596 1100437960 DIAH MEI TRIANA 11/05/1970 [Link] PATAH NO.44 RT.01/07 BREBES KAB. BREBES
1597 1100437962 MURINAH MUNASIR MARZUKI 08/08/1960 GOLANTEPUS RT 03 RW 06 KAB. KUDUS
1598 1100437963 NUR WIDYA ARIFINNA 06/09/1993 JL. RADEN PATAH NO.44 RT.01/07 BREBES KAB. BREBES
1599 1100437964 DARMINTO 01/02/1966 TEGALREJO RT 01/02 KAB. PURWOREJO
1600 1100437965 SIH SAPTO RINI 12/03/1963 DSN. SOROYUDAN 01/06 KAB. MAGELANG
1601 1100437967 ADI DANANG PANUNTUN 30/09/1991 DEMPEL KIDUL RT.01/16 KOTA SEMARANG
1602 1100437968 ERNY SURYATI 15/06/1968 KARANGKOBAR RT 001 RW 001 KAB. BANJARNEGARA
1603 1100437972 BAYU WARSO 01/11/1967 KARANGKOBAR RT 001 W 001 KAB. BANJARNEGARA
1604 1100437973 MARYONO 24/04/1964 DEMPEL KIDUL RT 1 RW 16 KOTA SEMARANG
1605 1100437975 SUTARTI 30/10/1966 TLOGOREJO RT 02/02 KAB. PURWOREJO
1606 1100437979 MUNJAEDI 17/06/1970 SUMENET RT.02/RW.01 KAB. KENDAL
1607 1100437980 MUH NIZAR 07/01/1967 MOJOSAWIT 26/12 KAB. KLATEN
1608 1100437982 KOIMATUN 05/09/1960 TURUNSIH RT.04/RW.03 KAB. KENDAL
1609 1100437985 AFIF JAYA HARTADI 02/10/1995 DEMPEL K1 RT.01/16 KOTA SEMARANG
1610 1100437986 MUHAMMAD AKHI FALAKHI 20/07/1988 JL. JLAMPRANG GG. 1 NO. 26 RT. 4/4 KOTA PEKALONGAN
1611 1100437988 DIAN UTAMI 18/08/1989 DEMPEL KIDUL RT.01/16 KOTA SEMARANG
1612 1100437989 ENDAH PURWANTI 14/05/1985 PARAKANCANGGAH RT 001 RW 009 KAB. BANJARNEGARA
1613 1100437992 MURSITI 31/12/1974 PENGKOL RT 02/01 KAB. SUKOHARJO
1614 1100437993 KHAERON 31/12/1959 BABADAN RT.05 RW.03 KAB. BATANG
1615 1100437994 CHOZIE PUSPITA GRAHAM 27/07/1991 RANDUKUNING 8/3 PATI LOR PATI KAB. PATI
1616 1100437995 SUBANDIYAH 31/12/1963 BABADAN RT.05 RW.03 KAB. BATANG
1617 1100437996 BOYANI 12/05/1962 PENGKOL RT 02/01 KAB. SUKOHARJO
1618 1100437997 WENDRI 10/08/1975 AJIBARANG WETAN RT 01 RW 01 KAB. BANYUMAS
1619 1100438001 UMIARTI 05/01/1983 PUNGGELAN RT 001 RW 002 KAB. BANJARNEGARA
1620 1100438002 SUPRIYONO 24/08/1977 PUNGGELAN RT 001 RW 002 KAB. BANJARNEGARA
1621 1100438005 KHAIRUL 20/02/1960 AJIBARANG WETAN RT 01 RW 01 KAB. BANYUMAS
1622 1100438008 DEWI PUJIYANTI 25/06/1987 BLANCERAN 01/05 KAB. KLATEN
1623 1100438009 BUDI UTOMO 02/12/1985 KESINGAN, RT.03/RW.04 KAB. TEMANGGUNG
1624 1100438012 MUHAEMIN 05/01/1972 KALIGANGSA KULON NO.21 RT.05/05 BREBES KAB. BREBES
1625 1100438013 BAMBANG WALMIDI 19/04/1963 KARANGANYAR RT02 RW06 KAB. TEMANGGUNG
1626 1100438015 KHOTIM ZAINAL ARIFIN 29/04/1979 BLANCERAN 01/05 KAB. KLATEN
1627 1100438016 KHUNAENI 14/05/1978 KALIGANGSA KULON NO.21 RT.05/05 BREBES KAB. BREBES
1628 1100438017 SITI MUNAWAROH 05/06/1977 BOTOMULYO RT.02/RW.06 KAB. KENDAL
1629 1100438018 SUMTIMAH 13/04/1960 DSN. JAMBE RT.06/05 DADAPAYAM SURUH KAB. SEMARANG
1630 1100438019 SITI NURAENI 03/06/1974 BRUNOREJO KAB. PURWOREJO
1631 1100438020 DAWAM 16/09/1973 BOTOMULYO RT.02/RW.06 KAB. KENDAL
1632 1100438021 SARINEM 07/08/1958 SAMBIREJO RT 13 KAB. SRAGEN
1633 1100438022 NGATIYEM 30/12/1957 DSN. KRAJAN KIDUL RT.01/02 SUMBEREJO KAB. SEMARANG
1634 1100438023 KHAMIDUN 07/09/1962 KALITENGKEK RT 01/02 KAB. PURWOREJO
1635 1100438026 IR. WIDODO 10/11/1957 WINGKOHARJO RT 01/02 KAB. PURWOREJO
1636 1100438027 SRI WAHYUNI 18/03/1970 KARANGANYAR RT02 RW06 KAB. TEMANGGUNG
1637 1100438028 GIMAN AL SUGI PRAYITNO 03/04/1966 SAWAL RT 001 RW 002 KAB. BANJARNEGARA
1638 1100438029 PARIYAH 08/05/1958 SAWAL RT 001 RW 002 KAB. BANJARNEGARA
1639 1100438030 MOHAMAD MARJO JASAREJA 04/12/1963 CANDIRENGGO RT.04/04 KAB. KEBUMEN
1640 1100438032 LEGIMAN 18/07/1964 PURWASABA RT 003 RW 003 KAB. BANJARNEGARA
1641 1100438036 SURURUDIN 12/03/1967 BRUNOREJO KAB. PURWOREJO
1642 1100438037 ANDI SASONGKO 16/11/1982 JL. DUKU 2 B NO.20 RT.03 RW.04 KOTA SURAKARTA
1643 1100438038 SUYATNO 12/06/1973 DESA CENING RT.08 RW.04 KAB. KENDAL
1644 1100438040 YASHTOLIKHA BUDI KHASANAH 08/12/1982 JL. DUKU 2 B NO 20 RT 03 RW 04 KOTA SURAKARTA
1645 1100438042 MUHMAMAD MUN'AM 04/08/1972 BRUNOREJO RT 01/01 KAB. PURWOREJO
1646 1100438044 CHANIFAH ICHSAN ABDUL GHANI 12/02/1961 LORAMKULON RT 02 RW 04 KAB. KUDUS
1647 1100438045 ALI AHMADI SAMUJI SUPAT 01/01/1959 BERMI 2/10 GEMBONG KAB. PATI
1648 1100438046 SUNI PASMIN MINAH 03/04/1965 BERMI 2/10 GEMBONG KAB. PATI
1649 1100438049 LUKMAN BUDHITAMA 15/10/1966 JL. IMAM BONJOL RT 04 RW 02 KAB. BANYUMAS
1650 1100438050 JUMHAN HABIBI AKSIN 03/11/1983 TAWANGREJO 4/3 WINONG KAB. PATI
1651 1100438051 NUR SEKHAH 01/04/1970 JL. IMAM BONJOL RT 04 RW 02 KAB. BANYUMAS
1652 1100438052 LAYLA HIDAYATUN MAHSUN 08/03/1987 TAWANGREJO 4/3 WINONG KAB. PATI
1653 1100438054 DARMINI 06/01/1959 [Link] JAYADIWANGSA GG.2 RT 03 RW 04 KAB. BANYUMAS
1654 1100438057 PARSA KARJO SETU 05/09/1969 PAYANG 01/03 PATI KAB. PATI
1655 1100438058 WIWIK WINDARNINGSIH LEGIMAN 07/05/1976 WIDOROKANDANG 02/01 PATI KAB. PATI
1656 1100438060 ROHMATUN MOCHAMAD TAHRIR 31/12/1963 KEBULUSAN RT.08/02 KAB. KEBUMEN
1657 1100438061 MURTINAH 05/11/1960 PERENG RT. 03 RW. 03 KAB. KARANGANYAR
1658 1100438063 SLAMET HARIYANTO 29/01/1988 SULANG RT 004 RW 003 SULANG KAB. REMBANG
1659 1100438064 SISWATI SARNO SABAN 17/08/1976 TAHUNAN 02/02 KAB. JEPARA
NO NO. PORSI NAMA TANGGAL LAHIR ALAMAT KAB/KOTA KETERANGAN
1660 1100438065 SUNARTO SUTRIMAN SUNTONO 03/07/1967 TAHUNAN 02/02 KAB. JEPARA
1661 1100438066 MASBUCHIN SHOLEH 25/08/1977 BLIMBING, RT.04/RW.03 KAB. TEMANGGUNG
1662 1100438067 MOHAMAD FATONI DALAIL 04/03/1964 SIDOMORO RT.04/02 KAB. KEBUMEN
1663 1100438068 MUH SURURI 18/02/1972 KEBAYEN, RT.01/RW.04 KAB. TEMANGGUNG
1664 1100438069 MARYATUN IRSAD MA'RUF 16/04/1965 SIDOMORO RT.04/02 KAB. KEBUMEN
1665 1100438070 RIDWAN PURWO PRASETYO 16/10/1980 KANDANGAN 01/04 KAB. GROBOGAN
1666 1100438071 DWI WAHYU MAHANANI 06/02/1980 KANDANGAN 01/04 KAB. GROBOGAN
1667 1100438072 NINIK MINATUL KARIMAH 14/07/1980 JL. DEMPEL INTAN VI KAV.373 RT.08/25 KOTA SEMARANG
1668 1100438073 ABDUL ROKHIM 09/03/1969 KUDU RT.01/02 KOTA SEMARANG
1669 1100438076 AZIZUDIN, SE 11/06/1976 JL. DEMPEL INTAN VI KAV.373 RT.08/25 KOTA SEMARANG
1670 1100438078 MARWIYATI 15/08/1970 NGADIROJO RT 03/08 KAB. MAGELANG
1671 1100438079 WIDIYARTO 15/08/1960 GANDATAPA RT.07 RW.01 KAB. BANYUMAS
1672 1100438080 SODIK 16/12/1969 DK. KRAJAN RT.03/RW.01 KAB. KENDAL
1673 1100438083 SRI MURNIATI 18/07/1968 GANDATAPA RT 07 RW 01 KAB. BANYUMAS
1674 1100438086 PRASETYA ANITA 13/05/1968 DK. KRAJAN RT.03/RW.01 KAB. KENDAL
1675 1100438087 SUTONO 07/06/1959 [Link] NEGARA SELATAN V RT.07/02 KOTA SEMARANG
1676 1100438088 ANISAH 06/07/1976 KUDU RT.01/02 KOTA SEMARANG
1677 1100438089 DJUMIATUN 13/10/1959 [Link] NEGARA SELATAN V RT.07/02 KOTA SEMARANG
1678 1100438096 MARYOTO 05/02/1960 DSN. BUMEN RT.01 RW.02 KAB. SEMARANG
1679 1100438097 SUHARJO 22/05/1960 DEPOK KRINJING RT.01 RW.01 KAB. WONOSOBO
1680 1100438098 MISKINAH 16/09/1964 DEPOK KRINJING RT.01 RW.01 KAB. WONOSOBO
1681 1100438100 EKO SUGIHATNO BASUKI 05/12/1965 JEBRES TENGAH RT 02 RW 025 KOTA SURAKARTA
1682 1100438101 TITIK RARAS 15/11/1971 JEBRES TENGAH RT 02 RW 025 KOTA SURAKARTA
1683 1100438104 ESTY PARAMA ARTI 25/07/1963 SOKANANDI RT 001 RW 005 KAB. BANJARNEGARA
1684 1100438105 REBI 30/12/1958 RAJEK 01/02 KAB. GROBOGAN
1685 1100438106 WAHYUNIDA ISNAINI MUHAMMAD NUH 24/05/1961 SALATIGA PERMAI 6/124 RT 03 RW 12 KOTA SALATIGA
1686 1100438109 ANDITA CAHYA NURAINI 23/02/1990 SALATIGA PERMAI GG VI/124 RT 03 RW 12 KOTA SALATIGA
1687 1100438110 SUGEMI SUMARKAWI SARMI 10/09/1965 NGEMPLAK KIDUL 1/1 MARGOYOSO KAB. PATI
1688 1100438111 TAMRIN 13/06/1967 [Link] RUNA NO.27 RT.01/02 BULAKAMBA KAB. BREBES
1689 1100438112 RUSIYANTO 12/05/1966 SIDOMUKTI RT.05 RW.05 KAB. SEMARANG
1690 1100438116 TURBIYATI HARMAN KARIP 17/12/1969 SIDOMUKTI NO 05 RT.05 RW.05 KAB. SEMARANG
1691 1100438121 YUMALIA S 31/07/1969 JL. TANGKUBAN PERAHU NO.92 RT.06 RW.25 KOTA SURAKARTA
1692 1100438122 MAKFIYAH 07/06/1964 KALIGANGSA KULON RT.05/RW.04 BREBES KAB. BREBES
1693 1100438125 WASRIPIN 14/07/1969 JL. TANGKUBAN PERAHU 92 RT 06 RW 25 KOTA SURAKARTA
1694 1100438127 [Link] 10/03/1966 TEGALSARI RT.02 RW.03 KAB. KENDAL
1695 1100438128 TRI ARIYANI 19/03/1968 TEGALSARI RT.02 RW.03 KAB. KENDAL
1696 1100438129 SUMARTINI 10/01/1962 JL. SURABAYAN [Link] I NO. 12 KOTA TEGAL
1697 1100438131 SURATMO 12/12/1959 JL. SURABAYAN GG. PELANGI I NO.12 KOTA TEGAL
1698 1100438132 JUMAROH 30/12/1965 JEJEG RT.04/03 BUMIJAWA KAB. TEGAL
1699 1100438134 WIWI YUNIASIH 17/06/1978 LUWUNGGEDE NO.39 RT.04/RW.02 LARANGAN KAB. BREBES
1700 1100438136 SLAMET JUMAWAN 29/08/1975 KUBANSAR RT.03 RW.007 KAB. BREBES
1701 1100438140 SITI MUAINDOH KUNAWI 16/09/1984 SLUKE RT 002 RW 004 SLUKE KAB. REMBANG
1702 1100438141 MASLICHAH 10/10/1970 JL. MADURA NO. 17 RT. 2 RW. 8 KOTA PEKALONGAN
1703 1100438142 AHMAD ROSIKHIN MUNADI 12/06/1971 SLUKE RT 002 RW 004 SLUKE KAB. REMBANG
1704 1100438144 MUSTHOLIH 21/12/1961 KEBARONGAN RT 01 RW 05 KAB. BANYUMAS
1705 1100438145 MUJIYAH 02/10/1970 KEBARONGAN RT 01 RW 05 KAB. BANYUMAS
1706 1100438146 SUGENG 10/09/1962 JL. MADURA NO. 17 RT. 2 RW. 8 KOTA PEKALONGAN
1707 1100438147 UMIYATI 02/04/1978 JL BKT TERATAI IV-A NO.226 RT.04/19 KOTA SEMARANG
1708 1100438148 NURHIDAYATI,DRA 30/03/1965 TIRTO MUKTI III/1014 RT.02/24 KOTA SEMARANG
1709 1100438149 ROBIIS 27/01/1988 KEMBANGAN RT 01 RW 09 KAB. PURBALINGGA
1710 1100438150 HARIYANTO 28/03/1972 [Link] TERATAI IV-A NO.226 RT.04/19 KOTA SEMARANG
1711 1100438153 SIKIN ALIFUDIN 27/10/1966 KEMBANGAN RT 01 RW 09 KAB. PURBALINGGA
1712 1100438157 SITI ROMLAH 17/03/1970 KEMBANGAN RT 01 RW 09 KAB. PURBALINGGA
1713 1100438158 DARMINAH 30/12/1963 CANGGAL RT 22 RW 05 KAB. BOYOLALI
1714 1100438159 NGATEMIN 29/08/1969 AJIBARANG WETAN RT 02 RW 12 KAB. BANYUMAS
1715 1100438161 YUNI RAHARJO 28/06/1983 MURONG RT 013 / RW 000 KAB. SRAGEN
1716 1100438162 NURUL KHASANAH 17/12/1962 KARANGAYU RT.05 RW.01 KAB. KENDAL
1717 1100438163 MUSRINGAH 02/07/1962 JURU TENGAH RT 04 RW 02 KAB. KEBUMEN
1718 1100438165 SUWARSIH 15/02/1958 [Link] RT.03/02 HARJOSARI BAWEN KAB. SEMARANG
1719 1100438167 SITI ASIYAH 10/05/1977 AJIBARANG WETAN RT.02 RW.12 KAB. BANYUMAS
1720 1100438169 DARWANTO 05/06/1975 MURONG RT 13 KAB. SRAGEN
1721 1100438170 SITI MUNAWAROH 11/01/1972 DEMPET RT.02/05 KAB. DEMAK
1722 1100438171 MASHADI 06/11/1965 DEMPET RT.02/05 KAB. DEMAK
1723 1100438173 SUGIYANTI FADLILAH 01/07/1961 WATES RT.06 RW.02 KAB. BATANG
1724 1100438176 IIS HERISNA AGUSTYANI 10/08/1970 PERUM ARGOPENI INDAH RT 01 RW 11 KAB. WONOSOBO
1725 1100438180 HENRY KRISTIONO 05/12/1967 PERUM ARGOPENI INDAH RT 01 RW 11 KAB. WONOSOBO
1726 1100438183 AFIF FAHRONI SUTRISNO 17/12/1974 CEPOGO 02/01 KEC. KEMBANG KAB. JEPARA
1727 1100438184 BEUNTEUR SITI MAESAROH 01/06/1961 DUSUN BABAKAN RT03 RW01 KAB. CILACAP
1728 1100438185 SATIYEM PORJO PAIJO 01/07/1960 CEPOGO 02/01 KEC. KEMBANG KAB. JEPARA
1729 1100438193 DWI RUMINI 06/05/1973 JL PUTER C1 NO 4 PERUM UNS V RT. 02/23 KAB. KARANGANYAR
1730 1100438196 NGATINI SUNGKONO SUGINAH 01/07/1967 DOROREJO 4/2 TAYU KAB. PATI
1731 1100438197 MOCH BUDIANTO 01/11/1973 JL PUTER C1 NO 4 PERUM UNS V RT. 02/23 KAB. KARANGANYAR
1732 1100438202 NURIYAH 07/11/1965 PENDOWO RT. 01 RW. 02 KAB. PEMALANG
1733 1100438204 ANIK RACHMAWATI 15/07/1977 NGESENG RT 01 RW 01 KAB. SRAGEN
1734 1100438206 MUKAROMAH 04/09/1957 KUDU RT.04/02 KOTA SEMARANG
1735 1100438207 DARYANTO SE 10/09/1968 DEPOKAN RT 07 RW 07 KAB. SRAGEN
1736 1100438208 SUGIYAN 04/08/1962 KUDU RT.01/05 KOTA SEMARANG
1737 1100438211 SUHARNI 17/07/1959 KUDU RT.01/05 KOTA SEMARANG
1738 1100438212 MUHDIYANTO 20/08/1959 REJOSARI RT 10 KAB. SRAGEN
1739 1100438214 SRI SUHARNI 05/08/1963 REJOSARI RT 10 KAB. SRAGEN
1740 1100438216 MUKIDI 27/09/1961 MANDUNGAN RT. 02 RW. 04 KAB. KARANGANYAR
1741 1100438218 SITI AMINAH 11/01/1965 BESOLE RT 02/01 KAB. PURWOREJO
1742 1100438219 LISTIARINI 16/02/1969 DK. KADIPURWO RT.03 RW.06 KAB. SEMARANG
1743 1100438221 SAMAN,SAG 11/12/1957 WONOREJO 29/06 KAB. KLATEN
1744 1100438223 PRIYONO 18/07/1962 BESOLE RT 02/01 KAB. PURWOREJO
1745 1100438224 SRI ROKHAENIWATI 10/09/1977 BAWANG RT.22 RW.01 KAB. BATANG
1746 1100438225 WAWAN BASUKI 19/04/1980 WONOREJO 28/06 KAB. KLATEN
1747 1100438228 SUKINAH 07/02/1962 MANDUNGAN RT. 01 RW. 06 KAB. KARANGANYAR
1748 1100438229 EMIE SUKMAWATI SN 11/03/1979 NGESREP RT 04 RW 01 KAB. BOYOLALI
1749 1100438230 SUGENG SUNGKOWO BUDI 08/08/1972 BAWANG RT.22 RW.01 KAB. BATANG
1750 1100438231 SUGIMAN 08/08/1958 MANDUNGAN RT. 01 RW. 06 KAB. KARANGANYAR
1751 1100438234 HERRY YULIYANTO 23/07/1976 NGESREP RT04 RW 01 KAB. BOYOLALI
1752 1100438238 TITIK MURDIESTI 29/04/1964 LIMPUNG [Link] RT.02 RW.03 KAB. BATANG
1753 1100438241 HERY SETIADI 30/05/1979 PANASAN BARU RT 03 RW 02 KAB. BOYOLALI
1754 1100438242 MARKHAMAH 20/02/1973 DUSUN TAWANG TENGAH RT.03/RW.06 KAB. KENDAL
1755 1100438243 DESI RAHMA FAUZIYAH 03/12/1986 KEDUNGORI RT 01 RW 04 KAB. DEMAK
1756 1100438246 ERMA SURYANI 20/01/1983 PANASAN BARU RT 03 RW 02 KAB. BOYOLALI
1757 1100438248 ASMUNI 10/09/1968 DUSUN TAWANG TENGAH RT.03/RW.06 KAB. KENDAL
1758 1100438251 KUSYATI MAWARDI NUR SANGID 17/08/1959 ARGOPENI RT.01/01 KAB. KEBUMEN
1759 1100438252 SUKARDI 29/04/1958 DK. KUWIRAN RT.04/RW.06 KAB. SUKOHARJO
1760 1100438254 KHOLIKUL HUDA FIRMANSYAH 22/04/1999 KARANGAYU RT.05 RW.01 KAB. KENDAL
1761 1100438255 SRI SUPATMI 12/12/1959 DK. KUWIRAN RT.04/RW.06 KAB. SUKOHARJO
1762 1100438257 AKHMAD FAIZIN 25/12/1968 [Link] [Link] 3 NO.18 RT.02 RW.06 KAB. PEMALANG
1763 1100438258 ANISA NURHAYATI 28/11/1995 DK. JLUMBANG RT.02/RW.05 KAB. SUKOHARJO
1764 1100438259 FADHILAH 11/04/1973 [Link] GG MAWAR 3 NO. 18 RT.02 RW.06 KAB. PEMALANG
1765 1100438260 NANANG SUGIYANTO 31/12/1968 SAPEN RT 16 KAB. SRAGEN
1766 1100438261 WAGIYANTO 06/12/1970 PADAS RT 09 RW 01 KAB. SRAGEN
1767 1100438263 SARMIN 14/11/1965 DK. JLUMBANG RT.02/RW.05 KAB. SUKOHARJO
1768 1100438264 INDRASTUTI 09/01/1967 SAPEN RT 16 KAB. SRAGEN
1769 1100438265 DENO RAHAYU 22/01/1966 DK. KANDREN RT.01/RW.01 KAB. SUKOHARJO
1770 1100438266 SURATMI 16/07/1981 PADAS RT 09 KAB. SRAGEN
1771 1100438268 MASROHAH 05/12/1968 PURWOSARI RT.02/01 KAB. DEMAK
1772 1100438269 SRIYONO 28/08/1962 DK. KANDREN RT.01/RW.01 KAB. SUKOHARJO
1773 1100438271 DAKHNIYAR ASFIANY 18/08/1967 PERUM CANDI ASRI NO.03 RT03 RW10 KAB. TEMANGGUNG
1774 1100438272 SUTINI 05/10/1959 PAINGAN RT 14 KAB. SRAGEN
1775 1100438273 YULIANTO SUSILO 10/07/1967 PERUM CANDI ASRI NO. 03 RT 03 RW 10 KAB. TEMANGGUNG
1776 1100438275 KOMARIYAH 22/12/1961 SITANGGAL RT.11/02 LARANGAN KAB. BREBES
1777 1100438277 KHAIRUL HUDA 17/03/1999 MULYOHARJO RT 004/ RW 004 KAB. JEPARA
1778 1100438278 SOLEKAN SUYADI KARTAMAT 22/05/1975 MULYOHARJO RT.004/004 KAB. JEPARA
1779 1100438282 PARSAN 21/03/1964 MADUKARA RT 001 RW 006 KAB. BANJARNEGARA
1780 1100438283 SITI SAPARIYAH 14/09/1966 MADUKARA RT 01 RW 06 KAB. BANJARNEGARA
1781 1100438284 SRI PADIYO 20/06/1960 PURWOREJO RT. 02/03 KAB. SUKOHARJO
1782 1100438285 SITI KHALIYATI 28/08/1970 DSN. KALANGAN RT.09 RW.02 KAB. SEMARANG
1783 1100438287 ENDANG SUKENI 21/11/1962 DSN. PRAMPOGAN RT.01 RW.09 KAB. SEMARANG
1784 1100438288 DONI PRAKOSO WIDAMANTO 23/09/1981 DUKUHAN NAYU RT 03 RW 08 KOTA SURAKARTA
1785 1100438290 WINARNI 13/04/1961 PURWOREJO RT.02/03 KAB. SUKOHARJO
1786 1100438291 DAMAN 10/04/1960 DUKUHAN NAYU RT.07 RW.15 KOTA SURAKARTA
1787 1100438292 SUPARMI 09/04/1965 BANJARBANGGI 06/02 KAB. GROBOGAN
NO NO. PORSI NAMA TANGGAL LAHIR ALAMAT KAB/KOTA KETERANGAN
1788 1100438293 MARTONO 05/07/1957 PEJAREN 05/01 KAB. GROBOGAN
1789 1100438294 HIDAYATURROHMAH 10/11/1963 PEJAREN 05/01 KAB. GROBOGAN
1790 1100438295 LILIS KISWATI 28/06/1966 PADI XIII/C-224 RT.02/02 KOTA SEMARANG
1791 1100438296 NUNUK MUJIATI 11/08/1961 KARANG ANYAR RT.06 RW.03 KAB. WONOSOBO
1792 1100438298 NUZULUN NIKMAH 12/01/1969 MANGUNANLOR RT.10/04 KEBONAGUNG KAB. DEMAK
1793 1100438299 NGUSMAN 27/01/1960 DSN. KARANGANYAR RT 06 RW 03 KAB. WONOSOBO
1794 1100438301 NURSALIM 10/04/1961 [Link] RT.04/01 KEBONAGUNG KAB. SEMARANG
1795 1100438304 TASI WASIBAN ASTRO 21/11/1966 JAMBEYAN RT 001 RW 001 SEDAN KAB. REMBANG
1796 1100438306 MARDJI SENTOSA DJUMERI 05/07/1967 KAUMAN KIDUL RT 01 RW 02 KOTA SALATIGA
1797 1100438307 DIAH PURWANTI 26/01/1973 KAJEN [Link] NALENDRO DALAM RT 03 RW 10 KOTA SURAKARTA
1798 1100438308 DONI APRILINI KUSUMAWATI 03/04/1980 DEBONG KIDUL RT. 05 / 02 KOTA TEGAL
1799 1100438310 SUYITNO 02/10/1962 KEMBANGKUNING V RT. 26/05 KAB. MAGELANG
1800 1100438311 FATONAH, [Link] 01/01/1969 BORO KULON RT 01/05 KAB. PURWOREJO
1801 1100438312 KAROMAH 23/07/1976 DS JAMBEYAN RT 001 RW 001 KAB. REMBANG
1802 1100438313 MUHAMMAD SHODIKIN 09/08/1969 KAJEN JL. SRINALENDRO DALAM RT.03 RW.10 KOTA SURAKARTA
1803 1100438314 SUSILOWATI KARTIN SOEMARTO 20/12/1975 PASAR ANYAR RT 01 RW 02 KOTA SALATIGA
1804 1100438315 SUTONO 18/08/1980 DEBONG KIDUL RT. 05/02 KOTA TEGAL
1805 1100438318 SRI HARTINI, [Link] 19/05/1974 MOJOMULYO RT 01/08 KAB. SRAGEN
1806 1100438320 RUDIONO SUMARDI AHMAD JUPRI 04/03/1967 KARANGMALANG RT 01 RW 01 KAB. KUDUS
1807 1100438326 SRI SUNARNI 05/09/1961 BABAKAN RT.04/04 KRAMAT KAB. TEGAL
1808 1100438327 HERU SANTOSO 07/03/1960 TALANG ABANG RT.02/11 KAB. SUKOHARJO
1809 1100438328 ELYANA SETYANINGRUM MAJIKAN NOOR ARIF 03/07/1975 KARANGMALANG RT.01 RW.01 KAB. KUDUS
1810 1100438329 MUGI RAHAYU WILUJENG 30/12/1988 PANDAK RT 004 RW 00 KAB. SUKOHARJO
1811 1100438330 HARJITO 11/08/1970 [Link] RT.03 RW.06 KAB. SEMARANG
1812 1100438331 MUHAMMAD NGATO'ILLAH 21/04/1974 KIYANGKONGREJO RT 01/03 KAB. PURWOREJO
1813 1100438332 NURHADI AGUS SANTOSA 14/08/1967 KEDUNG LUMBU RT.02 RW. 05 KOTA SURAKARTA
1814 1100438333 NGADISO, DR. MPD 31/12/1962 PETORAN RT 03 RW 06 KOTA SURAKARTA
1815 1100438334 SRI HARMANI, DRA 04/11/1964 PETORAN RT.03 [Link] KOTA SURAKARTA
1816 1100438336 YULIANA ATIK APRYANTI 24/04/1970 KEDUNG LUMBU RT.02 RW.05 KOTA SURAKARTA
1817 1100438338 SITI ROKHIMAH 20/03/1971 MULUR RT. 02/01 KAB. SUKOHARJO
1818 1100438340 ROCHANIAH 28/08/1961 JOGOMULYO 06/03 KAB. MAGELANG
1819 1100438341 WIDARSIH 03/07/1968 NGLANGON 01 RT 01 RW 02 KAB. SRAGEN
1820 1100438342 ZUBDATUN KHOLISOTUN 21/03/1968 DESA PENANGGULAN RT.01/RW.02 KAB. KENDAL
1821 1100438343 SUSILO 24/04/1963 NGLANGON RT 01/02 KAB. SRAGEN
1822 1100438344 SARMINI 11/11/1965 KRADENAN RT.02 RW.01 KAB. BATANG
1823 1100438345 SETYO WINARNO 09/02/1967 MULUR RT. 02/01 KAB. SUKOHARJO
1824 1100438349 LEO MARTHA KRIS PURWANTO 04/03/1986 GRIYA BHAKTI PRAJA K.03 RT.06/07 KAB. DEMAK
1825 1100438350 MUTAMAQIN NOECH 22/03/1968 DESA PENANGGULAN RT.01/RW.02 KAB. KENDAL
1826 1100438351 PARIYEM 31/12/1966 MONTONGSARI RT.01/RW.03 KAB. KENDAL
1827 1100438352 ZUMROATUN ARUMI PURWATI 15/09/1961 GRIYA BHAKTI PRAJA K.03 RT.06/07 KAB. DEMAK
1828 1100438353 TARIYAH 31/12/1965 BANDAR RT.03 RW.04 KAB. BATANG
1829 1100438355 SUYATI 19/05/1967 SIJERUK RT.02/RW.02 KAB. KENDAL
1830 1100438356 AKHMAD WILDAN 26/02/1977 PAKUNCEN RT.06 RW.01 KAB. WONOSOBO
1831 1100438357 SINTA 08/08/1965 BRENGKELAN RT 01/05 PURWOREJO KAB. PURWOREJO
1832 1100438358 WARDIMIN 03/05/1965 MONTONGSARI RT.01/RW.03 KAB. KENDAL
1833 1100438359 RUPIAH 31/12/1963 GG. KARNADI RT.06/RW.02 KAB. KENDAL
1834 1100438363 WALTI 26/08/1964 GEMPOLSEWU RT.04 RW.03 KAB. KENDAL
1835 1100438365 SUTRISNO 09/08/1960 GEMPOLSEWU RT.04 RW.03 KAB. KENDAL
1836 1100438366 ANANG SUTENGSAN 23/06/1965 BRENGKELAN RT 01/05 PURWOREJO KAB. PURWOREJO
1837 1100438367 NURWAHYUNI BUDIYARTI , DRA 18/06/1961 BANYUANYAR RT 02 RW 012 KOTA SURAKARTA
1838 1100438370 RADIYA 07/05/1962 TANUREJO, RT.02/RW.01 KAB. TEMANGGUNG
1839 1100438371 HARI PURWOTO, DRS 13/10/1959 BANYUANYAR RT 02 RW 012 KOTA SURAKARTA
1840 1100438372 SURIPNO 02/02/1977 SUNYALANGU RT 01 RW 02 KAB. BANYUMAS
1841 1100438373 HARYATI 06/08/1967 TANUREJO, RT.02/RW.01 KAB. TEMANGGUNG
1842 1100438374 WASIRAH 30/08/1960 SUNYALANGU RT 01 RW 02 KAB. BANYUMAS
1843 1100438375 TRI UTAMAH 09/08/1960 NGADISARI RT06 RW03 KAB. TEMANGGUNG
1844 1100438376 WAGINI MARWI KINAH 01/07/1960 BANJARSARI 2/1 GABUS KAB. PATI
1845 1100438377 SUNARSIH 06/07/1975 BENGLE RT. 01/01 TALANG KAB. TEGAL
1846 1100438378 SUSILOWATI SUKARJO PARTO DIWARNO 15/10/1981 KRIKILAN RT 007 RW 001 SUMBER KAB. REMBANG
1847 1100438380 BUDI PRAKOSO 23/04/1960 KARANG BANGKANG RT 03 RW 02 KAB. BANYUMAS
1848 1100438381 ATIQOH NUR AZIZAH 04/07/1986 KARANG BANGKANG RT.03 RW.03 KAB. BANYUMAS
1849 1100438382 SAKHUDIN 02/02/1965 BENGLE RT. 01/01 TALANG KAB. TEGAL
1850 1100438386 MUHAEMIN 28/08/1969 BANJARLOR RT.05/RW.02 BANJARHARJO KAB. BREBES
1851 1100438388 AHMAD NILNAL MUNACHIFDLIL 'ULA 19/11/1986 CENDONO RT 05 RW 08 KAB. KUDUS
1852 1100438389 PUJI SURYANTINI 22/11/1966 SENON RT 08 RW 03 KAB. PURBALINGGA
1853 1100438390 SURIPTO 14/04/1958 KUWIRAN 11 RT. 04/10 KAB. MAGELANG
1854 1100438391 GIMIN HADI SISWOYO 23/03/1959 DESA PURWOSARI RT.19/RW.04 KAB. KENDAL
1855 1100438394 ARIN ANISAH MAS'UD 22/02/1964 CENDONO RT.05 RW.08 KAB. KUDUS
1856 1100438395 MURTININGSIH 02/03/1962 KUWIRAN 011 RT. 04/10 KAB. MAGELANG
1857 1100438399 ANUGRAH HADI NINGSIH 11/02/1998 DESA PURWOSARI RT.19/RW.04 KAB. KENDAL
1858 1100438400 NANIK HANDAYANI DWI KUSUMASTUTI 26/06/1975 JOHO WETAN RT. 01/02 KAB. SUKOHARJO
1859 1100438403 ARIFIN KASRI ABDUSSYAKUR 09/08/1980 KRIKILAN RT 007 RW 001 SUMBER KAB. REMBANG
1860 1100438405 BAMBANG BUDIHARSO 11/05/1972 JOHO WETAN RT. 01/02 KAB. SUKOHARJO
1861 1100438409 WAHYU HADI NINGRUM 25/10/1991 DESA PURWOSARI RT.19/RW.04 KAB. KENDAL
1862 1100438410 SUPARDI 24/12/1964 SENON RT 08 RW 03 KAB. PURBALINGGA
1863 1100438413 NOVITA HARDANI 05/11/1978 DEMO 02/11 KAB. MAGELANG
1864 1100438415 KAMSINAH 20/12/1958 CIBERUNG RT.01 RW.06 KAB. BANYUMAS
1865 1100438416 ELIS NONI 15/02/1963 BANYUTARUNG NO.413 RT02 RW07 KAB. TEMANGGUNG
1866 1100438419 NUR YASIN ABDILLAH 08/08/1968 KALIBEBER RT 03 RW 06 KAB. WONOSOBO
1867 1100438420 MUSLIH 17/12/1971 BANJARSARI RT. 3/1 KAB. BANYUMAS
1868 1100438421 SRI LESTARI 04/05/1972 BAKIKRAJAN RT.03/RW.01 KAB. SUKOHARJO
1869 1100438422 RACHMAD SURURI 06/11/1962 BANYUTARUNG NO.413 RT02 RW07 KAB. TEMANGGUNG
1870 1100438423 WARSIDI WAGIMAN DUMINI 01/01/1959 PEGANDAN 1/1 MARGOREJO KAB. PATI
1871 1100438424 SRI HARTATI 28/10/1958 PENUSUPAN RT.04/07 PANGKAH KAB. TEGAL
1872 1100438425 [Link] RUSPANDI 20/04/1960 TRIDI RT.06 RW.03 KAB. KENDAL
1873 1100438428 WAGINAH 02/08/1965 JL. SUMATRA NO. 10 RT. 01/06 KAB. SUKOHARJO
1874 1100438429 DRA. NADHIROTULLUBAB 08/06/1966 TRIDI RT.06 RW.03 KAB. KENDAL
1875 1100438431 SUCHEMI 15/12/1959 BULAKWARU RT.05/03 TARUB KAB. TEGAL
1876 1100438435 MAKMURI, [Link] 12/05/1966 PENUSUPAN RT.04/07 PANGKAH KAB. TEGAL
1877 1100438436 MUSRIKAH 27/11/1965 PERUM GADING MAS NO. 50-51 RT. 02/13 KAB. MAGELANG
1878 1100438437 MUBAROKAH 25/01/1965 CANGKRING RT 05 / RW 03 KAB. GROBOGAN
1879 1100438440 HERU HANDOYO 12/06/1966 MEDURO 02/05 KAB. MAGELANG
1880 1100438441 SRI RAHAYU 10/08/1961 KANDANGAN, RT.02/RW.07 KAB. TEMANGGUNG
1881 1100438443 WULAN KUSUMA ASRINI 18/11/1981 MEDURO RT. 02/05 KAB. MAGELANG
1882 1100438450 JUMANAH 15/09/1972 GEMBONGDADI RT.01/01 SURADADI KAB. TEGAL
1883 1100438451 YURIYAH 07/05/1968 JKL. SUMBAWA III RT.03/09 GEDANGANAK KAB. SEMARANG
1884 1100438455 ARIF YUNIANTO EKO NUGROHO 23/06/1971 MANGGISAN INDAH RT 03 RW 06 KAB. WONOSOBO
1885 1100438456 DYAH LESTARI 15/11/1958 KUTABANJARNEGARA RT 001 / RW 001 KAB. BANJARNEGARA
1886 1100438457 DYAH PUSPITORINI 20/05/1972 MANGGISAN INDAH M-5 RT.03 RW.06 KAB. WONOSOBO
1887 1100438460 PUJI ANUGROHO 27/10/1996 GEMBONGDADI RT 001 / RW 001 KAB. TEGAL
1888 1100438463 SRI SUPRI HARTINI 14/06/1967 REJOSARI 07/03 KAB. MAGELANG
1889 1100438464 IIN SUHERNI TASERI 15/07/1973 TULAKAN 07/01 KEC. DONOROJO KAB. JEPARA
1890 1100438466 SUBAGYO SIRIN PARTO 21/05/1966 TULAKAN 07/01 KEC. DONOROJO KAB. JEPARA
1891 1100438468 SUKARNO SULEMAN AMINAH 19/02/1960 BENDAR 2/1 JUWANA KAB. PATI
1892 1100438470 WAHAR 10/11/1963 SUNIARSIH RT.03/01 BOJONG KAB. TEGAL
1893 1100438471 SUMARNI 02/05/1958 KALIWINASUH RT 001 RW 007 KAB. BANJARNEGARA
1894 1100438472 ROPINGAH 23/07/1974 SINDURAJA RT 01 RW 08 KAB. PURBALINGGA
1895 1100438473 SUKENDRO 12/04/1970 SINDURAJA RT 01 RW 08 KAB. PURBALINGGA
1896 1100438474 HERU SANTOSA SUBANDI 26/10/1963 TULAKAN 07/01 KEC. DONOROJO KAB. JEPARA
1897 1100438475 NING AFIFAH SOBARI 23/07/1962 BESITO RT.04 RW.05 KAB. KUDUS
1898 1100438476 CHAYATUN BAKRUN KAMILAH 01/12/1970 BENDAR 2/1 JUWANA KAB. PATI
1899 1100438480 MUHAMMAD ABSORI 08/02/1964 LANGENHARJO RT.04/RW.04 KAB. KENDAL
1900 1100438481 SARWOKO RAHARJO 05/12/1957 BANCAR KEMBAR RT 01 RW 05 KAB. BANYUMAS
1901 1100438483 SRI WURYANINGSIH 24/06/1965 BANCARKEMBAR RT.01 RW.05 KAB. BANYUMAS
1902 1100438486 NURKOYAH 01/07/1963 DK. WANATAWANG RT. 01/06 YAMANSARI KAB. TEGAL
1903 1100438487 MAHUDI 01/01/1965 KALIBENDO LOR RT. 02/12 KAB. MAGELANG
1904 1100438488 KUSNAN 10/11/1958 NGADISARI, RT.06 RW.03 KAB. TEMANGGUNG
1905 1100438489 SOLEKHATUN 12/01/1970 LANGENHARJO RT.04/RW.04 KAB. KENDAL
1906 1100438491 MUNADI 15/04/1973 WATUJAYA RT.03/RW.01 TONJONG KAB. BREBES
1907 1100438494 ROHMAH FITRIANI 11/05/1980 JL. DR RAJIMAN NO 627 BRATAN RT.07 /06 KOTA SURAKARTA
1908 1100438496 SURADI 03/03/1961 SELIRAN RT. 02/05 KAB. SUKOHARJO
1909 1100438497 JASMIATI NASIBAN SURIP 21/04/1968 JATISARI 4/1 JAKENAN KAB. PATI
1910 1100438498 SUPARMI 14/07/1963 SELIRAN RT. 02/05 KAB. SUKOHARJO
1911 1100438499 SLAMET HIDAYAT 21/05/1965 PRUM GADING MAS PERMAI RT. 02/13 KAB. MAGELANG
1912 1100438504 KHOIR ANWAR 20/10/1967 DEMANGAN BARAT 04/02 KAB. MAGELANG
1913 1100438506 KARTINI 25/11/1963 SINGASARI RT 03 RW 09 KAB. BANYUMAS
1914 1100438507 MUHAMAD MURTADLO BUA 10/10/1979 SOJOMERTO LOR 01/02 KAB. MAGELANG
1915 1100438508 WIWIN JOKO PRASETYO 23/02/1974 DEMO 02/11 KAB. MAGELANG
NO NO. PORSI NAMA TANGGAL LAHIR ALAMAT KAB/KOTA KETERANGAN
1916 1100438511 JAMRONI 23/10/1965 REJOSARI 07/03 KAB. MAGELANG
1917 1100438513 SITI ZAENAB 06/05/1963 DUKUH TESEH 02/06 KAB. KLATEN
1918 1100438514 ISROIYAH 04/07/1979 SIDOMULYO 01/02 KAB. MAGELANG
1919 1100438518 TATIK BUDIANINGSIH 05/07/1963 GEMBONGAN 059 RT. 06/03 KAB. MAGELANG
1920 1100438519 ASMUI 04/07/1963 MENUR RT.01/02 KAB. DEMAK
1921 1100438521 NURUL HIDAYAH 14/04/1981 PETAMBAKAN RT 005 RW 001 KAB. BANJARNEGARA
1922 1100438522 MUHAMMAD IMAMUR ROZAQ 20/04/1978 PETAMBAKAN RT 005 RW 001 KAB. BANJARNEGARA
1923 1100438524 SURYATI 10/08/1966 BUMIJAWA RT. 09/01 KAB. TEGAL
1924 1100438525 MISKI MAWARDI 12/09/1962 BUMIJAWA RT. 09/01 KAB. TEGAL
1925 1100438526 HANUD SETYAWATI,DRA 17/09/1967 TRONO 12/05 KAB. KLATEN
1926 1100438530 SUDAMA,DRS 21/01/1962 TRONO 12/05 KAB. KLATEN
1927 1100438532 HIDAYAT SUHARTO 23/08/1967 CAWANGSARI RT. 03/03 KAB. MAGELANG
1928 1100438533 JAIS 31/12/1959 JIBEGAN RT.09 RW.05 KAB. WONOSOBO
1929 1100438534 HADI SUHARTO 02/09/1965 PERUM GONILAN ASRI I RT 03/10 KAB. SUKOHARJO
1930 1100438535 PARJAN 16/06/1966 BUTUH RT 31 KAB. SRAGEN
1931 1100438536 NURRAHMAH JULISTIANING 13/07/1969 PERUM GONILAN ASRI I RT 03/10 KAB. SUKOHARJO
1932 1100438538 MALIK HIDAYAT 04/05/1968 JL KEBONDANU RT02 RW07 KAB. CILACAP
1933 1100438539 PUJI HASTUTI 12/12/1967 KEBUTUH RT 02 RW 09 KAB. PURBALINGGA
1934 1100438540 NGAIDI 03/01/1965 KEBUTUH RT 02 RW 09 KAB. PURBALINGGA
1935 1100438541 NUR HIDAYATI 29/12/1979 JL KEBONDANU RT02 RW07 KAB. CILACAP
1936 1100438542 KUSDONO DARMOJO 27/06/1980 [Link] LAMA GG II /1515 RT. 02/05 KAB. BANYUMAS
1937 1100438543 TATIK ALWIYAH 09/10/1984 SEMAWUNG RT 03/17 KAB. MAGELANG
1938 1100438544 YETTI FARIDA 03/04/1971 KALIANGKRIK 02/03 KAB. MAGELANG
1939 1100438545 PURWANTI YUNIASIH 11/06/1979 [Link] LAMA [Link]/1515 RT. 2/5 KAB. BANYUMAS
1940 1100438547 SUPARTI 18/08/1958 GATAK RT. 02/03 KAB. MAGELANG
1941 1100438548 RUSMINI 20/12/1978 PENGKOK RT 11/07 KAB. SRAGEN
1942 1100438550 SUNARNO 18/07/1973 PENGKOK RT 11/07 KAB. SRAGEN
1943 1100438555 SAMISNO WIRYA SENTANA 17/04/1958 RT 03/01 GUNUNGMUJIL KUWARASAN KAB. KEBUMEN
1944 1100438559 WAGIYATI MEJAPAWIRA BUANG 07/01/1967 RT 03/01 GUNUNGMUJIL KUWARASAN KAB. KEBUMEN
1945 1100438560 DARTOMO MUNAWAN SALI 16/08/1958 GUNUNGMUJIL RT.01/03 KAB. KEBUMEN
1946 1100438563 ZAENAL ABIDIN 27/03/1970 REJASA RT.003/004 MADUKARA KAB. BANJARNEGARA
1947 1100438564 DARMI WIRYA SENTANA 06/12/1962 RT 01/03 GUNUNGMUJIL KUWARASAN KAB. KEBUMEN
1948 1100438565 SITI UMAENAH 26/06/1972 ADIWERNA RT. 20/05 KAB. TEGAL
1949 1100438566 [Link] 20/12/1966 TURUSAN 02/01 KAB. KLATEN
1950 1100438567 -SUKARTI MANGUNDIHARJO TAMAN 24/04/1964 GUNUNGMUJIL RT.03/01 KAB. KEBUMEN
1951 1100438569 SITI MUSLIKHATUN 09/09/1972 KEDEWAN RT.03 RW.01 KAB. WONOSOBO
1952 1100438570 RO'AL AMRIYAH 22/06/1969 TURUSAN 02/01 KAB. KLATEN
1953 1100438571 WASNADI 12/12/1958 JL. PURBOLINGGO RT. 05/05 KOTA TEGAL
1954 1100438572 KAMTO SPD 27/09/1962 NGEMBAT PADAS RT 08/01 KAB. SRAGEN
1955 1100438573 MACHFUD 26/02/1978 ADIKARSO RT.02/01 KAB. KEBUMEN
1956 1100438574 WAGITO SANROWI SANMOAWI 03/08/1966 RT 02/04 KUWARU KUWARASAN KAB. KEBUMEN
1957 1100438575 NGATINI 14/04/1962 NGEMBAT PADAS RT 08 KAB. SRAGEN
1958 1100438577 NURYANI 31/07/1964 MUDAL RT. 01/01 PURWOREJO KAB. PURWOREJO
1959 1100438579 WARSEHATI ARJOPAWIRO MADASMIN 15/02/1970 KUWARU RT.02/04 KAB. KEBUMEN
1960 1100438580 SARMINAH 24/10/1975 [Link] RT.04/01 KOTA SEMARANG
1961 1100438581 MASUDAH 09/03/1964 GALIH RT.02/RW.01 KAB. KENDAL
1962 1100438582 SUYANTO 14/03/1968 [Link] RT.04/01 KOTA SEMARANG
1963 1100438583 NUNIK SRI RAHAYU 26/12/1965 P. RADEN PATAH W/12 RT.08/04 KAB. DEMAK
1964 1100438584 AHMAD ROTIB 19/02/1972 KEDEWAN RT 03 RW 01 KAB. WONOSOBO
1965 1100438585 JASMAN 23/12/1960 MUDAL RT 01/01 KAB. PURWOREJO
1966 1100438586 BUDYASTUTI AGUSTIYANI 08/08/1970 PURI HUTAMA DANGURAN BLOK E13 RT 03/14 KAB. KLATEN
1967 1100438587 RATIYEM 01/12/1960 BARAHAN 02/02 KAB. GROBOGAN
1968 1100438588 ANIS SOFIYANI 18/12/1968 PURI HUTAMA BLOK M5 RT 02/14 KAB. KLATEN
1969 1100438590 MULYANA 05/07/1960 P. RADEN PATAH W/12 RT.08/04 KAB. DEMAK
1970 1100438592 YI'LAH 14/07/1969 KALIBEBER RT03 RW 06 KAB. WONOSOBO
1971 1100438593 CHIKMAH 14/06/1967 SIBRAMA RT 01 RW 06 KAB. BANYUMAS
1972 1100438595 RUSMIATI 17/02/1978 SIBRAMA RT. 2/4 KAB. BANYUMAS
1973 1100438596 ABDUL WAHAB HASBULLAH 23/03/1961 GLAGAH KULON RT.01 RW.04 KAB. KUDUS
1974 1100438597 ARIF EDI SUROSO 01/03/1967 GUNUNG TUGEL RT 13 RW 05 KAB. WONOSOBO
1975 1100438601 MUJAHIDIN 31/01/1986 DANASRI KIDUL RT02 RW01 KAB. CILACAP
1976 1100438602 FUAD FAOZI 08/09/1989 SIBRAMA RT. 2/4 KAB. BANYUMAS
1977 1100438605 SALAMAH 19/03/1975 GUNUNG TUGEL RT 013 RW 005 KAB. WONOSOBO
1978 1100438607 RUMIYATI 20/04/1964 TELUK RT.01/01 KAB. DEMAK
1979 1100438608 NGATIRAH MARGINI KARSAN 10/07/1960 TROSO 05/03 KAB. JEPARA
1980 1100438611 KHOLIMAH 11/01/1964 GUNUNG TUGEL RT 014 RW 005 KAB. WONOSOBO
1981 1100438615 BARMIATI RISUDI WARJO 12/11/1971 NGABUL 04/02 KAB. JEPARA
1982 1100438616 TEGUH SISWO SUDARNO 05/07/1963 NGABUL 04/02 KAB. JEPARA
1983 1100438619 SULIMAN 02/03/1964 TELUK RT.01/01 KAB. DEMAK
1984 1100438622 KASWADI 10/05/1975 NGANJIR 03/07 KAB. GROBOGAN
1985 1100438624 SUKO ENDAH NUR LESTARI 07/02/1975 DAREN 04/01 KAB. JEPARA
1986 1100438625 SUMANTO 18/03/1962 KEMIRI TIMUR [Link] RT.02 RW.02 KAB. BATANG
1987 1100438627 SUMARLIYAH 01/04/1965 KEMIRI TIMUR [Link] RT.02 RW.02 KAB. BATANG
1988 1100438629 SUNTI WASIDIN SARPI 14/01/1972 BAJOMULYO 4/4 JUWANA KAB. PATI
1989 1100438630 FATANAH 26/12/1967 KALANGSONO [Link] RT.03 RW.06 KAB. BATANG
1990 1100438631 PARJIYAH 31/12/1959 WANUTUNGGAL 02/01 KAB. GROBOGAN
1991 1100438632 KUNIPAH AHMADI MARTAWI 04/09/1963 PEGANJARAN RT.07 RW.03 KAB. KUDUS
1992 1100438636 MUNJAIDAH SARTO SURINI 08/06/1970 TAMBAHMULYO 4/4 JAKENAN KAB. PATI
1993 1100438637 MOHAMMAD MASYKURI 26/04/1970 CALUK 03/09 KAB. GROBOGAN
1994 1100438638 RAMELAN SIDIK NGARIJAN 16/03/1973 GARUNGLOR RT.03 RW.02 KAB. KUDUS
1995 1100438640 SUDARSO BRAHIM SUDARMI 09/12/1965 BAJOMULYO 1/4 JUWANA KAB. PATI
1996 1100438642 SAPTO BUDHI SETIJONO 17/11/1967 JL. SRI DADI I NO.12A RT 01 RW 04 KAB. BANYUMAS
1997 1100438645 RESTU PUJI ASTUTI 10/03/1975 [Link] I NO.12 A RT.1/4 KARKLES KAB. BANYUMAS
1998 1100438646 NUR ROCHMAH REPAN 17/09/1971 BAJOMULYO 1/4 JUWANA KAB. PATI
1999 1100438648 DASRI 03/12/1961 KEJENE RT.44 RW.04 KAB. PEMALANG
2000 1100438649 SULAWI REPAN SAWILAH 01/07/1965 BAJOMULYO 4/4 JUWANA KAB. PATI
2001 1100438652 SURIP MUJININGSIH 09/05/1966 PRAJURITAN ATAS RT.02 RW.09 KAB. WONOSOBO
2002 1100438653 KHANIFAH ANWAR DANANG 16/12/1974 GARUNG LOR RT.03 RW.02 KAB. KUDUS
2003 1100438656 JIMIN SADIMIN SIDIN 21/01/1967 BANYUDONO RT 003 RW 001 KALIORI KAB. REMBANG
2004 1100438657 RIFNGATI DUL JALIL SAN WAHID 06/04/1974 KLOPOGODO RT.03/05 KAB. KEBUMEN
2005 1100438658 SUYONO 16/09/1972 KALICARI TIMUR II/15 RT.05/09 KOTA SEMARANG
2006 1100438660 SOKHIBATUN 31/12/1965 BRUNOREJO RT 01/09 KAB. PURWOREJO
2007 1100438661 SRI MOELYANI 11/12/1972 KALICARI TIMUR II/15 RT.05/09 KOTA SEMARANG
2008 1100438663 PUJI HANDOKO MUCHLISIN 21/08/1972 KLOPOGODO RT.03/05 KAB. KEBUMEN
2009 1100438665 SRI NGATINI 04/09/1957 SARIASIH RT 04 RW 01 KAB. BOYOLALI
2010 1100438667 KUSMANTO SUKARMAN SUMINI 16/06/1968 SEMPAPAN 1/2 TRANGKIL KAB. PATI
2011 1100438669 KHOIRUL ANWAR 25/11/1975 BRANGKAL RT 01 RW 02 KAB. KARANGANYAR
2012 1100438670 MUHRONDHI ABDUL GHONI 14/12/1968 MENUR RT.13/02 KAB. DEMAK
2013 1100438671 KRISWATI 25/12/1971 MENUR RT.13/02 KAB. DEMAK
2014 1100438672 SRI SUNDARI 14/02/1978 BRANGKAL RT 01 RW 02 KAB. KARANGANYAR
2015 1100438673 RIRIN HARDYATI 03/12/1963 KRANDEGAN RT 002 RW 008 KAB. BANJARNEGARA
2016 1100438674 ALVY CHASANAH SUPARNO 03/03/1987 ASEMPAPAN 1/2 TRANGKIL KAB. PATI
2017 1100438678 EKA SUSANTI 02/09/1970 REJOSARI RT.05/06 KAB. DEMAK
2018 1100438679 SUNGKOWO 16/12/1970 REJOSARI RT.05/06 KAB. DEMAK
2019 1100438680 SURATMIYATUN 27/02/1971 DESA SIDAURIP RT05 RW02 KAB. CILACAP
2020 1100438681 AZIZAH MUCHAMAD MASKUN 20/05/1972 SROBYONG 04/03 KAB. JEPARA
2021 1100438682 SAPTARINI HANDAYANI 09/12/1971 MANGKUBUMEN RT 05 RW 03 KAB. BOYOLALI
2022 1100438684 SHOFIYAH SARIYADI SAWIJAN 15/06/1964 SROBYONG 04/03 KAB. JEPARA
2023 1100438685 ALI SHODIQIN SUKARNO 28/05/1971 SROBYONG 04/03 KAB. JEPARA
2024 1100438686 SYA'RONI 10/10/1960 MLATEN RT.06/01 KAB. DEMAK
2025 1100438688 SUFIAH JASIRIN SUNGKONO 16/01/1959 BAKALAN RT.006/001 [Link] KAB. JEPARA
2026 1100438689 NUR SAIDAH 14/04/1967 MLATEN RT.06/01 KAB. DEMAK
2027 1100438690 KHOTIMATUS SA'ADAH SUHALI 20/09/1985 JEPAT LOR 5/3 TAYU KAB. PATI
2028 1100438691 SUYUTI SALIM SUYUTI 12/08/1980 JEPAT LOR 5/3 TAYU KAB. PATI
2029 1100438692 LILIK IRAWATI 07/12/1962 KEJI RT.06/0 UNGARAN BARAT KAB. SEMARANG
2030 1100438693 JUMIRAH 17/12/1961 JL. SAWUNGGALIH NO. 68 RT. 01/05 KAB. PURWOREJO
2031 1100438694 SLAMET SUNARTO 03/03/1964 DESA SIDAURIP RT05 RW02 KAB. CILACAP
2032 1100438696 SRI HUNING ANWARININGSIH 17/06/1979 GG. SAWO 2 NO.10 RT. 01 RW.04 KOTA SURAKARTA
2033 1100438697 EDY PURWANTO 13/03/1979 GG. SAWO 2 NO. 10 RT.01 RW.04 KOTA SURAKARTA
2034 1100438698 WAGISAN 31/12/1957 DLANGU RT 01/05 KAB. PURWOREJO
2035 1100438699 RIADHATUN 30/04/1963 KEMBANGARUM RT.06/03 KAB. DEMAK
2036 1100438700 IMAM MUHADI 04/03/1963 KEMBANGARUM RT.06/03 KAB. DEMAK
2037 1100438702 SUWARNI 11/07/1957 BLAGUNGREJO RT 14 KAB. SRAGEN
2038 1100438704 SOLEH MUSLIM KASMONO 06/09/1964 SARIPAN 04/06 KAB. JEPARA
2039 1100438705 SUPARNI MUH KASTURI 01/12/1958 BANGSRI 003/012 KAB. JEPARA
2040 1100438706 ENDANG YUNI WIJI LESTARI 15/06/1963 BANJARKERTO RT 03/02 KAB. BLORA
2041 1100438707 ENDANG SUJIATI RASMAN 11/10/1971 SARIPAN 04/06 KAB. JEPARA
2042 1100438709 SURIDAH SUMARLAN RAMELAN 03/03/1965 BANGSRI 03/12 KAB. JEPARA
2043 1100438710 ENDANG NUR WIDIYANINGSIH 29/08/1974 WIROREJAN RT.04/RW.08 KAB. SUKOHARJO
NO NO. PORSI NAMA TANGGAL LAHIR ALAMAT KAB/KOTA KETERANGAN
2044 1100438711 CHAJAB 15/12/1963 PEKASIRAN RT 003 RW 003 KAB. BANJARNEGARA
2045 1100438712 SULISTYOWATI 29/10/1977 SUKORUKUN RT.04 RW.01 JAKEN KAB. SUKOHARJO
2046 1100438713 SUKINI 30/03/1970 PEKASIRAN RT 003 RW 003 KAB. BANJARNEGARA
2047 1100438714 DURYAT 06/06/1966 DUSUN BAYONG RT.02/RW.04 KAB. KENDAL
2048 1100438715 WIDO 08/04/1962 MANGKUBUMEN RT 05 RW 03 KAB. BOYOLALI
2049 1100438716 PONIYEM 06/06/1962 KP.. UJUNG LAUT RT.08/01 KOTA SEMARANG
2050 1100438717 SUPRAPTO 22/06/1973 WIROREJAN RT.04/RW.08 KAB. SUKOHARJO
2051 1100438719 ARIS SETIAWAN 28/12/1992 DEBONG KIDUL RT.01 RW.02 KOTA TEGAL
2052 1100438721 NOOR FARDIANTO 14/06/1982 [Link] NO.T.17 RT.09/02 KOTA SEMARANG
2053 1100438722 DARMUN 10/08/1972 PAGEJUGAN RT 003 / RW 003 KAB. BREBES
2054 1100438723 CHOMISAH ISTIYANAH 06/05/1984 PERUM PALM INDAH NO. 14 RT.04/07 PGY KAB. BREBES
2055 1100438726 MUCHALANAH 31/12/1964 SURADADI RT.02/01 KAB. TEGAL
2056 1100438727 SUMARTI SARIYONO KARTO 01/07/1958 TELUK WETAN 014/002 KAB. JEPARA
2057 1100438729 SAENAH 29/03/1960 LANGGAR RT 02 RW 03 KAB. PURBALINGGA
2058 1100438731 SELAMET UTOMO SUPARDI 12/10/1970 ROBAYAN 05/01 KEC. KALINYAMATAN KAB. JEPARA
2059 1100438732 HERI SUPRIYANTO, [Link] 27/03/1975 TIRTOYOSO VI/10-B RT.02/12 KOTA SEMARANG
2060 1100438733 AS'ARI 31/12/1959 SURADADI RT.02/01 KAB. TEGAL
2061 1100438734 MUNAYIROH NURHAN SUHARDI 24/11/1975 ROBAYAN 05/01 KEC. KALINYAMATAN KAB. JEPARA
2062 1100438735 SUMARNI 31/12/1957 DUSUN KUBANGKANGKUNG LOR RT06 RW05 KAB. CILACAP
2063 1100438736 KUSNIMAH 02/08/1972 DEBONG KIDUL RT.01 RW.02 KOTA TEGAL
2064 1100438738 TOIPAH 25/11/1959 KARANGMALANG RT.01/02 KETANGGUNGAN KAB. BREBES
2065 1100438742 NURUL FITRIYAH 04/10/1975 PANDAN SARI RT.06 RW.03 KAB. WONOSOBO
2066 1100438744 SOBIAH 07/03/1974 KARANG ANYAR RT03 RW02 KAB. CILACAP
2067 1100438745 PARYATI 17/01/1978 CANGKRING RT 02 RW 05 KAB. WONOSOBO
2068 1100438748 SAMIJEM 11/04/1963 KARANG ANYAR RT03 RW02 KAB. CILACAP
2069 1100438749 SUWARNO 19/03/1966 PANDANSARI RT 06 RW 03 KAB. WONOSOBO
2070 1100438752 SLAMET MUCHTAR 17/01/1960 KEBONHARJO RT.02/02 KOTA SEMARANG
2071 1100438754 JUMIYATUN 29/06/1968 KEBONHARJO RT.02/02 KOTA SEMARANG
2072 1100438756 SITI SALAMAH 28/08/1974 JL MT HARYONO 110 RT01 RW04 KAB. CILACAP
2073 1100438758 HALIMAH SULAIMAN DJAPAR 25/08/1958 TAMANWINANGUNRT.03/10 KAB. KEBUMEN
2074 1100438759 JUMADI, SPD, MPD 20/01/1961 SAPTA PRASETYA UTR1/23 RT.01/03 KOTA SEMARANG
2075 1100438760 TAUFIK AL HIDAYAH 07/10/1979 JL MT HARYONO RT01 RW04 KAB. CILACAP
2076 1100438763 KUSMIYATI SURAT KARTIK 15/07/1976 BENDAR 1/1 JUWANA KAB. PATI
2077 1100438764 YARJU JASMAN SAMI 26/06/1977 BENDAR 1/1 JUWANA KAB. PATI
2078 1100438766 MUHAIMIN 05/06/1977 BAKUNG RT.01/04 KAB. DEMAK
2079 1100438768 TRI ASMIATI 10/04/1965 WIRASANA RT 06 RW 02 KAB. PURBALINGGA
2080 1100438770 SUTINAH 12/02/1981 BAKUNG RT.01/04 KAB. DEMAK
2081 1100438771 ARNAN HARYONO 05/05/1960 DUSUN BULUPAYUNG RT03 RW03 KAB. CILACAP
2082 1100438772 ENTI 11/03/1964 DUSUN BULUPAYUNG RT03 RW03 KAB. CILACAP
2083 1100438773 MUZAZIN 03/05/1977 BUMIHARJO RT.04/01 KAB. DEMAK
2084 1100438774 ASMIRAH KASNO KASIM 28/08/1958 PENGKOL RT.003/003 KAB. JEPARA
2085 1100438775 KUSNEDI 23/04/1968 GEMURUH RT 002 RW 010 KAB. BANJARNEGARA
2086 1100438776 SRIYATI 08/12/1963 GEMAMPANG RT.02 RW.01 KAB. MAGELANG
2087 1100438777 MALATI NURFADANI 09/10/1977 RAMBEANAK 3 . 05/05 KAB. MAGELANG
2088 1100438778 AHMAD SODIKUN 02/04/1974 RAMBEANAK 3 RT. 05/05 KAB. MAGELANG
2089 1100438779 SAONAH SAN MUHAWI 27/10/1966 BUMIREJO RT. 02. 04 KAB. KEBUMEN
2090 1100438782 MUH NURROHMAN SIDDIK 17/10/1959 BUMIREJO RT.02/04 KAB. KEBUMEN
2091 1100438784 WIJIATI DULLAH MAHMUD 11/03/1962 KARANGSARI RT. 05. 02 KAB. KEBUMEN
2092 1100438789 SUYATMI DULAH MAHMUD 22/08/1957 TRIKARSO RT. 02. 03 KAB. KEBUMEN
2093 1100438793 SITI AMINAH PARDI 10/10/1966 MOJO 1/8 CLUWAK KAB. PATI
2094 1100438795 SARBANI MATARI SRIPAH 07/10/1963 SIRAHAN 13/06 CLUWAK KAB. PATI
2095 1100438797 SUPARJO ASTRONGAS NGASINI 01/07/1963 MOJO 01/08 CLUWAK KAB. PATI
2096 1100438799 SUYATMI PRAWIRO WAGIYO 13/02/1967 SIRAHAN 13/06 CLUWAK KAB. PATI
2097 1100438802 SITI NUR LAILA. [Link] 05/06/1977 BADRANASRI RT 03 RW 12 KAB. KARANGANYAR
2098 1100438805 JANATIN AL FATAH 11/02/1976 SIKUNANG RT 04 RW 02 KAB. WONOSOBO
2099 1100438806 KARIM 10/12/1974 JL. MEKARSARI IV B 06/04 KAB. GROBOGAN
2100 1100438807 ALIFAH ROBIYATUN 28/04/1978 JL. MEKARSARI IV B 06/04 KAB. GROBOGAN
2101 1100438808 TUNARDI 11/11/1966 WEDUNG RT.05/02 KAB. DEMAK
2102 1100438809 MUSLIHAH 12/04/1970 WEDUNG RT.05/02 KAB. DEMAK
2103 1100438810 SUPARNO 06/08/1960 TARUPOLO RT 8 RW 10 KOTA SEMARANG
2104 1100438812 IRFAN ZAKI IRAWAN 09/11/1999 JL. MAYOR SUNARYO NO 32 RT. 04/02 KAB. SUKOHARJO
2105 1100438813 WISNU DEWANTORO 06/10/1971 JL. MAYOR SUNARYO NO. 32 RT.04/02 KAB. SUKOHARJO
2106 1100438814 IZZA MAFRUHAH 23/03/1972 JL. MAYOR SUNARYO NO.32 RT.04/02 KAB. SUKOHARJO
2107 1100438815 SITI MUHAYAROH 18/07/1982 CALUK 03/09 KAB. GROBOGAN
2108 1100438816 ENNY HARWATI 29/05/1961 JETIS KAB. SUKOHARJO
2109 1100438817 NURHADI 12/04/1976 KARANGJATI 06/06 KAB. GROBOGAN
2110 1100438819 AGUS WIJATMOKO SUJARWO 26/06/1971 JL. ARGOMAS BARAT III/428 RT 01 RW 13 KOTA SALATIGA
2111 1100438820 SITI MUKAROMAH 05/09/1981 KARANGJATI 06/06 KAB. GROBOGAN
2112 1100438821 NUR HASANAH 04/05/1977 KARANGJATI 08/06 KAB. GROBOGAN
2113 1100438822 AJI PURWINARKO 10/09/1985 KRAJAN RT 03/RW 02 NGARINGAN GROBOGAN KAB. GROBOGAN
2114 1100438823 WIWIK SUSILOWATI 16/08/1965 KRAJAN 03/02 KAB. GROBOGAN
2115 1100438824 LISTARINI 01/03/1966 KACANGAN LOR RT.03/RW.04 KAB. KENDAL
2116 1100438825 MUSTAJI 10/11/1962 KACANGAN LOR RT.03/RW.04 KAB. KENDAL
2117 1100438826 SITI KHOERIYAH 06/07/1960 TEGALARUM RT.02/02 KAB. DEMAK
2118 1100438827 KHOERUN NISA AGUSTINA 24/08/1983 TUWEL RT. 03/01 BOJONG KAB. TEGAL
2119 1100438832 AKHMAD SLAMET 15/10/1965 SUKODONO RT.01/10 KEBUMEN BANYUBIRU KAB. SEMARANG
2120 1100438834 YAMAS HARI 12/12/1965 TAWANGSARI RT.04/06 KLEPU PRINGAPUS KAB. SEMARANG
2121 1100438836 NURSIHATI 01/05/1971 TAWANGSARI RT.04/06 KLEPU PRINGAPUS KAB. SEMARANG
2122 1100438837 NURHAYATI MOERKI KUSMINI 01/08/1958 WINONG 20/1 PATI KAB. PATI
2123 1100438838 MASFUROH MISFAH 15/12/1971 PERUM ASSALAM RT.03/RW.05 KAB. SUKOHARJO
2124 1100438839 SITI ROCHMAH UMAR MUSTOFA 25/04/1960 MENAWAN RT.02 RW.05 KAB. KUDUS
2125 1100438840 ACHMADI 01/01/1960 KEBONGAWE RT.01 RW.05 KAB. SEMARANG
2126 1100438841 MIATUN MUNIJAN RUSMI 12/09/1972 ROGOMULYO 3/3 KAYEN KAB. PATI
2127 1100438842 LOSO MUKSAN SIRAH 19/08/1968 ROGOMULYO 3/3 KAYEN KAB. PATI
2128 1100438845 NGADIYAH 30/12/1965 KEBONWAGE RT.01 RW.05 KAB. SEMARANG
2129 1100438847 CHOLID ULYA ALI MUKTI 24/04/1978 DK KAMBANGAN RT 02 RW 05 KAB. KUDUS
2130 1100438849 WARSIYATI 13/10/1965 DSN. KRAJAN RT.02 RW.01 KAB. SEMARANG
2131 1100438851 KHUZAIMAH MUCH THOYIB 31/12/1964 CANDIWESI RT 01 RW 04 KOTA SALATIGA
2132 1100438852 AZZANIROH 11/03/1974 PODOREJO RT.02/05 KOTA SEMARANG
2133 1100438853 HASYIM 11/02/1965 PODOREJO RT.02/05 KOTA SEMARANG
2134 1100438854 MUHLASIN YASIR NUR 13/03/1959 CANDIWESI RT 01 RW 04 KOTA SALATIGA
2135 1100438857 MUHAEMIN 17/09/1962 KALILANGKAP RT.03/RW.01 BUMIAYU KAB. BREBES
2136 1100438858 CHASANAH 11/11/1963 KALILANGKAP RT.03/RW.01 BUMIAYU KAB. BREBES
2137 1100438860 EDY WARDOYO 16/05/1961 KLAPAGADING KULON RT. 3/4 KAB. BANYUMAS
2138 1100438861 MASRURIYAH 19/01/1966 GAMBARSARI RT. 2/4 KAB. BANYUMAS
2139 1100438863 SITI KHANIFAH 09/01/1969 KLAMPOK RT.12/04 WANASARI KAB. BREBES
2140 1100438864 AGUS WAHID 30/11/1968 KLAMPOK RT.12/04 WANASARI KAB. BREBES
2141 1100438865 NGADINO 28/04/1960 KENTINGAN LOR RT 05 RW 06 KAB. BOYOLALI
2142 1100438866 SARMINI 10/06/1962 KENTINGAN LOR RT 05 RW 06 KAB. BOYOLALI
2143 1100438869 MARSI 31/12/1961 DEMANGAN RT 18 KAB. SRAGEN
2144 1100438870 AKHMAD SUTRISNO SARMENI 25/10/1969 PRAMBATAN LOR RT.01 RW.02 KAB. KUDUS
2145 1100438871 KHAMAMI 01/01/1972 BUKIT SIDODADI PERMAI RT.03/03 KOTA SEMARANG
2146 1100438872 RETNO WIDANARNI, SPD 01/02/1974 BUKIT SIDODADI PERMAI RT.03/03 KOTA SEMARANG
2147 1100438873 HADI SUPARNO 14/08/1960 KRIOYO RT 16 KAB. SRAGEN
2148 1100438874 SRI KUSWANTINI 31/07/1960 KP BHAYANGKARA RT 03 RW 15 KAB. BOYOLALI
2149 1100438875 SUNARNI 16/03/1966 KROYO RT 16 KAB. SRAGEN
2150 1100438879 SITI NURJANNAH 27/09/1977 JL RAYA PADANGJAYA 28 RT01 RW11 KAB. CILACAP
2151 1100438880 ABDUL CHOLIQ 28/10/1969 JL RAYA PADANGJAYA 28 RT01 RW11 KAB. CILACAP
2152 1100438883 SRI SUHARTIN MOCH SA'IDUN 12/05/1958 JEKULO RT 02 RW 01 KAB. KUDUS
2153 1100438885 WARNITO 12/09/1962 SIDAKATON RT.05/01 DUKUHTURI KAB. TEGAL
2154 1100438886 TURIYAH 11/10/1975 SIDAKATON RT.05/01 DUKUHTURI KAB. TEGAL
2155 1100438888 SUKIYEM 28/04/1965 WIROREJAN RT 02 RW 03 KAB. KARANGANYAR
2156 1100438889 RIMA YULIANTI 01/07/1980 KEDUNGWULUH LOR RT. 4/1 KAB. BANYUMAS
2157 1100438891 SISMANAN 11/03/1976 KEDUNGWULUH LOR RT.04 RW.01 KAB. BANYUMAS
2158 1100438892 HERI SETIAWAN 24/04/1971 PONDOK ASRI 2 [Link] NO.B2RT.31/14 KAB. MAGELANG
2159 1100438901 NUZULUL AHID SUTARDI 24/01/1973 DAREN 04/01 KAB. JEPARA
2160 1100438902 RODHIYAH 03/02/1971 KENDALSARI RT.02 RW.01 KAB. PEMALANG
2161 1100438903 KUSMORO 30/12/1963 KENDALSARI RT.02 RW.01 KAB. PEMALANG
2162 1100438904 SUHARI 18/03/1960 KEBONAGUNG RT 07 KAB. SRAGEN
2163 1100438905 DWI WAHYU INDRIYATI 23/10/1962 GENENG 11/02 KAB. JEPARA
2164 1100438906 NANGIMAH 14/11/1965 KEBONAGUNG RT 07 KAB. SRAGEN
2165 1100438907 ASHARI ABDUL GHONI 10/03/1962 GENENG 11/02 KAB. JEPARA
2166 1100438910 SRI YANTI 02/10/1962 PARAKANCANGGAH RT 001 RW 007 KAB. BANJARNEGARA
2167 1100438911 SRI RAHAYU 12/07/1959 SIDOMULYO RT.02/RW.03 KAB. SUKOHARJO
2168 1100438912 MUSTHOFIYAH 31/12/1967 GAJI RT.05/01 KAB. DEMAK
2169 1100438914 MUHAMAD MUNADI 20/03/1959 GAJI RT.05/01 KAB. DEMAK
2170 1100438915 SAWINI MITRO GEMBEL 01/07/1957 MOJO 02/05 CLUWAK KAB. PATI
2171 1100438916 SUJARI 10/10/1967 KEMBANGARUM RT.09/05 KAB. DEMAK
NO NO. PORSI NAMA TANGGAL LAHIR ALAMAT KAB/KOTA KETERANGAN
2172 1100438918 WALUYO 07/12/1975 KARANGPILANG RT 05 RW 01 KAB. BOYOLALI
2173 1100438919 SUPONO 03/02/1958 JL. PERINTIS NO. 10 RT. 05 RW. 01 KAB. CILACAP
2174 1100438920 SITI KHOIRIYAH 15/12/1972 KEMBANGARUM RT.04/05 KAB. DEMAK
2175 1100438923 WARSITI 04/06/1982 KARANGPILANG RT 05 RW 01 KAB. BOYOLALI
2176 1100438924 AGUS FITRIANTO 17/08/1980 JL KENDENG RT11 RW06 KAB. CILACAP
2177 1100438925 SUMINAH 19/02/1962 SIDOHARJO RT 08 RW 01 KAB. BOYOLALI
2178 1100438928 HARIS FUADI 01/01/1974 [Link] NO.2 PEKUNDEN RT.3/2 KAB. BANYUMAS
2179 1100438929 KUNARSO YUGO SAPUTRO 09/08/1958 KARANGCEGAK RT 004 RW 002 KAB. BANYUMAS
2180 1100438931 RATNA SUTISAH 11/12/1964 JL PERINTIS RT05 RW01 KAB. CILACAP
2181 1100438933 AKHMAD SOFI 06/07/1977 PERUM PALM INDAH NO.14 RT.03/07 PGY KAB. BREBES
2182 1100438934 ABDURROHMAN 27/09/1977 DESA PANJUNAN RT.012/002 PANJUNAN PETARUKAN
KAB. PEMALANG
2183 1100438935 ENDAH FATWANINGRUM 25/08/1961 KARANGCEGAK RT.04 RW.02 KAB. BANYUMAS
2184 1100438937 PONIRAN AMAD KASMIN 05/10/1957 KABONGAN KIDUL RT 005 RW 004 REMBANG KAB. REMBANG
2185 1100438940 SURANTO 05/05/1981 NGADISARI RT 01 RW 07 KAB. WONOSOBO
2186 1100438942 SITI ZUHAROH AHMAD ABDULLAH 07/09/1960 KABONGAN KIDUL RT 005 RW 004 REMBANG KAB. REMBANG
2187 1100438943 SOLEKHAH 28/07/1965 DSN. CLAPAR 08/05 KAB. MAGELANG
2188 1100438944 IBRAHIM HABIBI 28/02/1996 NGADISARI RT 01 RW 07 WONOSOBO KAB. WONOSOBO
2189 1100438945 MUHADI WIRYO UTOMO 17/03/1960 BUMIREJO RT. 01 . 05 KAB. KEBUMEN
2190 1100438946 DIDIK DWI HINDJAYANTO 14/09/1965 JL. KAPT. ISMAIL , DK KROBOKAN NO. 19 KOTA TEGAL
2191 1100438947 NASIPAH PASNO SUMARNI 21/08/1961 TAYU WETAN 06/01 TAYU KAB. PATI
2192 1100438949 NUR LAILA MOLLA 02/11/1965 JL. KAPT. ISMAIL, DK KROBOKAN NO. 19 KOTA TEGAL
2193 1100438950 MAD ROFIK 20/07/1985 SIGEDANG RT 02 RW 01 KAB. WONOSOBO
2194 1100438952 SIDIQ PURNOMO ASFRI 22/04/1985 JL. KENDENG NO. 257 B RT. 03 RW. 14 KAB. CILACAP
2195 1100438953 TUNING MARTANI TUBIN 28/01/1967 ARGOPENI RT. 03. 02 KAB. KEBUMEN
2196 1100438954 NUR HIDAYATI 27/09/1991 SIGEDANG RT 02 RW 01 KAB. WONOSOBO
2197 1100438955 SURATMAN 03/07/1958 CLAPAR 08/05 KAB. MAGELANG
2198 1100438956 ABDUL GHONI 17/01/1975 JL. WATES 15 RT. 01/01 KOTA TEGAL
2199 1100438957 SILVIANTI HAPSARI 10/05/1982 JL. KENDENG NO. 257 B RT. 03 RW. 14 KAB. CILACAP
2200 1100438959 NURSETYOWATI 27/04/1978 JL. WATES NO. 15 RT. 01/01 KOTA TEGAL
2201 1100438960 ODI SODUWUH COKRO DIMEJO 04/02/1960 ARGOPENI RT. 03. 02 KAB. KEBUMEN
2202 1100438964 ABDUL AZIS 31/12/1963 KRAJAN 05/01 KAB. GROBOGAN
2203 1100438965 MATREJO 31/12/1958 SAWUNG 03/02 KAB. GROBOGAN
2204 1100438967 SRI WAHYUNI 31/12/1962 NGLARANGAN, RT.01/RW.03 KAB. TEMANGGUNG
2205 1100438968 KHOLIMAH 06/01/1969 DUSUN SIBENTEK RT 02 RW 07 KAB. WONOSOBO
2206 1100438969 WARTINI 14/07/1966 KRAJAN 05/01 KAB. GROBOGAN
2207 1100438970 SUPARTO 10/01/1977 MREBET RT 01 RW 01 KAB. PURBALINGGA
2208 1100438972 MULYADI 03/02/1966 GUNUNG JATI UTR 1/133 KOTA SEMARANG
2209 1100438973 LILIK SUHERU 03/04/1968 KRAJAN RT 002 / RW 001 KAB. TEMANGGUNG
2210 1100438974 WARYATI 19/06/1974 MREBET RT 01 RW 01 KAB. PURBALINGGA
2211 1100438975 TASRIPAH 31/12/1963 SAWUNG 03/02 KAB. GROBOGAN
2212 1100438978 MELODY ARIA PUTRI 18/05/2001 JL TIRTOYOSO VI NO. 10B RT.02/12 KOTA SEMARANG
2213 1100438981 SITI ZUHDIYAH 31/05/1967 GUNUNGJATI UTR1/33 RT.11/02 KOTA SEMARANG
2214 1100438983 MIA MELATI,[Link] 05/06/1976 TIRTOYOSO VI/10 B RT.02/12 KOTA SEMARANG
2215 1100438985 MINDARTI 07/03/1965 JL MADUKARA RT04 RW03 KAB. CILACAP
2216 1100438986 KARMINTO 14/02/1962 TRAJU, RT.03/RW.04 KAB. TEMANGGUNG
2217 1100438987 MARMIN 26/10/1962 SAMPONSARI, RT.07/RW.04 KAB. TEMANGGUNG
2218 1100438988 SITI NUR HASANAH 24/05/1959 PURI UTARA I.A RT.03/29 KEDUNGWUNI KAB. PEKALONGAN
2219 1100438989 MULYATI 02/04/1963 MENAWAN 03/02 KAB. GROBOGAN
2220 1100438990 SUDIRMAN 05/08/1971 [Link] TANJUNG RT. 1/2 KAB. BANYUMAS
2221 1100438991 RUSDAN 06/03/1962 DSN. DESO RT.01 RW.03 JETIS KAB. SEMARANG
2222 1100438992 SUKIMAN 05/10/1958 BANTARWARU RT 003 RW 005 KAB. BANJARNEGARA
2223 1100438993 SRI FITRI ANINGSIH 09/09/1985 GRINTING RT.03/01 BULAKAMBA KAB. BREBES
2224 1100438994 SUTAMI 19/03/1965 KACANGAN LOR RT.05/RW.04 KAB. KENDAL
2225 1100438995 DARTI ATIN TASMUN 17/03/1978 KARANGANYAR RT 002 RW 003 KRAGAN KAB. REMBANG
2226 1100438996 FANDI SUKARJO 03/07/1981 GRINTING RT.03/01 BULAKAMBA KAB. BREBES
2227 1100438997 SUDI MAENI ROCHMAD 18/05/1963 DUKUHSETI 02/04 DUKUHSETI KAB. PATI
2228 1100438999 AHMAD TOHIR 07/10/1970 JL SEMAWUR RT 02 RW 04 KAB. BLORA
2229 1100439000 MA'MUN 27/01/1967 DK. TIPAR RT.09/02 PAGUYANGAN KAB. BREBES
2230 1100439001 MOCHAMAD MUCHLIS M. SABAR 27/01/1972 KARANGANYAR RT 002 RW 003 KRAGAN KAB. REMBANG
2231 1100439003 KHOLIPAH 07/07/1964 WANATIRTA RT.09/02 PAGUYANGAN KAB. BREBES
2232 1100439004 ABADI DULHADI DULAH MUKSAN 20/05/1962 LOGEDE RT.02/03 KAB. KEBUMEN
2233 1100439007 SUDIR 02/11/1966 KACANGAN LOR RT.05/RW.04 KAB. KENDAL
2234 1100439008 SITI FATIMAH 24/08/1983 DK. PENISIHAN RT.09/02 PAGUYANGAN KAB. BREBES
2235 1100439009 SARINGAH SOLEMAN MAD BARDI 25/04/1962 LOGEDE RT.02/03 KAB. KEBUMEN
2236 1100439010 DARONI 10/12/1958 KARANGGAWANG 03/07 KAB. MAGELANG
2237 1100439013 RATIM SARTOMI 01/07/1961 KEBONDALEM RT 002/002 KAB. BANJARNEGARA
2238 1100439014 ABDUL KHOLIK 16/02/1968 MOJOKARANG KULON RT.28/08 KALIMOJOSARI KAB. PEKALONGAN
2239 1100439015 LULUK MUSYARROFAH MUHTAR 01/09/1971 DUKUHSETI 02/04 DUKUHSETI KAB. PATI
2240 1100439017 NAELI HIKMAH 09/07/1970 MOJOKARANG KULON RT.28/08 KALIMOJOSARI KAB. PEKALONGAN
2241 1100439018 MUHAMMAD ROSIHUL ARDLI 10/12/1997 DUKUHSETI 02/04 DUKUHSETI KAB. PATI
2242 1100439019 NURSIDIK, SPDI, MA 10/01/1980 BAGELEN RT 02/01 KAB. PURWOREJO
2243 1100439020 ISKANDAR ZUL QARNAIN 26/04/1967 JL. LET. ACHMAD NUR NO. 06 RT 03 RW 03 KAB. PURBALINGGA
2244 1100439021 HERDIYAMI 15/03/1978 JL VETERAN NO 2B RT 05 RW 04 KAB. BLORA
2245 1100439022 SUYOTO 25/12/1967 DK. TELENG RT 05/08 KAB. BLORA
2246 1100439023 SWASTININGSIH 21/05/1968 [Link]. ACHMAD NUR NO. 06 RT 03 RW 03 KAB. PURBALINGGA
2247 1100439025 MARYATI 01/12/1964 KARANGGAWANG 03/07 KAB. MAGELANG
2248 1100439027 WALIYAH 11/08/1959 MASARAN RT 07/02 KAB. SRAGEN
2249 1100439031 DRS. SUPARDI 31/01/1968 JL. VETERAN NO 2B RT 05/04 KAB. BLORA
2250 1100439033 SUTARTO 22/08/1965 DSN. REJOSO RT.02 RW.03 KAB. SEMARANG
2251 1100439034 SARIUN 16/06/1969 DK. TELENG RT 05/08 KAB. BLORA
2252 1100439035 RIYANTI 24/10/1972 NGADIRETNO 17 RT. 02/17 KAB. MAGELANG
2253 1100439036 NUR KHASANAH 29/08/1970 DSN. REJOSO RT.02 RW.03 KAB. SEMARANG
2254 1100439037 SUNYOTO 12/01/1972 KEL. BANGKLE RT 04/03 KAB. BLORA
2255 1100439038 MUHTADI 11/03/1977 KALITANGI RT.04/09 GENTING JAMBU KAB. SEMARANG
2256 1100439039 MARIATUN 29/07/1957 [Link] 22F RT 01/03 KAB. BLORA
2257 1100439040 CHOIRULINA LILIANA 22/08/1978 KEL. BANGKLE RT 04/03 KAB. BLORA
2258 1100439041 MUNDIROH TARWAN TARYA 23/02/1973 PAMOTAN RT 003 RW 002 PAMOTAN KAB. REMBANG
2259 1100439042 SULIKAH 13/03/1974 JL SEMAWUR RT 02 RW 04 KAB. BLORA
2260 1100439043 WAHYU TRI ROMADHONI 13/03/1992 [Link] 22F RT 01/03 KAB. BLORA
2261 1100439045 SRI SURYANINGTIAS 25/03/1981 KRAJAN RT 02 RW 07 KAB. WONOSOBO
2262 1100439046 SULASTRI ACHMAD MAT ALI 04/10/1973 PURWOSARI RT.01 RW.01 KAB. KUDUS
2263 1100439047 SUMIARTI AHMAD KAYUM 05/10/1961 GOMBONG RT.05/03 KAB. KEBUMEN
2264 1100439048 MARSANAH SAHIRMAN KASAN TARUJI 30/11/1959 GOMBONG JL KARTINI 56 RT. 04. 03 KAB. KEBUMEN
2265 1100439051 MUSLIKAN SARJIMAN ALI 06/12/1974 PURWOSARI RT.01 RW.01 KAB. KUDUS
2266 1100439052 HASTUTI 24/12/1972 KOMPLEK PURI BUNGA NO.20 RT.04/09 UNG KAB. SEMARANG
2267 1100439053 PARMIN 10/05/1963 BENDUNGAN 04/10 KAB. KLATEN
2268 1100439054 SUPRIYATNI 13/02/1961 JL. KANJENGAN NO.4 RT.08 RW.04 KAB. SEMARANG
2269 1100439055 SUDARSI 04/04/1963 BENDUNGAN 04/10 KAB. KLATEN
2270 1100439057 AGUS WIKIYANTO 16/06/1977 KRAJAN RT 02 RW 07 KAB. WONOSOBO
2271 1100439060 NAHARI 07/10/1958 TUMPANG X/4 RT.05/09 KOTA SEMARANG
2272 1100439061 SUTIYAR 12/03/1961 DSN. PONCORUSO RT.06 RW.02 KAB. SEMARANG
2273 1100439062 ANY FITRIA 01/07/1984 KAUMAN RT.03/RW.09 KAB. KENDAL
2274 1100439063 SAIFUDIN AS'ARI 15/06/1969 KAUMAN RT.03/RW.09 KAB. KENDAL
2275 1100439064 YATMI 19/08/1966 DSN. PONCORUSO RT.06 RW.02 KAB. SEMARANG
2276 1100439065 ROWIYAH 25/07/1965 LAMUK LEGOK, RT.02/RW.01 KAB. TEMANGGUNG
2277 1100439067 MUKLAS 10/07/1963 KLAHANG RT.4/3 KAB. BANYUMAS
2278 1100439068 SRI YANTI 10/07/1974 KLAHANG RT. 4/3 KAB. BANYUMAS
2279 1100439069 KARJI PARTO PARDI 30/06/1961 BUNGASREJO 3/1 JAKENAN KAB. PATI
2280 1100439072 MURTINI DAMANHURI MAWARDI 22/12/1959 ADIWARNO RT. 05. 02 KAB. KEBUMEN
2281 1100439074 SUNARDI RUSLIM SUKINI 06/05/1967 TLUWUK 4/2 WEDARIJAKSA KAB. PATI
2282 1100439075 SAMIKIN KETAWIKRAMA KETASENTANA 03/07/1958 ADIWARNO RT.05/02 KAB. KEBUMEN
2283 1100439078 R HERI SANTOSA , DRS 18/01/1963 GUDANG RT.03/03 LOPAIT TUNTANG KAB. SEMARANG
2284 1100439079 KARMAN WIDAGDO SAPAR 12/08/1958 AGUNGMULYO 3/1 JUWANA KAB. PATI
2285 1100439080 ANIK MUSLIKAH RASIMAN 07/05/1970 AGUNGMULYO 3/1 JUWANA KAB. PATI
2286 1100439081 ISTIKOMAH ROMJATUN 21/01/1967 GUDANG RT.03/03 LOPAIT TUNTANG KAB. SEMARANG
2287 1100439083 ATMINI KUSNO RASMI 21/10/1975 TLUWUK 4/2 WEDARIJAKSA KAB. PATI
2288 1100439084 SITI NURJANAH 20/09/1975 JAMBON RT.02/RW.02 KAB. KENDAL
2289 1100439085 WARTIWI DJARTO TARWI 18/06/1967 BUNGASREJO 3/1 JAKENAN KAB. PATI
2290 1100439087 KUNARSO 08/03/1967 [Link] KARANG KLESEM RT. 2/2 KAB. BANYUMAS
2291 1100439088 AGUS BUDI HARTO 21/04/1963 NGLANGAK RT 01 KAB. SRAGEN
2292 1100439090 SUTINI 07/03/1960 DUSUN WARUREJA RT04 RW04 KAB. CILACAP
2293 1100439093 LASMONO 18/05/1984 TANDURAN, RT.04/RW.01 KAB. TEMANGGUNG
2294 1100439094 EFI HERIYANA 07/01/1966 JLIGUDAN 02/02 KAB. MAGELANG
2295 1100439095 NUR SIAMI FARIDAH 02/12/1975 MENGORI RT.06 RW.02 KAB. PEMALANG
2296 1100439099 [Link] 20/08/1967 MENGORI RT.06 RW.02 KAB. PEMALANG
2297 1100439100 ICHWANUDDIN, SSI,APT 01/07/1975 JL DR RAJIMAN NO 627 RT 07/06 BRATAN KOTA SURAKARTA
2298 1100439101 ENDOT SUDIYANTO 22/07/1959 JLIGUDAN 02/02 KAB. MAGELANG
2299 1100439103 HARYANI 11/08/1964 BANAR 04/06 KAB. MAGELANG
NO NO. PORSI NAMA TANGGAL LAHIR ALAMAT KAB/KOTA KETERANGAN
2300 1100439106 MUSLIMAH 03/07/1971 AJIBARANG WETAN RT, 2/12 KAB. BANYUMAS
2301 1100439107 ERISNAWATI 01/09/1975 GG. ROJO MANGGOLO RT.02 RW.05 KOTA SURAKARTA
2302 1100439108 KARSIWAN 13/03/1965 AJIBARANG WETAN RT.02 RW.12 KAB. BANYUMAS
2303 1100439110 FAIJIN MUSLIKAN HAMBALI 25/07/1975 PAMOTAN RT 003 RW 002 PAMOTAN KAB. REMBANG
2304 1100439111 GARIYATI 12/03/1969 MENOREH SELATAN III NO. 13 RT.05/04 KOTA SEMARANG
2305 1100439114 EDY SUJOKO 17/06/1967 MENOREH SELATAN III NO. 13 RT.05/04 KOTA SEMARANG
2306 1100439116 NGATINI TROSAJI PARTO PARIYO 20/10/1972 KRAGAN RT 005 RW 002 KRAGAN KAB. REMBANG
2307 1100439117 SUPARDI JAFAR LOPO 01/01/1965 KRAGAN RT 005 RW 002 KRAGAN KAB. REMBANG
2308 1100439118 MUSTA'IN LATIF 27/04/1976 KAUMAN KIDUL RT.06/02 PRINGAPUS KAB. SEMARANG
2309 1100439120 SRI SUSMIASIH 12/01/1976 [Link] NO.7 RT.02 RW.11 KAB. PEMALANG
2310 1100439121 KASFI'I ADI IRYANTO 24/02/1974 [Link] NO.7 RT.02 RW.11 KAB. PEMALANG
2311 1100439122 CHOLIFAH 13/02/1965 CETOKAN 16/08 KAB. MAGELANG
2312 1100439123 ASRIKHAN 13/02/1964 CETOKAN 16/08 KAB. MAGELANG
2313 1100439124 MAHMUDAH 15/07/1958 JELAPAN RT. 02/04 KAB. MAGELANG
2314 1100439126 ADI MUSTOFA 15/04/1975 KAUMAN 18/08 KAB. MAGELANG
2315 1100439127 SITI ANJARIYAH 28/11/1959 GETAS 01/01 KAB. KLATEN
2316 1100439128 FAIZAH 21/09/1971 KAMUMAN 18/08 KAB. MAGELANG
2317 1100439131 GASWADI 06/11/1967 KALANG 23/07 KAB. GROBOGAN
2318 1100439134 NGATMIATI 12/06/1976 KALANG 23/07 KAB. GROBOGAN
2319 1100439135 ISMIYATUN 09/10/1963 NGREBINAN RT 01 RW 02 KAB. BOYOLALI
2320 1100439136 RINA LISTIANASARI 19/03/1973 PURWOSARI 01/04 KAB. GROBOGAN
2321 1100439138 SULASWATI 07/03/1970 KALANG 23/07 KAB. GROBOGAN
2322 1100439139 SITI MUTMAINAH 12/02/1964 KAWIRAN 02/15 KAB. MAGELANG
2323 1100439140 SABIKIN 01/03/1960 PURWOSARI 01/04 KAB. GROBOGAN
2324 1100439143 MAYA PUSPA HAPSARI 11/10/1979 KUTOSARI RT. 05. 01 KAB. KEBUMEN
2325 1100439145 AGUS BUDI PUTRANTO 31/08/1977 SANGGRAHAN PURWOSARI NO. 058 RT 05/05 KOTA SURAKARTA
2326 1100439146 SITI HAJAR MOHAMAD KAMSANI 29/08/1974 JOGOMERTAN RT. 04. 03 KAB. KEBUMEN
2327 1100439152 BUDI RIYANTO MARSIMIN HADI PRAMONO 14/05/1962 JOGOMERTAN RT.04/03 KAB. KEBUMEN
2328 1100439154 IMAN PURWANTO 23/09/1967 JL. SULAWESI RT04 RW06 BOJONGBATA KAB. PEMALANG
2329 1100439155 SRIYATUN 03/05/1966 SETROJIWO RT 33 RW 01 KAB. BOYOLALI
2330 1100439156 FARINA DEWI CITRAWATI 09/12/1975 [Link] RT.04 RW.06 KAB. PEMALANG
2331 1100439157 KABUL 31/12/1964 SETROJIWO RT 33 RW 01 KAB. BOYOLALI
2332 1100439160 UMU MAR'AH 28/09/1977 PETUNGULUNG RT.01 RW,.03 KAB. WONOGIRI
2333 1100439161 SRI SUDININGTIJAH 29/06/1967 JAMBU RT 03 RW I KAB. BANYUMAS
2334 1100439162 AGUS SUISNO 20/03/1976 PETUNGULUNG RT.01 RW.03 KAB. WONOGIRI
2335 1100439163 JUWARIYAH KOES SUWITO KUSUMO ATMODJO 10/08/1962 KARANGMALANG RT 04 RW 04 KAB. KUDUS
2336 1100439165 SUKINI 05/05/1959 GANDRUNGMANGU RT. 05 RW. 06 KAB. CILACAP
2337 1100439166 M FANANI MACHFUD MASRICHAN 15/05/1960 KARANGMALANG RT 04 RW 04 KAB. KUDUS
2338 1100439167 QOMARIYAH FADELAN MAT SIRIN 31/12/1958 NGEMBALREJO RT 02 RW 04 KAB. KUDUS
2339 1100439169 ROMLI CHAMBALI KHAMBALI 31/12/1957 SAMBUNG RT 02 RW 01 KAB. KUDUS
2340 1100439170 BAMBANG NUGROHO 17/01/1959 SIKENONG NO.12 RT 01/12 KAB. KLATEN
2341 1100439172 SAJIYEM 31/12/1970 GG. DELIMA X NO.3 RT 02 RW 04 KOTA SURAKARTA
2342 1100439174 SARSO BIRIN 31/12/1966 GG DELIMA X NO. 3 RT 02 RW 04 KOTA SURAKARTA
2343 1100439176 SRI RUSMINI 11/03/1961 SIKENONG NO.12 RT 01/12 KAB. KLATEN
2344 1100439181 WIJI UTAMI MARTEGUH MARDI WIYONO 07/08/1964 BUMIREJO RT.01/05 KAB. KEBUMEN
2345 1100439182 ENDANG SABAR WIDIASIH, S SOS, MM 17/09/1968 TEGALMULYO II/1 RT.02 RW 07 KOTA SURAKARTA
2346 1100439185 MUHTAROM 06/07/1959 SULUR 03/06 KAB. GROBOGAN
2347 1100439186 SULIMAH 14/05/1979 MENGGORA RT.03 RW.08 KAB. WONOSOBO
2348 1100439187 RASNI 15/03/1967 SULUR 03/06 KAB. GROBOGAN
2349 1100439192 PANDU CAHYA TIMUR 14/05/1983 [Link] RY.01 RW.05 CIBARUSAHKOTA KAB. BANJARNEGARA
2350 1100439193 RUSGIYANTO, SH 01/08/1962 KARONSIH UTARA NO. 330 RT.06/03 KOTA SEMARANG
2351 1100439197 LAILA FARDANI 31/05/1970 JL. BALAI DESA RT.03 RW.02 KAB. BANYUMAS
2352 1100439198 MOHAMAD DWI HARTONO 06/06/1960 KRANDEGAN RT.01 RW 05 KAB. BANJARNEGARA
2353 1100439199 YUNIWATI 01/07/1960 BALUN RT 016 RW 003 KAB. BANJARNEGARA
2354 1100439201 DRS. H. MAD SABILUL WAFA 21/04/1962 [Link] RT.03/03 BAWEN KAB. SEMARANG
2355 1100439202 SARINAH 24/09/1969 WOLO 07/02 KAB. GROBOGAN
2356 1100439203 FAISAL DANI PERMANA 22/04/1982 BADAMITA RT.002 RW.002 RAKIT KAB. BANJARNEGARA
2357 1100439204 MOCHAMMAD 26/03/1975 SINDURJAN RT 02/05 KAB. PURWOREJO
2358 1100439205 ARUM RUMIANI 15/05/1967 [Link] RT.03/03 BAWEN KAB. SEMARANG
2359 1100439208 SUPRIYAH, SH 12/03/1966 KARONSIH UTARA NO. 330 RT.06/03 KOTA SEMARANG
2360 1100439209 NURUL HANI 21/11/1983 SIMBANGKULON BLOK 4 GG.3 RT.12/04 BUARAN KAB. PEKALONGAN
2361 1100439210 MUSA 08/06/1971 SIMBANGKULON BLOK 4 GG.3 RT.12/04 BUARAN KAB. PEKALONGAN
2362 1100439212 AMIN 19/05/1966 DUSUN MARGASARI RT. 04 RW. 02 KAB. CILACAP
2363 1100439213 RANEM 16/12/1965 KESENET RT 005 RW 004 KAB. BANJARNEGARA
2364 1100439215 SAMIN 01/07/1960 KESENET RT 005 RW 004 KAB. BANJARNEGARA
2365 1100439216 JAENUDDIN 25/08/1958 DK. KRAJAN LOR RT.10/02 BUMIAYU KAB. BREBES
2366 1100439218 SUPIYAH 31/12/1959 JL. KH AHMAD DAHLAN GG.16 NO.45 KOTA PEKALONGAN
2367 1100439219 TRIYANAH 02/10/1960 DK KRAJAN LOR RT. 10/02 BUMIAYU KAB. BREBES
2368 1100439221 INDIYAH NASTUTI 08/08/1962 SIDOMULYO RT 24/01 KAB. SRAGEN
2369 1100439223 YANI ADHI PUTRANTO 24/06/1966 SEMARANG RT 001 RW 002 KAB. BANJARNEGARA
2370 1100439224 RESIATI WIDIASTUTI 26/02/1974 SEMARANG RT 001RW 002 KAB. BANJARNEGARA
2371 1100439225 ZAENAL PRASETYA MARSID 07/11/1967 KRAPYAK 01/02 KAB. JEPARA
2372 1100439228 SITI MUFNIL IDA SANAJI 05/01/1986 KALIPUCANG KULON 03/03 KAB. JEPARA
2373 1100439230 ISTIQOMAH MARKUM ASTRO 18/10/1971 KRAPYAK 01/02 KAB. JEPARA
2374 1100439231 SUBROTO MULYADI KARTOBAS 01/02/1978 KALIPUCANG KULON 03/03 KAB. JEPARA
2375 1100439232 KARYONO 19/09/1961 BANTAR RT 002 RW 001 KAB. BANJARNEGARA
2376 1100439234 AMINI 10/06/1967 BANTAR RT 002 RW 001 KAB. BANJARNEGARA
2377 1100439239 SUBKHAN NGASMANI SARIYEM 03/08/1959 GAJAHMATI 4/2 PATI KAB. PATI
2378 1100439240 WIRYOSUHARJO AL DARSO 31/12/1958 KARANGDADAP RT. 2/3 KAB. BANYUMAS
2379 1100439242 DWI ASTUTIK SUTOMO 17/04/1960 GAJAHMATI 4/2 PATI KAB. PATI
2380 1100439243 SUMARTI 05/04/1963 JANGGELAN 02/01 KAB. MAGELANG
2381 1100439244 CHOMSINAH 26/08/1961 KARANGDADAP RT. 2/3 KAB. BANYUMAS
2382 1100439246 SUKIMAN 12/09/1964 DK. NGLAWIYAN RT 02 RW 03 KAB. BLORA
2383 1100439247 MARSONO 18/02/1962 CEPOKO 02/06 KAB. KLATEN
2384 1100439249 ANNISA AINNUR ROFIQOH 04/04/2001 DK. NGLAWIYAN RT 02 RW 03 KAB. BLORA
2385 1100439250 WINARNI 14/10/1974 JL. CEMARA NO. 187 RT. 03 RW. 08 KAB. CILACAP
2386 1100439251 SITI KARTINI NURHAYATI 21/04/1958 DOPLANG RT 01/06 KAB. PURWOREJO
2387 1100439253 SIHATI 27/03/1969 DSN. NGADIPIRO RT.03/RW.10 KAB. KENDAL
2388 1100439254 ERTSA LAILA HUSNA 28/12/1993 DUKUHSETI 2/4 DUKUHSETI KAB. PATI
2389 1100439256 SITI MAHMUDAH 06/01/1963 PUCANGSAWIT RT 02 RW 02 KOTA SURAKARTA
2390 1100439258 UBAIDILLAH 03/12/1967 SETONO GG. 6/ 7 RT. 1 RW. 7 KOTA PEKALONGAN
2391 1100439260 SUWARNO 05/08/1961 DSN. NGADIPIRO RT.03/RW.10 KAB. KENDAL
2392 1100439261 WAHYONO 19/01/1962 SUMBER TRANGKILAN NO.026 RT.02 RW.15 KOTA SURAKARTA
2393 1100439263 LILIS SUPRIYANTA 14/07/1965 PUCANGSAWIT RT 02 RW 02 KOTA SURAKARTA
2394 1100439264 AFIYATI 05/06/1975 SETONO GG. 09 RT 001 / RW 009 KOTA PEKALONGAN
2395 1100439265 ISFAROH 17/08/1966 SETONO GG. 6 / 7 RT. 1 RW. 7 KOTA PEKALONGAN
2396 1100439269 ARNI FITRIASARI 01/05/1989 BOLO RT.02/01 KAB. DEMAK
2397 1100439271 RASMI, AMD. 06/12/1969 JL CENDANA RT10 RW 03 KAB. BLORA
2398 1100439272 HADIE WIYONO 10/02/1969 RINGINANOM RT 18 KAB. SRAGEN
2399 1100439273 MOH TRI HENDRI 03/01/1988 BOLO RT.02/01 KAB. DEMAK
2400 1100439274 SUTRISNO 05/03/1961 TEGALMULYO KOTA SURAKARTA
2401 1100439276 PURWATMI 19/05/1964 TEGAL MULYO KOTA SURAKARTA
2402 1100439277 SAIDATUN SAKURI SUPARNO SYARAT 04/11/1978 KANDANGMAS RT.04 RW.02 KAB. KUDUS
2403 1100439278 SARTI 14/06/1964 BAJO RT 01 RW 01 KAB. BLORA
2404 1100439280 FAHRURI 27/08/1974 KALIORI RT. 2/2 KAB. BANYUMAS
2405 1100439282 KASMANI SAKEH MARSAM 13/05/1971 KANDANGMAS RT 04 RW 02 KAB. KUDUS
2406 1100439283 SUMARDI JUMAR WIRO GARENG 31/12/1979 KANDANGMAS RT 04 RW 13 KAB. KUDUS
2407 1100439284 MARYONO 14/11/1959 JL PUTRA II NO. 27 RT09 RW14 KAB. CILACAP
2408 1100439285 KASNO 05/01/1960 BANJARSARI RT.03/02 BANJAREJO KARANGANYAKAB. PEKALONGAN
2409 1100439286 SUYATI 12/09/1968 JL. PUTRA II NO. 27 RT. 09 RW. 14 KAB. CILACAP
2410 1100439287 ELSA MYRISTIKA FRAHMA 25/06/1996 BANJARSARI RT 003/ RW 002, BANJAREJO, KARANGANYAR
KAB. PEKALONGAN
2411 1100439288 MUNDAKIR, SPD 15/10/1965 WONOLELO 018 RT. 04/09 KAB. MAGELANG
2412 1100439289 TARWATI, SP.D 07/02/1966 SRUWOHDUKUH RT. 02/01 BUTUH KAB. PURWOREJO
2413 1100439291 SITI JUWARIYAH, [Link] 05/05/1964 KUNIR RT 01/02 KAB. PURWOREJO
2414 1100439294 MAHMUDI 25/07/1967 DUSUN SIRANCAHNO. 036 RT. 02RW. 01 KAB. CILACAP
2415 1100439295 SULARMI 10/11/1957 [Link] 32 WONOKARTO RT 02 RW 05 KAB. WONOGIRI
2416 1100439296 SATINI 12/08/1970 DUSUN SIRANCAH 36 RT02 RW01 KAB. CILACAP
2417 1100439297 MUCH LUKMAN HAKIM 14/09/1978 TAMAN CIKANDE BLOK.C 5A NO.07 RT.05 RW.01 KAB. BREBES
2418 1100439298 EMY TRI HARYANI 30/12/1983 KANDANGMAS RT.04 RW.13 KAB. KUDUS
2419 1100439299 MASRIN 31/12/1972 DUSUN SIDASARI RT 003 / RW 003 KAB. CILACAP
2420 1100439301 BANATUL MUSTANIROH 20/01/1971 WONOLELO 018 RT. 04/09 KAB. MAGELANG
2421 1100439302 PONIYEM 12/03/1967 DUSUN SIDUREN 26 RT02 RW04 KAB. CILACAP
2422 1100439304 MUSNGIDAH 22/12/1969 DUSUN SIDASARI RT. 04 RW. 03 KAB. CILACAP
2423 1100439309 SUNARSIH KORDI MARWI 30/05/1974 SUMANDING 13/04 KEC. KEMBANG KAB. JEPARA
2424 1100439312 ACHMAD CHERODIN SOLEMAN 24/06/1959 JABRES RT. 03. 04 KAB. KEBUMEN
2425 1100439314 SITI GHONIMAH SUWARTO MADISRAN 30/04/1964 JABRES RT. 03. 04 KAB. KEBUMEN
2426 1100439315 NUR HAYATI 07/07/1957 TEGALREJO RT 01 RW 03 KAB. BOYOLALI
2427 1100439319 SITI MAISYAH 30/12/1960 [Link] RT.01/RW.01 PAGUYANGAN KAB. BREBES
NO NO. PORSI NAMA TANGGAL LAHIR ALAMAT KAB/KOTA KETERANGAN
2428 1100439320 NUR LALELI,[Link],[Link] 05/12/1958 PAGUYANGAN RT.08/RW.04 PAGUYANGAN KAB. BREBES
2429 1100439322 SUYONO JOKO DIHARJO 06/05/1976 TEGALWINANGUN RT. 02 RW. 13 KAB. KARANGANYAR
2430 1100439323 PONIYEM 05/06/1970 DSN. KRAJAN ASINAN RT.03/01 ASINAN BAWEN KAB. SEMARANG
2431 1100439324 SRI MULYANTI 26/06/1984 TEGALWINANGUN RT. 02 RW. 13 KAB. KARANGANYAR
2432 1100439325 SRI HARTINI 19/09/1961 JIWOKULON 08/04 KAB. KLATEN
2433 1100439331 SUKEMI 12/05/1972 CANDI 03/02 KAB. MAGELANG
2434 1100439333 SUKARNI 10/07/1959 PATIHAN RT.02/RW.03 KAB. SUKOHARJO
2435 1100439336 ENDANG SRIYATINI 13/06/1965 RINGIN MULYO RT.01/RW.01 KAB. KENDAL
2436 1100439340 ANIPAH 22/03/1973 RANDUDONGKAL RT.29 RW.03 KAB. PEMALANG
2437 1100439342 SUHARJO 09/01/1964 KRAMATSARI GG.11 NO.17 RT.03 RW.03 KOTA PEKALONGAN
2438 1100439345 WAROQOTUN 02/03/1960 JL. KRAMATSARI III GG.11 NO.17 RT.03 /03 KOTA PEKALONGAN
2439 1100439346 ALI FATAH 01/07/1962 RANDUDONGKAL RT.29 RW.03 KAB. PEMALANG
2440 1100439347 KAMDI 27/10/1957 RINGINMULYO RT.01/RW.01 KAB. KENDAL
2441 1100439351 SRI WAHYUNINGSIH 25/06/1964 KRAJAN, RT.04/RW.01 KAB. TEMANGGUNG
2442 1100439352 JANU ISWANTO 24/01/1963 KRAJAN, RT.04/RW.01 KAB. TEMANGGUNG
2443 1100439354 MANISAH 26/02/1963 DANASARI RT.02 RW.01 KAB. PEMALANG
2444 1100439356 SUSWITO 23/02/1970 KARANGMLATI RT 05 RW 03 KAB. DEMAK
2445 1100439359 JAMIRAH 06/09/1961 CACABAN BARAT RT 04 RW 09 KOTA MAGELANG
2446 1100439360 JIKIN SUHERMAN 21/08/1960 DUSUN CIKONDANG RT02 RW05 KAB. CILACAP
2447 1100439365 SANDI 12/05/1972 SUMBER RT.017/004 BENTAK SIDOHARJO KAB. SRAGEN
2448 1100439366 SUBEKTI 19/09/1966 DUSUN BLIMBING RT.05/RW.01 KAB. KENDAL
2449 1100439367 MURAH 04/05/1965 DUSUN CIKONDANG RT02 RW05 KAB. CILACAP
2450 1100439368 SUGENG 12/09/1959 DUSUN BLIMBING RT.05/RW.01 KAB. KENDAL
2451 1100439370 NGABAS ABDULLAH MA'RUF 29/06/1973 TANJUNGANOM RT 003/001 KAB. BANJARNEGARA
2452 1100439371 RODIYAH 03/11/1978 TANJUNGANOM RT 003 RW 001 KAB. BANJARNEGARA
2453 1100439373 SUKARNA 22/10/1959 CACABAN BARAT RT 04 RW 09 KOTA MAGELANG
2454 1100439374 MUKTI ALI 27/07/1974 TEGALSARI RT 01 RW 02 KAB. BOYOLALI
2455 1100439376 SITI ROHMANI 11/12/1957 SIMO RT 03 RW 01 KAB. BOYOLALI
2456 1100439378 KUSMIYATI 16/04/1958 LINGK. MARDISARI, RT.07/RW.03 KAB. TEMANGGUNG
2457 1100439379 SITI KUSNIYATI,SAG 29/06/1962 SUMYANG 02/07 KAB. KLATEN
2458 1100439381 RETNO WINARTI 05/07/1975 KEMBANGKUNING NUSAKAMBANGAN KAB. CILACAP
2459 1100439382 HIKMAH 10/10/1970 JL. CEMPAKA [Link] NO.39 RT.03 RW.05 KOTA PEKALONGAN
2460 1100439383 EKO NUR PRAPTO 07/10/1971 KEMBANGKUNING NUSAKAMBANGAN KAB. CILACAP
2461 1100439385 SITI NURHAMDANAH SUDARDI SUMI 08/07/1981 GEMBONG 1/10 GEMBONG KAB. PATI
2462 1100439388 HARTOTOK SUWONO DARSIH 07/01/1977 GEMBONG 1/10 GEMBONG KAB. PATI
2463 1100439392 PUJI LESTARI 24/04/1958 BANCAR RT 01 RW 04 KAB. PURBALINGGA
2464 1100439398 SUKENI YASMO MANGGI 01/07/1957 KAJAR 4/3 TRANGKIL KAB. PATI
2465 1100439399 SURAHMI 10/04/1969 PILANGAN RT. 02 RW. 06 KAB. KARANGANYAR
2466 1100439400 DJUMIN 09/02/1972 PILANGAN RT. 02 RW. 06 KAB. KARANGANYAR
2467 1100439401 ARIZAL YUDHI HARTANTO 26/07/1984 JL. BERINGIN D.I NO. 222 RT 04 RW 05 KAB. BANYUMAS
2468 1100439402 NUR AZIZAH ERLITA 05/04/1988 [Link] D/1 NO.222 RT.4/5 BERKOH KAB. BANYUMAS
2469 1100439403 WARDI 10/11/1958 JL. MASJID NO.12 RT.04/10 KOTA SEMARANG
2470 1100439404 SUKARSIH 01/03/1971 PERUM BRANGSONG BARU RT.02/RW.08 KAB. KENDAL
2471 1100439405 MUHAMMAD SUBHAN 14/05/1977 WONOSARI RT 03 RW 06 KAB. BLORA
2472 1100439406 IVA NOVITA ROSYIDAH 07/03/1985 WONOSARI RT 03 RW 02 KAB. BLORA
2473 1100439407 RUKHIMAN 24/12/1967 [Link] RT.02/07 KALIERANG BUMIAYU KAB. BREBES
2474 1100439408 SRI WIDAYATI 29/05/1970 [Link] RT.02/07 KALIERANG BUMIAYU KAB. BREBES
2475 1100439409 ASIYAH 31/12/1961 WONOSARI RT.06/07 KOTA SEMARANG
2476 1100439412 WAHYO WIANTO 01/02/1964 ASINAN RT 002 RW 003 KAB. BANJARNEGARA
2477 1100439415 SARECHATI 28/12/1961 KALIWARENG JAMBEAN BAWAH RT.04 RW.02 KAB. BATANG
2478 1100439417 JETRIANDI 31/03/1976 DLIMAS 02/01 KAB. MAGELANG
2479 1100439418 SUWAIBAH MAHMUDI NAHROWI 10/12/1968 ISEP - ISEP RT 01 RW 03 KOTA SALATIGA
2480 1100439420 AGUSTINA ZIYADATUS SA'ADAH 01/08/1989 PECANGAAN KULON 04/04 KAB. JEPARA
2481 1100439423 SUKINI 06/02/1962 SAMBONGREJO RT 04 RW 02 KAB. BLORA
2482 1100439425 SUTAMIN 04/06/1958 SAMBONGREJO RT 04/02 KAB. BLORA
2483 1100439426 AHMAD JIRYAN 09/01/1966 KEL. NGAWEN RT 04/02 KAB. BLORA
2484 1100439427 RAHARTI 12/09/1963 JL. A. YANI 118 RT. 01 RW. 10 KOTA MAGELANG
2485 1100439428 RUSDI 17/06/1970 [Link] ASINAN RT.04/01 BAWEN KAB. SEMARANG
2486 1100439429 JUMADI 03/06/1965 JETIS RT 05/01 KAB. SRAGEN
2487 1100439430 SUKAMTI 07/06/1966 JETIS RT 05/01 KAB. SRAGEN
2488 1100439432 SUMARNI 07/05/1970 JL. AMARTA KLAREYAN RT 01 RW 04 KAB. PEMALANG
2489 1100439433 SANEM KASAN MARDI 30/11/1969 AYAH RT.02/01 KAB. KEBUMEN
2490 1100439435 AUFA NIKMATUR ROHMAH 27/04/1997 KUWU 05/03 KAB. GROBOGAN
2491 1100439436 BASUKI RAHMAT AHMADI 20/06/1969 AYAH RT. 02. 01 KAB. KEBUMEN
2492 1100439438 TITIK FAUZIYAH 02/10/1973 JL SUROJENGGOLO 2 05/03 KAB. GROBOGAN
2493 1100439439 ZULMI NAILUL AMALI 27/08/2000 KUWU 05/03 KAB. GROBOGAN
2494 1100439440 MURSINEM 31/12/1958 CABEYAN 01/05 KAB. MAGELANG
2495 1100439442 FAUZI 19/02/1967 KUWU 05/03 KAB. GROBOGAN
2496 1100439445 ACHMAD GHOZALI 05/05/1979 DK. JAGALAN RT.02/RW.04 KAB. KENDAL
2497 1100439446 SITI SAIDAH 28/02/1967 BANGUNSARI NO.17 RT05 RW01 KAB. TEMANGGUNG
2498 1100439448 KASAN 16/03/1964 JL. AMARTA KLAREYAN RT 01 RW 04 KAB. PEMALANG
2499 1100439452 SURIPAH 31/12/1964 KEBONAGUNG RT 04 RW 05 KAB. DEMAK
2500 1100439453 YASMIN 31/12/1958 KEBONAGUNG RT 04 RW 05 KAB. DEMAK
2501 1100439454 LASIYEM 21/09/1965 SARIP 05/04 KAB. GROBOGAN
2502 1100439456 SUWARNO 02/08/1965 SARIP 05/04 KAB. GROBOGAN
2503 1100439459 ABU CHASAN 05/04/1984 KECILA RT 006 RW 003 KAB. BANYUMAS
2504 1100439460 SITI ROYANAH 11/07/1976 KRAJAN BARAT RT.04/RW.01 KAB. KENDAL
2505 1100439462 AKHMAD SAFRUDIN 30/04/1967 [Link] DESA PASIR KULON RT. 3/2 KAB. BANYUMAS
2506 1100439463 SITI ROMELAH 07/09/1962 PETARANGAN RT 03 RW 11 KAB. BANYUMAS
2507 1100439464 MUNTAMAH NGADIMIN KARNO 04/07/1972 LEBAK RT.004/004 [Link] KAB. JEPARA
2508 1100439466 MACHFUD RIYANTO NGADIKUN 01/08/1981 BONOROWO RT. 01. 03 BONOROWO KAB. KEBUMEN
2509 1100439467 AHNAF AHMAD MOSTAR 10/10/1969 LEBAK 04/04 KEC. PAKIS AJI KAB. JEPARA
2510 1100439468 IMAM SAKHRONI 18/05/1971 JL. CEMARA NO. 187 RT. 03 RW. 08 KAB. CILACAP
2511 1100439469 SUNARNI WAGIO KAIRIN 22/01/1984 BONOROWO RT. 01. 03 BONOROWO KAB. KEBUMEN
2512 1100439470 ABDUL GHOFUR 22/10/1969 PESANTUNAN NO. 04 RT.04/02 WANASARI KAB. BREBES
2513 1100439471 BUKHORI 29/05/1967 KALIKUTO RT 21 RW 05 KAB. WONOSOBO
2514 1100439472 SITI RAHAYUNINGSIH 06/08/1957 TLETER, RT.01/RW.01 KAB. TEMANGGUNG
2515 1100439475 ROISAH 25/03/1970 PESANTUNAN NO.04 RT. 04/02 WANASARI KAB. BREBES
2516 1100439476 SRI MUJI SUKARDI 29/04/1970 POHIJO 5/2 MARGOYOSO KAB. PATI
2517 1100439477 SUTEJO SUNAWI MARFIAH 12/06/1968 POHIJO 5/2 MARGOYOSO KAB. PATI
2518 1100439478 TUTI FARIKHATUN 21/01/1988 KLUWUT RT.03/13 BULAKAMBA KAB. BREBES
2519 1100439479 KHOERIYYAH 05/03/1975 KLUWUT RT.02/13 BULAKAMBA KAB. BREBES
2520 1100439480 JUWARIYAH 15/12/1961 MOJO RT 19 RW 03 KAB. BOYOLALI
2521 1100439482 SAMSIYAH 27/10/1970 MALANGSARI RT01 RW01 KAB. TEMANGGUNG
2522 1100439483 BUDIYONO 10/10/1966 MALANGSARI, RT.01/RW.01 KAB. TEMANGGUNG
2523 1100439485 MUHAMAD MUSTOFA 10/04/1967 LEGOK RT 04 RW 04 KAB. WONOSOBO
2524 1100439487 MARYANTO 21/09/1958 PRAYAN RT. 02 RW. 03 KAB. KARANGANYAR
2525 1100439488 PARYATI 07/04/1960 PRAYAN RT. 02 RW. 03 KAB. KARANGANYAR
2526 1100439489 SUTIYANI 22/02/1959 DUKUHREJO RT. 04 RW. 04 KAB. KARANGANYAR
2527 1100439490 SUNARTO 02/12/1969 DERSO RT.03/IV KAB. KARANGANYAR
2528 1100439492 DESY PARMAWATI 09/12/1983 DERSO RT. 03 RW. 04 KAB. KARANGANYAR
2529 1100439493 MASFIYAH 04/08/1966 KP. SEKOPEK WETAN RT.05/RW.01 KAB. KENDAL
2530 1100439494 ANWARUDIN WARNO 24/01/1961 PAGEDONGAN RT 003 RW 006 KAB. BANJARNEGARA
2531 1100439495 MUSLIKHAH 06/06/1969 BLERONG RT 04/01 KAB. DEMAK
2532 1100439496 MISTIROH 06/04/1963 PAGEDONGAN RT 003/006 KAB. BANJARNEGARA
2533 1100439498 IMAM SANTOSA 07/04/1961 KEDUNGBANTENG RT 04 RW 02 KAB. BANYUMAS
2534 1100439499 DWI ASIH LANTARTI 13/07/1964 KEDUNGBANTENG RT. 4/2 KAB. BANYUMAS
2535 1100439500 MUSTOFIYAH 07/05/1965 PULOSARI RT.02/03 KAB. DEMAK
2536 1100439501 HIFDLON MUHIB 24/06/1962 BLERONG RT 04/01 KAB. DEMAK
2537 1100439502 KUSNO 17/06/1958 KEMBANG KUNING RT 02 RW 09 KAB. WONOSOBO
2538 1100439503 FAUZI HASTUTI 21/09/1959 RAKIT RT 002 RW 003 KAB. BANJARNEGARA
2539 1100439506 FATMA ERLINA 23/08/1968 JL. SIDOMULYO II / 5 RT 9 RW 20 KOTA SEMARANG
2540 1100439507 ARDIAN INDRATO 30/03/1963 [Link] II/5 RT.09/20 KOTA SEMARANG
2541 1100439512 HERI SUROSO 18/12/1960 [Link] I/07 RT.01 RW.10 KAB. PEMALANG
2542 1100439514 KUNJAENI 24/08/1978 DSN. DERSAN KULON RT.13/04 DERSANSARI KAB. SEMARANG
2543 1100439515 BAIROH 12/07/1967 [Link] I/07 RT.01 RW.10 KAB. PEMALANG
2544 1100439516 SUKARDI 12/02/1959 DUKUHREJO RT. 04 RW. 04 KAB. KARANGANYAR
2545 1100439517 MOKHAMAD ISRO TARWONO 25/06/1977 PONCOWARNO RT.02/01 KAB. KEBUMEN
2546 1100439518 DWI ASTUTI 25/01/1977 TEMBELANG 01/01 KAB. MAGELANG
2547 1100439519 ABDUL SYUKUR 28/04/1963 DSN. TEMBELANG 01/01 KAB. MAGELANG
2548 1100439520 SHOFIUL BURHAN SUBAKIR 01/02/1994 SAMBONG RT 003 RW 002 SEDAN KAB. REMBANG
2549 1100439521 INDRASAH NURNAINI KUNDHORI 28/11/1964 SLUKE RT 001 RW 003 SLUKE KAB. REMBANG
2550 1100439522 NGESTIWATI 09/05/1958 NGALIYAN 03/02 KAB. KLATEN
2551 1100439525 SUKURUDIN MOCHAMAD SAHIL 18/11/1962 TAMBAKSARI RT. 02. 03 KAB. KEBUMEN
2552 1100439528 BUDIYONO 21/11/1961 TLANGU RT.01/RW.04 KAB. KENDAL
2553 1100439529 SRI UMIYATUN SUWARDI 05/06/1962 TAMBAKSARI RT.02/03 KAB. KEBUMEN
2554 1100439530 RAHAYU 23/10/1966 TLANGU RT.01/RW.04 KAB. KENDAL
2555 1100439532 SUPRIYONO 08/02/1973 BOLO RT 02/05 KAB. DEMAK
NO NO. PORSI NAMA TANGGAL LAHIR ALAMAT KAB/KOTA KETERANGAN
2556 1100439533 NURYANTO NURSODIQ ABDUL SUKUR 09/04/1979 ARGOPENI RT. 06. 03 KAB. KEBUMEN
2557 1100439534 EKOWATI 18/02/1975 BOLO RT 02/05 KAB. DEMAK
2558 1100439536 UMI NURHAYATI 08/05/1966 DUSUN SURUSUNDA RT03 RW01 KAB. CILACAP
2559 1100439537 ENDANG LESTARI WAHYUNINGSIH 29/12/1964 TRIMULYO RT.03/02 KOTA SEMARANG
2560 1100439538 ABDUL BASID 12/07/1964 TRIMULYO RT.03/02 KOTA SEMARANG
2561 1100439540 DHIKRIA 15/06/1963 JL. SULAWESI GG.2 NO.9 RT.05 RW.03 KOTA PEKALONGAN
2562 1100439541 JUSITO 18/03/1963 DUSUN SURUSUNDA RT03 RW01 KAB. CILACAP
2563 1100439543 SAMIYATI 05/06/1961 NGRANCAH 02/10 KAB. MAGELANG
2564 1100439544 ZAINAL ARIFIN 07/02/1963 JL. SULAWESI GG 2 NO.9 RT.05 RW.03 KOTA PEKALONGAN
2565 1100439545 SUKISNO 10/01/1961 NGRANCAH 02/10 KAB. MAGELANG
2566 1100439546 DWI SULISTYAWATI 28/02/1967 CIBIYUK RT 10 RW 02 KAB. PEMALANG
2567 1100439547 MOCH YAKUP 14/05/1979 TUWANG RT 04/03 KAB. DEMAK
2568 1100439548 SLAMET RIYADI,SPD 23/01/1966 CIBIYUK RT.10 RW.02 KAB. PEMALANG
2569 1100439550 LAILA FARID 19/07/1981 TUWANG RT 01/01 KAB. DEMAK
2570 1100439552 MAHSUN 17/03/1990 GENITO LOR RT.002/003 WINDUSARI KAB. MAGELANG
2571 1100439553 SITI NURJANAH 17/08/1960 POGALAN 01/06 KAB. MAGELANG
2572 1100439554 IBNU SUSILO ANWAR MUHDI 03/09/1969 SINGOROJO 02/03 KAB. JEPARA
2573 1100439555 ADI SUDIARTO 17/09/1978 [Link] SUNANDAR NO.13 RT.03.05 PURI KAB. PATI
2574 1100439556 WALDI 01/06/1960 GENITO LOR 02/03 KAB. MAGELANG
2575 1100439558 ARIES RASYIDA HAMID 12/07/1973 SINGOROJO 02/03 KAB. JEPARA
2576 1100439559 ISWIDI 31/12/1957 BUSEKAN RT.02 RW.06 KAB. MAGELANG
2577 1100439560 RIFATUL ANISAH SIRAT 10/08/1983 DONGOS RT.003/003 KAB. JEPARA
2578 1100439563 YASIR SIDIK FATONI 10/01/1974 DONGOS RT.003/003 KAB. JEPARA
2579 1100439565 MASNO MASWAN SARMANI 26/12/1965 DONGOS RT.005/003 KAB. JEPARA
2580 1100439566 MATOYAH TAMBAH MARSIYAM 10/10/1966 DONGOS RT.005/003 KAB. JEPARA
2581 1100439567 MOCH. IRKHAM 12/04/1968 SIGAYAM RT.08 RW.03 KAB. BATANG
2582 1100439568 LISYANTI 10/12/1974 SIGAYAM RT.08 RW.03 KAB. BATANG
2583 1100439571 FAUZAN AKHMAD MAHANANI 15/01/1978 KESENET. RT.005/001 KAB. BANJARNEGARA
2584 1100439572 HIKMA FAJARINI 05/07/1982 KESENET RT 005 RW 001 KAB. BANJARNEGARA
2585 1100439573 SRI RAHAYUNINSIH 02/06/1963 PECINAN01/01 KAB. KLATEN
2586 1100439574 JOKO SUDARSONO,SPD 10/06/1961 PECINAN 02/01 KAB. KLATEN
2587 1100439575 ISNAINI JAMIL RISWAN 04/12/1984 BANDUNGREJO 03/04 KEC. KALINYAMATAN KAB. JEPARA
2588 1100439576 SHOLIKUL HADI MASLIKAN 03/10/1983 BANDUNGREJO 03/04 KEC. KALINYAMATAN KAB. JEPARA
2589 1100439577 SITI MUHARYUNI MUTAKIB 24/10/1968 KEDUNGREJO RT 001 RW 001 REMBANG KAB. REMBANG
2590 1100439578 MUHADI PAMIN WAGINEM 06/03/1962 KEDUNGREJO RT 001 RW 001 REMBANG KAB. REMBANG
2591 1100439580 PARTIMAH 02/01/1959 KENDALGIRI RT 03 RW 03 KAB. BOYOLALI
2592 1100439581 SHOLIHIN SUMADI YONO 12/08/1982 GUNUNGMULYO RT 004 RW 001 SARANG KAB. REMBANG
2593 1100439584 ROFIATUN 30/04/1972 GAJAH TIMUR DALAM II RT.03/08 KOTA SEMARANG
2594 1100439585 SUYAMTININGSIH 22/12/1973 BARAN JURANG RT.01 RW.06 KAB. SEMARANG
2595 1100439590 ACHMADI 17/08/1969 GAJAH TIMUR DALAM II RT 3 RW 8 KOTA SEMARANG
2596 1100439591 ALFI DWININGRUM 17/02/1996 SIDIGEDE RT 015 / RW 003 KAB. JEPARA
2597 1100439593 SRI WAHYUNINGSIH 19/09/1967 KP. MARGOREJO TIMUR RT.06/05 KOTA SEMARANG
2598 1100439594 KASNO 24/02/1964 JL. GEMAH KENCANA V RT.04/02 KOTA SEMARANG
2599 1100439597 ELY ISMIYARTI, DRA 23/07/1966 JL. MERNATI BARAT DLM II/123 RT.01/15 KOTA SEMARANG
2600 1100439599 PARTINAH 15/04/1968 KEDUNGORI RT 05 RW 01 KAB. DEMAK
2601 1100439600 SURAJIAMI 18/06/1964 PULUTAN RT 06 RW 02 KAB. BOYOLALI
2602 1100439601 WAGIRAN 06/08/1960 KEDUNGORI RT 05 RW 01 KAB. DEMAK
2603 1100439603 MUKROMIN 07/07/1963 PULUTAN RT 06 RW 02 KAB. BOYOLALI
2604 1100439604 CACUK PRASETYANTO, SH 02/03/1966 JL. GEMAHSARI VIII/301 KOTA SEMARANG
2605 1100439605 WAHYUNI 07/01/1967 JURANG RT.04 RW.02 KENTENG BANDUNGAN KAB. SEMARANG
2606 1100439606 NERRY SISWATI 24/12/1963 PERUM SIDOSARI TOWN HOUSE 2 RT.03 RW.04 KAB. SEMARANG
2607 1100439607 EKO BUDI SETIAWAN 13/01/1978 PAMBRAMAN RT 01 RW 06 KAB. BOYOLALI
2608 1100439609 HARJOKO 05/08/1962 PERUM SIDOSARI TOWN HOUSE 2 RT.03 RW.04 KAB. SEMARANG
2609 1100439610 ENDAH SETYONINGSIH 30/09/1981 BUTUH RT. 03/02 KAB. SUKOHARJO
2610 1100439612 ANY SUSILOWATI 21/10/1972 PUCANG 10/05 KAB. KLATEN
2611 1100439613 AGUS TURSINAH, SH 22/08/1968 PER. TULUS HARAPAN R-XVIII/01 RT.01/06 KOTA SEMARANG
2612 1100439614 SUPRIHATIN SUPARMAN SUMO 12/03/1967 SIDIGEDE RT.015/003 KAB. JEPARA
2613 1100439615 SODIKIN 11/09/1969 PUCANG 10/05 KAB. KLATEN
2614 1100439617 SRI SETYO 02/11/1972 BUTUH RT. 03/02 KAB. SUKOHARJO
2615 1100439618 HARLINA YANIANTO 12/01/1982 PAMBRAMAN RT 01 RW 06 KAB. BOYOLALI
2616 1100439619 AIDA SUSANTI 25/04/1968 PEDURUNGAN TENGAH KOTA SEMARANG
2617 1100439620 AHMAD NASIRIN 16/11/1967 JL LET SUWAJI RT01 RW22 KAB. CILACAP
2618 1100439621 SITI AMINAH JOYO WAGIMAN 31/12/1963 BULUNGKULON RT.07 RW.06 KAB. KUDUS
2619 1100439622 SUTINAH YAKIP KASMITO 31/12/1970 MENAWAN RT.03 RW.04 KAB. KUDUS
2620 1100439623 SUTIMAH 03/01/1964 DUSUN SINGOROJO RT.03/RW.01 KAB. KENDAL
2621 1100439624 DIDIT EKO PURWADI 07/07/1972 JL RAYA NO 133 RT004 RW004 KAB. CILACAP
2622 1100439626 EUIS MARIAM 21/11/1965 PERUM DEPKES BLOK A 3 NO. 16 RT. 02 /05 KOTA MAGELANG
2623 1100439627 UMI ISTIKOMAH 22/08/1969 JL KUTILANG 07 RT 01 RW 04 KAB. BOYOLALI
2624 1100439629 MUJARI, [Link] 28/05/1960 GAYAM RT 13 RW 03 KAB. BLORA
2625 1100439630 SUKAMTO LEGIYO KASTRO 10/10/1968 MENAWAN RT.03 RW.04 KAB. KUDUS
2626 1100439631 SAEROZI 13/04/1958 DUSUN SINGOROJO RT.03/RW.01 KAB. KENDAL
2627 1100439633 SULASIH SULAIMAN SARPI 01/07/1959 ALASDOWO 8/3 DUKUHSETI KAB. PATI
2628 1100439634 KUSNI NGATMIN RONO KAMSAH 31/12/1964 KESAMBI RT.02 RW.09 KAB. KUDUS
2629 1100439635 SUGIARTI, BA 09/05/1962 GAYAM RT 13 RW 02 KAB. BLORA
2630 1100439640 ZULIYATI MOHARI ASMUDI 30/12/1962 GEMIRING KIDUL 04/03 KAB. JEPARA
2631 1100439641 BAMBANG PURWOGANDI DITO ARI LEGOWO 25/07/1976 [Link] PLEBURAN 3 NO.3 RT.08/01 KOTA SEMARANG
2632 1100439642 KRESNO WIDODO 13/11/1960 JL. SEKARJAGAT VII/3 RT.4/ 10 KOTA PEKALONGAN
2633 1100439644 NUNING PUJIATI 28/12/1964 JL. SEKARJAGAT VII/3 RT. 4 / 10 KOTA PEKALONGAN
2634 1100439646 DIAH SETYORINI 19/10/1977 JL. TMN PLEBURAN 3 NO. 03 KOTA SEMARANG
2635 1100439648 NUR INA NUGRAHANI 17/04/1983 JL. TAMAN PLEBURAN III/3 RT.08/01 SEMARANG KOTA SEMARANG
2636 1100439649 SUHADI SUATNO MARTO JOYO 25/07/1960 KESAMBI RT.02 RW.09 KAB. KUDUS
2637 1100439650 EVI NOOR YANI 09/09/1977 WERGUWETAN RT 02 RW 02 KAB. KUDUS
2638 1100439651 MARDIYAH 11/10/1958 HARJOWINANGUN BARAT RT.04 RW.02 KAB. BATANG
2639 1100439652 MUHAMMAD ROSID KUSNAN 27/09/1975 GADING TULUNG 02/08 KAB. KLATEN
2640 1100439653 ANA RAHMAWATI 29/10/1980 GADING TULUNG 02/08 KAB. KLATEN
2641 1100439655 SUYONO 21/03/1977 MANGUNHARJO [Link] RT.02 RW.04 KAB. BATANG
2642 1100439656 WAJIMAN 02/06/1960 BULU RT 01 RW 01 KAB. SRAGEN
2643 1100439658 EDYANTO,SE 19/02/1964 KALIBOYO TIMUR NO.24 RT.03 RW.01 KAB. BATANG
2644 1100439659 BROTO SUCIPTO 02/06/1975 [Link] RT.001/001 PURWOGONDO KALINYAMATAN KAB. JEPARA
2645 1100439660 IDA SUSIYANTI 13/09/1972 KALIBOYO TIMUR NO.24 RT.03 RW.01 KAB. BATANG
2646 1100439661 AMIRIL 14/05/1962 [Link] SUDARSO KEBONAN RT.04 RW.02 KAB. BATANG
2647 1100439662 ZAINUDIN 15/02/1973 KALIBALIK RT.01 RW.02 KAB. BATANG
2648 1100439663 SAEBANI 09/02/1963 KEBON BARU RT.04/RW.08 KAB. SUKOHARJO
2649 1100439664 SRI TITIN MARTANTI 15/03/1967 [Link] SUDARSO KEBONAN NO.39 RT.04 RW.02 KAB. BATANG
2650 1100439666 SITI BANDIYAH 11/06/1967 KEBON BARU RT.04/RW.08 KAB. SUKOHARJO
2651 1100439667 SUPARTINI 12/09/1957 KERTEN 18/08 KAB. KLATEN
2652 1100439669 INDUN 05/06/1963 BULU RT.02 RW.01 KAB. BATANG
2653 1100439670 MUH MUTTAQIN 09/02/1981 TANON RT 019 / W 008 KAB. KLATEN
2654 1100439671 MALEHAH 27/08/1975 KALIBALIK RT.01 RW.02 KAB. BATANG
2655 1100439672 SRI LESTARI 10/09/1965 JL LABAN 61 RT04 RW13 KAB. CILACAP
2656 1100439673 ENDANG SETIYAWATI 24/04/1970 PAGERDAWUNG RT.03/RW.03 KAB. KENDAL
2657 1100439674 ZAENAL ABIDIN 04/02/1967 PAGERDAWUNG RT.03/RW.03 KAB. KENDAL
2658 1100439675 SUHARIYANTO 22/09/1961 JL LABAN 61 RT04 RW13 KAB. CILACAP
2659 1100439680 ENY SUPADMI 01/07/1965 JL PUCANG SARI IV RT 02 RW 12 BATURSARI KAB. DEMAK
2660 1100439682 SUGENG PURWOKO 24/01/1963 [Link] ASRI RT 02/12 BATURSARI KAB. DEMAK
2661 1100439684 SIHYEM 05/06/1974 WIRO 12/04 KAB. KLATEN
2662 1100439687 MUKANATUZ ZAHIROH NASOHA 14/07/1978 JEMUR RT.02/03 KAB. KEBUMEN
2663 1100439688 SUGENG RAHAYU, SPD 05/11/1972 WIRO 12/04 KAB. KLATEN
2664 1100439689 SATINO 24/11/1963 BATU KIDUL RT. 02 RW. 06 KAB. WONOGIRI
2665 1100439690 FATCHURROHMAN 04/04/1961 JL. RAMBUTAN NO. 06 RT. 03 RW. 04 KAB. CILACAP
2666 1100439691 ENY WILASTRI 23/03/1961 CITOMO KLAPAGADING RT.03 RW.12 KAB. BANYUMAS
2667 1100439692 MIFTACHUDIN ABDUL WAHID ABDULAH IKHSAN 10/05/1971 JEMUR RT.02/03 KAB. KEBUMEN
2668 1100439693 RAHAYU ASIH 10/07/1972 TEGOWANU KULON 07/01 KAB. GROBOGAN
2669 1100439694 PRIMAPUTRA ARI SIANTAMA 07/07/1988 KLAPA GADING RT.03/12 WANGON BANYUMAS KAB. BANYUMAS
2670 1100439696 TORIYAH 31/12/1970 JL RAMBUTAN 06 RT03 RW04 KAB. CILACAP
2671 1100439698 MULYOHARTI 14/12/1970 KLAPAGADING RT 03 RW 07 KAB. BANYUMAS
2672 1100439699 FADIL 01/01/1967 TEGOWANU KULON 07/01 KAB. GROBOGAN
2673 1100439702 MARJONO 23/01/1965 KLAPAGADING RT 03 RW 07 KAB. BANYUMAS
2674 1100439703 WIDIYATMOKO SUKARNO SINDUWARSITO 05/11/1958 KUTOWINANGUN RT . 02. 03 KAB. KEBUMEN
2675 1100439705 NURHAYATI WIDYOSUWIGNYO MANGUNSUMARTO 18/12/1963 KUTOWINANGUN RT.02/03 KAB. KEBUMEN
2676 1100439706 GIYANTI DWI UTAMI 22/07/1976 JL. KRESNA V NO 9 RT 07 RW 04 KAB. PURBALINGGA
2677 1100439707 IDA INDRAYANI ACHMAL 26/10/1975 KAWEDUSAN RT. 05. 01 KAB. KEBUMEN
2678 1100439708 ASEP NURDIANA RUSMAN SETIAWARMA 01/02/1973 KAWEDUSAN RT. 05. 01 KAB. KEBUMEN
2679 1100439709 NASIYAH SUKADAR SAMSURI 31/12/1968 KECAPI 42/08 KAB. JEPARA
2680 1100439711 FAUZAN LATIF RUSYDIYANTO 04/10/1976 JL. KRESNA V NO 9 RT 07 RW 04 KAB. PURBALINGGA
2681 1100439713 M. YOSO SARDAM PARDI 15/08/1962 KECAPI 42/08 KAB. JEPARA
2682 1100439717 BEJO SUPRIYANTO 05/11/1971 PATRA INDAH BLOK C2 NO. 06 RT03 RW20 KAB. CILACAP
2683 1100439718 SOLEKHAN 03/09/1970 PRM GRYSATRIA BANTARSOKA RT.1/10 BLK I/8 KAB. BANYUMAS
NO NO. PORSI NAMA TANGGAL LAHIR ALAMAT KAB/KOTA KETERANGAN
2684 1100439719 RENI ANDAYANI KUSUMA WARDHANI 20/03/1974 PATRA INDAH BLOK C2 NO. 06 RT03 RW20 KAB. CILACAP
2685 1100439720 NURUL HIKMAH 01/01/1977 SIDOMULYO [Link] RT.02 RW.03 KAB. BATANG
2686 1100439721 TRI HANDAYANI 30/12/1975 KARANGSALAM KIDUL RT.05 RW.05 KAB. BANYUMAS
2687 1100439722 HUDIYANTO 30/06/1967 WATU KELIR RT.02/RW.06 KAB. SUKOHARJO
2688 1100439724 YUNI ASTUTI 02/06/1981 WATU KELIR RT.02/RW.06 KAB. SUKOHARJO
2689 1100439725 SODIKIN 08/06/1975 SIDOMULYO [Link] RT.02 RW.03 KAB. BATANG
2690 1100439726 ZUMAROH 21/01/1966 LINTANG TRENGGONO 2/43 RT.02/18 KOTA SEMARANG
2691 1100439727 NGATWAN 19/05/1962 WONOSEKAR RT.03/08 KAB. DEMAK
2692 1100439729 NAILIL MUNA 04/06/1983 PULOSARI RT.03/04 KAB. DEMAK
2693 1100439730 AHMAD FURQON 25/05/1980 GENDOANG RT.04 RW.01 KAB. PEMALANG
2694 1100439732 ANI ROSYIDA 03/02/1983 GENDOWANG RT 04 RW 01 KAB. PEMALANG
2695 1100439733 PRASTYOWATI 25/11/1960 MLARAN RT. 01/01 GEBANG KAB. PURWOREJO
2696 1100439734 SUPARNO 19/04/1961 LINTANG TRENGGONO 2/43 RT.02/18 KOTA SEMARANG
2697 1100439738 PETIK 09/11/1958 MLARAN RT. 01/01 GEBANG KAB. PURWOREJO
2698 1100439739 MUJIYAH 01/06/1964 KALITELU RT 09 RW 05 KAB. WONOSOBO
2699 1100439740 SLAMET 15/06/1964 KALITELU RT 09 RW 05 KAB. WONOSOBO
2700 1100439741 SYEKHA 28/05/1958 JL BERINGIN TIMUR 77 RT 08 RW 03 KAB. BLORA
2701 1100439743 NANA TRIYANA 22/01/1976 SAYANG MULYO RT.01 RW.06 KAB. WONOSOBO
2702 1100439744 ANITA RACHMAWATI 25/10/1975 SAYANG MULYO RT 01 RW 06 KAB. WONOSOBO
2703 1100439746 M. SAIFULLAH 04/06/1975 JENGGOT GANG 4 NO.28 RT.04 RW.03 KOTA PEKALONGAN
2704 1100439747 HARYATI 19/02/1964 GEJAGAN 01/01 KAB. MAGELANG
2705 1100439748 LILIS MAGHFIROH 13/09/1979 JENGGOT GANG 4 NO.28 RT.04 RW.03 KOTA PEKALONGAN
2706 1100439750 IRIYONO 26/01/1962 DESA PURWOSARI RT.06 RW.02 KAB. KENDAL
2707 1100439751 MUHIROH 04/04/1966 DESA PURWOSARI RT.06 RW.02 KAB. KENDAL
2708 1100439754 RATIH DEWANTI 15/06/1963 KOMP. PLTA KALIANGET RT.01 RW.10 KAB. WONOSOBO
2709 1100439756 FATONAH 20/03/1967 BLIMBING RT 007 RW 001 KAB. BANJARNEGARA
2710 1100439757 SUNARDI 22/06/1962 KENTENG RT. 02 RW. 01 KAB. WONOGIRI
2711 1100439759 SUYATMI 01/07/1958 DUSUN NGRANDU RT. 02 RW. 02 KAB. WONOGIRI
2712 1100439760 SUGIYANTO SUGIMAN KARYO REJO 04/01/1970 WERGUWETAN RT 02 RW 02 KAB. KUDUS
2713 1100439762 PENIASIH 17/02/1969 NGAWEN RT 04 RW 02 KAB. BLORA
2714 1100439763 UMI LESTARI 22/05/1966 KENTENG RT. 02 RW. 01 KAB. WONOGIRI
2715 1100439764 SUROTO 24/02/1961 DUSUN. GEJAGAN 01/01 KAB. MAGELANG
2716 1100439765 SRI DARMIYATI 13/09/1963 SEMEN 04/01 KAB. MAGELANG
2717 1100439767 WAHYUDI 09/08/1973 BANGKOK RT 08 RW 02 KAB. BOYOLALI
2718 1100439768 TRI REJEKI 30/07/1965 SEKOPEK WETAN RT.04/RW.01 KAB. KENDAL
2719 1100439769 DARMIATI 06/04/1970 WATES WETAN RT.02 RW.06 KAB. WONOGIRI
2720 1100439770 SUNAR 15/11/1978 JL ADAWIJAYA 08 RT13 RW04 KAB. CILACAP
2721 1100439771 SARNOTO 07/02/1963 WATES WETAN RT.02 RW.06 KAB. WONOGIRI
2722 1100439773 KARDJO 01/03/1961 KAYULOKO RT 02 RW 03 KAB. WONOGIRI
2723 1100439774 SRI SUSANTI 31/08/1963 CILONGOK RT. 7/1 KAB. BANYUMAS
2724 1100439775 SITI ROBIAH MADRIM 20/06/1959 JL. BIMARAYA 130 TAHUNAN RT.002/007 KAB. JEPARA
2725 1100439777 SITI MALIKAH 04/06/1964 KAYULOKO RT 02 RW 03 KAB. WONOGIRI
2726 1100439780 MARSIYAH 01/07/1960 MARIBAYA RT 03 RW 01 KAB. PURBALINGGA
2727 1100439783 YUNI SETYAWATI 01/06/1986 CENDANA RT 003 RW 001 KAB. BANJARNEGARA
2728 1100439785 ZAENAL ABIDIN 09/11/1959 CILONGOK RT. 7/1 KAB. BANYUMAS
2729 1100439787 TORO SETYONO 25/10/1980 CENDANA RT 002 RW 001 KAB. BANJARNEGARA
2730 1100439792 HERY FURYANTI 04/04/1960 JL. SEMANGKA 65 RT 03 RW 011 KOTA SURAKARTA
2731 1100439795 UNTUNG 16/07/1972 GEMBONG RT.03/01 KANDANGSERANG KAB. PEKALONGAN
2732 1100439798 LESTARI 03/06/1968 SENTUL DESA SUKOREJO RT.10 RW.09 KAB. KENDAL
2733 1100439800 TEGUH PURWADI 22/09/1982 JL. OTTO ISKANDARDINATA RT 001 / RW 002 KOTA PEKALONGAN
2734 1100439801 RIFQI KHOIRUL ANAM 12/02/1994 TEGALSARI RT 003 / RW 003 KAB. KENDAL
2735 1100439802 KRIS SUGIYONO 28/09/1962 SENTUL DESA SUKOREJO RT.10 RW.09 KAB. KENDAL
2736 1100439804 RUSTONO 12/05/1969 BOJONGLOR RT.04/02 BOJONG KAB. PEKALONGAN
2737 1100439805 SUHARTI 01/07/1958 [Link] CEREMAI NO.19 BOBOSAN RT.1/3 KAB. BANYUMAS
2738 1100439806 SOFIYAH 07/06/1973 GEMBONG RT.03/01 KANDANGSERANG KAB. PEKALONGAN
2739 1100439807 SUPARMI 07/07/1966 JLUMBANG RT.01/RW.04 KAB. SUKOHARJO
2740 1100439808 INDRIYONO 21/01/1961 DK. JLUMBANG RT.01/RW.04 KAB. SUKOHARJO
2741 1100439809 HERIYANAH 15/06/1974 DSN TAPAK BARAT RT.06/RW.03 KAB. KENDAL
2742 1100439811 SUSILOWATI 10/10/1980 BOJONGLOR RT.04/02 BOJONG KAB. PEKALONGAN
2743 1100439812 ACHMAD SAPUWAN 14/04/1973 JL. KUSUMA BANGSA GG. 1 / 20 A RT. 3 / 5 KOTA PEKALONGAN
2744 1100439813 SAPON SLAMET TEMLONG 25/10/1961 KAYEN 6/4 KAYEN KAB. PATI
2745 1100439814 SRI ROMDANAH 23/07/1975 JL. KUSUMA BANGSA GG. 1 20 A RT. 3 RW. 5 KOTA PEKALONGAN
2746 1100439815 SRI LESTARI KAMIN 02/05/1959 SOWAN LOR 12/04 KAB. JEPARA
2747 1100439816 JAMHARI MUNAJI SITI ZAETUN 01/07/1959 KAYEN 6/4 KAYEN KAB. PATI
2748 1100439818 KUMIATUN 10/06/1982 TELUK RT.04/03 KAB. DEMAK
2749 1100439819 MAT SALIM 16/02/1977 TELUK RT.04/03 KAB. DEMAK
2750 1100439821 ENY WIDAYATI SUDARNO 24/02/1958 TANJUNGREJO RT 02 RW 10 KAB. KUDUS
2751 1100439822 HERU PURNOMO 22/06/1960 CANGAKAN RT 01 RW 010 KOTA SURAKARTA
2752 1100439824 INSIYATUN JUPRI KHAMDAN 01/04/1965 LERAN RT 002 RW 002 SLUKE KAB. REMBANG
2753 1100439825 TAMRI 01/12/1960 TAPEN RT.05/06 KESONGO TUNTANG KAB. SEMARANG
2754 1100439826 LUBAB HABIBURROHMAN 01/04/1975 KARANGNANGKA RT.1/3 KAB. BANYUMAS
2755 1100439827 FITRI NURUL HIDAYATI 02/09/1980 KARANGNANGKA RT. 1/3 KAB. BANYUMAS
2756 1100439831 NASUKHA SAMSURI KAIYUN 10/12/1965 LERAN RT 002 RW 002 SLUKE KAB. REMBANG
2757 1100439832 MUKHSINUN 23/07/1968 PERUM GRAHA PURNAWIRA NO 153 RT03 RW 05 KAB. PURBALINGGA
2758 1100439833 TEGUH HERI SUSANTO, SP 14/02/1970 JL. LOMPO BATANG 48 RT 05 RW 023 KOTA SURAKARTA
2759 1100439835 INDARTI WIDAYATI, SE 05/09/1972 JL. LOMPO BATANG 48 RT.05 RW.23 KOTA SURAKARTA
2760 1100439838 SITI MAGHFIROH 16/08/1973 PERUM GRAHA PURNAWIRA NO 153 RT03 RW 05 KAB. PURBALINGGA
2761 1100439839 SRI NOPIYANTI 05/11/1974 JL. GAMBYONG 5 F.122/P4A RT.07/11 KOTA SEMARANG
2762 1100439841 SARMIN 11/10/1968 BATURSARI RT.02/02 KAB. DEMAK
2763 1100439843 MOHAMAD KOMARUDDIN 10/04/1968 KAMPLOK RT 03 RW 01 KAB. KARANGANYAR
2764 1100439844 TOPIKOH 01/02/1979 KALIGANGSA WETAN RT.03/02 BREBES KAB. BREBES
2765 1100439845 SUWARNI 07/05/1974 KAMPLOK RT 03 RW 01 KAB. KARANGANYAR
2766 1100439846 SATIMAH 23/11/1964 BATURSARI RT.02/02 KAB. DEMAK
2767 1100439847 PUJI SUHARNI 24/12/1977 KAMPLOK RT 04 RW 01 KAB. KARANGANYAR
2768 1100439848 FATKHURI 02/11/1972 KALIGANGSA WETAN RT.03/02 BREBES KAB. BREBES
2769 1100439849 MOH ZUBED HUSEN 11/04/1968 KAMPLOK RT 04 RW 01 KAB. KARANGANYAR
2770 1100439851 SUGINO 04/06/1964 BANGUNSARI RT 01 RW XI KAB. KARANGANYAR
2771 1100439853 MUJIWATI RAME SANTOSO 01/01/1971 JATI WETAN RT 05 RW 02 KAB. KUDUS
2772 1100439857 BADARUDIN 08/07/1964 GULI LOR RT 02 RW 03 KAB. BOYOLALI
2773 1100439860 SRI SUWARNI 01/09/1958 TEGALREJO RT.03/RW.02 KAB. SUKOHARJO
2774 1100439862 JAMINATUN 20/06/1970 GULI LOR RT 02 RW 03 KAB. BOYOLALI
2775 1100439863 WAGINAH 31/12/1957 MANTINGAN 03/09 KAB. JEPARA
2776 1100439864 EKO RASMIYANTO RAMELAN 04/06/1969 KAUMAN 01/03 KAB. JEPARA
2777 1100439866 DENY LISTYOWATIE SARTONO 24/06/1971 KAUMAN 01/03 KAB. JEPARA
2778 1100439867 FATIMAH ABDUL MANAN SAHRI 26/01/1978 KALIPUCANG WETAN 04/02 KAB. JEPARA
2779 1100439868 AHMADI LATIF KIJAN 12/05/1969 KALIPUCANG WETAN 04/02 KAB. JEPARA
2780 1100439869 TRININGSIH SUKARDI SUDARMO 09/01/1975 WELAHAN 04/01 KAB. JEPARA
2781 1100439871 SLAMET RIYADI KAYATUN 30/06/1970 WELAHAN 04/01 KAB. JEPARA
2782 1100439874 ISTIQOMAH 17/07/1978 JL KLAPA SAWIT 36 RT02 RW01 KAB. CILACAP
2783 1100439876 AKHNANTO KUNTADI 13/08/1991 DK. KEPUH DUKUH RT.01 RW.01 ARJOWINANGUNKAB. KEBUMEN
2784 1100439878 ATIK HERAWATI ISTIYARINI 20/10/1976 DEPOK RT. 02 RW. 06 KAB. KARANGANYAR
2785 1100439879 SURANTO, [Link] 16/05/1966 DEPOK RT. 02 RW. 06 KAB. KARANGANYAR
2786 1100439880 WISATU SETIATIEK 24/04/1973 JL. MERAK GAMPING NO. 41 RT.02/04 KAB. SUKOHARJO
2787 1100439881 SUMARNI ATMO DIMEJO 10/04/1963 ARJOWINANGUN RT. 01. 01 KAB. KEBUMEN
2788 1100439882 IBNU BUDI WIBOWO 16/11/1972 JL. MERAK NO. 41 GAMPING RT. 02/04 KAB. SUKOHARJO
2789 1100439885 SADIMIN 27/06/1966 PLOSOREJO RT 06 RW 02 KAB. KARANGANYAR
2790 1100439886 ARIEF PURWANTO ABDUL DJALIL 03/05/1966 GEMIRING KIDUL RT.003/002 KAB. JEPARA
2791 1100439887 SITI INGANAH 15/08/1957 NGENDEN RT03 RW08 KAB. TEMANGGUNG
2792 1100439888 SITI KHAEROMAH 07/08/1966 GANG AMARTA RT.02/RW.03 KAB. KENDAL
2793 1100439889 ZAHROTUN NI'MAH ACHMADI 05/09/1970 GEMIRING KIDUL RT.003/002 KAB. JEPARA
2794 1100439891 AGUS MARYANTO 20/12/1957 GANG AMARTA RT.02/RW.03 KAB. KENDAL
2795 1100439901 BETTY WIDAYARSI 16/01/1970 GETAS RT 21 KAB. SRAGEN
2796 1100439902 SAMIRAH SUMARJO MUSTAWI 25/03/1959 ARGOPENI RT. 01 .05 KAB. KEBUMEN
2797 1100439903 MUSINI 11/05/1971 KEBONAGUNG RT.03 RW.01 KAB. SEMARANG
2798 1100439904 MARIYO 26/03/1964 GETAS RT 21 KAB. SRAGEN
2799 1100439906 UMI FATMAH 19/11/1962 KALIBEBER RT 02 RW 05 KAB. WONOSOBO
2800 1100439907 ABDUL JALIL 05/11/1957 KRAJAN 02/03 KAB. GROBOGAN
2801 1100439908 SURANTO 21/06/1966 BATU KIDUL RT. 01 RW. 06 KAB. WONOGIRI
2802 1100439909 SULARMI 29/09/1972 BATU KIDUL RT. 01 RW. 06 KAB. WONOGIRI
2803 1100439910 EDY EKO WIDJATI 04/04/1966 MLATI NOROWITO RT 01 RW 07 KAB. KUDUS
2804 1100439911 MULYADI 18/04/1970 KETITANG RT 03 RW 01 KAB. BOYOLALI
2805 1100439913 SITI MAHMUDAH 17/03/1980 KETITANG RT 003 RW 001 KAB. BOYOLALI
2806 1100439914 ULFIYATI MAS'AN NGARMO 01/03/1966 MLATI NOROWITO RT 01 RW 07 KAB. KUDUS
2807 1100439917 ANGGA SAPUTRA 28/08/1993 GEMULAK RT.01/01 KAB. DEMAK
2808 1100439918 RUDI HARTONO 06/11/1976 JL. GAMBYONG 5 F.122/P4A RT.07/11 KOTA SEMARANG
2809 1100439924 MADSAHIDIN 10/07/1957 JL BIMA 716 RT19 RW06 KAB. CILACAP
2810 1100439926 PARSIYAH 15/06/1967 JL BIMA RT19 RW06 KAB. CILACAP
2811 1100439927 KHOLIFAH 01/07/1957 JATIBARANG KIDUL RT. 01/08 JATIBARANG KAB. BREBES
NO NO. PORSI NAMA TANGGAL LAHIR ALAMAT KAB/KOTA KETERANGAN
2812 1100439930 NURKHIKMAH 04/08/1975 BANJARATMA RT.06/07 BULAKAMBA KAB. BREBES
2813 1100439932 BUNASIR 05/05/1959 PAGEJUGAN RT.001/RW.04 BREBES KAB. BREBES
2814 1100439934 LISTANTI 10/02/1966 PAGEJUGAN RT.01/RW.04 BREBES KAB. BREBES
2815 1100439936 AGUS BUDI ARIYANTO 12/05/1981 NGENDEN RT03 RW08 KAB. TEMANGGUNG
2816 1100439937 SITI MARYAM MURSIDI MADRUYAT 06/09/1958 KALIREJO RT. 02. 02 KAB. KEBUMEN
2817 1100439939 NUR MUHAMMAD DJAMALUDIN NURKHOLIK 09/11/1979 LOGEDE RT. 03. 05 KAB. KEBUMEN
2818 1100439940 SURURI AHMAD SULBI 10/10/1961 TRANGKIL 1/5 TRANGKIL KAB. PATI
2819 1100439941 RIYAMAH 05/06/1976 KARANGBOYO RT.02/RW.02 KAB. KENDAL
2820 1100439942 RAHAYU SAHESTI 12/06/1966 JL. MANGGA UTARA NO.80 PURIN RT.01/RW.08 KAB. KENDAL
2821 1100439945 SUPA'ATI PAEMAN SUGATI 02/03/1965 TRANGKIL 1/5 TRANGKIL KAB. PATI
2822 1100439947 BAMBANG SUNARTO 03/03/1966 GENTAN 01/07 KAB. MAGELANG
2823 1100439948 INDRIYATI 19/04/1961 [Link] GALIH RT.07/02 TIRTO KAB. PEKALONGAN
2824 1100439949 MUSLIKAH ABDUL MALIK 03/01/1960 SEMERAK 5/1 MARGOYOSO KAB. PATI
2825 1100439950 ABDUL AZIZ AKBAR 13/09/1984 [Link] GALIH RT.07/02 TIRTO KAB. PEKALONGAN
2826 1100439951 SUHARTONO 26/12/1965 JL. MANGGA UTARA NO.80 PURIN RT.01/RW.08 KAB. KENDAL
2827 1100439953 AGUNG PRASETYO 21/01/1987 [Link] GALIH RT.07/02 TIRTO KAB. PEKALONGAN
2828 1100439954 SUTINI 09/04/1965 BALEKAMBANG RT 15 RW 04 KAB. WONOSOBO
2829 1100439955 AGUS ANSORI 12/09/1968 JOGO RT 03/002 GEMULAK SAYUNG KAB. DEMAK
2830 1100439961 TRIANA NINGSIH HADI 01/01/1984 KERSO 01/02 KAB. JEPARA
2831 1100439962 SETYOWATI PURWANINGRUM 16/02/1976 JL.P PUGER NO.88 03/07 KAB. GROBOGAN
2832 1100439964 ASADAH 15/05/1977 KP. CITRAN RT.05/RW.11 KAB. KENDAL
2833 1100439965 HARIS BAKHTIAR SALAM 10/01/1986 [Link] RT.08/03 SAMBOREJO TIRTO KAB. PEKALONGAN
2834 1100439966 SUTRISNO SULIYONO SUTRIMO 21/09/1982 KERSO 01/02 KAB. JEPARA
2835 1100439967 AGUS DWI PRASETYO 14/08/1973 JL.P PUGER NO.88 03/07 KAB. GROBOGAN
2836 1100439968 ADHIAS GUMALA 17/01/1978 SIDOMUKTI RT 03 RW 06 KAB. WONOSOBO
2837 1100439969 ATIK HANDAYANI 26/01/1976 SIDOMUKTI RT 03 RW 06 KAB. WONOSOBO
2838 1100439970 SARMIJAN SALIYO SARMINAH 18/07/1957 KARANGREJO 1/2 PUCAKWANGI KAB. PATI
2839 1100439972 SUWARNI KARDI SUCIATI 14/01/1966 KARABAN 2/7 GABUS KAB. PATI
2840 1100439973 LUKMAN HAKIM 18/05/1968 [Link] TENGAH I NO.2 RT.05 RW.02 KOTA SURAKARTA
2841 1100439975 DINA ERMAWATI 24/05/1970 JL. KALINGGA TENGAH I NO.02 RT.05 RW.02 KOTA SURAKARTA
2842 1100439979 SUMIYATI KARDI SUCIATI 01/07/1965 KARABAN 2/3 GABUS KAB. PATI
2843 1100439980 MIFTAH ADI WIBOWO 20/03/1966 KLAGEN 01/01 KAB. MAGELANG
2844 1100439981 DWI EDI ATI 26/09/1974 KLAGEN 01/01 KAB. MAGELANG
2845 1100439982 RIDWAN ROMLI SUTARIP 22/06/1966 SUKOHARJO 5/3 WEDARIJAKSA KAB. PATI
2846 1100439984 SUWANTI 20/12/1967 MLATI 03/01 KAB. GROBOGAN
2847 1100439985 MUNASIROH 14/03/1965 PR. PATAH BLOK T-5 RT.04/04 KAB. DEMAK
2848 1100439986 MUSLINAN BAMBANG PRIYONO 16/06/1960 PR. PATAH BLOK T-5 RT.04/04 KAB. DEMAK
2849 1100439987 INDARSIH YUNININGRUM DJUWAINI 11/06/1974 SUKOHARJO 5/3 WEDARIJAKSA KAB. PATI
2850 1100439988 SULASTRI MOH ADAB 22/02/1971 TANJUNGREJO 22/6 MARGOYOSO KAB. PATI
2851 1100439989 IMAM SOPYAN KHAMBALI 01/02/1970 SUKOLILO 4/7 SUKOLILO KAB. PATI
2852 1100439990 ABDUL GHONI ISMAIL 10/10/1966 TANJUNGREJO 22/6 MARGOYOSO KAB. PATI
2853 1100439991 AKILAH TARYADI FATIMAH 12/05/1972 SUKOLILO 4 /7 SUKOLILO KAB. PATI
2854 1100439992 SLAMET DAIMUN 01/02/1963 MRISI 05/03 KAB. GROBOGAN
2855 1100439994 KHOLIFAH 23/03/1964 PERUM DEPKES A 4 / 18 RT. 02 RW. 13 KOTA MAGELANG
2856 1100439995 PUJI 06/08/1965 PENIK RT. 02 RW. 054 KAB. KARANGANYAR
2857 1100439997 SAKEM 13/02/1968 PENIK RT. 02 RW. 05 KAB. KARANGANYAR
2858 1100439999 SAFAAH ASNAWI SITI RUKAYAH 12/08/1960 SUKOLILO 2/2 SUKOLILO KAB. PATI
2859 1100440001 MA'RUF ISLAMUDDIN 29/11/1966 SUNGKUL RT 13/05 KAB. SRAGEN
2860 1100440002 SUDARMANTO 02/07/1969 TEGALREJO 01/03 KAB. GROBOGAN
2861 1100440003 MUHAMMAD BAIHAKI MUHTADI 12/01/1980 MARGOYOSO RT.003/001 [Link] KAB. JEPARA
2862 1100440004 MUKASANAH 28/04/1972 TEGALREJO 01/03 KAB. GROBOGAN
2863 1100440005 MUTAMIMAH SAKRI KHANAFI 15/08/1960 MARGOYOSO RT.003/001 [Link] KAB. JEPARA
2864 1100440006 ABDULLAH AZIZ 03/04/1994 JEKETRO 02/03 KAB. GROBOGAN
2865 1100440007 AS'ADAH 07/12/1974 JEKETRO 02/03 KAB. GROBOGAN
2866 1100440008 SARONO SLAMET 09/08/1957 UJUNGGEDE RT.02 RW.04 KAB. PEMALANG
2867 1100440009 SRI MURYANTI 25/04/1964 UJUNGGEDE RT.02 RW.04 KAB. PEMALANG
2868 1100440011 AMAT BAROZI 20/11/1960 [Link] RT.03/01 DORO KAB. PEKALONGAN
2869 1100440012 KARTI MUHASIH 11/06/1972 SILUMBUNG RT.03/01 DORO KAB. PEKALONGAN
2870 1100440016 DARYANI 12/05/1958 BENDO RT 11 KAB. SRAGEN
2871 1100440021 SITI ROILAH MOHAMAD ISMAIL 10/11/1958 TANJUNGSARI RT. 01. 01 KAB. KEBUMEN
2872 1100440023 MUSTATI 17/11/1969 DUSUN LEREP RT 002 / RW 002 KAB. KEBUMEN
2873 1100440024 [Link] KUSUMOWATI 18/01/1958 TRUNOJOYO V/4 RT.02/17 KOTA SEMARANG
2874 1100440025 SOLEHAN SOBARI DITA 25/02/1960 KARANGSARI RT. 02. 02 KAB. KEBUMEN
2875 1100440031 M. SHOLIH SYAFI'I 24/07/1964 TLOGOSARI WETAN RT.09/03 KOTA SEMARANG
2876 1100440032 YUWONO 01/06/1958 SENDEN RT 08 RW 02 KAB. BOYOLALI
2877 1100440033 SUKANDAR BASRI AJI 11/12/1960 WONOKERTO RT 001 RW 006 SALE KAB. REMBANG
2878 1100440034 MUSTAGHFIROH 23/03/1969 TLOGOSARI WETAN RT.09/03 KOTA SEMARANG
2879 1100440035 NINIK PREGI RAHAYU 03/08/1975 SENDEN RT 08 RW 02 KAB. BOYOLALI
2880 1100440036 SITI SUDARYATI 15/09/1969 BANDARAN TIMUR RT.05/01 BANDARJO KAB. SEMARANG
2881 1100440037 BRENTI NASRUN JOYO 01/07/1964 WONOKERTO RT 001 RW 006 SALE KAB. REMBANG
2882 1100440039 TITIK WIJAYANTI 10/06/1975 KEBONSARI RT.01/RW.05 KAB. KENDAL
2883 1100440040 ISYANTO 16/01/1974 KEBONSARI RT.01/RW.05 KAB. KENDAL
2884 1100440044 SUKARSINI 12/08/1970 NGEBUM RT.03/RW.07 KAB. KENDAL
2885 1100440045 HARTONO TARJO 20/06/1966 SIRONGGE RT 002/008 KAB. BANJARNEGARA
2886 1100440048 SARI PONI MATKASAN 01/07/1961 PETEKEYAN RT.007/002 KAB. JEPARA
2887 1100440049 MOMO HARMONO 16/02/1977 SIJERUK RT 006/002 KAB. BANJARNEGARA
2888 1100440050 RATIMAH 12/11/1971 SIJERUK. RT. 004/002 KAB. BANJARNEGARA
2889 1100440052 SARMO 14/03/1962 KALIURIP RT.04 RW.03 KAB. BANJARNEGARA
2890 1100440054 NUR ROSIDAH LAILIYAH 17/05/1982 JL. SRIGUNTING VI NO.14 RT.05 RW.11 GREMET KAB. SUKOHARJO
2891 1100440055 SIH RUMANTI 31/12/1959 REJO WINANGUN RT 17/06 KAB. SRAGEN
2892 1100440056 TOHARI 19/10/1960 PENGGARON KIDUL RT.01/02 KOTA SEMARANG
2893 1100440059 SUWITO 20/12/1972 NGAWEN RT 02 RW 05 KAB. BLORA
2894 1100440060 SURONO HADIWINOTO 20/06/1963 DK MANGUNAN RT 02/02 KAB. SUKOHARJO
2895 1100440062 AGUS RIYADI 13/02/1964 JL. ADE IRMA SURYANI RT.02 RW.05 KAB. WONOGIRI
2896 1100440063 KUSTIYAH 19/03/1967 PENGGARON KIDUL RT.01/02 KOTA SEMARANG
2897 1100440065 MAFRUBA 05/02/1964 LUWUNGRAGI RT.01/08 BULAKAMBA KAB. BREBES
2898 1100440066 DARMAWAN ERITANTI 16/10/1973 NGAWEN RT 02 RW 05 KAB. BLORA
2899 1100440067 ZAETUN 16/05/1969 LUWUNGRAGI RT.01/08 BULAKAMBA KAB. BREBES
2900 1100440068 SUKARNI 05/02/1962 DS. PURWOSARI RT 01 RW 01 KAB. BLORA
2901 1100440069 SUHARTINI 22/08/1964 DK MANGUNAN RT 02/02 KAB. SUKOHARJO
2902 1100440073 SETYOWATI 15/05/1965 JL. ADE IRMA SURYANI RT. 02 RW. 05 KAB. WONOGIRI
2903 1100440082 TARTO 09/03/1970 POKAKAN RT.02/RW.04 KAB. SUKOHARJO
2904 1100440084 SYAIFUL ANAM 13/04/1976 KURUNG INDAH 01/01 KAB. KLATEN
2905 1100440085 SRIWATI 01/07/1970 PENGALUSAN RT 07 RW 02 KAB. PURBALINGGA
2906 1100440086 HENI LUKMAWATI 25/01/1977 POKAKAN RT.02/RW.04 KAB. SUKOHARJO
2907 1100440088 SUTARNO 20/09/1958 SOKANANDI RT 003 RW 002 KAB. BANJARNEGARA
2908 1100440090 NIHA 20/04/1980 KURUNG INDAH 01/01 KAB. KLATEN
2909 1100440091 AJI SUTARSO 01/07/1967 PENGALUSAN RT 07 RW 02 KAB. PURBALINGGA
2910 1100440092 MATSRINGAH 03/04/1964 SOKANANDI RT 003 RTW 002 KAB. BANJARNEGARA
2911 1100440096 SYA' RONY 13/11/1978 DSN. KRAJAN KIDUL RT.03/05 JEPANGPAKIS JATIKAB. KUDUS
2912 1100440098 SUTARTI 15/01/1962 JETIS RT.03/RW.06 KAB. SUKOHARJO
2913 1100440099 SRI SAINI PARMAN 18/05/1960 JEPANGPAKIS RT 03 RW 05 KAB. KUDUS
2914 1100440104 WAGIMIN 03/08/1964 JETIS RT. 03/06 KAB. SUKOHARJO
2915 1100440107 ABD. SALAM KASTUR SUMO 17/03/1964 GILIS RT 008 RW 002 SARANG KAB. REMBANG
2916 1100440109 KUMARI SOEKARNO PASI 02/01/1964 GILIS RT 007 RW 002 SARANG KAB. REMBANG
2917 1100440110 SRI SUMARNI 06/06/1963 PANDES 60/17 KAB. KLATEN
2918 1100440112 KUNDARNO 01/06/1959 TLOGOREJO RT.01/11 KAB. DEMAK
2919 1100440113 SITI MUYAROAH 12/04/1961 TLOGOREJO RT.01/11 KAB. DEMAK
2920 1100440114 SITI AMINATURROHMAH 17/04/1966 KANDANGAN 02/05 KAB. GROBOGAN
2921 1100440115 SUSTI NAFINGAH 09/04/1960 KLEGEN RT.01 RW.09 KAB. MAGELANG
2922 1100440116 BARI BASHORI 15/05/1958 BOPONG 02/05 KAB. GROBOGAN
2923 1100440117 UMAR DAWAM 07/12/1960 SIDAKANGEN RT 002 RW 003 KAB. BANJARNEGARA
2924 1100440125 KHOIRUL UMAM 01/01/1972 NGADIREJO IV RT. 24/12 KAB. MAGELANG
2925 1100440126 RUBAIYAH 04/11/1959 AROMASARI TIMUR RT.08/RW.01 KAB. KENDAL
2926 1100440129 SURIPTO 29/04/1960 AROMASARI TIMUR RT.08/RW.01 KAB. KENDAL
2927 1100440131 IHDA RAHMAWATI ZAHROTUN NISSA' 13/08/1977 JOMPONG RT 05/04 KAB. BLORA
2928 1100440135 ABDUL HARIS, SE 10/11/1970 JOMPONG RT 05/04 KAB. BLORA
2929 1100440136 SRIYATI 15/02/1963 JL. CEMPAKA II NO.12 RT.03/05 GENUK KAB. SEMARANG
2930 1100440137 MADJRO 18/08/1971 GONDANG RT.05/02 WONOPRINGGO KAB. PEKALONGAN
2931 1100440138 SITI AMINAH 06/07/1960 DSN. GEMAH RT.03/02 PAKIS BRINGIN KAB. SEMARANG
2932 1100440139 SUHARTO 08/02/1966 GONDANG RT.05/02 WONOPRINGGO KAB. PEKALONGAN
2933 1100440141 INDRAWATI 27/08/1967 GENTAN 01/07 KAB. MAGELANG
2934 1100440147 JUWARI 31/12/1958 PACITRAN, RT.01/RW.03 KAB. TEMANGGUNG
2935 1100440155 SUGIMIN 11/07/1959 TARAMAN RT 01 KAB. SRAGEN
2936 1100440156 KASNI 15/05/1963 TARAMAN RT 01 KAB. SRAGEN
2937 1100440160 NUCI ROMLI 23/09/1961 KUBANGJATI RT.02/05 KETANGGUNG KAB. BREBES
2938 1100440161 HANIFAH 18/06/1968 KUBANGJATI RT. 02/05 KETANGGUNGAN KAB. BREBES
2939 1100440164 ROHMAN NAWAWI 28/07/1976 TAHUNAN 01/04 KAB. GROBOGAN
NO NO. PORSI NAMA TANGGAL LAHIR ALAMAT KAB/KOTA KETERANGAN
2940 1100440165 DASMUDI DANI MARTO 10/07/1960 GILIS RT 007 RW 002 SARANG KAB. REMBANG
2941 1100440167 MAS'AMAH 01/05/1971 SEMBUNGHARJO RT.03/05 KOTA SEMARANG
2942 1100440168 ALI SYAHID AW 24/07/1966 SEMBUNGHARJO RT.03/05 KOTA SEMARANG
2943 1100440171 NABILAH QISTHI KHAIRINA 05/09/1996 DUSUN REJOSARI RT 001 / RW 003 KAB. TEMANGGUNG
2944 1100440172 SITI NUR LAILA 26/04/1975 PENDEM RT.24 RW12 KAB. MAGELANG
2945 1100440173 ABDUL SYAKUR 06/10/1961 REJOSARI, RT.01/RW.03 KAB. TEMANGGUNG
2946 1100440174 ABD. KHANDIK KANDAR 27/10/1969 KEMBANG 7/2 DUKUHSETI KAB. PATI
2947 1100440176 SUTAMI SUBADI SUKARTI 15/07/1975 KEMBANG 7/2 DUKUHSETI KAB. PATI
2948 1100440177 TI'ADAH 12/10/1961 DANGKEL RT 05 RW 01 KAB. TEMANGGUNG
2949 1100440181 SUTARMI 04/06/1973 PUCUKSARI RT.03/RW.01 KAB. KENDAL
2950 1100440183 HANIF FARCHANI 22/06/1984 SUDIMORO 24/11 KAB. KLATEN
2951 1100440184 MUZAMIL 27/11/1967 PUCUKSARI RT.03/RW.01 KAB. KENDAL
2952 1100440185 SAPTO KUNTJORO ARGO 27/12/1958 DANGKEL RT 05 RW 01 KAB. TEMANGGUNG
2953 1100440186 KHUSNI FAJAR M 14/05/1986 SUDIMORO 24/11 KAB. KLATEN
2954 1100440187 SRI WULAN 31/10/1963 TIDAR DUDAN RT 02 RW 11 KOTA MAGELANG
2955 1100440189 ALFIAH YUNI ASTUTI 23/06/1988 SUDIMORO 24/11 KAB. KLATEN
2956 1100440190 WALUYO 19/05/1960 TIDAR DUDAN RT 02 RW 11 KOTA MAGELANG
2957 1100440194 ADHI SUTANTIYO 14/07/1982 PERUM PESONA GADING BLOK L3 22A RT 03 RW KAB.
17 PEMALANG
2958 1100440196 WALUYO MENOT 01/09/1970 ANGGRUNGGONDOK RT 08 RW 04 KAB. WONOSOBO
2959 1100440199 SUTRIMO 10/07/1960 DUSUN KRANJAN RT 04 RW01 KAB. PEMALANG
2960 1100440201 HUDIYATUN 01/02/1959 DUSUN KRANJAN RT 04 RW 01 KAB. PEMALANG
2961 1100440204 DWI WIYONO 12/06/1967 WONOKERSO [Link] RT.03 RW.03 KAB. BATANG
2962 1100440205 PANCA IDA SUSWATI 05/09/1973 [Link] TENGAH 15/E.572 RT.01/04 KOTA SEMARANG
2963 1100440206 MOH. FAOZAN 13/08/1971 KAUMAN [Link] NO.160 RT.07 RW.06 KAB. BATANG
2964 1100440207 SAINAH 24/01/1972 WONOKERSO [Link] RT.03 RW.03 KAB. BATANG
2965 1100440209 MUH RODHI ACHMADI 14/01/1970 JL. PADI TENGAH XV/E-572 RT.01/04 KOTA SEMARANG
2966 1100440210 M. MUSLIH 21/12/1958 PEGADEN TENGAH RT.04/02 WONOPRINGGO KAB. PEKALONGAN
2967 1100440211 ULFAH 17/05/1959 PEGADEN TENGAH RT.04/02 WONOPRINGGO KAB. PEKALONGAN
2968 1100440212 BUANG NURUDIN 05/03/1963 [Link] GUNUNG RT.06/03 DOROREJO DORO KAB. PEKALONGAN
2969 1100440213 URIPAH 11/08/1968 [Link] RT.06/03 DOROREJO DORO KAB. PEKALONGAN
2970 1100440214 NURSIYAH 22/01/1967 TAMBAN 02/01 KAB. GROBOGAN
2971 1100440215 RUSLAN 31/12/1960 TAMBAN 02/01 KAB. GROBOGAN
2972 1100440216 DAMI 18/09/1963 KRANGKONG 02/05 KAB. GROBOGAN
2973 1100440217 TARMIDI 31/12/1957 KRANGKONG 02/05 KAB. GROBOGAN
2974 1100440219 SLAMET PRIHATIN 26/11/1965 MLIPAK RT.04 RW.01 KAB. WONOSOBO
2975 1100440222 SITI SALAMAH ATMO TOWO 18/12/1968 SALE RT 004 RW 006 SALE KAB. REMBANG
2976 1100440223 PRAYOGO WIDODO KASMIRUN 09/08/1964 SALE RT 004 RW 006 SALE KAB. REMBANG
2977 1100440224 UFIYAH 20/11/1974 MANDUNG RT 03 RW 01 KAB. DEMAK
2978 1100440225 AKHMAD KHARIS 12/08/1971 MANDUNG RT 03 RW 01 KAB. DEMAK
2979 1100440228 ISTIKOMAH 01/02/1976 DK. JOGOPRONO KOTA SEMARANG
2980 1100440231 TITIEN SUPRIHATIN UZAIRI 02/07/1959 DADIREJO 6/1 MARGOREJO KAB. PATI
2981 1100440233 SUDARSO SASTRO MIHARJO 16/04/1961 MANGUNREKSO 2/2 TAMBAKROMO KAB. PATI
2982 1100440236 NOOR HAYATUN AHMAD 15/11/1963 MANGUNREKSO 2/2 TAMBAKROMO KAB. PATI
2983 1100440239 SRIYANTO 31/08/1969 KALIWINGKO RT.01/RW.01 KAB. SUKOHARJO
2984 1100440240 SELAMET 07/08/1961 TEGALARUM RT.01/01 KAB. DEMAK
2985 1100440241 TEGUH RIPTO PRIYONO 20/04/1966 JEPAT KIDUL 4/2 TAYU KAB. PATI
2986 1100440242 KAMIDAH 25/11/1967 TEGALARUM RT.01/01 KAB. DEMAK
2987 1100440243 UMI SALAMAH 19/08/1977 KALIWINGKO RT.01/RW.01 KAB. SUKOHARJO
2988 1100440244 JUMIYATI SUNAWI SUNARTI 15/06/1970 JEPAT KIDUL 4/2 TAYU KAB. PATI
2989 1100440247 ARINA PRIHATI 25/04/1961 MANGGISAN ASRI RT.05 RW.05 KAB. WONOSOBO
2990 1100440248 MUCH WAHIDIN 06/03/1959 MANGGISAN ASRI RT 05 RW 05 KAB. WONOSOBO
2991 1100440255 ZUBAIDAH YA'KUB NURHADI 18/05/1971 KEBLORAN RT 003 RW 002 KRAGAN KAB. REMBANG
2992 1100440257 ACHMAD SANURI SANAWI 18/04/1963 KEBLORAN RT 003 RW 002 KRAGAN KAB. REMBANG
2993 1100440258 SUNARSIH JARI ALI 23/07/1972 PELANG RT 001 RW 007 SARANG KAB. REMBANG
2994 1100440260 SUWIGNYO TUMIJAN SUBIAH SPD 26/12/1961 MOJOLUHUR 8/1 JAKEN KAB. PATI
2995 1100440261 HAMDI MASKUN KAELANI 16/10/1964 PELANG RT 001 RW 007 SARANG KAB. REMBANG
2996 1100440262 SITI MAEMUNAH 19/04/1969 TAMANSARI RT 02 RW 17 KAB. PURBALINGGA
2997 1100440263 MURSIH TASNAWI RUKAYAH SPD 20/08/1962 MOJOLUHUR 8/1 JAKEN KAB. PATI
2998 1100440264 SAHLAN 16/12/1962 TAMANSARI RT 02 RW 17 KAB. PURBALINGGA
2999 1100440268 ROFIQOH 27/02/1963 DK KESASIH RT.01 RW.04 LIMPUNG KAB. BATANG
3000 1100440269 MARGONO 22/08/1965 [Link] WUNGU RT.02/02 SRAGI KAB. PEKALONGAN
3001 1100440270 YAYAH JUHAERIAH 13/11/1970 [Link] WUNGU RT.02/02 SRAGI KAB. PEKALONGAN
3002 1100440272 WALTINAH 12/02/1960 WATES RT04 RW01 KAB. TEMANGGUNG
3003 1100440273 ARI WIDIASTUTI 25/10/1963 JOMBORAN 03/16 KAB. MAGELANG
3004 1100440274 SUPRAYITNO 15/02/1960 JOMBORAN 03/16 KAB. MAGELANG
3005 1100440275 IRFAN 28/04/1969 NGENTAK 01/04 KAB. MAGELANG
3006 1100440276 ROHMI AZIZAH 12/03/1973 NGENTAK 01/04 KAB. MAGELANG
3007 1100440277 ATOK MUJAHIR 21/11/1980 JL. MUTIARA I NO.93 RT.03/03 KOTA SEMARANG
3008 1100440278 DEWI NURSETYOWATI 10/02/1981 DLIMAS 02/01 KAB. MAGELANG
3009 1100440279 MUNAWAROH 21/04/1962 SALAKAN RT.20 RW.03 KAB. MAGELANG
3010 1100440281 NUR AZIZ DJOKO SISWANTO 18/11/1969 MAJASTO RT. 01/01 KAB. SUKOHARJO
3011 1100440282 LIANA ARIADINI 13/08/1980 JL. MUTIARA I NO.93 RT.03/03 KOTA SEMARANG
3012 1100440283 TASRIPAH KAPRAWI MUSTAJAB 18/01/1974 TAWANGREJO RT 002 RW 001 SARANG KAB. REMBANG
3013 1100440284 MOCHAMAD SHOLIHIN DIRUN 09/04/1970 TAWANGREJO RT 002 RW 001 SARANG KAB. REMBANG
3014 1100440285 WAHYUNI 26/10/1970 MAJASTO RT. 02/04 KAB. SUKOHARJO
3015 1100440286 HASYIM ASHAR 31/12/1957 NGADISARI RT 01 RW 07 KAB. WONOSOBO
3016 1100440290 SUJIMAN 28/10/1964 DK. GABENG RT.03/RW.01 KAB. SUKOHARJO
3017 1100440293 EDI KUSUMA PRABANTORO 09/08/1993 REJOSARI 3 006/003 KAB. MAGELANG
3018 1100440295 WIDJANG BUDI SANTOSO 12/11/1968 BUKIT BERINGIN LESTARI III/B.79 RT.13/14 KOTA SEMARANG
3019 1100440296 LISTYOKASNI 19/09/1967 DK. GABENG RT. 03/01 KAB. SUKOHARJO
3020 1100440300 SUNAEJI 01/05/1973 DS. LEYANGAN RT.02/01 LEYANGAN UNGARAN KAB. SEMARANG
3021 1100440301 SITI MAONAH 19/09/1971 [Link] RT.02/01 LEYANGAN KAB. SEMARANG
3022 1100440304 SUSILOWATI AGUSTINAH 11/08/1963 KP. PERENGSARI RT.04/03 KOTA SEMARANG
3023 1100440305 KUSNI 17/11/1958 JL. CANDI KENCANA VIII C-07 RT.02/08 KOTA SEMARANG
3024 1100440306 INDRIYANI 18/12/1974 BUKIT BERINGIN LESTARI III/B.79 RT.13/14 KOTA SEMARANG
3025 1100440310 WESTY WIDYASTUTI,AMD 17/05/1975 [Link] KUKILO MUKTI III/40 RT.08/06 KOTA SEMARANG
3026 1100440311 SOPIYATUN 18/01/1964 BULUGEDE RT.04/RW.03 KAB. KENDAL
3027 1100440312 BINTI MADHFUROH MAHFUD 09/11/1978 SENGKAN JAPEREJO RT 001 RW 002 PAMOTAN KAB. REMBANG
3028 1100440313 SUGOTO ABDUL GHOFUR PALIYO 24/06/1970 SENGKAN JAPEREJO RT 001 RW 002 PAMOTAN KAB. REMBANG
3029 1100440314 ABDUL JALIL 17/09/1972 [Link] KUKILO MUKTI III/40 RT.08/06 KOTA SEMARANG
3030 1100440315 PADINO HADI PRANOTO 17/07/1958 BULUGEDE RT.04/RW.03 KAB. KENDAL
3031 1100440317 FATKHUR ROHIM 26/07/1989 DUSUN TAMBAKSARI RT.02/RW.03 KAB. KENDAL
3032 1100440322 ABDUL ROSYID 13/06/1972 SIKUNANG RT.07RW.01 KAB. WONOSOBO
3033 1100440323 MUHAMMAD UJIANTO 27/03/1971 JETIS 13/05 KAB. KLATEN
3034 1100440324 KHOTIMAH 11/09/1974 SIKUNANG RT.07 RW.01 KAB. WONOSOBO
3035 1100440326 UCIK KIRANA, SE 15/04/1984 JL. HASYIM ASHARI NO.7 RT 02 RW 01 KOTA SURAKARTA
3036 1100440327 ROHADI SWASONO 05/05/1963 GEDANGAN RT 03 RW 06 KAB. WONOSOBO
3037 1100440328 ENDAH RAHMAWATI 29/04/1958 JL. HASYIM ASHARI NO.07 RT.02 RW.01 KOTA SURAKARTA
3038 1100440329 MI'ATIN 27/03/1980 SIKUNANG RT 05 RW 02 KAB. WONOSOBO
3039 1100440331 SUWARNI 30/12/1964 DSN. BARISAN 03/13 KAB. MAGELANG
3040 1100440332 PARSIYATUN 20/07/1970 GEDANGAN RT.03 RW.06 KAB. WONOSOBO
3041 1100440334 KOLIF IMRONI SYAFI'I 31/08/1980 TAWANGREJO 4/4 WINONG KAB. PATI
3042 1100440335 IKA RETNO DEWI PRASETYOWAHYUNI 21/06/1979 BOGOREJO RT 004 RW 003 SEDAN KAB. REMBANG
3043 1100440336 MOHAMMAD BADRUN USTADI 12/07/1970 BOGOREJO RT 004 RW 003 SEDAN KAB. REMBANG
3044 1100440340 TUTI WIDJI 25/10/1983 GEYER 04/01 KAB. GROBOGAN
3045 1100440342 ABDULLOH ARIF SHODIQIN 26/04/1986 BAKUNG RT 01 RW 04 KAB. DEMAK
3046 1100440343 SUGIMAN 12/06/1960 KEBON AGUNG RT 07 KAB. SRAGEN
3047 1100440344 EKA PRIMA DEWI 03/01/1986 BAKUNG RT.01/04 KAB. DEMAK
3048 1100440345 ULIYATUS SHOLIHAH MAKSUN 10/08/1982 TAWANGREJO 4/2 WINONG KAB. PATI
3049 1100440347 SUYAMTI 31/12/1958 JL. BOROBUDUR SELATAN RT.05/13 KOTA SEMARANG
3050 1100440349 HARTI 21/04/1971 KARANGANYAR 01/05 KAB. GROBOGAN
3051 1100440351 MAHFUD 01/02/1964 KARANGANYAR 01/05 KAB. GROBOGAN
3052 1100440356 NUNIK PURWANTI 03/07/1977 BAYANAN RT 13 KAB. SRAGEN
3053 1100440358 SURIPTO 17/01/1960 NGEMPLAK RT 01/01 KAB. PURWOREJO
3054 1100440359 YUDIAS ADE PUTRANTO 11/05/1988 [Link] BARAT NO.01 RT.01 RW.10 MAPAGAN
KAB.
LEREP
SEMARANG
3055 1100440361 SUGIMANTO 24/09/1972 BAYANAN RT 13 KAB. SRAGEN
3056 1100440362 SARWITO 18/11/1978 GEYER 04/01 KAB. GROBOGAN
3057 1100440364 JUWARIYAH 10/09/1963 KRAMAT RT.09/01 KAB. DEMAK
3058 1100440365 SUYANTO 07/11/1968 GEDONG RT 02 RW 07 KAB. WONOGIRI
3059 1100440367 SAKIJAN PARTO REJO 10/04/1964 SUMURPULE RT 008 RW 004 KRAGAN KAB. REMBANG
3060 1100440368 SRI ANAH MATURI MARKIJAN 07/09/1969 HONGGOSOCO RT.04 RW.01 KAB. KUDUS
3061 1100440370 RIDLO'AN KASRIPAN KASLAN 25/11/1964 HONGGOSOCO RT.04 RW.01 KAB. KUDUS
3062 1100440372 MAHMUDAH 07/09/1958 DSN DADAPAN RT.04/RW.04 KAB. KENDAL
3063 1100440376 ASROWI 07/10/1959 JATI LOR 01/05 KAB. MAGELANG
3064 1100440378 MARZIDAH 16/07/1960 LOGANDENG 01/02 KAB. MAGELANG
3065 1100440379 SITI JAMILATUN 23/11/1966 DUSUN GRAJEGAN RT.05/RW.02 KAB. KENDAL
3066 1100440380 RITA PUJI ASTUTI 18/09/1978 JLN. PEMUDA NO.147 BOJA RT.01/RW.04 KAB. KENDAL
3067 1100440383 SITI TOYIBAH 08/09/1969 JATI LOR 01/05 KAB. MAGELANG
NO NO. PORSI NAMA TANGGAL LAHIR ALAMAT KAB/KOTA KETERANGAN
3068 1100440384 SUROTO 13/03/1964 TEPUS KULON RT 02/02 KAB. PURWOREJO
3069 1100440386 LEGI MARSO SAMINAH 31/12/1958 KARABAN 2/3 GABUS KAB. PATI
3070 1100440390 MASLAKAH 13/05/1969 SIDOREJO RT.05/05 KAB. DEMAK
3071 1100440391 RIA KURNIYATI AGUSTINA 17/08/1986 JL. R. TARUNO NO.7A RT.001/RW.004 KAB. KENDAL
3072 1100440392 SYAIFUL RISDIANTO 10/02/1990 KETANDAN RT 002 / RW 003 KAB. KLATEN
3073 1100440393 ANSOR 17/06/1964 SIDOREJO RT.05/05 KAB. DEMAK
3074 1100440394 ZAENAB 13/04/1960 JL. [Link] NO.7 RT.01/RW.04 KAB. KENDAL
3075 1100440395 HARJO SANTOSO MADJI 05/03/1958 KAYEN 6/9 KAYEN KAB. PATI
3076 1100440397 TUGIYO KASANMUSTAR KETAWIKRAMA 06/07/1957 UNGARAN RT.01/07 KAB. KEBUMEN
3077 1100440398 UTAMI RETNONING SOEHARDI 28/11/1959 KAYEN 6/9 KAYEN KAB. PATI
3078 1100440404 SURIPAH SUPANDI DARSONO 01/07/1961 UNGARAN RT. 01. 07 KAB. KEBUMEN
3079 1100440410 UMI KULTUM 03/11/1979 KEBONAGUNG RT 07 KAB. SRAGEN
3080 1100440411 SUMIATUN 12/01/1979 [Link] TIMUR II/42A RT.01/02 KOTA SEMARANG
3081 1100440412 MURYATI 31/12/1966 KEBONAGUNG RT 07 KAB. SRAGEN
3082 1100440413 CHUMAIRIYYAH 07/05/1970 [Link] ROSYID-BUGEN RT.09/03 KOTA SEMARANG
3083 1100440415 YUDHO RISNANTO SARI 15/12/1983 DUKUHSETI 2/4 DUKUHSETI KAB. PATI
3084 1100440416 KHOLISON 06/06/1975 [Link] TIMUR II/42 A RT.01/02 KOTA SEMARANG
3085 1100440418 UBAIDULLAH 12/09/1966 [Link] ROSYID-BUGEN RT.09/03 KOTA SEMARANG
3086 1100440419 FRANS FERMANTO 22/11/1975 KALIJANGGEL RT 02 RW 01 KAB. WONOSOBO
3087 1100440420 UMI MARYAM 15/08/1982 KALIJANGGEL RT 02 RW 01 KAB. WONOSOBO
3088 1100440422 DOHIR 07/10/1964 CIKANDANG RT.02/07 KERSANA KAB. BREBES
3089 1100440425 SISWOTO 06/03/1967 DK. PLOSO RT 09/02 KAB. BLORA
3090 1100440428 SUNMUJI ROHMANIYAH 31/12/1967 KEMIRI 09/03 KAB. MAGELANG
3091 1100440429 DJUMAR 05/01/1961 KEMIRI RT.09 RW.03 KAB. MAGELANG
3092 1100440430 WIDHI PURWANINGSIH 03/11/1962 PEKUNCEN RT 05 RW IV KAB. BANYUMAS
3093 1100440431 SUWARNI PAIJAN DARMI 15/09/1958 TOMPOMULYO 2/2 BATANGAN KAB. PATI
3094 1100440435 TOHARUN 18/03/1970 JL SEMBRANI 07 RT05 RW07 KAB. CILACAP
3095 1100440436 SARTINAH 24/05/1971 JL SEMBRANI 07 RT05 RW07 KAB. CILACAP
3096 1100440439 JUMIYATI 10/10/1966 TEGAWARENG SENDANG III/74 A RT.05/04 KOTA SEMARANG
3097 1100440440 MARSANA, DRS 08/01/1962 PER. BUMI WNA MUKTI BLK I-1/6 RT.01/04 KOTA SEMARANG
3098 1100440442 RUKINI 07/07/1963 PUNDUNG GEDE RT 25 KAB. SRAGEN
3099 1100440444 EKO SULISTYONO 10/07/1986 BADRAN RT 28 KAB. SRAGEN
3100 1100440445 LASMINARSIH 10/07/1974 DK. PLOSO RT 09/02 KAB. BLORA
3101 1100440446 ENDANG ANGGRAENI 02/06/1969 JL. MEGARAYA 4/297 KOTA SEMARANG
3102 1100440447 BUDI PRIANDINI, DRA 24/04/1966 PER. BUMI WANA MUKTI BLK I-1/6 RT.01/04 KOTA SEMARANG
3103 1100440448 PRASETYO BUDI,DRS 15/07/1965 [Link] 4/297 RT.04/07 KOTA SEMARANG
3104 1100440449 SIRAT RIZHQI PURNAWATI 26/04/1986 SUDIMORO 24/11 KAB. KLATEN
3105 1100440452 ABDUL GHAFAR 09/02/1962 KURAHAN RT 016 RW 05 KAB. WONOSOBO
3106 1100440456 ROMKHASANAH 26/06/1975 CEPAGAN RT.11 RW.04 KAB. BATANG
3107 1100440457 MARSINAH 07/03/1966 KURAHAN RT.16 RW.05 KAB. WONOSOBO
3108 1100440458 MUSRIYAH 12/12/1968 JL KALIDONAN 118 RT04 RW14 KAB. CILACAP
3109 1100440459 ABDUL JALIL 28/08/1971 CEPAGAN RT.11 RW.04 KAB. BATANG
3110 1100440460 SLAMET MULYADI 11/05/1972 JL. GATOT SUBROTO NO. 122 RT. 22 RW. 3 KAB. CILACAP
3111 1100440461 HETI PUJI ASTUTI, [Link] 15/12/1978 CONDONGSARI RT 02/01 KAB. PURWOREJO
3112 1100440463 DADIONO, [Link] 17/06/1963 CONDONGSARI RT 02/01 KAB. PURWOREJO
3113 1100440464 ARIS PRIYADI 09/01/1975 JL. YOS SUDARSO RT. 15 RW. 04 KAB. CILACAP
3114 1100440465 SUTAJI SUJONO AMINAH 11/02/1972 PUNCEL 7/2 DUKUHSETI KAB. PATI
3115 1100440467 SARINAH 01/01/1972 GUNUNGGIANA RT 003 RW 003 KAB. BANJARNEGARA
3116 1100440468 KUSNUDIN 06/10/1962 KALITAPAS RT 01/01 KAB. PURWOREJO
3117 1100440470 WIANDARI 01/06/1969 JL. GATOT SUBROTO NO. 122 RT. 22 RW. 03 KAB. CILACAP
3118 1100440471 NUR INDAH SETYANINGSIH 14/03/1987 PUNCEL 7/2 DUKUHSETI KAB. PATI
3119 1100440473 CARLIM 12/12/1957 BAWANG WONOLOBO RT.04 RW.02 KAB. BATANG
3120 1100440474 SUGIARTI 18/12/1974 JL. JEND. SUDIRMAN NO. 17 RT. 05 RW. 04 KAB. CILACAP
3121 1100440475 MULYARI 27/12/1965 PRETEK RT.04 RW.02 KAB. BATANG
3122 1100440477 NURYATI 08/05/1979 PRETEK RT.04 RW.02 KAB. BATANG
3123 1100440479 MEGA WIDIASTUTY 26/05/1984 BANARAN KAB. BOYOLALI
3124 1100440480 LASMINI KUSIN SARIYONO 09/11/1965 GUWOSOBOKERTO RT.005/002 KAB. JEPARA
3125 1100440481 MANSYUR 01/08/1957 DSN. KRAJAN RT.04 RW.01 ASINAN KAB. SEMARANG
3126 1100440482 DWI HARTINI 17/01/1972 KARANGBAWANG RT. 3/2 KAB. BANYUMAS
3127 1100440485 ZAHROTUN NINGAMAH 24/05/1978 GUNUNG LURAH RT. 01 RW.06 KAB. BANYUMAS
3128 1100440486 SURTINI 11/04/1963 KARANGTENGAH RT. 4/6 KAB. BANYUMAS
3129 1100440487 KASBI SUKARDI MUSTARI 13/08/1961 GUWOSOBOKERTO RT.005/002 KAB. JEPARA
3130 1100440488 CASMITO 05/01/1963 GAMER RT. 4 RW. 2 KOTA PEKALONGAN
3131 1100440489 ROKHAENI 02/05/1974 JL. KAP. PATIMURA RT. 2 RW. 2 KOTA PEKALONGAN
3132 1100440490 SUDIRMAN 02/02/1962 KARANGTENGAH RT. 4/6 KAB. BANYUMAS
3133 1100440491 SITI SAADAH 25/12/1969 DSN. SEMARE RT.07/03 GLAWAN PABELAN KAB. SEMARANG
3134 1100440492 ACHMAD ASLAM EFENDI 01/02/1980 KAUMAN PUCANG 03/04 KAB. MAGELANG
3135 1100440493 ARIA HENDRAJANTI AMD 09/01/1971 JL. MENJANGAN V/34 RT.02/04 KOTA SEMARANG
3136 1100440494 SUKAMDI 14/03/1960 KP. KARANGSARI RT.02/06 KOTA SEMARANG
3137 1100440495 GHOZALI HAMZAH 12/07/1980 BANARAN KAB. BOYOLALI
3138 1100440496 SENO AJI PURBO SUBROTO 29/06/1971 JL MENJANGAN V/34 RT 02 RW 04 PALEBON KOTA SEMARANG
3139 1100440497 FAIRUZ ACHMAD BARCHAN CAKMAT 23/08/1971 SINGOCANDI RT.03 RW.01 KAB. KUDUS
3140 1100440498 ASROFAH 02/10/1966 SUWAWAL TIMUR RT.004/004 [Link] AJI KAB. JEPARA
3141 1100440499 ENDANG WAHYUNINGSIH SOLICHIN 25/12/1974 SINGOCANDI RT.03 RW.01 KAB. KUDUS
3142 1100440502 SITI MUAMANAH 22/01/1988 KALIBEBER RT 02 RW 06 KAB. WONOSOBO
3143 1100440506 AHMAD AFIFUDIN 13/08/1984 KALIBEBER RT 02 RW 06 KAB. WONOSOBO
3144 1100440507 SITI ROMLAH MASHURI 03/07/1964 LORAM WETAN RT.04 RW.02 KAB. KUDUS
3145 1100440508 SIH WIYATI 18/07/1960 DSN. KRAJAN RT04 RW.01 ASINAN KAB. SEMARANG
3146 1100440509 JUWARIYAH 31/12/1965 KP. KARANGSARI RT.02/06 KOTA SEMARANG
3147 1100440510 BINGAH 07/12/1965 KALIWUNGU 18/07 KAB. MAGELANG
3148 1100440511 MAKSUDI 05/05/1959 JL. BANYUPANAS NO. 10 RT. 06 RW. 02 KAB. CILACAP
3149 1100440514 SAIFUL HADI 30/01/1965 [Link] RT.03 RW.09 KAB. PEMALANG
3150 1100440515 KUSNIYATI 27/07/1968 JL. ARBOI RT 03 RW 09 KAB. PEMALANG
3151 1100440520 SRI JUMINI 30/01/1959 TEMPEL RT. 01/05 KAB. SUKOHARJO
3152 1100440521 MARYONO 07/06/1965 REKUNING RT 01 RW 02 KAB. BOYOLALI
3153 1100440524 SURATMI 07/03/1967 [Link] UTARA III/8-B RT.07/01 KOTA SEMARANG
3154 1100440525 DALSIH SURYO WIBOWO 10/09/1964 [Link] UTARA III/8-B RT.07/01 KOTA SEMARANG
3155 1100440526 TRI SUGIYANTI 16/01/1974 BANYU ANYAR RT 01 RW 02 KAB. BOYOLALI
3156 1100440528 ATIEK PRIHASTUTI 09/08/1961 JL. GUNUNG WILIS NO.30 RT.05 RW.03 KAB. BANYUMAS
3157 1100440529 SIYAH 07/06/1959 BATURSARI RT.03/05 KAB. DEMAK
3158 1100440530 SALIM PRIYANTO 09/05/1973 NAMPAN RT. 02/01 KAB. SUKOHARJO
3159 1100440532 ANTIN OKFITASARI 24/10/1977 NAMPAN RT. 02/01 KAB. SUKOHARJO
3160 1100440533 HARAP CENDEKIAWAN 23/04/1978 PEKAJANGAN GG.20 RT.26/10 KEDUNGWUNI KAB. PEKALONGAN
3161 1100440534 ASTRID PERMANA DEWI 21/06/1978 PEKAJANGAN GG.20 RT.26/10 KEDUNGWUNI KAB. PEKALONGAN
3162 1100440536 SUTARNI 18/06/1960 SOKARAJA TENGAH RT.01 RW.06 KAB. BANYUMAS
3163 1100440539 SUKISNO 01/10/1971 MANGUNEGARA RT 05 RW 03 KAB. PURBALINGGA
3164 1100440540 SUTARTI 21/12/1960 DENGKENGAN RT 14/04 KAB. SRAGEN
3165 1100440543 JOKO TRIYONO 20/11/1978 DENGKENGEN RT 14/04 KAB. SRAGEN
3166 1100440545 PURWANINGSIH 13/08/1973 MANGUNEGARA RT 05 RW 03 KAB. PURBALINGGA
3167 1100440546 RINI AMBAWARNI 08/05/1965 RAMBEANAK III 03/04 KAB. MAGELANG
3168 1100440548 MUHTAR SANUSI 25/06/1967 DK. MERTAN RT.02/RW. 08 KAB. SUKOHARJO
3169 1100440549 MOH FURQON 11/03/1963 RAMBEANAK 3 RT. 03/04 KAB. MAGELANG
3170 1100440552 DIDIK GUNARTO 15/07/1972 DK. PLOSO RT 09/02 KAB. BLORA
3171 1100440554 MUHAMMAD EDY HENDRAWAN, ST 16/11/1976 PUCANGSAWIT RT 01 RW 01 KOTA SURAKARTA
3172 1100440556 SITI RAFI'AH 18/03/1975 PUCANGSAWIT RT01 RW 01 KOTA SURAKARTA
3173 1100440557 LASMIATI 03/05/1976 DK. PLOSO RT 09/02 KAB. BLORA
3174 1100440558 TUTIK SARDIYEM 12/04/1964 POJOK 03/05 KAB. KLATEN
3175 1100440559 SITI AMINAH 02/06/1965 ROWOBULUS LOR RT.02/13 KEBONROWOPUCANG KAB. PEKALONGAN
3176 1100440560 SLAMET SANTOSO 12/11/1960 NGEBONG, RT.01/RW.09 KAB. TEMANGGUNG
3177 1100440562 INDARWATI 03/11/1964 PENGKOL 02/06 KAB. GROBOGAN
3178 1100440564 SOLKHAN 23/07/1963 ROWOBULUS LOR RT.02/13 KEBONROWOPUCANG KAB. PEKALONGAN
3179 1100440565 RUBIYATI 31/12/1962 NGEBONG, RT.01/RW.09 KAB. TEMANGGUNG
3180 1100440566 NUR KHIKMAH 12/12/1977 JL. KH. SAMAN HUDI RT04 RW 03 KAB. PEMALANG
3181 1100440567 KALIMAH 31/12/1962 NGEBONG, RT.03/RW.08 KAB. TEMANGGUNG
3182 1100440568 RUDIYETI HERMITA SURATNAWATI 27/01/1975 TEGALLURUNG RT02 RW01 KAB. TEMANGGUNG
3183 1100440569 NINING SURYAMTINI, SPD 07/05/1966 TAMANSARI RT 37/15 KAB. SRAGEN
3184 1100440570 WARYONO 10/11/1976 JL. KH. SAMAN HUDI RT 04 RW 03 KAB. PEMALANG
3185 1100440571 PONIJO 01/02/1959 KALIJAMBE RT. 01/04 BENER KAB. PURWOREJO
3186 1100440573 SUKARDI, [Link] 02/01/1960 TAMANSARI RT 37/15 KAB. SRAGEN
3187 1100440574 ALFIAN NUGROHO 16/10/1974 TEGALLURUNG, RT.02/RW.01 KAB. TEMANGGUNG
3188 1100440575 PARYATMI 06/06/1966 PEJAGALAN RT. 4/3 KAB. BANYUMAS
3189 1100440576 SAMIYANA 29/03/1965 [Link] 04/07 KAB. GROBOGAN
3190 1100440577 NURROINI, SPD 01/12/1963 BULAK INDAH RT 02 RW 06 KOTA SURAKARTA
3191 1100440579 KUSMIYATI 15/05/1960 TIRTO GG. 1 RT. 3 RW. 1 KOTA PEKALONGAN
3192 1100440580 SITI UMI KULSUM 14/09/1965 WONOGIRI 3 RT. 20/03 KAB. MAGELANG
3193 1100440581 TEGUH SANTOSA 22/07/1961 SINDURAJA RT 01 RW 05 KAB. PURBALINGGA
3194 1100440584 MUHAMMAD PRAKAS DARA ASSHOFI 09/08/1997 KRAPYAK RT.03/11 KAB. DEMAK
3195 1100440585 SRI UTAMI 30/03/1967 SINDURAJA RT 01 RW 05 KAB. PURBALINGGA
NO NO. PORSI NAMA TANGGAL LAHIR ALAMAT KAB/KOTA KETERANGAN
3196 1100440586 ANANTONO A.R 17/03/1962 KEMBANGSARI RT 02 RW 01 KAB. BOYOLALI
3197 1100440587 ZUBAIDI 23/02/1959 JOGORESAN RT. 02/01 PURWODADI KAB. PURWOREJO
3198 1100440588 SUKARSIH 23/04/1965 KRAPYAK RT.03/11 KAB. DEMAK
3199 1100440590 SUTINI 22/11/1963 JOGORESAN RT. 02/01 PURWODADI KAB. PURWOREJO
3200 1100440591 ZAINAL MUSTOFA 22/07/1957 LOSARI 03/02 KAB. MAGELANG
3201 1100440593 BASIS WIDODO SUYUTI 27/06/1968 SUKOHARJO 3/1 WWEDARIJAKSA KAB. PATI
3202 1100440595 SRI WANTINI 15/05/1963 TEGALSARI RT 06 KAB. SRAGEN
3203 1100440596 MURJIWATI SUDARMONO SULASTRI 02/08/1972 SUKOHARJO 3/1 WEDARIJAKSA KAB. PATI
3204 1100440598 YUNITA DWI KARTIKASARI, SE 10/06/1973 JL. MATOA VII RT 01 RW 07 KOTA SURAKARTA
3205 1100440599 NURFADLILAH 01/01/1960 LOSARI RT.03 RW.02 KAB. MAGELANG
3206 1100440601 SUPARNO 12/03/1962 BASAN RT 30 KAB. SRAGEN
3207 1100440603 SUPARNI 05/09/1963 BASAN RT.30 KAB. SRAGEN
3208 1100440604 RIFATUN 14/08/1979 CERIH RT.18/01 JATINEGARA KAB. TEGAL
3209 1100440606 KHAMIDIN 23/03/1966 DUKUH KRANGGAN RT.18/01 CERIH KAB. TEGAL
3210 1100440613 SRI PURWANINGSIH 26/11/1963 KAJEN 02/01 KAB. KLATEN
3211 1100440616 SITI NUR AZIZAH 13/04/1988 KADILANGU 01/02 TRANGKIL KAB. PATI
3212 1100440617 FAKHRUDDIN ALI AHMAD 02/10/1980 KADILANGU 01/02 TRANGKIL KAB. PATI
3213 1100440618 KOMARIYAH 16/07/1981 DONOROJO RT.04/02 KAB. DEMAK
3214 1100440619 MASKURI 05/04/1976 DONOROJO RT.04/02 KAB. DEMAK
3215 1100440620 KHOMSATUN BUJADI RESO 09/07/1969 JONDANG RT.002/001 KAB. JEPARA
3216 1100440621 MOHAMMAD ROSYIDI DASUKA 28/11/1966 JONDANG RT.002/001 KAB. JEPARA
3217 1100440623 SRI SUHARMI 02/09/1961 SURUH LOR 04/03 KAB. KLATEN
3218 1100440626 KALIMAH 05/07/1969 KEBANDINGAN RT.22/05 KEDUNGBANTENG KAB. TEGAL
3219 1100440627 TURATNO 11/03/1964 KEBANDINGAN RT.22/05 KEDUNGBANTENG KAB. TEGAL
3220 1100440628 MUTIAH 22/01/1967 BRUMBUNG RT.01/03 KAB. DEMAK
3221 1100440629 TUGIYO 20/04/1958 KEJAWAR RT.03 RW.01 KAB. BANYUMAS
3222 1100440630 KASMIN 12/12/1959 BRUMBUNG RT.01/03 KAB. DEMAK
3223 1100440631 INDARWATI 25/10/1960 KEJAWAR RT. 3/1 KAB. BANYUMAS
3224 1100440634 WASIMAH 19/07/1958 TURIREJO RT.02/11 KAB. DEMAK
3225 1100440636 SOLEKHA 12/12/1957 JL. KH. AHMAD DAHLAN RT. 1 RW. 3 KOTA PEKALONGAN
3226 1100440637 SUMANTI 14/04/1973 SAMBILAWANG RT.04/RW.01 KAB. SUKOHARJO
3227 1100440638 AGUS PRIH HARTANTO 14/03/1964 JL. GUNUNG BATU RT. 04 RW. 21 KAB. CILACAP
3228 1100440639 SUDARNO 08/08/1973 SAMBILAWANG RT.04/RW.01 KAB. SUKOHARJO
3229 1100440640 NANING DWI MARTDIYANINGSIH 21/03/1969 JL. GUNUNG BATU 21 RT. 04 RW. 21 KAB. CILACAP
3230 1100440649 ADE SETYAWAN 21/08/1982 DUKUH SEKARDANGAN RT.01/01 TANJUNGSEKARKAB. PATI
3231 1100440650 ISTINGANAH 27/07/1959 KEDUREN RT. 02/02 PURWODADI KAB. PURWOREJO
3232 1100440652 SUNGKONO SUWADI SUMI'AH 04/01/1959 WINONG 1/3 WINONG KAB. PATI
3233 1100440653 MUHAMMAD MUHAROM 06/06/1962 NGRAHO RT 06/01 KAB. BLORA
3234 1100440655 HARYATININGSIH 07/02/1965 NGRAHO RT 06/01 KAB. BLORA
3235 1100440660 SITI ZULAIKAH 09/08/1968 GAYAM RT.01/03 BANTAL BANCAK KAB. SEMARANG
3236 1100440661 SUKESI 12/06/1962 GAYAM RT.01/03 BANTAL BANCAK KAB. SEMARANG
3237 1100440664 SUHARTO 12/02/1958 GRECOL RT 03 RW 01 KAB. PURBALINGGA
3238 1100440665 SUMARTI 11/07/1961 GRECOL RT 03 RW 01 KAB. PURBALINGGA
3239 1100440666 SABAR IMAN 15/10/1959 JL. NANGKA 8 BODONGAN RT. 04 RW. 04 KOTA MAGELANG
3240 1100440667 NURYATI 15/02/1972 KURIPAN RT.02/01 KAB. DEMAK
3241 1100440669 DALILAH 25/09/1964 JL. DURIAN 36 RT. 05/02 KOTA TEGAL
3242 1100440670 ISNAINI SULISTYANI 02/09/1991 SUNGKUL RT 13/05 KAB. SRAGEN
3243 1100440671 NISFIYATUN NURLAILY 26/10/1983 [Link] KRAJAN RT.01/03 DORO KAB. PEKALONGAN
3244 1100440673 AHMAD ARIF HIDAYAT 09/02/1981 [Link] KRAJAN RT.01/03 DORO KAB. PEKALONGAN
3245 1100440676 KOMAIDAH 16/04/1994 KLUWUT RT. 01/10 BULAKAMBA KAB. BREBES
3246 1100440677 JUHARIYAH 27/11/1960 WONOKERSO KEJIWAN RT.02 RW.01 KAB. BATANG
3247 1100440678 DIAH ARIFIANTI 04/04/1976 KARANGGENENG RT.16 RW.02 KAB. BATANG
3248 1100440679 KHAFIDOH 01/04/1965 JL. KOL. SUGIONO RT.04/14 BREBES KAB. BREBES
3249 1100440680 MUGIYARTI 31/12/1963 SATRIYAN RT.03 RW.01 KAB. BATANG
3250 1100440681 AKHMAD IMRON, SH 21/08/1959 JL. KOL. SUGIONO RT.04/14 BREBES KAB. BREBES
3251 1100440682 SUDIBYO ABDUL SALAM IBRAHIM 12/05/1964 DEPOKREJO RT. 02. 01 KAB. KEBUMEN
3252 1100440683 RISWANTO 07/12/1964 PRAPAG KIDUL RT.05/01 LOSARI KAB. BREBES
3253 1100440684 SU'AMI MARJUKI KROMOREJO 13/04/1968 DEPOKREJO RT. 02. 01 KAB. KEBUMEN
3254 1100440685 DIRAH 05/12/1964 PRAPAG KIDUL RT.05/01 LOSARI KAB. BREBES
3255 1100440686 SURONO INDARTO 23/11/1981 DJEBOL RT 04 RW 07 KAB. BOYOLALI
3256 1100440687 ANA PUJI HARTANTO 08/08/1983 CERMO RT 07/02 KAB. SRAGEN
3257 1100440688 MUHAMMAD KHAMDI 31/12/1958 SATRIYAN RT.03 RW.01 KAB. BATANG
3258 1100440690 HENNY NOVITA SARI 06/11/1979 DJEBOL RT 04 RW 07 KAB. BOYOLALI
3259 1100440691 WAHYUDI 22/02/1990 KLAPASAWIT RT.04 RW.05 PURBALINGGA KAB. SUKOHARJO
3260 1100440692 ROSIDAH 09/06/1980 BABADAN RT.01 RW.03 KAB. BATANG
3261 1100440693 NURFARIDAH AHMAT ZAENURI 27/12/1965 SODITAN RT 003 RW 002 LASEM KAB. REMBANG
3262 1100440694 ANOWO HADIKARYONO KARTO PRAWIRO 04/01/1968 SODITAN RT 003 RW 002 LASEM KAB. REMBANG
3263 1100440695 SRINANINGSIH 03/06/1963 DS. GADON RT 05/02 KAB. BLORA
3264 1100440696 MAHMUDI 01/01/1963 [Link] RT.01/01 SURUH KAB. SEMARANG
3265 1100440697 MUNIAH 25/09/1963 CARUBAN RT.02/RW.04 KAB. KENDAL
3266 1100440698 SITI KAROMAH 04/07/1962 DSN. MORANGAN RT.02/10 SURUH KAB. SEMARANG
3267 1100440699 AKUB, A. MD. PD 06/09/1961 DS. GADON RT 05/02 KAB. BLORA
3268 1100440700 MO'IDI 03/03/1960 TEGALSARI RT.03 RW.01 KAB. BATANG
3269 1100440702 RIATUN 01/06/1972 DSN. MORANGAN RT.01/11 SURUH KAB. SEMARANG
3270 1100440703 MASRUFIN MASKURI JOYO WAGIMAN 19/10/1971 GONDOSARI RT.01 RW.06 KAB. KUDUS
3271 1100440709 IDHA FARIDHA 30/12/1959 [Link] RT.01/01 NYAMOK KAJEN KAB. PEKALONGAN
3272 1100440710 PIRNGADI SUPARMAN RANOE 29/08/1965 GONDOSARI RT.01 RW.06 KAB. KUDUS
3273 1100440712 WAHYU RIYANTO 26/10/1971 DK. PLATAR RT.01/RW.01 KAB. SUKOHARJO
3274 1100440713 SITI YULAIKAH 26/05/1981 BETOKAN RT.02/02 KAB. DEMAK
3275 1100440714 SITI MARYAM 01/01/1967 TEGALSARI RT.03 RW.01 KAB. BATANG
3276 1100440716 BUDI ETIK PARWATI 04/04/1973 DK. PURON RT.01/RW.01 KAB. SUKOHARJO
3277 1100440718 TASRIAH 22/03/1964 TEGALSARI RT.03 RW.01 KAB. BATANG
3278 1100440720 ASMIARSO SULISTIYO 15/06/1970 BETOKAN RT.02/02 KAB. DEMAK
3279 1100440721 PONIJAH 12/05/1961 GEMPOLSEWU RT.03/RW.06 KAB. KENDAL
3280 1100440722 FADLI JAMAL 05/08/1974 DUKUHREJO RT 02/02 KAB. PURWOREJO
3281 1100440723 SRI SUYANTI, [Link] 20/09/1964 PANGENJURUTENGAH RT 02/05 KAB. PURWOREJO
3282 1100440724 SUHARJITO 26/02/1964 KARANGGENENG RT.16 RW.02 KAB. BATANG
3283 1100440725 SARIYADI 15/07/1965 PANGENJURUTENGAH RT 02/05 KAB. PURWOREJO
3284 1100440730 UMI MAESYAROH 01/01/1983 DUKUHREJO RT 02/02 KAB. PURWOREJO
3285 1100440732 SITI CHUMAEROH JUMBURI DULAH KASAN 09/09/1962 KRADENAN RT.02/02 KAB. KEBUMEN
3286 1100440733 ANISAH 19/09/1963 KP. SIDOHARJO RT 02 RW 03 KAB. WONOSOBO
3287 1100440734 HIDAYATI 24/07/1973 KRAJAN RT 01 RW 02 KAB. KEBUMEN
3288 1100440736 ETI PURWANTARI, DRA 08/08/1962 GASEMSARI III/18 RT.02/03 KOTA SEMARANG
3289 1100440737 SURIPTO 16/08/1972 BABADAN RT.01 RW.03 KAB. BATANG
3290 1100440739 AHMAD YUNUS, SPD 19/10/1959 GASEMSARI III/18 RT.02/03 KOTA SEMARANG
3291 1100440740 GUMANA,SH 12/05/1963 PASEKARAN PERUM KORPRI RT.03 RW.04 KAB. BATANG
3292 1100440742 SUGIYARTI 04/07/1964 PASEKARAN PERUM KORPRI RT.03 RW.04 KAB. BATANG
3293 1100440746 JUNDAH, SE 21/07/1977 JL. SAMBIROTO ASRI BARAT I/187 RT.08/08 KOTA SEMARANG
3294 1100440748 TRI PUJIARTA 06/05/1966 MUNGGANGSARI RT 02/03 KAB. PURWOREJO
3295 1100440749 BAMBANG ARIANTO, SE 24/08/1976 JL. SAMBIROTO ASRI BARAT I/187 RT.08/08 KOTA SEMARANG
3296 1100440750 UMI DARYATI 23/08/1966 MUNGGANGSARI RT 02/03 KAB. PURWOREJO
3297 1100440754 MOHAMAD AMIR FATAH 05/08/1961 KLAPASAWIT RT.04/01 KAB. KEBUMEN
3298 1100440755 DRS. EDY PURWANTO 02/03/1966 KLEDUNG KRADENAN RT 03/02 KAB. PURWOREJO
3299 1100440757 SITI MUDRIKAH ABU JAMROH 03/04/1968 KLAPASAWIT RT. 01. 04 KAB. KEBUMEN
3300 1100440759 DRA. LISNINDIYARTI 29/06/1966 KLEDUNG KRADENAN RT 03/02 KAB. PURWOREJO
3301 1100440764 ARIF PUJIASTO SUDIRO 24/07/1970 PODOLUHUR RT. 04 . 02 KAB. KEBUMEN
3302 1100440766 ERNA SETIYAWATI SUROYO 16/09/1970 PODOLUHUR RT.04/02 KAB. KEBUMEN
3303 1100440768 AHMAD ASNAWI 05/02/1958 JL. DIPONEGORO NO. 160 RT. 21 RW. 06 KAB. CILACAP
3304 1100440769 KHULASOH 18/09/1965 JL. DIPONEGORO NO. 160 RT. 21 RW. 06 KAB. CILACAP
3305 1100440771 BETTY LISTYANINGRUM 16/11/1966 JL. BALI RAYA B.7 RT.01/07 GEDANGANAK KAB. SEMARANG
3306 1100440772 SOHIRIN, SE 13/02/1969 [Link] SUDARSO NO.25A RT.07/19 BREBES KAB. BREBES
3307 1100440773 DEWI RIYA SAFITRI 17/10/1974 [Link] SUDARSO NO.25A RT.07/19 BREBES KAB. BREBES
3308 1100440774 ABDUL BAQI 15/06/1965 GRENJENG RT.001 RW.006 KAB. MAGELANG
3309 1100440775 SUHARTONO MALIKI PARSIH 30/04/1973 NGAGEL 1/3 DUKUHSETI KAB. PATI
3310 1100440776 MUZAYANAH 31/12/1974 BANDUNGREJO RT.07/02 KAB. DEMAK
3311 1100440781 SURAT MEI ATUN 25/05/1964 JL. URIP SUMOHARJO NO. III RT. 04 RW. 05 KOTA MAGELANG
3312 1100440782 SLAMET 07/06/1962 KALISAT 03/06 KAB. MAGELANG
3313 1100440784 GATIEK HANDAYANI,SE 02/09/1975 [Link] NO.91 RT.04/04 KOTA SEMARANG
3314 1100440786 SETYAWAN NUGROHO, IR 18/04/1969 MERTOUDAN RT 07 RW 09 KOTA SURAKARTA
3315 1100440787 ENI SUSANTI 04/03/1974 [Link] RT.02 RW.02 KAB. PEMALANG
3316 1100440788 INDARTI 15/08/1968 DUSUN KRAJAN RT.01/RW.03 KAB. KENDAL
3317 1100440789 SUKENI 10/10/1959 TEGAL ANOM 08/04 KAB. KLATEN
3318 1100440790 MUHAMMAD JAMAL 04/07/1972 DSN II KLEGEN RT. 02 RW. 02 KAB. PEMALANG
3319 1100440791 SRI MULYANI JOYO PAWIRO 28/07/1961 TEGALOMBO RT.04 RW.03 KOTA SALATIGA
3320 1100440792 KEKET 04/06/1966 KALISAT 03/05 KAB. MAGELANG
3321 1100440793 SUYADI, SPD 07/03/1960 TEGAL NGIPIK 02/01 KAB. KLATEN
3322 1100440794 FIKRI SOEBASIR 01/10/1972 JL. SUYUDONO NO.91 RT.04/04 KOTA SEMARANG
3323 1100440796 AINUR ROKHIM 04/11/1969 DUSUN KRAJAN RT.01/RW.03 KAB. KENDAL
NO NO. PORSI NAMA TANGGAL LAHIR ALAMAT KAB/KOTA KETERANGAN
3324 1100440797 TARJU 06/08/1957 KARANGREJO RT 06 RW 05 KAB. KARANGANYAR
3325 1100440799 HARMIATI TRI ASTUTI 10/05/1974 MERTOUDAN RT 07 RW 09 KOTA SURAKARTA
3326 1100440800 DWI PUJI LESTARI, SP 20/10/1976 JL. CANDI PAWON TIMUR VI/15 RT.04/07 KOTA SEMARANG
3327 1100440801 SUANGKAT 18/08/1964 MUNJUL RT 02 RW 01 KAB. PURBALINGGA
3328 1100440803 SAMINEM 12/02/1968 KARANGREJO RT 06 RW 05 KAB. KARANGANYAR
3329 1100440804 EKO SUPRIYANTI 12/06/1966 KUWALUHAN 029 RT. 03/02 KAB. MAGELANG
3330 1100440805 RIYATININGSIH 19/01/1967 MUNJUL RT 02 RW 01 KAB. PURBALINGGA
3331 1100440806 SRI YUNIYATI 21/06/1964 TEGAL NGIPIK 02/01 KAB. KLATEN
3332 1100440807 MUHAMAD ROYI 05/04/1970 BANDUNGREJO RT.07/02 KAB. DEMAK
3333 1100440809 CHAFIDLOH 16/07/1957 [Link] PAWON TIMUR VI/15 RT.04/07 KOTA SEMARANG
3334 1100440811 WAKIMAN 05/07/1961 GEBLUG RT. 04/07 KAB. SUKOHARJO
3335 1100440812 MUSLIHAH MUNJI SULAIMAN 08/06/1975 SIDOREJO RT 001 RW 003 PAMOTAN KAB. REMBANG
3336 1100440813 WITARNI 07/11/1962 GEBLUG RT. 04/07 KAB. SUKOHARJO
3337 1100440815 WARSIYAM 07/10/1957 TEGALREJO 20/08 KAB. KLATEN
3338 1100440816 SITI AISYAH NGARPANI 15/02/1976 DRESI KULON RT 002 RW 001 KALIORI KAB. REMBANG
3339 1100440818 SUGIYONO MUKTI DAMIRI 04/08/1972 DRESI KULON RT 002 RW 001 KALIORI KAB. REMBANG
3340 1100440819 WELDAN MUCHDORI 07/09/1973 PAGERAJI RT 02 RW 02 KAB. BANYUMAS
3341 1100440820 FATKHUL AMIN, ST 24/09/1974 JL. CANDI PAWON TIMUR VI/15 KOTA SEMARANG
3342 1100440821 ALFI LAELA 11/10/1972 PAGERAJI RT. 2/2 KAB. BANYUMAS
3343 1100440822 LUDIYAH 27/07/1962 JL. KROYA- NUSAWUNGU RT. 02 RW. 03 KAB. CILACAP
3344 1100440824 SUJARWO 03/10/1962 BUMISARI RT 07 RW 04 KAB. PURBALINGGA
3345 1100440827 HENI DWI ASTUTI 29/09/1963 BUMISARI RT 07 RW 04 KAB. PURBALINGGA
3346 1100440830 TIEN AMINAH KARIYADI 18/08/1957 PAMOTAN RT 001 RW 006 PAMOTAN KAB. REMBANG
3347 1100440831 WARDOYO WARBU TASMIN 14/04/1965 ALASDOWO 7 / 2 DUKUHSETI KAB. PATI
3348 1100440832 WIWIK WIDOWATI PONCORETNO 17/11/1960 JL. SETIYAKI 12 TEPOSANAN KOTA SURAKARTA
3349 1100440833 MAIM 01/07/1971 SANGKANJAYA RT.03/01 BALAPULANG KAB. TEGAL
3350 1100440834 SYAFRUDDIN ABDILLAH FAJRI 16/04/1977 GADING WETAN 03/08 KAB. KLATEN
3351 1100440835 ANIS DYAH RUFAIDA 06/12/1982 JONGGRANGAN 29/11 KAB. KLATEN
3352 1100440836 YUSUF 15/06/1961 SANGKANJAYA RT.03/01 BALAPULANG KAB. TEGAL
3353 1100440837 SULISTYO SETIAWAN 07/04/1981 JONGGRANGAN 29/11 KAB. KLATEN
3354 1100440838 KASMINI 19/04/1970 JL. TMN KARONSIH SLT X/785 KOTA SEMARANG
3355 1100440839 SUWARTO 12/10/1965 JL. KROYA - NUSAWUNGU RT. 02 RW. 03 KAB. CILACAP
3356 1100440840 ENDAH RAHMAWATI WARIDJAN 02/02/1972 ALASDOWO 7/2 DUKUHSETI KAB. PATI
3357 1100440841 AMNAN GHOZALI 31/01/1986 JL. PENATARAN I-B RT.06/03 KOTA SEMARANG
3358 1100440843 NI'MATUL MAULA 12/02/1985 JL. PENATARAN I-B RT.06/03 KOTA SEMARANG
3359 1100440845 LIS INDRIYATI 23/02/1959 DUSUN SAPEN RT.05/RW.02 KAB. KENDAL
3360 1100440847 ABDUL RACHMAN 30/01/1962 [Link] KARONSIH SLT X/785 RT.10/06 KOTA SEMARANG
3361 1100440849 ATIK TRISDHAWATI 10/06/1975 JATIREJO RT. 03 RW. 12 KAB. WONOGIRI
3362 1100440852 TAUFIKUROCHMAN 22/10/1967 [Link] NO.07 RT.1/4 SUMAMPIR KAB. BANYUMAS
3363 1100440853 PUTRI PRAMESTI DIANA 02/06/1986 JL. RIYANTO NO. 7 RT 01 RW 04 KAB. BANYUMAS
3364 1100440854 SUBIYARTI 27/06/1958 PERON RT.01/RW.02 KAB. KENDAL
3365 1100440856 AMINAH 30/11/1963 LEBAKSIU KIDUL RT. 07/05 KAB. TEGAL
3366 1100440857 CHRIS DWI WAHYONO 23/11/1965 JL. JEND SUDIRMAN NO.75 RT.01/RW.03 KAB. SUKOHARJO
3367 1100440858 RETNO DJATININGRUM 23/12/1960 JL. CEMPOLOREJO VII/14 RT.06/03 KOTA SEMARANG
3368 1100440859 ABDUL AZIZ 14/09/1981 UJUNGGEDE RT.01 RW.07 KAB. PEMALANG
3369 1100440860 TRI WIDAYATI 10/05/1972 JL. JEND. SUDIRMAN NO.75 RT.01/RW.03 KAB. SUKOHARJO
3370 1100440861 TRI PUTRANTO HURIPNO 30/09/1976 BAE RT 03 RW 05 KAB. KUDUS
3371 1100440862 MASRUKIN 16/02/1959 KAUMAN 04/02 KAB. GROBOGAN
3372 1100440863 LISYATI 10/06/1984 PESANDANGAN RT. 01 RW. 07 KAB. PEMALANG
3373 1100440865 IRIYANTI 17/05/1963 KAUMAN 04/02 KAB. GROBOGAN
3374 1100440866 ANIK RUSTIKAWATI RUSDI 07/06/1978 BAE RT.03 RW.05 KAB. KUDUS
3375 1100440867 DWI SUPRIHATMINI 09/03/1958 KISMOREJO RT 02 RW 10 KOTA SURAKARTA
3376 1100440869 SUPARMAN 28/03/1965 KISMOREJO RT 01 RW 10 KOTA SURAKARTA
3377 1100440870 MURNIATI ENDANG PASIANI 27/01/1963 DAWUNG KULON RT.02 [Link] KOTA SURAKARTA
3378 1100440871 WAGINI 11/11/1974 KISMOREJO RT.01 RW.10 KOTA SURAKARTA
3379 1100440873 MOHAMAD KARIMUN 01/07/1962 LEBAKSIU KIDUL RT. 07/05 KAB. TEGAL
3380 1100440874 AGUS ARWANI 16/08/1970 PANDEYAN 02 RT. 26/12 KAB. MAGELANG
3381 1100440875 JOKO MARGONO, DRS, MM 04/01/1965 PAULAN RT. 03 RW. 04 KAB. KARANGANYAR
3382 1100440876 DJAKA MARTANTA,SH 10/07/1971 UJUNGGEDE RT.03 RW.01 KAB. PEMALANG
3383 1100440877 SUPANI 05/07/1970 JL. PEMUDA GG. I NO. 61 RT 07 RW 06 KAB. BANYUMAS
3384 1100440880 TUR TJAHJOTO 26/09/1972 PERUM PURI BABAKAN NO 62 RT 29 RW 08 KAB. PURBALINGGA
3385 1100440881 ENUNG ASMAYA 08/05/1976 [Link] RT.7/6 KEDUNGWULUH KAB. BANYUMAS
3386 1100440883 ERLINAWATI 01/06/1977 BODASKARANGJATI RT 04 RW 04 KAB. PURBALINGGA
3387 1100440884 RIDWAN SUWANTO 26/06/1976 BODASKARANGJATI RT 04 RW 04 KAB. PURBALINGGA
3388 1100440885 NUR BUDI HERAWATI 11/10/1974 UJUNGGEDE RT. 03 RW. 01 KAB. PEMALANG
3389 1100440888 DWI SOFIA 02/07/1967 JL. MANGGARAYA 19 PURIN RT.01/RW.08 KAB. KENDAL
3390 1100440890 AGUS PURWONO 17/08/1959 JL. MANGGARAYA 19 PURIN RT.01/RW.08 KAB. KENDAL
3391 1100440891 RUBIYATI KARSUM SAKINAH 20/06/1974 BAJOMULYO 1/3 JUWANA KAB. PATI
3392 1100440892 SRI WIHARTI 24/02/1973 PULOSARI RT.003/006 PULOSARI BREBES KAB. TEGAL
3393 1100440894 MUHAMMAD ROMLI LASTRO RATI 18/08/1965 BAJOMULYO 1/3 JUWANA KAB. PATI
3394 1100440896 SRI NINGSIH 23/02/1970 JL. SAWO RT.003 RW.001 DUKUHWARU KAB. TEGAL
3395 1100440897 KARTINI 31/12/1957 KRAJAN 07/02 KAB. KLATEN
3396 1100440899 AGUS MUHAMAD TUTUKA 10/08/1957 GG. SANJAYA RT.16/RW.04 KAB. KENDAL
3397 1100440901 NURAHENI SETYAWATI 13/06/1961 GG. SANJAYA RT.16/RW.04 KAB. KENDAL
3398 1100440902 IRFAN HAKIM SYADZALI 16/12/1991 LUBANGLOR RT 02/02 KAB. PURWOREJO
3399 1100440903 NURAENI 12/12/1976 PERUM PATEBON RT.07/RW.08 KAB. KENDAL
3400 1100440904 TARJUKI 14/05/1969 PERUM PATEBON RT.07/RW.08 KAB. KENDAL
3401 1100440907 ARIF RAHMAN HAKIM SYADZALI 27/07/1994 LUBANGLOR RT 02/02 KAB. PURWOREJO
3402 1100440908 SRI RAHAYU 11/04/1981 DSN I AMBOKULON RT. 01 RW. 01 KAB. PEMALANG
3403 1100440911 PAINEM 20/05/1960 BULAKREJO RT 02/13 KAB. SRAGEN
3404 1100440913 HESTI NAWANGSARI 27/08/1970 [Link] RT.05/02 KOTA SEMARANG
3405 1100440914 SRI ROMDANI 10/11/1970 PURI HUTAMA G13 03/14 KAB. KLATEN
3406 1100440917 SANTOSO 10/01/1967 KP. RANDUSARI RT.05/02 KOTA SEMARANG
3407 1100440919 PURNAWAN SETYA BUDI 01/06/1968 PURI HUTAMA BLOK G13 03/14 KAB. KLATEN
3408 1100440920 MARIYATI 20/02/1960 BABALAN RT.04/07 KAB. DEMAK
3409 1100440921 MOH SHOHEH 06/03/1967 SAYUNG RT.03/07 KAB. DEMAK
3410 1100440922 RUKAYAH 04/04/1971 REMBUN LOR RT.02/04 REMBUN SIWALAN KAB. PEKALONGAN
3411 1100440924 KAMSIYAH 01/03/1970 SAYUNG RT.03/07 KAB. DEMAK
3412 1100440925 WARJIAN 01/06/1970 REMBUN LOR RT.02/04 REMBUN SIWALAN KAB. PEKALONGAN
3413 1100440927 LAILATUN NAFIAH 13/11/1978 SOKOKIDUL RT.01/01 KEBONAGUNG KAB. DEMAK
3414 1100440928 AHMAD ARIFIN 07/02/1981 SOKOKIDUL RT.01/01 KEBONAGUNG KAB. DEMAK
3415 1100440929 MASMIN 29/10/1966 PAYAK 05/05 KAB. GROBOGAN
3416 1100440930 AGUS ZAMRONI,SE 25/08/1969 [Link] NO.22 RT.05 RW.05 KAB. PEMALANG
3417 1100440931 SUTARTI 20/06/1975 PAYAK 05/05 KAB. GROBOGAN
3418 1100440932 SUDARNI 10/11/1960 GG MELATI NGRUKI RT.09 RW. 17 KAB. SUKOHARJO
3419 1100440933 SITI NURJANAH SIP 09/02/1966 JL. KAUMAN NO. 22 RT. 05 RW. 05 KAB. PEMALANG
3420 1100440935 DEWI JUHAINAH 28/11/1973 MUTIHKULON RT.02/03 KAB. DEMAK
3421 1100440936 BADRUL HUSAIN 06/08/1962 MUTIHKULON RT.02/03 KAB. DEMAK
3422 1100440937 WALDIYEM 05/04/1962 KROGOWETAN 02/05 KAB. KLATEN
3423 1100440940 ANNA NUR ROFIQOH 13/05/1996 JUNGGRANGAN RT 022 / RW 000 KAB. SRAGEN
3424 1100440941 BAMBANG MULYONO 22/12/1959 KROGOWETAN 02/05 KAB. KLATEN
3425 1100440942 SRI RAHAYU 12/05/1960 JONGGRANGAN RT 22 KAB. SRAGEN
3426 1100440944 TUMAR 15/10/1966 PEKANDANGAN .RT. 004/001 KAB. BANJARNEGARA
3427 1100440945 WAENAH 04/05/1969 KARANGANYAR RT.01/01 KEDUNGBANTENG KAB. TEGAL
3428 1100440946 SARTINAH 21/01/1975 PEKANDANGAN. RT. 004/001 KAB. BANJARNEGARA
3429 1100440947 HERU WIDODO, IR 29/12/1963 PLAMONGANSARI RT.01/04 KOTA SEMARANG
3430 1100440949 MUSTAQIMAH 16/12/1958 BANDUNGREJO RT.07/02 KAB. DEMAK
3431 1100440950 WARYONO 01/01/1960 KARANGANYAR RT.01/01 KEDUNGBANTENG KAB. TEGAL
3432 1100440951 AINUR ROCHMAH, S. KEP, NS 25/01/1984 DS. TRANGKIL . KEC. TRANGKIL KAB. PATI KAB. PATI
3433 1100440953 MUHAMMAD ASLAM, S. HI 27/07/1981 Ds. TRANGKIL KAB. PATI
3434 1100440954 SUPARTI MUJAHID SAKINAH 01/02/1970 RACI 2/4 BATANGAN KAB. PATI
3435 1100440955 KEMINAH 06/01/1966 WEDARI RT.04/RW.05 KAB. KENDAL
3436 1100440957 SITI FATONAH SUTARWI 01/07/1959 KARANGREJO LOR 7/2 JAKENAN KAB. PATI
3437 1100440958 NUR HASANAH 08/07/1989 RACI 2/4 BATANGAN KAB. PATI
3438 1100440960 SUBKHAN FATHONI DJAIMIN NURDIN 22/05/1979 GIWANGRETNO RT. 01. 02 KAB. KEBUMEN
3439 1100440961 EMMA HIKMAH ASYAROH 03/09/1983 GIWANGRETNO RT.01/02 KAB. KEBUMEN
3440 1100440963 ULFATUN NI'MAH 28/09/1982 KYAI KHOLID BARAT NO.80 RT. 02/10 BREBES KAB. BREBES
3441 1100440964 ENDANG PURWANINGSIH, DRA, MM 01/08/1968 PAULAN RT. 03 RW. 04 KAB. KARANGANYAR
3442 1100440966 MUJAYANAH 31/12/1961 JATIRAWA RT. 03/01 TARUB KAB. TEGAL
3443 1100440967 MOHAMMAD KHOIRUL ANAM, SS 21/03/1980 KYAI KHOLID BARAT 80 RT02/10 PASARBATANG KAB. BREBES
3444 1100440968 DASMAN 07/09/1958 JATIRAWA RT. 03/01 TARUB KAB. TEGAL
3445 1100440972 HARMI RAMIN RAIKAN 07/07/1977 RONGGOMULYO RT 003 RW 001 SUMBER KAB. REMBANG
3446 1100440977 DANANG HADIYANTO 02/02/1984 SINDURJAN RT 04/06 KAB. PURWOREJO
3447 1100440980 ALI IKSAN 16/03/1985 LODRAN 03/06 KAB. GROBOGAN
3448 1100440983 ARIF SUSILO 28/01/1970 ASLI PERMAI RT 03 RW 05 KAB. WONOSOBO
3449 1100440984 MULAZIN 15/04/1970 GLADAGSARI RT.02/RW.12 KAB. KENDAL
3450 1100440985 SRI REDININGSIH 05/04/1967 ASLI PERMAI RT 03 RW 05 KAB. WONOSOBO
3451 1100440986 NUR CHASANAH 13/06/1974 GLADAGSARI RT.02/RW.12 KAB. KENDAL
NO NO. PORSI NAMA TANGGAL LAHIR ALAMAT KAB/KOTA KETERANGAN
3452 1100440987 KURDI 17/07/1957 BULAKAMBA RT.04/01 BULAKAMBA KAB. BREBES
3453 1100440989 WASMAD 01/04/1972 BANJARSARI RT. 03/02 BANTARKAWUNG KAB. BREBES
3454 1100440992 SAODAH 16/07/1958 BULAKAMBA RT. 04/01 BULAKAMBA KAB. BREBES
3455 1100440994 CHAIRUDIN 17/11/1968 SIDODADI RT 06 RW 01 KAB. WONOSOBO
3456 1100440996 MASKONAH 10/03/1970 BANJARSARI RT. 03/02 BANTARKAWUNG KAB. BREBES
3457 1100440997 SULASIH 18/11/1959 MAYASARI RT 04 RW 06 KAB. WONOSOBO
3458 1100440999 DARYANTO 12/11/1958 MAYASARI RT 04 RW 06 KAB. WONOSOBO
3459 1100441002 ADI USNAN 03/06/1978 JL. KH. DEWANTORO GG.22 /67 RT. 4/7 KOTA PEKALONGAN
3460 1100441003 NOOR CHAMIDAH 27/11/1980 JL. KH. DEWANTORO GG. 22/67 RT. 4 / 7 KOTA PEKALONGAN
3461 1100441005 SITI KUNIFAH KARTONO 23/06/1958 PATI WETAN 2/2 PATI KAB. PATI
3462 1100441009 SITI CHODIJAH 18/05/1959 BUMIJAWA RT.02/02 KAB. TEGAL
3463 1100441010 NAIMATUSSA'ADAH KARNADI MAEMUNAH 04/05/1980 NGAGEL 1/3 DUKUHSETI KAB. PATI
3464 1100441015 WARID MUNANDAR 21/02/1969 MAJASEM RT 07 RW 03 KAB. PURBALINGGA
3465 1100441016 SRI SUKOWATI 10/06/1966 PROYONANGGAN UTARA KEBONAN NO.9 01/04 KAB. BATANG
3466 1100441019 SRI KUSUMASTUTI 03/06/1965 DOPLANG RT 01 RW 01 KAB. BLORA
3467 1100441020 SUWARSO 09/12/1960 DOPLANG RT 01 RW 01 KAB. BLORA
3468 1100441022 MURTADLO 20/08/1971 PROYO UTARA KEBONAN NO.9 RT.01 RW.04 KAB. BATANG
3469 1100441023 HERI NURYANI 24/03/1980 WEDILELO RT.33/07 KARANGDUREN TENGARAN KAB. SEMARANG
3470 1100441025 CAHYO UTOMO 17/09/1976 WUNI 01/01 KAB. MAGELANG
3471 1100441026 SIRUN 21/05/1961 JL. CIBOGO NO. 33 RT. 01 RW. 02 KAB. CILACAP
3472 1100441027 DURROTUN NAFISAH 25/05/1978 WUNI 01/01 KAB. MAGELANG
3473 1100441030 SUSI SELLANI SARMAN 05/10/1979 SAMBIREJO 6/3 GABUS KAB. PATI
3474 1100441033 AFIK MAT SARONI 14/09/1979 SAMBIREJO 6/3 GABUS KAB. PATI
3475 1100441034 ANSORI 17/07/1967 PURWOSARI RT 03/01 KAB. PURWOREJO
3476 1100441036 PUJI ASTUTIK 10/12/1965 GUNUNGLEMAH 02/01 KAB. MAGELANG
3477 1100441037 NAPSIYAH 05/08/1960 CIPELEM RT.01/05 BULAKAMBA KAB. BREBES
3478 1100441038 TARTIB KARYADI 15/07/1963 GG. KANTIL II NO 5 RT 03 RW 08 KOTA MAGELANG
3479 1100441039 RIFQI FEBRIAN HARYONO 21/02/1985 JABRES RT. 02 .04 KAB. KEBUMEN
3480 1100441040 PREPTI HIDAYATI SARWAN 26/02/1987 JABRES RT.02/04 KAB. KEBUMEN
3481 1100441041 SITI HIMATUN NGALIYAH 23/05/1963 KEDUNGKAMAL RT 01/01 KAB. PURWOREJO
3482 1100441042 ALI MUSTOFA 09/06/1982 KOMPLEK DEPSOS BLOK D 5 /17 RT.12 RW.08 CIKARANG
KAB. TEGAL
B
3483 1100441043 NUR HARIROH 14/04/1981 TAMBAHREJO RT.02 RW.03 KAB. BATANG
3484 1100441044 SHODIQ 05/06/1960 KEDUNGKAMAL RT 01/01 KAB. PURWOREJO
3485 1100441045 MARYONO 04/01/1959 GUNUNG LEMAH 02/01 KAB. MAGELANG
3486 1100441046 KAMILAH 31/12/1959 BERSOLE RT.05/01 ADIWERNA KAB. TEGAL
3487 1100441047 MUHAMAD YULIANTO 10/07/1974 GG. KENARI NO.23 RT.12/RW.03 KAB. KENDAL
3488 1100441048 PUJI LESTARI SLAMET ARIFIN 01/11/1982 LUNDONG RT.02/02 KAB. KEBUMEN
3489 1100441049 WIDYAWATI 27/11/1973 BUMIHARJO LOR 02/02 KAB. KLATEN
3490 1100441050 INDAH PRIYANTINI 05/04/1968 JL. P. KEMERDEKAAN GG. 25 NO. 19 RT. 8/6 KOTA TEGAL
3491 1100441051 INDRIANI 16/06/1978 GG. KENARI NO.23 RT.12/RW.03 KAB. KENDAL
3492 1100441054 HARIS SOEHARTO 26/10/1966 JL. P. KEMERDEKAAN GG. 25 NO.19 RT. 8/6 KOTA TEGAL
3493 1100441055 NUR KHOLIS 12/05/1975 DUSUN KRAJAN DS. PAMRIYAN RT.06/RW.02 KAB. KENDAL
3494 1100441056 RUSTINI 12/01/1961 GROBOG WETAN RT.03/07 PANGKAH KAB. TEGAL
3495 1100441058 FITRI KURNIASIH 27/11/1992 GROBOG WETAN RT.03/07 PANGKAH KAB. TEGAL
3496 1100441059 DEWI ANGGORO WATI 18/01/1983 DUSUN KRAJAN DS. PAMRIYAN RT.06/RW.02 KAB. KENDAL
3497 1100441060 WAHYUMI 10/02/1967 GEDANGALAS RT.05/05 KAB. DEMAK
3498 1100441062 ATIKA TRI KARTIKA, AMD 15/03/1977 PERUM GEBANG RT 03 RW 025 KOTA SURAKARTA
3499 1100441063 SITI SAUDAH KHODLI'IN 18/01/1971 BAWU 08/02 KAB. JEPARA
3500 1100441064 HADI KUSNO 01/07/1959 DK. SETUMBU RT.03/02 KOTA SEMARANG
3501 1100441065 RAISULI SAPARA 23/11/1968 PERUM GEBANG NO. 22 RT. 03 RW.25 KOTA SURAKARTA
3502 1100441066 DALIMIN 07/12/1960 POKOH RT. 02 RW. 07 KAB. KARANGANYAR
3503 1100441067 CAHYADI HARI SANTOSA 19/08/1973 KABO 01/01 KAB. KLATEN
3504 1100441068 SUKINEM 05/04/1965 POKOH RT. 02 RW. 07 KAB. KARANGANYAR
3505 1100441069 DWITA DARMAWATI, SE, MSI 30/01/1975 KABO 01/01 KAB. KLATEN
3506 1100441070 ALI MUSYAFAK SARNGAT 06/06/1967 BAWU 08/02 KAB. JEPARA
3507 1100441074 J. SETYOWATI 05/07/1965 DK. SETUMBU RT.03/02 KOTA SEMARANG
3508 1100441076 MASTO'AH SOGOL MURNI 01/07/1957 NALUMSARI 004/003 KAB. JEPARA
3509 1100441080 FAUZY NATIK 19/07/1963 JL. MARGASARI RT. 01 RW. 21 KAB. CILACAP
3510 1100441081 MUNZAENAH 15/08/1971 JL. MARGASARI RT. 01 RW. 21 KAB. CILACAP
3511 1100441082 SITI PARYATUN 09/07/1974 GODEGAN RT.02/RW. 01 KAB. SUKOHARJO
3512 1100441083 KARTEM 31/01/1962 SOKAWERA RT. 2/1 KAB. BANYUMAS
3513 1100441084 ELOK NADHIFAH 18/05/1969 PASANGAN KWAYANGAN RT.02/01 KWAYANGAN KAB. PEKALONGAN
3514 1100441085 NUR TJAHYONO 07/07/1969 JLN. ARJUNA II/I PA 2 NO.1 RT. 02/17 KAB. MAGELANG
3515 1100441086 SARNIATI 03/07/1967 DSN. LEYANGAN RT.001 RW.001 KAB. SEMARANG
3516 1100441088 SABAR 12/12/1960 KEDUNGSEGOG RT.05 RW.03 KAB. BATANG
3517 1100441089 SRI AMINATU ZAETI 30/11/1969 JLN. ARJUNA II NO. 01 PA 2 RT. 02/17 KAB. MAGELANG
3518 1100441091 AGUS SUMARNO 02/12/1971 GODEGAN RT. 02/01 KAB. SUKOHARJO
3519 1100441092 TRI HENDAYANI , SPD 10/11/1973 KOMPLEK SMA TN P.66 RT. 01/20 KAB. MAGELANG
3520 1100441093 LULUK HIKMAH 19/02/1975 JOGOLOYO RT.03/05 KAB. DEMAK
3521 1100441094 AHMAD AZMIREZA 21/12/1995 DK. PASANGAN KWAYANGAN RT 01 / RW 01, KWAYANGAN,
KAB. PEKALONGAN
K
3522 1100441098 WALUYANINGSIH 10/05/1958 MANJUNG RT 01 RW 01 KAB. BOYOLALI
3523 1100441099 HASAN UDI 06/01/1966 JOGOLOYO RT.03/05 KAB. DEMAK
3524 1100441102 MUHAMAD MUHARI 03/09/1966 SOKO 02/01 KAB. GROBOGAN
3525 1100441104 RETNO KUNTARTI 01/01/1971 SOKO 02/01 KAB. GROBOGAN
3526 1100441105 PARYATI 09/10/1970 KEPOH 01/04 KAB. GROBOGAN
3527 1100441108 SUWARJO 07/08/1967 KEPOH 01/04 KAB. GROBOGAN
3528 1100441110 ULIN NUHA 11/04/1961 JL. KALIJAJAR RT.08/08 KAB. DEMAK
3529 1100441113 MUSYAFAAH 18/05/1977 JL. KALIJAJAR RT.08/08 KAB. DEMAK
3530 1100441114 SITI NGATIYAH 17/12/1959 PEKIRINGAN RT 02 RW 04 KAB. PURBALINGGA
3531 1100441120 RUKAYATUN SAMAN RATIPAH 01/12/1958 PATI KIDUL 5/3 PATI KAB. PATI
3532 1100441123 AMIR KHASANAH 17/09/1962 JOHO RT. 01 RW. 03 KAB. KARANGANYAR
3533 1100441124 SAKDIYATUL HANIK 02/07/1971 JL. JATIKUSUMAN II RT.01/04 KAB. DEMAK
3534 1100441126 SARGHONO 26/11/1962 JL. JATIKUSUMAN II RT.01/04 KAB. DEMAK
3535 1100441127 NGAMIN 09/04/1960 KLODRAN, RT.02/RW.02 KAB. TEMANGGUNG
3536 1100441128 RODIAH 14/07/1959 KARANGANYAR RT. 02/04 PAGERBARANG KAB. TEGAL
3537 1100441129 LINDA SUSANTI 29/03/1989 KELINGAN, RT.04/RW.04 KAB. TEMANGGUNG
3538 1100441132 BACHRODIN 09/12/1959 KELINGAN RT04 RW04 KAB. TEMANGGUNG
3539 1100441133 NIRSITI 20/02/1961 KELINGAN RT06 RW04 KAB. TEMANGGUNG
3540 1100441134 HENDRI SETYAWAN 17/03/1985 KELINGAN, RT.06/RW.04 KAB. TEMANGGUNG
3541 1100441137 HAMIDAH KHONZIN AHMAD 12/02/1971 MANYARGADING 04/01 KEC. KALINYAMATAN KAB. JEPARA
3542 1100441141 ROIKHAHTUL JANAH , SPD 03/12/1961 JL. LAYUR GG.4 NO.1 RT.03 RW.12 KOTA TEGAL
3543 1100441146 JUMAROH PANI KROMPOL 08/09/1979 NGABUL 02/07 KAB. JEPARA
3544 1100441147 ABDULLAH 31/12/1970 PURBAYAN RT 02/02 KAB. SUKOHARJO
3545 1100441148 MUHAMMAD GHURON MUHAJILIN 25/10/1975 PERUM BOTOMULYO RT.10/RW.06 KAB. KENDAL
3546 1100441150 SULKHAN JAMJURI KHUNDHORI 23/09/1972 NGABUL 02/07 KAB. JEPARA
3547 1100441152 MAINAH 21/02/1962 JL. LAYUR TIMUR NO. 19 RT. 04 RW. 08 KAB. CILACAP
3548 1100441153 PUJI LESTARI 25/06/1976 PERUM BOTOMULYO RT.10/RW.06 KAB. KENDAL
3549 1100441156 NORYATI 25/06/1966 JENARSARI RT.02/RW.02 KAB. KENDAL
3550 1100441158 KASIMAN, [Link] 19/06/1958 LOANO RT 03/01 KAB. PURWOREJO
3551 1100441159 IMROAH, [Link] 15/12/1962 LOANO RT 03/01 KAB. PURWOREJO
3552 1100441160 DEWI FATKHIYATI 02/08/1969 MUTERAN RT.26 RW.09 KAB. SEMARANG
3553 1100441161 FATMA WARNI NASRUN SOFWAN 11/12/1970 MLATI KIDUL RT.03 RW.03 KAB. KUDUS
3554 1100441162 MOH. AKHSANUL KHAQ AH. MALAHIM 14/10/1967 MLATI KIDUL RT.03 RW.03 KAB. KUDUS
3555 1100441163 SAPTADI 23/09/1965 DSN. MUTERAN RT.26 RW.29 KAB. SEMARANG
3556 1100441164 SUNIPAH MA'RUF MITOPANIRAN 05/05/1966 TULAKAN 04/04 KEC. DONOROJO KAB. JEPARA
3557 1100441165 ADMADI DJUPRI SUMO SAMIJAN 13/01/1964 PLADEN RT 02 RW 01 KAB. KUDUS
3558 1100441166 SUJIANTO SARIMIN SARISAIDIN 17/08/1958 TULAKAN 04/04 KEC. DONOROJO KAB. JEPARA
3559 1100441168 SLAMET,DRS 01/05/1965 AMONGROGO RT.01 RW.07 KAB. BATANG
3560 1100441171 ENDANG MUJIATI DJASIRAN 26/12/1974 PLADEN RT.02 RW.01 KAB. KUDUS
3561 1100441172 SIH BUDI WIYONO, SE 23/09/1974 TIRTO INDAH GG.2 NO.66 RT.01 RW.06 KOTA PEKALONGAN
3562 1100441173 DIANA SYARIFAH 02/04/1973 TIRTO INDAH GG.2 NO.66 RT.01 RW.06 KOTA PEKALONGAN
3563 1100441174 FATKHUL AMIN 09/07/1990 KEPATIHAN RT.07/03 WIRADESA KAB. PEKALONGAN
3564 1100441175 TUTI ALAWIYAH 28/03/1973 PACAR RT.05/02 TIRTO KAB. PEKALONGAN
3565 1100441176 UMAROH 15/05/1970 KEPATIHAN RT.07/03 WIRADESA KAB. PEKALONGAN
3566 1100441177 NURIDIN 15/12/1969 PACAR RT.05/02 TIRTO KAB. PEKALONGAN
3567 1100441178 SUKURDI 12/06/1974 SIMPAR RT.07 RW.01 KAB. BATANG
3568 1100441179 TAUFIQ MOH DURI MASKAT 13/03/1964 TANJUNGREJO RT 01 RW 04 KAB. KUDUS
3569 1100441180 ANISATUL FUADIYAH 09/04/1971 AMONGROGO RT.01 RW.07 KAB. BATANG
3570 1100441181 NUR FAIZAH 17/08/1984 SIMPAR RT.07 RW.01 KAB. BATANG
3571 1100441182 ASNA MUHAMMAD YASIN 09/09/1973 TANJUNGREJO RT 01 RW 04 KAB. KUDUS
3572 1100441183 TANTI PALUPI, IR 13/09/1969 JL. CEMARA NO.420 RT.05/04 TANJUNG KAB. BREBES
3573 1100441184 NUR KHASANAH 09/10/1969 DK. PAMUTIHAN RT 10 RW 03 KAB. PEMALANG
3574 1100441185 SAMSU 13/07/1965 BENDO RT 11 KAB. SRAGEN
3575 1100441186 SUTRIYATUN 07/06/1966 KESENENG RT 02/04 KAB. PURWOREJO
3576 1100441188 HASAN BISRI, [Link] 12/12/1958 LEMAHDUWUR RT.04/01 ADIWERNA KAB. TEGAL
3577 1100441189 USMAN TAUFIK,S.E 28/12/1969 JL. CEMARA NO.420 RT.05/04 TANJUNG KAB. BREBES
3578 1100441190 KATIYEM [Link] 03/05/1963 BENDO RT 11 KAB. SRAGEN
3579 1100441191 DWIJO WARSO 24/06/1964 KESENENG RT 02/04 KAB. PURWOREJO
NO NO. PORSI NAMA TANGGAL LAHIR ALAMAT KAB/KOTA KETERANGAN
3580 1100441192 ENDRA PRASTAWA 25/09/1965 DK PAMUTIHAN RT 10 RW 03 KAB. PEMALANG
3581 1100441193 SUGIARTI 23/03/1979 MARGOASRI RT 31/09 KAB. SRAGEN
3582 1100441194 TASIKHA 19/07/1965 LEMAHDUWUR RT.04/01 ADIWERNA KAB. TEGAL
3583 1100441195 SRI SUMARYATI SUMARSONO 17/08/1961 KARANGGAYAM RT.01/02 KAB. KEBUMEN
3584 1100441196 SAKIROH 12/10/1968 KARANGJONGKENG RT. 02/01 TONJONG KAB. BREBES
3585 1100441197 KHOLIFATUS SA'ADAH SUBRONTO 29/05/1971 TROSO 05/07 KAB. JEPARA
3586 1100441198 FAOZI 29/05/1966 KARANGJONGKENG RT. 02/01 TONJONG KAB. BREBES
3587 1100441199 DARYONO SANDURYAT RANADIWIRYA 11/07/1959 KARANGGAYAM RT. 01. 02 KAB. KEBUMEN
3588 1100441200 NGATINI KARMAN YAS 27/12/1962 BANYUDONO RT 003 RW 001 KALIORI KAB. REMBANG
3589 1100441201 KHURONZI KARNAN COLO 08/06/1959 TROSO 05/07 KAB. JEPARA
3590 1100441203 SADIMAN 10/04/1958 WIROREJAN RT. 02 RW. 03 KAB. KARANGANYAR
3591 1100441204 SEDEP WARGI ASTRO 13/12/1958 KRAPYAK 01/08 KAB. JEPARA
3592 1100441205 TRI WINARSIH 20/02/1964 WIROREJAN RT. 02 RW. 03 KAB. KARANGANYAR
3593 1100441207 MASHUR TAUFIK 12/06/1964 NGLARANGAN RT. 01 RW. 01 KAB. KARANGANYAR
3594 1100441208 SURATSI 28/01/1961 NGLARANGAN RT. 01 RW. 01 KAB. KARANGANYAR
3595 1100441210 UMI JASIROH 07/02/1976 WARENG RT. 02/01 BUTUH KAB. PURWOREJO
3596 1100441214 NUR MUKMINAH 26/10/1966 WARENG RT. 02/01 BUTUH KAB. PURWOREJO
3597 1100441215 SUGIYATMI 29/01/1959 MADYANTORO RT. 02 RW. 07 KAB. KARANGANYAR
3598 1100441220 ENDANG SULASIH 31/12/1973 DSN. SENGKRIK RT.04 RW.05 KAB. SEMARANG
3599 1100441222 SUTINAH 20/08/1959 KEBONDALEM RT. 01/01 KUTOARJO KAB. PURWOREJO
3600 1100441223 RAHAYU 05/05/1967 DSN. DSN. SENGKRIK RT.02 RW.05 KAB. SEMARANG
3601 1100441224 DARNINGSIH 04/08/1961 JL. BLIMBING GG. 7 NO. 24 RT. 03/07 KOTA TEGAL
3602 1100441225 MARFUAH MUHRI TANWAR 23/12/1973 JL. ARGAMAS BARAT III/428 RT 01 RW 13 KOTA SALATIGA
3603 1100441226 SUYATI RUKMAN SATIP 12/11/1982 DRESI KULON RT 002 RW 002 KALIORI KAB. REMBANG
3604 1100441227 M OPNAM SURURI 07/06/1974 PETAMBANKAN. RT. 002/003 KAB. BANJARNEGARA
3605 1100441228 RETNO PALUPI 18/11/1974 PETAMBAKAN. RT. 002/003 KAB. BANJARNEGARA
3606 1100441229 ACHMAD SUDJANI SUPARLAN 23/10/1979 DRESI KULON RT 002 RW 002 KALIORI KAB. REMBANG
3607 1100441230 DWI YANTI ANGGRAENI 27/06/1981 JL. GATOTKACA NO.04 RT. 005/004 SLEROK KOTA TEGAL
3608 1100441232 MUH ZUHRI 09/11/1972 SUKOLILO 02/01 SUKOLILO KAB. PATI
3609 1100441235 MOHAMAD ROSIDI 30/03/1963 SAPTAMARGA II/92 RT.06/04 KOTA SEMARANG
3610 1100441236 RASIYEM DARMO WARSI 02/06/1960 SUKOLILO 02/01 SUKOLILO KAB. PATI
3611 1100441237 MURNI PUJI SARININGSIH 24/06/1968 SAPTAMARGA II/92 RT.06/04 KOTA SEMARANG
3612 1100441238 SUTARJI 20/05/1972 TROWANGSAN RT. 04 RW. 01 KAB. KARANGANYAR
3613 1100441239 PARTINI 28/09/1961 TINJOMOYO RT.01/01 KOTA SEMARANG
3614 1100441240 WARSIH 15/01/1964 CABEAN RT.08/04 KAB. DEMAK
3615 1100441241 ROCHMIYATI 31/03/1964 JATILUHUR RT.02/05 KOTA SEMARANG
3616 1100441242 SRI MULYANTI 14/04/1969 TROWANGSAN RT. 04 RW. 01 KAB. KARANGANYAR
3617 1100441244 ALI ROHMAN 20/01/1965 GLAGAH OMBO RT 09 RW 03 KAB. BOYOLALI
3618 1100441245 LOSO NUGROHO 08/07/1964 KARANGLO RT. 06 RW. 06 KAB. KARANGANYAR
3619 1100441246 SITI KHOIRIYAH 27/08/1973 GLAGAH OMBO RT 09 RW 03 KAB. BOYOLALI
3620 1100441247 MARNI 27/09/1963 TEGUHAN 05/03 KAB. GROBOGAN
3621 1100441248 JOKO PRAYITNO, DRS 06/09/1967 NGERANGAN RT. 04 RW. 03 KAB. KARANGANYAR
3622 1100441250 AMIN MUSROFAH 06/06/1970 KARANGLO RT. 06 RW. 06 KAB. KARANGANYAR
3623 1100441251 MARDJUKI 11/08/1964 GUMUKREJO RT 06 RW 02 KAB. BOYOLALI
3624 1100441255 NGALIATUL MAIDAH 15/02/1969 GUMUKREJO RT 06 RW 02 KAB. BOYOLALI
3625 1100441259 MASHUDI 01/06/1962 CABEAN RT.08/04 KAB. DEMAK
3626 1100441260 ZAENUDIN 05/10/1972 TEGUHAN01/03 KAB. GROBOGAN
3627 1100441263 JASMIN NAPU 13/01/1966 JL. PUCANG ANOM IX/27 RT.06/18 KAB. DEMAK
3628 1100441264 KUSRIYAH 16/06/1972 DUSUN SIDADADI RT. 01 RW. 03 KAB. CILACAP
3629 1100441265 ROSIAH 13/07/1970 KEMURANG KULON RT. 01/03 TANJUNG KAB. BREBES
3630 1100441266 SRIYANI 09/12/1970 GEDAWUNG RT. 02 RW. 06 KAB. WONOGIRI
3631 1100441267 DWI HARYANTO 29/12/1960 JL. PUCANG ANOM IX/27 RT.06/18 KAB. DEMAK
3632 1100441268 SRIYONO 08/09/1962 GEDAWUNG RT. 02 RW. 06 KAB. WONOGIRI
3633 1100441270 PARDI 31/08/1966 BAKALAN RT.04 RW.12 KAB. WONOGIRI
3634 1100441272 SUMARTI 02/07/1958 PULOGADING RT. 01/01 BULAKAMBA KAB. BREBES
3635 1100441273 RUKAYAH 18/06/1973 BANYUPUTIH LOKOJOYO RT.03 RW.02 KAB. BATANG
3636 1100441274 MUJIYEM 26/06/1968 BAKALAN RT 04 RW 12 KAB. WONOGIRI
3637 1100441276 YASPARI 01/12/1963 DUSUN SIDADADI RT. 01 RW. 13 KAB. CILACAP
3638 1100441277 RUMANTI MARIYO KARTO ROHMAN 26/11/1973 KUTOHARJO RT 003 RW 001 REMBANG KAB. REMBANG
3639 1100441279 PURWANTO 02/11/1975 JATIREJO RT.02 RW.09 KAB. WONOGIRI
3640 1100441280 ETIEK RAHMAWATI 06/02/1980 JATIREJO RT.02 RW.09 KAB. WONOGIRI
3641 1100441282 MAHFUDOH 23/12/1967 PENGANTEN 01/02 KAB. GROBOGAN
3642 1100441283 SUTIYONO SARDJI SRI SUDARTI 30/09/1963 KUTOHARJO RT 003 RW 001 REMBANG KAB. REMBANG
3643 1100441284 TUKIMAN IROWAGIMO WONO 19/12/1957 KEBUMEN RT. 04. 01 KAB. KEBUMEN
3644 1100441285 SARJONO 31/12/1959 SAPEN RT 17/04 KAB. SRAGEN
3645 1100441286 JUMILAH 31/12/1960 SAPEN RT 17/04 KAB. SRAGEN
3646 1100441287 SUGINEM SONODIKROMO IROSONO 06/07/1960 KEBUMEN RT.04/01 KAB. KEBUMEN
3647 1100441289 SARJU TAMAJI KROMO 12/11/1960 SIDOWAYAH RT 001 RW 001 REMBANG KAB. REMBANG
3648 1100441290 URIFAH 17/05/1966 JL. MADUKORO 2/81 RT.03/01 KOTA SEMARANG
3649 1100441291 SRI HARYANI SUPRIYADI 11/10/1978 BENERKULON RT.05/02 KAB. KEBUMEN
3650 1100441292 UTIK PURWANTI MOCH ADJI 07/08/1963 KRASAK 01/01 KAB. JEPARA
3651 1100441293 SUMIASIH SUPARNO TARJO LAS 28/08/1963 SIDOWAYAH RT 001 RW 001 REMBANG KAB. REMBANG
3652 1100441295 MUHSININ 02/09/1963 MLATEN RT.03/01 KAB. DEMAK
3653 1100441296 MAKNO AMAD RUSMI 09/03/1972 BENERKULON RT.05/02 KAB. KEBUMEN
3654 1100441297 SHOFIYATUN 16/05/1968 MLATEN RT.03/01 KAB. DEMAK
3655 1100441301 PANJI SURYADI 14/04/1959 [Link] 439 RT.01/01 KOTA SEMARANG
3656 1100441304 RUBIAH KUMAIDI JASURI 01/07/1968 MULYOHARJO 04/04 KAB. JEPARA
3657 1100441305 ZAHLAN 31/12/1957 PELEM RT 02/02 KAB. BLORA
3658 1100441306 LISTIANA AMBARWATI 12/06/1972 [Link] NO.439 RT.01/01 KOTA SEMARANG
3659 1100441310 ZUMROTUN ASMAWI TRUNO 10/05/1962 GENENG 14/03 KAB. JEPARA
3660 1100441314 DJUWARIYAH 11/09/1967 MEDOHO SERUNI RT.02/04 KOTA SEMARANG
3661 1100441315 ENY RUFAIDAH SAFOEAN 02/09/1961 SODITAN RT 003 RW 002 LASEM KAB. REMBANG
3662 1100441316 DIAN ISWAHYUDI TRI HARTONO 09/12/1991 GANDIL RT.008/002 BENDUNGAN KEDAWUNG KAB. SRAGEN
3663 1100441318 SAEFUDIN 16/12/1977 DSN KEBONSARI RT. 03 RW. 16 KAB. PEMALANG
3664 1100441320 KARAMA BADRU ZAMAN 11/01/1962 SODITAN RT 010 RW 001 LASEM KAB. REMBANG
3665 1100441321 KHUSNUL KHOTIMAH 02/01/1985 JL. KASIPAH NO. 25A RT.01/09 KOTA SEMARANG
3666 1100441322 KENCANA TRI KURNIAWAN 16/02/1983 JL. KASIPAH NO.25A RT.01/09 KOTA SEMARANG
3667 1100441325 HENING KARTIKA RATRI 13/09/1964 SODITAN RT 010 RW 001 LASEM KAB. REMBANG
3668 1100441326 SRI HARYANTI 14/02/1971 KEDUNGWARU 01/02 KAB. GROBOGAN
3669 1100441330 YASIR 01/01/1963 KEDUNGWARU 01/02 KAB. GROBOGAN
3670 1100441333 AHMAD DASI 09/11/1975 PELEM RT 02/03 KAB. BLORA
3671 1100441334 CHADHIQ, SE 06/09/1962 BLOK II NO. 01 JOGIN 02 RT. 07/11 KAB. MAGELANG
3672 1100441335 WARYATUN 18/09/1976 KEDUNGKELOR RT. 01/04 WARUREJA KAB. TEGAL
3673 1100441336 HARTINI 21/01/1979 PELEM RT 02/03 KAB. BLORA
3674 1100441340 NUR KHAMILAH 19/09/1957 [Link] RT.04/03 KWAGEAN WONOPRINGGO KAB. PEKALONGAN
3675 1100441342 ACHMAD AFROH MUALIMAN 14/12/1993 SINGOSARI I RT. 05/11 KAB. MAGELANG
3676 1100441343 PURYANTO, SAG 10/06/1965 JL. MADUKORO 2/81 RT.03/01 KOTA SEMARANG
3677 1100441344 SRI SUGIYARTI 13/07/1966 ARGASARI, RT.01/RW.03 KAB. TEMANGGUNG
3678 1100441346 NOVIDTA ERWHINDIYANTI 28/11/1975 JL. KEBONROJO UTARA II NO.2 RT.02/12 KAB. REMBANG
3679 1100441348 BOWO KUSTIATI 27/06/1975 BABAKAN RT. 02 RW. 02 KAB. PEMALANG
3680 1100441353 KUSTONI BR 09/02/1972 BABAKAN RT.02 RW.02 KAB. PEMALANG
3681 1100441354 KIKA ALDELA RAHMAYANTI 10/09/1990 SENDANGREJO 3/2 TAYU KAB. PATI
3682 1100441356 KASMINAH 20/11/1957 BOTOMULYO RT.05/RW.05 KAB. KENDAL
3683 1100441357 KARTIKA DEWI SETYAWATI 29/07/1967 SENDANGREJO 3/2 TAYU KAB. PATI
3684 1100441358 ENDANG SRI ASTUTI 16/08/1959 JL. KEDUNGJATI 02/04 KAB. GROBOGAN
3685 1100441359 SUJIMAN 05/04/1958 KARANGANYAR RT 03/01 KAB. PURWOREJO
3686 1100441363 ABDUL ROCHIM 22/12/1965 DUSUN BARAN RT.03 RW.04 KAB. SEMARANG
3687 1100441364 SUSILOWATI 09/07/1963 KARANGANYAR RT. 03/01 PITURUH KAB. PURWOREJO
3688 1100441365 PASIRIN 24/06/1958 BATANG 04/05 KAB. GROBOGAN
3689 1100441367 ARIS WIBOWO 21/03/1978 TANJUNG RT. 03 / RW. 09 KAB. SUKOHARJO
3690 1100441368 SARONO 24/03/1959 SIDOMULYO RT 01 RW 04 KAB. BOYOLALI
3691 1100441370 SOFIYAH 01/10/1964 DUKUHWALUH [Link] BONANG RT.2/6 KAB. BANYUMAS
3692 1100441371 MAR'ATUS SHOLIHATI ALBILADIYAH , SPD 18/08/1975 PLASAN RT 15 KAB. SRAGEN
3693 1100441372 DARMI 15/09/1960 BATANG 04/05 KAB. GROBOGAN
3694 1100441373 SUWAHYUNI 26/08/1966 SIDOMULYO RT 01 RW 04 KAB. BOYOLALI
3695 1100441374 KHOLIS SYAIFULLAH, DRS 18/10/1968 PLASAN RT 15 KAB. SRAGEN
3696 1100441376 ROKHMAN HIDAYAT 07/05/1962 ARGASARI, RT.01/RW.03 KAB. TEMANGGUNG
3697 1100441378 NURI ROKHMANI 02/09/1981 TANJUNG RT.03/RW.09 KAB. SUKOHARJO
3698 1100441381 ETOK SURISTIYONO 13/04/1968 PUSPITASARI F.7 WIKU II RT.03/04 KAB. DEMAK
3699 1100441384 SRI ADI ATI 19/04/1971 PUSPITA SARI F.7 WIKU II RT.03/04 KAB. DEMAK
3700 1100441386 SALIM 23/01/1977 PRUMASAN RT 001 / RW 001 KAB. WONOSOBO
3701 1100441387 SLAMET WIDODO, SE, MM 12/01/1978 GRIYA DELANGGU INDAH D07 04/08 KAB. KLATEN
3702 1100441388 ANA TADZKIROTUL HASANAH 05/04/1982 [Link] DALAM RT.07/01 KOTA SEMARANG
3703 1100441389 SUMARNI 19/12/1980 GRIYA DELANGGU INDAH D7 04/08 KAB. KLATEN
3704 1100441390 SHOLAKHUDIN 12/06/1979 GUMAWANG RT.12/04 WIRADESA KAB. PEKALONGAN
3705 1100441391 TRI MARGO UTOMO, SH 06/07/1975 JL. GEDONGSONGO DALAM RT.07/01 KOTA SEMARANG
3706 1100441392 SOLEH ADIM SUKARWI 03/10/1966 KALIKALONG 2/3 TAYU KAB. PATI
3707 1100441393 SRI INDRAYATI 14/04/1986 GUMAWANG RT.12/04 WIRADESA KAB. PEKALONGAN
NO NO. PORSI NAMA TANGGAL LAHIR ALAMAT KAB/KOTA KETERANGAN
3708 1100441397 ALI MASHAR 07/07/1968 KRAJAN 03/02 KAB. MAGELANG
3709 1100441398 TUKIYAH 02/07/1958 KLAPAGADING RT. 2/1 KAB. BANYUMAS
3710 1100441399 SUPIYAH KAMSI SUNAH 01/07/1966 KALIKALONG 2/3 TAYU KAB. PATI
3711 1100441401 SITI SARIFAH YULIYATI 21/07/1969 KRAJAN 03/02 KAB. MAGELANG
3712 1100441402 SUTIADI 08/07/1960 [Link] RT.3/3 SKRJ TENGAH KAB. BANYUMAS
3713 1100441405 ISMANTO REMBI SAKIRAN 27/07/1972 TAWANGREJO RT 003 RW 002 SARANG KAB. REMBANG
3714 1100441406 MIS PRASETYATI 24/02/1966 PEJAGALAN WETAN RT.03 RW.03 KAB. BANYUMAS
3715 1100441409 SRI MURDIYAH 15/08/1962 DSN. JANGGELAN 02/01 KAB. MAGELANG
3716 1100441410 WACHYUDI ROSIMAN SANKASBI 04/12/1964 KUWARISAN RT.01/03 KAB. KEBUMEN
3717 1100441411 RASMINI RASMIN KISNARNI 12/06/1975 TAWANGREJO RT 003 RW 002 SARANG KAB. REMBANG
3718 1100441412 NUR ANISA 11/12/1965 [Link] III/20 RT.03/10 KOTA SEMARANG
3719 1100441413 WARDATUN ISTIQOMAH AHMAD BAEDHOWY 15/11/1973 KUWARISAN RT. 01. 03 KAB. KEBUMEN
3720 1100441415 ROJIKAN BIN DJAKI 22/03/1967 KP. SEDOMPYONG III/20 RT.03/10 KOTA SEMARANG
3721 1100441421 CHOIRUL ANWAR JAWAHIR 26/06/1972 BONJOR RT 003 RW 001 SARANG KAB. REMBANG
3722 1100441422 GATOT SANYOTO 24/04/1958 KLANDARAN RT. 02/01 NGOMBOL KAB. PURWOREJO
3723 1100441423 MARSINAH MARDIMIN LELES 21/03/1963 SENDANGMULYO RT 002 RW 001 SARANG KAB. REMBANG
3724 1100441425 TASRIAH 31/12/1964 DSN PENANGGALAN RT. 03 RW. 02 KAB. PEMALANG
3725 1100441426 SUYATI 21/01/1958 KLANDARAN RT. 02/01 NGOMBOL KAB. PURWOREJO
3726 1100441428 BAMBANG SUSILO NUGROHO 20/12/1974 KALIBOTO RT. 02/02 BENER KAB. PURWOREJO
3727 1100441430 MUCH MISBAH ASSA'DI 10/08/1996 GINTUNGAN RT 01/04 KAB. PURWOREJO
3728 1100441431 NURUL MA'RIFAH 25/07/1974 KALIBOTO RT. 02/02 BENER KAB. PURWOREJO
3729 1100441434 MARGONO GAYO JAMINAH 01/01/1965 KUDUR 1/3 WINONG KAB. PATI
3730 1100441436 SRI MURYATI SUPAR 05/04/1973 KUDUR 1/3 WINONG KAB. PATI
3731 1100441437 BUDIYONO SUKEMI SUHARTINI 05/11/1965 SRIKATON 10/5 JAKEN KAB. PATI
3732 1100441438 NUR HIDAYAH KAMIM ANWAR 16/10/1969 SRIKATON 10/5 JAKEN KAB. PATI
3733 1100441440 SUHARIYONO , SP 29/06/1967 KOMPLEK SMA TN P. 66 RT. 01/20 KAB. MAGELANG
3734 1100441441 ROYHANATUL JANNAH 25/01/1998 BOLOAGUNG 7/1 KAYEN KAB. PATI
3735 1100441442 DEWI SURASTUTI SUMARTO 24/04/1967 BOLOAGUNG 7/1 KAYEN KAB. PATI
3736 1100441443 DWI HARTANTO 30/01/1975 [Link] TIMUR RT.3/4 BERKOH KAB. BANYUMAS
3737 1100441444 DANANG CAHYA PERMADI, DRS, MM 16/04/1970 JL. PLAMONGAN ASRI II/232 RT.03/09 KOTA SEMARANG
3738 1100441445 SRI MURNIATI 13/01/1978 [Link] TIMUR RT.3/4 BERKOH KAB. BANYUMAS
3739 1100441447 ISTIQOMAH, SPD 25/09/1971 JL. PLAMONGAN ASRI II/232 RT.03/09 KOTA SEMARANG
3740 1100441450 DRA. HERLINA 29/08/1966 METESEH RT. 04/05 KAB. MAGELANG
3741 1100441454 DJARMI 06/04/1958 DUSUN LOCONDONG RT.05 RW.04 KAB. BANYUMAS
3742 1100441456 SITI SULIKAH 05/07/1968 REKSOSARI RT.09 RW.01 KAB. SEMARANG
3743 1100441457 MUHWAN 10/02/1962 JONO 01/01 KAB. GROBOGAN
3744 1100441458 SITI MAESAROH 20/03/1968 JONO 01/01 KAB. GROBOGAN
3745 1100441459 WARSINI 30/12/1960 BEDUG RT.17/04 PANGKAH KAB. TEGAL
3746 1100441460 MUSYAFAK 18/04/1962 DUSUN SARIMULYO RT.06/RW.02 KAB. KENDAL
3747 1100441461 NUR IKHWAN 10/11/1963 NGEBRAK, RT.01/RW.04 KAB. TEMANGGUNG
3748 1100441463 SITI HAMIDAH 07/12/1970 [Link] RAYA RT.09/04 KOTA SEMARANG
3749 1100441464 BUDI PAKARTI TRI BAKTI UTAMI 19/11/1961 MANGKUYUDAN RT.01 RW.03 KOTA SURAKARTA
3750 1100441469 KUSRIYATI 19/06/1968 JL.G TUGEL RT.4/8 KARANGKLESEM KAB. BANYUMAS
3751 1100441470 [Link] 17/02/1960 DSN. REKSOSARI RT.09 RW.01 KAB. SEMARANG
3752 1100441474 TITIK SUSILANINGSIH 20/04/1962 KENTENG NO.47 RT.05 RW.03 KAB. WONOSOBO
3753 1100441475 SUREMI 12/08/1964 DUKUHWARU RT.05/04 KAB. TEGAL
3754 1100441476 BAMBANG SUMANTRI 21/07/1959 KENTENG RT 03 RW 03 KAB. WONOSOBO
3755 1100441477 YULI SUHARTO 27/07/1963 PERUM PATRA INDAH BLOK C-19 RT. 3/20 KAB. CILACAP
3756 1100441478 NUR KHOTIMAH 20/06/1983 MASIN NO.30 RT.01 RW.01 KAB. BATANG
3757 1100441480 ISTI HARSIATI 12/11/1968 PERUM PATRA INDAH BLOK C 19 RT. 03/20 KAB. CILACAP
3758 1100441481 MOH. SOFWAN 12/12/1976 MASIN NO.30 RT.01 RW.01 KAB. BATANG
3759 1100441483 SRIWULAN 08/09/1961 SARIGLAGAH RT.01 RW.01 KAB. BATANG
3760 1100441485 SUYATNO 06/05/1959 SARIGLAGAH RT.01 RW.01 KAB. BATANG
3761 1100441486 WARSIDI 04/04/1961 MANGUNAN RT 05 RW 03 KAB. WONOSOBO
3762 1100441487 WIRYO SUGIARTO 09/11/1974 BLADO [Link] BLADO NO.11 RT.06 RW.03 KAB. BATANG
3763 1100441488 RUSMIYATI 27/08/1959 DUSUN GENTENG WETAN RT. 03 RW. 03 KAB. CILACAP
3764 1100441492 SITI MAGHFIROH , SE 06/03/1973 PERUM UNGARAN BARU LEYANGAN B.11 RT.3/12KAB. SEMARANG
3765 1100441493 NURSIYAH 05/10/1966 MANGUNAN RT 05 RW 03 KAB. WONOSOBO
3766 1100441497 A ISNANTO , SIP 01/10/1965 PERUM UNGARAN BARU LEYANGAN B.11 RT.3/12KAB. SEMARANG
3767 1100441498 SUYONO 30/12/1966 KEMBARAN RT.01 RW.01 KAB. WONOSOBO
3768 1100441499 HELTI DIAS TRI DWI AGUSTINE, AMK 25/08/1988 JL. NUSA INDAH RT.04/03 KABUNAN KAB. TEGAL
3769 1100441501 GUNAWAN NUR HARYANTO 18/09/1968 PERUM BUKIT PERMAI E/II RT.07/01 BAWEN KAB. SEMARANG
3770 1100441502 AHMAD JAZULI, SH 05/05/1984 JL. NUSA INDAH RT.04/03 KABUNAN KAB. TEGAL
3771 1100441503 NIKMAH 02/06/1969 KEMBARAN RT.01 RW.01 KAB. WONOSOBO
3772 1100441504 JOKO SULISTIO 21/06/1979 SIDAHARJA RT. 26/01 SURADADI KAB. TEGAL
3773 1100441505 RUS WIDAYATMI , SH 08/01/1965 PERUM BAWEN BUKIT PERMAI E.11 RT.07/01 KAB. SEMARANG
3774 1100441509 PENO 01/04/1966 DSN PENANGGALAN RT. 03 RW. 02 KAB. PEMALANG
3775 1100441510 AGUSTIN EKHA PUTRI 17/08/1983 SIDAHARJA RT. 26/01 SURADADI KAB. TEGAL
3776 1100441511 TARWIYATININGSIH MOCH CHOLIL 24/12/1958 JL. TUREN NO. 21 RT 01 RW 04 KOTA SALATIGA
3777 1100441512 SUPARNO 04/12/1960 LINGK. WERU, RT.01/RW.03 KAB. TEMANGGUNG
3778 1100441513 R. DHANNY SUSETYA WIDIANTA 08/01/1988 DSN. DUNGUS BLOK II RT.012/003 DS SUKODONOKOTA SALATIGA
3779 1100441521 MUSLICHAH 12/03/1974 WADAS PUTIH RT.01 RW.01 KAB. WONOSOBO
3780 1100441522 KHODIJAH 31/12/1958 SIGEDONG RT.02/02 BUMIJAWA KAB. TEGAL
3781 1100441523 ACHMAD MA'RUF 20/05/1975 WADAS PUTIH RT.01 RW.01 KAB. WONOSOBO
3782 1100441524 MARSUDI 12/11/1964 PUSPO, RT.09/RW.03 KAB. TEMANGGUNG
3783 1100441525 ZUNAEROH 04/07/1983 WADAS PUTIH RT 01 RW 01 KAB. WONOSOBO
3784 1100441526 RUSMINAH 12/05/1967 PUSPO RT09 RW03 KAB. TEMANGGUNG
3785 1100441527 KHOTIMAH 02/04/1963 DUSUN REJASARI RT. 04 RW. 03 KAB. CILACAP
3786 1100441528 MASKUR 17/01/1980 DUSUN REJASARI RT 005 / RW 009 KAB. CILACAP
3787 1100441529 FATKHURROKHMAN 12/07/1972 KOBER INDAH SREMPENG WETAN 212 RT.4/8 KAB. BANYUMAS
3788 1100441531 SARI LAELA SA'DIJAH 20/01/1972 KOBER INDAH SREMPENG WETAN 212 RT 4/8 KAB. BANYUMAS
3789 1100441534 AMIRUL HUDA 13/06/1975 PANICAN RT 14 RW 05 KAB. PURBALINGGA
3790 1100441535 TRI SETIATI ROKHANA 17/01/1963 PANICAN RT 14 RW 05 KAB. PURBALINGGA
3791 1100441540 YAMSIH 07/11/1980 SIGEDONG RT.03/03 BUMIJAWA KAB. TEGAL
3792 1100441544 SUYATNO 22/01/1971 SIGEDONG RT.03/03 BUMIJAWA KAB. TEGAL
3793 1100441545 SHOLIHATIN ANISA 30/12/1969 MANGGISAN INDAH RT 04 RW 06 KAB. WONOSOBO
3794 1100441549 SUPARTI 23/07/1960 JETAK TANI RT 02 KAB. SRAGEN
3795 1100441551 LASIDI 16/02/1961 AROMASARI RT.06/RW.01 KAB. KENDAL
3796 1100441553 TATIK MURGIATI 01/09/1961 NGROJO RT 05/01 KAB. BLORA
3797 1100441556 KUATONO 01/05/1960 NGROJO RT 05/01 KAB. BLORA
3798 1100441558 PURNOMO 11/03/1965 SRIBIT RT 04 RW 03 KAB. WONOSOBO
3799 1100441559 HARUN 15/12/1958 ADIWERNA RT.24/05 KAB. TEGAL
3800 1100441560 KUTBIYATI 21/02/1963 TLOGOPUCANG SELATAN, RT.01/RW.04 KAB. TEMANGGUNG
3801 1100441561 SUPRAPTI 01/01/1970 SRIBIT RT 04 RW 03 KAB. WONOSOBO
3802 1100441562 AL CHANI 12/05/1959 KRANDEGAN RT 002/003 KAB. BANJARNEGARA
3803 1100441563 SAMROTUN 15/02/1964 ADIWERNA RT.24/05 KAB. TEGAL
3804 1100441566 SURAHNING 15/06/1964 TRIMULYO RT.04/01 KOTA SEMARANG
3805 1100441567 NADLIROH 30/05/1960 KRANDEGAN RT 002/003 KAB. BANJARNEGARA
3806 1100441569 SOIDAH 31/12/1962 KEDUNGBANTENG RT. 25/12 KAB. TEGAL
3807 1100441570 WAHYUNI WARSO WIYONO 17/01/1960 KEMBARAN RT. 04. 02 KAB. KEBUMEN
3808 1100441572 NURUDIN SUYUTI THOIB 23/06/1973 ROBAYAN 01/01 KEC. KALINYAMATAN KAB. JEPARA
3809 1100441573 JAENUDIN 01/04/1965 SIDAPURNA RT. 05/01 DUKUHTURI KAB. TEGAL
3810 1100441575 SURAHMAT 07/08/1959 TLOGOPUCANG SELATAN, RT.02/RW.04 KAB. TEMANGGUNG
3811 1100441576 BASIRUN KISMO WIREJO 06/12/1959 KEMBARAN RT.004/002 KAB. KEBUMEN
3812 1100441577 KUNAESIH 10/07/1980 SIDAPURNA RT. 05/01 DUKUHTURI KAB. TEGAL
3813 1100441578 FARIDA SUWARDI PARTO 26/10/1975 ROBAYAN 01/01 KEC. KALINYAMATAN KAB. JEPARA
3814 1100441579 NURLAELI 08/08/1972 JL. PALA BARAT RAYA BLOK O NO. 26 KAB. TEGAL
3815 1100441581 MUH ICHSAN 31/03/1969 DSN KUREN RT.10 RW.05 MAGETAN KAB. KLATEN
3816 1100441582 IMRONAH 31/12/1965 TLOGOPUCANG SELATAN, RT.04/RW.04 KAB. TEMANGGUNG
3817 1100441583 MOHAMAD NAZARUDIN 10/10/1969 JL. PALA BARAT RAYA BLOK O NO.26 KAB. TEGAL
3818 1100441587 SRI ROHANAH 08/09/1967 WARGA MULYA RT.10/04 PAGUYANGAN KAB. BREBES
3819 1100441588 DIAN RATNAWATI 02/01/1984 BLADO JL. RAYA BLADO NO.11 RT.06 RW.03 KAB. BATANG
3820 1100441589 DARMO 07/08/1958 WARGA MULYA RT. 10/04 PAGUYANGAN KAB. BREBES
3821 1100441590 TOHIRIN 03/06/1963 TLOGOPUCANG SELATAN, RT.04/RW.04 KAB. TEMANGGUNG
3822 1100441593 MURMINAH 03/10/1960 WANAREJA RT. 04/03 SIRAMPOG KAB. BREBES
3823 1100441594 KASMIYATUN 18/08/1960 JL. CINDE RAYA NO.25B RT.05/06 KOTA SEMARANG
3824 1100441595 UMAEMAH DRA. 14/11/1963 JL. PERKUTUT 1 NO.2 RT.04 RW.05 KOTA TEGAL
3825 1100441597 SARWAN 31/12/1958 TLILIR, RT.04/RW.01 KAB. TEMANGGUNG
3826 1100441599 ASHFIA RIFKI SAFAUZIA 10/04/1999 BUMI MADUKORO DAMAI RT.06/04 BUMIRESO KAB. WONOSOBO
3827 1100441600 UMI CHOMSIATUN 15/05/1960 PARANGSARPO VII/18 RT.02/12 KOTA SEMARANG
3828 1100441601 ARI RAHMAWATI, [Link]. 10/10/1974 SUROPATI RT.03 RW.09 KAB. WONOSOBO
3829 1100441603 M. ARIF TOM TOM AB 16/12/1972 GLAGAHOMBO 01/07 KAB. MAGELANG
3830 1100441605 KHASANAH 07/06/1971 PAGERAJI RT. 1/2 KAB. BANYUMAS
3831 1100441607 ENDANG RAHAYUNINGSIH 03/04/1962 GLAGAH I RT. 04/03 KAB. MAGELANG
3832 1100441608 NURKHOLIS 09/08/1961 GLAGAH I RT. 04/03 KAB. MAGELANG
3833 1100441609 KHASANUDIN SOBIR 05/12/1968 PAGERAJI RT. 1/2 KAB. BANYUMAS
3834 1100441610 KOYIMAH 15/06/1968 DUSUN GENTENG WETAN RT. 03 RW. 03 KAB. CILACAP
3835 1100441611 NINA LESTARI, SH 25/02/1967 JAPUAN 01/03 KAB. MAGELANG
NO NO. PORSI NAMA TANGGAL LAHIR ALAMAT KAB/KOTA KETERANGAN
3836 1100441612 EDI MASRUR .SH .MM 25/08/1966 JAPUAN 01/03 KAB. MAGELANG
3837 1100441614 SOLEH 01/07/1964 DS. BOTORECO RT 01/02 KAB. BLORA
3838 1100441615 NGATIJO MARTADIKRAMA KETADIKRAMA 13/02/1964 JOGOPATEN RT. 01. 03 KAB. KEBUMEN
3839 1100441619 TRI SUTARI 09/11/1970 NGEBRAK, RT.01/RW.04 KAB. TEMANGGUNG
3840 1100441620 SUKHORI MUHADI NOWAWI 09/11/1959 AMPIH RT.02/05 KAB. KEBUMEN
3841 1100441622 TOHA DULKHALIM DULAH MASUM 01/01/1960 PONCOWARNO RT..02/01 KAB. KEBUMEN
3842 1100441623 UMI NGAISAH DIMYATI HOZALI 04/12/1963 PONCOWARNO RT.02/01 KAB. KEBUMEN
3843 1100441625 WAJIMAN 10/10/1962 BUMI WANAMUKTI BLOK G-3/22 RT.07/04 KOTA SEMARANG
3844 1100441628 AYIK SAYEKTI MASYHURI 09/05/1965 CENDONO RT 05 RW 01 KAB. KUDUS
3845 1100441630 NAFI'AN KARTANI JAMARI 04/06/1964 CENDONO RT.05 RW.01 KAB. KUDUS
3846 1100441639 NURUL RAHMAWATI 11/09/1977 PULOSARI RT.02/02 KAB. DEMAK
3847 1100441640 CARMIASIH 31/12/1957 KARANG TENGAH RT 03 RW 06 KAB. BANYUMAS
3848 1100441641 JOKO PURNOMO 02/08/1971 PULOSARI RT.02/02 KAB. DEMAK
3849 1100441642 SRI NURHAYATI 28/01/1965 JLAMPRANG PERMAI RT 03 RW 04 KAB. WONOSOBO
3850 1100441643 IMAM PRIBADI 19/07/1967 JLAMPRANG PERMAI RT 03 RW 04 KAB. WONOSOBO
3851 1100441646 EVI ERLIYANI 06/05/1973 SIYONO RT.01 RW.02 KAB. WONOSOBO
3852 1100441647 EKO RASTOTO 24/03/1968 SIYONO RT 01 RW 02 KAB. WONOSOBO
3853 1100441650 NOOR FAIDAH 05/02/1960 MANDUNG RT.03/01 KAB. DEMAK
3854 1100441651 SUYOSO 13/09/1960 KLERONG RT. 06 RW. 03 KAB. KARANGANYAR
3855 1100441653 SUTINI 05/03/1967 KLERONG RT. 06 RW. 03 KAB. KARANGANYAR
3856 1100441654 DUROTUN MAHFUDZOH, [Link] 02/04/1984 BALAPULANG WETAN RT. 05/06 KAB. TEGAL
3857 1100441655 KHOLILUR ROHMAN, SE 05/02/1981 BALAPULANG WETAN RT. 05/06 KAB. TEGAL
3858 1100441656 ASROR FAHMI 02/11/1984 BUNGO RT.004/001 BUNGO WEDUNG KAB. DEMAK
3859 1100441657 ILMI HIDAYAT ASMICHAN 30/09/1971 MAYONG LOR RT.005/009 KAB. JEPARA
3860 1100441658 SITI NUR HIDAYATI 21/03/1963 DADABONG 05/04 KAB. GROBOGAN
3861 1100441659 SUYATNO 08/08/1958 DALEMAN 14/07 KAB. KLATEN
3862 1100441660 M. MUKHLIS PASRIBIN SURO 09/05/1966 MAYONG LOR RT.005/009 KAB. JEPARA
3863 1100441661 RETNO YUNI AMBARWATI 09/06/1961 PERUM DEPKES B6/ 20 RT. 05 RW. 06 KOTA MAGELANG
3864 1100441662 PURTOYO, SH 05/11/1966 JL. ANJASMORO RAYA NO.14 RT.04/02 KOTA SEMARANG
3865 1100441663 SRI MULYANI 20/12/1963 DALEMAN 14/07 KAB. KLATEN
3866 1100441664 AINA WARDAH 25/09/1984 JEJEG RT.07/01 BUMIJAWA KAB. TEGAL
3867 1100441665 KHAERONI, [Link] 18/08/1973 JEJEG RT.07/01 BUMIJAWA KAB. TEGAL
3868 1100441666 RIYONO SUSIANTO 17/03/1960 PERUM DEPKES B6/20 RT 05 RW 06 KOTA MAGELANG
3869 1100441669 CHASIATI 24/11/1959 PEKUNCEN RT.06/08 WIRADESA KAB. PEKALONGAN
3870 1100441671 KOTIJAH 24/03/1958 CABEAN RT.07/01 KAB. DEMAK
3871 1100441675 ANIK WINARSIH 23/09/1965 PUNTUKSARI RT 03 RW 01 KAB. WONOSOBO
3872 1100441677 KUSNIATI SUWONO SUPATMI 27/11/1959 PUNCEL 2/1 DUKUHSETI KAB. PATI
3873 1100441678 NURLAELA 10/01/1972 PAMIRITAN RT. 01/07 BALAPULANG KAB. TEGAL
3874 1100441680 SUCIPTO ROSO 26/03/1967 PAMIRITAN RT. 01/07 BALAPULANG KAB. TEGAL
3875 1100441681 SUYATNI 15/04/1964 BULAK WETAN RT.02 RW.04 KAB. WONOGIRI
3876 1100441682 AZIZ RIFA'I 18/07/1977 PERUM ARRAYAN 3 BLOK C.76 RT 006 / RW 004 KOTA SEMARANG
3877 1100441683 MUNARTO 15/08/1963 BAJONG RT 01 RW 01 KAB. PURBALINGGA
3878 1100441684 WIYONO CIPTO SUWARNO 25/08/1959 BULAK WETAN RT.02 RW.04 KAB. WONOGIRI
3879 1100441685 MUNGINAH 08/11/1963 BAJONG RT 01 RW 01 KAB. PURBALINGGA
3880 1100441688 WAHYUNI ACHMAD JAZULI 29/11/1963 WEDELAN 01/02 KAB. JEPARA
3881 1100441690 LINA KUSRINI 22/11/1979 JL. TLOGOMUKTI GRAHA MAS C-1 RT.10/26 KOTA SEMARANG
3882 1100441691 MOHAMMAD ROISUDIN 02/03/1968 KRANDEGAN RT 001 RW 003 KAB. BANJARNEGARA
3883 1100441695 ORI HARYANINGSIH SUHARTO HARTOWIYONO 09/03/1970 WINONG KAB. PATI
3884 1100441697 SOFIYATUN 31/12/1957 TRIMULYO RT.02/02 KOTA SEMARANG
3885 1100441698 SLAMET JAKA MULYANA 09/03/1969 WINONG KAB. PATI
3886 1100441702 SOFIYANTO 01/02/1980 JL. TLOGOMUKTI GRAHA MAS C-1 RT.10/26 KOTA SEMARANG
3887 1100441705 SUTIMAH 04/07/1957 PUNDENARUM RT.01/01 KAB. DEMAK
3888 1100441707 MARSINI 13/04/1962 SRAGO CILIK 02/06 KAB. KLATEN
3889 1100441708 MUSAROFAH 13/06/1973 [Link] TENGAH II/28 RT.02/06 KOTA SEMARANG
3890 1100441709 SRI UTAMI 15/12/1964 SEMBUNGHARJO PERMAI D-3 RT.04/08 KOTA SEMARANG
3891 1100441710 SUPRIYANTO 03/04/1960 SRAGO CILIK 02/06 KAB. KLATEN
3892 1100441711 MUALIM 10/05/1973 [Link] TENGAH II/28 RT.02/06 KOTA SEMARANG
3893 1100441712 SUYANTO 09/06/1973 SEMBUNGHARJO PERMAI D-3 RT.04/08 KOTA SEMARANG
3894 1100441713 WITATI 10/01/1969 JL. LAYANG BARAT NO. 15 RT. 01/09 KOTA TEGAL
3895 1100441714 SARNO 05/06/1959 NGUTER RT. 02/04 KAB. SUKOHARJO
3896 1100441720 SRI ROKHANI 26/06/1962 NGUTER RT.02/RW.04 KAB. SUKOHARJO
3897 1100441723 YULIANA RATNANINGSIH 02/07/1976 NGEMPLAK RT 13/06 KAB. SRAGEN
3898 1100441726 ISTI ROJABIYAH 26/12/1964 KAMAL RT. 34/13 KAB. MAGELANG
3899 1100441727 SARWO JARWONO 28/01/1966 NGEMPLAK RT 13/06 KAB. SRAGEN
3900 1100441728 ARIF BUDIYANTO 29/12/1971 PERUM TIARA ARDI BLOK E4 RT 02 RW 11 KAB. BOYOLALI
3901 1100441729 HJ. ROKHILAH 15/07/1970 MOGA RT. 02 RW. 05 KAB. PEMALANG
3902 1100441733 ALDINO YUSAR UMAMSYAH 14/12/1996 TAMBAKROMO 04/02 TAMBAKROMO KAB. PATI
3903 1100441735 SUDIARTO RADI SUWARSI 24/06/1967 TAMBAKROMO 04/02 TAMBAKROMO KAB. PATI
3904 1100441736 WISNU PRAMUDIYA WARDHANA 09/06/1983 POKAKAN RT 002 / RW 004 KAB. SUKOHARJO
3905 1100441737 NURSITA KURNIASIH 15/07/1976 PERUM TIARA ARDI BLOK E4 RT 02 RW 11 KAB. BOYOLALI
3906 1100441738 SUTARDI INDRO PARAHMIN 11/06/1962 GETAS RT. 02 RW. 10 KAB. KARANGANYAR
3907 1100441740 SULARSI 15/03/1963 GETAS RT. 02 RW. 10 KAB. KARANGANYAR
3908 1100441741 UMI INDRIANI, BA 10/07/1963 JL MANGGA 6 NO 27 DALEM ASRI RT. 04/21 KAB. KARANGANYAR
3909 1100441742 DARYONO, SH 06/04/1975 JL RAHARJA INDAH VI C04 RT. 1/15 JOSROYO KAB. KARANGANYAR
3910 1100441743 SUYONO 13/12/1960 DK. WANAYASA RT. 01/02 TONJONG KAB. BREBES
3911 1100441744 PUDJI LESTARI 06/10/1975 JL RAHARJA INDAH VI C04 RT. 1/15 JOSROYO KAB. KARANGANYAR
3912 1100441746 ETIEK KUSWANDARI 31/08/1961 GRIYA PRIMA BARAT 310 RT 04/19 KAB. KLATEN
3913 1100441749 MARSINI WARDI LASTRI 01/07/1958 TLOGOREJO 3/1 WINONG KAB. PATI
3914 1100441750 ROKHANI 09/02/1960 BANARAN RT 08/04 KAB. SRAGEN
3915 1100441752 MARYATI 27/03/1961 BANARAN RT 08/04 KAB. SRAGEN
3916 1100441753 KLIWON IWAN 20/08/1985 PENGKOK RT 14 KAB. SRAGEN
3917 1100441754 TOIPAH 07/04/1970 DK. WANAYASA RT. 01/02 TONJONG KAB. BREBES
3918 1100441755 SUMARTI 07/03/1985 PENGKOK RT 14 KAB. SRAGEN
3919 1100441756 PRIYONO 02/04/1961 GONDANG RT 21/07 KAB. SRAGEN
3920 1100441757 DEWI MARYAM 14/02/1969 GONDANG RT 21 KAB. SRAGEN
3921 1100441759 KARYONO, [Link], [Link] 25/06/1962 JL. MANGGA 6 NO 27 DALEM ASRI RT. 04/21 KAB. KARANGANYAR
3922 1100441761 TIMBUL SOEGIHARTONO 31/05/1962 GRIYA PRIMA BARAT 310 RT 04/19 KAB. KLATEN
3923 1100441762 PAIDI 11/02/1962 SUNGKUL RT 13/05 KAB. SRAGEN
3924 1100441764 NURIDA YF RITONGA BA 03/06/1964 LINTANG TRENGGONO V/1 RT.06/18 KOTA SEMARANG
3925 1100441765 MUNIPAH 31/12/1971 KAYUPURING TENGAH 01/16 KAB. MAGELANG
3926 1100441766 HERMANU RIZAL SHALEH 10/05/1986 GIRIMULYO BLOK A GG.19 156 06/06 KAB. KLATEN
3927 1100441769 SAMIARJO SALUD 21/03/1960 KEMAWI RT. 3/5 KAB. BANYUMAS
3928 1100441770 SUPARTINI 13/03/1970 SUNGKUL RT 13 RW 05 KAB. SRAGEN
3929 1100441771 RICKY FADHILLA SHALEH 13/04/1992 GIRIMULYO BLOK A GG.19 156 06/06 KAB. KLATEN
3930 1100441772 SOLIKHIN 06/07/1972 PAGIYANTEN RT. 13/04 ADIWERNA KAB. TEGAL
3931 1100441773 SAYID AULIA 15/03/1964 LINTANG TRENGGONO V/1 RT.06/18 KOTA SEMARANG
3932 1100441774 TITIK ARMALAH 17/11/1974 PAGIYANTEN RT. 13/04 ADIWERNA KAB. TEGAL
3933 1100441775 SUPARMIN 01/10/1970 KAYUPURING TENGAH 01/16 KAB. MAGELANG
3934 1100441776 SRI SUMANI 30/07/1965 GUMANTAR 02/02 KAB. KLATEN
3935 1100441777 MARLIEM 14/03/1963 KEMAWI RT. 3/5 KAB. BANYUMAS
3936 1100441779 NUR QOIDAH MASRUKIN 10/07/1967 BUMIHARJO 2/1 WINONG KAB. PATI
3937 1100441780 SRIAH USMAN SALAMAH 07/03/1969 TLOGOSARI 2/1 TLOGOWUNGU KAB. PATI
3938 1100441782 FITRIA DWI WARNAWATI 10/09/1981 TARUMANEGARA, TAMANSARI NO.10 RT 37/15 KAB. SRAGEN
3939 1100441786 SUPRIYANTO 05/10/1961 GUMANTAR 02/02 KAB. KLATEN
3940 1100441787 SUNARKO 17/09/1974 JL. TARUMA NEGARA. 10 TAMANSARI RT 37/15 KAB. SRAGEN
3941 1100441788 SYAFI'I FADJAR SAUNAH 06/11/1959 BUMIHARJO 2/1 WINONG KAB. PATI
3942 1100441793 PARNI ALS SARTINEM 30/03/1958 GRIPIT RT 001 RW 002 KAB. BANJARNEGARA
3943 1100441794 KHADIRUN 16/02/1966 MAJALENGKA RT 002 RW 008 KAB. BANJARNEGARA
3944 1100441796 ROCHMANI SPD 23/05/1960 [Link] RT.01/04 KARYOMUKTI KESESI KAB. PEKALONGAN
3945 1100441797 MARDHIYAH 20/08/1959 DSN. WATUGAJAH RT.02/08 CANDIREJO KAB. SEMARANG
3946 1100441799 TUMINI 02/04/1967 MAJALENGKA. RT. 002/006 KAB. BANJARNEGARA
3947 1100441800 CARNITI 17/11/1963 BENTARSARI RT.01/01 SALEM KAB. BREBES
3948 1100441801 ARMI 20/12/1969 KALILUNJAR RT 002/003 KAB. BANJARNEGARA
3949 1100441804 SRI HARYANTI 11/01/1967 [Link] RT.01/04 KARYOMUKTI KESESI KAB. PEKALONGAN
3950 1100441807 WASNAH 21/06/1977 JL. MOH TOHA RT. 02/03 KOTA TEGAL
3951 1100441808 RAHAYU TRIS 10/08/1958 BENDO GANTUNGAN 01/07 KAB. KLATEN
3952 1100441809 MUALIMAH 13/07/1965 JL. SAMADIKUN RT.05 RW.06 KOTA TEGAL
3953 1100441810 NURIDIN 12/07/1964 JL. SAMADIKUN RT.05 RW.06 KOTA TEGAL
3954 1100441811 WASRAP 30/08/1969 JL. MOH TOHA RT. 02/03 KOTA TEGAL
3955 1100441812 INDRI ARIANTI 01/01/1975 GAMBIREJO KADIPIRO RT.08 RW.13 KOTA SURAKARTA
3956 1100441813 NOR IZZAH 07/02/1965 SENDANGGUWO RT 3 RW 1 KOTA SEMARANG
3957 1100441814 FAISAL WURI SADYANTORO SABRUN DJAMIL 24/05/1982 MADURESO RT.01/01 KAB. KEBUMEN
3958 1100441815 MOHAMAD NURBET 28/03/1978 GAMBIREJO KADIPIRO RT.08 RW.13 KOTA SURAKARTA
3959 1100441817 DYAH PUJI ASTUTI 09/03/1984 MADURESO RT .01. 01 KAB. KEBUMEN
3960 1100441819 TURINO SUDARSO 15/03/1969 JL. WIJAYAKUSUMA I NO. 30 RT. 01 / 01 KAB. CILACAP
3961 1100441820 WACHID ABDU ROBBY RAMADHANI 10/03/1994 PUROASRI RT 22/10 KAB. SRAGEN
3962 1100441821 DENI LAELA 17/12/1981 JL. WIJAYAKUSUMA I NO. 30 RT. 01/01 KAB. CILACAP
3963 1100441822 SRI SUDIYARTI 24/04/1966 PURO ASRI NO.12 RT 22/10 KAB. SRAGEN
NO NO. PORSI NAMA TANGGAL LAHIR ALAMAT KAB/KOTA KETERANGAN
3964 1100441823 ARI WINANTO 06/09/1974 [Link] RT.2/7 SKRJ TNGH KAB. BANYUMAS
3965 1100441824 NURZANAH IMRON 25/08/1978 [Link] SKRJ TNGH RT. 2/7 KAB. BANYUMAS
3966 1100441825 MARGONO 07/10/1960 DK. TITANG RT. 02/08 KAB. SUKOHARJO
3967 1100441826 SITI AMINAH 31/12/1961 KEDUNGPOH RT. 01/03 LOANO KAB. PURWOREJO
3968 1100441827 KUSNIGATI 03/03/1963 TITANG RT.02/RW.08 KAB. SUKOHARJO
3969 1100441828 AMAT MANAN 14/08/1958 KEDUNGPOH RT 01/03 KAB. PURWOREJO
3970 1100441836 ZAMRONI SHOLEH 19/08/1969 JETIS 01/05 KAB. KLATEN
3971 1100441839 ISMIYATI 10/08/1978 JETIS 01/05 KAB. KLATEN
3972 1100441840 SITI AMSIAH DULAH SUMERI 29/11/1962 KARANGGLONGGONG RT. 01. 01 KAB. KEBUMEN
3973 1100441846 SUJATMIKO SPD 08/09/1961 JENAR LOR RT 02/01 KAB. PURWOREJO
3974 1100441847 MARYANI SPD 28/07/1962 JENAR LOR RT 02/01 KAB. PURWOREJO
3975 1100441848 NURUL MUKMINAH 15/01/1975 KLEDUNG KRADENAN RT 02/09 KAB. PURWOREJO
3976 1100441849 ITA FATRUM YANTI 16/05/1987 DK PETUNJUNGAN RT.02 RW.03 KAB. KEBUMEN
3977 1100441850 NGADIMAN, [Link] 30/12/1974 KLEDUNG KRADENAN RT. 02/09 BANYUURIP KAB. PURWOREJO
3978 1100441851 RIYOSO 23/04/1961 BANARAN RT.01 RW.01 KAB. BATANG
3979 1100441852 SARLIYAH 03/07/1965 BANARAN RT.01 RW.01 KAB. BATANG
3980 1100441853 UMI ZAHROTUN MACHRUR DULAH MUKMIN 26/08/1964 AMBALKUMOLO RT. 02. 01 KAB. KEBUMEN
3981 1100441854 CARMIN 20/09/1965 LIMBANGAN RT.08/05 KERSANA KAB. BREBES
3982 1100441855 KUMAIDI 02/01/1959 CEPOKO RT 2 RW 1 KOTA SEMARANG
3983 1100441856 RASTINI 01/07/1969 LIMBANGAN RT.08/05 KERSANA KAB. BREBES
3984 1100441858 S MARTIYAH 31/12/1958 TIMOHO 02/03 KAB. MAGELANG
3985 1100441859 AMIN ASMANAH 07/04/1962 CEPOKO RT 2 RW 1 KOTA SEMARANG
3986 1100441860 PUJI SUBEKTININGRUM 15/09/1965 PERUM PONDOK PERMAI RT. 03/01 KAB. SUKOHARJO
3987 1100441862 NUR KHAYATI 01/07/1963 MADUKARAN RT.02/02 KEDUNGWUNI BARAT KAB. PEKALONGAN
3988 1100441864 SUTRISNA,SH 20/05/1966 CEPOKO RT.03/01 KOTA SEMARANG
3989 1100441865 ROCHMAH WIDJAJANTI 13/04/1970 TIMOHO RT. 02/03 KAB. MAGELANG
3990 1100441866 DWI ASTUTI HARTATI NINGSIH 14/12/1971 CEPOKO RT.03/01 KOTA SEMARANG
3991 1100441867 ABDUL KARIM 12/02/1962 TIMOHO 02/03 KAB. MAGELANG
3992 1100441869 SRIYANTO 19/04/1966 DK. GENTAN RT.01/RW.03 KAB. SUKOHARJO
3993 1100441870 TATIK HARTATI 01/12/1970 DK. GENTAN RT.01/RW.03 KAB. SUKOHARJO
3994 1100441871 DASEM 10/03/1968 KARANGDAWA RT. 04/10 MARGASARI KAB. TEGAL
3995 1100441873 NUNUNG NUGROHO 05/08/1988 JL. KERINCI LINGK PANTAROSA RT. 02/02 KAB. PEMALANG
3996 1100441876 MUHDI 01/12/1960 CUDON RT 03 RW 02 KAB. BOYOLALI
3997 1100441879 SUYATI 27/09/1959 PANCAR 2 RT. 02/02 KAB. MAGELANG
3998 1100441880 SAUQI MUBAROK 11/09/1976 GETAS RT.07/02 WONOPRINGGO KAB. PEKALONGAN
3999 1100441881 SUKIMAN 25/12/1964 KEDUNGGENTONG RT 04 RW 01 KAB. BOYOLALI
4000 1100441882 NUR ABIDIN SURYATIN KASTOWIHARJO 08/02/1972 ADIMULYO RT.01/03 KAB. KEBUMEN
4001 1100441884 TITIK ARUMAH 25/06/1983 GETAS RT.07/02 WONOPRINGGO KAB. PEKALONGAN
4002 1100441886 SRI REJEKI SUWARDI NOTOWARDOYO 20/08/1960 PLARANGAN RT. 01. 01 KAB. KEBUMEN
4003 1100441888 ELLY NURNALITA 05/03/1965 [Link] RT.4/1 KUTASARI KAB. BANYUMAS
4004 1100441890 S. MULYONO, S. PD. 14/07/1957 JL. ARWANA NO. 640 RT. 2 RW. 1 BINAGRIYA KOTA PEKALONGAN
4005 1100441891 TRIMAH 11/11/1964 KEDUNGGENTONG RT 04 RW 01 KAB. BOYOLALI
4006 1100441892 SRI KASMI 29/08/1962 JL. ARWANA NO. 640 RT. 2 RW. 1 BINAGRIYA KOTA PEKALONGAN
4007 1100441895 NURUL 'AINI ROCHMAT 02/07/1982 ADIMULYO RT .01. 03 KAB. KEBUMEN
4008 1100441897 ROHANAH MUHAMAD SUJARI 01/12/1970 LOGEDE RT. 04. 05 KAB. KEBUMEN
4009 1100441898 ARIF BUDIARSO 13/09/1970 KERTANEGARA RT 01 RW 01 KAB. PURBALINGGA
4010 1100441900 MOCHAMAD AMBYAH DULKHAMID 02/03/1958 LOGEDE RT.04/05 KAB. KEBUMEN
4011 1100441901 WINDIARSIH 06/10/1968 KRACAK RT. 1/3 KAB. BANYUMAS
4012 1100441902 TUGIMAN, S. PD 02/09/1965 TAMBAKROMO RT 04/04 KAB. BLORA
4013 1100441904 ISTIQOMAH 05/03/1969 KERTANEGARA RT 01 RW 01 KAB. PURBALINGGA
4014 1100441905 AINIYATUL MAGHFIROH 17/03/1972 PERBALAN PURWOSARI V/757 RT.08/02 KOTA SEMARANG
4015 1100441906 MUSLIMIN 07/05/1968 [Link] 337 RT.03/04 KOTA SEMARANG
4016 1100441907 HARIYANI, S. PD 08/10/1965 TAMBAKROMO RT 04/04 KAB. BLORA
4017 1100441910 MUNDARTI 01/01/1976 [Link] 337 RT.03/04 KOTA SEMARANG
4018 1100441912 KARSENO 27/02/1962 KRACAK RT 01 RW 03 KAB. BANYUMAS
4019 1100441913 SITI MUNAWAROH 23/10/1972 SITIMULYO LR IV RT 07/11 KAB. BLORA
4020 1100441914 TITIK SRI HARTATI 28/07/1959 KLAMPISAN RT 01 RW 07 KAB. WONOGIRI
4021 1100441916 MARDI UTOMO 12/12/1964 KLAMPISAN RT. 01 RW. 07 KAB. WONOGIRI
4022 1100441918 ISTIYANI ISKANDAR HARTI 07/07/1977 LANGGENHARJO 6/1 JUWANA KAB. PATI
4023 1100441919 AHMAD UBAEDI FATKHUDIN, MA 11/09/1970 JEMBAYAT RT.03/13 MARGASARI KAB. TEGAL
4024 1100441921 SUPARNO DARMO KASNI 01/12/1972 LANGGENHARJO 6/1 JUWANA KAB. PATI
4025 1100441922 HINDUN KHURIYATUL FIKRIYAH 15/05/1975 JEMBAYAT RT.03/13 MARGASARI KAB. TEGAL
4026 1100441923 TRIYANTO WIBOWO 14/11/1977 TEGALASRI RT. 01 RW. 07 KAB. KARANGANYAR
4027 1100441924 MUSHODIQIN 15/12/1972 JL. MAWAR ADIPALA RT. 05 RW. 07 KAB. CILACAP
4028 1100441925 DEWI YUNI ERAWATI 21/06/1979 TEGALASRI RT. 01 RW. 07 KAB. KARANGANYAR
4029 1100441926 ROZIQUN 06/10/1971 LK. JAMBANGANBARAT 02/06 KAB. GROBOGAN
4030 1100441927 SURYANTI 02/02/1976 LK. JAMBANGAN BARAT 02/06 KAB. GROBOGAN
4031 1100441928 SINUNG WINARNI, [Link] 08/05/1965 NGIMBRANG, RT.01/RW.04 KAB. TEMANGGUNG
4032 1100441930 MUCHLIS DARMAWAN 10/05/1968 BADAK RAYA NO. 64 RT 1 RW 5 KOTA SEMARANG
4033 1100441932 LIS QOMARIAH NUR 10/03/1969 BADAK RAYA NO. 64 RT 1 RW 5 KOTA SEMARANG
4034 1100441933 SARDIYO 17/12/1959 JETIS RT. 01 RW. 05 KAB. KARANGANYAR
4035 1100441934 MASFUROH 17/04/1962 ADIWERNA RT.35/02 KAB. TEGAL
4036 1100441935 SURATMI 21/12/1962 JETIS RT. 01 RW. 05 KAB. KARANGANYAR
4037 1100441936 THOEBAH 10/12/1963 KAUMAN SOKARAJA TENGAH RT. 5/1 KAB. BANYUMAS
4038 1100441937 RAHARJO 31/07/1961 ADIWERNA RT.35/02 KAB. TEGAL
4039 1100441938 SITI YULIHAH 01/06/1964 [Link]. 002/002 KAB. BANJARNEGARA
4040 1100441940 ASLORI LUKMAN 02/02/1981 [Link] RT.02/02 BANJARSARI TALUN KAB. PEKALONGAN
4041 1100441941 ABU QOMARUDIN, KY 25/07/1969 JAMUS PASAR RT. 01/05 KAB. MAGELANG
4042 1100441942 ELA MURDIANAWATI 29/09/1980 [Link] RT.02/02 BANJARSARI TALUN KAB. PEKALONGAN
4043 1100441944 SRI SUPRAPTI 08/01/1964 KALIGINTUNG 02/14 KAB. MAGELANG
4044 1100441945 SUHARNA 07/11/1963 DALATAN RT. 01 RW. 11 KAB. KARANGANYAR
4045 1100441948 EMI SUSWATI SUNARYO SETYA SUMARTA 08/08/1965 PREMBUN RT . 01 . 04 KAB. KEBUMEN
4046 1100441949 HETTY SUHARIATY 05/04/1969 DALATAN RT. 01 RW. 11 KAB. KARANGANYAR
4047 1100441950 SUDIRMAN AHMAD DAHRI 15/09/1964 PREMBUN RT. 01. 04 KAB. KEBUMEN
4048 1100441952 JASMITO AJI NUGROHO 06/01/1967 CEKELAN, RT.02/RW.04 KAB. TEMANGGUNG
4049 1100441954 RATNA FITRIANI NUGRAHANTI 16/06/1985 JL. RAMBUTAN X NO. 10 RT 005 / RW 007 KOTA TEGAL
4050 1100441956 NURRUL FAJRI DENCIK 15/04/1984 TANGSI BESAR BARAK F 22 RT 02 RW 07 KOTA SALATIGA
4051 1100441957 WASKITO TIM SURYANTO 19/08/1982 TANGSI BESAR BARAK F22 RT 02 RW 07 KOTA SALATIGA
4052 1100441958 ANITA HERDIAWATI 24/07/1974 JLEGONG RT. 01/15 KAB. MAGELANG
4053 1100441959 EMI ROKHANI 20/01/1958 JL. SERAYU GG. I NO. 6 RT. 02/08 KOTA TEGAL
4054 1100441962 SUKIMAN 20/05/1961 MULYOREJO RT. 04 RW. 04 KAB. KARANGANYAR
4055 1100441963 SUHARTIK SUWADI WASIMIN 07/06/1966 SENDANGASRI RT 004 RW 001 LASEM KAB. REMBANG
4056 1100441964 SATINAH 25/03/1966 MULYAREJO RT.04 RW.04 KAB. KARANGANYAR
4057 1100441970 SUNTIRAH 21/09/1957 BOLO RT.03/04 KAB. DEMAK
4058 1100441975 CHAMIDUN 18/07/1960 DUSUN KALIDAPU RT.04/RW.01 KAB. KENDAL
4059 1100441976 SITI KHOTIJAH 19/01/1966 JL. TERATAI NO. 54 RT. 08 RW. 11 KAB. PEMALANG
4060 1100441977 SRI SARWIYATI 28/11/1979 JAMUS PASAR 04/05 KAB. MAGELANG
4061 1100441982 MARSAID, [Link] 04/05/1962 NGIMBRANG, RT.01/RW.04 KAB. TEMANGGUNG
4062 1100441983 SUWARNI 19/05/1968 DERES RT.01 RW.07 KAB. KARANGANYAR
4063 1100441986 RUKAMAH HASAN SAWINAH 10/03/1975 PASURUHAN 5/2 KAYEN KAB. PATI
4064 1100441988 MUHAMAD SIDIK 04/02/1978 GENDENGAN, RT.03/RW.04 KAB. TEMANGGUNG
4065 1100441991 YUSITA SHANTI ARDIYANI 23/07/1978 GENDENGAN, RT.03/RW.04 KAB. TEMANGGUNG
4066 1100441992 RUMIYATI 05/05/1961 KARANGKLESEM RT. 1/3 KAB. BANYUMAS
4067 1100441993 KUNA'AH KROMO BANI 31/12/1960 TELUK WETAN RT.008/001 KAB. JEPARA
4068 1100441994 SUPRIYATI 10/01/1958 LUBANGINDANGAN RT 02/02 KAB. PURWOREJO
4069 1100441995 EKO WIDIYANTO 24/07/1962 KARANGKLESEM RT.01 RW.03 KAB. BANYUMAS
4070 1100441997 JOKO HASTO WARDOYO, SH 11/02/1965 JL. EKONOMI 45, RT 02 RW 06 KAB. KARANGANYAR
4071 1100441998 HUSNUL DWIYATININGISH , DRA 28/02/1968 DSN. TEGALSALE RT.03/02 JEMBRAK PABELAN KAB. SEMARANG
4072 1100441999 SITI MUALIMAH 07/07/1978 BULUSTALAN IV/399-A RT.05/03 KOTA SEMARANG
4073 1100442001 SRI MARWANIATI, DRA 10/09/1966 [Link] 45 RT 02 RW. 06 KAB. KARANGANYAR
4074 1100442002 MUNTOHA 09/08/1963 HARJOSARI LOR RT. 23/06 ADIWERNA KAB. TEGAL
4075 1100442003 MUHAMMAD BUSRI , DRS 21/11/1965 DSN. TEGALSALE RT.03/02 JEMBRAK PABELAN KAB. SEMARANG
4076 1100442004 ELVIS,AR,SE 07/08/1974 BULUSTALAN IV/399-A RT.05/03 KOTA SEMARANG
4077 1100442005 PRAPTINI INDRIYANINGSIH 15/11/1965 BROBOT RT 17 RW 05 KAB. PURBALINGGA
4078 1100442006 MUKHAMIM 21/10/1963 MEGULUNG LOR RT 01/01 KAB. PURWOREJO
4079 1100442008 TRI MULYONO 24/04/1960 JL. NGESREP TIMUR V DALAM II/10 RT.06/01 KOTA SEMARANG
4080 1100442009 RETNO DUMILAH PURWAHYUNI 22/08/1960 JL. NGESREP TIMUR V DALAM II/10 RT.06/01 KOTA SEMARANG
4081 1100442010 UNTUNG MARTONO 11/10/1965 PANGBATAN RT.01 RW.01 KAB. BANYUMAS
4082 1100442011 SUKIRNO 02/02/1961 BROBOT RT 17 RW 05 KAB. PURBALINGGA
4083 1100442012 LIES MAWAR WAHJOENINGSIH 13/05/1964 JL. WAHYU ASRI UTARA IX/DD26 KOTA SEMARANG
4084 1100442014 WAWAN KRISTYANTO 24/02/1979 [Link] I NO.21 RT.01 RW.06 KOTA SURAKARTA
4085 1100442015 NUR AZIZAH 07/11/1969 KP. KARANGH INGAS RT 5 RW 26 KOTA SEMARANG
4086 1100442016 WISNU DEWANTORO 03/06/1991 JL. WAHYU ASRI UTARA IX/DD26 RT. 10/06 KOTA SEMARANG
4087 1100442017 NUR KHOLIQ 12/02/1966 KP. KARANG INGAS RT 5 RW 26 KOTA SEMARANG
4088 1100442018 NURUL IFFAH 08/05/1958 JANGKUNGAN 03/08 KAB. MAGELANG
4089 1100442020 NOOR IDA DHOFIR ANSORI 26/09/1968 WELAHAN 01/03 KAB. JEPARA
4090 1100442021 DURROTUN NASRIYAH 10/02/1983 BRUMBUNG RT.05/04 KAB. DEMAK
4091 1100442022 MUHAMAD ALI FAHMI 10/12/1980 BRUMBUNG RT.05/04 KAB. DEMAK
NO NO. PORSI NAMA TANGGAL LAHIR ALAMAT KAB/KOTA KETERANGAN
4092 1100442024 JATMIKO REJO MARTOYO 20/04/1969 WELAHAN 01/03 KAB. JEPARA
4093 1100442026 ALIMUN 11/06/1962 JURUSAWAH RT. 51/16 KAB. MAGELANG
4094 1100442027 SETIANI PUJIASTUTI 16/10/1965 JURUSAWAH 51/ 16 KAB. MAGELANG
4095 1100442028 ULIN NUHA. SS 07/06/1976 BRUMBUNG RT 05/04 KAB. DEMAK
4096 1100442029 SITI NURHAYATI. SS 27/12/1976 BRUMBUNG RT 05/04 KAB. DEMAK
4097 1100442030 UMI FARIDA 30/12/1972 DUSUN. TUGUR 02/04 KAB. MAGELANG
4098 1100442033 ENI HEROWATI 23/10/1963 DUSUN CIKONDANG RT. 01 RW. 05 KAB. CILACAP
4099 1100442035 SITI SOLICHAH 28/02/1974 DSN. KLEPUKEREP RT. 04 RW. 14 KAB. CILACAP
4100 1100442037 BARIZIN 05/11/1962 TUMBREP REMBUL RT.01 RW.07 KAB. BATANG
4101 1100442038 MAKSUM 10/08/1969 DSN. TUGUR 02/04 KAB. MAGELANG
4102 1100442039 DARSONO 08/10/1961 DUSUN CIKONDANG RT. 01 RW. 05 KAB. CILACAP
4103 1100442040 SUSYANTO 20/12/1959 PUJUT RT.02 RW.02 KAB. BATANG
4104 1100442041 NUR MUYASAROH 23/03/1976 TUMBREP REMBUL RT.01 RW.07 KAB. BATANG
4105 1100442043 JUMIYATI 06/07/1972 ADIWERNA RT.01/02 KAB. TEGAL
4106 1100442044 RUKENDAR HARDJO MIDJOJO 01/06/1962 DOROKANDANG RT 012 RW 005 LASEM KAB. REMBANG
4107 1100442045 DULATIP 31/12/1960 JL. PEMALI GG SLAMET RT. 05 RW. 01 KAB. PEMALANG
4108 1100442048 SITI AMINAH KH 29/01/1963 PUJUT RT.02 RW.02 KAB. BATANG
4109 1100442049 TRI SUSILO 03/05/1981 ADIWERNA RT.01/02 KAB. TEGAL
4110 1100442050 SRIATUN 31/12/1963 JL. GAJAH BARAT IV RT.03/09 KOTA SEMARANG
4111 1100442051 SITI KHODIJAH 31/12/1965 JL. PEMALI GANG SLAMET RT 05 RW 01 KAB. PEMALANG
4112 1100442052 SURATI HERYANTI DUTO KARYONO 17/10/1971 DOROKANDANG RT 012 RW 005 LASEM KAB. REMBANG
4113 1100442054 MOH ZAROKI 03/07/1958 JL. GAJAH BARAT IV RT.03/09 KOTA SEMARANG
4114 1100442055 DARONO 03/10/1971 MANGGIS RT.02 RW.06 KAB. WONOGIRI
4115 1100442057 AHMAD SYIFA' 21/03/1975 JL. PRISMARAYA BE 4 RT. 1 RW.5 LIMAS KOTA PEKALONGAN
4116 1100442058 EDI RAHARJO 17/01/1968 GERLANG KRADENAN RT.03 RW.01 KAB. BATANG
4117 1100442059 WANGSID AKHMAD 26/04/1979 KAMPUNG GUBUG TIMUR 06/11 KAB. GROBOGAN
4118 1100442060 RETNO DWI AGUSTINA 21/08/1986 KAMPUNG GUBUG TIMUR 06/11 KAB. GROBOGAN
4119 1100442061 KARMINI 14/06/1970 GERLANG KRADENAN RT.03 RW.01 KAB. BATANG
4120 1100442062 SUDRININGSIH KARJANI SUYATMI 08/03/1967 MARGOREJO 1/7 MARGOREJO KAB. PATI
4121 1100442063 SITI RUKNI JANJI 11/11/1959 KALIWUNGU RT.07 RW.02 KAB. KUDUS
4122 1100442064 SIYAMI SAG 05/03/1968 TENGGAK RT 14/05 KAB. SRAGEN
4123 1100442066 SAIMAH 12/03/1964 WONOSEGORO RT.03 RW.02 KAB. BATANG
4124 1100442067 SUWANDI DRS 10/06/1964 TENGGAK RT 14/05 KAB. SRAGEN
4125 1100442068 FITRIANA NOOR YULIANTI 15/07/1982 JL. PARANG LIRIS IV NO. 2 RT.01 RW. 02 KOTA SURAKARTA
4126 1100442069 ALI MUDASIR MASKURI 16/01/1962 KAYEN 02/07 KAYEN KAB. PATI
4127 1100442070 M. CANDRA IRAWAN 12/05/1985 GAJAH RT.02/04 KAB. DEMAK
4128 1100442071 AMBANG WIBOWO 07/06/1977 JL. PARANG LIRIS IV NO.02 RT.01 RW.02 KOTA SURAKARTA
4129 1100442074 SITI MUTHIAH SALAMAH 16/03/1971 KAYEN 02/07 KAYEN KAB. PATI
4130 1100442076 SRI HARMINI 23/03/1958 NGAMPEL RT 02 RW 04 KAB. WONOSOBO
4131 1100442079 MUKHAROMAH 08/12/1985 GAJAH RT.02/04 KAB. DEMAK
4132 1100442081 NUR BUDI SANTOSA 08/09/1971 GANG KOREKAN RT.05 RW.01 KAB. KENDAL
4133 1100442082 KUKUH PUJI LESTARI 08/04/1976 MANDIRAJA KULON RT 002 RW 003 KAB. BANJARNEGARA
4134 1100442083 SEMIATI 22/01/1973 GANG KOREKAN RT.05 RW.01 KAB. KENDAL
4135 1100442085 ISNAN RIJADI ACHMAD 17/12/1970 MANDIRAJA KULON RT 002/003 KAB. BANJARNEGARA
4136 1100442086 SITI KHOTIMAH 20/11/1958 [Link] GUMBREG NO.882 RT.2/6 MERSI KAB. BANYUMAS
4137 1100442089 SITI ALIFAH 18/05/1970 PANGEBATAN RT.01 RW.01 KAB. BANYUMAS
4138 1100442091 ARIS MUSLIM 18/04/1989 NGEMPLIK WETAN RT 01/01 KAB. DEMAK
4139 1100442093 MURNI 16/11/1960 NGEMPLIK WETAN RT 01/01 KAB. DEMAK
4140 1100442095 ANI MULATININGSIH 15/08/1963 BAKULAN RT 05 RW 02 KAB. PURBALINGGA
4141 1100442096 BAMBANG SUPRIYATMO 24/06/1962 BAKULAN RT 05 RW 02 KAB. PURBALINGGA
4142 1100442097 SEHNO 02/05/1980 MANGGIS RT. 03 RW. 06 KAB. WONOGIRI
4143 1100442098 SRI ENDARYATI 07/05/1963 BOJONG RT 03 RW 01 KAB. PURBALINGGA
4144 1100442099 BAMBANG SUPRIYANTO 12/07/1957 BOJONG RT 03 RW 01 KAB. PURBALINGGA
4145 1100442103 ILAWATI 26/04/1983 KRADENAN GG.1 RT.02 RW.02 KOTA PEKALONGAN
4146 1100442106 ISA ANSORI 15/10/1982 KRADENAN GG.1 RT.02 RW.02 KOTA PEKALONGAN
4147 1100442107 SUNITI 08/05/1965 KALIWARENG JAMBEAN ATAS RT.05 RW.03 KAB. BATANG
4148 1100442108 ROHANI 17/08/1960 KALIWARENG JAMBEAN ATAS RT.05 RW.03 KAB. BATANG
4149 1100442110 MULAZIMAH 13/06/1959 JUNGPASIR RT.01/03 KAB. DEMAK
4150 1100442113 MOKHAMAT MUKHLISIN KAMID 22/08/1976 SIDOREJO RT 002 RW 002 SEDAN KAB. REMBANG
4151 1100442115 ROSITO UTOMO 17/11/1963 PERUM LIMAS GARDEN F-4 RT.02 RW.05 KAB. WONOSOBO
4152 1100442116 SUMANTO, BA 06/08/1957 GAYAM 05/03 KAB. KLATEN
4153 1100442117 SRI WIDYASTUTI 30/03/1968 PERUM LIMAS GARDEN F-4 RT 02 RW 05 KAB. WONOSOBO
4154 1100442119 SOFWATIN 16/08/1963 DONOROJO RT.04/02 KAB. DEMAK
4155 1100442120 UMI ZULAIFAH ABDUL MUNIF 24/02/1980 SIDOREJO RT 002 RW 002 SEDAN KAB. REMBANG
4156 1100442122 SITI ASKARIYAH 22/03/1971 MEGULUNG LOR RT 01/01 KAB. PURWOREJO
4157 1100442125 ZAKIYAH 10/01/1983 TURIREJO RT.01/07 KAB. DEMAK
4158 1100442126 AMRULLAH 20/07/1964 LANGGEN RT.05/01 TALANG KAB. TEGAL
4159 1100442127 SARENTI 04/06/1965 KEDUNGNENG RT. 06/03 LOSARI KAB. BREBES
4160 1100442128 RUBAI 11/02/1976 TURIREJO RT.01/07 KAB. DEMAK
4161 1100442130 SUHARTI, [Link] 15/09/1964 NGLINGGO RT. 03 RW. 04 KAB. KARANGANYAR
4162 1100442131 SITI MUNJIDAH 10/04/1959 LANGGEN RT.05/01 TALANG KAB. TEGAL
4163 1100442132 SARPIN RASIYO SIDAH 01/07/1957 SRIWEDARI 2/5 JAKEN KAB. PATI
4164 1100442133 KHUSNIYAH ABDUL HALIM JUPRI 05/10/1959 SLUKE RT 005 RW 001 SLUKE KAB. REMBANG
4165 1100442134 RAWIN 07/08/1961 KEDUNGNENG RT. 06/03 LOSARI KAB. BREBES
4166 1100442135 SITI FATONAH 06/02/1974 TANAHBAYA RT.10 RW.02 KAB. PEMALANG
4167 1100442136 NUGROHO YUWONO 11/04/1979 SIDOSARI 03/03 KAB. KLATEN
4168 1100442137 WARSINI, BA 19/12/1962 GAYAM 05/03 KAB. KLATEN
4169 1100442138 MAT RONDLI 02/06/1967 KRANDON RT.09/03 KAB. DEMAK
4170 1100442140 DYAH INAYATI MUNAWAROH 21/03/1980 SIDOSARI 03/03 KAB. KLATEN
4171 1100442141 SUKINI PARWI SUMINI 06/02/1973 SRIWEDARI 2/5 JAKEN KAB. PATI
4172 1100442142 NOVERINA AMBARWATI 09/03/1978 KRANDON RT.09/03 KAB. DEMAK
4173 1100442143 MOHAMAD HANAFIAH PRADANI 25/02/1969 TANJUNGSARI RT.01 RW.01 KAB. BATANG
4174 1100442145 RETNO SULISTYORINI 30/10/1972 TANJUNGSARI RT.01 RW.01 KAB. BATANG
4175 1100442149 AMIN KHUSUDI 21/08/1966 TANABAYA RT.10 RW.02 KAB. PEMALANG
4176 1100442151 SUPRAPTI 26/07/1960 TULUNG 17/08 KAB. KLATEN
4177 1100442153 SITI CHOMARIYAH 21/04/1971 BOMETEN 11/06 KAB. KLATEN
4178 1100442156 SURATMAN 30/04/1970 NGLINGGO RT. 03 RW. 04 KAB. KARANGANYAR
4179 1100442158 SUTIYANI 21/02/1961 SAMPING RT 01/05 KAB. PURWOREJO
4180 1100442165 SUPONO 10/10/1957 GANTI WARNO RT 05/02 KAB. SRAGEN
4181 1100442166 PUJI ASMI 17/12/1959 SOKARAJA KULON RT.03 RW.01 KAB. BANYUMAS
4182 1100442167 FAROCHAH 21/08/1963 SETINGGIL AL FATTAH NO.03 RT.06/02 KAB. DEMAK
4183 1100442168 MUKHLISUDIN 24/07/1959 JL. KEBON RAMBUTAN NO. 88 RT. 01 RW. 01 KAB. CILACAP
4184 1100442175 SUGENG RIYANTO 08/10/1974 REJASA RT 002 RW 004 KAB. BANJARNEGARA
4185 1100442178 SUPAMI 30/12/1959 BANJARSARI RT 12 RW 02 KAB. BOYOLALI
4186 1100442179 RATNA WIDHIASTUTI 11/03/1977 REJASA RT 002 RW 004 KAB. BANJARNEGARA
4187 1100442180 MISRI 10/09/1972 SUSUKAN RT 003 RW 007 KAB. BANJARNEGARA
4188 1100442181 WAHIDIN 05/01/1970 SLATRI TIMUR RT.05/02 LARANGAN KAB. BREBES
4189 1100442183 JUMARI 05/05/1958 BANJARSARI RT 12 RW 02 KAB. BOYOLALI
4190 1100442184 BUDI RAHYONO 20/03/1972 SUSUKAN RT 003 RW 007 KAB. BANJARNEGARA
4191 1100442185 SOMASIH 23/09/1974 SLATRI TIMUR RT.05/02 LARANGAN KAB. BREBES
4192 1100442187 WAHYU PRANOTO. STP 20/10/1975 DUKUHWRINGIN RT. 23/10 WANASARI KAB. BREBES
4193 1100442188 MARGONO 17/05/1962 SERED RT 001 RW 002 KAB. BANJARNEGARA
4194 1100442189 YUSTINA AP AL SITIR SE 06/01/1973 TORO LOR RT 08 RW 01 KAB. SRAGEN
4195 1100442190 SAKINEM 06/07/1967 SERED RT 001 RW 002 KAB. BANJARNEGARA
4196 1100442192 MUJIONO MADICHWAN SAMSUDIN 04/05/1972 KALITENGAH RT.03/07 KAB. KEBUMEN
4197 1100442194 SRI SETIANINGSIH SANPARTO PARTIMIN 29/01/1980 KALITENGAH RT. 03. 07 KAB. KEBUMEN
4198 1100442195 JARYONO AMK 05/11/1972 TORO LOR RT 08 RW 01 KAB. SRAGEN
4199 1100442196 KARNAWATI 20/08/1974 BANARAN SARIREJO RT.02 RW.05 KAB. BATANG
4200 1100442197 NUR KHALIMIN 15/01/1974 BANARAN SARIREJO RT.02 RW.05 KAB. BATANG
4201 1100442198 SUDARSO 07/07/1958 BANARAN RT 25/10 KAB. SRAGEN
4202 1100442199 SITI MUNAWAROH 30/10/1962 BANARAN RT 25/10 KAB. SRAGEN
4203 1100442200 SUDIRMAN 17/08/1957 SAWANGAN. RT. 001/001 KAB. BANJARNEGARA
4204 1100442201 SUGIYATI 23/01/1971 SAWANGAN RT 001/001 KAB. BANJARNEGARA
4205 1100442202 SUKARMI KIMAN KARTI 06/03/1967 KEDUNGSARI 2/2 TAYU KAB. PATI
4206 1100442203 FATHUR 04/02/1978 CONDONGCAMPUR RT 001 RW 004 KAB. BANJARNEGARA
4207 1100442204 PAWIT 01/07/1983 CONDONGCAMPUR RT 001 RW 004 KAB. BANJARNEGARA
4208 1100442206 ROZAQ 14/05/1978 MENUR RT 03 RW 03 KAB. DEMAK
4209 1100442207 SYAIFULLAH 11/11/1992 KEDUNGSARI RT.02/ 02 TAYU KAB. PATI
4210 1100442208 NURUL WAHIDAH 15/04/1978 MENUR RT 03 RW 03 KAB. DEMAK
4211 1100442210 BARIROH 08/01/1963 PERUM TELUKAN RT.02/RW.03 KAB. SUKOHARJO
4212 1100442211 SRI BEJO 27/12/1962 PERUM TELUKAN RT.02/RW.03 KAB. SUKOHARJO
4213 1100442213 FAHRURROZI 16/07/1963 LEMPUYANG RT.01/02 KAB. DEMAK
4214 1100442214 EDY SUPODO 09/02/1964 [Link] RT.03 RW.01 KAB. KENDAL
4215 1100442215 WIWIK DJUARTATIK 03/01/1967 KP. SIDOSARI RT.03 RW.01 KAB. KENDAL
4216 1100442217 AHMAD SUBEKHAN 27/06/1976 JL. LETNAN SUWAJI RT. 01 RW. 23 KAB. CILACAP
4217 1100442220 SUMILIH 07/07/1957 KALIMADE RT 01 RW 06 KAB. WONOSOBO
4218 1100442221 ANNI MUTHOHAROH 04/07/1976 JL. LETNAN SUWAJI RT. 01 RW. 23 KAB. CILACAP
4219 1100442223 SAIFUDIN 20/07/1976 WEDILELO RT.33 RW.07 KAB. SEMARANG
NO NO. PORSI NAMA TANGGAL LAHIR ALAMAT KAB/KOTA KETERANGAN
4220 1100442224 NGASIMAH 04/04/1973 PANEMBANGAN RT 05 RW 01 KAB. BANYUMAS
4221 1100442226 MUALLIFAH MUHLISIN SITI RUKAYAH 07/04/1968 PUNDENREJO 3/3 TAYU KAB. PATI
4222 1100442229 ALI AHMADI PARYAN 16/04/1967 PUNDENREJO 3/3 TAYU KAB. PATI
4223 1100442230 MUHAMAD KHOIRODIN 02/04/1972 KAUMAN RT.02 RW.04 KAB. MAGELANG
4224 1100442231 AKHMAD FAUZI 20/10/1966 KABUTUH RT.10 RW.04 KAB. WONOSOBO
4225 1100442233 LAILIYAH 07/06/1970 KABUTUH RT.10 RW.04 KAB. WONOSOBO
4226 1100442235 SITI HALIMAH INDRIATI 16/09/1962 JL. MANDASIA III/360 RT 2 RW 1 KOTA SEMARANG
4227 1100442238 DWI ASTUTI , SPD 08/07/1963 GENITO KIDUL 010 RT. 03/01 KAB. MAGELANG
4228 1100442239 MANTO 02/08/1960 DUKUN RT 02/02 KAB. DEMAK
4229 1100442241 KOTIJAH 23/06/1963 DUKUN RT 02/02 KAB. DEMAK
4230 1100442243 SUBARDI MULYANA, SPD 12/05/1962 GENITO KIDUL RT.03 RW.01 KAB. MAGELANG
4231 1100442244 OESMAN RALI BY 03/04/1968 SARATAN I RT. 01/12 KAB. MAGELANG
4232 1100442245 HARYATI 14/08/1968 KARANGKIMPUL RT.01/01 KOTA SEMARANG
4233 1100442246 MUSTOFA 27/07/1961 KARANGKIMPUL RT.01/01 KOTA SEMARANG
4234 1100442247 NURUL SUSILASTUTI 01/08/1969 SARATAN I RT. 01/12 KAB. MAGELANG
4235 1100442249 SRI MUJIATI 21/12/1960 KRAJAN I, RT.01/RW.01 KAB. TEMANGGUNG
4236 1100442252 HARI PRASETYO 14/09/1969 RANDUDONGKAL RT. 57 RW. 05 KAB. PEMALANG
4237 1100442253 M. IBNU MASKURI 27/05/1988 JL. PERINTIS KEMERDEKAAN 109 RT.01 RW.15 KAB. PEMALANG
4238 1100442254 PURWATININGSIH 07/05/1968 RANDUDONGKAL RT. 57 RW. 05 KAB. PEMALANG
4239 1100442255 SUKMA AYU SEPTIANINGRUM 02/09/1997 JL. JENDSUD TIMUR NO. 27 RT. 01 RW. 16 KAB. PEMALANG
4240 1100442258 MALIKATUN 07/06/1968 LEMPUYANG RT.01/02 KAB. DEMAK
4241 1100442259 HANIF VISIYANTO KASDULLAH 06/11/1974 KALIPUCANG KULON RT.004/004 KAB. JEPARA
4242 1100442260 ANISIA PRIMA DAROJAH 29/06/1987 JL. PERINTIS KEMERDEKAAN 109 RT.01 RW.15 KAB. PEMALANG
4243 1100442261 WIWIK RIF'ATUN ALIYAH 05/01/1975 KALIPUCANG KULON RT.004/004 KAB. JEPARA
4244 1100442262 SUGIYATI NOR AHMAD 04/05/1967 KRASAK RT.002/006 KAB. JEPARA
4245 1100442263 MASRIKAH WARJO JUMAINAH 29/09/1962 BERMI 1/9 GEMBONG KAB. PATI
4246 1100442264 M. AQIB JA'FAR ABU MANSYUR 09/09/1961 KRASAK 02/06 KAB. JEPARA
4247 1100442266 ENDANG SUBEKTI SUWANDI 02/06/1963 MINDAHAN 02/02 KAB. JEPARA
4248 1100442267 MASHURI KAMISIH SUNARTI 29/08/1961 BERMI 1/9 GEMBONG KAB. PATI
4249 1100442268 MARZUKI 16/01/1976 DUKUHWARU RT.04/09 KAB. TEGAL
4250 1100442269 SUBARDI 23/03/1960 PEJAGALAN RT 04 RW III KAB. BANYUMAS
4251 1100442273 BAIDOWI SURATMAN KRESO 30/11/1967 BALONG RT.006/001 [Link] KAB. JEPARA
4252 1100442274 SANALI 25/03/1969 DURENOMBO RT.04 RW.01 KAB. BATANG
4253 1100442275 NUR HIDAYATI AGUSTIN 06/08/1972 SIDAKATON RT.03/03 DUKUHTURI KAB. TEGAL
4254 1100442276 KUMAIYAH KASULI SUWITO 10/04/1974 BALONG RT.006/001 [Link] KAB. JEPARA
4255 1100442278 KALIMAH 14/08/1972 DURENOMBO RT.04 RW.01 KAB. BATANG
4256 1100442280 AGUS NURYANTO 03/05/1971 SIDAKATON RT.03/03 DUKUHTURI KAB. TEGAL
4257 1100442283 PUJI ZARIAT 16/05/1962 JL. WIJAYAKUSUMA RT. 01 RW. 01 KAB. CILACAP
4258 1100442284 NUNUK SUTIYASNI 05/01/1958 DUKUHAN RT.02 RW.06 KOTA SURAKARTA
4259 1100442285 NURHIDAYAH SOBRI SUWARDI 07/08/1957 PANJER RT. 03. 02 KAB. KEBUMEN
4260 1100442287 PRITA ARIANI 10/02/1965 JL. WIJAYAKUSUMA RT. 01 RW. 01 KAB. CILACAP
4261 1100442289 SRI HARIYATI 01/04/1963 KUPANGREJO RT.01 RW.10 KAB. SEMARANG
4262 1100442290 DALMIN SAN MURJA 'ABDUL HAQ 30/03/1963 BANJAREJA RT.03/04 KAB. KEBUMEN
4263 1100442291 YAMRONI 25/12/1957 KUPAANGREJO RT.02 RW.10 KAB. SEMARANG
4264 1100442292 HARYATI KASANUDIN ABDUL WAHAB 16/04/1968 BANJAREJO RT. 03. 04 KAB. KEBUMEN
4265 1100442293 MUKRI HARYONO 19/04/1961 KUPANGREJO RT.01 RW.10 KAB. SEMARANG
4266 1100442294 ELLY MUKMINATI 05/07/1965 KEBULEN GG. 2 NO. 51 RT. 2 RW. 1 KOTA PEKALONGAN
4267 1100442295 WINARTO 23/11/1960 KEBULEN GG. 2 NO. 51 RT. 2 / 1 KOTA PEKALONGAN
4268 1100442296 SYUKRON 'ABDUL KHAQQI DALMIN 10/11/1994 BANJAREJA RT.03/04 KAB. KEBUMEN
4269 1100442297 TRI UMAROH AMIR ABAS 02/04/1972 KARANGSARI RT. 06. 01 KAB. KEBUMEN
4270 1100442298 RUDI NOVANDI ZAYADI SYUKUR 08/11/1968 KARANGSARI RT.05/01 KAB. KEBUMEN
4271 1100442301 SITI SUSANTI 22/11/1963 KUPANGREJO RT.02 RW.10 KAB. SEMARANG
4272 1100442303 ARIFIATUN 15/05/1959 HARJASARI RT.02/02 SURADADI KAB. TEGAL
4273 1100442304 ZAINAL ABIDIN AHMAD SANUSI 24/10/1965 MONDOTEKO RT 005 RW 005 REMBANG KAB. REMBANG
4274 1100442305 MASKUR 12/11/1966 [Link] II/285 RT.02/08 KOTA SEMARANG
4275 1100442306 DWI PRIYASTUTI 31/01/1960 JL. GIANTI NO 20 RT 02/02 KAB. BLORA
4276 1100442307 HENI PURWATI SAMHADI 16/06/1968 MONDOTEKO RT 005 RW 005 REMBANG KAB. REMBANG
4277 1100442310 DARYONO 12/01/1959 TANGGULANGIN RT 001 / RW 006 KAB. MAGELANG
4278 1100442311 ELI YESTI 16/07/1980 HARJASARI RT. 02/02 SURADADI KAB. TEGAL
4279 1100442316 SRIYATI 14/05/1975 HARJASARI RT. 02/02 SURADADI KAB. TEGAL
4280 1100442317 RITA SUSANTI 04/10/1986 KARANGANYAR RT 01 RW 06 KAB. WONOSOBO
4281 1100442318 SARLAN 31/12/1963 P RADEN PATAH RT 09 RW 04 SRIWULAN KAB. DEMAK
4282 1100442319 UNTUNG ROHMAT 31/12/1980 KARANG ANYAR RT.01 RW.06 KAB. WONOSOBO
4283 1100442320 RIWAYATI 30/09/1964 P RADEN PATAH RT 09 RW 04 SRIWULAN KAB. DEMAK
4284 1100442321 LUTFIA ULI NA'MAH 29/06/1986 SELOKERTO RT. 06. 03 KAB. KEBUMEN
4285 1100442322 MONTE SELVANUS LUIGI KUSUMA 01/02/1980 SELOKERTO RT. 06. 03 KAB. KEBUMEN
4286 1100442324 LIS ASLIYAH 13/08/1966 PAGELARAN RT.01/RW.11 KAB. SUKOHARJO
4287 1100442325 DAKIM KARDIMAN 31/12/1957 JL. SALAK NO. 06 RT. 01 RW. 19 KAB. CILACAP
4288 1100442328 JOKO PURWANTO 14/01/1964 GENTAN RT.01/RW.01 KAB. SUKOHARJO
4289 1100442332 NORMA ROSYITA MUCHSIN 24/02/1983 SETRAN RT 01/02 KAB. SUKOHARJO
4290 1100442333 WURYANI BEJO HARJO SEMITO 07/07/1961 JL SUKARNO HATTA NO. 65 RT 02 RW 02 KOTA SALATIGA
4291 1100442334 SUTIAH ASTUTI 27/05/1959 JL. SALAK NO. 06 RT. 01 RW. 19 KAB. CILACAP
4292 1100442336 SUTARNO 24/07/1958 KASIH RT 02 RW 04 KAB. PURBALINGGA
4293 1100442337 WAWAN DILLIYANTO 23/02/1983 PEGANDEKAN RT.02 RW.05 KAB. PURBALINGGA
4294 1100442338 JOKO SRIYONO 25/12/1983 SETRAN RT. 01/RW.02 KAB. SUKOHARJO
4295 1100442340 NA'IMAH 10/03/1958 SETINGGIL II NO.61 RT.05/02 KAB. DEMAK
4296 1100442341 HARTINI 13/06/1968 BRENGKELAN RT 05/04 KAB. PURWOREJO
4297 1100442346 MUJIMAN MISRAN HASAN MUSA 30/05/1969 PATEMON RT. 01. 01 KAB. KEBUMEN
4298 1100442347 MOKHAMAD FAUZAN HATTA 02/09/1978 ADIKARSO RT.03/02 KAB. KEBUMEN
4299 1100442348 FATONAH 18/09/1959 RAJAWANA RT 05 RW 01 KAB. PURBALINGGA
4300 1100442350 UMI HENI SAMINGUN MAD KHOTIM 28/06/1972 PATEMON RT. 01. 01 KAB. KEBUMEN
4301 1100442352 MURYANI SURATMAN JASIRAN 27/04/1982 ADIKARSO RT. 03. 02 KAB. KEBUMEN
4302 1100442354 MASRI 31/12/1962 KRAJAN 03/02 KAB. GROBOGAN
4303 1100442355 TRI HASTUTI RETNONINGSIH, SKM 26/11/1964 JL WERKUDORO A39 NGRINGO INDAH RT. 1/22 KAB. KARANGANYAR
4304 1100442357 KIS PURWANTO 13/04/1976 KRAJAN 04/02 KAB. GROBOGAN
4305 1100442359 ISWATI 02/11/1979 KRAJAN 04/02 KAB. GROBOGAN
4306 1100442360 SUGIYONO, DRS 16/06/1959 JL WERKUDORO A39 NGRINGO INDAH RT. 01/22 KAB. KARANGANYAR
4307 1100442362 UMI WIDAYATI 02/10/1964 SULURSARI 02/05 KAB. GROBOGAN
4308 1100442363 MARLIYAH 11/11/1962 TRANGSAN RT.02/RW.10 KAB. SUKOHARJO
4309 1100442364 MARYADI 10/07/1966 JL ORBIT I NO 1 KOMPLEK RADAR RT. 01/10 KAB. KARANGANYAR
4310 1100442369 IRMA TRYSSIAWATTY AGUSTINA 27/08/1970 JL ORBIT I NO 1 KOMPLEK RADAR RT. 01/10 KAB. KARANGANYAR
4311 1100442371 SLAMET RIYANTO 28/11/1967 JAGIR RT.01 RW.01 KAB. WONOGIRI
4312 1100442373 DALHAR SKM 10/02/1962 SAMBENG RT. 02/05 BAYAN KAB. PURWOREJO
4313 1100442376 SRI WAHYUNI WIDIASTUTI 13/03/1976 JAGIR RT.01 RW.01 KAB. WONOGIRI
4314 1100442377 ERLITA CENDRASARI 17/12/1985 MUNGGUR RT. 05 RW. 03 KAB. KARANGANYAR
4315 1100442378 INDAH SUCIATI ISLAMI 22/06/1978 JL. GAJAH MADA RT 01/08 KAB. BLORA
4316 1100442379 MARSUJIYATI 26/03/1959 JL. NGESREP TIMUR V NO.7 RT.02/03 KOTA SEMARANG
4317 1100442380 SUTARNO 21/08/1984 MUNGGUR RT. 05 RW. 03 KAB. KARANGANYAR
4318 1100442381 SITI NUR AENI, SH 07/11/1974 TROMBOL KULON RT. 01 RW. 01 KAB. KARANGANYAR
4319 1100442382 DARMAWATI 07/03/1958 MERBAU SELATAN I NO. 1 A RT 2 RW 8 KOTA SEMARANG
4320 1100442383 IWAN HARYADI, SE 18/10/1974 TROMBOL KULON RT. 01 RW. 01 KAB. KARANGANYAR
4321 1100442385 SUMANTO HARJODIKROMO SUKINEM 13/11/1972 SRIDADI RT 001 RW 003 REMBANG KAB. REMBANG
4322 1100442388 NANIK ERNAWATI MULYADI 01/08/1978 SRIDADI RT 001 RW 003 REMBANG KAB. REMBANG
4323 1100442389 WAKIAH 02/09/1959 DS. WONOSARI RT.03/07 SIWALAN KAB. PEKALONGAN
4324 1100442390 WACHID EFENDI 30/03/1968 JL KENANGA RAYA NO 82 RT 03 RW 07 KAB. PURBALINGGA
4325 1100442391 SARNO 27/03/1968 KARANG KULON RT. 06/05 KAB. MAGELANG
4326 1100442393 USWATUN CHASANAH 05/10/1968 KARANG KULON 06/05 KAB. MAGELANG
4327 1100442395 WARNINGSIH 17/02/1973 HARJOSARI LOR RT. 23/06 ADIWERNA KAB. TEGAL
4328 1100442396 AMIN 30/12/1958 MEJING 17/08 KAB. MAGELANG
4329 1100442397 GATIT KARTIKA YULIANTI 31/07/1969 JL KENANGA RAYA NO 82 RT 03 RW 07 KAB. PURBALINGGA
4330 1100442398 SARASWATI MULYONO RASKAN 16/01/1993 KALIWUNGU RT.07 RW.02 KAB. KUDUS
4331 1100442400 HARYATI KUSNIN RANO 23/11/1959 KEDUNGDOWO RT 01 RW 05 KAB. KUDUS
4332 1100442401 LAMINI 19/06/1960 CEMANI RT.02/RW.13 KAB. SUKOHARJO
4333 1100442403 ASRI DARMARYANTIKO MS SH 01/07/1964 WONODRI KEBONDALEM NO. 6 RT.03/12 KOTA SEMARANG
4334 1100442404 DARSONO 20/09/1957 PECALUNGAN TINANDU RT.02 RW.02 KAB. BATANG
4335 1100442406 KHANIFAH, SE 06/06/1975 WONODRI KEBONDALEM NO.6 RT.03/12 KOTA SEMARANG
4336 1100442407 SITI UMAYAH SUDARMAN 31/12/1960 LORAMKULON RT.02 RW.03 KAB. KUDUS
4337 1100442408 BUDI RISMAWATI 01/12/1972 KARAHARJAN 02/03 KAB. MAGELANG
4338 1100442410 NOOR HIDAYAT 28/02/1977 JL. GAJAH MADA RT 01/08 KAB. BLORA
4339 1100442411 ABUNANGIN 30/06/1967 JETAK RT. 03/07 SIRAMPOG KAB. BREBES
4340 1100442413 DULWANDI 24/03/1965 KARAHARJAN RT.02 RW.03 KAB. MAGELANG
4341 1100442414 TARYAMAH 09/11/1985 SIDENGOK RT 004 / RW 001 KAB. BANJARNEGARA
4342 1100442415 SUBUH SRI RAHENI 30/06/1971 KADILANGU 2/2 TRANGKIL KAB. PATI
4343 1100442416 DIYAH EKA KUSUMAWATI 15/10/1976 KARANGKOBAR RT 003 RW 006 KAB. BANJARNEGARA
4344 1100442417 NUR AZIZ 25/02/1965 PANGENJURUTENGAH RT 03/02 KAB. PURWOREJO
4345 1100442418 SAMSUDIN 21/07/1963 KARANGKOBAR RT 003 RW 006 KAB. BANJARNEGARA
4346 1100442419 SUHARNI 06/09/1958 DSN. SUSUKAN RT.02/03 SUSUKAN KAB. SEMARANG
4347 1100442423 NIKMAH NURBAITY 15/01/1968 PANGENJURUTENGAH RT 03/02 PURWOREJO KAB. PURWOREJO
NO NO. PORSI NAMA TANGGAL LAHIR ALAMAT KAB/KOTA KETERANGAN
4348 1100442424 SRI MANGESTI 30/04/1964 PARANGKUSUMO XII/22 RT.08/03 KOTA SEMARANG
4349 1100442425 MASYKUR 26/04/1970 BULUSARI RT 04/02 KAB. DEMAK
4350 1100442426 M. GHONIDIN 21/03/1985 GUMAWANG RT.09/03 WIRADESA KAB. PEKALONGAN
4351 1100442427 DAMIATI SARJU NYAMINAH 01/10/1960 SONOREJO 2/2 JAKENAN KAB. PATI
4352 1100442429 ISMIATUL CHASANAH 27/05/1986 GUMAWANG RT.09/03 WIRADESA KAB. PEKALONGAN
4353 1100442430 SUKARLAN SULEMAN SARMINAH 16/04/1959 SONOREJO 2/3 JAKENAN KAB. PATI
4354 1100442431 SUTIYONO 12/12/1959 DEMPET RT.04/07 KAB. DEMAK
4355 1100442432 SITI MUNAFIATI 12/06/1962 WOLOGITO TENGAH V NO. 33 RT 5 RW 7 KOTA SEMARANG
4356 1100442433 MARFUAH 06/07/1972 BULUSARI RT 04/02 KAB. DEMAK
4357 1100442436 SITI MUKAROMAH 01/03/1958 PRUMASAN RT 01 RW 01 KAB. WONOSOBO
4358 1100442437 SITI IFTIYAH 10/11/1967 DEMPET RT.04/07 KAB. DEMAK
4359 1100442438 SURATI 31/12/1962 SOKANANDI RT 001 RW 003 KAB. BANJARNEGARA
4360 1100442439 PARIYEM 11/04/1964 TONJONG 04/03 KAB. GROBOGAN
4361 1100442440 WIDODO 20/02/1963 DK. KARANGPUNG RT. 01/07 KAB. SUKOHARJO
4362 1100442444 KHAMINI 11/04/1958 BLAMBANGAN RT 005 RW 004 KAB. BANJARNEGARA
4363 1100442445 NUR EKSAN 02/08/1961 TONJONG 04/03 KAB. GROBOGAN
4364 1100442447 SOLIKAH RAGIL SUWARDI 25/12/1976 BANDUNGREJO RT.01/03 KAB. DEMAK
4365 1100442448 SRI HARSONO HERU 01/11/1965 PETAMBAKAN RT 003 RW 001 KAB. BANJARNEGARA
4366 1100442450 SITI ROLINAH 19/10/1966 KASMARAN RT 2 RW 01 KAB. BANJARNEGARA
4367 1100442453 FERI AGUS KURNIAWAN 11/09/1987 DK. KARANGPUNG RT. 01/07 KAB. SUKOHARJO
4368 1100442455 HANINDHIYA HANIFAH 06/11/1998 JL. AKHMAD KUJERI RT.05 RW.02 KAB. BANYUMAS
4369 1100442456 MUSTAKIM 28/05/1976 BANDUNGREJO RT.01/03 KAB. DEMAK
4370 1100442457 MUHAMMAD MASRURI ACHMAD 22/12/1974 PECANGAAN KULON 04/03 KAB. JEPARA
4371 1100442458 EFA IDA AMALIYAH TANUSI 09/10/1979 PECANGAAN KULON 04/03 KAB. JEPARA
4372 1100442459 WIWIN DYAH PRIWANTI 17/05/1969 [Link] CHUJERI RT.5/2 SKRJ WTN KAB. BANYUMAS
4373 1100442461 KINAH 21/03/1959 KARANGMULYA RT. 03/01 SURADADI KAB. TEGAL
4374 1100442462 ZAENAL ABIDIN 25/03/1980 LINTANG TRENGGONO III NO. 26 RT.09/18 KOTA SEMARANG
4375 1100442463 NUR FARIDA NUR HAMID 18/04/1977 KELET 24/04 KAB. JEPARA
4376 1100442464 RUKHAYAH 16/02/1970 KARANGANYAR RT.03/02 DUKUHTURI KAB. TEGAL
4377 1100442465 HESTI ANGGRAINI 18/12/1984 LINTANG TRENGGONO III/26 RT.09/18 KOTA SEMARANG
4378 1100442466 AGUS MUFANDLIL SANTOSO 18/08/1976 KELET 24/04 KAB. JEPARA
4379 1100442468 MASJHURI MASHUD NGASIB 01/07/1957 NGELING RT.004/003 KAB. JEPARA
4380 1100442469 ABDUL MARYONO 14/01/1965 KARANGANYAR RT.02/01 KOTA SEMARANG
4381 1100442470 ZUMIATUN WINEH NGASIBAN 01/03/1962 NGELING RT.004/003 KAB. JEPARA
4382 1100442473 MUHAMAD FARID 07/08/1982 WANUTENGAH, RT.04/RW.01 KAB. TEMANGGUNG
4383 1100442476 SUNARIYAH SUKRIYANTO KROMO 27/12/1960 KRASAK RT.002/005 KAB. JEPARA
4384 1100442478 SRI SUGIYARSI 01/01/1960 BANJARSARI RT.04 RW. 06 KAB. KARANGANYAR
4385 1100442479 KUSRIN KARSO KHAMDANI 17/12/1960 KRASAK RT.002/005 KAB. JEPARA
4386 1100442481 ABDUL AZIZ ZUHADI 06/11/1973 GENENG 09/02 KAB. JEPARA
4387 1100442483 AGUS SETYARTO 03/06/1978 JATEN RT.01 RW.06 KEDUNGGUPIT KAB. WONOGIRI
4388 1100442486 WARDIYO 07/11/1958 JETAK RT. 04 RW. 02 KAB. KARANGANYAR
4389 1100442489 MUSYAFAK SHOLEH SANIDEN 25/07/1973 LANGON 07/04 KAB. JEPARA
4390 1100442490 SULASTRI HARJO SUWITO 09/08/1962 SUMBER RT 002 RW 002 SUMBER KAB. REMBANG
4391 1100442495 SUKARTI 12/02/1962 WONOKERSO KULON, RT.02/RW.02 KAB. TEMANGGUNG
4392 1100442497 JAMILAH JOYO KASNAN 03/09/1983 LANGON 07/04 KAB. JEPARA
4393 1100442498 TRI IRYANTININGSIH 28/08/1960 JETAK RT. 04 RW. 02 KAB. KARANGANYAR
4394 1100442499 SIH HARWATI 05/08/1958 SALAMREJO, RT.01/RW.01 KAB. TEMANGGUNG
4395 1100442500 SATI 01/03/1958 JATEN RT.01 RW.06 KAB. WONOGIRI
4396 1100442503 SITI SUHARTI 18/08/1958 KARANGGEDANG RT 23 RW 04 KAB. PURBALINGGA
4397 1100442505 SUHARTI 29/07/1971 DURENSAWIT, RT.01/RW.06 KAB. TEMANGGUNG
4398 1100442508 HIDAYATI NIKMAH SODRI 15/09/1977 LEBUAWU RT.004/001 KAB. JEPARA
4399 1100442509 YUSTANTO 29/03/1981 DURENOMBO GEPRET RT.05 RW.01 KAB. BATANG
4400 1100442510 MUH TAUFIK RAMELAN KARMITO 16/02/1977 LEBUAWU RT.004/001 KAB. JEPARA
4401 1100442511 SOFI'AH SUNARDI SARDJANI 31/12/1957 JEKULO RT 02 RW 11 KAB. KUDUS
4402 1100442512 MAS SRI SULISTIYANING BUDI RAHAYU 22/04/1969 SENDANG 02/03 KEC. KALINYAMATAN KAB. JEPARA
4403 1100442513 DANISWORO 03/06/1970 DURENSAWIT, RT.01/RW.06 KAB. TEMANGGUNG
4404 1100442514 NURHADI AKHMADI JONO 14/02/1961 SENDANG 02/03 KEC. KALINYAMATAN KAB. JEPARA
4405 1100442515 SUGIYANTI 19/10/1982 DURENOMBO GEPRET RT.05 RW.01 KAB. BATANG
4406 1100442516 FATONAH TUROHMI 15/06/1970 BANJARANYAR RT. 05/04 BALAPULANG KAB. TEGAL
4407 1100442517 JAMAL ABDUL WAHAB 04/08/1978 KERSO RT.007/001 KAB. JEPARA
4408 1100442519 SUGENG NUROKHIM 25/09/1969 DURENOMBO GEPRET RT.01 RW.01 KAB. BATANG
4409 1100442520 MAHMUDAH SUTOMO SUTAMAN 02/08/1982 KERSO RT.007/001 KAB. JEPARA
4410 1100442521 ARIANI PUJI RAHAYU 28/11/1965 GRIYA SIDEMANGAN NO.03 RT03 RW09 KAB. TEMANGGUNG
4411 1100442523 BASARIYAH 07/02/1979 DURENOMBO GEPRET RT.01 RW.01 KAB. BATANG
4412 1100442524 TRI HASTUTI 08/02/1963 RINGIN ASRI RT. 01 RW. 12 KAB. KARANGANYAR
4413 1100442525 NUR ENDAH IRIANI 11/01/1962 KP. PASARSARI RT 3 RW 3 KOTA SEMARANG
4414 1100442526 SUYADI 07/11/1962 GRIYA SIDEMANGAN NO.03 RT03 RW09 KAB. TEMANGGUNG
4415 1100442527 PURNOMO [Link] 08/11/1961 [Link] SARI RT.03/03 KOTA SEMARANG
4416 1100442528 SARDIYANTO 18/01/1961 RINGIN ASRI RT. 01 RW. 12 KAB. KARANGANYAR
4417 1100442530 QURTUBI, [Link].I 10/01/1964 BANJARANYAR RT. 03/04 BALAPULANG KAB. TEGAL
4418 1100442534 JOKO TRIYONO 15/07/1962 TULUNG 18/08 KAB. KLATEN
4419 1100442542 MUSYAROPAH 16/09/1976 JETAK RT. 03/07 SIRAMPOG KAB. BREBES
4420 1100442543 DESI MISLIANTI 20/12/1976 SROYO RT.06 RW.10 KAB. KARANGANYAR
4421 1100442546 PURWASTUTI 04/08/1961 SANDANGSARI 092 RT. 01/08 KAB. MAGELANG
4422 1100442547 ERNA FATMAWATI 24/06/1995 GRIBIG RT.05 RW.04 KAB. KUDUS
4423 1100442548 BASUNI 23/09/1959 SANDANGSARI 092 RT. 01/08 KAB. MAGELANG
4424 1100442549 SUKADAR MOCHAMAD KARYO 29/12/1959 GRIBIG RT 05 RW 04 KAB. KUDUS
4425 1100442553 M. NANANG HARIYADI 10/10/1975 SROYO RT. 05 RW. 10 KAB. KARANGANYAR
4426 1100442555 GAMAR FAUZIYAH 17/09/1982 BOTOPUTIH RT 4 RW 1 BOTOPUTIH TEMANGGUNGKAB. KUDUS
4427 1100442556 SUGINEM 02/03/1967 TULUNG 18/08 KAB. KLATEN
4428 1100442557 HIDAYATULLAH 16/06/1969 REJOSARI RT.02 RW.01 KAB. MAGELANG
4429 1100442560 SOKHIBUL CHIKMAH 27/09/1979 CITRAN 03/04 KAB. MAGELANG
4430 1100442561 JAMALUDIN, [Link] 07/07/1967 JL. INDUSTRI NO. 75 RT.04/01 LEMAHDUWUR KAB. TEGAL
4431 1100442563 SUSY YULIAWATI, [Link] 03/07/1978 JL. INDUSTRI NO. 75 RT.04/01 LEMAHDUWUR KAB. TEGAL
4432 1100442565 MASHURI 22/12/1970 LUBANG LOR RT. 01/01 BUTUH KAB. PURWOREJO
4433 1100442567 NURLAELY HERAWATI 02/02/1976 BINAGRIYA BLOK B II/89 RT. 5 RW. 8 KOTA PEKALONGAN
4434 1100442568 CHOIRIL SURYA ADMAJA 17/03/1984 JL CUT NYAK DIEN .06 TAMANSARI RT 36/15 KAB. SRAGEN
4435 1100442569 FATKHUDIN 13/05/1971 BINAGRIYA BLOK B II/ 89 RT. 5 RW. 8 KOTA PEKALONGAN
4436 1100442570 SUGIATMI 01/03/1962 JL TARUMA NEGARA. 19 TAMANSARI RT 37/15 KAB. SRAGEN
4437 1100442572 KURSIYAH 15/09/1968 KARANGTALUN LOR RT 01 RW 02 KAB. BANYUMAS
4438 1100442573 SOLIKHIN 21/04/1960 KARANGTALUN LOR RT. 1/2 KAB. BANYUMAS
4439 1100442574 BAIHAQI 21/11/1980 KARANGJOMPO RT.02/01 TIRTO KAB. PEKALONGAN
4440 1100442575 MUSRI'AH SABAR SARIYUN 31/12/1960 PLOSO RT 03 RW 04 KAB. KUDUS
4441 1100442576 UMROH MAHFUDLOH 21/05/1983 KARANGJOMPO RT.02/01 TIRTO KAB. PEKALONGAN
4442 1100442577 KY .M. HASIM ASNGARI 31/12/1970 CITRAN 03/04 KAB. MAGELANG
4443 1100442578 SRIYANTO 03/08/1961 KARANGKOPEK WETAN 01/07 KAB. MAGELANG
4444 1100442579 SODIK SUJATMIKO SE 05/01/1973 SEMEN 01 RT. 01/01 KAB. MAGELANG
4445 1100442580 MANIK SANTOSO 18/04/1981 GETAS PEJATEN RT 05 RW 04 KAB. KUDUS
4446 1100442582 ANIK NAELA EVA ZULIANA 28/02/1970 SEKARJALAK 4/2 MARGOYOSO KAB. PATI
4447 1100442583 VIJFRI DJOKO WINARJO 06/02/1966 SEKARJALAK 4/2 MARGOYOSO KAB. PATI
4448 1100442584 MASIKAN KUNTARI SUDIRJO 02/06/1961 LORAM WETAN RT 02 RW 04 KAB. KUDUS
4449 1100442585 KASTONAH MARTAM SARBINI 15/01/1973 LORAM WETAN RT 02 RW 04 KAB. KUDUS
4450 1100442587 SRI ARIYANI 07/08/1958 DK. BENDA RT. 01/02 PANGKAH KAB. TEGAL
4451 1100442588 UMI WAHYU WINASIH 13/05/1978 KAYEN 2/6 KAYEN KAB. PATI
4452 1100442589 ERNIYATI SUMADI KARNADI 10/11/1970 SROBYONG RT.001/002 KAB. JEPARA
4453 1100442591 NGATNO SULKAN SUMOKAMSANI 29/12/1965 SROBYONG RT.001/002 KAB. JEPARA
4454 1100442594 KARIYONO MUSNYO SUMO 18/09/1965 JLEGONG 05/02 KAB. JEPARA
4455 1100442596 SHUN AFIFAH 24/12/1964 [Link] II/45 RT.03/01 KOTA SEMARANG
4456 1100442598 CHOEROTUNNISAK MASUD BASRI 12/02/1965 KLEPU 14/01 KAB. JEPARA
4457 1100442600 MARYOTO SUNAR MOREJO 16/12/1962 KLEPU 14/01 KAB. JEPARA
4458 1100442601 ILYA RIF'ATI MAWARDI 05/04/1973 NGELING 03/05 KAB. JEPARA
4459 1100442603 MUJI RAHAYU 07/03/1958 PURWOREJO RT 03 KAB. SRAGEN
4460 1100442604 NASTA'IN MASYHUD ANWAR 14/11/1964 NGELING 03/05 KAB. JEPARA
4461 1100442605 PARDI SETIAWAN 19/04/1974 WIJI NO. 02 RT. 02/04 KAB. MAGELANG
4462 1100442606 PARMIJATUN 12/03/1958 BANJARDOWO 05/05 KAB. GROBOGAN
4463 1100442608 MAHMUD 15/01/1964 [Link] II/45 RT.03/01 KOTA SEMARANG
4464 1100442610 SITI MUFLIKHAH 12/08/1987 DUSUN BANJARDOWO RT 005 / RW 005 KAB. GROBOGAN
4465 1100442611 ALI SAPUAN MARIJO 26/05/1973 KAYEN 2/6 KAYEN KAB. PATI
4466 1100442614 IIN RUSTINAH 20/08/1975 WINONG LOR RT 02/04 KAB. PURWOREJO
4467 1100442615 SURIYAH KARTO PARMAN 05/04/1964 BULUNGCANGKRING RT.03 RW.15 KAB. KUDUS
4468 1100442616 GIYARSO 12/06/1961 BIRIT 01/01 KAB. KLATEN
4469 1100442617 SULASIH MARTOATMOJO MULTANOM 04/01/1963 ROWOKELE RT.02/01 KAB. KEBUMEN
4470 1100442618 SRI RAHAYU 17/05/1962 DK. SIDOWAYAH RT. 02/07 KAB. SUKOHARJO
4471 1100442621 KISTIANAWATI SUMO BIRAN 02/11/1961 PONDOWAN 5/3 TAYU KAB. PATI
4472 1100442625 SAMSI 30/04/1974 KARANG TANJUNG RT 16 KAB. SRAGEN
4473 1100442626 HARRY MARMALAN KUNAWI 19/03/1959 PONDOWAN 5/3 TAYU KAB. PATI
4474 1100442627 TITIK MIRA HARTINI 07/04/1975 KARANG TANJUNG RT 16 KAB. SRAGEN
4475 1100442631 SARININGSIH NOOR SYAHID 06/08/1975 KARANGMALANG RT 04 RW 08 KAB. KUDUS
NO NO. PORSI NAMA TANGGAL LAHIR ALAMAT KAB/KOTA KETERANGAN
4476 1100442632 MUSBARI 07/01/1971 BUMIREJO RT.03/08 KAB. DEMAK
4477 1100442633 MOHAMAD SARTONO MUKRI 16/11/1959 TLOGOREJO 2/4 TLOGOWUNGU KAB. PATI
4478 1100442634 AKHMAD RONZI KARSIPAN 15/05/1967 KARANGMALANG RT 04 RW 08 KAB. KUDUS
4479 1100442635 SUMEDI 01/07/1959 BATUR RT 001 RW 009 KAB. BANJARNEGARA
4480 1100442636 KODRIYAH 04/06/1978 BUMIREJO RT.03/08 KAB. DEMAK
4481 1100442637 DJUHAENAH 21/11/1959 BATUR RT 001 RW 009 KAB. BANJARNEGARA
4482 1100442638 LIES PURWATI MOH ALI SAMIUN 23/05/1963 BAE RT 02 RW 05 KAB. KUDUS
4483 1100442641 TRI WAHYU MARDIATI 05/03/1962 TLOGOREJO 2/4 TLOGOWUNGU KAB. PATI
4484 1100442643 SUSILO HARITOMO 01/06/1965 JL. BRINGIN ASRI RAYA NO. 1037 RT 4 / 12 KOTA SEMARANG
4485 1100442644 FITRIAH 15/04/1959 GENUK KARANGLO RT 4 RW 2 KOTA SEMARANG
4486 1100442645 INHARTINAH 23/08/1968 SONDAKAN RT.01 RW.06 KOTA SURAKARTA
4487 1100442646 DWI SRI SURANTI,IR 13/03/1970 [Link] ASRI RAYA NO.1037 RT.04/12 KOTA SEMARANG
4488 1100442647 MUNASIFAH MASTUR MAT YASIR 16/09/1972 GROGOLAN KAB. PATI
4489 1100442648 SITI MARYAM 02/03/1963 GENUK KARANGLO RT.06/02 KOTA SEMARANG
4490 1100442649 ISMIATUN 21/04/1974 JL. MULAWARMAN RT 1 RW 1 KOTA SEMARANG
4491 1100442650 MIFTAH HUDALLAH ABDULLAH FAKIH 10/12/1977 NGARUS 1/1 PATI KAB. PATI
4492 1100442651 ASIH ASTUTI SOETIJANTO 16/04/1982 NGARUS 1/1 PATI KAB. PATI
4493 1100442652 MARGONO 30/11/1964 JL. MULAWARMAN RT 1 RW 1 KOTA SEMARANG
4494 1100442653 KASMIRAH WAHAB SAHLAN 01/04/1964 LORAMKULON RT.04 RW.03 KAB. KUDUS
4495 1100442654 SUPARING SAKIMAN SAMPRI 31/12/1958 LORAMKULON RT.04 RW.03 KAB. KUDUS
4496 1100442655 MA'RIFAH 03/07/1980 HARJOSARI LOR RT. 05/01 ADIWERNA KAB. TEGAL
4497 1100442656 SUMIYATI AHMAD SARBINI JOYO 02/04/1968 JEKULO RT.01 RW.10 KAB. KUDUS
4498 1100442657 ABDUL AFIP 06/06/1974 HARJOSARI LOR RT. 05/01 ADIWERNA KAB. TEGAL
4499 1100442658 AHMAD 12/04/1984 PESURUHAN RT.10 RW.03 KAB. WONOSOBO
4500 1100442661 PRIYO SUSILO 27/01/1968 JL. TRANSISI 17 RT 01/03 KAB. BLORA
4501 1100442662 NURSAMAH 19/11/1968 DEMANGSARI RT. 01. 08 KAB. KEBUMEN
4502 1100442663 HAFIZH ARIFNI 23/06/1982 [Link] IJEN NO.20 RT.12/11 KOTA SEMARANG
4503 1100442667 ASMINAH KASMUNI MOHAMAD DAHLAN 10/06/1970 DEMANGSARI RT.01/08 KAB. KEBUMEN
4504 1100442668 KADARSIH 02/12/1965 SIDOREJO RT 04/01 KAB. SRAGEN
4505 1100442671 SUMARSIH 15/01/1963 CANGKIRAN RT.02/02 KOTA SEMARANG
4506 1100442674 KASTIYAH 15/06/1959 DK. KALIGETAS RT.02/04 KOTA SEMARANG
4507 1100442675 NITA UMAYAH 26/05/1982 CANGKIRAN RT.02/02 KOTA SEMARANG
4508 1100442677 SUWARNO 31/12/1957 DK. KALIGETAS RT.02/04 KOTA SEMARANG
4509 1100442678 AGUS SOBARI 28/08/1959 PENARUBAN RT 03 RW 07 KAB. PURBALINGGA
4510 1100442679 ESI NUGIARTI 28/03/1965 RANDEGAN RT.05 RW.08 KAB. BANYUMAS
4511 1100442681 HERI SUHARTO 26/02/1968 MANGUNJIWAN RT.06/03 KAB. DEMAK
4512 1100442682 KUWAT SUGIARTO 06/10/1959 RANDEGAN RT.05 RW.08 KAB. BANYUMAS
4513 1100442683 SUHERMIYATI 02/12/1975 MANGUNJIWAN RT.06/03 KAB. DEMAK
4514 1100442685 NUR FAUZAH 01/01/1979 WEDING RT.01/07 KAB. DEMAK
4515 1100442687 AHMAD ROFIK 20/04/1970 WEDING RT.01/07 KAB. DEMAK
4516 1100442688 KARTUMI 16/12/1957 MARIBAYA RT. 05/01 KRAMAT KAB. TEGAL
4517 1100442689 SRI RASTUTI 31/08/1970 KARANG WUNGU 12/06 KAB. KLATEN
4518 1100442690 SITI NURJANAH 20/06/1973 FLAMBOYAN 2 BLOK U-2 RT.05/05 KAB. DEMAK
4519 1100442692 BAGIYO 25/08/1971 KARANG WUNGU 12/06 KAB. KLATEN
4520 1100442695 NURDE IRAWAN 11/12/1974 [Link] KARTIKA NO.375 RT.04/01 KOTA SEMARANG
4521 1100442698 FATMA DWI RISTIANI 07/12/1975 [Link] KARTIKA NO.375 RT.04/01 KOTA SEMARANG
4522 1100442702 PURWOTO 16/03/1970 SUGIHAN 05/06 KAB. GROBOGAN
4523 1100442703 NURWIYATI 04/10/1978 SUGIHAN 05/06 KAB. GROBOGAN
4524 1100442706 SUMINAH 03/05/1969 SUMBERSARI 01/10 KAB. KLATEN
4525 1100442707 SUMIATI 05/05/1973 BULUNGCANGKRING RT 04 RW 10 KAB. KUDUS
4526 1100442708 SUNARTONO 12/05/1963 SUMBERSARI 01/10 KAB. KLATEN
4527 1100442711 SAONAH 03/11/1958 CARIKAN 2 RT01 RW02 KAB. TEMANGGUNG
4528 1100442712 UMAYATI 12/07/1960 JL. SEMBUNGHARJO RT.04/03 KOTA SEMARANG
4529 1100442714 MUJIYATI 13/05/1961 SUMBERSARI RT 01/06 KAB. PURWOREJO
4530 1100442716 SITI KHOTIMAH 24/01/1977 KALIORI RT. 2/2 KAB. BANYUMAS
4531 1100442717 SRI NGABEKTI 15/02/1960 DIBAL RT 004 RW 005 KAB. BOYOLALI
4532 1100442720 HALIMAH NUR 06/07/1971 BANGETAYU WETAN RT.02/03 KOTA SEMARANG
4533 1100442721 SUMADI 15/10/1961 BANGETAYU WETAN RT.02/03 KOTA SEMARANG
4534 1100442723 DARWATI 04/08/1965 BANGETAYU WETAN RT.02/03 KOTA SEMARANG
4535 1100442724 MAHMUD YUNUS 04/07/1975 JL. MANGGA NO. 411 A RT. 01 RW. 05 KAB. CILACAP
4536 1100442725 MA'MUN 27/08/1964 LIMBANGAN RT.03/02 LOSARI KAB. BREBES
4537 1100442726 WAFIROH 25/07/1973 LIMBANGAN RT.03/02 LOSARI KAB. BREBES
4538 1100442728 TRI KHUSWATUN KHASANAH 25/05/1983 JL. MANGGA 411 A RT. 01 RW. 05 KAB. CILACAP
4539 1100442731 RUWIYATI 10/09/1961 BLOK PASAR RT. 03/04 SALEM KAB. BREBES
4540 1100442732 SUMIYATI 05/11/1961 DAWANG 03/07 KAB. MAGELANG
4541 1100442734 KASNOMO 12/03/1972 BRENGKELAN RT 05/04 KAB. PURWOREJO
4542 1100442738 SRIYAMAH 31/12/1958 DSN. NGIPIK RT.04 RW.08 KAB. SEMARANG
4543 1100442740 YUSI SIH SUHESTI 12/09/1974 GETAS [Link] RT.13 RW.04 KAB. BATANG
4544 1100442741 PUJIONO 02/09/1966 GETAS DK. TUNGGORO RT.13RW.04 KAB. BATANG
4545 1100442742 SITI KOMARIYAH 21/10/1969 PULUTAN RT03 RW02 KAB. TEMANGGUNG
4546 1100442744 TUKIMIN 16/12/1966 TANON RT 03 KAB. SRAGEN
4547 1100442745 HARTUTI PURNAWENI 02/12/1961 MUWARDI TIMUR V/ 18 RT 4 RW 5 KOTA SEMARANG
4548 1100442746 MARGIYANTI 16/10/1966 TANON RT 03 KAB. SRAGEN
4549 1100442747 KASTURIYAH SUKARDI KRAMADIMULYA 07/02/1968 GROGOLPENATUS RT. 03. 01 KAB. KEBUMEN
4550 1100442748 SAM'ANI SUMALI SAN MUNGIN 08/12/1959 GROGOLPENATUS RT.03/01 KAB. KEBUMEN
4551 1100442751 NUR KHAMID 11/07/1966 KUDU RT 4 RW 7 KOTA SEMARANG
4552 1100442752 SITI JAMILATUN 01/04/1962 JL. TRUNTUM VII NO. 9 RT 5 RW 11 KOTA SEMARANG
4553 1100442753 UYEK SUMIYATUN 03/04/1964 [Link] SETAMAN NO.81 RT.08/08 KOTA SEMARANG
4554 1100442754 T SUPARDI 24/02/1965 [Link] SETAMAN NO.81 RT.08/08 KOTA SEMARANG
4555 1100442755 SUMIRAH 07/07/1969 KUDU RT.04/07 KOTA SEMARANG
4556 1100442756 SULIYEM 06/10/1961 KALANGAN RT 08/01 KAB. SRAGEN
4557 1100442759 TRENGGONO 05/06/1962 SEDAHROMO LOR RT.04/RW.06 KAB. SUKOHARJO
4558 1100442760 SITI UMI ATUN 31/12/1961 JL. PASIRAJA BANTARSOKA RT 01 RW 06 KAB. BANYUMAS
4559 1100442761 SUGIYANTO 11/10/1957 TENGGAK RT 12/05 KAB. SRAGEN
4560 1100442762 SUHARDINI 04/04/1970 JL. DEWI SARTIKA TIMUR 102 RT.09/05 KOTA SEMARANG
4561 1100442763 SUWANTI 05/01/1962 TENGGAK RT 12/05 KAB. SRAGEN
4562 1100442764 MOHAMAD FAESOL YUDI ROCHMAN 12/02/1978 KESAMBI RT 02 RW 02 KAB. KUDUS
4563 1100442765 SITI AKROMAH 26/08/1965 PEKUNCEN RT.4/3 KAB. BANYUMAS
4564 1100442766 ZETTI TRI SETIYANI ALI ICHLAN 01/02/1980 KESAMBI RT 02 RW 02 KAB. KUDUS
4565 1100442768 INDRAS MARHAENDRAJAYA, DRS, MSI 03/08/1966 JL. DEWI SARTIKA TIMUR 102 RT.09/05 KOTA SEMARANG
4566 1100442769 SITI NAKIYAH 22/01/1975 PUCANG GUNUNG 03/03 KAB. MAGELANG
4567 1100442773 NAPIAH 31/12/1967 BANJARAN 19/10 KAB. MAGELANG
4568 1100442774 SUPARTI 21/11/1965 JLOPO RT.02/RW.04 KAB. SUKOHARJO
4569 1100442776 ISTI UMAYATI 15/12/1968 KEMBANGAN II RT. 15/07 KAB. MAGELANG
4570 1100442777 WACHRODI 14/09/1965 DUKUH KAUMAN RT.05/03 PANGKAH KAB. TEGAL
4571 1100442781 DIAN WIDIATI 19/05/1973 DUKUH KAUMAN RT.05/03 PANGKAH KAB. TEGAL
4572 1100442783 SITI HAMNAH 02/01/1965 JL. KALIGARANG I RT.08 RW.04 KAB. SEMARANG
4573 1100442785 MUSLIHAH 31/12/1964 KORIPAN 05/05 KAB. MAGELANG
4574 1100442786 IRKHAM ROFII 18/12/1970 PUCANGGUNUNG RT. 02/03 KAB. MAGELANG
4575 1100442789 NGATIYEM 03/07/1958 TLOGOMULYO RT.01/04 KOTA SEMARANG
4576 1100442793 MUALIMAH MANSUR SULAIMAN 12/02/1962 BANDUNGHARJO RT.003/002 [Link] KAB. JEPARA
4577 1100442795 SUHARJO 31/07/1973 HARJASARI RT.04/04 SURADADI KAB. TEGAL
4578 1100442796 RUSNAH 01/07/1957 GEDEGAN, RT.09/RW.02 KAB. TEMANGGUNG
4579 1100442800 YANAH 02/01/1960 SRIGADING 01/04 KAB. MAGELANG
4580 1100442801 ELWIASIH 10/06/1978 HARJASARI RT.04/04 SURADADI KAB. TEGAL
4581 1100442806 IKHWANDI 15/04/1961 [Link] RT.02/08 KOTA SEMARANG
4582 1100442808 SUWARTI 20/05/1964 [Link] RT.02/08 KOTA SEMARANG
4583 1100442810 SUJANA 01/01/1962 KINCANG RT 003 RW 003 KAB. BANJARNEGARA
4584 1100442813 ABDULLAH,DRS 27/12/1964 [Link] SERUNI RT.02/04 KOTA SEMARANG
4585 1100442814 SRI HARTATI 15/11/1957 KAJEN RT.03 RW.10 KAB. WONOGIRI
4586 1100442815 DARMIN 01/07/1962 PAGENTAN RT 003/001 KAB. BANJARNEGARA
4587 1100442816 WINARTI 24/05/1965 POKOH RT. 03 RW. 04 KAB. WONOGIRI
4588 1100442817 MAKRUF WAHYUDI 12/11/1969 BUTUH RT 06 KAB. SRAGEN
4589 1100442820 MOCH DAIN MOCH MUTAHAYIZAN 08/08/1968 KAJEN 4/1 MARGOYOSO KAB. PATI
4590 1100442821 HIDAYAH 11/05/1971 SURJO RT.07 RW.03 KAB. BATANG
4591 1100442823 SUCIPTO KARSIDI BASIR 20/03/1968 LAU RT.04 RW.01 KAB. KUDUS
4592 1100442824 SUDIRAN 09/10/1957 CILONGOK RT 1 RW6 KAB. BANYUMAS
4593 1100442826 SUYATI 21/01/1965 CILONGOK RT 1 RW 6 KAB. BANYUMAS
4594 1100442827 SRI HIDAYATI 02/12/1969 BUTUH RT 06 KAB. SRAGEN
4595 1100442828 SOLICHAH SOLEH YUSUF 25/11/1965 LAU RT.04 RW.01 KAB. KUDUS
4596 1100442830 CHADLIROH 05/05/1971 BAKALREJO RT.02/03 KAB. DEMAK
4597 1100442831 TAUFIK AMRUDIN 24/09/1962 PASIR KIDUL RT. 1/4 KAB. BANYUMAS
4598 1100442832 ZUHRO 15/04/1969 KARANGDEMPUL RT.03/04 KALILANGKAP KAB. BREBES
4599 1100442833 MALIAH 22/12/1963 PASIR KIDUL RT. 1/4 KAB. BANYUMAS
4600 1100442834 SRI AYATI 15/05/1965 LIMPUNG [Link] RT.01 RW.03 KAB. BATANG
4601 1100442835 AHMADA CHAFIDA 23/12/1987 DUKUH GEPOR RT 001 / RW 003 KAB. BATANG
4602 1100442836 DWI WURYANI GANI MARDANINTO 15/09/1970 KAJEN 4/1 MARGOYOSO KAB. PATI
4603 1100442839 JEMIYAH 05/11/1958 BADAKARYA RT 002 RW 003 KAB. BANJARNEGARA
NO NO. PORSI NAMA TANGGAL LAHIR ALAMAT KAB/KOTA KETERANGAN
4604 1100442842 SUPIYATI KASMARUN KASRUN 22/10/1959 KABUARAN RT. 02. 04 KAB. KEBUMEN
4605 1100442844 DARNOTO 10/01/1960 DUSUN KEBOGORAN RT. 02 RW. 09 KAB. CILACAP
4606 1100442846 KHOMSIYAH 10/10/1967 DUSUN KEBOGORAN RT. 02 RW. 09 KAB. CILACAP
4607 1100442847 EKO ANGGORO KUSUMO RAHARJO 19/08/1980 DK SUDIMORO RT03 RW 03 KAB. KEBUMEN
4608 1100442848 UMI BAROKAH 10/09/1972 RAKIT RT 004 RW 002 KAB. BANJARNEGARA
4609 1100442849 TUTUR 06/04/1967 SUMBEREJO RT 001 RW 003 KAB. BANJARNEGARA
4610 1100442850 ERNI YOHAN 11/07/1973 SUMBEREJO RT.1 RW.03 KAB. BANJARNEGARA
4611 1100442851 SUPRAPTO SUGIYONO WAKIJAN 31/12/1957 UNDAAN KIDUL RT 02 RW 01 KAB. KUDUS
4612 1100442852 SUPRAPTO 30/10/1971 RAKIT RT 004 RW 002 KAB. BANJARNEGARA
4613 1100442853 DR. MOH .TAMTOWI, MAG 03/09/1972 NGADIGUNUNG 05/02 KAB. MAGELANG
4614 1100442854 SUTARMAN 15/02/1962 PETUGURAN RT 005 RW 001 KAB. BANJARNEGARA
4615 1100442855 SITI WASIAH WASIRUN 31/12/1960 UNDAAN KIDUL RT 02 RW 01 KAB. KUDUS
4616 1100442857 MARTINAH 01/01/1970 PETUGURAN RT.05 RW.01 KAB. BANJARNEGARA
4617 1100442858 SITI NURUL WACHIDAH, SAG 15/01/1973 NGADIGUNUNG RT. 02/02 KAB. MAGELANG
4618 1100442863 MARSINI 26/12/1966 GUNUNG TUGEL 02/04 KAB. GROBOGAN
4619 1100442865 ARIS SISWANTO RUSMIN 01/10/1981 KESAMBI RT.01 RW.11 KAB. KUDUS
4620 1100442867 SITI RUQOYYAH SYAFII SELAN 27/06/1980 KESAMBI RT 01 RW 11 KAB. KUDUS
4621 1100442869 MASUDJI 07/07/1975 JAKENAN 01/04 KAB. GROBOGAN
4622 1100442871 SLAMET SUGIYANTO, DRS 29/10/1959 PEDURUNGAN TENGAH III/A-13 RT.04/01 KOTA SEMARANG
4623 1100442874 APRILINA DWI SUSETYOWATI 16/04/1965 PEDURUNGAN TENGAH III/A-13 RT.04/01 KOTA SEMARANG
4624 1100442878 SRI WIDAYATI 17/04/1973 DK. SIKUNIR RT.02/05 KOTA SEMARANG
4625 1100442879 UJI ASTUTI 30/10/1964 PRM PURNAWIRA LEDUG RT. 2/8 KAB. BANYUMAS
4626 1100442880 MURIYATUN 19/10/1974 JAKENAN 02/04 KAB. GROBOGAN
4627 1100442882 PUJIYATUN 25/09/1980 JAKENAN 01/04 KAB. GROBOGAN
4628 1100442884 NUR WAHYUNI CHAIRUNISA 24/10/1981 WONOKERTO RT.01 RW.04 KAB. BATANG
4629 1100442887 RASMIDI 01/07/1965 [Link] RT.06/02 WRINGIN AGUNG DORO KAB. PEKALONGAN
4630 1100442890 ABU AHMAD RUHANI 03/01/1978 DANYANG SELATAN 06/01 KAB. GROBOGAN
4631 1100442891 UJIANI DIAN LESTARI 05/03/1998 TAMBI RT.26 RW.09 KAB. WONOSOBO
4632 1100442892 MARKUWAT 14/07/1969 [Link] RT.06/02 WRINGIN AGUNG DORO KAB. PEKALONGAN
4633 1100442893 SUKOCO 12/12/1963 KRAJAN 01/01 KAB. GROBOGAN
4634 1100442895 MURTINAH 31/12/1975 TAMBI RT.26 RW.09 KAB. WONOSOBO
4635 1100442896 MASLIKHAH 10/04/1986 BANYURIP ALIT GG. 2 B RT. 4 RW. 1 KOTA PEKALONGAN
4636 1100442897 NASRUDIN 20/08/1959 KEMIRI KIDUL RT 01/01 KAB. PURWOREJO
4637 1100442898 NANING RETNOWATI HADININGSIH 14/08/1965 KRAJAN 01/01 KAB. GROBOGAN
4638 1100442899 MARSONO,DRS 11/07/1965 TANDAN 17/08 KAB. KLATEN
4639 1100442902 HARRY MUKTI KRISDIANTO 18/02/1986 BANYURIP ALIT GG. 2 B RT. 4RW. 1 KOTA PEKALONGAN
4640 1100442903 TUTIK KHURIYATI 15/08/1969 NGOLODONO 11/04 KAB. KLATEN
4641 1100442904 AGUS SRI SATATA 24/08/1963 NGOLODONO 11/04 KAB. KLATEN
4642 1100442908 PURWANTI 07/01/1967 WIRYONADI 06/03 KAB. KLATEN
4643 1100442910 LILIS OKTIVIYANI 17/10/1979 TANDAN 17/08 KAB. KLATEN
4644 1100442911 MARWAH 15/06/1958 SIDAHARJA RT.04/03 SURADADI KAB. TEGAL
4645 1100442912 SITI FATONAH 02/05/1967 JL. KUSUMA 04/01 KAB. GROBOGAN
4646 1100442913 TITIK BUDHIYATI 06/05/1965 DSN.02 RT.01 RW.03 KAB. PEMALANG
4647 1100442914 TOTOK SUGIARTO 01/02/1963 JL. KUSUMA 04/01 KAB. GROBOGAN
4648 1100442915 IBNU HAJAR 04/04/1981 TEGALGLAGAH RT.02/08 BULAKAMBA KAB. BREBES
4649 1100442916 SUIFROH SYAHID MUNASIR 15/06/1969 MENGANTI 17/04 KAB. JEPARA
4650 1100442917 ROKHISIH NURSIDIK KAPRAWI 21/02/1961 GOLANTEPUS RT 04 RW 05 KAB. KUDUS
4651 1100442918 ERLINA FAJARSARI 23/08/1985 TEGALGLAGAH RT.02/08 BULAKAMBA KAB. BREBES
4652 1100442919 MUSLIM PANI SIMAN 10/09/1962 MENGANTI 17/04 KAB. JEPARA
4653 1100442920 ADE ARIANI 11/07/1975 DUKUH RT 13 KAB. SRAGEN
4654 1100442921 WIYONO 02/08/1968 DUKUH RT 13 KAB. SRAGEN
4655 1100442929 PRATIWI ANDAYANI 22/09/1968 SUMENGKO RT 03/12 KAB. SRAGEN
4656 1100442931 NGARBI,[Link],[Link] 29/08/1965 STONEN SELATAN V/13 RT.01/04 KOTA SEMARANG
4657 1100442934 SULASTRI 03/01/1959 SENTONO 05/02 KAB. GROBOGAN
4658 1100442935 LATIFAH 02/12/1959 PROYONANGGAN TENGAH GENDINGAN RT.05 RW.3 KAB. BATANG
4659 1100442936 SUGENG IRIANTO 15/07/1962 SOKANANDI RT 002 RW 004 KAB. BANJARNEGARA
4660 1100442937 MULYONO 15/03/1971 SRAGON 03/06 KAB. KLATEN
4661 1100442938 WIDAYATI WACHID KARSIM 18/09/1967 PRAMBATAN LOR RT.01 RW.03 KAB. KUDUS
4662 1100442939 MURNI RUMANINGSIH 08/10/1962 SOKANANDI RT 002 RW 004 KAB. BANJARNEGARA
4663 1100442940 TITIK INDARWATI 28/07/1981 MANGGUNG 06/04 KAB. MAGELANG
4664 1100442941 MUKAROMAH,[Link] 21/07/1967 STONEN SELATAN V/13 RT.01/04 KOTA SEMARANG
4665 1100442942 SUPARMAN 06/09/1958 SENTONO 05/02 KAB. GROBOGAN
4666 1100442943 TRI SURYANINGSIH 16/01/1980 SRAGON 03/06 KAB. KLATEN
4667 1100442944 SUPADI TAMIREJA TRANTIKA 11/07/1961 KEBAGORAN RT.07/03 KAB. KEBUMEN
4668 1100442945 ACHMAD SOLEH 12/11/1977 MANGUNG 06/04 KAB. MAGELANG
4669 1100442946 ZUMROTUN JASIRAN KARMAIN 12/12/1963 MEDINI RT 03 RW 01 KAB. KUDUS
4670 1100442948 SITI MASIROH 25/12/1968 RANGIMULYA RT.02/01 WARUREJA KAB. TEGAL
4671 1100442952 SISWADI 20/06/1963 SIDOMULYO RT 14 KAB. SRAGEN
4672 1100442953 UTAMI PUJIASTUTI 19/01/1966 JL. SADANG NO. 23 RT. 01 RW. 05 KAB. CILACAP
4673 1100442954 TRUBUS SANTOSO 06/09/1974 DUSUN PENDUDUTAN RT 002 / RW 002 KAB. KEBUMEN
4674 1100442955 PANJI PRABOWO 09/11/1985 JL. SADANG NO. 23 RT. 01 RW. 05 KAB. CILACAP
4675 1100442957 SAHLAN SAMIIN BASUNI 02/12/1957 MEDINI RT 03 RW 01 KAB. KUDUS
4676 1100442958 RATNA PUDYASTUTI 07/04/1973 SIDOMULYO RT 14 KAB. SRAGEN
4677 1100442959 SITI ROKHANI 07/01/1966 GANDEN RT. 06/04 KAB. MAGELANG
4678 1100442960 KURNIATI AMIN DARSONO 24/05/1967 KEBAGORAN RT. 07. 03 KAB. KEBUMEN
4679 1100442962 WASIS KARTONO 11/06/1964 KARANGASEM SELATAN RT.02 RW.06 KAB. BATANG
4680 1100442963 NURUL FAIZAH SARBINI 09/03/1978 KARANGMALANG RT.04 RW.04 KAB. KUDUS
4681 1100442964 DIANA NARWIASIH 15/02/1965 KARANGASEM SELATAN RT.02 RW.06 KAB. BATANG
4682 1100442965 SITI MAEMUNAH AHMAD MARZUKI 17/05/1959 KARANGREJO RT .02. 03 KAB. KEBUMEN
4683 1100442966 MUH UMAR 31/12/1960 [Link] 04/06 KAB. MAGELANG
4684 1100442967 PHENY ASSIANINGSIH 20/06/1965 BOGORAN RT.01 RW.05 KAB. BATANG
4685 1100442968 SUBKHAN PAERAN GARIJAN 03/03/1976 KARANGMALANG RT 04 RW 04 KAB. KUDUS
4686 1100442969 BAMBANG IRIJANTO 14/04/1963 MAJENANG 01/19 KAB. GROBOGAN
4687 1100442972 ENDANG ISNAENI 07/11/1962 MAJENANG 01/19 KAB. GROBOGAN
4688 1100442974 PARDIMAN 24/04/1972 BOGOSARI RT.05/06 KAB. DEMAK
4689 1100442976 KRISTINAH 05/07/1960 JAGALAN RT 03 RW 013 KOTA SURAKARTA
4690 1100442977 MARDIYEM 06/09/1974 BOGOSARI RT.05/06 KAB. DEMAK
4691 1100442984 ZAM ZAM ADNAN F.E 11/04/1987 NGLARANGAN RT. 01 RW. 03 KAB. KARANGANYAR
4692 1100442985 MUSTANGILAH 02/04/1958 JL. KH SARBINI HASAN RT. 03 RW. 07 KAB. CILACAP
4693 1100442988 ELINA HIDAZATI 06/11/1973 LUNGGE, RT.04/RW.02 KAB. TEMANGGUNG
4694 1100442989 SITI CHOTIJAH 20/10/1963 GATEN 01/11 KAB. MAGELANG
4695 1100442990 SUDIRMAN HASAN AS'ARI 06/10/1957 ROGOMULYO 6/4 KAYEN KAB. PATI
4696 1100442991 MUDAWAMAH MAKMUR SUBUR 04/01/1966 ROGOMULYO 6/4 KAYEN KAB. PATI
4697 1100442992 MUHAMAD ZAQI ALBANA 25/03/1991 GATEN 01/11 KAB. MAGELANG
4698 1100442993 TUTIK TRI WINARSIH 07/02/1977 TAMAN SARI RT 36 RW 15 KAB. SRAGEN
4699 1100442994 AGUS RIYANTO 04/08/1971 TAMANSARI RT 36 RW 15 KAB. SRAGEN
4700 1100442995 MOCHAMAD SALMAN 28/05/1969 JL. MADYOTAMAN 2 NO. 27 RT 02 RW 03 KOTA SURAKARTA
4701 1100442997 TEGUH SANTOSA SOEKIMAN 01/03/1966 BERMI 01/01 GEMBONG KAB. PATI
4702 1100442998 ENDANG DWI LESTARI 01/08/1970 JL. MADYOTAMAN II NO 27 RT.02 RW.03 KOTA SURAKARTA
4703 1100443000 SITI MUALIFATUN MOH. SYAKUR 24/06/1967 BERMI 01/01 GEMBONG KAB. PATI
4704 1100443001 CHALIM 14/12/1964 SITUWANGI RT 003 RW 001 KAB. BANJARNEGARA
4705 1100443002 KARNO 10/03/1972 WATES KULON RT.01 RW. 03 KAB. WONOGIRI
4706 1100443003 SHOLIHUN KOLIL SAWIKRAMA 17/03/1969 KALIPOH RT. 05. 03 KAB. KEBUMEN
4707 1100443005 SUPARSINI 17/03/1973 WATES KULON RT.01 RW.03 KAB. WONOGIRI
4708 1100443006 SALIMAH 17/12/1962 SITUWANGI RT 001/003 KAB. BANJARNEGARA
4709 1100443007 SOLIAH 08/05/1969 SITUWANGI RT 003/001 KAB. BANJARNEGARA
4710 1100443008 MUHAMMAD MUSLIH 07/06/1985 NGERJOPURO RT 03 RW 03 KAB. WONOGIRI
4711 1100443009 NARMI 02/02/1959 NGERJOPURO RT.03 RW.03 KAB. WONOGIRI
4712 1100443012 HARYATI 20/01/1974 PAKIS TENGAH 01/01 KAB. MAGELANG
4713 1100443013 PADIANTO 24/09/1959 SIDODADI [Link] RT.02/13 KEDUNGWUNI TIMUR KAB. PEKALONGAN
4714 1100443015 EKO PUJIANTO UNTUNG 15/05/1986 JL ARGOYUWONO NO 27 B RT 08 RW 01 KOTA SALATIGA
4715 1100443016 MAKPUL NURKHAMID 19/11/1962 PAKIS TENGAH RT. 01/01 KAB. MAGELANG
4716 1100443022 SUDJILAH 03/08/1959 SIDODADI [Link] RT.02/13 KEDUNGWUNI TIMUR KAB. PEKALONGAN
4717 1100443026 EDDY SUPRIYATNO 22/03/1959 KARANGANYAR GUNUNG RT.07/02 KOTA SEMARANG
4718 1100443027 PENI SRI MULYATI 09/05/1964 KARANGREJO NO.16 RT.06/02 KOTA SEMARANG
4719 1100443029 UMAR GHONI 10/09/1965 KARANGREJO 16 RT.06/02 KOTA SEMARANG
4720 1100443031 MURNIYATI 20/11/1959 BLABURAN 05/10 KAB. MAGELANG
4721 1100443032 ERNAWATI FAIZAH JUNAEDI 27/05/1987 JL ARGOYUWONO NO 27 B RT 08 RW 01 KOTA SALATIGA
4722 1100443034 WARDANI 21/09/1959 BLABURAN 05/10 KAB. MAGELANG
4723 1100443037 MUHADI, SH 08/09/1967 BUKIT SERUNI VI/147 BLOK A RT.06/19 KOTA SEMARANG
4724 1100443039 MOHAMMAD ALFAN FAUZI 07/06/1993 SOMAGEDE RT.02/01 KAB. KEBUMEN
4725 1100443041 ZUHAIRINA 24/08/1968 BUKIT SERUNI VI/147 BLOK A RT 6 RW 19 KOTA SEMARANG
4726 1100443043 YONO DARYONO 07/10/1959 JL KETAPANG 06 RT03 RW14 KAB. CILACAP
4727 1100443044 MUTOMIMAH 15/10/1957 KENDALSERUT RT.02/04 PANGKAH KAB. TEGAL
4728 1100443045 EDY SUGIHARTO SUBADI 12/07/1971 BARONGAN RT 06 RW 01 KAB. KUDUS
4729 1100443046 AGUSTINA WIDIYANTI SUBIYANTO 09/08/1975 BARONGAN RT 06 RW 01 KAB. KUDUS
4730 1100443052 YULI ASTUTI 15/07/1970 [Link] RT.1/4 PASIRMUNCANG KAB. BANYUMAS
4731 1100443053 SUTIYONO 05/06/1963 [Link] RT. 1/4 PSRMUNCANG KAB. BANYUMAS
NO NO. PORSI NAMA TANGGAL LAHIR ALAMAT KAB/KOTA KETERANGAN
4732 1100443058 LASNI 31/12/1962 DAWUNG 03/03 KAB. GROBOGAN
4733 1100443062 SRIDADI, SPD 26/03/1970 PAGER 02/01 KAB. KLATEN
4734 1100443064 SURYATI 26/09/1959 DARMAKRADENAN RT.3/3 KAB. BANYUMAS
4735 1100443072 AHMAD QOSTOLANI 21/04/1975 CIKURA RT.04/02 BOJONG KAB. TEGAL
4736 1100443074 ARIFIN HARI WINATA 19/06/1992 DONGLO RT.16 RW. 006 DAWUNGAN MASARAN KAB. SRAGEN
4737 1100443075 TOHIRIN 12/04/1965 JL. SLAMET RIYADI NO. 333.1 RT. 09/04 KAB. CILACAP
4738 1100443076 WASILAH 12/08/1973 JLN. SLAMET RIYADI NO. 333 RT 09 RW 04 KAB. CILACAP
4739 1100443077 MURTINI BSC 15/10/1961 DONGLO NO.16 RT 16 KAB. SRAGEN
4740 1100443078 SITI MASITOH 14/05/1981 CIKURA RT.04/02 BOJONG KAB. TEGAL
4741 1100443080 MARDHIYATUN 20/07/1962 WATUSARI RT.02/06 KOTA SEMARANG
4742 1100443081 DASRUN 04/05/1961 SONGGALAN RT.01 RW.03 KOTA SURAKARTA
4743 1100443083 MARNO 13/11/1958 WATUSARI RT 2 RW 6 KOTA SEMARANG
4744 1100443086 NAILATUN FIRDAUS 28/08/1982 SETU RT. 05/02 TARUB KAB. TEGAL
4745 1100443088 SUKASNO 04/06/1967 DK. KAUMAN RT. 01/06 KAB. SUKOHARJO
4746 1100443089 WARJI KUSEN KHOTIMAH 16/11/1970 MOJOAGUNG 6/3 TRANGKIL KAB. PATI
4747 1100443090 AKHSIN 10/08/1966 NGEMINGAN RT 03 RW 01 KOTA SURAKARTA
4748 1100443091 AGUS DARWANTO 01/03/1963 PULE RT.02 RW.04 KAB. WONOGIRI
4749 1100443092 SUKARDI 27/12/1959 [Link] TENGAH RT.08/10 KOTA SEMARANG
4750 1100443093 SUGENG SUPRIYADI 15/09/1977 SETU RT. 05/02 TARUB KAB. TEGAL
4751 1100443094 JOHAR NUR AINI 11/03/1970 MOJOAGUNG 6/3 TRANGKIL KAB. PATI
4752 1100443096 SRI DARYANTI 16/08/1965 PULE RT.002 RW.04 KAB. WONOGIRI
4753 1100443098 DIAN WIDYASTUTI 27/12/1969 NGEMINGAN RT 003/001 KOTA SURAKARTA
4754 1100443099 FARICHATUR ROYYANA 22/11/1990 WOLO 02/04 KAB. GROBOGAN
4755 1100443100 SARI PURWANTI 18/11/1976 DK. PENINIS RT.005 RW.002 KAB. BREBES
4756 1100443101 SRI PRAMUJO MASKAH 05/04/1968 SEKARJALAK 03/02 MARGOYOSO KAB. PATI
4757 1100443102 NUR HIDAYAH 23/12/1965 WOLO 02/04 KAB. GROBOGAN
4758 1100443103 TRIA HERAWATI 03/07/1980 KARANGDUREN RT 02 RW 01 KAB. BOYOLALI
4759 1100443104 SULISTYOWATI SUTIKNYO RONOSUMARTO 05/09/1964 SEKARJALAK 03/02 MARGOYOSOQ KAB. PATI
4760 1100443105 AGUS SARJONO PUTRO 08/08/1959 MIJEN RT 02 RW 06 KAB. KUDUS
4761 1100443106 DINA QOYYIMA 12/02/1987 ORO ORO TENGAH RT.04 RW.04 KAB. PATI
4762 1100443109 TRI MURTINI SARMONO 07/04/1964 MIJEN RT 02 RW 06 KAB. KUDUS
4763 1100443110 NUR SAID SUYANTO 18/01/1972 SEKARJALAK 03/02 MARGOYOSO KAB. PATI
4764 1100443113 RINA HIDAYATI SUHADI HASAN 28/03/1973 SEKARJALAK 3/2 MARGOYOSO KAB. PATI
4765 1100443114 KAWANI 16/07/1974 PENTONGAN RT 06 RW 02 KAB. BOYOLALI
4766 1100443115 MUHTADI ALY TAMYIZ 24/02/1963 SRIKATON 04/03 KAYEN KAB. PATI
4767 1100443116 TRI TITIK DYAH MRANANI 15/08/1958 BUMIREJO RT.05/03 KAB. KEBUMEN
4768 1100443117 EKO BUDI SANTOSO 01/07/1993 PENTONGAN RT 06 RW 02 KAB. BOYOLALI
4769 1100443119 ZULAICHATU MUAWIYAH 04/09/1971 KACANGAN RT 13 KAB. SRAGEN
4770 1100443120 WIDODO SETYOBUDI BUSRO 12/11/1958 BUMIREJO RT.05/03 KAB. KEBUMEN
4771 1100443121 KUKUH BUDI PRASETYAWAN 23/01/1987 SIDOREJO RT. 01/06 KAB. SUKOHARJO
4772 1100443123 JUMIRIN 10/03/1964 KACANGAN RT 13 KAB. SRAGEN
4773 1100443125 PURWATI KUSMARDJANI 22/06/1971 NGIJO KULON RT 001 / RW 001 KAB. KARANGANYAR
4774 1100443126 FEBRU KRISNINDYASTUTI 20/02/1976 JATISARI INDAH B-2/5 RT.04/07 KOTA SEMARANG
4775 1100443128 SUMINTO, [Link] 01/04/1975 DUKUHSEMBUNG RT.14/03 PANGKAH KAB. TEGAL
4776 1100443130 MUSLIMIN 05/07/1960 JL. RAYA PAHONJEAN RT. 06 RW. 01 KAB. CILACAP
4777 1100443131 KASNATAN KALAM KALIMAH 16/11/1960 WINONG 10/4 PATI KAB. PATI
4778 1100443132 RETNO KRISTANTI 08/04/1971 JL. RAYA PAHONJEAN RT. 06 RW. 01 KAB. CILACAP
4779 1100443133 SAMINTEN 12/08/1962 SIDOREJO RT.01/RW.06 KAB. SUKOHARJO
4780 1100443134 MUSLIKAH SUTARWI MAEMONAH 08/05/1967 WINONG 10/4 PATI KAB. PATI
4781 1100443135 HAJID TAMAMUDDIN 26/04/1971 JATISARI INDAH B-2/5 RT.04/07 KOTA SEMARANG
4782 1100443136 SRI TUTIATI, [Link] 11/12/1968 DUKUHSEMBUNG RT.14/03 PANGKAH KAB. TEGAL
4783 1100443138 JUMINTEN 31/12/1961 NABIN BETENG 03/04 KAB. MAGELANG
4784 1100443140 MUH KHAMIM 12/10/1963 DSN. KALIKUTO KIDUL 02/01 KAB. MAGELANG
4785 1100443143 WIJAN 01/07/1958 PESANTREN RT 005/003 KAB. BANJARNEGARA
4786 1100443144 SUSYANTI 17/09/1964 DSN. KALIKUTO KIDUL 02/01 KAB. MAGELANG
4787 1100443145 RITA NUGRAHANINGSIH 12/04/1971 BINANGUN RT. 02 RW.11 KAB. KENDAL
4788 1100443150 MAHMUDI 27/12/1959 KARANGMALANG RT.02/02 KOTA SEMARANG
4789 1100443151 SOFIYATUN 16/03/1963 KARANGMALANG RT.02/02 KOTA SEMARANG
4790 1100443152 DARMADI 31/12/1958 MANGGUNG 03/04 KAB. MAGELANG
4791 1100443158 MARWIYAH 03/09/1960 MANGGUNG 03/04 KAB. MAGELANG
4792 1100443161 DWI HERNI WIBAWATI 27/11/1973 [Link] 3/18 RT.03/10 KOTA SEMARANG
4793 1100443163 AENAH 20/06/1966 PATEMON RT.01/03 KOTA SEMARANG
4794 1100443164 SUBAKIR 31/12/1958 KALIGAWE 01/02 KAB. GROBOGAN
4795 1100443165 CHASANAH 31/12/1959 TINGGARJAYA RT. 1/12 KAB. BANYUMAS
4796 1100443167 MUSMAINAH 31/12/1964 JL. PEDURUNGAN KIDUL NO. 77 RT.02/03 KOTA SEMARANG
4797 1100443174 SUDARMOKO 01/03/1973 BUKIT GADING BALARAJA K 1 NO.22 A RT.07 RW.04
KAB.
TANMAGELANG
4798 1100443179 EDI PRIYANTO 03/09/1968 SIRAU RT.1/2 KAB. BANYUMAS
4799 1100443180 SURATMAN 27/03/1965 PATEMON RT 1 RW 3 KOTA SEMARANG
4800 1100443182 NURYATI 25/02/1969 SIARU RT. 1/2 KAB. BANYUMAS
4801 1100443183 TAZKIYAH ABU JAMROH ABDURROHIM 03/04/1961 DK SUDIMORO RT.03 RW. 03 KAB. KEBUMEN
4802 1100443184 MUZAYYANAH 09/09/1969 KALICILIK RT.02/02 KAB. DEMAK
4803 1100443186 SUMIYEM 09/06/1963 KAJAR RT 02 RW 05 KAB. BOYOLALI
4804 1100443187 A. SOKHIB 05/04/1968 KALICILIK RT.02/02 NO.96 KAB. DEMAK
4805 1100443188 MUJINI, SPD 25/05/1966 JL. DUKU I NO.038 RT.05 RW.04 KOTA SURAKARTA
4806 1100443189 ALI ROSYIDI, SPD 19/12/1963 JL. DUKU NO. 38 RT.05 RW.04 KOTA SURAKARTA
4807 1100443192 SITI ROKHANAH 07/08/1963 MEWEK RT 04 RW 01 KAB. PURBALINGGA
4808 1100443193 WARSINAH 30/11/1960 KEDUNGPRING RT. 7/1 KAB. BANYUMAS
4809 1100443194 TUNGGAL 19/02/1961 MEWEK RT 04 RW 01 KAB. PURBALINGGA
4810 1100443195 KUSMINI 20/05/1963 KARANGTURI RT 01 RW 04 KAB. BOYOLALI
4811 1100443197 KASIYEM 02/02/1967 CILANGKAP RT.1/1 KAB. BANYUMAS
4812 1100443198 NUR FUAD 27/05/1972 JETIS GAYU 02/09 KAB. MAGELANG
4813 1100443199 SHOFIYAH 01/02/1966 BODAS KARANGJATI RT 01 RW 02 KAB. PURBALINGGA
4814 1100443200 UMAR TARNADI 17/08/1969 CILANGKAP RT. 1/1 KAB. BANYUMAS
4815 1100443201 MADIN 06/02/1959 PATRAN RT.01 RW.09 KAB. WONOSOBO
4816 1100443202 RENI NURHAYATI 16/05/1982 PENITEN NO. 24 RT. 01 RW. 01 KOTA MAGELANG
4817 1100443203 LASMIRAH SURO KARBIN 23/04/1959 LODAN WETAN RT 004 RW 001 SARANG KAB. REMBANG
4818 1100443204 SITI MUAWANAH NUR HASIM 10/08/1962 UJUNGBATU RT.009/004 KAB. JEPARA
4819 1100443205 SUSANTI 08/07/1968 SOPONYONO RT.03/RW.07 KAB. KENDAL
4820 1100443207 CHODIJAH ABDUL HAMID DARSO 23/05/1978 JAMBANGAN RT 007 RW 002 SARANG KAB. REMBANG
4821 1100443208 WALIYADI 09/03/1962 SOPONYONO RT.03/RW.07 KAB. KENDAL
4822 1100443209 BUDIYANTI 22/09/1959 CANDI LAMA NO.73 RT.03/10 KOTA SEMARANG
4823 1100443210 SUNAIM MA'SUM SAMID 05/10/1972 JAMBANGAN RT 007 RW 002 SARANG KAB. REMBANG
4824 1100443211 SUDARNO MUHSIN WONGSORINGAT 30/10/1958 UJUNGBATU RT.009/004 KAB. JEPARA
4825 1100443212 EMY ROSITA SARI 19/07/1978 TAMBAHARJO 05/03 PATI KAB. PATI
4826 1100443213 MUHAMMAD ASNAWI MUHAMAD ASMOIN 04/07/1971 TAMBAHARJO 05/03 PATI KAB. PATI
4827 1100443216 SITI MUSLIHAH 01/05/1970 DK. KAUMAN RT.01/RW.06 KAB. SUKOHARJO
4828 1100443218 ARMUNANTO IMAM MASHOERI 10/02/1966 KEDUNGDOWO RT.03 RW.03 KAB. KUDUS
4829 1100443221 NOVITA MURIANI SOETRISNO 17/02/1976 KEDUNGDOWO RT.03 RW.03 KAB. KUDUS
4830 1100443222 SOMLIKHA 31/12/1959 SUMBAGA RT.02/01 BUMIJAWA KAB. TEGAL
4831 1100443225 SITI NURCHAYATI A YAHYA 03/10/1963 PURI 1/1 PATI KAB. PATI
4832 1100443226 ENDAH GUNARTIYAH 11/11/1963 PLUMBUNGAN INDAH 235 RT 28/08 KAB. SRAGEN
4833 1100443227 JUARIAH SUHARTATI 14/05/1962 BANYAKAN 06/01 KAB. MAGELANG
4834 1100443228 AGUS SANTOSA 03/08/1960 BANYAKAN RT. 06/01 KAB. MAGELANG
4835 1100443231 UMI KHOLIFAH 25/02/1991 MLATEN RT.01/RW.02 KALIWUNGU KAB. KENDAL
4836 1100443232 MUKIJO 10/08/1967 NGABEHAN KAB. MAGELANG
4837 1100443233 ENDANG SULISTIYONINGSIH 24/04/1982 PERUM PURI SUKMA PANORAMA BLOK C 01 KAB. TEGAL
4838 1100443234 NURJANAH 07/05/1965 BETON KAMPUNG SEWU RT. 02 RW.01 KOTA SURAKARTA
4839 1100443235 SRI INDRIYATI 11/05/1974 NGABEHAN RTO 02/02 KAB. MAGELANG
4840 1100443237 AGUS WIJIONO 08/08/1965 BETON RT 02 RW 01 KOTA SURAKARTA
4841 1100443238 WASILAH 06/08/1957 KARANGTALUN LOR RT. 1/2 KAB. BANYUMAS
4842 1100443243 ARI KARYANI ACHMAD HAEKAH 04/05/1960 BUMIREJO 02/04 KAB. KEBUMEN
4843 1100443244 RUSMANTO 05/08/1973 LIMPUNG [Link] RT.01 RW.03 KAB. BATANG
4844 1100443247 NABGHOTIL MAR'AH 23/07/1974 LIMPUNG [Link] RT.01 RW.03 KAB. BATANG
4845 1100443248 PERTI SUKOCO 24/12/1964 MAKAM BERGOLO RT.03 RW.08 KOTA SURAKARTA
4846 1100443250 MUSYAROFAH 22/12/1963 KP. SABRANGLOR RT.04/RW.06 KAB. KENDAL
4847 1100443252 RAHMANI 05/06/1976 MAKAM BERGOLO RT.03 RW.08 KOTA SURAKARTA
4848 1100443253 SHOLICHIN 26/08/1959 KP. SABRANGLOR RT.04/RW.06 KAB. KENDAL
4849 1100443254 AHMAD MASRUKIN SUNARTO SAWAL 09/10/1975 MLATINOROWITO RT.04 RW.07 KAB. KUDUS
4850 1100443256 YETTI SURYANI 08/02/1966 SOKANANDI RT 004 RW 002 KAB. BANJARNEGARA
4851 1100443257 ANI YULIATI KUSNADI 25/07/1981 MLATI NOROWITO RT 04 RW 07 KAB. KUDUS
4852 1100443259 JOKO PRIYONO 01/10/1967 PERUM PURI PERSADA HIJAU RT. 3/6 POKOH KAB. KARANGANYAR
4853 1100443260 DIDID HANAVI 14/12/1963 SOKANANDI RT 004 RW 002 KAB. BANJARNEGARA
4854 1100443261 SRI JOKO 15/04/1961 KARANGASEM RT.03/RW.11 KAB. SUKOHARJO
4855 1100443262 TRI HASRI RAHAYU 21/02/1964 DK. KARANGASEM RT.03/RW.11 KAB. SUKOHARJO
4856 1100443263 ASTITIK 29/12/1969 PERUM PURI PERSADA HIJAU RT. 3/6 POKOH KAB. KARANGANYAR
4857 1100443265 RONDHIYAH 28/07/1967 COPRAYAN PETIR RT.01/01 COPRAYAN BUARAN KAB. PEKALONGAN
4858 1100443266 NINIK LISTYANINGSIH 06/03/1982 TANGKIL TENGAH RT 009/ RW 005, TANGKIL TENGAH,
KAB. KED
PEKALONGAN
4859 1100443267 BATIN SETIYAWAN ASHARI 11/09/1967 PRAMBATAN KIDUL 01 RW 01 KAB. KUDUS
NO NO. PORSI NAMA TANGGAL LAHIR ALAMAT KAB/KOTA KETERANGAN
4860 1100443268 SULASTRI 16/04/1962 GAPURO RT.05 RW.03 KAB. BATANG
4861 1100443270 PARDIYO 26/10/1960 DARANGAN RT 12/03 KAB. SRAGEN
4862 1100443272 SUWANTI 26/10/1973 DARANGAN RT 12/03 KAB. SRAGEN
4863 1100443274 SUTRISNO 27/01/1963 DK. TITANG RT. 02/08 KAB. SUKOHARJO
4864 1100443275 SRI HANDAYANI 03/04/1968 DK. TITANG RT. 02/08 KAB. SUKOHARJO
4865 1100443276 ALI FAIS 03/04/1964 PERUM GRIYA PRIMA BARAT 195 RT 02/19 KAB. KLATEN
4866 1100443277 MULYADI, SE 15/09/1967 NGEMPLAK REJOSARI NO. 018 RT.02 RW.13 KOTA SURAKARTA
4867 1100443280 SRI HANDAYANI [Link] 30/04/1969 NGEMPLAK REJOSARI NO.18 RT.02 RW.13 KOTA SURAKARTA
4868 1100443288 SITI AFLACHAH 15/07/1963 PERUM GRIYA PRIMA BARAT 195 RT 02/19 KAB. KLATEN
4869 1100443289 DYAH IKA KUSUMAWATI 10/04/1976 JL. DR SUHARSO 9A RT.02 RW.03 KOTA SURAKARTA
4870 1100443290 TITIK SUPAMI 15/09/1968 PENGKOL RT.01/RW.01 KAB. SUKOHARJO
4871 1100443292 MAWARDI 10/03/1959 LIMBANGAN RT. 05/01 LOSARI KAB. BREBES
4872 1100443293 BEJA WIYANA 12/08/1961 PENGKOL RT.01/RW.01 KAB. SUKOHARJO
4873 1100443294 SUTARDI 13/02/1959 LOJIREJO RT.05 RW.20 KAB. MAGELANG
4874 1100443298 NURJANAH 04/04/1977 KALIBUNTU RT.001/004 KALIBUNTU LOSARI KAB. BREBES
4875 1100443299 SITI HIDAYATI 10/11/1960 BOJONG RT 03 RW 05 KAB. PURBALINGGA
4876 1100443301 PURWANTO 01/11/1964 MLATEN RT.01/RW.02 KAB. KENDAL
4877 1100443302 JOKO UTOMO 15/08/1962 DK. KUTA WULUH RT.04 RW.01 KAB. WONOSOBO
4878 1100443303 MISBAKHUS SUDUR 06/04/1966 SIDOREJO RT.05/03 KAB. DEMAK
4879 1100443304 ENDANG APRIYANTI HADISUGIYARTO 06/04/1958 JL SUROPATI III NO.26 RT 04 RW 05 KOTA SALATIGA
4880 1100443305 SITI CHALIMAH 15/06/1974 SIDOREJO RT.05/03 KAB. DEMAK
4881 1100443306 UMI SETYANINGSIH 26/05/1966 KUTAWULUH RT 04 RW 01 KAB. WONOSOBO
4882 1100443307 ADJI PURNAWAN 01/01/1973 KRAPYAK TIMUR RT.02/11 KAB. DEMAK
4883 1100443308 SUGIYATI 22/02/1976 PADANG 04/02 KAB. GROBOGAN
4884 1100443309 KUSMIYATI 01/03/1972 KRAPYAK TIMUR RT.02/11 KAB. DEMAK
4885 1100443310 DARMONO 31/12/1965 PADANG 04/02 KAB. GROBOGAN
4886 1100443311 SUWARYO 20/06/1967 PAMULIHAN RT. 09/01 LARANGAN KAB. BREBES
4887 1100443312 SUKESIH 02/01/1972 PAMULIHAN NO.02 RT.09/01 LARANGAN KAB. BREBES
4888 1100443313 MUSLICHA 15/07/1970 HARJOSARI LOR RT.17/04 ADIWERNA KAB. TEGAL
4889 1100443314 ENDANG KRISWININGSIH 14/12/1962 PASIR KIDUL RT. 4/4 KAB. BANYUMAS
4890 1100443315 YUNARTO KUNTO WIBOWO 26/06/1959 PURI 1/1 PATI KAB. PATI
4891 1100443316 KATMO 05/08/1964 HARJOSARI LOR RT.17/04 ADIWERNA KAB. TEGAL
4892 1100443317 NGASIMAN 02/10/1967 KARANGSONO RT.10/02 KAB. DEMAK
4893 1100443319 NGATEMAH 20/01/1968 TEGALARUM RT.01/04 KAB. DEMAK
4894 1100443321 SULIYEM 15/02/1967 KARANGSONO RT.10/02 KAB. DEMAK
4895 1100443323 MISWANDI 24/02/1962 BANARAN, RT.06/RW.02 KAB. TEMANGGUNG
4896 1100443324 KRISTIANTO 25/12/1973 KARANGDUREN RT 002 RW 01 KAB. BOYOLALI
4897 1100443326 NADIROH 24/06/1966 KEBANDINGAN RT.18/05 KEDUNGBANTENG KAB. TEGAL
4898 1100443327 DRS. DJATMIKO 12/02/1965 LUGOSOBO RT 02/02 KAB. PURWOREJO
4899 1100443328 RUKISTI PURWORINI 23/08/1960 PILANG KIDUL 01/05 KAB. GROBOGAN
4900 1100443330 DATO 06/07/1964 KEBANDINGAN RT.18/05 KEDUNGBANTENG KAB. TEGAL
4901 1100443331 ST. JUWARIYAH MARWAN EDRIS 31/12/1958 JURANG RT 02 RW 06 KAB. KUDUS
4902 1100443332 FAIDIYAH, SE 08/08/1978 PURWODADI RT 02/01 KAB. PURWOREJO
4903 1100443335 MOCHAMAD CHARIS 21/07/1969 SLAWI WETAN RT. 16/06 SLAWI KAB. TEGAL
4904 1100443337 SITI AMINAH, [Link] 19/06/1970 LUGOSOBO RT. 02/02 GEBANG KAB. PURWOREJO
4905 1100443339 YUNI KURNIAWATI 01/06/1977 SLAWI WETAN RT. 16/06 SLAWI KAB. TEGAL
4906 1100443340 WIJAYANTI 24/09/1966 GRINGSING RT.01 RW.02 KAB. BATANG
4907 1100443342 MASCHUN ASIH KUNCORO 14/04/1971 MAJASEM RT.10/RW.01 KAB. KENDAL
4908 1100443343 BONARI 25/04/1965 GRINGSING RT.01 RW.02 KAB. BATANG
4909 1100443344 UMALAH 12/12/1960 MAJASEM RT.02/RW.01 KAB. KENDAL
4910 1100443348 YUSUP 28/11/1965 JAGAPURA RT 006 / RW 002 KAB. BREBES
4911 1100443349 WISMI 03/12/1958 DESA TANJUNGSARI RT.04/RW.05 KAB. KENDAL
4912 1100443350 ENDANG PURWANINGSIH 04/04/1968 [Link] TENGAH RT.08/10 KOTA SEMARANG
4913 1100443351 ZAKIYAH 05/02/1960 SINDON 01/04 KAB. MAGELANG
4914 1100443353 NUR PRAPTO AHMAD SUNGEDI 17/12/1965 HADIPOLO RT.02 RW.05 KAB. KUDUS
4915 1100443354 SINEM 31/12/1957 DK. BOTO RT.01/RW.09 KAB. SUKOHARJO
4916 1100443357 BAEROTUN SUWARDI SARIYO 01/11/1970 HADIPOLO RT.02 RW.05 KAB. KUDUS
4917 1100443363 SITI ROCHMI 03/05/1971 PENUNGKULAN RT 01/04 KAB. PURWOREJO
4918 1100443365 ELING TRISNANINGSIH 26/10/1977 MAJASEM RT.01/RW.01 KAB. KENDAL
4919 1100443366 SARJIYO 05/12/1972 PENUNGKULAN RT. 01/04 GEBANG KAB. PURWOREJO
4920 1100443367 SUMINEM 17/04/1963 JL. YOSODIPURO NO. 82 RT.01 RW,12 KOTA SURAKARTA
4921 1100443370 DARU SULISTYARINI 25/03/1972 SIDOMULYO 01/07 KAB. KLATEN
4922 1100443372 PURWANTO AGUS RAHARJO 25/06/1965 SIDOMULYO 01/07 KAB. KLATEN
4923 1100443373 RESTI WATIANINGSIH 19/07/1972 KALIKABONG RT 03 RW 01 KAB. PURBALINGGA
4924 1100443374 SUHARTININGSIH 23/07/1963 SUMBER RT.04/RW.01 KAB. KENDAL
4925 1100443375 ATIK HERAWATI AGUSTINA 17/08/1959 JL. LANDAK NO. 259 / 160 RT. 01 RW. 03 KAB. CILACAP
4926 1100443377 BAHTIAR EFENDHY 17/10/1978 JL. KEBON PISANG NO. 08 RT. 04 RW. 05 KAB. CILACAP
4927 1100443378 WAHYU NUR ARDIANTO 29/07/1988 PEDES RT 004 / RW 000 KAB. KENDAL
4928 1100443379 ALI MU'MIN SUKUR SANG KARJA 15/05/1968 KALIBAGOR RT.02/01 KAB. KEBUMEN
4929 1100443381 ISTI BADINGATUL KHOERIAH 11/09/1966 BAJONG RT 03 RW 03 KAB. PURBALINGGA
4930 1100443383 BAYU PRAMONO PUTRO 04/10/1983 WIRENGGANAN RT.01/08 KAB. SUKOHARJO
4931 1100443385 UMI MUTIAH BAROROH 09/05/1969 [Link] RT.05/RW.06 BUMIAYU KAB. BREBES
4932 1100443387 SUTARJO 04/05/1966 [Link] RT.05/RW.06 BUMIAYU KAB. BREBES
4933 1100443388 SURTIYEM 13/03/1962 [Link] RT.06/RW.05 BUMIAYU KAB. BREBES
4934 1100443389 ROJILIN SALEH GHOZALI 14/06/1959 MANGLI RT.02/01 KAB. KEBUMEN
4935 1100443390 SUPADIYO 09/03/1960 [Link] RT.06/RW.05 BUMIAYU KAB. BREBES
4936 1100443391 DWI HARTANTO 03/03/1985 GRAULAN RT 002 / RW 001 KAB. PURWOREJO
4937 1100443392 SUPARMI 24/01/1958 WIRENGGANAN RT.01/08 KAB. SUKOHARJO
4938 1100443393 SUPRIYATI 24/12/1960 KATERBAN RT 02/01 KAB. PURWOREJO
4939 1100443394 MANGIYAH MUJAHID SANADI 19/05/1966 MANGLI RT. 02. 01 KAB. KEBUMEN
4940 1100443395 TUTI NUR CHAYATI MUSLICHIN 01/07/1973 KALIBAGOR RT. 02. 01 KAB. KEBUMEN
4941 1100443397 YULI LISTYANTO 24/07/1968 MONTONG TAMBAK RT.01/RW.03 KAB. KENDAL
4942 1100443398 MOCHAMAD MASTIN 25/02/1977 KALIBAGOR RT.03/01 KALIBAGOR KAB. KEBUMEN
4943 1100443400 NUNIEK MUSTIKANINGTYAS RUNTUWENI 27/01/1980 MONTONG TAMBAK RT.01/RW.03 KAB. KENDAL
4944 1100443403 DYAH WIDIASTUTI 08/05/1981 KUTABANJARNEGARA RT 006 RW 005 KAB. BANJARNEGARA
4945 1100443405 IMAM SUPENO 01/01/1959 BADAKARYA RT 001 RW 004 KAB. BANJARNEGARA
4946 1100443406 YUSMAN 08/10/1978 KUTABANJARNEGARA RT 006 RW 005 KAB. BANJARNEGARA
4947 1100443407 DARSINAH MARDAN ABULIAS 26/07/1972 KALIBAGOR RT. 03. 01 KAB. KEBUMEN
4948 1100443408 MUKLIYAH 31/08/1959 KAJORAN RT 23 RW 06 KAB. WONOSOBO
4949 1100443409 RONY ASMORO 19/02/1980 GOMBEL PERMAI VII/542 RT.07/07 KOTA SEMARANG
4950 1100443410 ROMLAN SAMINGUN KRAYA TARJA 17/12/1969 KALIBAGOR RT. 03. 01 KAB. KEBUMEN
4951 1100443413 LUKY RACHMAWATI 21/02/1980 GOMBEL PERMAI VII/542 RT.07/07 KOTA SEMARANG
4952 1100443414 SUTI'AH 19/05/1965 GENUKSARI RT.01/02 KOTA SEMARANG
4953 1100443419 MASNGUD 02/03/1959 LAREN RT.03/05 BUMIAYU KAB. BREBES
4954 1100443421 HERU SUNARDI [Link] 22/05/1964 JL. SUMBING UTARA I RT.01 RW.10 KOTA SURAKARTA
4955 1100443423 ELFI DWI ADRIJANI 24/05/1965 JL SUMBING UTARA I RT.01 RW.10 KOTA SURAKARTA
4956 1100443424 SRI UTAMI 29/12/1962 LAREN RT.03/05 BUMIAYU KAB. BREBES
4957 1100443426 SUGITO SUPADI ALIMAH 12/02/1958 PEKALONGAN 6/2 WINONG KAB. PATI
4958 1100443427 MISKAN 05/08/1958 WARINGINREJO RT.08/RW.19 KAB. SUKOHARJO
4959 1100443428 SITI INDASAH BASRIN 06/07/1967 PEKALONGAN 6/2 WINONG KAB. PATI
4960 1100443429 SULASTRI 03/03/1958 JOLONTORO RT 05 RW 04 KAB. WONOSOBO
4961 1100443433 KARTINI 21/04/1961 WARINGINREJO RT.08/19 KAB. SUKOHARJO
4962 1100443434 OJAH FAOZAH, DRA 03/05/1965 PALM ASRI I C.5/24 RT.03/05 PEDAGANGAN KAB. TEGAL
4963 1100443435 SARNO, DRS 25/11/1964 DAWUNG TENGAH RT.05 RW.15 KOTA SURAKARTA
4964 1100443436 ANITA AGUSTINA EKOWATI 19/08/1985 KARANGANYAR 02/02 KAB. KLATEN
4965 1100443437 HAYATI SRI MUMPUNI, DRA 01/07/1969 DAWUNG TENGAH RT.05 RW.15 KOTA SURAKARTA
4966 1100443438 PANDI 30/11/1979 KARANGANYAR 02/02 KAB. KLATEN
4967 1100443439 MUGIYATMI 17/01/1971 SIDOLUHUR XVII/21 RT.06/06 KOTA SEMARANG
4968 1100443442 MULYONO 07/05/1966 SIDOLUHUR XVII/21 RT.06/06 KOTA SEMARANG
4969 1100443446 UMI PUSPITANINGRUM 11/07/1973 TAMPOMAS SELATAN III/25 KOTA SEMARANG
4970 1100443448 MUCHAMAD YASYKUR. MS 02/04/1970 JL. WR. SUPRATMAN GG. 7 NO.13 RW. 4 KOTA PEKALONGAN
4971 1100443449 ROHMIATI 30/07/1967 TAMANSARI RT.01/01 KAB. DEMAK
4972 1100443452 SITI NUR FAJRIYAH 18/08/1971 SENTUL DESA SUKOREJO RT.05 RW.09 KAB. KENDAL
4973 1100443453 KASNO 28/05/1972 KUJON RT.01/06 KAB. SUKOHARJO
4974 1100443456 SUPRAPTI 22/03/1978 JL. REKSADIWIRYA NO.10 RT.04 RW.16 KAB. BANYUMAS
4975 1100443457 RENI PUJIHASTUTI 09/04/1977 KUJON RT. 01/06 KAB. SUKOHARJO
4976 1100443458 ABDUL KHOLIQ DAHLAN ASMO 05/04/1963 PELEMKEREP 01/02 KAB. JEPARA
4977 1100443460 MUSTAKIM 20/06/1971 SENTUL DESA SUKOREJO RT.05 RW.09 KAB. KENDAL
4978 1100443462 RINI PUJIASTUTI 10/09/1965 SENGON NO.45 RT.07/03 TANJUNG KAB. BREBES
4979 1100443463 SITI INDAMAH IMAM NASIRIN 07/05/1967 PELEMKEREP RT 01/RW 02 KAB. JEPARA
4980 1100443465 AGUS SIGIT,IR 23/08/1962 TAMPOMAS SELATAN III/25 RT.06/01 KOTA SEMARANG
4981 1100443466 KAWITONO 20/11/1969 SENGON NO. 45 RT. 07/03 TANJUNG KAB. BREBES
4982 1100443467 RESTU SUMBARWATI DWI ASTUTI, [Link] 01/06/1961 JL. CISANGGARUNG NO.11 RT.02/04 BREBES KAB. BREBES
4983 1100443468 MUHAMMAD NASIR 20/07/1979 DEMPET RT.01/07 KAB. DEMAK
4984 1100443470 UMI KULSUM 20/12/1979 DEMPET RT.01/07 KAB. DEMAK
4985 1100443471 NOVITA RISTIANTI 05/11/1979 JL. PISANG NO. 54 RT. 08/05 KOTA TEGAL
4986 1100443472 BUDI SANTOSO 19/05/1973 JL. PISANG NO. 54 RT. 08/05 KOTA TEGAL
4987 1100443473 KH. LABIB SHODIQ SUKHAEMI 10/11/1961 BENDA I RT.01/03 SIRAMPOG KAB. BREBES
NO NO. PORSI NAMA TANGGAL LAHIR ALAMAT KAB/KOTA KETERANGAN
4988 1100443475 ZUBAIDI 11/09/1962 TAMANSARI RT.01/01 KAB. DEMAK
4989 1100443479 SUBANDI 01/01/1961 GONDANG RT.03/RW.01 KAB. KENDAL
4990 1100443480 KUSTIAH 05/01/1967 BONANGREJO RT.02/01 KAB. DEMAK
4991 1100443481 SUGIYARTO 10/10/1958 JL. KAUMAN RT.05/03 KAB. DEMAK
4992 1100443482 RUKIBAH 31/10/1970 DUSUN KALIKIDANG RT.02/RW.06 KAB. KENDAL
4993 1100443483 SITI MUKAROMAH 13/06/1962 JL. KAUMAN RT.05/03 KAB. DEMAK
4994 1100443484 KASIYATI 02/10/1975 PEDURUNGAN LOR RT.07/03 KOTA SEMARANG
4995 1100443485 TOTO TEDJONDARU 30/12/1960 NGAWEN RT.01 RW.03 KAB. WONOSOBO
4996 1100443486 SAPTIASIH WIDADRI 03/04/1961 [Link] INDAH II NO.26 RT.04/08 GENUK KAB. SEMARANG
4997 1100443487 JUMALI 17/09/1967 PEDURUINGAN LOR RT.07/03 KOTA SEMARANG
4998 1100443491 MIFTAHUL PAWIT 28/08/1967 KALIANGET RT.05 RW.02 KAB. WONOSOBO
4999 1100443492 SRI SUKARYATI 26/06/1971 DUSUN GOWOK RT.02/RW.04 KAB. KENDAL
5000 1100443494 ALFIYAH 03/12/1966 SOJOMERTO KIDUL 03/01 KAB. MAGELANG
5001 1100443496 MULYONO 15/05/1968 DUSUN GOWOK RT.02/RW.04 KAB. KENDAL
5002 1100443500 NOIDATI 10/04/1961 GONDANG RT.03/RW.01 KAB. KENDAL
5003 1100443501 SITI ISTINGANAH 05/08/1967 NGAWEN RT 01 RW 03 KAB. WONOSOBO
5004 1100443503 PUNJUL SARYANTO 14/04/1960 TIMBANG RT 03 RW 02 KAB. WONOSOBO
5005 1100443504 KOINAH 02/03/1966 TIMBANG RT 03 RW 02 KAB. WONOSOBO
5006 1100443505 ISTIYANI 24/06/1960 KETANDAN 09/05 KAB. KLATEN
5007 1100443507 DIANA MEINARYANTI 19/05/1975 LEMPONGSARI 1/447 RT.01/03 KOTA SEMARANG
5008 1100443508 BISEM 18/08/1961 BELATER RT.12 RW.03 KAB. WONOSOBO
5009 1100443509 LANJAR UTOMO 27/11/1959 [Link] RT.05/03 BOJONG MINGGIR KAB. PEKALONGAN
5010 1100443510 ANDRI REDJEKI 19/07/1974 [Link] IJEN NO.20 RT.12/11 KOTA SEMARANG
5011 1100443512 M ROZIANTO 18/08/1959 JL. MATOA RT.13 MIMIKA BARU KAB. GROBOGAN
5012 1100443513 AKHMAD SOBARI 07/12/1976 LEMPONGSARI 1/447 KOTA SEMARANG
5013 1100443514 SUPARTIN 05/11/1965 [Link] RT.05/03 BOJONG MINGGIR KAB. PEKALONGAN
5014 1100443515 MENEP SUYATI 05/06/1978 TEMPEL SARI RT 04 RW 02 KAB. WONOSOBO
5015 1100443516 SUKIRNO 01/06/1962 KETANDAN 09/05 KAB. KLATEN
5016 1100443517 SUDAR 19/07/1968 TEMPELSARI RT 04 RW 02 KAB. WONOSOBO
5017 1100443518 ESTI WURIYANTINI 06/04/1973 REJASA RT 001 RW 004 KAB. BANJARNEGARA
5018 1100443520 SUWARSI 29/05/1971 BADAKARYA RT 001 RW 004 KAB. BANJARNEGARA
5019 1100443521 SUNARTO. S. AG. 21/01/1967 SUMURPANGGANG RT. 05/01 KOTA TEGAL
5020 1100443522 LUMAUR RIDLO 29/04/1980 JL KEBONJERUK RT 01 RW 04 KAB. CILACAP
5021 1100443523 NUR MUZAROAH 27/07/1963 KERTOMULYO RT.01/RW.05 KAB. KENDAL
5022 1100443525 NURHADI, SH 20/07/1961 POKOH RT. 03 RW. 06 KAB. KARANGANYAR
5023 1100443526 MANAROTUL BAIDO 23/03/1980 JL. KEBON JERUK RT. 01 RW. 04 KAB. CILACAP
5024 1100443527 FATMA KURNIAWATI 06/10/1974 SUMURPANGGANG RT. 05/01 KOTA TEGAL
5025 1100443529 SITI FATONAH 17/03/1968 POKOH RT. 03 RW. 06 KAB. KARANGANYAR
5026 1100443530 CIPTANING 29/10/1961 JL. BHAYANGKARA NO. 45 RT 04 RW 11 KAB. WONOSOBO
5027 1100443533 AZMINAH, DRA 20/07/1963 PRM BUKIT PANJANGAN ASRI G 6-7 RT 1/8 KOTA SEMARANG
5028 1100443534 SITI AISAH HARJO KUSNIN 03/09/1967 BULUNGKULON RT.06 RW.05 KAB. KUDUS
5029 1100443535 HARTINI 10/12/1960 SUKOHARJO RT 04 RW 06 KAB. BOYOLALI
5030 1100443536 AMINATUN 10/06/1977 JL. JOKOTINGKIR RT. 3 RW. 3 KOTA PEKALONGAN
5031 1100443537 GUNUNG KOESYAMIN 23/01/1960 JL. BAYANGKARA NO. 45 RT.04 RW.11 KAB. WONOSOBO
5032 1100443539 RAHMAT 07/10/1974 JL. JOKOTINGKIR RT. 3 RW. 3 KOTA PEKALONGAN
5033 1100443540 SAPTA NUGRAHA 14/11/1964 MULYOSARI RT 01 RW 11 KAB. WONOSOBO
5034 1100443543 TRI INDRIYANI 14/07/1968 MULYOSARI NO 23 RT 01 RW 11 KAB. WONOSOBO
5035 1100443545 ESTI MULYANTO 29/09/1963 CENTRAL KALIANGET TR.03 RW.10 KAB. WONOSOBO
5036 1100443547 RUDIN 12/12/1976 KLUWUT RT.05/07 BULAKAMBA KAB. BREBES
5037 1100443548 SUHARTI 15/08/1981 KLUWUT RT.05/07 BULAKAMBA KAB. BREBES
5038 1100443549 SRI SULISTYANINGSIH, DRA. 31/08/1965 JL. DIENG 75 RT 03 RW 10 KAB. WONOSOBO
5039 1100443550 NURSIN 28/06/1980 KLUWUT RT.04/06 BULAKAMBA KAB. BREBES
5040 1100443551 KHOTIMAH 18/07/1983 KLUWUT RT.04/06 BULAKAMBA KAB. BREBES
5041 1100443552 MUQOFA 11/11/1963 REJASA RT 001 RW 004 KAB. BANJARNEGARA
5042 1100443553 SURATI 05/05/1958 BATUR AGUNG 04/01 KAB. GROBOGAN
5043 1100443555 SLAMET SUROSO 03/02/1968 MADUSARI RT 04 RW 05 KAB. WONOSOBO
5044 1100443556 KUNI MUSTAFIDAH 01/06/1961 REKESAN SUGIHAN RT.022 RW.05 KAB. SEMARANG
5045 1100443563 ISROTUN NASIAH 11/01/1968 MOJO RT.01/RW.07 KAB. KENDAL
5046 1100443564 KASUDI 19/06/1958 MOJO RT.01 RW.07 KAB. KENDAL
5047 1100443565 MAR'ATUN PARDAM SITI WASILAH 09/07/1968 SOKOPULUHAN 3/1 PUCAKWANGI KAB. PATI
5048 1100443566 DARI GIYARTI, SPD 06/07/1964 KENER RT.02 RW.01 KAB. SEMARANG
5049 1100443568 SURAT TAMSIR TAMINAH 10/12/1961 SOKOPULUHAN 3/1 PUCAKWANGI KAB. PATI
5050 1100443570 PRIHATIN WAHYUNINGSIH 02/03/1979 GUBUG 01/06 KAB. GROBOGAN
5051 1100443571 SITI NURUL HIDAYAH 13/05/1976 SALAKAN 02/01 KAB. MAGELANG
5052 1100443572 ANNISA SAFIA SHANI 04/06/1995 GENUKSARI RT.03/09 KOTA SEMARANG
5053 1100443573 BUSIRI 04/07/1967 JL. A. YANI 01/06 KAB. GROBOGAN
5054 1100443574 SISTINAH 15/01/1966 GENUKSARI RT.03/09 KOTA SEMARANG
5055 1100443575 BUDI RIBOWO 16/12/1979 PILANGKIDUL 01/05 KAB. GROBOGAN
5056 1100443576 AJI NUGROHO HARTANTO 07/03/1982 SALAKAN RT.02 RW.01 KAB. MAGELANG
5057 1100443577 AKHMAD YAZID NUHHADI 01/06/1966 BAWU RT.021/004 KAB. JEPARA
5058 1100443578 ELIA HIKMAH 07/07/1988 PILANG KIDUL 01/05 KAB. GROBOGAN
5059 1100443579 MUJIYATI SAMIDJO CIPTO 17/05/1974 BAWU RT.021/004 KAB. JEPARA
5060 1100443580 WAHYU SANTOSO 06/04/1987 TINANDING 01/02 KAB. GROBOGAN
5061 1100443581 ALIFAH HANIM SIRRI MUHANNAH 04/06/1989 PILANGKIDUL 01/05 KAB. GROBOGAN
5062 1100443587 SUPRAPTI 21/11/1958 GEDANGAN RT. 01 RW. 04 KAB. KARANGANYAR
5063 1100443589 SUDIR 20/08/1957 GEDANGAN RT. 01 RW. 04 KAB. KARANGANYAR
5064 1100443593 TIROKHA 24/02/1965 PURBASANA RT.04/01 TARUB KAB. TEGAL
5065 1100443594 ZILDA YATUN NISA 29/09/2001 PURBASANA RT.04/01 TARUB KAB. TEGAL
5066 1100443596 RUDI WIDODO 03/10/1980 KETITANG 04/02 KAB. GROBOGAN
5067 1100443597 TOATI 12/09/1962 PURBASANA RT.02/01 TARUB KAB. TEGAL
5068 1100443598 MAEMUNATUN 01/12/1957 DSN RUKEM PAMUTIH RT. 03 RW. 06 KAB. PEMALANG
5069 1100443599 KASMARI 29/11/1959 PURBASANA RT.02/01 TARUB KAB. TEGAL
5070 1100443601 SURATMI 31/12/1965 BULAK RT. 02/08 KAB. SUKOHARJO
5071 1100443602 SITI MUAWANAH 17/05/1985 KETITANG 04/02 KAB. GROBOGAN
5072 1100443604 KANTI LISTYOWATI 09/09/1965 MLATI 02/01 KAB. GROBOGAN
5073 1100443608 TASMIYATI MARTIN KASAN 01/10/1979 MANTINGAN 25/07 KAB. JEPARA
5074 1100443609 MUHAMMAD ARIF JAWAHIR 07/08/1977 MANTINGAN 25/07 KAB. JEPARA
5075 1100443611 MASRUAH MASNURI KASRAN 31/12/1968 RAGUKLAMPITAN 07/02 KAB. JEPARA
5076 1100443615 SITI ZUBAIDAH 08/12/1985 REJOSARI 02/02 KAB. GROBOGAN
5077 1100443616 SUTONO JOYO PAWIRO 20/09/1964 BANGSRI 01/07 KAB. JEPARA
5078 1100443617 MOHAMAD BUSTOFA IMRON 02/12/1976 REJOSARI 01/02 KAB. GROBOGAN
5079 1100443618 SUNARTI SUKIRMAN IBRAHIM 07/09/1967 BANGSRI 01/07 KAB. JEPARA
5080 1100443620 SRI HAYATI RAMIJAN 06/03/1962 MOROREJO 01/01 KAB. JEPARA
5081 1100443621 MASRUROH 04/04/1968 NGEPOS 02/08 KAB. MAGELANG
5082 1100443622 SAMSUDIN 14/05/1977 REJOSARI 02/02 KAB. GROBOGAN
5083 1100443624 INDRASWARI ISMUNANDAR 11/08/1970 GG KANTIL I / 359 RT 01 RW 08 KOTA MAGELANG
5084 1100443627 ROHMADIN 10/04/1964 NGEPOS 02/08 KAB. MAGELANG
5085 1100443629 FITRIYATI 20/12/1968 NGROBEH 02/04 KAB. MAGELANG
5086 1100443630 CUT NURMALA TISNA 05/03/1976 TINANDING 01/02 KAB. GROBOGAN
5087 1100443631 SITI FATHONAH MASHURI 05/11/1965 KUTOHARJO 05/03 PATI KAB. PATI
5088 1100443632 NURUL HASANAH 13/10/1971 KAUMAN LOR RT.01 RW.01 KAB. SEMARANG
5089 1100443633 KHOLIQIN 01/10/1965 NGROMBEH RT.02 RW.04 KAB. MAGELANG
5090 1100443634 SUHARTI SISWANDI SAMIREJA 16/12/1977 KARANGDUWUR RT. 02. 03 KAB. KEBUMEN
5091 1100443637 BUDI PRASETYO 25/06/1971 KAUMAN LOR RT.01 RW.01 KAB. SEMARANG
5092 1100443638 NUR KAMALI 09/04/1966 REJOSARI 02/02 KAB. GROBOGAN
5093 1100443643 SRIYATI 28/04/1973 REJOSARI 02/02 KAB. GROBOGAN
5094 1100443647 SUGIARTO TAMDJIS DONO SASMITO 10/04/1964 KUTOHARJO 5/3 PATI KAB. PATI
5095 1100443648 SULISTYANINGSIH 13/12/1961 SINARASIH I/965A RT.06/08 KOTA SEMARANG
5096 1100443649 ASRORI 05/01/1965 PILANG KIDUL 02/05 KAB. GROBOGAN
5097 1100443650 ISTI SOLICHAH MASKURI 11/02/1975 JEKULO RT.05 RW.04 KAB. KUDUS
5098 1100443651 MARKAMAH 23/03/1967 DERSO 01/01 KAB. MAGELANG
5099 1100443653 NURHAYATI 10/09/1974 PERUMNAS CIGEDOG RT. 05/02 KERSANA KAB. BREBES
5100 1100443654 NANANG SUPRAPTO 06/07/1961 [Link] ASIH I/965-A RT.06/08 KOTA SEMARANG
5101 1100443659 ANWAR SENOAJI 04/05/1969 BULUSARI RT. 05/01 NO.02 BULAKAMBA KAB. BREBES
5102 1100443661 DIAH WIDIASTUTI 24/10/1973 BULUSARI RT.05/01 NO.02 BULAKAMBA KAB. BREBES
5103 1100443662 MARNO 23/04/1964 REJOSARI 01/02 KAB. GROBOGAN
5104 1100443663 MAR SAID SULIKIN KERTO JOYO 05/04/1969 JEKULO RT.05 RW.04 KAB. KUDUS
5105 1100443664 MARKHIATUN 04/03/1960 KARANGREJO RT.05/02 KAB. DEMAK
5106 1100443665 SURTINAH 02/03/1960 DSN AWILUAR RT. 06 RW. 02 KAB. CILACAP
5107 1100443670 NIKHLATUN NAFIAH 10/01/1976 PILANG KIDUL 02/05 KAB. GROBOGAN
5108 1100443671 SRI SUHANI 31/12/1957 BANARAN RT 21 KAB. SRAGEN
5109 1100443672 PAIMIN 20/08/1957 KLEMPUNG RT. 03 RW. 02 KAB. WONOGIRI
5110 1100443673 ISTIQOMAH 02/01/1974 REJOSARI 01/02 KAB. GROBOGAN
5111 1100443674 PALUPI SOEBASIR 09/06/1978 JL. SUYUDONO NO. 41 RT.01/02 KOTA SEMARANG
5112 1100443675 MUKADI BANY DHARMA SE 03/03/1960 MARGOASRI RT 27/08 KAB. SRAGEN
5113 1100443677 SISWOYO 01/10/1984 REJOSARI 01/02 KAB. GROBOGAN
5114 1100443678 ISMI PUJITANTI 25/05/1962 MARGOASRI RT 27/08 KAB. SRAGEN
5115 1100443679 SRI KHAYATI ROBANGI 12/07/1978 PETANAHAN RT. 01. 01 KAB. KEBUMEN
NO NO. PORSI NAMA TANGGAL LAHIR ALAMAT KAB/KOTA KETERANGAN
5116 1100443681 GIYEM 31/12/1957 PENGKO RT 17/05 KAB. SRAGEN
5117 1100443684 SRI DARYANTI, [Link] 12/01/1966 JL. WIJAYA KUSUMA 12 NO.38 RT.03/05 KAB. TEGAL
5118 1100443685 SUGENG CIPTADI, DRS 25/07/1962 JL. WIJAYA KUSUMA 12 NO.38 RT.03/05 KAB. TEGAL
5119 1100443686 AGUNG DWI YUDHO NUGROHO 04/02/1980 DOMAS RT. 02 RW. 01 KAB. KARANGANYAR
5120 1100443688 YATUN KASANAH 14/04/1983 DOMAS RT. 02 RW. 01 KAB. KARANGANYAR
5121 1100443692 SALMINI 18/06/1962 KWARAKAN, RT.05/RW.03 KAB. TEMANGGUNG
5122 1100443693 RIZATUN NASIKAH 19/06/1980 KARANGASEM RT 03 RW 04 KAB. DEMAK
5123 1100443697 ANA AMELIA ST 28/11/1988 KUYANG RT04 KAB. SRAGEN
5124 1100443698 SUPRIYADI 19/03/1976 KARANGASEM RT 03 RW 04 KAB. DEMAK
5125 1100443700 ANDUNG PURNOMO 26/08/1980 KISMOREJO RT 01 RW 010 KOTA SURAKARTA
5126 1100443701 SARINAH 22/07/1957 TEGALSARI RT.03 RW.02 KOTA SURAKARTA
5127 1100443702 LINA PURNOMO 01/06/1979 TEGAL ASRI RT 05 RW 22 KOTA SURAKARTA
5128 1100443705 MASYRIDATUN NAFIAH 16/01/1975 WONOREJO RT 07 RW 02 KAB. DEMAK
5129 1100443706 RUMINTO 17/05/1966 JL. BRANTAS RT. 01 RW. 04 KAB. CILACAP
5130 1100443708 ARI BOWO LEKSONO 30/07/1976 TEGAL ASRI RT 05 RW 22 KOTA SURAKARTA
5131 1100443709 ASIH SULISTIOWATI 09/04/1978 JL. BRANTAS RT. 01 RW. 04 KAB. CILACAP
5132 1100443710 WIDI HARSIWI 11/11/1960 JL. BABAKAN RT. 13 RW. 03 KAB. CILACAP
5133 1100443712 NIDA WIDIANI 26/06/1982 DESA JEPARA KULON RT 013 / RW 003 KAB. CILACAP
5134 1100443715 AHMAD RONJI ZEIN 12/05/1967 WONOREJO RT 07 RW 02 KAB. DEMAK
5135 1100443716 SENTOT JAWOTO 16/11/1958 MALANGREJO RT 01/02 KAB. PURWOREJO
5136 1100443717 SITI MAESAROH 15/09/1977 TOSARI RT.01 RW.02 KAB. KENDAL
5137 1100443718 YATI 03/05/1973 SIGEDONG RT.04/02 BUMIJAWA KAB. TEGAL
5138 1100443719 MOKHAMAD YAMIN 11/12/1960 SELOREJO TIMUR II/09 RT.06/01 KOTA SEMARANG
5139 1100443720 ARIS SUWONDO 10/07/1975 TOSARI RT.01 RW.02 KAB. KENDAL
5140 1100443722 SAHIDIN 01/07/1967 SIGEDONG RT.04/02 BUMIJAWA KAB. TEGAL
5141 1100443723 RR TRIWIK WULANJARI SS 05/01/1969 SELOREJO TIMUR II/9 RT.06/01 KOTA SEMARANG
5142 1100443724 SETYASTUTI 20/07/1960 MALANGREJO RT 01/02 KAB. PURWOREJO
5143 1100443726 BAROKAH 05/01/1966 GUMAYUN RT.09/03 DUKUHWARU KAB. TEGAL
5144 1100443727 SRI LESTARI 12/12/1977 SAYORAN RT. 01 RW. 04 KAB. KARANGANYAR
5145 1100443728 SALAMUN 03/01/1970 SAYORAN RT.01 RW.04 KAB. KARANGANYAR
5146 1100443732 SUPENO 16/01/1964 GUMAYUN RT.09/03 DUKUHWARU KAB. TEGAL
5147 1100443735 ENI YULIWINARTI 07/07/1959 KERTAYASA RT 005 RW 004 KAB. BANJARNEGARA
5148 1100443737 SUTIRAH 02/06/1959 KERTAYASA RT 005 RW 004 KAB. BANJARNEGARA
5149 1100443741 SATIMIN 28/01/1970 KRANDEGAN RT 002 RW 001 KAB. BANJARNEGARA
5150 1100443742 KURNIASIH 04/07/1968 DUKUHJATI KIDUL RT.05/04 PANGKAH KAB. TEGAL
5151 1100443743 ISTIANA 11/11/1976 KRANDEGAN RT 002 RW 001 KAB. BANJARNEGARA
5152 1100443744 WILIS NORMAN ATMAJA 11/12/1981 KARANGKOBAR RT 002 RW 004 KAB. BANJARNEGARA
5153 1100443745 MUFLICHAH 28/05/1960 KARANGKOBAR RT 002 RW 004 KAB. BANJARNEGARA
5154 1100443746 JASMADI 21/03/1968 KRAJAN 03/02 KAB. GROBOGAN
5155 1100443747 WARSI 10/07/1970 BANDAR UTARA RT.02 RW.04 KAB. BATANG
5156 1100443748 SULASTRI 14/03/1969 MARGOREJO RT 09 KAB. SRAGEN
5157 1100443750 ADMAN 13/12/1970 BANJARMANGU RT 005/004 KAB. BANJARNEGARA
5158 1100443752 SITI KHAPSOH 04/12/1972 BANJARMANGU RT 005 RW 004 KAB. BANJARNEGARA
5159 1100443753 SUGIYO 24/11/1960 MARGOREJO RT 09 KAB. SRAGEN
5160 1100443755 MUHAJIR 14/04/1959 DUKUHJATI KIDUL RT.05/04 PANGKAH KAB. TEGAL
5161 1100443756 SRI HARTUTIK 01/09/1968 KRAJAN 03/02 KAB. GROBOGAN
5162 1100443757 HERY MARDIYATUN 16/02/1968 KLAPA GADING KULON RT 003 RW 004 KAB. BANYUMAS
5163 1100443758 BUDI RAHARTO, SPT 07/07/1960 [Link] KATAMSO III NO.1 RT.5 RW.2 KAB. SEMARANG
5164 1100443759 KATENO, DRS 08/09/1968 JL. LETJEN SUTOYO NO 1 RT 01 RW 016 KOTA SURAKARTA
5165 1100443761 ROYAH 10/12/1968 PENGARADAN RT.04 RW.02 TANJUNG KAB. BREBES
5166 1100443764 EKOWATI PUJI ASTUTI 30/12/1959 PESAWAHAN RT.02 RW.03 KAB. BANYUMAS
5167 1100443765 AGUS FATHONI MS 09/07/1957 PERSAWAHAN RT.2/3 KAB. BANYUMAS
5168 1100443766 TOSIRIN 18/04/1964 PENGARADAN RT.04/02 TANJUNG KAB. BREBES
5169 1100443769 SUASTINI 05/05/1967 BANGO RT 08 RW 01 KAB. DEMAK
5170 1100443770 TOTO SUNARNO 13/04/1960 PERUM JOHO BARU BLOK R NO.16 RT.05/RW.08 KAB. SUKOHARJO
5171 1100443771 KATIYANI 15/03/1960 PAPAHAN RT. 01 RW. 03 KAB. KARANGANYAR
5172 1100443772 SUDARTI 06/08/1960 JL. BRIGJEN KATAMSO III NO.1 RT.05 RW.02 KAB. SEMARANG
5173 1100443774 RACHMAWATI KOES SAPARIN, DRA 16/08/1967 JL. LETJ. SUTOYO NO .1 RT.01 RW.16 KOTA SURAKARTA
5174 1100443775 SUHARTI 02/07/1957 CEPAGAN RT.03 RW.01 KAB. BATANG
5175 1100443776 IRIANI BEKTI SUDIYANTI 09/12/1962 PERUM JOHO BARU R 16A RT. 05/08 KAB. SUKOHARJO
5176 1100443777 YANTI 23/04/1975 JL. TRANSISI 17 RT 01/03 KAB. BLORA
5177 1100443778 SAIDUN 27/05/1966 REJOSARI BARAT RT.01 RW.02 KAB. BATANG
5178 1100443779 SUWOLO 16/03/1959 KALIMARO 04/04 KAB. GROBOGAN
5179 1100443780 SRI ANI 14/08/1968 KALIMARO 04/04 KAB. GROBOGAN
5180 1100443781 MA'MUN 01/01/1977 [Link] RT.04 RW.01 KAB. PEMALANG
5181 1100443782 DIDIT SETIAWAN 01/06/1988 PANGEBATAN RT. 02/ 01 KARANGLEWAS KAB. BANYUMAS
5182 1100443783 RAHAJENG PRAMBUDHI NORMAINDAH 03/09/1989 PANGEBATAN RT. 2/1 KAB. BANYUMAS
5183 1100443784 SURTIANA 03/04/1972 SIDOHARJO RT. 02 RW. 09 KAB. KARANGANYAR
5184 1100443787 HADI SUDARMAJI 15/10/1976 CANGKRING RT 03 RW 06 KAB. WONOSOBO
5185 1100443788 PARDONO 11/04/1964 PANDAK WETAN RT 06/02 KAB. SRAGEN
5186 1100443789 ATIK SUMIATI 27/06/1972 PANDAK WETAN RT 06 KAB. SRAGEN
5187 1100443790 SRI SUKINI 24/12/1960 SRAGEN DOK RT 19/06 KAB. SRAGEN
5188 1100443791 PRIYANTI 16/10/1979 CANGKRING RT 03 RW 06 KAB. WONOSOBO
5189 1100443792 SUPONO 16/04/1959 SRAGEN DOK RT 19/06 KAB. SRAGEN
5190 1100443793 ISTIKOMAH 06/10/1985 [Link] MONGINSIDI NO.116 RT.07/04 KOTA SEMARANG
5191 1100443795 SIKUN TARUNO 03/10/1959 CILUMPANG RT. 02/ 10 CIHONJE GUMELAR KAB. BANYUMAS
5192 1100443797 KASIYAH 07/07/1963 CILUMPANG RT. 2/10 CIHONJE KAB. BANYUMAS
5193 1100443800 AHMAD TOLKHA 23/03/1970 [Link] MONGINSIDI NO.116 RT.07/04 KOTA SEMARANG
5194 1100443801 SRI REJEKI 03/01/1974 KP. BUGEN RT 2 RW 1 KOTA SEMARANG
5195 1100443803 TUSRI 15/12/1970 KRADENAN RT.03 RW.01 KAB. BATANG
5196 1100443804 SULASIH 12/11/1968 PENGGARON LOR RT.01/04 KOTA SEMARANG
5197 1100443805 YANTO 10/11/1963 KRADENAN RT.03 RW.01 KAB. BATANG
5198 1100443807 NANIK ARIASTUTI 22/07/1978 KARANGJOMPO RT.01/02 TIRTO KAB. PEKALONGAN
5199 1100443809 SAMSUL ULUM 02/12/1973 KARANGJOMPO RT.01/02 TIRTO KAB. PEKALONGAN
5200 1100443811 MUKHAMAD SAEKAN ABDUL MUCHID 24/06/1969 NGEMBALREJO RT.05 RW.03 KAB. KUDUS
5201 1100443818 RIZKY WASITO 05/02/1972 JL. BRONTOJOYO RT. 19 RW. 07 KAB. CILACAP
5202 1100443819 SLAMET SUPRIYANTA, ST 06/10/1972 JL. PARANG LIRIS IV NO. 2 RT 01 RW 02 KOTA SURAKARTA
5203 1100443820 AGUS SANTOSO 19/08/1964 SUTOSARI RT.03/04 PANTIREJO KESESI KAB. PEKALONGAN
5204 1100443822 FIRKHATUS SHOLIKHAH MASKURI 21/07/1972 DAREN 02/05 KAB. JEPARA
5205 1100443823 AHMAD KHUDLORI 16/01/1960 [Link] RT.01 RW.01 KAB. PEMALANG
5206 1100443824 SELAMET HARIYONO BASIR 09/10/1957 DAREN 02/05 KAB. JEPARA
5207 1100443825 MUNAFIAH 15/04/1962 SIDOGEMAH RT 01 RW 02 KAB. DEMAK
5208 1100443826 NUR KHOLIDAH CHOMSIN 18/07/1972 NGEMBAL REJO RT 05 RW 03 KAB. KUDUS
5209 1100443827 MARYATI 11/09/1966 DK. BENTAR RT. 01 RW. 01 KAB. PEMALANG
5210 1100443829 SRI GUNARTI 22/08/1959 GEMOLONG RT 03/03 KAB. SRAGEN
5211 1100443831 ZAKIYAH RAHMAWATI 01/05/1979 JL. PARANG LIRIS IV NO 2 RT.01 RW.02 KOTA SURAKARTA
5212 1100443832 SUPRIYANTO 06/03/1965 KEDUNGPRING RT. 03/ III KEMRANJEN KAB. BANYUMAS
5213 1100443835 ESTI YULIATI 23/07/1963 JL. [Link] GG.22 NO.10 RT.05/06 KOTA TEGAL
5214 1100443836 TRI HESTI LESTARI 14/03/1978 JL. BRONTOJOYO RT 019 RW 07 KAB. CILACAP
5215 1100443838 SARMINI 31/12/1962 TAWANGSARI 02/02 KAB. KLATEN
5216 1100443840 NUR KHAYATI 17/09/1967 KEDUNGPRING RT. 3/3 KAB. BANYUMAS
5217 1100443841 PAIMAN 30/01/1960 SIDOGEMAH RT 01 RW 02 KAB. DEMAK
5218 1100443843 RINTO CATUR WIYADI 26/03/1959 TIRTOMOYO RT 06 RW 07 KAB. WONOGIRI
5219 1100443844 FARKHATI 10/10/1970 SIRAWAN RT.01/01 KRANDEGAN PANINGGARAN KAB. PEKALONGAN
5220 1100443845 WAHYU SRI MURWATI 03/10/1965 DESA BLIMBING RT.07/RW.01 KAB. KENDAL
5221 1100443848 BINTARTI IMMATUL AZIZAH 18/09/1973 TIRTOMOYO RT 06 RW 08 KAB. WONOGIRI
5222 1100443849 MARGONO 20/06/1963 DESA BLIMBING RT.07/RW.01 KAB. KENDAL
5223 1100443850 KHASANI 15/01/1964 SIRAWAN RT.01/01 KRANDEGAN PANINGGARAN KAB. PEKALONGAN
5224 1100443853 SUGINO 21/06/1966 JENAK RT. 01 RW. 01 KAB. KARANGANYAR
5225 1100443854 SITI NAELIS SAADAH 21/08/1976 KAMBANGAN RT. 21/04 LEBAKSIU KAB. TEGAL
5226 1100443855 SULIYEM 31/12/1962 TERMAS RT 18 KAB. SRAGEN
5227 1100443857 REMIATUN 15/09/1965 JENAK RT. 01 RW. 01 KAB. KARANGANYAR
5228 1100443859 BACHRODIN 31/12/1959 KUPEN RT.10 RW.02 KAB. MAGELANG
5229 1100443860 SUDARMI 03/05/1961 KETAWANGREJO RT 02/05 KAB. PURWOREJO
5230 1100443862 SUJIRAH 30/03/1966 SEMAWUNGDALEMAN RT 01/01 KAB. PURWOREJO
5231 1100443863 SUHARTINI 01/01/1966 BERMI RT 01 RW 02 KAB. DEMAK
5232 1100443865 MULYONO 21/03/1961 BERMI RT 01 RW 02 KAB. DEMAK
5233 1100443867 ANNISA NUZULUL MAULIDIYAH 13/10/1989 MLARAN RT 02/03 KAB. PURWOREJO
5234 1100443868 MISWAN 04/06/1961 SUMBERSARI RT 04/10 KAB. PURWOREJO
5235 1100443870 LATIFUDIN 10/07/1962 [Link] MULYA LEDUG RT.4/5 KAB. BANYUMAS
5236 1100443871 SITI MAIMUNAH 24/04/1964 JL. TEGAL MULYA G5 RT.4/5 KAB. BANYUMAS
5237 1100443873 SYAMSUL ARIPIN 27/11/1972 KAMBANGAN RT. 21/04 LEBAKSIU KAB. TEGAL
5238 1100443874 SUBARDI 08/09/1960 KWAYUHAN RT 01 RW 09 KOTA MAGELANG
5239 1100443875 DATA REPELITA RITA 10/08/1969 KWAYUHAN KOTA MAGELANG
5240 1100443876 SUYOTO 14/04/1970 BONANGREJO RT 02 RW O3 KAB. DEMAK
5241 1100443877 IDA AFIFAH 27/11/1973 BONANGREJO RT 02 RW 03 KAB. DEMAK
5242 1100443878 YUNI SISNANTO 25/06/1959 GEMBONGAN NO.52 RT.06 RW.03 KAB. MAGELANG
5243 1100443881 AMBAR SULISTYOWATI 20/09/1975 JL. MAHONI V 127 RT.03/09 TELUK PWT KAB. BANYUMAS
NO NO. PORSI NAMA TANGGAL LAHIR ALAMAT KAB/KOTA KETERANGAN
5244 1100443883 SUPARDI SAN MARJO NAWI 21/08/1966 GUNUNGSARI RT. 02. 02 KAB. KEBUMEN
5245 1100443884 ROCHADI 24/05/1972 JL. MAHONI V/127 RT.03 RW.09 KAB. BANYUMAS
5246 1100443887 NUNUK SRIANA 19/09/1960 GEBYOG RT.03/03 KOTA SEMARANG
5247 1100443888 SUHARTONO 13/05/1963 BATURSARI RT 07 RW 12 KAB. DEMAK
5248 1100443890 SRI MARINI MULYANINGSIH 20/03/1963 BATURSARI RT 07 RW 12 KAB. DEMAK
5249 1100443892 DARWATI 31/05/1970 MANGGISAN LAMA RT.02 RW.05 KAB. WONOSOBO
5250 1100443894 ARIS RAMADAWATI DRA 17/12/1967 GENENG RT 02/01 KAB. SRAGEN
5251 1100443895 RACHMAT HIDAYAT 19/09/1963 MANGGISAN LAMA RT 02 RW 05 KAB. WONOSOBO
5252 1100443899 SUWARDI DRS 27/10/1965 GENENG RT 02/01 KAB. SRAGEN
5253 1100443900 MUNDAKIR 05/03/1959 MANGGISAN LAMA RT.02 RW.05 KAB. WONOSOBO
5254 1100443901 SRI SUMARI 05/02/1959 PENGKOK RT 17 KAB. SRAGEN
5255 1100443904 JOKO WIDODO 31/12/1968 NGEPUNG RT 29 RW 05 KAB. SRAGEN
5256 1100443908 KHOBIBAH 17/06/1965 MANGGISAN RT.04 RW.08 KAB. WONOSOBO
5257 1100443909 ANNA NOFIANA 10/09/1974 DUSUN NGROTO RT 001 / RW 001 KAB. MAGELANG
5258 1100443910 SUKINI 23/03/1971 NGEPUNG RT 29/05 KAB. SRAGEN
5259 1100443912 SIH PUJI ASTUTI 01/07/1966 ROWOKASAN RT.01 RW.03 KAB. SEMARANG
5260 1100443914 SUMHUDI 26/08/1965 ROWOKASAN RT.01 RW.03 KAB. SEMARANG
5261 1100443915 ANIS MASRUROH 15/03/1982 BRABO 10/01 KAB. GROBOGAN
5262 1100443918 RIFQIL ANSORI 13/08/1962 KATEKAN RT01 RW03 KAB. TEMANGGUNG
5263 1100443919 SRI WIDAYATI 24/04/1963 JETISAN 02/04 KAB. KLATEN
5264 1100443920 MUNAWIR 25/08/1972 BRABO 10/01 KAB. GROBOGAN
5265 1100443922 JOKO WIDIYANTO 17/07/1970 [Link] N0.69 RT.01/04 SIDOMULYO KAB. SEMARANG
5266 1100443923 WURYAM 11/07/1963 KATEKAN RT01 RW03 KAB. TEMANGGUNG
5267 1100443924 NABILAH 06/04/1971 [Link] NO.69 RT.01/04 SIDOMULYO KAB. SEMARANG
5268 1100443925 SULISTYA BAGYA 28/08/1959 JETISAN 02/04 KAB. KLATEN
5269 1100443930 TAUCHID 10/07/1959 JURANG, RT.03/RW.01 KAB. TEMANGGUNG
5270 1100443931 MAHIR ISMAIL 08/11/1978 PLANGGU 01/01 KAB. KLATEN
5271 1100443932 ISTRI RAHAYUNINGSIH 08/04/1981 PLANGGU 01/01 KAB. KLATEN
5272 1100443933 ROCHATI 17/08/1959 PRINGAPUS RT. 02 RW. 08 KAB. KARANGANYAR
5273 1100443934 SITI MAHMUDAH 24/09/1958 JURANG, RT.03/RW.01 KAB. TEMANGGUNG
5274 1100443937 WALMINATUN 31/12/1959 SENDEN, RT.02/RW.01 KAB. TEMANGGUNG
5275 1100443941 M MUNIF,SAG 30/04/1969 KEMANTREN RT.02/05 KOTA SEMARANG
5276 1100443942 FITRIANIK ACHMADI PARSO 02/06/1983 MANTINGAN 004/001 KAB. JEPARA
5277 1100443943 MISWATI 16/11/1967 DUSUN GEDANGAN RT.02/RW.06 KAB. KENDAL
5278 1100443945 DIDIT HADI BASUKI 07/05/1961 DUSUN GEDANGAN RT.02/RW.06 KAB. KENDAL
5279 1100443947 TRI KARTIKAWATI 17/07/1967 JL. SULTAN AGUNG RT.05/06 BREBES KAB. BREBES
5280 1100443948 SAIKEM MUSTAMIN KARTA 01/04/1959 SRATI RT. 05. 02 KAB. KEBUMEN
5281 1100443949 NGADENAN 20/06/1968 JL. BUDENG RT.01 RW.01 KAB. CILACAP
5282 1100443950 KARSIYEM 09/02/1970 JL. BUDENG RT. 01 RW. 01 KAB. CILACAP
5283 1100443951 TRI PAMUNGKAS 05/08/1981 WONOWOSO RT 01 RW 08 KAB. SRAGEN
5284 1100443952 WIDHI PRANOWO 23/09/1976 PERUM. PERMATA HIJAU BLOK E-2 RT.01/10 KAB. WONOSOBO
5285 1100443953 ADHI ROSIHAN AS'AD 27/06/1982 WONOWOSO RT 01 RW 08 KAB. SRAGEN
5286 1100443954 SITI HALIMAH 30/03/1978 PERUM. PERMATA HIJAU BLOK E-2 RT.01/10 KAB. WONOSOBO
5287 1100443955 JARIYAH 11/08/1967 BANARAN RT 2 RW 5 KOTA SEMARANG
5288 1100443958 SUPRIYONO 20/11/1967 SIDONGKAL RT.09 RW.04 KAB. BATANG
5289 1100443959 SUYATMI 18/02/1963 TEGUHJAJAR RT 08 RW 02 KAB. SRAGEN
5290 1100443960 TURSITI 01/11/1970 SIDONGKAL RT.09 RW.04 KAB. BATANG
5291 1100443961 SOLIKHIN 22/07/1975 KALISALAK GUMINGSIR RT.03 RW.04 KAB. BATANG
5292 1100443963 SUGIYATMO 05/04/1964 JL. ARIMBI NO.8 PANJANG INDAH RT.03 RW.0 KOTA PEKALONGAN
5293 1100443964 SUPRIYATI 24/02/1978 KALISALAK RT.03 RW.04 KAB. BATANG
5294 1100443966 SUYAMTI 06/02/1963 JL. ARIMBI NO.8 PANJANG INDAH RT.03 RW.0 KOTA PEKALONGAN
5295 1100443967 SUTINAH 15/11/1969 WONOKERSO RT.02 RW.04 KAB. BATANG
5296 1100443969 JOKO SUPRIYANTO 20/07/1959 PEKUNCEN RT.02/04 WIRADESA KAB. PEKALONGAN
5297 1100443970 ENDANG N SULISTIOWATI 12/01/1959 JL. DARMA BAKTI NO.59 RT.05 RW.11 KOTA PEKALONGAN
5298 1100443971 UMI ZAIDAH 13/09/1978 [Link] DUWET RT.04/04 KOTA SEMARANG
5299 1100443972 YATI MARYATI 11/07/1965 PEKUNCEN RT.02/04 WIRADESA KAB. PEKALONGAN
5300 1100443973 SUKARMI 17/05/1966 KEDUNGWINONG RT. 02/02 KAB. SUKOHARJO
5301 1100443975 SUDIYATNO 31/05/1966 DANUREJO, NO. 09, RT.03/RW.09 KAB. TEMANGGUNG
5302 1100443976 TIRAH SLAMET 23/02/1981 JETIS, RT.03/RW.04 KAB. TEMANGGUNG
5303 1100443977 SUKIRAH 16/05/1970 DELOK, RT.03/RW.04 KAB. TEMANGGUNG
5304 1100443982 MOH. FAUZI, M. AG 17/05/1972 JL. LAWAS DUWET RT 4 RW 4 KOTA SEMARANG
5305 1100443985 ROSYIDI 20/09/1979 DEMPET RT 06 RW 01 KAB. DEMAK
5306 1100443986 SUTRISNO 11/04/1960 REJOSARI TIMUR N.15 RT.03 RW.02 KAB. BATANG
5307 1100443987 KHARIRI 23/11/1965 BOTOREJO RT 01 RW 05 KAB. DEMAK
5308 1100443988 WIDIANINGRUM 22/03/1968 REJOSARI TIMUR N.15 RT.03 RW.02 KAB. BATANG
5309 1100443989 DRH. NURUL HASANAH 28/01/1977 NORAGAN, RT.04/RW.02 KAB. TEMANGGUNG
5310 1100443990 SRI ENDAH HADIYANTI SETIYOWATI 21/01/1968 BOTOREJO RT 01 RW 05 KAB. DEMAK
5311 1100443991 KHODARIYAH 07/07/1968 CONDONGCAMPUR RT. 002/003 KAB. BANJARNEGARA
5312 1100443993 FARUK,[Link] 12/08/1964 DK. TALOK RT.07/05 BUMIAYU KAB. BREBES
5313 1100443995 ABDUL MALIK 12/02/1970 TANJUNG RT.02/04 TIRTO KAB. PEKALONGAN
5314 1100443996 PARSONO 02/04/1962 CONDONGCAMPUR. RT. 002/003 KAB. BANJARNEGARA
5315 1100443998 YULAIKAH 19/02/1981 DEMPET RT 06 RW 01 KAB. DEMAK
5316 1100443999 HIKMAH PRIHASTUTI 03/08/1979 TANJUNG RT.02/04 TIRTO KAB. PEKALONGAN
5317 1100444001 NURWEDI WAERAN KARSAN 07/08/1961 JL. CUNGKUP NO. 407 A RT 05 RW 06 KOTA SALATIGA
5318 1100444003 SURTI ASHARI WARYANI 06/09/1961 JL. CUNGKUP NO. 407 A RT 05 RW 06 KOTA SALATIGA
5319 1100444004 RETNO CAHYA KHAIRANI 06/06/1963 RAMBEANAK III RT.06 RW.05 KAB. MAGELANG
5320 1100444005 HARI SUNARYANTO 16/01/1961 RAMBEANAK 06/05 KAB. MAGELANG
5321 1100444007 DEDDY INDRIATMOKO, [Link]. 28/08/1972 NORAGAN, RT.04/RW.02 KAB. TEMANGGUNG
5322 1100444009 SUNAJI 05/12/1964 KUTABANJARNEGARA. RT. 006/004 KAB. BANJARNEGARA
5323 1100444010 KHASANAH SUTIRTO DULKODIR 07/06/1966 MURTIREJO RT. 01. 05 KAB. KEBUMEN
5324 1100444011 BARIYAH 07/08/1978 TLAGAWERA RT 001 RW 002 KAB. BANJARNEGARA
5325 1100444012 PUJI ASTUTI 23/10/1968 KUTABANJARNEGARA. RT. 006/004 KAB. BANJARNEGARA
5326 1100444013 KHAMBALI 20/01/1972 [Link], 001/002 KAB. BANJARNEGARA
5327 1100444017 WIJI ANDRIYANI SPD 21/05/1971 DIMORO RT 17 KAB. SRAGEN
5328 1100444018 RANDIMIN SPD 01/02/1969 DIMORO RT 17 KAB. SRAGEN
5329 1100444019 ARIF LUKMAN AMAD ROSIDI 02/10/1977 KERTODESO RT. 05. 03 KAB. KEBUMEN
5330 1100444023 JASMANI 16/11/1963 PAYAMAN RT.01 RW.0 4 KAB. KUDUS
5331 1100444025 SLAMET SAMSUDIN 04/10/1976 KRASAK RT 03 RW 04 KAB. WONOSOBO
5332 1100444026 SITI NURLAELA 15/06/1976 KRASAK RT 03 RW 04 KAB. WONOSOBO
5333 1100444028 TARYANA 17/01/1964 KOMPERTA SIDANEGARA [Link] I RT. 4/8 KAB. CILACAP
5334 1100444029 RETNO ENDARWATI 28/02/1969 KOMPERTA SIDANEGARA JL. KLAYAN I RT4 RW8 KAB. CILACAP
5335 1100444030 SRI MULYANI 20/02/1969 DSN. GEMBONGAN RT.12 RW.04 KAB. SEMARANG
5336 1100444031 MAHFUD SIDIK 10/03/1968 DSN. KAWUNGANTEN RT. 02 RW. 01 KAB. CILACAP
5337 1100444032 SUNARNO, SP 24/06/1969 KEDUNGLUMBU RT 01 RW 07 KOTA SURAKARTA
5338 1100444033 MUTINGAH 16/11/1975 DUSUN KAWUNGANTEN RT. 02 RW. 01 KAB. CILACAP
5339 1100444034 MADE NAMI MUNIF 04/07/1972 KEDUNGLUMBU RT 01 RW 07 KOTA SURAKARTA
5340 1100444035 RATINEM 02/03/1966 CLAPAR RT 003 RW 001 KAB. BANJARNEGARA
5341 1100444036 RAHMAT 01/07/1964 CLAPAR. RT. 003/001 KAB. BANJARNEGARA
5342 1100444037 MILONO 24/10/1958 [Link] RT.03 RW.02 KAB. KENDAL
5343 1100444038 AGUS PRAKOSO 08/10/1970 KUWUNGSARI RT 06/19 KAB. SRAGEN
5344 1100444040 ARI MARWIJANA 28/06/1971 KUWUNGSARI RT 06/19 KAB. SRAGEN
5345 1100444043 SRI MARYANI 06/12/1962 PENGIN RT.02/RW.02 KAB. SUKOHARJO
5346 1100444046 AKHMAD RIFAI 09/08/1959 LAWANGREJO RT.02 RW.01 KAB. PEMALANG
5347 1100444047 ROHAMAH 21/07/1966 LAWANGREJO RT. 02 RW. 01 KAB. PEMALANG
5348 1100444049 KHAMDI 10/10/1958 LIMBANGAN RT.04/RW.03 KAB. KENDAL
5349 1100444050 QOMARUL HILAL 23/10/1959 SIDEWI RT. 02 RW. 09 KAB. KARANGANYAR
5350 1100444051 SITI SALAMAH 28/08/1964 LIMBANGAN RT.04/RW.03 KAB. KENDAL
5351 1100444054 EVI SUSILORINI 19/07/1976 KURIPAN RT.02/09 KAB. DEMAK
5352 1100444055 SUPARTI 31/12/1959 KARANGGINTUNG RT. 5/6 KAB. BANYUMAS
5353 1100444058 HARYADI 22/07/1971 KURIPAN RT.02/09 KAB. DEMAK
5354 1100444062 ISTIFAIYAH 06/10/1957 SIDOWANGI 13/06 KAB. MAGELANG
5355 1100444063 ENDANG SRI SUWARTININGSIH,BSC 10/12/1960 [Link] III/15 RT.06/04 KOTA SEMARANG
5356 1100444064 SUPRI NENSIWATI 18/07/1958 KEBONHARJO I/27 RT.01/02 KOTA SEMARANG
5357 1100444066 ACHMADI 27/08/1965 DK. NGLINDUK RT. 02/04 KAB. SUKOHARJO
5358 1100444068 WAHONO SETYOMULYO,DRS 20/05/1958 [Link] III/15 RT.06/04 KOTA SEMARANG
5359 1100444069 SUMIYATI 08/11/1970 DK. NGLINDUK RT.02/RW. 04 KAB. SUKOHARJO
5360 1100444070 SUNIDAH 09/09/1966 JL. BLANAK NO.21 RT.09 RW.01 KOTA TEGAL
5361 1100444074 MALIKHA 19/07/1957 DUKUHWARU RT.04/09 KAB. TEGAL
5362 1100444075 PRIHARTINI 08/02/1960 KARANGSAWO BARAT RT.02/02 KOTA SEMARANG
5363 1100444076 AGUNG PRAMONO 16/09/1973 KOMP. RAPP 10 WN SITE I BRINGIN V F 377 KOTA MAGELANG
5364 1100444086 NUR SODIQ 09/10/1968 MENDALAN 01/01 KAB. MAGELANG
5365 1100444089 SARWO JATMIKO 14/12/1972 PUCUNGSARI 19/08 KAB. MAGELANG
5366 1100444091 JINDAR TAMIMI 12/10/1962 SOJOMERTO LOR 02/02 KAB. MAGELANG
5367 1100444092 MUKHAMAD CHARISUN 10/06/1973 DUSUN CIKALONG RT. 04 RW. 07 KAB. CILACAP
5368 1100444093 AKHMAD MUDOFIR 12/05/1964 KALIMATI RT.17/02 ADIWERNA KAB. TEGAL
5369 1100444094 ANANG TRI YULIANTO 03/07/1985 JEKETRO 03/01 KAB. GROBOGAN
5370 1100444096 ZULIA TAHNIA 15/07/1987 JEKETRO 03/01 KAB. GROBOGAN
5371 1100444098 NUR IKHSAN 01/03/1979 JEKETRO 03/01 KAB. GROBOGAN
NO NO. PORSI NAMA TANGGAL LAHIR ALAMAT KAB/KOTA KETERANGAN
5372 1100444099 SUYAMI 31/12/1961 DK. TENGKLIK RT. 04/05 KAB. SUKOHARJO
5373 1100444100 SUTARSO 03/07/1962 BINORONG. RT. 001/003 KAB. BANJARNEGARA
5374 1100444102 YULI MULYANI 14/07/1980 JEKETRO 03/01 KAB. GROBOGAN
5375 1100444104 SUTRIYATI 23/03/1965 BINORONG. RT. 001/003 KAB. BANJARNEGARA
5376 1100444106 SAKILAH 01/09/1973 LIMBANGAN RT.04/04 LOSARI KAB. BREBES
5377 1100444107 SANUDIN 11/11/1964 LIMBANGAN RT.04/04 LOSARI KAB. BREBES
5378 1100444109 NUR SUWANTO 14/09/1977 TANJANG RT 23/07 KAB. SRAGEN
5379 1100444111 LASIMIN 31/12/1960 DK. TENGKLIK RT.04/RW.05 KAB. SUKOHARJO
5380 1100444112 ENDANG WINARSIH 11/05/1977 TANJANG RT 23/07 KAB. SRAGEN
5381 1100444114 WAINAH 16/09/1967 DUKUHSEMBUNG RT. 07/02 PANGKAH KAB. TEGAL
5382 1100444115 AKHMAD ZAINUDDIN 31/03/1973 LEMAHBANG RT 04 KAB. SRAGEN
5383 1100444119 ENDANG WIDARTI 03/05/1961 PURWOKERTO RT.03/RW.08 KAB. KENDAL
5384 1100444120 NUR WIJAYANTI 07/03/1974 LEMAHBANG RT 04 RW 02 KAB. SRAGEN
5385 1100444123 ANAS HAVIED HANDOKO 10/06/1983 NGELUK RT 06/02 KAB. SRAGEN
5386 1100444124 SRI SUPARYANTI 15/02/1983 NGELUK RT 06/02 KAB. SRAGEN
5387 1100444125 MOHAMAD JAMALI ABDUL BASIR 09/11/1964 LEMAHDUWUR RT.02/02 KAB. KEBUMEN
5388 1100444127 MOH. SYAFII,[Link] 23/07/1957 SENTUL RT.04 RW.02 KAB. BATANG
5389 1100444129 JULIAH 23/08/1963 SENTUL RT.04 RW.02 KAB. BATANG
5390 1100444130 SUPOYO 06/10/1968 MANTUNG RT 01/14 KAB. SUKOHARJO
5391 1100444131 NUR ROSYIDAH 10/10/1971 MANTUNG RT.01/14 KAB. SUKOHARJO
5392 1100444133 HAADZIQ FATHKIYA AL MAROGHI 08/07/1994 PECING RT 02/14 KAB. SRAGEN
5393 1100444135 ISTIKOMAH 07/10/1974 KEMBANGARUM RT.02/02 KAB. DEMAK
5394 1100444136 SRI SUGIHARTINI SPDI 18/09/1964 PECING RT 02/14 KAB. SRAGEN
5395 1100444137 KUSMANTO 04/10/1960 JERUKMANIS 01/03 KAB. KLATEN
5396 1100444138 MUHAMAD SUBKHAN 16/06/1972 KEMBANGARUM RT.02/02 KAB. DEMAK
5397 1100444139 ASMANAH 14/04/1965 JERUKMANIS 01/03 KAB. KLATEN
5398 1100444140 SUDIR AHMAD SULTONIK 10/10/1982 DUSUN PENARIBAN RT 003 / RW 008 KAB. PURBALINGGA
5399 1100444141 SUNIYAH 01/07/1957 TLAHAB LOR RT 03 RW 08 KAB. PURBALINGGA
5400 1100444142 RUSYANTO RUSDI 03/10/1959 GUMIWANG RT 11 RW 06 KAB. PURBALINGGA
5401 1100444143 HASAN ASYARI 06/12/1968 WANARATA RT.19 RW.05 KAB. PEMALANG
5402 1100444144 KHOLIYAH 07/07/1970 GUMIWANG RT 11 RW 06 KAB. PURBALINGGA
5403 1100444146 DWI SETYO SWASONO 30/10/1980 BAJONG RT 01 RW 01 KAB. PURBALINGGA
5404 1100444147 ISTIKOMAH 14/04/1974 WANARATA RT.19 RW.05 KAB. PEMALANG
5405 1100444148 ASMIARTI 29/12/1983 BAJONG RT 01 RW 01 KAB. PURBALINGGA
5406 1100444151 NUR KHOLIS 11/10/1970 SIDOHARJO RT 03 RW 03 KAB. DEMAK
5407 1100444152 MARYONO DWI SAPUTRO 31/08/1973 KALIURIP. R T. 003/005 KAB. BANJARNEGARA
5408 1100444153 DWI ASRININGRUM 26/12/1976 KALIURIP RT 003 RW 005 KAB. BANJARNEGARA
5409 1100444154 SAKIMAN NURHASAN 04/02/1958 JL. ARIMBI RT. 05 RW. 06 KAB. CILACAP
5410 1100444155 YATI MARYAMAH 01/07/1959 DOMPON RT 01 RW 05 KAB. WONOSOBO
5411 1100444156 EMI SUSIAWATI 21/04/1964 PAGERSARI RT.02 RW.01 KAB. KENDAL
5412 1100444157 SUMANTO 03/10/1972 PATUREN RT.02 RW.04 KAB. KENDAL
5413 1100444158 ROCHMAT YUNIANTO 10/06/1958 JL. NAKULA III N0.17 RT.06/09 LEREP KAB. SEMARANG
5414 1100444160 SITI AGUSTINI 28/08/1957 JL. NAKULA III NO.17 RT.06/09 LEREP KAB. SEMARANG
5415 1100444166 SUHARI, ST 03/07/1960 MARIBAYA RT.04/03 KRAMAT KAB. TEGAL
5416 1100444167 ASFIYAH 29/04/1975 BAKALREJO RT.16/05 BAKALREJO SUSUKAN KAB. SEMARANG
5417 1100444170 SETIYONO. SP 11/07/1961 GRIYO MUSTIKA JATI C.83 RT.04 RW.11 KAB. SEMARANG
5418 1100444171 WIWIK SETYONINGSIH 11/04/1981 MARIBAYA RT.04/03 KRAMAT KAB. TEGAL
5419 1100444175 YULI KRISTIYANTI 05/07/1970 TAJEM 02/01 KAB. GROBOGAN
5420 1100444179 AHMAD AZ1Z, SE 17/06/1968 JL. BUKLIT ASRI RAYA NO.08 RT.10 RW.03 KAB. SEMARANG
5421 1100444181 CHUSNUN NI'MAH, SE 01/04/1971 JL. BUKIT ASRI RAYA NO.08 RT.10 RW.09 KAB. SEMARANG
5422 1100444183 SUMARMI 06/07/1969 CANDI, RT.02/RW.02 KAB. TEMANGGUNG
5423 1100444185 NETTY SOFNETTY 02/09/1961 PER. KORPRI BLOK-Z-XII/4 RT.06/03 KOTA SEMARANG
5424 1100444188 SOLICHIN DJAZULI SA'ID 09/12/1958 PER. KORPRI BLOK Z-XII/4 RT.06/03 KOTA SEMARANG
5425 1100444190 MUTIN SHODIQIYAH 02/11/1969 WANGON. RT. 001/002 KAB. BANJARNEGARA
5426 1100444191 TOFIK 12/08/1962 WANGON. RT. 001/002 KAB. BANJARNEGARA
5427 1100444194 SITI FATONAH 15/09/1965 WONOTUNGGAL RT.04 RW.01 KAB. BATANG
5428 1100444195 KUN WINARSO 30/08/1969 TAMAN ASRI B.6/24 RT. 06 RW. 04 KAB. PEMALANG
5429 1100444196 SUWARDI 05/04/1963 [Link] RT 02 RW 03 KAB. WONOGIRI
5430 1100444197 SITI ZAENABUN 31/12/1960 CEMANI RT.07/RW.15 KAB. SUKOHARJO
5431 1100444198 ROHYATI 28/09/1960 PAGILARAN RT.09 RW.03 KAB. BATANG
5432 1100444199 SITI MUNAYAH 18/08/1978 SIDOHARJO RT 02 RW 03 KAB. DEMAK
5433 1100444201 DRA. SRI RAHAYU, [Link]. 25/02/1965 RANDUKUNING RT 01 RW 01 KAB. BOYOLALI
5434 1100444202 WIDOWATI DAMAN HURI 12/04/1961 MUKTISARI RT. 01. 03 KAB. KEBUMEN
5435 1100444203 JOKO MULYONO, [Link] 04/03/1967 SINGIT RT. 01 RW. 10 KAB. KARANGANYAR
5436 1100444204 KULMADI 06/10/1959 SAMPANG RT 02 RW 04 KAB. DEMAK
5437 1100444205 ROFIAH 14/02/1962 SAMPANG RT 02 RW 04 KAB. DEMAK
5438 1100444206 MULYANTO 23/04/1958 CEMANI RT 07/15 KAB. SUKOHARJO
5439 1100444207 TITIN NUGRAHENI DAMAN HURI 20/11/1959 MUKTISARI RT.04/03 KAB. KEBUMEN
5440 1100444208 ERNA KRISNAWATI 02/02/1970 TAMAN ASRI B.6/24 RT.06 RW.04 KAB. PEMALANG
5441 1100444209 FATCHAN NOER HADIYANRO, [Link]. 22/01/1960 RANDUKUNING RT 01 RW 01 KAB. BOYOLALI
5442 1100444210 DWI ARTI ENDAH WIYATI, [Link] 06/11/1968 SINGIT RT. 01 RW. 10 KAB. KARANGANYAR
5443 1100444212 EKA WARSININGSIH 17/05/1970 WATES KULON RT.02 RW.03 KAB. WONOGIRI
5444 1100444213 KHOFIYATUN 07/07/1958 KALISARI RT.03/06 KAB. DEMAK
5445 1100444214 SUPRIYANTO SHOBIRIN SANTAMI 05/05/1972 REDISARI RT.03/04 KAB. KEBUMEN
5446 1100444215 AFIFAH 16/12/1974 JOGOLOYO RT.01/06 KAB. DEMAK
5447 1100444216 ENDAH SUGIHARTI BASJAR 26/08/1980 REDISARI RT. 03. 04 KAB. KEBUMEN
5448 1100444218 ABDUL SUKUR 25/04/1970 JOGOLOYO RT.01/06 KAB. DEMAK
5449 1100444220 SAADAH 12/11/1960 TUGU RT.03/01 KAB. DEMAK
5450 1100444223 SOLICHIN 31/12/1958 DUSUN MAJAKERTA RT04 RW 03 KAB. PEMALANG
5451 1100444224 SITI ISWARI HIDAYATI, SE.,MM 12/02/1962 BADRANASRI RT. 03 RW. 10 KAB. KARANGANYAR
5452 1100444226 PARWOTO, DRS 26/01/1959 BADRANASRI RT. 03 RW. 10 KAB. KARANGANYAR
5453 1100444228 SULISTYOWATI 02/03/1961 PURWASABA RT. 002/003 KAB. BANJARNEGARA
5454 1100444230 HERU SUPRIYANTO 24/04/1959 PURWASABA .RT. 002/003 KAB. BANJARNEGARA
5455 1100444234 SUKADI KASMIJAN KASMO 11/07/1960 SUMBERMULYO RT 003 RW 001 BULU KAB. REMBANG
5456 1100444238 SUSILO BUDI DARMAWAN 18/09/1979 [Link] IV/87 RT.3/5 PURWOSARI KAB. BANYUMAS
5457 1100444240 SUYONO EKO WAHYU 31/03/1972 BRIJO KIDUL RT.02/01 KALIKEBO TRUCUK KAB. KLATEN
5458 1100444241 GANJAR AJENG PRABAYANI 12/12/1981 JL. KALPATARU IV / 87 RT.3/5 PURWOSARI KAB. BANYUMAS
5459 1100444243 MASFIATUN RASMIN KASBAN 24/11/1965 SUMBERMULYO RT 003 RW 001 BULU KAB. REMBANG
5460 1100444246 SUGIYANTI 13/10/1961 BUNDER RT 01 RW 03 KAB. BOYOLALI
5461 1100444247 ISBANDIAH HASTUTI 31/12/1960 PENCIL RT.03 RW.10 KAB. WONOGIRI
5462 1100444249 HARI SUPRIHANTO 28/02/1971 PENGGARON KIDUL RT.01 RW.01 KAB. MAGELANG
5463 1100444252 TRI ASTUTI 20/02/1966 PRM GTSI BLK E 4 NO.7 RT.3/6 KAB. BANYUMAS
5464 1100444253 INDAH NURKHOTIBAK 04/06/1973 PENGGARON KIDUL 01/01 KAB. MAGELANG
5465 1100444254 NURZAZIN 02/12/1981 TEPANSARI RT 02/03 KAB. PURWOREJO
5466 1100444255 SRI SUPRIYATI 22/03/1961 [Link] RT.03 RW.02 KAB. PEMALANG
5467 1100444256 KERI 17/05/1971 PAMIJEN RT. 2/3 KAB. BANYUMAS
5468 1100444257 ISWORO 22/04/1960 [Link] RT.03 RW.02 KAB. PEMALANG
5469 1100444258 FAUZI 05/08/1974 PURWANEGARA RT. 1/7 KAB. BANYUMAS
5470 1100444260 SUPARNI 07/04/1962 [Link] RT.03 RW.02 KAB. PEMALANG
5471 1100444261 HADIARJA 18/08/1957 SOKARAJA KULON RT.02 RW.01 KAB. BANYUMAS
5472 1100444264 SUGIYONO 07/04/1975 LEDOKAN 05/02 KAB. GROBOGAN
5473 1100444267 WAHYU WIBOWO, DRS 06/02/1968 JENGKOL RT.08 RW.03 KAB. MAGELANG
5474 1100444268 FITRI ANISAH 04/04/1992 TEPANSARI RT 02/03 KAB. PURWOREJO
5475 1100444269 SUKARTINI 06/11/1959 BUMIHARJO RT.05/01 KAB. DEMAK
5476 1100444271 AKHMAD GHOZALI 17/03/1973 JL. PURWA RT.04/12 SURADADI KAB. TEGAL
5477 1100444272 TRI SARWOSRI 29/04/1968 TELUKAN RT.03/RW.09 KAB. SUKOHARJO
5478 1100444273 ULMI KORIANA 23/01/1977 JL. PURWA RT.04/12 SURADADI KAB. TEGAL
5479 1100444274 HARDI 08/02/1964 TELUKAN RT.03/RW.09 KAB. SUKOHARJO
5480 1100444275 WATIM SUYATNO 29/03/1970 CIMUNDING RT.17/05 BANJARHARJO KAB. BREBES
5481 1100444276 SUMADI 15/06/1966 WERDOYO RT.05/01 KEBONAGUNG KAB. DEMAK
5482 1100444277 RUFIATUN 06/06/1967 WERDOYO RT.05/01 KEBONAGUNG KAB. DEMAK
5483 1100444278 NINING JUHETIN 07/12/1973 CIMUNDING RT.17/05 BANJARHARJO KAB. BREBES
5484 1100444279 KUSNO 12/10/1961 TAMBAKSARI KIDUL RT.02 RW.04 KAB. BANYUMAS
5485 1100444280 MUFRIDAH , DRA 14/08/1967 DSN. JENGKOL 08/03 KAB. MAGELANG
5486 1100444281 ESTI WURYANINGSIH 11/10/1968 TAMBAKSARI KIDUL RT. 2/4 KAB. BANYUMAS
5487 1100444283 WILDANA LATHIF MAHMUDI 28/07/1993 KAPAS TENGAH IX/F-689 RT.06/07 KOTA SEMARANG
5488 1100444286 KHUSNUL KHOTIMAH 15/07/1959 KAPAS TENGAH IX/F-689 RT.06/07 KOTA SEMARANG
5489 1100444287 KRISDIANA 29/04/1967 JL. DELIMA RAYA 71 RT 01 RW 02 KOTA MAGELANG
5490 1100444289 DASIYO 10/06/1963 HARJOSARI RT 02 KAB. SRAGEN
5491 1100444290 MUHAMAD ARIFIANTO 09/06/1975 MRANTI RT 03/05 KAB. PURWOREJO
5492 1100444291 KASTIMAH 05/05/1962 CIKUYA RT. 02/02 BANJARHARJO KAB. BREBES
5493 1100444292 SAWALI 03/04/1960 [Link] RT.01 RW.05 KAB. BATANG
5494 1100444295 SUMIYEM 05/09/1965 HARJOSARI RT 02 KAB. SRAGEN
5495 1100444298 SRI WIJI LESTARI 25/02/1958 BANARAN RT 24 KAB. SRAGEN
5496 1100444300 EMI LISTIYANI 07/05/1976 MRANTI RT 03/05 KAB. PURWOREJO
5497 1100444301 NUR PRABEWI 09/04/1968 JL DELIMA RAYA 71 RT 01 RW 02 KOTA MAGELANG
5498 1100444302 SATIYEM 12/07/1966 JL. H. TOPO KARANGJENGKOL KAB. CILACAP
5499 1100444305 MAHENDRA WIJAYA, MS, DRS 23/07/1960 JL. BUNGUR 3 NO.4 RT 03 RW 06 KOTA SURAKARTA
NO NO. PORSI NAMA TANGGAL LAHIR ALAMAT KAB/KOTA KETERANGAN
5500 1100444306 AKHMAD ASHARI MOCH. BACHRI 29/08/1959 SULANG RT 001 RW 001 SULANG KAB. REMBANG
5501 1100444307 FAIZAH IBNU AFFAN 10/05/1964 SULANG RT 001 RW 001 SULANG KAB. REMBANG
5502 1100444310 SUCIPTO 19/04/1968 DEMPET RT.01/01 KAB. DEMAK
5503 1100444311 RETNA BANDRIYATI A, MS. IR 14/11/1964 JL. BUNGUR 3 NO. 4 RT 03 RW 06 KOTA SURAKARTA
5504 1100444313 ROCHMANAN KASNO KASDI SARIBUN 28/05/1969 PASURUHAN KIDUL RT 05 RW 01 KAB. KUDUS
5505 1100444314 SUKAMTI SUPARMAN SARJO 01/06/1958 JL. KARANG TARUNA NO.499 RT 01 RW 07 KOTA SALATIGA
5506 1100444315 SAWILAH 19/04/1975 DEMPET RT.01/01 KAB. DEMAK
5507 1100444316 SUTINAH SARPI NASRUN 10/11/1977 PASURUHAN KIDUL RT 05 RW 01 KAB. KUDUS
5508 1100444317 RUKAYAH 28/01/1974 KRAJAN RT 15 RW 04 KAB. BOYOLALI
5509 1100444320 WAGINI 08/08/1968 KRAJAN RT 15 RW 04 KAB. BOYOLALI
5510 1100444322 SITI SOFIYAH 19/12/1963 SIDOHARJO RT 08 RW 07 KAB. BOYOLALI
5511 1100444323 SUMARNI 27/01/1975 BALONG 01/15 KAB. KLATEN
5512 1100444324 FAJAR SULISTYO NUGROHO 16/05/1991 SLUKE RT 003 / RW 001 KAB. REMBANG
5513 1100444325 ROBITUN 14/08/1973 GODEAN RT 05 RW 04 KAB. WONOSOBO
5514 1100444326 SITI SHOLIHAH 03/12/1973 HARJOSARI RT. 01 RW. 01 KAB. KARANGANYAR
5515 1100444327 HARYANTI KASMIJAN MERTODJOJO 03/02/1964 SLUKE RT 003 RW 001 SLUKE KAB. REMBANG
5516 1100444329 GUNAWAN HERI SANTOSO, [Link] 18/09/1970 MEKARASRI RT. 03 RW. 01 KAB. KARANGANYAR
5517 1100444330 SULTHONY ANNAS FIRMANSYAH 22/04/1983 TIRTOMULYO 01/12 KAB. KLATEN
5518 1100444332 [Link] 12/07/1967 TAMBAHREJO RT.02 RW.03 KAB. BATANG
5519 1100444333 UMI WARSITI 24/02/1978 TEGALASIN 32/12 KAB. KLATEN
5520 1100444334 WARYUTI 03/02/1973 TAMBAHREJO RT.02 RW.03 KAB. BATANG
5521 1100444335 AGUNG SUPRIYANTO,ST 25/04/1984 MARDIREJO 10/03 KAB. KLATEN
5522 1100444336 MARTINI 04/05/1973 ASPOL TLOGOMULYO BLOK I/386 RT.02/07 KOTA SEMARANG
5523 1100444337 DWI LASONO 11/07/1972 TEGALASIN 32/12 KAB. KLATEN
5524 1100444338 SRI WAHYUNI,SE 02/05/1959 MARDIREJO 10/03 KAB. KLATEN
5525 1100444339 KADAM 16/06/1968 JL. KARANGBANAR RT22 RW06 KAB. CILACAP
5526 1100444341 DJURIAH 05/10/1961 TEGALSARI 27/14 KAB. KLATEN
5527 1100444342 SITI HALIMAH 10/02/1974 JL. KARANGBANJAR RT. 22 RW. 06 KAB. CILACAP
5528 1100444343 SRI PURWATI 03/08/1958 NGENTAK RT.01/RW.08 KAB. SUKOHARJO
5529 1100444346 SUHARTO,SH 01/01/1958 TEGALSARI 27/14 KAB. KLATEN
5530 1100444347 ABDULLAH ISKANDAR 14/02/1971 BALONG 01/15 KAB. KLATEN
5531 1100444348 LENA 10/02/1965 KAUMAN LOR RT.10 RW.01 KAB. SEMARANG
5532 1100444349 DEDIK WAHONO SOEMARNO 16/12/1964 KEMIRI BARAT NO.10 RT 02 RW 09 KOTA SALATIGA
5533 1100444350 UMI HANI 14/02/1987 CIKANDANG RT. 01/06 KERSANA KAB. BREBES
5534 1100444351 SRI ARIYATI 06/12/1969 KARANGANYAR GUNUNG RT.04/03 KOTA SEMARANG
5535 1100444352 MUFAROH 26/12/1977 PASIR KIDUL RT.04 RW.02 KAB. BANYUMAS
5536 1100444353 HENI HERAWATI 26/06/1979 PASIR KIDUL RT. 4/2 KAB. BANYUMAS
5537 1100444355 KAPSAH 03/05/1969 DK. TEMUKEREP RT.06/10 LARANGAN KAB. BREBES
5538 1100444357 JUMIATI SUKIJAN PAIJAN 15/08/1965 PLADEN RT.02 RW.02 KAB. KUDUS
5539 1100444358 KUSWANTO JUPRI SUROWAR 13/03/1961 PLADEN RT 02 RW 02 KAB. KUDUS
5540 1100444360 WAHYU DWI ANGGRAENI 25/05/1982 JL. TIRTO NO.09 RT.02/03 LARANGAN KAB. BREBES
5541 1100444361 PRAWOTO, SKM. [Link] 10/03/1971 JL. TIRTO NO.09 RT.02/03 LARANGAN KAB. BREBES
5542 1100444362 BAHRUN 15/12/1985 CIKANDANG RT. 01/06 KERSANA KAB. BREBES
5543 1100444365 SITI MASITOH 15/08/1960 PULOSARI NO. 08 RT. 01/01 BREBES KAB. BREBES
5544 1100444369 KARSINI 29/12/1957 GONDANG BARU RT 13/14 KAB. SRAGEN
5545 1100444370 EVI IRAWATI, SPD 17/07/1971 KARANGGENENG PURI HIJAU 7 RT.02/01 KOTA SEMARANG
5546 1100444371 SRI YAMTINI 22/03/1960 GONDANG BARU RT 12 KAB. SRAGEN
5547 1100444376 MURTI 30/12/1962 DSN. PRENGGAN RT.09 RW.02 KAB. SEMARANG
5548 1100444378 RIF'AN 25/01/1965 BUNTIT MANGUNHARJO RT.01/06 KOTA SEMARANG
5549 1100444379 SRIYONO 05/09/1970 BANYUANYAR RT 04 RW 09 KOTA SURAKARTA
5550 1100444380 WIDODO, SPI, MSC 07/01/1971 KARANGGENENG PURI HIJAU 7 RT.02/01 KOTA SEMARANG
5551 1100444381 LAILY FIKRIYAH 03/07/1974 BANYUANYAR RT 04 RW 09 KOTA SURAKARTA
5552 1100444382 ZUMROTUS SAIDAH 22/02/1970 BUNTIT MANGUNHARJO RT.01/06 KOTA SEMARANG
5553 1100444385 VIVIN ZULFA ATINA 08/10/1990 PERUMAHAN TEGALSARI C 9 RT 07/16 KAB. SRAGEN
5554 1100444387 SUGENG RIYANTO 21/12/1957 KARANGJATI RT 08/02 KAB. SRAGEN
5555 1100444388 MUHAMMAD AMAR MA'RUF 10/06/1974 KEMIRI 22/10 KAB. KLATEN
5556 1100444389 HENI KUSUMA WATI 07/08/1974 KEMIRI 22/10 KAB. KLATEN
5557 1100444390 AGUS MULYANTO, SH 21/08/1966 KEPATIHAN WETAN RT 07 RW 01 KOTA SURAKARTA
5558 1100444392 SARMI 06/04/1970 KEPATIHAN WETAN RT 07 RW 01 KOTA SURAKARTA
5559 1100444393 WAHONO 02/09/1977 JETIS, RT.04/RW.03 KAB. TEMANGGUNG
5560 1100444394 SISWOYO 03/10/1958 JL. PAMUGARAN RT 04 RW 04 KAB. CILACAP
5561 1100444395 SUSILOWATI 02/03/1959 JL TUGU BARAT RT. 02 RW. 04 KAB. CILACAP
5562 1100444397 TITIK KUSWATI 26/07/1962 KARANGJATI RT 08/02 KAB. SRAGEN
5563 1100444399 ABDUL ROZAK SIDIK 24/04/1980 TARUMAN 07/04 KAB. MAGELANG
5564 1100444401 YENI RAHMATIN 19/07/1982 TARUMAN 07/04 KAB. MAGELANG
5565 1100444402 SITI MUHIMAH 12/08/1961 WERON NO.25 RT.08 RW.01 KAB. MAGELANG
5566 1100444404 AKHYADI 24/05/1958 WERON 25 RT. 08/01 KAB. MAGELANG
5567 1100444405 ARIS YULIATMOKO 11/07/1972 SIDABOWA RT. 2/5 KAB. BANYUMAS
5568 1100444406 TUGAS BANDI PURNOMO EDY 08/01/1979 MARGOASRI RT 35/09 KAB. SRAGEN
5569 1100444408 YUNI IS ARYANTI 10/06/1981 MARGOASRI RT 35/09 KAB. SRAGEN
5570 1100444410 LILIK MARYATI 21/03/1969 DUKUH WETAN 05/03 KAB. MAGELANG
5571 1100444411 DIYAH RAKHMAWATI 19/12/1976 SIDABOWA RT.02 RW.05 KAB. BANYUMAS
5572 1100444412 NURYANTO 13/12/1960 DUKUH WETAN RT.05 RW.03 KAB. MAGELANG
5573 1100444413 BAYU ADITYA RAMADHAN 25/04/1989 JL. KAWUNG RAYA NO. 53 RT 009 / RW 014 KOTA SEMARANG
5574 1100444414 NUR KHAMIDAH, SE 31/12/1963 JL. ARJUNA I NO. 21 RT.01 RW.09 KAB. SEMARANG
5575 1100444415 ULWI 15/01/1958 SEWAN 17 RT. 38/14 KAB. MAGELANG
5576 1100444416 SALYOKO HADI 06/08/1958 JL. ARJUNA I NO.21 RT.01 RW.09 KAB. SEMARANG
5577 1100444417 SUWARTO 19/04/1963 SARAGAN RT.06 RW.08 KAB. MAGELANG
5578 1100444418 MUHAMMAD ATHO ILLAH MASLAH 13/05/1976 DEMESAN 08/03 KAB. MAGELANG
5579 1100444419 BOKI MARHABAN 12/09/1967 KAWUNG RAYA NO. 53 RT.09/14 KOTA SEMARANG
5580 1100444420 HEROE POERWANTO 09/06/1959 JL. CEMPAKA 26 SARAGAN RT. 06/08 KAB. MAGELANG
5581 1100444421 TRI WAHYUNINGSIH 25/10/1968 SARAGAN 06/08 KAB. MAGELANG
5582 1100444423 SUMARNI 28/12/1961 JETIS 03/02 KAB. KLATEN
5583 1100444424 SUROTO 31/12/1961 GATAK TUAN 01/01 KAB. KLATEN
5584 1100444425 TRI PURWANI 15/03/1966 JL PANDANARAN NO 275 RT 02 RW 02 KAB. BOYOLALI
5585 1100444426 SUWANTO 01/01/1967 CILOPADANG RT 02 RW 06 KAB. CILACAP
5586 1100444428 ENI NUNGGRAENI 25/06/1970 JL. RAYA CILOPADANG RT. 02 RW. 06 KAB. CILACAP
5587 1100444430 SRI SUDARMI 26/06/1958 TANGGULANGIN RT.02/RW.03 KAB. KENDAL
5588 1100444431 RUKATI SARNO ASTRO NGAT 12/11/1973 TANJUNGKARANG RT 02 RW 04 KAB. KUDUS
5589 1100444433 MUHAMMAD FIRDAUS RAMADHAN 12/01/1997 TANJUNGKARANG RT 02 RW 04 KAB. KUDUS
5590 1100444435 ENDANG SUBIYANTI NINGSIH 24/06/1958 JL. CEMPAKA 26 SARAGAN RT. 07/08 KAB. MAGELANG
5591 1100444438 HAFSHOH NOERHAJATI 07/01/1972 BEBENGAN, RT.04/RW.05 KAB. TEMANGGUNG
5592 1100444440 FATCHUL AZIS 04/04/1964 BEBENGAN, RT.04/RW.05 KAB. TEMANGGUNG
5593 1100444441 SITI FAIZAH 27/09/1971 DANUREJO, NO. 09. RT.03/RW.09 KAB. TEMANGGUNG
5594 1100444442 FAHRURI 11/07/1958 TENGARAN 03/03 KAB. GROBOGAN
5595 1100444443 ENDANG SRI UTAMI 10/08/1960 TENGARAN 03/03 KAB. GROBOGAN
5596 1100444444 ISTIANAH 13/05/1963 KARANG, RT.07/RW.03 KAB. TEMANGGUNG
5597 1100444448 SRI SURATMI 17/01/1967 SIDODADI RT 05 RW 01 KAB. BOYOLALI
5598 1100444449 KUS MARDIYATI, SPD 04/07/1958 JL. LOMPO BATANG TENGAH I/14 RT 04 RW 23 KOTA SURAKARTA
5599 1100444450 ISTIROHAH 04/10/1957 GRENJENG 01/06 KAB. MAGELANG
5600 1100444455 LINASI HADIYATI 07/07/1957 KAUMAN RT.04 RW.03 KAB. BATANG
5601 1100444456 NURBAIYAH 13/07/1960 GRENJENG 02/06 KAB. MAGELANG
5602 1100444459 FAIZAH 15/05/1967 JL SENDANG UTARA III NO 14 RT 04 RW 07 KOTA SEMARANG
5603 1100444460 SYAMSUL BAKHRI 07/08/1957 JL SENDANG UTARA III NO 14 RT 04 RW 07 KOTA SEMARANG
5604 1100444461 SUNARSI 07/04/1966 KRATONAN RT.01 RW.02 KOTA SURAKARTA
5605 1100444462 AHMAD ZAENAL ABIDIN 08/03/1994 KARANG KIMPUL RT.05 RW.002 KAB. DEMAK
5606 1100444464 NOR ANISAH 13/06/1968 MUTIH KULON RT 02 RW 01 KAB. DEMAK
5607 1100444466 SUPATMO 16/06/1965 KOLUTAN 07/01 KAB. GROBOGAN
5608 1100444467 IHSANUDDIN 24/01/1966 BANJAR BANGGI 02/2 KAB. GROBOGAN
5609 1100444468 SURASMAN 04/12/1961 JL KELAPA GADING II/342 RT 01 RW 06 KOTA SEMARANG
5610 1100444471 DARYANTI 25/12/1974 BANJAR BANGGI 02/02 KAB. GROBOGAN
5611 1100444473 ENDAR WINDAYATI 31/05/1963 JL KELAPA GADING II /342 RT 01 RW 06 KOTA SEMARANG
5612 1100444474 SLAMET PUJIYONO 12/03/1977 JL. GUNUNG GEDE RT.03 RW.08 KAB. BANYUMAS
5613 1100444475 LASMINI 18/09/1960 BANJAR BANGGI 02/02 KAB. GROBOGAN
5614 1100444479 MASAMAH 16/03/1960 CEKELAN, RT.04/RW.04 KAB. TEMANGGUNG
5615 1100444480 ZAKARIYA 08/09/1969 DSN. SENGGRONG RT.11 RW.04 KAB. SEMARANG
5616 1100444481 NARUTOMO 17/05/1959 CEKELAN, RT.04/RW.04 KAB. TEMANGGUNG
5617 1100444482 SITI CHOTIMATUN ALI SURADI 23/04/1971 JATIJAJAR RT. 04. 01 KAB. KEBUMEN
5618 1100444483 ASMAH 02/01/1966 DSN. SENGGRONG RT.11 RW.04 KAB. SEMARANG
5619 1100444484 SUMARLAN 04/08/1963 WETAN PASAR 02/10 KAB. KLATEN
5620 1100444486 MAHMUDIN 28/03/1963 KEDU GANG 1 RT01 RW01 KAB. TEMANGGUNG
5621 1100444487 DYAH KUSUMA WARDHANI EKANINGSIH 11/02/1972 WETAN PASAR 02/10 KAB. KLATEN
5622 1100444488 HENNI MARDIJATI 31/03/1962 KEDU GANG I, RT.01 RW.01 KAB. TEMANGGUNG
5623 1100444489 LIMPAD PAMBUDI TUSIMIN 16/02/1966 JATIJAJAR RT.04/01 KAB. KEBUMEN
5624 1100444491 MUSLIMAH 02/04/1970 [Link] RT.07/05 KOTA SEMARANG
5625 1100444495 MASYKUR 13/06/1968 BATIKAN RT 02 RW 03 KOTA SURAKARTA
5626 1100444496 IDA ZUBAIDAH 18/03/1967 BATIKAN RT 02 RW 03 KOTA SURAKARTA
5627 1100444501 HUDAEFAH, SKM, [Link] 20/01/1971 JL. PRAMBANAN NO 96 A KAB. CILACAP
NO NO. PORSI NAMA TANGGAL LAHIR ALAMAT KAB/KOTA KETERANGAN
5628 1100444502 AGUSTIYANTI 25/08/1978 GANG MERBABU RT.02 RW.03 GOMBONG KAB. KEBUMEN
5629 1100444504 CATUR NURANI SUMARMAN 04/06/1966 JATIJAJAR RT. 04. 01 KAB. KEBUMEN
5630 1100444506 MAESAROH 05/10/1965 KARANGANYAR RT. 03 RW. 01 KAB. PEMALANG
5631 1100444508 NURHIDAYATI 18/07/1976 JL. PRAMBANAN NO.96A RT.4 RW.2 KAB. CILACAP
5632 1100444509 MAKHMUD 08/05/1960 [Link] RT.03 RW.01 KAB. PEMALANG
5633 1100444510 IMAM SUKARSO 03/06/1960 RAJAWANA RT 05 RW 01 KAB. PURBALINGGA
5634 1100444512 SUBKAN EFENDI 25/05/1968 TANJUNGSARI RT.07/05 KOTA SEMARANG
5635 1100444513 MEI MULYONO 05/05/1971 KRANDEGAN RT 004/001 KAB. BANJARNEGARA
5636 1100444514 SOLICHAH 02/08/1977 KRANDEGAN RT 004 RW 001 KAB. BANJARNEGARA
5637 1100444517 MIFTACHUL SHOLEH 22/07/1957 BANGSRI 1 RT01 RW02 KAB. TEMANGGUNG
5638 1100444518 MUNTAMAH 10/08/1970 PENGGARON KIDUL RT 02 RW 06 KOTA SEMARANG
5639 1100444519 ANJANI 31/12/1960 BANGSRI I RT.01 RW.02 KAB. TEMANGGUNG
5640 1100444520 KUSNIATUN 15/07/1976 PILANG RT 18/03 KAB. SRAGEN
5641 1100444521 SURYATNO 28/01/1973 PILANG RT 18/03 KAB. SRAGEN
5642 1100444522 DJUS'AN RACHMAD MARDI 16/11/1958 PRAMBATAN KIDUL RT 05 RW 03 KAB. KUDUS
5643 1100444526 MU'AYANAH DJAMADI USMAN 22/04/1960 PASURUHAN LOR RT 01 RW 09 KAB. KUDUS
5644 1100444527 KHUSNUL KHOTIMAH ACHMAD DJUREMI 30/07/1976 DEPOKREJO RT. 03. 01 KAB. KEBUMEN
5645 1100444528 MOKHAMMAD IRMANTO NURUDIN 07/10/1970 DEPOKREJO RT. 03. 01 KAB. KEBUMEN
5646 1100444529 DARSI 21/07/1962 [Link] XI/5 RT.03/04 KOTA SEMARANG
5647 1100444530 SUKIMAN 31/12/1957 [Link] XI/5 RT.03/04 KOTA SEMARANG
5648 1100444531 SHOLEKAH 01/07/1968 MENUR RT.01/03 KAB. DEMAK
5649 1100444532 LILIK RUSMIYATI, [Link] 06/10/1979 GANGGENG RT 01/02 KAB. PURWOREJO
5650 1100444533 MATNUR 08/03/1963 MENUR RT.01/03 KAB. DEMAK
5651 1100444535 FILYAM 30/06/1964 SAMBUNG JABU RT.01/01 BOJONG KAB. PEKALONGAN
5652 1100444537 SRI RAHAYU 27/07/1965 PENAWANGAN RT 002/002 KAB. BANJARNEGARA
5653 1100444538 MUH SOCHEH, [Link] 03/03/1961 GANGGENG RT 01/02 KAB. PURWOREJO
5654 1100444539 YUANITA 17/10/1967 JL SEMBUNGAN RAYA NO 52 RT. 4/19 KAB. KARANGANYAR
5655 1100444542 FARIZ FADHLILLAH IMANI 03/04/1999 JL. SEMBUNGAN RAYA 52 KAB. KARANGANYAR
5656 1100444543 ISAD SISWANTO 06/11/1965 SUROJENGGOLO 01/04 KAB. GROBOGAN
5657 1100444544 ZAENURI 01/01/1964 TLANGU RT.05/RW.03 KAB. KENDAL
5658 1100444545 NANANG WIJAYANTO 18/12/1973 KRAJAN I SIDOSARI 17/05 KAB. MAGELANG
5659 1100444548 SRI SUPRIYATI 10/08/1965 KEBOKURA RT. 2/2 KAB. BANYUMAS
5660 1100444549 NUR ISYARAH 05/01/1981 BINANGUN RT.03/04 WERDI PANINGGARAN KAB. PEKALONGAN
5661 1100444552 SLAMET PRAYITNO 22/02/1968 KEBOKURA RT.02 RW.02 KAB. BANYUMAS
5662 1100444555 PURWANINGSIH 06/04/1978 NGLANGGENG RT.04 RW.02 KAB. MAGELANG
5663 1100444556 CASTRO 14/05/1974 BINANGUN RT.03/04 WERDI PANINGGARAN KAB. PEKALONGAN
5664 1100444558 ZANI 28/07/1960 NGLANGGENG 04.01 KAB. MAGELANG
5665 1100444559 ARIFIN 29/12/1962 TLANGU BARAT SUKOREJO RT.02/RW.03 KAB. KENDAL
5666 1100444561 MARSINEM 01/09/1980 KEBOKURA RT. 5/2 KAB. BANYUMAS
5667 1100444562 SITI KOMARIYAH 15/07/1966 KLEDUNG KRADENAN RT 04/04 KAB. PURWOREJO
5668 1100444563 IKROM 31/12/1963 ARGATAWANG RT.09/02 JATINEGARA KAB. TEGAL
5669 1100444565 TAKUN 28/12/1970 ARGATAWANG RT.09/02 JATINEGARA KAB. TEGAL
5670 1100444566 PURWADI 01/02/1977 CLAPAR RT 003 RW 001 KAB. BANJARNEGARA
5671 1100444567 KHAERUL ANWAR 05/08/1969 JERING RT 11 RW 02 KAB. BOYOLALI
5672 1100444568 ATMINI 15/11/1980 CLAPAR RT 003 RW 001 KAB. BANJARNEGARA
5673 1100444569 SUNARTI 13/02/1974 JERING RT 11 RW 02 KAB. BOYOLALI
5674 1100444571 JOKO TRISNO MARDJID 05/05/1960 KALIOMBO RT 005 RW 002 SULANG KAB. REMBANG
5675 1100444573 SUWARMAN 14/05/1959 KRAPYAK RT.01 RW.01 KAB. MAGELANG
5676 1100444574 ONY DWI BASKORO 12/12/1973 DAGEN RT.01 RW.07 KAB. KARANGANYAR
5677 1100444575 ESTI ISTININGSIH 12/06/1966 KRAPYAK RT.01 RW.01 KAB. MAGELANG
5678 1100444576 PIPIT MIRANTI 03/08/1975 DAGEN RT.01 RW.07 KAB. KARANGANYAR
5679 1100444578 BAMBANG MARYOKO, [Link] 27/04/1961 PERUM PELITA B7 RT.01 RW.14 KAB. KARANGANYAR
5680 1100444579 RENTY PRASETYA DEWI 11/05/1973 [Link] MAWAR II/150 RT.03/24 KOTA SEMARANG
5681 1100444580 TURASMAN 08/10/1961 GANDRUNGMANIS RT 004 RW 001 KAB. CILACAP
5682 1100444581 DESTY ANGGRAENI 31/12/1988 JL. DR. SUTOMO, NO. 422, RT.03/RW.07 KAB. TEMANGGUNG
5683 1100444582 FELISA HERU PRATOMO EDIATMOKO 31/08/1973 JL. BUKIT MAWAR II NO. 150 RT 3 RW 24 KOTA SEMARANG
5684 1100444583 TUGIYATI 27/06/1962 GANDRUNGMANIS RT RT04 RW01 KAB. CILACAP
5685 1100444584 DRAJAD RIADININGSIH, SE 20/01/1967 PERUM PELITA B7 RT.01 RW.14 KAB. KARANGANYAR
5686 1100444585 FADLI YULIANTO 19/07/1960 DUSUN BANTARSARI RT. 03 RW. 02 KAB. CILACAP
5687 1100444587 SITI MACHMUDAH 03/06/1969 BANTARSARI RT 03 RW 02 KAB. CILACAP
5688 1100444588 TRIYONO SOETRISNO KASNADI 21/09/1960 JATIMULYO RT. 02. 06 KAB. KEBUMEN
5689 1100444589 NOER ENY INDRAWATI 25/05/1959 JL. DR. SUTOMO, NO. 422, RT.03/RW.07 KAB. TEMANGGUNG
5690 1100444590 ESTI MUJI RAHAYU 12/06/1967 JATIMULYO RT.02/06 KAB. KEBUMEN
5691 1100444592 SITI MAEMUNAH ABDUL SALAM IBRAHIM 17/07/1961 ARGOPENI RT. 01. 02 KAB. KEBUMEN
5692 1100444594 SYARIF HIDAYAT 26/09/1989 ARGOPENI RT.01/02 KAB. KEBUMEN
5693 1100444597 SRI TEGAWARIS 05/09/1965 BANJARSARI RT. 04 RW. 06 KAB. KARANGANYAR
5694 1100444598 KRISTINAH 27/01/1964 TLANGU RT.05/RW.03 KAB. KENDAL
5695 1100444599 SUTRIONO SUMARMAN KARYAWINATA 03/11/1963 JATIJAJAR RT.04/01 KAB. KEBUMEN
5696 1100444600 WINARSIH 03/10/1972 SUWONO RT.02 RW.07 KAB. KARANGANYAR
5697 1100444601 YULLI MEI MONAH 05/07/1965 KAUMAN JL. GAJAH MADA NO.205 RT.06 RW.06 KAB. BATANG
5698 1100444603 KARTINAH 31/12/1964 TLANGU BARAT SUKOREJO RT.02/RW.03 KAB. KENDAL
5699 1100444605 SUPARTI 01/03/1963 BEKON RT.02 RW.01 KAB. KARANGANYAR
5700 1100444606 SULASMI 15/12/1960 PERUM KORPRI RT.02 RW.13 KAB. KARANGANYAR
5701 1100444607 ST ZULAIHAH 16/07/1971 PENARUBAN RT 01 RW 02 KAB. PURBALINGGA
5702 1100444608 KHUDORI MUHYASIR SYAEKHUDIN 27/12/1975 AYAH RT. 04. 01 KAB. KEBUMEN
5703 1100444609 SUTRISNO,[Link] 14/11/1960 KAUMAN [Link] MADA NO.205 RT.06 RW.06 KAB. BATANG
5704 1100444611 PURWANTINI 12/04/1963 NGLEBAK RT. 06 RW. 09 KAB. KARANGANYAR
5705 1100444613 SUMITO 31/12/1960 TUMBREP RT.01 RW.04 KAB. BATANG
5706 1100444614 UNTUNG BUNTARAN 12/09/1977 PAMOTAN RT 001 RW 001 PAMOTAN KAB. REMBANG
5707 1100444615 INDRA WIDIYANTI 03/02/1979 BUMIJAWA RT.09/01 KAB. TEGAL
5708 1100444616 UNTUNG SUBAGYO 19/05/1968 SINGOSARI IX/8 RT.06/06 KOTA SEMARANG
5709 1100444617 SUWANTO 10/07/1959 NGLEBAK RT. 06 RW. 09 KAB. KARANGANYAR
5710 1100444618 ROZIKIN 20/05/1971 BUMIJAWA RT.09/01 KAB. TEGAL
5711 1100444619 WAITAH 31/12/1960 ADIWERNA RT. 20/05 KAB. TEGAL
5712 1100444620 ENY RUMIATUN 31/05/1967 SINGOSARI IX/8 RT.06/06 KOTA SEMARANG
5713 1100444621 SUTARWO 05/03/1964 DUHKUHAN RT. 02 RW. 15 KAB. KARANGANYAR
5714 1100444624 ROHMIYATI, [Link] 10/11/1967 MARON RT 02/02 KAB. PURWOREJO
5715 1100444625 LARMI 22/11/1960 GAYAM RT.01/10 KAB. SUKOHARJO
5716 1100444628 SUDARYANTI 04/07/1969 SUMBEREJO RT. 02 RW. 10 KAB. KARANGANYAR
5717 1100444630 PAIDI PANE 01/11/1963 SUMBEREJO RT.02 RW.10 KAB. KARANGANYAR
5718 1100444632 PURWATI 10/07/1967 JATEN RT 01 RW 05 KAB. WONOGIRI
5719 1100444633 NGADIKEM 21/06/1962 TANDAN RT. 023 RW. 04 KAB. WONOGIRI
5720 1100444634 MAHMUDAH DJALIL SADAK 01/07/1957 GAMBIRAN RT 003 RW 001 PAMOTAN KAB. REMBANG
5721 1100444636 JUMADI 22/07/1963 DUSUN WOTGLINGGANG RT 02 RW 04 KAB. WONOGIRI
5722 1100444637 FITRI HANDAYANI 10/10/1975 PLOSOREJO RT 05 RW 08 KAB. WONOGIRI
5723 1100444638 RR. EMIARTI 17/08/1961 WOLOGITO RAYA 36E RT.09/01 KOTA SEMARANG
5724 1100444639 IRHAM NUGROHO 13/12/1975 PLOSOREJO RT 05 RW 08 KAB. WONOGIRI
5725 1100444640 SHOLIHUL HADI 17/04/1967 PAGERSARI RT.01 RW.10 KAB. WONOGIRI
5726 1100444641 ROBIATUL ADAWIYAH 03/11/1970 PAGERSARI RT.01 RW.10 KAB. WONOGIRI
5727 1100444642 ENDANG SUPATMI 12/12/1962 KONGKLANGAN 11/05 KAB. KLATEN
5728 1100444646 ASBINI 15/02/1963 GLODOGAN 394 02/09 KAB. KLATEN
5729 1100444647 TUKINO ,DRS 01/08/1960 KONGKLANGAN 11/05 KAB. KLATEN
5730 1100444648 ISTUTIK MARYATI 25/03/1967 BANGSRI RT 01 RW 02 KAB. WONOGIRI
5731 1100444649 ABU SANI 01/01/1963 [Link] RT.01/02 KWAYANGAN KAB. PEKALONGAN
5732 1100444652 DWI AGUS MUJI SUPANTA 10/08/1962 BANGSRI RT 01 RW 02 KAB. WONOGIRI
5733 1100444655 TRI LISTYONO 18/07/1965 BRUMBUNG RT. 04 RW. 07 KAB. WONOGIRI
5734 1100444656 CHOERON 30/06/1974 BERINGIN RT.01/01 KOTA SEMARANG
5735 1100444657 SITI CHUSNUL CHOTIMAH 05/02/1965 BRUMBUNG RT. 04 RW. 07 KAB. WONOGIRI
5736 1100444659 MUNASIROH 24/10/1980 BERINGIN RT.01/01 KOTA SEMARANG
5737 1100444660 SAMINAH MADNGAPINI SANRAJI 10/09/1959 PRASUTAN RT.01/02 KAB. KEBUMEN
5738 1100444661 NANIK NURHAYATI 03/03/1961 WATES KULON RT 03 RW 03 KAB. WONOGIRI
5739 1100444662 SRI SULASTRI SUTIRAN 16/11/1976 BAJOMULYO 4/4 JUWANA KAB. PATI
5740 1100444664 SUHARTONO MAT KARNI 14/12/1963 BAJOMULYO 4/4 JUWANA KAB. PATI
5741 1100444666 TAREHATI 01/07/1963 SIKUMOUL RT 004 RW 005 KAB. BANJARNEGARA
5742 1100444667 RUKANTO SARDJIMIN WASILAH 18/01/1964 BAJOMULYO 1/4 JUWANA KAB. PATI
5743 1100444668 SRI KISMARTINI 21/02/1961 BLIMBING RT.02 RW.02 KAB. WONOGIRI
5744 1100444669 SUPAMI DJARWI SARPI 08/02/1969 BAJOMULYO 1/4 JUWANA KAB. PATI
5745 1100444671 DARSUM 01/07/1961 MANDIRAJA WETAN RT 008 RW 002 KAB. BANJARNEGARA
5746 1100444672 SUGIYANTO 25/08/1957 PERUM KORPRI RT. 02 RW. 13 KAB. KARANGANYAR
5747 1100444673 SURATI 01/07/1965 MANDIRAJA WETAN RT 008/002 KAB. BANJARNEGARA
5748 1100444675 SUBARI 04/03/1961 NGROTO 03/05 KAB. GROBOGAN
5749 1100444678 SUPARMIN 29/07/1969 SROYO RT. 04 RW. 10 KAB. KARANGANYAR
5750 1100444680 SRI WAHYUNINGSIH TASRUN 12/07/1973 KUTOWINANGUN RT. 03. 01 KAB. KEBUMEN
5751 1100444683 TRI HANDAYANI 29/08/1975 WATES KULON RT 02 RW 03 KAB. WONOGIRI
5752 1100444684 WIWIT BIMO SETYAWAN 27/02/1977 WATES KULON RT 02 RW 03 KAB. WONOGIRI
5753 1100444685 ENY YULIATI 02/07/1970 SROYO RT.04 RW.10 KAB. KARANGANYAR
5754 1100444688 NUR CHASANAH 12/08/1978 JEKETRO 02/01 KAB. GROBOGAN
5755 1100444689 PARYANTI 15/10/1977 BANGSRI RT. 04 RW. 02 KAB. WONOGIRI
NO NO. PORSI NAMA TANGGAL LAHIR ALAMAT KAB/KOTA KETERANGAN
5756 1100444691 SARJU 07/10/1971 BANGSRI RT. 04 RW. 02 KAB. WONOGIRI
5757 1100444692 ENI SUKARSIH 09/11/1969 KASIHAN RT.04 RW.01 KAB. WONOGIRI
5758 1100444693 SITI MAIMUNAH 11/09/1969 BATUR 03/01 KAB. KLATEN
5759 1100444694 KHOLIS SOSIAWANTO 01/05/1960 JL. PERWIRA GANG TARUNA RT. 03 RW. 01 KAB. CILACAP
5760 1100444695 WARSINO 24/03/1963 KASIHAN RT.04 RW.01 KAB. WONOGIRI
5761 1100444696 SULASTRI 03/10/1965 JL. PERWIRA GANG TARUNA RT.03 RW.01 KAB. CILACAP
5762 1100444697 JA'FAR YUSUF 03/07/1967 BATUR 03/01 KAB. KLATEN
5763 1100444698 SUKARNI 20/04/1969 KLUWIH RT.07 RW.01 KAB. BATANG
5764 1100444699 NURUL FIRDAUSI 20/05/1973 LEMAH DUWUR RT. 01 RW. 02 KAB. WONOGIRI
5765 1100444700 SUNDARI 19/03/1961 NGROTO 03/05 KAB. GROBOGAN
5766 1100444701 PAINI 10/11/1977 DUSUN KEPUH RT. 02 RW. 07 KAB. WONOGIRI
5767 1100444702 MUHAMMAD ARIEF HIDAYAT 06/08/1989 KARONSIH UTARA NO. 224 RT.02/03 KOTA SEMARANG
5768 1100444703 JIMI ANDREAS 20/04/1973 DUSUN KEPUH RT. 02 RW. 07 KAB. WONOGIRI
5769 1100444707 YUDO SULISTYO 05/10/1965 GINGGANGTANI 02/04 KAB. GROBOGAN
5770 1100444708 ENDANG SULISTYANINGSIH 13/02/1984 WATES KULON RT.04 RW.04 KAB. WONOGIRI
5771 1100444709 ACH MUSLIH AL-KHALIM 16/04/1979 DUSUN WATES KULON RT. 04 RW. 04 KAB. WONOGIRI
5772 1100444710 PARTINI 12/09/1979 BANGSRI RT. 03 RW. 02 KAB. WONOGIRI
5773 1100444711 SLAMET LEGIYO LEGI 04/02/1960 KARANGWOTAN 7/3 PUCAKWANGI KAB. PATI
5774 1100444712 ASYKURI 25/06/1976 BANGSRI RT. 03 RW. 02 KAB. WONOGIRI
5775 1100444713 ANIK RISTIWANINGSIH 20/05/1972 KRAJAN 01/01 KAB. GROBOGAN
5776 1100444717 SANSUWITO 14/12/1960 BOBOTSARI RT 01 RW 05 KAB. PURBALINGGA
5777 1100444718 RIN IKE ARIANI 31/01/1958 [Link] MUKTI TGH 4/135 RT.03/03 KOTA SEMARANG
5778 1100444720 ALIZAR ISNA 08/04/1971 JL. SUTOYO GG. VI /17 RT 3/I KDGWULUH KAB. BANYUMAS
5779 1100444721 MASRIAH 19/11/1958 MANGUNEGARA RT 02 RW 01 KAB. PURBALINGGA
5780 1100444722 HARSONO 02/01/1966 GINGGANGTANI 01/01 KAB. GROBOGAN
5781 1100444724 AULIA FAUZIAH ALDI 25/06/2000 [Link] SUTOYO [Link]/17 RT. 3/1 KAB. BANYUMAS
5782 1100444725 MAEMUNAH 10/12/1971 KARANGJOMPO RT.01/04 TIRTO KAB. PEKALONGAN
5783 1100444726 NISA ARIFA ALDI 28/06/1999 [Link] [Link] /17 RT 3/1 KEDUNGWULUH KAB. BANYUMAS
5784 1100444728 RAHMINI HADI 24/12/1970 [Link] SUTOYO [Link] NO.17 RT. 3/1 KAB. BANYUMAS
5785 1100444731 AMAT ROCHMAT 01/01/1968 KARANGJOMPO RT.01/04 TIRTO KAB. PEKALONGAN
5786 1100444732 ACHYANI 10/02/1960 ARYA MUKTI TENGAH IV/135 RT.03/03 KOTA SEMARANG
5787 1100444733 MUSYAFA' 08/05/1978 LATAK 02/04 KAB. GROBOGAN
5788 1100444734 ABDULLAH 25/10/1957 [Link] GEDE RT.13/04 KALIMOJOSARI KAB. PEKALONGAN
5789 1100444735 YUHANAH 06/07/1966 [Link] GEDE RT.13/04 KALIMOJOSARI KAB. PEKALONGAN
5790 1100444737 ANISAH 08/10/1969 [Link] RT.01/04 PANINGGARAN KAB. PEKALONGAN
5791 1100444738 SUMARTI MARWI WAGINAH 02/08/1965 KARANGWOTAN 7/3 PUCAKWANGI KAB. PATI
5792 1100444739 MAKMUR 01/07/1960 [Link] RT.01/04 PANINGGARAN KAB. PEKALONGAN
5793 1100444740 LASMINAH 18/02/1963 BOBOTSARI RT 01 RW 05 KAB. PURBALINGGA
5794 1100444741 ZAINAB KASDI SUTOWAGE 07/01/1965 SIDIGEDE 12/03 KAB. JEPARA
5795 1100444742 NUR HAMUDIN 06/06/1974 LEMAH DUWUR RT. 01 RW. 02 KAB. WONOGIRI
5796 1100444744 AJI AGUNG SUSENO 20/02/1971 JATISABA RT 01 RW 01 KAB. PURBALINGGA
5797 1100444745 YULIATI 01/07/1974 JATISABA RT 01 RW 01 KAB. PURBALINGGA
5798 1100444747 SITI ISYAROH IDRUS 18/07/1977 PASEDAN RT 001 RW 001 BULU KAB. REMBANG
5799 1100444748 SLAMET 09/10/1958 GAYAM RT. 01/10 KAB. SUKOHARJO
5800 1100444750 ROFI'AH 14/10/1970 NGADIPURWO RT 02/01 KAB. BLORA
5801 1100444751 FATONIK 12/07/1959 NGADIPURWO RT 02/01 KAB. BLORA
5802 1100444754 DRS. PUDJIONO 12/12/1962 PERUMAHAN ARGOPENI NO 26 RT. 07/05 KAB. PURWOREJO
5803 1100444756 KASRI SATMOKO 03/07/1958 [Link] RAYA 36-E RT.09/01 KOTA SEMARANG
5804 1100444757 PRANOTO 24/02/1976 JL. KASTURI 2 KOMP. CITRA GOLF RAYA I BLOK D-15
[Link]
PURWOREJO
5805 1100444758 TRIYUNI SURANINGSIH 06/08/1963 MAGERU RT 02 RW 02 KAB. SRAGEN
5806 1100444760 WANGISAH DULAH HAMDI 15/05/1962 LOGEDE RT. 02. 01 KAB. KEBUMEN
5807 1100444762 NASOAH 14/08/1957 DUSUN DANASRI RT. 01 RW. 5 KAB. CILACAP
5808 1100444768 HERMAWAN SULISTIYANTA 12/12/1965 JAREYAN RT.01 RW.04 KAB. MAGELANG
5809 1100444769 ELFI MAESAROH 25/03/1973 PURWANEGARA RT.1/7 KAB. BANYUMAS
5810 1100444770 TRI SULISTYORINI 20/04/1972 KUTOARJO RT 07/05 KAB. PURWOREJO
5811 1100444771 MOHAMAD MUHYI KHOLIDIN 01/01/1966 LOGEDE RT. 03. 02 KAB. KEBUMEN
5812 1100444773 SAMINO 04/04/1965 BANGSRI RT.02 RW.02 KAB. WONOGIRI
5813 1100444774 SRI KHOLIFAH 08/08/1967 JAREYAN 01/04 KAB. MAGELANG
5814 1100444775 YAIDA RUMIYATI MUHAIMIN 23/10/1957 PAJEKSAN 2/2 JUWANA KAB. PATI
5815 1100444776 SUWARSI 31/12/1961 JUMAPOLO RT. 04 RW. 01 KAB. KARANGANYAR
5816 1100444778 PURWATI 07/07/1966 PERUM KPKN C 116 RT.05 RW.08 KAB. PURWOREJO
5817 1100444779 RUSMINI 28/02/1967 SOKAWERA RT.04 RW.03 KAB. BANYUMAS
5818 1100444780 SUYATMI 03/10/1975 BANGSRI RT.02 RW.02 KAB. WONOGIRI
5819 1100444784 ENI KUSWATI SUBANA 14/12/1975 NGEMBAL KULON RT 05 RW 01 KAB. KUDUS
5820 1100444787 SITI CHOTIJAH 11/11/1959 TERWIDI RT.02/04 KOTA SEMARANG
5821 1100444789 DIDIK WIDIYONO PARDJONO 04/06/1976 NGEMBAL KULON RT 05 RW 01 KAB. KUDUS
5822 1100444792 ERNAWATI 11/01/1962 GIRIMULYO RT 02/02 KAB. PURWOREJO
5823 1100444795 DWININGSIH YANUWATI 07/01/1972 NGEMPLAK 01/03 KAB. KLATEN
5824 1100444796 KUSNO UTOMO 09/07/1970 SABRANG WETAN RT. 02 RW. 14 KAB. KARANGANYAR
5825 1100444797 SOFIYAH SUPRATNO NGADIMIN 08/11/1964 TAHUNAN 05/03 KAB. JEPARA
5826 1100444798 MARSONO 05/07/1963 NGEMPLAK 01/03 KAB. KLATEN
5827 1100444800 SRI MARGIYANI 12/12/1972 SABRANG WETAN RT. 02 RW. 14 KAB. KARANGANYAR
5828 1100444806 SUMIYATI 12/10/1972 JATISABA RT. 6/4 KAB. BANYUMAS
5829 1100444807 MUHAMMAD AMIR SUATMAJI 08/06/1960 JATISARI KOTA SEMARANG
5830 1100444808 NOOR ROCHIS ACH SIDIQ 05/09/1959 TANJUNGKARANG RT 04 RW 04 KAB. KUDUS
5831 1100444809 NOOR CHASANAH KASMANI 04/07/1967 TANJUNGKARANG RT 04 RW 04 KAB. KUDUS
5832 1100444810 SLAMET 16/08/1968 PAKIS KIDUL RT.02 RW.02 KAB. MAGELANG
5833 1100444811 BANIYAH 21/10/1960 DUSUN CIKALONG RT. 04 RW. 07 KAB. CILACAP
5834 1100444812 SODERI 09/09/1963 JATISABA RT.06 RW.04 KAB. BANYUMAS
5835 1100444813 RUDY HERMAWAN PRIHATMANTO 28/12/1970 MIJEN RT 01 RW 07 KAB. KUDUS
5836 1100444814 BAMBANG MARGONO,SH,MM 12/06/1959 BEKU 03/04 KAB. KLATEN
5837 1100444815 SARWONO HADI SAPUTRO 30/04/1964 TROWANGSAN RT. 02 RW. 14 KAB. KARANGANYAR
5838 1100444816 DIAN RINI HANDAYANI 29/11/1976 MIJEN RT.01 RW.07 KAB. KUDUS
5839 1100444817 FATIN FAIZAH 17/11/1994 TROWANGSAN RT. 02 RW. 14 KAB. KARANGANYAR
5840 1100444818 NUNUNG ARBIT RODHIYAH 05/12/1979 LATAK 02/04 KAB. GROBOGAN
5841 1100444819 BURHANUDIN 13/01/1969 DERMASANDI RT.01/01 PANGKAH KAB. TEGAL
5842 1100444820 TRI BUDI ASTUTI WAHYUNINGSIH 09/01/1962 BEKU 03/04 KAB. KLATEN
5843 1100444821 UMMU SAADAH 16/06/1972 DERMASANDI RT.01/01 PANGKAH KAB. TEGAL
5844 1100444824 SRI WINARSIH 22/02/1968 TAMBAKAN 03/02 KAB. MAGELANG
5845 1100444825 MUNIR 17/08/1973 NGRUKI RT.06/17 KAB. SUKOHARJO
5846 1100444826 SITI CHOTIJAH 07/03/1969 NGRUKI RT.06/RW.17 KAB. SUKOHARJO
5847 1100444827 SUTIYEM 31/12/1959 GAWANAN RT. 02/RW.06 KAB. SUKOHARJO
5848 1100444829 SRI RAHAYU 09/05/1965 RANDUSARI 02/08 KAB. GROBOGAN
5849 1100444830 SLAMET 12/09/1962 BRUMBUNG RT 17 KAB. SRAGEN
5850 1100444831 SULMAN TAPSIR SANMARDI 28/12/1963 BUMIREJO RT. 05. 06 KAB. KEBUMEN
5851 1100444832 JUMADI 03/04/1960 RANDUSARI 02/08 KAB. GROBOGAN
5852 1100444833 MUHAMMAD LUTHFI IHSANUDIN 28/06/1992 BRUMBUNG RT 17 KAB. SRAGEN
5853 1100444834 MUKSONAH TURSIYO SAMIREJO 04/07/1968 PERUM MEGA BIRU II RT.05/06 KAB. KEBUMEN
5854 1100444836 SUHARSIH 18/07/1961 JOYOTAKAN RT.01 RW.01 KOTA SURAKARTA
5855 1100444838 SRI MURYATI 04/03/1962 LOANO RT. 03/01 KAB. PURWOREJO
5856 1100444841 NUR KHASAN SETYADIKA 30/03/1984 KAPOHAN RT. 02 RW. 06 KAB. KARANGANYAR
5857 1100444843 TITIK SUMARWATI 19/12/1958 KAPOHAN RT. 02 RW. 06 KAB. KARANGANYAR
5858 1100444844 NUR HIDAYATI 24/03/1962 SUKOHARJO RT.03/RW.02 KAB. SUKOHARJO
5859 1100444848 DARWITO 02/01/1972 MIJAHAN RT 07/01 KAB. SRAGEN
5860 1100444850 ANIK MULYANI 22/08/1986 MIJAHAN RT 07/01 KAB. SRAGEN
5861 1100444851 MARFUATUN 06/06/1983 JUNGKAL 03/02 KAB. GROBOGAN
5862 1100444852 SRI MURYANI 29/11/1971 JETIS KRAGILAN RT 06 RW 01 KAB. BOYOLALI
5863 1100444854 BISRI MUSTOFA 10/12/1969 JUNGKAL 03/02 KAB. GROBOGAN
5864 1100444856 RUSWANTO 30/06/1960 MADU ASRI C. 155 RT. 04 RW. 09 KAB. KARANGANYAR
5865 1100444859 HERRY HASTUTI, SP 21/09/1968 MADU ASRI C. 155 RT. 04 RW. 09 KAB. KARANGANYAR
5866 1100444860 JUMIATI 03/08/1961 TLOGOREJO RT.01/06 KAB. DEMAK
5867 1100444863 ROMADHON 17/08/1970 PERUM SULFA REGENCY NO.27 RT.07/01 KAB. DEMAK
5868 1100444866 NUR AINI QOMARIAH 02/07/1979 PERUM SULFA REGENCY NO.27 RT.07/01 KAB. DEMAK
5869 1100444867 SUMINI 09/06/1962 SAMBONG BANGI 01/02 KAB. GROBOGAN
5870 1100444868 TITIK SUMIYATI 01/11/1959 PONGGOL I RT. 06/02 KAB. MAGELANG
5871 1100444869 KHOMSATUN 08/02/1967 SAMBONG BANGI 01/02 KAB. GROBOGAN
5872 1100444870 SURATIN 03/02/1963 TUKSONGO RT.05 RW.02 KAB. MAGELANG
5873 1100444871 AKHMAD SHOLIKIN 20/05/1960 SAMBONG BANGI 01/02 KAB. GROBOGAN
5874 1100444872 JUHARI SINGGIH MARTONO 02/02/1962 JL. WR SUPRATMAN NO.017 RT 02/05 KAB. SRAGEN
5875 1100444877 RUMIYATI 10/05/1970 JABUNG 01/01 KAB. GROBOGAN
5876 1100444878 RASIDI 05/07/1960 KARANGKEMIRI RT 02 RW01 KAB. PURBALINGGA
5877 1100444879 HABIB ALI ZAENAL ABIDIN 15/08/1958 JL. KARTINI NO.25 RT.09 RW.02 KOTA TEGAL
5878 1100444883 TAUFIK ROCHMAN 26/01/1978 [Link] TIMUR 02/07 KAB. GROBOGAN
5879 1100444884 SUJIRAH 01/07/1965 KARANGKEMIRI RT 02 RW01 KAB. PURBALINGGA
5880 1100444886 SITI SARIAH NURHIDAYAH 01/08/1984 LK. KURIPAN TIMUR 02/07 KAB. GROBOGAN
5881 1100444887 MASUNGEP 20/01/1962 LINGK BANYUKEMBAR RT02 RW02 KAB. TEMANGGUNG
5882 1100444889 NAHROWI 08/02/1969 JABUNG 01/01 KAB. GROBOGAN
5883 1100444891 SAMSUN 25/03/1967 DK. DUWET RT.01/RW.04 KAB. KENDAL
NO NO. PORSI NAMA TANGGAL LAHIR ALAMAT KAB/KOTA KETERANGAN
5884 1100444895 SUPRIHATI 03/07/1974 DK. DUWET RT.01/RW.04 KAB. KENDAL
5885 1100444898 SUNARDI 16/06/1963 NGROTO 04/01 KAB. GROBOGAN
5886 1100444902 YULIANA EKA WARDHANI 26/09/1977 KUTOHAJRO 5/1 PATI KAB. PATI
5887 1100444904 KASPIAH 13/02/1960 NGROTO 02/01 KAB. GROBOGAN
5888 1100444905 MUHAMMAD ASMAWI ROHMAN 06/01/1978 TERMAS 01/04 KAB. GROBOGAN
5889 1100444907 UMI MUHARSIH 02/01/1982 TERMAS 01/04 KAB. GROBOGAN
5890 1100444908 MOH YAENURI 11/04/1960 KRAJAN 03/01 KAB. GROBOGAN
5891 1100444909 HANDRI EKO UTOMO 18/04/1975 KUTOHARJO 5/1 PATI KAB. PATI
5892 1100444910 NURHIDHAYAH 25/10/1980 SUMBER RT 002 RW 001 SUMBER KAB. REMBANG
5893 1100444912 SRI MULYONO 09/08/1960 SRANTEN RT 01 RW 02 KAB. BOYOLALI
5894 1100444913 SRI SUMIATI 11/09/1961 SRANTEN RT 01 RW 02 KAB. BOYOLALI
5895 1100444914 HARYANTI 16/02/1970 JATILUHUR NO.221A RT.01/03 KOTA SEMARANG
5896 1100444915 ABDUL HALIM SAKIDIN 27/07/1969 GEMPOLSSARI 1/3 GABUS KAB. PATI
5897 1100444916 RUSLANI 21/06/1960 BULAKWARU RT.05/01 TARUB KAB. TEGAL
5898 1100444918 MUHAMAD SAID 24/07/1969 JATILUHUR NO.221A RT.01/03 KOTA SEMARANG
5899 1100444920 MUTI'AH 14/05/1962 BULAKWARU RT.05/01 TARUB KAB. TEGAL
5900 1100444921 MUCHAMAD MUSLIM 31/12/1960 GERI 01/08 KAB. GROBOGAN
5901 1100444922 SUPARMI 31/12/1960 GERI 01/08 KAB. GROBOGAN
5902 1100444923 SUPRIYATI SURAWI MUNASIH 06/08/1979 GEMPOLSARI 1/3 GABUS KAB. PATI
5903 1100444924 KURDI KASTURI KUSEN 07/05/1958 GUNUNG MULYO RT 004 RW 001 SARANG KAB. REMBANG
5904 1100444925 MUNAWAROH 23/03/1966 KARANGANOM RT.10/RW.02 KAB. KENDAL
5905 1100444927 THOYIBAH SYAEBANI MADMARWAN 11/03/1965 KEDAWUNG RT. 04. 02 KAB. KEBUMEN
5906 1100444928 AGUS MA'SUM, S AG 04/05/1973 GURAWAN RT.01 RW.09 KOTA SURAKARTA
5907 1100444929 RAMINAH 17/09/1964 KEMUKTEN RT.02/03 KERSANA KAB. BREBES
5908 1100444930 NUR SITI FAIZAH 29/05/1972 DADIREJO RT.01/02 TIRTO KAB. PEKALONGAN
5909 1100444932 MAHMUDAH , SPD 04/05/1973 GURAWAN RT.01 RW.09 KOTA SURAKARTA
5910 1100444933 WARBI 10/03/1967 DADIREJO RT.01/02 TIRTO KAB. PEKALONGAN
5911 1100444935 MUJAZIM KHAMAMI MURSID 10/03/1965 KEDAWUNG RT.04/02 KAB. KEBUMEN
5912 1100444936 WASTI ARIPFAENI 10/08/1964 PABUARAN RT. 04/02 SALEM KAB. BREBES
5913 1100444937 LASTRI WIDAYATI 08/02/1965 SAWAHAN RT 01 RW 08 KAB. WONOGIRI
5914 1100444938 SUTAMI 06/05/1962 KRAPYAK RT.02/RW.07 KAB. SUKOHARJO
5915 1100444940 MUGIYANTO 17/06/1961 KRAPYAK RT. 02/07 KAB. SUKOHARJO
5916 1100444943 SUPADI 24/04/1958 KARANGANOM RT.10/RW.02 KAB. KENDAL
5917 1100444947 TITIK AGIS YANTI 04/08/1980 SALAK II/12 RT.06/07 KOTA SEMARANG
5918 1100444948 BAMBANG BUDI SUGIHARTO, SE 12/05/1978 SALAK II/12 RT.06/07 KOTA SEMARANG
5919 1100444949 SRI RAHAYU SLAMET 25/01/1963 JL BONCIS RT 04 RW 10 KAB. BOYOLALI
5920 1100444950 PARISIH SUNDOYO SUNDAR 06/11/1960 SIDOMULYO 6/2 GUNUNGWUNGKAL KAB. PATI
5921 1100444951 UMIYATI SUPARNI SUGI PRAWITI 20/06/1960 JL BONCIS RT 04 RW 10 KAB. BOYOLALI
5922 1100444955 MUKHOZIN 05/09/1963 TLOGOPUCANG SELATAN RT 001/004 KAB. TEMANGGUNG
5923 1100444959 SULASTRI 15/05/1979 WEDING RT.02/07 KAB. DEMAK
5924 1100444960 JASMIRAH SUTAHAR DARMIN 10/10/1963 SUMBERAGUNG RT 001 RW 001 PANCUR KAB. REMBANG
5925 1100444961 NAILIS SA'ADATI MUNA 04/02/2001 WEDING RT 002 / RW 007 KAB. DEMAK
5926 1100444964 DYAH HUTAMI PHBD 14/03/1965 GEDANGAN 02/07 KAB. KLATEN
5927 1100444967 SETIJAWATI NOEGRAENI, DRH 27/12/1965 KENCONOWUNGU II/20 RT.02/01 KOTA SEMARANG
5928 1100444968 MOHAMAD SALAM,[Link] 02/03/1964 GEDANGAN 02/07 KAB. KLATEN
5929 1100444970 MUALTIN 03/08/1957 TLOGOPUCANG SELATAN RT 004 RW 004 KAB. TEMANGGUNG
5930 1100444972 MOH AMININ 08/11/1971 GEDANGANAK RT.40 RW.06 KAB. SEMARANG
5931 1100444973 UMI SYAKIROH 26/07/1972 GEDANGANAK RT.04 RW.06 KAB. SEMARANG
5932 1100444974 MUKHLIS 18/07/1971 KRAJANBAWAH RT.02 RW.01 KOTA SEMARANG
5933 1100444975 ALI ROSAT 04/03/1969 SIDOLUHUR V RT.03/05 KOTA SEMARANG
5934 1100444976 ENDANG MURTIASIH 05/07/1957 LEDOK RT 01 RW 01 KAB. BOYOLALI
5935 1100444977 MIFTAHURROHMAH 04/08/1977 KRAJAN BAWAH RT.02 RW.01 KAB. SEMARANG
5936 1100444985 ZUMAROH 16/01/1975 JL. YUDHA BAKTI 81 RT. 4 RW. 1 KOTA PEKALONGAN
5937 1100444987 QUWAIS ALQORNI SAHARA 17/01/1991 JL. PELITA I GBI A. 87 RT. 3 RW. 10 PEKALONGANKOTA PEKALONGAN
5938 1100444988 RUSMINAH AMAD SUYADI 10/11/1961 JATISARI RT .05. 01/PERUM JATISARI INDAH KAB. KEBUMEN
5939 1100444989 SRI HARTATI 13/12/1963 JL. PELITA I GBI A. 87 RT. 3 RW. 8 KOTA PEKALONGAN
5940 1100444990 JAMIYAH 04/05/1973 CONDONGCAMPUR RT.03 RW.02 KAB. BANJARNEGARA
5941 1100444993 RINI KIRNOWATI,IR 01/01/1969 SAMBONG WOROSARI II NO.23 RT.02 RW.08 KAB. BATANG
5942 1100444994 MOCH ZAINUL WAHIBIN 13/06/1971 JL. YUDHA BAKTI 81 RT. 4 RW. 1 KOTA PEKALONGAN
5943 1100444996 NITI 22/03/1971 TERMAS 01/03 KAB. GROBOGAN
5944 1100444997 MUAMINDAH UMAR SAKIDIN 10/11/1958 CEPOGO 05/10 KEC. KEMBANG KAB. JEPARA
5945 1100445000 DIYAH TRI WAKHIDAH 12/11/1977 TERMAS 01/03 KAB. GROBOGAN
5946 1100445001 MUSYAWIROH 19/03/1969 KEREP RT 02 RW 04 KAB. BOYOLALI
5947 1100445007 PATIYEM 31/12/1959 BARONG RT 05/02 KAB. SRAGEN
5948 1100445008 SARMI 29/09/1961 PANDOWO RT 01/06 KAB. SUKOHARJO
5949 1100445009 DONNY HARDONO SPS, DR 23/02/1963 JL. BASUKI RAHMAT NO.24 RT.03 RW.13 KOTA SURAKARTA
5950 1100445011 SRI SUCIATI DIRJO SUPARDI 09/05/1961 NGEMBES 2/11 GEMBONG KAB. PATI
5951 1100445012 SITI MARDIYAH MIRAN SAN YUSUP 14/07/1977 SIDOMULYO RT.01/01 KAB. KEBUMEN
5952 1100445013 IMAM SUPRAYITNO SUTARMAN 27/02/1973 SIDOMULYO RT.01/01 KAB. KEBUMEN
5953 1100445014 NANANG SAMSUL BAHRI 20/06/1986 TERMAS 1/3 KAB. GROBOGAN
5954 1100445015 RUKIMAH 01/07/1958 JLAMPRANG RT.03 RW.01 KAB. BATANG
5955 1100445017 TAAT SETYO INDARWATI 16/06/1986 TERMAS 01/03 KAB. GROBOGAN
5956 1100445019 LUKMAN CHAKIM 27/11/1962 BRUNOREJO RT. 01/02 BRUNO KAB. PURWOREJO
5957 1100445020 LISTANTO KURNIAWAN 30/05/1969 JL. SIDOMUKTI BARAT 3NO.3 RT.01 RW.05 KOTA SURAKARTA
5958 1100445022 ACHMAD KOMARI 12/06/1960 KARANGWULUH RT. 02/03 KUTOARJO KAB. PURWOREJO
5959 1100445023 EVA WINANGSIH 18/05/1974 BOJONG RT. 04/01 KAB. TEGAL
5960 1100445024 SUMARSIH 09/03/1971 JL. SIDOMUKTI BARAT NO.3 RT 01 RW 05 KOTA SURAKARTA
5961 1100445025 UUNG KHUMEDI 30/10/1963 BOJONG RT.04/01 KAB. TEGAL
5962 1100445031 MUKRI 21/06/1962 TERMAS 01/03 KAB. GROBOGAN
5963 1100445032 ROZIQIN 23/04/1974 KALIMANGGIS [Link] RT.01 RW.02 KAB. BATANG
5964 1100445034 HIDAYAH SOFIATI 14/07/1967 KEPUH RT 01/01 KAB. PURWOREJO
5965 1100445035 MARLAN AL FARKHAN 27/12/1980 SAMBUNG 04/05 KAB. GROBOGAN
5966 1100445038 SYAMSUL HUDA 10/05/1979 GINGGANG TANI 01/03 KAB. GROBOGAN
5967 1100445040 ADIB MANSURON 05/06/1965 KARANGSARI 03/04 KAB. GROBOGAN
5968 1100445041 CIK ENI 14/05/1965 KARANGWULUH RT 02/03 KAB. PURWOREJO
5969 1100445042 RIDWAN KHOIRONI 06/05/1965 CALUK 05/09 KAB. GROBOGAN
5970 1100445045 NINIK MARYATI 22/05/1984 SAMBONG 04/05 KAB. GROBOGAN
5971 1100445046 MURSAM, S. PD 03/01/1961 NGAWEN RT 02/05 KAB. BLORA
5972 1100445047 RIYADI 05/11/1973 JEKETRO 02/01 KAB. GROBOGAN
5973 1100445048 PATONI 07/04/1971 DOLOGAN RT 02/01 KAB. BLORA
5974 1100445049 PURYATI JAMIN BIRAH 20/08/1967 KUDUKERAS 2/2 JUWANA KAB. PATI
5975 1100445050 SUNANDAR 12/10/1963 DOLOGAN RT 02/01 KAB. BLORA
5976 1100445051 SUTARTI 26/02/1958 GUNUNG WULAN 09/10 KAB. GROBOGAN
5977 1100445052 UMI KHOLIA SUMADI 13/07/1987 KARANG 3/2 JUWANA KAB. PATI
5978 1100445053 MASRIAH 05/09/1965 NGAWEN RT 02/05 KAB. BLORA
5979 1100445054 SITI MAS'ULAH 27/08/1972 LIMPUNG [Link] RT.01 RW.01 KAB. BATANG
5980 1100445056 NGANO MASKUROZI TARLAN 14/04/1975 KARANG 3/2 JUWANA KAB. PATI
5981 1100445058 SUPATMI 30/12/1971 JAGONG RT 03/03 KAB. BLORA
5982 1100445060 SUWARNO 31/12/1962 JAGONG RT 03/03 KAB. BLORA
5983 1100445061 PURWOKO 30/06/1966 CANDI TEMBAGA SELATAN I/720 RT.10/05 KOTA SEMARANG
5984 1100445062 DASRI 31/12/1959 DS. GOT PUTUK RT 06/02 KAB. BLORA
5985 1100445063 SURAJI,SPD 06/03/1970 TANGKISAN POS 02/01 KAB. KLATEN
5986 1100445064 NARIYANTO THOYIB RUSNI 03/03/1959 TANJUNGANOM 4/4 GABUS KAB. PATI
5987 1100445065 PARTINI 06/08/1963 JAGONG RT 05/03 KAB. BLORA
5988 1100445066 SUGINEM 31/12/1958 SRI REJEKI IV RT.08/02 KOTA SEMARANG
5989 1100445067 SUPARMAN 05/07/1957 JAGONG RT 05/03 KAB. BLORA
5990 1100445068 UMI BANDIYAH 25/10/1968 [Link] TEMBAGA SLT I/720 RT.10/05 KOTA SEMARANG
5991 1100445069 DIYAH INDIRIJA,SPD 16/09/1970 TANGKISAN POS 02/01 KAB. KLATEN
5992 1100445070 ALI ROSIDI 01/09/1983 KRAJAN BARAT RT. 01 RW. 02 KAB. PEMALANG
5993 1100445071 LAELA ULFAH 08/08/1987 KRAJAN BARAT RT. 01 RW. 02 KAB. PEMALANG
5994 1100445075 ARDIYATI SUPARTO TARMI 16/08/1964 TANJUNGANOM 4/4 GABUS KAB. PATI
5995 1100445076 SRIYANTO,SPD 21/05/1962 JURANGJERO 02/01 KAB. KLATEN
5996 1100445078 AKHMAD WIDODO 13/03/1982 WIDODAREN RT.48 RW.07 KAB. PEMALANG
5997 1100445079 TRI RESPATIWI CHASANAH 16/06/1966 JURANGJERO 02/01 KAB. KLATEN
5998 1100445080 ENDANG SRI KURNIATUN 14/08/1965 KEDUNGSARI RT05 RW 06 KOTA MAGELANG
5999 1100445081 ZAENAL MUTTAQIN 16/07/1982 BANDUNG RT. 01/08 BUMIAYU KAB. BREBES
6000 1100445082 WAHYU DWI APRIYANTO 14/04/1986 PLAMONGANSARI RT 001 / RW 001 KOTA SEMARANG
6001 1100445083 RISKIYAH ,AMD 23/03/1980 KAUMAN [Link] RT.02 RW.06 KAB. BATANG
6002 1100445085 BAMBANG IRIANTO 29/11/1958 PLAMONGANSARI RT.01/01 KOTA SEMARANG
6003 1100445086 ARI WIBISONO 05/04/1965 KEDUNGSARI RT 05 RW 06 KOTA MAGELANG
6004 1100445087 IWAN SUMARNO 08/02/1980 DSN SENENG II RT.03/03 BANYUROJO MERTOYUDAN KOTA SURAKARTA
6005 1100445088 SAUPAH SUKAIRI SUMIDJAN 07/11/1959 KEMADU RT 001 RW 005 SULANG KAB. REMBANG
6006 1100445089 ARIEF BUDIMAN, AMD 07/08/1978 KAUMAN [Link] RT.02 RW.06 KAB. BATANG
6007 1100445090 MUTI'AH SUATMO ASTRO 11/02/1959 PRAGEN RT 005 RW 001 PAMOTAN KAB. REMBANG
6008 1100445093 MUCHAMAD ASHURI 19/05/1971 PIKATAN RT 04 RW 03 KAB. TEMANGGUNG
6009 1100445095 FATMAWATI 06/07/1966 KLUWUT RT.01/12 BULAKAMBA KAB. BREBES
6010 1100445098 EDY WIYONO 27/09/1964 TEGAL REJO RT 07 RW05 KAB. BOYOLALI
6011 1100445099 ANASIH RACHMAWATI,DR 17/01/1971 [Link] B-IV/13-14 RT.09/01 KOTA SEMARANG
NO NO. PORSI NAMA TANGGAL LAHIR ALAMAT KAB/KOTA KETERANGAN
6012 1100445100 RINI 10/08/1972 TEGALREJO RT 07 RW 05 KAB. BOYOLALI
6013 1100445102 ANTON MARTONO 13/03/1961 PURWAREJA RT003/008 KAB. BANJARNEGARA
6014 1100445103 PRATIKNYA,SH,MH 28/02/1966 [Link] B-IV/13-14 RT.09/01 KOTA SEMARANG
6015 1100445104 RUNIATI 18/08/1962 PURWOREJO RT.08 RW.08 KAB. BANJARNEGARA
6016 1100445105 SARTIMAH 17/05/1968 NGROTO 04/01 KAB. GROBOGAN
6017 1100445107 ROJINGUN,SH 26/04/1969 [Link] SELATAN IX-A/22 RT.04/03 KOTA SEMARANG
6018 1100445109 YUNI SAPTONO 21/06/1969 KRASAK 04/07 KAB. GROBOGAN
6019 1100445113 SAHAL MAHFUD DIRJO 21/06/1978 MULYOHARJO 01/05 KAB. JEPARA
6020 1100445116 SITI KHOTIMAH 30/01/1969 KARANGTALUN 05/06 KAB. MAGELANG
6021 1100445117 MARFUAH MAKSUN SALAMUN 15/03/1979 MULYOHARJO 01/05 KAB. JEPARA
6022 1100445118 SUPARTA,DRS 17/03/1963 GATAK 01/02 KAB. KLATEN
6023 1100445121 SUGIYATMI 06/08/1964 GATAK 01/02 KAB. KLATEN
6024 1100445122 SRI LETTY 10/09/1974 [Link] RT.01/04 YOSOREJO SIWALAN KAB. PEKALONGAN
6025 1100445124 ALI 05/07/1970 [Link] RT.01/04 YOSOREJO SIWALAN KAB. PEKALONGAN
6026 1100445127 ENY HASTUTI 02/08/1982 PULOSARI RT.01 RW 11 KAB. WONOGIRI
6027 1100445128 SAMSUL, [Link], [Link] 06/03/1973 TAMAN RT.009/004 TAMAN GRUJUGAN BONDOWOSO
KAB. PURBALINGGA
6028 1100445131 PURWOKO 19/09/1962 WONOSARI RT.05/RW.04 KAB. KENDAL
6029 1100445133 SITI MUSRIFAH 12/10/1970 WONOSARI RT.05/RW.04 KAB. KENDAL
6030 1100445134 RACHMAWATI OKTAYANINGSIH 22/10/1979 GALIH RT.02/RW.01 KAB. KENDAL
6031 1100445135 WIDODO 15/08/1963 TEGALSRUNI RT 14 RW 03 KAB. BOYOLALI
6032 1100445136 KHUMAINI 21/04/1980 ADINUSO RT.05 RW.02 KAB. BATANG
6033 1100445139 RIZKA PRASETYO AJI 04/10/1993 SEKURO 05/01 KAB. JEPARA
6034 1100445141 LUKMAN HAKIM 15/05/1976 GALIH RT.02/RW.01 KAB. KENDAL
6035 1100445142 SUDARMI 25/12/1964 TEGAL SRUNI RT 10 RW 03 KAB. BOYOLALI
6036 1100445144 MARFUNGAH KAMSI MUSLIMIN 09/01/1971 KARANGDUWUR RT. 02. 02 KAB. KEBUMEN
6037 1100445146 KRISIDA RATNANINGRUM 29/01/1983 ADINUSO RT.05 RW.02 KAB. BATANG
6038 1100445148 SUBAKTI 08/04/1961 [Link] BALAIDESA NO.27 RT.02/02 KOTA SEMARANG
6039 1100445150 MUNJIAH 01/07/1962 SUMAMPIR RT 10 RW 02 KAB. PURBALINGGA
6040 1100445152 SUYATMI 25/01/1960 JURANGJERO RT 09 RW 03 KAB. WONOSOBO
6041 1100445153 MUHADI 20/02/1959 JURANGJERO RT 09 RW 03 KAB. WONOSOBO
6042 1100445154 TITI INDRIASTUTI 30/10/1967 [Link] BALAIDESA NO.27 RT.02/02 KOTA SEMARANG
6043 1100445157 MUDRIAH 20/10/1966 GONDANG RT 13 RW 03 KAB. WONOSOBO
6044 1100445158 ROJIAN 05/07/1979 BROKOH RT 01 RW 01 KAB. WONOSOBO
6045 1100445159 ENI SUPRIYATI 10/11/1979 BROKOH RT 01 RW 01 KAB. WONOSOBO
6046 1100445160 SUMARLAN PAERAN TROWARIJAN 03/11/1963 GULANG RT 03 RW 01 KAB. KUDUS
6047 1100445162 ALI IKSAN IMAM 03/03/1962 SEKURO 05/01 KAB. JEPARA
6048 1100445163 AHMAD MUSTOFA 11/03/1958 GONDANG RT 06 RW 02 KAB. WONOSOBO
6049 1100445164 RAONDAH 07/03/1963 CANDIARENG RT.03 RW.03 KAB. BATANG
6050 1100445165 RUMIYATI HADI JUMARI 31/12/1971 GULANG RT 03 RW 01 KAB. KUDUS
6051 1100445167 KARNI 28/11/1960 GONDANG RT 06 RW 02 KAB. WONOSOBO
6052 1100445169 CHAYATUN 07/08/1958 LINGGAPURA RT. 04/ 01 TONJONG KAB. BREBES
6053 1100445172 ISKANDAR 07/07/1958 JAGALAN 06/03 KAB. KLATEN
6054 1100445173 SITI NOOR ASIYAH 11/01/1976 UNDAAN KIDUL RT 04 RW 04 KAB. KUDUS
6055 1100445174 ABDUL KARIM 07/08/1963 DK. SERUT RT 03/02 KAB. BLORA
6056 1100445175 SURATI 31/12/1963 LONING RT.12 RW.02 KAB. PEMALANG
6057 1100445177 RUHKAYATI 11/10/1970 DUKUH SERUT RT 003 / RW 001 KAB. BLORA
6058 1100445178 TOHIROH 10/07/1965 KLUWUT RT.03/03 BULAKAMBA KAB. BREBES
6059 1100445179 ACHMAD BADAWI 03/07/1982 DK. SERUT RT 03/02 KAB. BLORA
6060 1100445180 WARSO 31/12/1959 LONING RT. 12 RW. 02 KAB. PEMALANG
6061 1100445182 NUR ABDULAH 17/08/1967 PETAMBAKAN RT 004 RW 002 KAB. BANJARNEGARA
6062 1100445183 SUNARI SUMADI SAPINAH 10/12/1960 KUDUKERAS 2/2 JUWANA KAB. PATI
6063 1100445184 BENING HARSINI 05/03/1961 JAGALAN 06/03 KAB. KLATEN
6064 1100445185 AHMAD SHODIQ AHMADI 17/07/1963 UNDAAN KIDUL RT 04 RW 04 KAB. KUDUS
6065 1100445186 SRI HARYUNI 20/04/1958 DIMORO RT 02/02 KAB. SUKOHARJO
6066 1100445187 MOH ROFI'I KARIYADI 23/08/1967 MARGOTUHU KIDUL 2/2 MARGOYOSO KAB. PATI
6067 1100445188 SALBANI SAEFUL HIDAYAT 08/07/1969 SERED RT 002 RW 001 KAB. BANJARNEGARA
6068 1100445189 MUNTAMAH MALIKI KARSIH 29/12/1968 MARGOTUHU KIDUL 2/2 MARGOYOSO KAB. PATI
6069 1100445190 PUJIATI SUPRAT SARUT 20/10/1972 SEKURO 05/01 KAB. JEPARA
6070 1100445191 MARNI 12/05/1958 DAWUHAN RT 004 RW 002 KAB. BANJARNEGARA
6071 1100445193 SOPIYAH 30/12/1963 LEBETENG RT.04/02 TARUB KAB. TEGAL
6072 1100445195 ANA ROLIATUN 19/07/1964 PERUM DEPKES BLOK A4 NO. 4 RT 02 RW 05 KOTA MAGELANG
6073 1100445197 THOIB RASIBAN KARSAN 19/05/1965 KARANGRANDU 03/03 KAB. JEPARA
6074 1100445198 MASLIHAH KASBI TOWI 12/07/1967 KARANGRANDU 03/03 KAB. JEPARA
6075 1100445199 BIMO ARISETYO MUBARAK 27/01/1996 KAPLING KENDALSARI PAINGAN RT 04 RW 04 KAB. TEMANGGUNG
6076 1100445202 SUYOTO 18/01/1966 KAPLING KENDALSARI RT 04 RW 04 KAB. TEMANGGUNG
6077 1100445205 PARSI 04/08/1981 NGRINGIN RT. 01 RW. 05 KAB. KARANGANYAR
6078 1100445207 SURIP 13/05/1975 SOKA RT.11 RW.04 KAB. BATANG
6079 1100445208 GIYARTO 11/01/1977 NGRINGIN RT. 01 RW. 05 KAB. KARANGANYAR
6080 1100445209 DWI PURWANTO 18/11/1962 BANDENGAN RT.09/RW.01 KAB. KENDAL
6081 1100445210 SUDARMINI 14/02/1973 DK. PUTAT RT 04/03 KAB. BLORA
6082 1100445211 SUNOTO 08/09/1966 DK. PUTAT RT 04/03 KAB. BLORA
6083 1100445212 SRI RAHAYU NINGASTUTI 29/09/1974 SIDOMULYO RT.03 RW. 09 KAB. KARANGANYAR
6084 1100445214 EKO TARGIYATMI,SPD 28/05/1969 GRIYA MOJOASRI RT.03 RW.31 KOTA SURAKARTA
6085 1100445215 ENDANG SULASTRI 03/12/1962 SEMPU RT 02/01 KAB. BLORA
6086 1100445217 SARMI 31/12/1967 KATEKAN RT 03 RW 01 KAB. TEMANGGUNG
6087 1100445218 WAMROHATI 27/07/1980 JL HUSNI TAMRIN NO.39 RT. 07/02 BREBES KAB. BREBES
6088 1100445220 RUBAINAH 05/05/1962 KARANGSARI RT.01/RW.05 KAB. KENDAL
6089 1100445221 SUTARMAN, S. PD 07/09/1962 SEMPU RT 02/01 KAB. BLORA
6090 1100445222 ARDIANTO 15/08/1969 JL. HUSNI TAMRIN NO.39 RT. 07/02 BREBES KAB. BREBES
6091 1100445224 HERIMANTO,DRS,MPD, MSI 29/10/1966 GRIYA MOJOASRI RT.03 RW. 31 KOTA SURAKARTA
6092 1100445227 BAHRUDIN 03/09/1967 DONDONG RT 12 KAB. SRAGEN
6093 1100445231 SUWARTI 24/11/1971 DONDONG RT 12 KAB. SRAGEN
6094 1100445232 MAGHFUR 08/09/1959 KRAJAN RT.01/RW.01 KAB. KENDAL
6095 1100445233 SUROTO 13/06/1963 KATEKAN RT 03 RW 01 KAB. TEMANGGUNG
6096 1100445234 SRI SUPRIYATI 17/03/1973 BANDENGAN RT.09/RW.01 KAB. KENDAL
6097 1100445236 AMINATUN 16/07/1963 KRAJAN RT.01/RW.01 KAB. KENDAL
6098 1100445237 TOLKAH FATONI 02/06/1973 LINGKUNGAN GETAS KAB. TEMANGGUNG
6099 1100445239 FAOZAN 31/12/1957 [Link] BARAT RT.02 RW.01 KAB. PEMALANG
6100 1100445240 SRI MULYANI 03/01/1959 REJOSO 02/01 KAB. KLATEN
6101 1100445242 WINARTI 04/03/1979 KALIBOGOR RT.03/RW.03 KAB. KENDAL
6102 1100445245 ABD. ROHMAN 08/01/1972 KROMPENG RT.03/01 TALUN KAB. PEKALONGAN
6103 1100445246 ARY SUMARI 01/02/1979 KALIBOGOR RT.03/RW.03 KAB. KENDAL
6104 1100445247 KASWI 09/11/1960 PR PATAH BLOK C I/23 RT 04 RW 03 KAB. PATI
6105 1100445248 EVY YULIA ARINI 25/07/1969 SEMARANG INDAH B VIII NO. 3 RT 4 RW 7 KOTA SEMARANG
6106 1100445249 ERNAWATI 11/06/1978 KROMPENG RT.03/01 TALUN KAB. PEKALONGAN
6107 1100445250 ABDULOH MAKBUL BARDI 31/05/1978 SLATRI RT 001 RW 001 KAB. BANJARNEGARA
6108 1100445251 HADI SARPAN PASRI 02/11/1964 TRIGUNO 2/3 PUCAKWANGI KAB. PATI
6109 1100445252 HADIYATUN SITI BAROROH 22/06/1980 LUNGGE RT02 RW02 KAB. TEMANGGUNG
6110 1100445253 ANIS MAFTUHAH 07/08/1981 LINGKUNGAN GETAS KAB. TEMANGGUNG
6111 1100445254 RAHMAT HARYONO 27/01/1966 SEMARANG INDAH B VIII/3 RT.04/07 KOTA SEMARANG
6112 1100445257 WARIYAH PARNO JUMINAH 29/07/1975 TRIGUNO 2/3 PUCAKWANGI KAB. PATI
6113 1100445258 NURBAQIN 28/07/1980 LUNGGE RT02 RW02 KAB. TEMANGGUNG
6114 1100445263 AHMAD GHOFIR 17/03/1962 DEWI RT 01/02 KAB. PURWOREJO
6115 1100445266 SUTRISNO AMDANI PARTOATMOJO 06/07/1967 KEDAWUNG RT. 01/03 KAB. KEBUMEN
6116 1100445267 SUKARTI DULAH KUSNI 06/07/1957 JATINEGORO RT.04/01 KAB. KEBUMEN
6117 1100445269 PRAPTINI HADI PRAWOTO 27/11/1970 KEDAWUNG RT. 01. 03 KAB. KEBUMEN
6118 1100445270 SRI WIDAYATI 07/08/1966 KEL. KEBONDALEM RT.25/RW.06 KAB. KENDAL
6119 1100445271 MUKSONAH 28/11/1978 GEBANG RT.04/06 KAB. DEMAK
6120 1100445274 ABDUL KALIM 14/10/1969 GEBANG RT.03/06 KAB. DEMAK
6121 1100445276 DRA. SRI SUJAROTUN 31/10/1961 SUMBERSARI RT. 04/10 BANYUURIP KAB. PURWOREJO
6122 1100445278 TARMINAH KASMIN KASTINI 03/02/1959 PATI WETAN 1/3 PATI KAB. PATI
6123 1100445279 NUR HANNA ULFA 19/12/1974 KANGURU SELATAN IX-A/22 RT.04/03 KOTA SEMARANG
6124 1100445280 ACHMADUN 09/12/1968 DUSUN GEMPOLKUNING RT.02/RW.04 KAB. KENDAL
6125 1100445284 ROSIDAH 22/02/1972 DUSUN GEMPOLKUNING RT.02/RW.04 KAB. KENDAL
6126 1100445289 BASORI 30/12/1964 GONDANG RT 13 RW 03 KAB. WONOSOBO
6127 1100445290 ERNIS HARYANTO 21/09/1966 KEMASAN RT.01/RW.09 KAB. SUKOHARJO
6128 1100445291 WIWIK WIDAYATI 22/03/1971 KEMASAN RT.01/RW.09 KAB. SUKOHARJO
6129 1100445292 WIDODO,DRS 08/01/1962 TEGALREJO 04/02 KAB. KLATEN
6130 1100445295 WIWI KUSRINI 29/09/1985 DK KEDAWUNG RT. 04 RW. 04 KAB. PEMALANG
6131 1100445296 PANIYEM 29/05/1965 TEGALREJO 04/02 KAB. KLATEN
6132 1100445297 SYAIFUL UMAM 05/06/1977 DK. KEDAWUNG RT. 04 RW. 04 KAB. PEMALANG
6133 1100445298 ACHMAD HIBATULLAH 09/12/1980 DSN. I RT.01 RW.01 KAB. PEMALANG
6134 1100445299 ULIN NAJIKHA 04/06/1987 DEBONG WETAN RT. 02/01 DUKUHTURI KAB. TEGAL
6135 1100445302 ELIARTI 04/01/1974 JL. PALA BARAT 3 NO. 03 RT. 06/14 KAB. TEGAL
6136 1100445303 DUMI SRINIATI 05/01/1962 DK. GEMBOL RT.04/04 BUMIAYU KAB. BREBES
6137 1100445304 AMRINA ROSADA 31/03/1983 DSN. I RT.01 RW.01 KAB. PEMALANG
6138 1100445305 SITI PATONAH 08/05/1979 KALITENGAH RT.01/04 KAB. DEMAK
6139 1100445306 YONI ARDIANTO 01/06/1975 JL. PALA BARAT 3 NO. 03 RT. 06/14 KAB. TEGAL
NO NO. PORSI NAMA TANGGAL LAHIR ALAMAT KAB/KOTA KETERANGAN
6140 1100445307 ALI SUBHAN 29/02/1980 DEBONG WETAN RT. 02/01 DUKUHTURI KAB. TEGAL
6141 1100445308 KHANIFAH 21/11/1965 BANYURIP AGENG RT. 3 RW. 2 KOTA PEKALONGAN
6142 1100445310 MUHAMMAD ALWI, HA. 10/04/1966 BANYURIP AGENG RT. 3 RW. 2 KOTA PEKALONGAN
6143 1100445311 TRI PARTIWI 15/09/1959 DARATAN RT 01/05 KAB. SUKOHARJO
6144 1100445312 RITO 25/06/1963 SOKAWERA RT. 2/2 KAB. BANYUMAS
6145 1100445313 KASWATI 25/04/1967 SOKAWERA RT. 2/2 KAB. BANYUMAS
6146 1100445314 SRI MARDINAH 13/01/1966 BANARAN RT.02/RW.01 KAB. SUKOHARJO
6147 1100445315 SUYATMI 31/12/1957 SRIJAYA 03/04 KAB. KLATEN
6148 1100445317 SURAMTO 28/05/1964 DARATAN RT.01/RW.05 KAB. SUKOHARJO
6149 1100445320 ANIK SUSILOWATI 12/05/1975 GELANG 07/02 KAB. KLATEN
6150 1100445322 SUSANTI WALUYONINGSIH KISMAN SASTRO H 25/03/1973 KARANGSARI RT. 02. 01 KAB. KEBUMEN
6151 1100445325 LISSALAMAH JAMARI KASTOKASPANI 02/08/1965 SROBYONG 03/02 KAB. JEPARA
6152 1100445326 SUMARNA 19/01/1971 GELANG 07/02 KAB. KLATEN
6153 1100445328 SURIP 29/09/1959 BANJARSARI RT.03/05 REKSOSARI SURUH KAB. SEMARANG
6154 1100445330 KASIMIN 05/05/1965 GRONONG RT 01/05 KAB. SUKOHARJO
6155 1100445331 MUNADIR 16/03/1958 BANJARSARI RT.03/05 REKSOSARI SURUH KAB. SEMARANG
6156 1100445332 KUSINO DARSUM KUSRONI 07/06/1966 KARANGSARI RT.02/01 KAB. KEBUMEN
6157 1100445336 DWI NUR HARIYATI 11/07/1969 GIRITONTRO RT 03 RW 01 KAB. WONOGIRI
6158 1100445337 ETI SAKIATU SOKRA 18/06/1973 TAMANWINANGUN KAB. KEBUMEN
6159 1100445339 SITI SUMARSIH 26/02/1964 GRONONG RT 01/05 KAB. SUKOHARJO
6160 1100445341 TRI NUGROHO SUPANGAT 15/12/1969 TAMANWINANGUN RT. [Link] 10 KAB. KEBUMEN
6161 1100445342 ELVRIYATI KASMURI OARTO 15/07/1962 BANGSRI 01/12 KAB. JEPARA
6162 1100445343 BAMBANG PURNOWO EKO DWI TUNGGAL WAHYU 01/02/1961 GIRITONTRO LOR RT.03 RW.01 KAB. WONOGIRI
6163 1100445344 SURATMI 11/08/1959 NOKERTO RT 17 RW 04 KAB. BOYOLALI
6164 1100445346 IDA UNTARI, SKM, [Link] 29/03/1976 SEMANGGI RT 02 RW 017 KOTA SURAKARTA
6165 1100445347 KASMIRAH 30/12/1965 DONDONG RT 12 KAB. SRAGEN
6166 1100445348 BADINGATUN PARTAREJA PERNADIKRAMA 16/08/1957 KEWANGUNAN RT.001/003 KAB. KEBUMEN
6167 1100445352 MUJENAH 19/08/1957 MANGUNSAREN RT.04/01 TARUB KAB. TEGAL
6168 1100445353 SUMIYATI 02/01/1964 BANGUN ASRI 40 RT 04/13 KAB. BLORA
6169 1100445356 A'ANG RIANA DEWI 08/09/1970 GONDOSARI RT 02 RW 07 KAB. KUDUS
6170 1100445357 NAJAMANSAH, DRS 11/12/1959 BANGUN ASRI 40 RT 04/13 KAB. BLORA
6171 1100445359 USZEN 12/05/1967 PESANGGRAHAN RT.11/04 WONOKERTO KAB. PEKALONGAN
6172 1100445360 SRI RAHAYU 14/12/1960 BALUN GRAHA [Link] RT 05/16 KAB. BLORA
6173 1100445361 TRI MULYANI 31/05/1972 PESANGGRAHAN RT.11/04 WONOKERTO KAB. PEKALONGAN
6174 1100445364 KUS BANDIAH 30/08/1964 [Link] RT.03/03 DOMIYANG PANINGGARANKAB. PEKALONGAN
6175 1100445367 EDY WIDODO 18/07/1958 BALUN GRAHA [Link] RT 05/16 KAB. BLORA
6176 1100445370 HARTONO 07/03/1967 KLIPANG PERMAI BLOK H/360 RT.05/23 KOTA SEMARANG
6177 1100445374 ADE SULAIMAN SHAMLAN 19/05/1961 PASAR ANYAR RT 01 RW 02 KOTA SALATIGA
6178 1100445375 SUYANTI 18/06/1973 KLIPANG PERMAI BLOK H NO. 360 RT 5 / 23 KOTA SEMARANG
6179 1100445376 TUSRIYAH 01/05/1968 PERUM DEPKES A6/1 RT 03 RW 05 KOTA MAGELANG
6180 1100445377 SUMIATI 12/05/1964 MENGGUNG RT 03/07 KAB. BLORA
6181 1100445379 BUDI DARMASTO, DRS 14/09/1963 PAWISMAN GEDANGAN RT. 01 RW. 02 KAB. KARANGANYAR
6182 1100445380 MIFTAHUL ALBAB 14/04/1969 PANDESARI RT 05 RW 08 KAB. TEMANGGUNG
6183 1100445381 AGUS SUPRIANTO 12/08/1968 BUMI PRAYUDAN BLOK PA NO.22 RT.09/05 KAB. MAGELANG
6184 1100445382 MUJIONO 17/07/1963 PERUM DEPKES A 6/ 1 RT. 03 RW. 05 KOTA MAGELANG
6185 1100445385 SRI PANUTI 26/04/1967 PAWISMAN GEDANGAN RT. 1 RW. 2 KAB. KARANGANYAR
6186 1100445387 SITI NUR LATIFAH 16/11/1966 JETIS RT 01/01 KAB. SUKOHARJO
6187 1100445388 KASROWI 07/07/1976 [Link] RAYA NO.12 RT. 02/13 BREBES KAB. BREBES
6188 1100445389 QONIATUL LATIF ABDUL ROHIM 13/10/1977 PAMOTAN RT 002 RW 003 PAMOTAN KAB. REMBANG
6189 1100445390 JUMALI 03/09/1972 DOMBO RT 01 RW 03 KAB. DEMAK
6190 1100445393 MUJI SUPRIYATI 16/04/1975 PANDESARI RT 05 RW 08 KAB. TEMANGGUNG
6191 1100445394 AGUS KRISTANTO SABARI 23/02/1975 PASURUHAN KIDUL RT 06 RW 02 KAB. KUDUS
6192 1100445395 WAKINGAH ABDUL ROHIM NURHADI 26/04/1965 KUMBO RT 009 RW 005 SEDAN KAB. REMBANG
6193 1100445398 SULASTRI 01/12/1958 SOKAWERA RT. 1/2 KAB. BANYUMAS
6194 1100445400 BASIR 12/03/1959 PERUM KOPASSUS RT. 03 RW. 14 KAB. KARANGANYAR
6195 1100445402 MUHAMMAD SURAHMAN 13/01/1964 JETIS RT. 01/01 KAB. SUKOHARJO
6196 1100445404 MUTOMINAH 19/11/1980 DOMBO RT 01 RW 03 KAB. DEMAK
6197 1100445406 NURYATI PUJI RAHAYU 18/09/1964 PERUM KOPASSUS RT. 03 RW. 14 KAB. KARANGANYAR
6198 1100445408 MOH. TAROM 06/08/1967 BANDUNGREJO RT.03/03 KAB. DEMAK
6199 1100445409 NUR SETYATI 16/10/1966 KALISAT RT06 RW02 KAB. TEMANGGUNG
6200 1100445411 SRI NURHAYATI 25/09/1966 BUMI PRAYUDAN BLOK PA 22 RT.09 RW.05 KAB. MAGELANG
6201 1100445412 MUSHONEF YAHYA EFENDY 06/10/1966 JL. GEBANG KENCANA RT.01/32 KAB. DEMAK
6202 1100445414 FATONI 26/02/1964 KALISAT RT06 RW02 KAB. TEMANGGUNG
6203 1100445416 UMI SHOLEHATUN 17/06/1975 BANDUNGREJO RT.03/03 KAB. DEMAK
6204 1100445418 SITI ARWANI 12/08/1972 NGASINAN RT 07 KAB. SRAGEN
6205 1100445419 BIBIT MUJIATI 03/05/1972 DALEMAN RT.05/03 KAB. DEMAK
6206 1100445420 SUS PURWATI SUPARMAN 28/12/1962 PAMOTAN RT 003 RW 004 PAMOTAN KAB. REMBANG
6207 1100445423 SRI SUKAPTI, S. PD 13/02/1960 BAJO RT 02/02 KAB. BLORA
6208 1100445424 SAHLI KARSANI REBO 19/10/1958 KALIPUCANG WETAN 06/02 KAB. JEPARA
6209 1100445425 MUHLISIN 04/03/1962 DALEMAN RT.05/03 KAB. DEMAK
6210 1100445426 WINARNO SULIMIN SONO KARTO 26/05/1973 CABEAN RT 03 RW 14 KOTA SALATIGA
6211 1100445428 DIANI DUSRIATI 01/01/1979 BANJARAN RT.02/03 SALEM KAB. BREBES
6212 1100445429 NURUS SANAH 22/12/1968 JL. GEBANG KENCANA RT.01/32 KAB. DEMAK
6213 1100445430 KUSTIAH SULEMAN HASAN 07/06/1964 KALIPUCANG WETAN 06/02 KAB. JEPARA
6214 1100445432 NURUL HIDAYATI DAHRON 12/07/1981 CABEAN RT 03 RW 14 KOTA SALATIGA
6215 1100445434 [Link] 02/12/1972 [Link] RT.03 RW.04 KAB. KENDAL
6216 1100445435 SRI DWIYANTI 07/03/1969 GINGGANGTANI 02/01 KAB. GROBOGAN
6217 1100445436 DANU SETYO AJI 29/01/1992 TLUWAH 01/01 JUWANA KAB. PATI
6218 1100445438 SUDI HERMAWAN 28/12/1978 BANJARAN RT.02/03 SALEM KAB. BREBES
6219 1100445439 SUWATI 09/09/1957 BOJONGSARI KALIPELUS RT 003/004 KAB. BANJARNEGARA
6220 1100445440 SULASTRI BRAHIM SUHARTI 08/08/1962 TLUWAH 1/1 JUWANA KAB. PATI
6221 1100445441 MAHSUN SURATMAN RABIJAN 19/05/1963 PULODARAT 15/02 KAB. JEPARA
6222 1100445442 SUPARMI 12/02/1971 TLOGO RT.01 RW.02 KAB. SEMARANG
6223 1100445443 SULARSIH 08/02/1972 KRASAK 04/07 KAB. GROBOGAN
6224 1100445445 GHUFROH HANDAYANINGSIH BOESYRO 26/11/1973 PULODARAT 15/02 KAB. JEPARA
6225 1100445448 SRI WIYATNI 20/02/1964 SABAN 06/02 KAB. GROBOGAN
6226 1100445450 SUTIKNO. [Link] 03/03/1960 INDRAJAYA RT.04/03 SALEM KAB. BREBES
6227 1100445451 NURJANAH 20/11/1979 PAGONGAN RT. 01/02 DUKUHTURI KAB. TEGAL
6228 1100445454 RIA HAYATI. [Link] 14/07/1965 INDRAJAYA RT.04/03 SALEM KAB. BREBES
6229 1100445455 UMAR ARIEF 07/10/1972 PUTON 01/01 KAB. MAGELANG
6230 1100445458 PUJI ASTUTIK 10/08/1964 GRASAK RT 37 KAB. SRAGEN
6231 1100445459 SUMED 10/10/1966 CIMUNDING RT.03/01 BANJARHARJO KAB. BREBES
6232 1100445462 JAHRO 01/05/1962 JL. A. YANI UTARA NO. 118 RT. 01 RW. 10 KAB. PEMALANG
6233 1100445463 WASRIYAH 01/07/1974 [Link] RT.03 RW.01 KAB. BATANG
6234 1100445464 KARI 07/07/1972 CIMUNDING RT.03/01 BANJARHARJO KAB. BREBES
6235 1100445465 SITI NASROH 11/09/1968 NGROTO 03/05 KAB. GROBOGAN
6236 1100445466 SAGIMAN SUPARDI SUKEMI 25/06/1961 SUNDOLUHUR 23/3 KAYEN KAB. PATI
6237 1100445467 RIF'AN UBAIDILLAH 23/12/1974 DENASRI WETAN RT.01 RW.04 KAB. BATANG
6238 1100445468 EVA RODLIAH SUKATAM 16/01/1982 TUNAHAN 005/002 KAB. JEPARA
6239 1100445469 SUTARDI 12/08/1976 DEMANGAN RT 01/08 KAB. SUKOHARJO
6240 1100445470 KURIAH 06/07/1957 TEGALGANDU RT.01/04 WANASARI KAB. BREBES
6241 1100445471 NANIN EMILIAH 16/06/1977 DENASRI WETAN RT.01 RW.04 KAB. BATANG
6242 1100445472 FATHURI 15/07/1961 JATI RT.07 RW.01 KAB. KENDAL
6243 1100445475 SRI RAHAYU 21/02/1971 GG KURMO WARINGINREJO RT.02/RW.21 KAB. SUKOHARJO
6244 1100445477 MARGONO PARLAN WAGIMAN 07/06/1974 TUNAHAN 005/002 KAB. JEPARA
6245 1100445478 TASIRIN 24/07/1959 CILANGKAP RT 5 /01 KAB. BANYUMAS
6246 1100445479 FATIMAH ZAENUDIN SITI 07/09/1958 BODEH 4/2 PUCAKWANGI KAB. PATI
6247 1100445480 JUMI KISLAN MURSINAH 01/07/1964 KADILANGU 05/02 TRANGKIL KAB. PATI
6248 1100445481 SUMADI 30/01/1958 GETAS 01/05 KAB. GROBOGAN
6249 1100445482 SUTRISNO JOYO TAMIN 03/04/1967 BAKARAN WETAN 1/2 JUWANA KAB. PATI
6250 1100445483 SUGENG PRAMONO 18/08/1958 GRASAK RT 37 KAB. SRAGEN
6251 1100445485 DARSITI 10/02/1963 CILANGKAP RT.05 RW.01 KAB. BANYUMAS
6252 1100445486 SARWONO 11/01/1975 LANGKAP RT. 01/01 KAB. SUKOHARJO
6253 1100445487 KALSUM 21/09/1960 NGROTO 02/02 KAB. GROBOGAN
6254 1100445488 SUKAMTI 12/12/1961 PURWOREJO RT 26 KAB. SRAGEN
6255 1100445489 ARWAN SUKAT KARSI 12/01/1965 BAKARAN KULON 2/4 JUWANA KAB. PATI
6256 1100445491 SITI ASINAH 12/01/1963 GETAS 01/05 KAB. GROBOGAN
6257 1100445492 ELLY MASYKUROH 04/02/1969 PLOSOREJO 10/03 KAB. GROBOGAN
6258 1100445493 KARSI JASMAN MISIH 17/12/1969 BAKARAN KULON 2/4 JUWANA KAB. PATI
6259 1100445495 RIDLWAN 21/08/1962 GETAS 01/05 KAB. GROBOGAN
6260 1100445497 WARSI DIYAN SAWI 01/07/1959 BAKARAN KULON 3/5 JUWANA KAB. PATI
6261 1100445498 SUMIATUN KUSTONO KASMIATI 16/06/1969 SUNDOLUHUR 23/3 KAYEN KAB. PATI
6262 1100445499 RUBINI 16/04/1975 LANGKAP RT. 01/01 KAB. SUKOHARJO
6263 1100445500 MOH AHWAN 02/01/1962 PLOSOREJO 10/03 KAB. GROBOGAN
6264 1100445502 SUPRIYATI SULASMIN SURATMI 19/11/1977 BENDAR 1/2 JUWANA KAB. PATI
6265 1100445506 MH. SAIFUDIN, S AG 15/09/1969 SEMANGGI RT 02 RW 017 KOTA SURAKARTA
6266 1100445507 MUNTAHAR 16/09/1971 DOROLEGI 02/03 KAB. GROBOGAN
6267 1100445508 H. SUHARNO, S AG 28/03/1959 JOYOTAKAN RT 01 RW 03 KOTA SURAKARTA
NO NO. PORSI NAMA TANGGAL LAHIR ALAMAT KAB/KOTA KETERANGAN
6268 1100445509 AGUS SUGIARTO NGATIYO 26/08/1972 BUMIREJO 05/01 JUWANA KAB. PATI
6269 1100445510 SABAR 06/08/1968 REJOSARI 02/02 KAB. GROBOGAN
6270 1100445511 SRI HARTINI 25/01/1967 PERUM GIRIASRI BLOK N4 RT.03 RW.03 KAB. WONOGIRI
6271 1100445513 ARIF RIYANTO KASRIN 06/09/1977 GROWONG KIDUL 5/4 JUWANA KAB. PATI
6272 1100445514 JUPRI SARJO RAMISAH 07/01/1972 BENDAN 10/04 PATI KIDUL PATI KAB. PATI
6273 1100445515 SURATMINAH 09/02/1960 JOYOTAKAN RT.01 RW.03 KOTA SURAKARTA
6274 1100445518 JOHAR LISTRIANA HADI PURNOMO 08/11/1973 BUMIREJO 05/01 JUWANA KAB. PATI
6275 1100445519 HARTONO KASMIJAN SULASIH 11/06/1973 BENDAR 1/2 JUWANA KAB. PATI
6276 1100445520 SITI MUAROFAH 19/11/1972 REJOSARI 02/02 KAB. GROBOGAN
6277 1100445521 MIMIN SUMINAR 18/10/1965 DUSUN CIUPAS 02 RW. 04 KAB. CILACAP
6278 1100445523 LEGINAH LEGIMAN RAMTI 17/02/1977 BENDAN 10/04 PATI KIDUL PATI KAB. PATI
6279 1100445524 WARNO 08/07/1965 PERUM GIRIASRI BLOK 4 RT 03 RRW 03 KAB. WONOGIRI
6280 1100445526 SRI HARWANTI 28/02/1959 JL. PARANG CANTEL NO 22 RT 02 RW 02 KOTA SURAKARTA
6281 1100445527 SRI HARSINI 03/09/1963 KUMBULAN RT.03/RW.10 KAB. SUKOHARJO
6282 1100445528 EKO SUPROJO 29/10/1981 SIDOREJO 05/07 KAB. GROBOGAN
6283 1100445529 SRI HARTINI SULASMIN 22/01/1980 BENDAR 1/2 JUWANA KAB. PATI
6284 1100445530 MOH KOBERI 24/05/1970 MANGGAR 04/03 KAB. GROBOGAN
6285 1100445531 SARTONO 10/11/1959 PURWOREJO RT 26 KAB. SRAGEN
6286 1100445533 SUDADIYO 10/12/1960 KUMBULAN RT.03/RW.10 KAB. SUKOHARJO
6287 1100445535 AMIN MAIZUN 06/09/1974 NGROTO 03/05 KAB. GROBOGAN
6288 1100445536 SODIQIN 11/03/1971 KEPAKISAN RT 003/001 KAB. BANJARNEGARA
6289 1100445537 SURATMI PUYANI SULASTRI 27/11/1957 BENDAR 1/2 JUWANA KAB. PATI
6290 1100445539 BAYINAH 23/08/1972 KEPAKISAN RT 003 RW 001 KAB. BANJARNEGARA
6291 1100445540 VEVTY SUPRIYATI 15/10/1976 GETAS 01/05 KAB. GROBOGAN
6292 1100445542 SITI NAPIAH 07/02/1973 MANGGAR 04/03 KAB. GROBOGAN
6293 1100445543 ANY ERNAWATI SUPRAYITNO 22/03/1981 GROWONG KIDUL 5/4 JUWANA KAB. PATI
6294 1100445544 SUPIYAH 06/03/1963 BANARAN RT 02 RW 03 KAB. TEMANGGUNG
6295 1100445545 TRI FAUJIYATI 16/04/1964 RAKIT RT 006 RW 003 KAB. BANJARNEGARA
6296 1100445546 SRI ROMDANI 12/05/1958 TOMPE RT 16 KAB. SRAGEN
6297 1100445549 ASANAH 04/11/1957 BAKAL RT 003/002 KAB. BANJARNEGARA
6298 1100445550 SRI UTAMI MUSTAR 30/12/1978 KEDALON 1/1 BATANGAN KAB. PATI
6299 1100445552 YATIMAN HADI WARTOYO 01/07/1959 PETUGURAN RT 002 RW 002 KAB. BANJARNEGARA
6300 1100445554 WARSITI 01/07/1964 PETUGURAN RT 002/002 KAB. BANJARNEGARA
6301 1100445555 SULISTYOWATI 09/07/1964 PAKELSARI 02/07 KAB. MAGELANG
6302 1100445558 NGADIYO DARMAJI SEMI 27/05/1977 BENDAR 1/2 JUWANA KAB. PATI
6303 1100445561 SRI WAHYUNI 10/02/1960 JOMBOR INDAH RT.04/RW.03 KAB. SUKOHARJO
6304 1100445562 ISTIQOMAH 31/12/1965 LIMPUNG RT.01 RW.02 KAB. BATANG
6305 1100445563 SLAMET SUPIYAN 04/03/1960 LIMPUNG RT.01 RW.02 KAB. BATANG
6306 1100445564 SUPENO SLAMET SUMI 01/07/1975 KEDALON 1/1 BATANGAN KAB. PATI
6307 1100445565 ASMANAH 02/01/1970 PRAPAG KIDUL RT.02/03 LOSARI KAB. BREBES
6308 1100445566 SURYADI 01/05/1958 KALADAWA RT.02/01 TALANG KAB. TEGAL
6309 1100445567 MAESAROH 04/05/1963 DLISEN RT.02 RW.01 KAB. BATANG
6310 1100445568 MUDIYONO 28/10/1958 BAWANG RT.05 RW.03 KAB. BATANG
6311 1100445569 TUTIK ENDANG PURWANINGRUM 13/08/1963 KESTALAN RT 05 RW 01 KAB. BOYOLALI
6312 1100445572 AGUSTONO 14/08/1969 DSN. KALONGAN RT.05 RW.08 KAB. SEMARANG
6313 1100445576 JUMINTEN 16/03/1964 DEMO 01/11 KAB. MAGELANG
6314 1100445577 WIDYA SAPTA ADI 04/01/1987 DEMO 01/11 KAB. MAGELANG
6315 1100445580 EKO HENDRA SULISTYO, SH 22/06/1982 SLAWI KULON BLOK K 51 RT.05/05 KAB. TEGAL
6316 1100445581 SITI ROKHAYAH 08/07/1969 SIDIKAN RT.03 RW.04 KAB. MAGELANG
6317 1100445582 MANSYUR 23/10/1962 SIDIKAN 03/04 KAB. MAGELANG
6318 1100445583 BASIYEM 01/12/1962 JL. DORANG 115 RT.01/05 KOTA SEMARANG
6319 1100445588 LUTFI YAHYA 26/10/1978 JL. SATRIA RAYA H.243 A RT.05/04 KOTA SEMARANG
6320 1100445596 MIFTACHUSURUR 19/06/1970 BUTUH 02/09 KAB. MAGELANG
6321 1100445597 JENAH 01/07/1962 DSN. SIMADU RT. 02 RW. 08 KAB. PEMALANG
6322 1100445599 SITI BASIROH 04/04/1974 GONDANG TANI RT 20 KAB. SRAGEN
6323 1100445601 MAGHFIROH 15/02/1971 LUBANGLOR RT 02/02 KAB. PURWOREJO
6324 1100445602 YATMADI 12/03/1977 GONDANG TANI RT 20 KAB. SRAGEN
6325 1100445603 SAEUN 01/12/1963 GOMBONG RT. 09 RW. 02 KAB. PEMALANG
6326 1100445605 KASMIATUN KASMIN KARSANI 20/10/1969 KIRIG RT.01 RW.02 KAB. KUDUS
6327 1100445606 SITI RODIYAH 12/04/1971 GOMBONG RT. 09 RW. 02 KAB. PEMALANG
6328 1100445609 DUWI YONO 03/08/1978 SAMBIREJO RT 03 KAB. SRAGEN
6329 1100445610 MUSYAROFAH 13/11/1982 DK. PONDOK 05/06 GABUS KAB. PATI
6330 1100445612 ACHMAD FARICH MUSLICH 16/05/1959 SUNGGINGAN RT 03 RW 03 KAB. KUDUS
6331 1100445614 TRI WIJININGSIH 04/01/1966 CITRO MANGGISAN 05/02 KAB. MAGELANG
6332 1100445615 SUNTIASIH ACH. MASRUCHAN SADIMAN 12/06/1967 SUNGGINGAN RT.03 RW.03 KAB. KUDUS
6333 1100445616 ISROFIYAH 06/10/1985 PAINGAN RT.003 RW.009 KAB. TEMANGGUNG
6334 1100445618 DWI SRI HARYATI 08/01/1984 SAMBIREJO RT 03 KAB. SRAGEN
6335 1100445619 SITAH SUPARDI BAWI 03/09/1959 GETAS PEJATEN RT 06 RW 03 KAB. KUDUS
6336 1100445620 HADI SUNARYO 27/09/1971 MAYANG 01/05 KAB. GROBOGAN
6337 1100445621 SUWATI 15/11/1975 MAYANG 01/05 KAB. GROBOGAN
6338 1100445623 SYARIF USMAN 23/03/1958 JL. ROGO JAMPI RT. 01/02 KOTA TEGAL
6339 1100445624 DRS. MAKLUM FUAD AZIZ 28/12/1959 KUMPULREJO RT 01/03 KAB. PURWOREJO
6340 1100445625 ENI KUSTIYAH SH 31/07/1972 DEMPUL RT 22 KAB. SRAGEN
6341 1100445627 MUHROJAN 05/08/1970 NGAWINAN RT.02/04 JETIS BANDUNGAN KAB. SEMARANG
6342 1100445629 SUKARDI [Link] 02/10/1963 DEMPUL RT 22/03 KAB. SRAGEN
6343 1100445630 WILDAN SULAIMAN 22/03/1970 JL. LINGKAR DESA MRANAK RT.04/05 KAB. DEMAK
6344 1100445631 TAMIMAH 28/05/1959 ROGO JAMPI RT. 01 / 02 KOTA TEGAL
6345 1100445632 HARTINI 07/03/1963 DADIREJO RT.01/02 TIRTO KAB. PEKALONGAN
6346 1100445634 MUNTRIAH SARKOWI SUWARTI 01/07/1963 TANJUNGANOM 05/06 GABUS KAB. PATI
6347 1100445635 MUSLIM KARTO MIHARJO 23/01/1961 MAJASEM RT 05 RW 01 KAB. PURBALINGGA
6348 1100445636 RINI BUDIARTI 21/11/1981 BOTOSENGON RT.04/02 KAB. DEMAK
6349 1100445637 SRI SULIFAH 20/05/1982 JL. BABAKAN NO.73 RT03 RW02 KAB. CILACAP
6350 1100445640 SISWANTO 27/06/1979 BOTOSENGON RT.04/02 KAB. DEMAK
6351 1100445641 SRI SUPARTINI 27/12/1974 MIJAHAN RT 06/01 KAB. SRAGEN
6352 1100445642 TOFA 07/12/1971 DEBONG WETAN RT.05/01 DUKUHTURI KAB. TEGAL
6353 1100445643 ABDUL ROCHIM 06/09/1961 CITRO MANGGISAN 05/02 KAB. MAGELANG
6354 1100445644 YATIMAH 12/12/1964 MAJASEM RT 05 RW 01 KAB. PURBALINGGA
6355 1100445645 SUPARNI 10/11/1962 JOHO RT.03/05 KAB. SUKOHARJO
6356 1100445647 JAETUN 10/12/1977 DEBONG WETAN RT.05/01 DUKUHTURI KAB. TEGAL
6357 1100445648 DARMI 02/06/1966 WONOSARI RT 07 KAB. SRAGEN
6358 1100445649 SRI ASIH 10/10/1976 NGAWINAN RT.02/04 JETIS BANDUNGAN KAB. SEMARANG
6359 1100445650 SUPRAPTI, [Link] 15/06/1963 SILAMAT RFT. 02 RW. 12 KAB. KARANGANYAR
6360 1100445652 SUPRIYADI 07/02/1958 WONOSARI RT 07 KAB. SRAGEN
6361 1100445653 ZURIYAH 07/03/1970 RAMBEANAK I RT. 01/01 KAB. MAGELANG
6362 1100445654 RUSTIYATI 14/05/1963 KEMIRI LOR RT 02/03 KAB. PURWOREJO
6363 1100445658 MAS ROZI 27/01/1972 BRENGKELAN RT 01/05 PURWOREJO KAB. PURWOREJO
6364 1100445659 SUBIYATUN 09/06/1972 DSN. KALONGAN RT.05 RW.08 KAB. SEMARANG
6365 1100445660 SRI ASTUTI 26/07/1959 JL. PUTERAN NO. 83 RT. 04 RW. 03 KAB. CILACAP
6366 1100445663 SURATMAN 02/11/1965 BRENGKELAN RT 02/05 PURWOREJO KAB. PURWOREJO
6367 1100445664 NUR CHOLIB 28/04/1983 BANYUASINKEMBARAN RT. 10/05 LOANO KAB. PURWOREJO
6368 1100445666 MAKMUN MUROD 10/01/1968 RAMBEANAK I RT. 01/01 KAB. MAGELANG
6369 1100445669 FATIMATUL MU'TASIMAH 16/05/1986 BANYUASINKEMBARAN RT 10/05 KAB. PURWOREJO
6370 1100445671 SUKIMAN 01/01/1971 KANDREN RT.01/RW.01 KAB. SUKOHARJO
6371 1100445673 SUDARMINI 12/01/1969 GINTUNGAN RT. 01/05 GEBANG KAB. PURWOREJO
6372 1100445678 ENY SRI LESTARI 01/06/1969 KUMPULREJO RT 01/03 KAB. PURWOREJO
6373 1100445679 MUGIYANTO HIRIN 08/07/1965 KIRINGAN DESA TRIMULYO RT.03 RW.06 KAB. KENDAL
6374 1100445680 SUWARTO 16/04/1962 BRADAG RT 02 RW 02 KAB. BLORA
6375 1100445681 SUWARNI 17/06/1962 MAJATENGAH RT 18 RW 06 KAB. PURBALINGGA
6376 1100445683 BOLOT MUHTAR 12/12/1967 GINTUNGAN RT 01/05 KAB. PURWOREJO
6377 1100445684 DWI HASTUTI 28/09/1977 PLOSOREJO RT 03/01 KAB. SRAGEN
6378 1100445687 ABDUL WAHAB 02/02/1971 TUGU LOR RT 01/01 KAB. DEMAK
6379 1100445688 HADI MULYONO 25/09/1969 PLOSOREJO RT 03/01 KAB. SRAGEN
6380 1100445690 HERU SUTARJO 17/02/1967 SRAGEN LOR RT 01/09 KAB. SRAGEN
6381 1100445691 NARWAN 08/07/1961 DADIREJO RT.01/02 TIRTO KAB. PEKALONGAN
6382 1100445692 MASROH 24/07/1974 TUGU LOR RT 01/01 KAB. DEMAK
6383 1100445693 SRI SUKARTI 04/09/1967 SRAGENLOR RT 01/09 KAB. SRAGEN
6384 1100445694 SRIYATI 11/05/1958 PLOSOREJO RT 01 KAB. SRAGEN
6385 1100445695 TITIK NURHANDINI 03/09/1958 KLEDUNGKARANGDALEM RT 04/01 KAB. PURWOREJO
6386 1100445696 SRI SUPARNI 17/12/1981 KANDREN RT.01/RW.01 KAB. SUKOHARJO
6387 1100445700 KUSNI SUTOMO MERTOREJO 05/08/1961 DSN SALAM RT 04 RW 01 KOTA SALATIGA
6388 1100445701 SITI MARFUAH 27/07/1958 MULYOSARI RT.02/RW.03 KAB. SUKOHARJO
6389 1100445702 SUAN BUDIARTI 11/12/1959 ARCAWINANGUN ESTATE AC VI/9 RT 4/10 KAB. BANYUMAS
6390 1100445707 HARSINI DADIYONO DIPOSEMITO 21/06/1958 JL. ARGODARMO I NO.02 RT 04 RW 01 KOTA SALATIGA
6391 1100445711 SRI KUSTINI 30/05/1968 DK. NGLAWIYAN RT 06 RW 03 KAB. BLORA
6392 1100445713 ISMATO 12/08/1967 DK. NGLAWIYAN RT 06 RW 03 KAB. BLORA
6393 1100445719 SURIP 10/08/1959 KALADAWA RT.02/01 TALANG KAB. TEGAL
6394 1100445720 ESTI WIDYATINI 24/08/1968 HARJOSARI LOR RT.10/03 ADIWERNA KAB. TEGAL
6395 1100445723 KASANDUM, DRS 06/07/1963 HARJOSARI LOR RT.10/03 ADIWERNA KAB. TEGAL
NO NO. PORSI NAMA TANGGAL LAHIR ALAMAT KAB/KOTA KETERANGAN
6396 1100445724 MURTIANI JOYO NGASPAN 25/12/1961 GROWONG KIDUL 01/03 JUWANA KAB. PATI
6397 1100445725 SULIYANTO SUKIYO REBI 04/05/1967 GROWONG KIDUL 01/03 JUWANA KAB. PATI
6398 1100445726 WAGIRAN MADSAHRI CAKRADIMEJA 30/12/1964 KENOYOJAYAN RT.02/03 KAB. KEBUMEN
6399 1100445728 KUSNAEDI 16/02/1964 BULAKWARU RT. 05/03 TARUB KAB. TEGAL
6400 1100445729 DALMINAH 24/11/1972 KIRINGAN DESA TRIMULYO RT.03 RW.06 KAB. KENDAL
6401 1100445730 YUDA AYU TIMORINI 30/12/1975 BULAKWARU RT. 05/03 TARUB KAB. TEGAL
6402 1100445731 SITI ASIYAH SUJONO 13/04/1965 PUNCEL 7/2 DUKUHSETI KAB. PATI
6403 1100445734 NGADIMIN, DRS 18/05/1963 NGEMPLAK RT. 01 RW. 05 KAB. KARANGANYAR
6404 1100445735 NGATMONAH 31/12/1963 PURWOREJO RT 10/02 KAB. DEMAK
6405 1100445736 SUHADAK ABDUL MUKTI 13/04/1960 PUNCEL 7/2 DUKUHSETI KAB. PATI
6406 1100445737 ROHYATI 19/02/1974 DUKUH WUNGU RT.03/06 PANGKAH KAB. TEGAL
6407 1100445739 SRI HARYANI 31/07/1971 KEMUTUG RT. 5/4 KAB. BANYUMAS
6408 1100445740 SUWONDO 15/06/1971 DUKUH WUNGU RT.03/06 PANGKAH KAB. TEGAL
6409 1100445741 SITI SUMINAH 20/06/1965 KEMBANGARUM RT 02/04 KAB. DEMAK
6410 1100445744 ABDUL AZIZ 30/11/1973 [Link] RT.02 RW.04 KAB. BATANG
6411 1100445745 NASRUDIN 12/08/1960 KEMBANGARUM RT 02/04 KAB. DEMAK
6412 1100445746 MUHAMAD ABDUH FAHMI 26/06/1974 WARINGINREJO RT 01/21 KAB. SUKOHARJO
6413 1100445747 ITA KRISTIANI 03/08/1974 [Link] RT.02 RW.04 KAB. BATANG
6414 1100445748 HERY SUPRIADI 02/04/1969 KEMUTUG LOR RT 5/4 KAB. BANYUMAS
6415 1100445749 TUMI, DRA 13/07/1964 NGEMPLAK RT. 01 RW. 05 KAB. KARANGANYAR
6416 1100445750 SUKADI 28/04/1973 REJOSO 02/08 KAB. KLATEN
6417 1100445751 RONAH ATIK WIDIYANTI 11/07/1976 WARINGINREJO RT.01/RW.21 KAB. SUKOHARJO
6418 1100445753 MARZUKI, S. PD I 16/07/1958 DK. PUDAK RT 02/01 KAB. BLORA
6419 1100445756 CHODIYAH HANI DWI P 17/11/1973 REJOSO 02/08 KAB. KLATEN
6420 1100445759 ASMIATUN 05/09/1969 DK. PUDAK RT 02/01 KAB. BLORA
6421 1100445760 RUMALAH 07/02/1962 BAROS NO.53 RT.01 RW.03 KOTA PEKALONGAN
6422 1100445762 RUBIYATI 18/06/1980 MINDI RT. 02 RW. 07 KAB. KARANGANYAR
6423 1100445763 DARSUM A NUR MARGIANTO 22/12/1959 KARANGLEWAS KIDUL RT.05 RW.04 KAB. BANYUMAS
6424 1100445764 LASIDI 04/02/1976 MINDI RT. 02 RW. 07 KAB. KARANGANYAR
6425 1100445765 PUJI RAHAYU 20/09/1963 GENDENGAN NO. 046 RT 03 RW 04 KAB. TEMANGGUNG
6426 1100445766 KUSNIN KADI GIRAH 06/11/1961 GEMBONG 1/11 GEMBONG KAB. PATI
6427 1100445767 LAELA NURHAYATI 24/04/1967 KARANGLEWAS KIDUL RT. 5/4 KAB. BANYUMAS
6428 1100445769 SINI MARTO MAGI 10/06/1965 GEMBONG 1/11 GEMBONG KAB. PATI
6429 1100445770 ULIL AMRI 08/07/1974 GOLENG 04/04 KAB. GROBOGAN
6430 1100445773 MUTMAINAH 09/11/1978 GOLENG 04/04 KAB. GROBOGAN
6431 1100445774 SUKARLIN 07/07/1970 KARANGTAWANG RT 02/01 KAB. BLORA
6432 1100445775 UMI SAEBAH 07/11/1963 BANJARPARAKAN RT.02 RW.02 KAB. BANYUMAS
6433 1100445776 ISNANIYAH 20/12/1971 KAUMAN RT.04 RW.05 KAB. BATANG
6434 1100445777 CHRISNA JUNIANTO 18/06/1972 KAUMAN RT.04 RW.05 KAB. BATANG
6435 1100445778 JUREMI 02/05/1964 KARANGTAWANG RT 02/01 KAB. BLORA
6436 1100445780 ANIK MURLINA 20/08/1966 NOLOBANGSAN TIMUR RT02 RW03 KAB. TEMANGGUNG
6437 1100445781 NUR FATMAH 05/02/1958 GAPURO RT.04 RW.02 KAB. BATANG
6438 1100445782 SUPRAYEKTI 01/07/1962 BROBOT RT 01 RW 01 KAB. PURBALINGGA
6439 1100445784 ACHMAD TURSILO 19/06/1975 GAPURO RT.04 RW.02 KAB. BATANG
6440 1100445787 MUROFIAH 10/03/1979 GAPURO RT.04 RW.02 KAB. BATANG
6441 1100445789 UMILATIFAH 07/06/1961 KUTASARI RT 20 RW 10 KAB. PURBALINGGA
6442 1100445796 NINIEK PERTIWI 28/07/1962 JL. RAJAWALI VIII/2 RT 03/04 KAB. BLORA
6443 1100445798 SUGIARTINI PURNOMO KARTAREJA 16/04/1969 KARANGGLONGGONG RT.02/02 KAB. KEBUMEN
6444 1100445800 NARFIN, SPD 07/05/1959 WIRUN RT 04/01 KAB. PURWOREJO
6445 1100445803 S A H I D, S. SOS 06/07/1961 JL. RAJAWALI VIII/ 2 RT 03/04 KAB. BLORA
6446 1100445805 ASMAH 19/03/1961 WIRUN RT 04/01 KAB. PURWOREJO
6447 1100445806 TRI DYAH RAHMAWATI 14/09/1971 SIROTO RT.03/07 KOTA SEMARANG
6448 1100445808 MINO 10/03/1960 PETUGURAN RT 02/01 KAB. PURWOREJO
6449 1100445811 AJENG KANIA PERMANIK 26/02/1982 JL. AKASIA RAYA NO.12 RT.02/13 BREBES KAB. BREBES
6450 1100445812 SRI WALUYO 14/05/1966 SIROTO RT.03/07 KOTA SEMARANG
6451 1100445815 SUTARJONO 25/05/1974 KALIURIP 02/01 KAB. PURWOREJO
6452 1100445816 SULASTRI 19/06/1967 KANCI . I KAB. MAGELANG
6453 1100445817 IRFANI 08/08/1971 KANCI I RT.02 RW.03 KAB. MAGELANG
6454 1100445818 SUMIATUN 07/09/1957 TEGUHAN 03/02 KAB. GROBOGAN
6455 1100445820 SUGIYATI 10/10/1966 KEDUNGJATI RT 04 RW 03 KAB. PURBALINGGA
6456 1100445821 SUWARJO 06/08/1962 TEGUHAN 03/02 KAB. GROBOGAN
6457 1100445823 ENI SUHLATI 12/05/1962 SLINGA RT 01 RW 01 KAB. PURBALINGGA
6458 1100445825 MULYATI 12/08/1960 [Link] UTARA 2/8 RT.03/03 KOTA SEMARANG
6459 1100445828 SUKADI, SPD 28/12/1970 KOTO RT.28 RW.13 KAB. MAGELANG
6460 1100445830 MUSLIMIN 25/07/1961 KEL. NGAWEN RT 03/05 KAB. BLORA
6461 1100445831 REMIYATI KARSANI SOYO 09/09/1971 SENDANGMULYO RT 001 RW 003 BULU KAB. REMBANG
6462 1100445833 SITI RUQOYAH 25/05/1970 DUSUN KOTO 28/13 KAB. MAGELANG
6463 1100445835 SUJADI SIBAN PARMI 15/04/1960 WUWUR 5/1 GABUS KAB. PATI
6464 1100445836 SARIANAH 19/09/1960 KEL. NGAWEN RT 03/05 KAB. BLORA
6465 1100445837 NARDI MARWAN KASIO 15/03/1958 SENDANGMULYO RT 001 RW 003 BULU KAB. REMBANG
6466 1100445839 ACHMAD FACHROJI 14/06/1963 PROYONANGGAN TGH PETODANAN TMR RT.1 RW.2 KAB. BATANG
6467 1100445841 ENI SURAENI 25/02/1974 PROYONANGGAN TGH PETODANAN TMR RT.1 RW.2 KAB. BATANG
6468 1100445842 KOTIATUN DJAHIR SUNTAMAH 08/09/1963 WUWUR 5/1 GABUS KAB. PATI
6469 1100445843 JAZILAH 18/07/1984 PRAPAG KIDUL RT.02/02 LOSARI KAB. BREBES
6470 1100445845 SITI NAIMAH 07/04/1974 LANGENSARI TIMUR RT.02 RW.01 KAB. SEMARANG
6471 1100445846 ABDULLAH 12/06/1979 PRAPAG KIDUL RT.02/02 LOSARI KAB. BREBES
6472 1100445847 SUPARNO 03/08/1971 NGEMPLAK RT. 01 RW. 10 KAB. KARANGANYAR
6473 1100445848 LAILA YUNI WACHIDAH 01/06/1969 JL. MAWAR NO.49 RT.06/05 BREBES KAB. BREBES
6474 1100445849 SRI WAHYUNI SUJADI 25/06/1981 WUWUR 5/1 GABUS KAB. PATI
6475 1100445850 SUNARSI 31/12/1977 NGEMPLAK RT. 01 RW. 10 KAB. KARANGANYAR
6476 1100445851 SAMSURI, SE 01/04/1965 JL. MAWAR N0. 49 RT.06/05 BREBES KAB. BREBES
6477 1100445852 SUHARTI 05/04/1958 CANDRAN RT.04 RW.09 KAB. MAGELANG
6478 1100445853 SUKIMIN AL ZAINUL MUTTAQIN 03/08/1963 MENAWAN 02/01 KAB. GROBOGAN
6479 1100445854 LASIPAH 05/03/1971 MENAWAN 02/01 KAB. GROBOGAN
6480 1100445856 PURWANTO SUJADI KOTIATUN 04/07/1989 WUWUR 5/1 GABUS KAB. PATI
6481 1100445859 PARDI 20/01/1959 JL. BANYUONO I/50 04/17 KAB. GROBOGAN
6482 1100445860 LARASASIH 16/07/1960 MANGUNREJO RT.04/04 KEBONAGUNG KAB. DEMAK
6483 1100445861 SITI ROMADHONIATI SOMADI SUMERI 17/03/1973 KUWARISAN RT. 02. 01 KAB. KEBUMEN
6484 1100445862 HADI PURNOMO MELAN HADIPRAYITNO 14/12/1963 KUWARISAN RT.02/01 KAB. KEBUMEN
6485 1100445864 SUPADMI, S. PD 09/07/1964 KUNDURAN RT 09/01 KAB. BLORA
6486 1100445865 AGUS PRIYONO SUPARWI 24/01/1984 KARANGREJO 05/01 JUWANA KAB. PATI
6487 1100445867 BINI ASTUTI 12/12/1963 NGRANGGING RT 19 KAB. SRAGEN
6488 1100445870 BAMBANG SETIYONO, S. PD 25/11/1961 KUNDURAN RT 09/01 KAB. BLORA
6489 1100445872 TITIN SUPARNI SUPADI 16/07/1986 TOMPOMULYO 06/03 BATANGAN KAB. PATI
6490 1100445874 SUWAJI 05/10/1972 SLAWI KULON RT.01/03 KAB. TEGAL
6491 1100445876 INDRA REUNI 13/02/1976 SLAWI KULON RT.01/03 KAB. TEGAL
6492 1100445877 AMINAH 12/07/1976 BOGOSARI RT 06/03 KAB. DEMAK
6493 1100445878 TARMUJI 15/06/1969 BOGOSARI RT 06/03 KAB. DEMAK
6494 1100445879 SUMARSIH, SH 21/05/1970 PANDES RT. 05 RW. 13 KAB. KARANGANYAR
6495 1100445880 KAMINAH 12/07/1958 KALIORI RT.04 RW.02 KAB. BANYUMAS
6496 1100445881 ARIS SUHARTANTO PURWANTO 21/09/1984 TOMPOMULYO 06/03 BATANGAN KAB. PATI
6497 1100445882 WINARNO 12/07/1957 KARAKAN RT.03/RW.06 KAB. SUKOHARJO
6498 1100445884 MUSALAMAH 05/06/1968 SOKARAJA TENGAH RT 2 RW 7 KAB. BANYUMAS
6499 1100445885 WARYOTO 28/04/1959 PANDES RT. 05 RW. 13 KAB. KARANGANYAR
6500 1100445886 ASEP SURYANA 11/03/1973 TOSARI RT 13 RW 03 KAB. WONOSOBO
6501 1100445887 DIAN ERPINA 06/07/1983 KARANGJOMPO RT.01/06 TIRTO KAB. PEKALONGAN
6502 1100445888 ANIS SUSANTI SUPADI 29/03/1992 TOMPOMULYO 06/03 BATANGAN KAB. PATI
6503 1100445890 AMSORI 05/01/1972 KARANGJOMPO RT.01/06 TIRTO KAB. PEKALONGAN
6504 1100445891 INE SUNDAYANI 04/09/1973 TOSARI RT 13 RW 03 KAB. WONOSOBO
6505 1100445892 GINEM 15/03/1962 KARAKAN RT 03/06 KAB. SUKOHARJO
6506 1100445893 YULIA MAULIDA WARDI 04/07/1998 BAJOMULYO KAB. PATI
6507 1100445894 SRIYATI ASMO REBIN 08/09/1959 BULUNGCANGKRING RT 03 RW 04 KAB. KUDUS
6508 1100445895 MUHAMMAD AGUS SETYAWAN 27/08/1971 BENDOKATAN KIDUL 3/2 TAYU KAB. PATI
6509 1100445896 JARWANI 01/07/1957 KRAMAT RT 02 RW 01 KAB. PURBALINGGA
6510 1100445897 JUMINAH SUTARLAN SUCI 02/10/1979 BENDOKATON KIDUL 3/2 TAYU KAB. PATI
6511 1100445898 SHOLIKAH RUSDI MARKUM 12/06/1978 TULUNG RT 003 RW 001 PAMOTAN KAB. REMBANG
6512 1100445899 FAJRIYAH 01/04/1969 KRAMAT RT 02 RW 01 KAB. PURBALINGGA
6513 1100445901 RANU ISMANTO SARJAN 01/09/1969 TULUNG RT 003 RW 001 PAMOTAN KAB. REMBANG
6514 1100445905 SRI TATIK SUPADI 11/04/1967 PANJANGSARI RT.01/03 KAB. KEBUMEN
6515 1100445907 MAHYUDI 08/02/1968 PERUM RINENGGO ASRI E1 / 106 RT. 01/18 KAB. CILACAP
6516 1100445910 SULASTRI 02/01/1972 JEJEG RT.06/01 BUMIJAWA KAB. TEGAL
6517 1100445911 NINING ARIDAH 01/10/1973 PERUM RINENGGO ASRI BLOK E1/106 RT. 01/1 KAB. CILACAP
6518 1100445913 DRS. SUNYOTO 02/10/1963 DSN. KRADENAN III RT.02 RW.03 KAB. SEMARANG
6519 1100445914 YUSUF WIBISANA, IR 14/04/1967 WANTILAN 08/04 KAB. KLATEN
6520 1100445915 URIP MUHAMMAD TOHIR 11/09/1967 JEJEG RT.06/01 BUMIJAWA KAB. TEGAL
6521 1100445916 RUSIYAH 15/01/1960 DUSUN NUSADADI RT04 RW04 KAB. CILACAP
6522 1100445917 SULANI ANWAR 29/09/1964 LOIRENG RT 02/04 KAB. DEMAK
6523 1100445919 NURUL ALFAINI 29/05/1969 WANTILAN 08/04 KAB. KLATEN
NO NO. PORSI NAMA TANGGAL LAHIR ALAMAT KAB/KOTA KETERANGAN
6524 1100445920 NANIK SITI DARYANI , SPD 18/04/1966 DSN. KRADENAN III RT.02 RW.03 KAB. SEMARANG
6525 1100445921 NARDI MARSID RONO 01/04/1964 BANGUNREJO RT 004 RW 002 PAMOTAN KAB. REMBANG
6526 1100445922 KURYATUN 20/04/1972 LOIRENG RT 02/04 KAB. DEMAK
6527 1100445926 LIYANA 19/09/1992 BANGUNREJO RT 002 RW 002 PAMOTAN KAB. REMBANG
6528 1100445928 WIDI ASTUTININGSIH 31/01/1969 MARGASARI RT.02/08 KAB. TEGAL
6529 1100445929 BUNYAMTO 11/03/1961 DSN. MIRI RT.11 RW.03 KAB. SEMARANG
6530 1100445930 MUKHSIN 12/01/1971 DUSUN KALEN AREN RT01 RW09 KAB. CILACAP
6531 1100445931 SLAMET RAHAYU 14/02/1968 DSN. MIRI RT.11 RW.03 KAB. SEMARANG
6532 1100445932 IIN TASMINAH 14/01/1963 CILINGGA RT. 02 RW. 10 KAB. CILACAP
6533 1100445933 SYAIFUL ARIFAH,AMK 20/11/1978 PENDEM 03/08 KAB. KLATEN
6534 1100445934 SUTIAT 12/03/1978 DUSUN KALEN AREN RT01 RW09 KAB. CILACAP
6535 1100445935 DRS. EDY SUPRAPTO 13/12/1964 JL. BERINGIN TIMUR 4A RT 07/03 KAB. BLORA
6536 1100445936 SUTARYONO 06/01/1975 PENDEM 03/08 KAB. KLATEN
6537 1100445937 SUBOWO 17/08/1966 JATEN 01/04 KAB. KLATEN
6538 1100445938 SUWARNO [Link] 12/07/1959 KRUJON RT 29/07 KAB. SRAGEN
6539 1100445939 SRI SARYANTI, SH 01/04/1975 JETU RT. 01 RW. 02 KAB. KARANGANYAR
6540 1100445940 DEWI YANTINI 22/02/1959 KRUJON RT 29/07 KAB. SRAGEN
6541 1100445941 SULASIH ASTRO BENING 15/08/1957 REJOAGUNG 3/1 TRANGKIL KAB. PATI
6542 1100445942 HARI MULYANI AGUSTIANA 04/08/1967 JL. BERINGIN TIMUR 4A RT 07/03 KAB. BLORA
6543 1100445945 WARSITI, SPD 13/07/1964 JATEN 01/04 KAB. KLATEN
6544 1100445946 MOCHTAR 18/08/1964 SEKARAN, GG. MANGGIS RT.03/03 KOTA SEMARANG
6545 1100445947 SUYONO 07/09/1961 MOJOKOPEK RT 09 RW 04 KAB. SRAGEN
6546 1100445948 NURJANNAH 13/08/1961 RANDUDONGKAL RT. 35 RW. 04 KAB. PEMALANG
6547 1100445953 SUYATNO 19/02/1962 RANDUDONGKAL RT.35 RW.04 KAB. PEMALANG
6548 1100445954 SUDIYOKO SETYO BUDI UTOMO 17/06/1973 JETU RT. 01 RW. 02 KAB. KARANGANYAR
6549 1100445956 DANANG SETYA RIAWAN 08/09/1982 SUMBEREJO 3/4 JAKEN KAB. PATI
6550 1100445957 SUNARDI 25/05/1969 DAGEN RT. 02 RW. 09 KAB. KARANGANYAR
6551 1100445959 SUPARMI 01/12/1965 MOJOKOPEK RT 09/04 KAB. SRAGEN
6552 1100445961 MULYANI 08/05/1971 DAGEN RT. 02 RW. 09 KAB. KARANGANYAR
6553 1100445963 PARTIMAH 08/03/1974 SRIYASAN RT. 04/15 KAB. MAGELANG
6554 1100445964 ZAENAL ABIDIN 05/06/1967 SRIYASAN RT. 04/15 KAB. MAGELANG
6555 1100445969 NGADIYEM 06/06/1964 PENDEKAN RT 02 RW 03 KAB. WONOSOBO
6556 1100445970 SURYANINGSIH 10/11/1965 GERDU RT. 01 RW. 11 KAB. KARANGANYAR
6557 1100445971 NUR AINI 17/11/1964 PONCOL GG. 16 A /83 RT. 1 RW. 7 KOTA PEKALONGAN
6558 1100445972 MARSONI 05/09/1957 PENDEKAN RT 02 RW 03 KAB. WONOSOBO
6559 1100445974 SAHRI 22/10/1963 BANARAN RT.03/04 KOTA SEMARANG
6560 1100445976 DRS. TEGUH WIBOWO 10/11/1962 PONCOL GG. 16 A/ 83 RT. 1 RW. 7 KOTA PEKALONGAN
6561 1100445977 JUBAIDAH 08/11/1961 MENDALAN RT. 02 RW. 05 KAB. KARANGANYAR
6562 1100445979 SARTINI 19/04/1963 MERGAWATI RT. 002 RW. 03 KAB. CILACAP
6563 1100445980 LATINI PALI TARMAN 01/07/1957 BENDO RT 002 RW 002 SLUKE KAB. REMBANG
6564 1100445981 KHOLIDIN 04/11/1971 MARGASANA RT 7 RW 1 KAB. BANYUMAS
6565 1100445982 TARTO 08/07/1958 MENDALAN RT. 02 RW. 05 KAB. KARANGANYAR
6566 1100445984 ISTIQOMAH 18/04/1976 MARGASANA RT. 7/1 KAB. BANYUMAS
6567 1100445985 ABDUL QODIR JAELANI KURDI 01/07/1957 BENDO RT 002 RW 002 SLUKE KAB. REMBANG
6568 1100445986 ISMUN 25/02/1959 MERGAWATI RT. 02 RW. 03 KAB. CILACAP
6569 1100445987 SUHARTINI 26/11/1965 DSN WINANGUN RT. 01 RW. 06 KAB. CILACAP
6570 1100445990 PRAYITNO 11/12/1976 JL. P. DIPONEGORO 92 RT. 06 RW. 07 KOTA MAGELANG
6571 1100445991 REZA GILANG MANGGALA 19/08/1990 LOANO RT 03/01 KAB. PURWOREJO
6572 1100445992 RIBUT SARGONO 10/01/1975 JL. PROGO NO. 64 A RT. 03 RW. 09 KAB. CILACAP
6573 1100445993 IDA MALIHATUN 12/05/1965 BANARAN RT 3 RW 4 KOTA SEMARANG
6574 1100445994 SHERLY MARLINA LENGKONG 22/12/1977 JL. PROGO NO. 64 A RT. 03 RW. 09 KAB. CILACAP
6575 1100445996 TARSINO 05/07/1959 RT 01 RW 06 KAB. CILACAP
6576 1100445998 TUMIRAH 05/07/1965 KLEYANG RT.06 RW.04 KAB. WONOSOBO
6577 1100446002 PARMUJITO 07/05/1961 PASIR KIDUL RT. 1/1 KAB. BANYUMAS
6578 1100446003 ANIKA RUSDIANA 29/04/1973 PASIR KIDUL RT.01 RW.01 KAB. BANYUMAS
6579 1100446005 KASWI 04/05/1971 SINDANGHEULA RT. 08/03 BANJARHARJO KAB. BREBES
6580 1100446006 GITO PRIYANTO 22/09/1963 SINDANGHEULA RT.08/03 BANJARHARJO KAB. BREBES
6581 1100446012 ATIK DAROJATIK 25/03/1961 SELABAYA RT 02 RW 01 KAB. PURBALINGGA
6582 1100446013 TATIK SUPARTI 01/07/1962 DUSUN NAMBO RT. 02 RW. 10 KAB. CILACAP
6583 1100446015 AGUS SETIYASTOMO 07/09/1960 SELABAYA RT 02 RW 01 KAB. PURBALINGGA
6584 1100446016 WARSINI 06/06/1960 MEGONTEN RT 08/02 KAB. DEMAK
6585 1100446019 SUHERI 10/06/1965 PADASARI RT.17/04 JATINEGARA KAB. TEGAL
6586 1100446020 SUPAR 14/07/1961 MEGONTEN RT 07/02 KAB. DEMAK
6587 1100446021 PINAYUNGAN RAHAYU 09/08/1987 MERDEN WETAN RT. 003/004 KAB. BANJARNEGARA
6588 1100446022 JAROT SUHONO 05/01/1971 JL. RAJAWALI NO.59 RT03 RW03 KAB. CILACAP
6589 1100446024 DJULIYAH SUKELAN MARMI 27/04/1984 BENDAR 2/2 JUWANA KAB. PATI
6590 1100446025 NINING ADININGSIH 14/10/1959 MERDEN. RT. 003/004 KAB. BANJARNEGARA
6591 1100446026 TOHARI 02/03/1959 CIMUNDING RT.13/05 BANJARHARJO KAB. BREBES
6592 1100446027 LASTRI 14/09/1958 MEGONTEN RT 07/02 KAB. DEMAK
6593 1100446028 SARKINI 10/01/1961 KALIKONDANG RT.01/01 KAB. DEMAK
6594 1100446029 SRI WAHYUNINGSIH, SPD 06/06/1964 PURWOASRI RT 40/16 KAB. SRAGEN
6595 1100446030 WARTI 26/01/1968 CIMUNDING RT. 13/05 BANJARHARJO KAB. BREBES
6596 1100446032 SUSTININGSIH SP.D 19/04/1965 GOKETEN RT 21/05 KAB. SRAGEN
6597 1100446033 HENI WIDYAWATI 21/02/1977 JL. RAJAWALI NO.59 RT03 RW03 KAB. CILACAP
6598 1100446035 TRIYONO 20/06/1966 COMBONGAN RT.04/RW.01 KAB. SUKOHARJO
6599 1100446037 PUJI SOLICHA 10/01/1966 PACUL RT. 01/01 TALANG KAB. TEGAL
6600 1100446038 WAKHID ZAINI [Link] 06/01/1973 BANARAN RT 32 KAB. SRAGEN
6601 1100446039 ATAM 25/09/1961 DUSUN PAPRINGAN RT. 1/3 KAB. BANYUMAS
6602 1100446041 YUSUF 31/05/1960 PACUL RT. 01/01 TALANG KAB. TEGAL
6603 1100446042 WALUYATI 12/03/1966 DUSUN 2 RT.01 RW.03 KAB. BANYUMAS
6604 1100446044 NURJANAH 12/06/1973 KALIGANGSA KULON RT. 01/05 BREBES KAB. BREBES
6605 1100446047 SALIMAN 02/03/1968 SIDOMULYO RT 52/15 KAB. SRAGEN
6606 1100446048 ASTUTIK LESTARI 15/07/1974 SIDOMULYO RT 52/15 KAB. SRAGEN
6607 1100446050 PARNI 03/06/1979 MOJOKOPEK RT 10/04 KAB. SRAGEN
6608 1100446052 JOKO WIYONO 27/05/1969 MOJOKOPEK RT 10/14 KAB. SRAGEN
6609 1100446053 MASDUKI 03/05/1966 KALIGANGSA KULON RT. 01/05 BREBES KAB. BREBES
6610 1100446055 SRI RAHAYU MULYANINGSIH 04/04/1961 COMBONGAN RT.04/RW.01 KAB. SUKOHARJO
6611 1100446057 KARIYANI 17/05/1960 KEPUH RT 01 RW 01 KAB. WONOGIRI
6612 1100446058 MUSTAQIM JURI KASNO 04/07/1975 KABONGANKIDUL RT 005 RW 002 REMBANG KAB. REMBANG
6613 1100446061 HARTINI 08/06/1966 PADAS RT 09/01 KAB. SRAGEN
6614 1100446064 SUNTAMAH KUSNEN SULANIH 01/07/1961 KEDUNG MALANG 03/01 KAB. JEPARA
6615 1100446065 SUNARDI 05/05/1961 PADAS RT 09/01 KAB. SRAGEN
6616 1100446067 SURATI WARTO SUNTI 01/07/1964 ASEMPAPAN 02/04 TRANGKIL KAB. PATI
6617 1100446069 JANNATIN NAIMAH NUR RAKHMAT 24/04/1979 TUMPANGKRASAK RT 04 RW 07 KAB. KUDUS
6618 1100446072 ROSYIDIN 11/04/1960 DK. GENDANG RT 01/04 KAB. BLORA
6619 1100446074 MUTAMMIMAH 04/11/1979 KARANGMLATI RT 06/02 KAB. DEMAK
6620 1100446075 ANDIKA BANDUNG PUTRA 11/12/1984 PADANGSARI CLUSTER BLOK C NO. 2 RT.09/03 KOTA SEMARANG
6621 1100446076 SHINDY LILIANI ADITYANINGSIH 26/06/1985 PADANGSARI CLUSTER BLOK C NO.2 RT.09/03 KOTA SEMARANG
6622 1100446077 AKHMAD HIDAYAT 19/09/1966 KARANGMLATI RT 06/02 KAB. DEMAK
6623 1100446078 SUPARTI 14/06/1962 DK. GENDANG RT 01/04 KAB. BLORA
6624 1100446079 KHOIRUL ANAM SUJOKO 04/06/1975 GLUNTUNGAN 04/04 KAB. GROBOGAN
6625 1100446080 RUSMANTO 11/03/1962 DS. BLUMBANGREJO RT 01/01 KAB. BLORA
6626 1100446081 IKE RINDANG WULAN 16/03/1979 KEL. KETAPANG RT.16/RW.05 KAB. KENDAL
6627 1100446082 SUROTO SUKADI MANISIH 22/05/1970 SIDIGEDE 05/01 KAB. JEPARA
6628 1100446083 SUKAMTINI 05/08/1962 DS. BLUMBANGREJO RT01/01 KAB. BLORA
6629 1100446084 MUNAWIR 25/12/1977 KEL. KETAPANG RT.16/RW.05 KAB. KENDAL
6630 1100446085 MASHUDI SUWARNO TASMIN 01/02/1985 TUMPANGKRASAK RT 04 RW 07 KAB. KUDUS
6631 1100446086 TRIAS RISTANTO 18/06/1983 [Link] TENGAH VII RT.03/07 KOTA SEMARANG
6632 1100446087 MURTASIMAH 21/01/1959 TEGALSARI RT 08/01 KAB. PURWOREJO
6633 1100446089 PAGIHARI KARSAREJA SUMINAH 10/05/1958 SINANGGUL 08/02 KAB. JEPARA
6634 1100446090 SUTRISNO SUKAHAR SALIBAN 27/10/1957 SINANGGUL 08/02 KAB. JEPARA
6635 1100446091 PURWATI 20/07/1979 SURJO RT.06 RW.02 KAB. BATANG
6636 1100446092 DZURIYAH NASRUN SUNTARI 05/06/1980 SIDIGEDE 05/01 KAB. JEPARA
6637 1100446093 EMY ZULAIKAH 24/02/1979 [Link] TENGAH VII RT.03/07 KOTA SEMARANG
6638 1100446095 MASKURI 28/05/1972 SURJO RT.06 RW.02 KAB. BATANG
6639 1100446096 ASEP DAUD KOSASIH 18/03/1968 [Link] RT. 1/5 SIDABOWA KAB. BANYUMAS
6640 1100446097 SRI ENDAH WAHYUNI 17/12/1969 [Link] NO.31 RT.1/5 SIDABOWA KAB. BANYUMAS
6641 1100446100 MURADI NGADIMAN ASTROKISUT 05/08/1971 KEDUNGLEPER 01/03 KAB. JEPARA
6642 1100446101 MUTINI 11/09/1962 PUTAT RT03 RW03 KAB. TEMANGGUNG
6643 1100446102 DEWI RETNO SARI, SH 02/12/1983 SLAWI KULON BLOK K 51 RT.05/05 KAB. TEGAL
6644 1100446103 KADAR 31/12/1958 PUTAT RT03 RW03 KAB. TEMANGGUNG
6645 1100446105 AHMAD KURDI JASRI 10/01/1972 TLOGOHARUM 5/2 WEDARIJAKSA KAB. PATI
6646 1100446106 SUMIYATI SUYADI SUPARSI 13/03/1980 TLOGOHARUM 5/2 WWEDARIJAKSA KAB. PATI
6647 1100446108 SA'ADAH 12/05/1971 KLUWUT RT. 02/ 16 BULAKAMBA KAB. BREBES
6648 1100446109 MUHAMMAD ROSYAD 02/04/1959 GUDANGSARI RT. 03/RW.03 KAB. SUKOHARJO
6649 1100446110 TASRI 31/12/1963 KARANGDAWA RT.05/10 MARGASARI KAB. TEGAL
6650 1100446111 ENDANG PURWANINGSIH 05/09/1962 GUDANGSARI RT.03/RW.03 KAB. SUKOHARJO
6651 1100446112 SRI WAHYUNINGSIH 05/06/1976 JL. KH. MUKHLAS NO. 41 RT. 01 / 03 KOTA TEGAL
NO NO. PORSI NAMA TANGGAL LAHIR ALAMAT KAB/KOTA KETERANGAN
6652 1100446114 WAYO 31/12/1959 KARANGDAWA RT.05/10 MARGASARI KAB. TEGAL
6653 1100446115 SRI ISMU NURINI ASRININGSIH 17/05/1960 KEDUNGRINGIN NO. 47 B RT. 03 RW. 13 KAB. WONOGIRI
6654 1100446116 ST WASILAH 02/01/1966 RABAK RT 02 RW 01 KAB. PURBALINGGA
6655 1100446117 SITI MAESAROH 02/07/1960 GROGOL RT02 RW03 KAB. TEMANGGUNG
6656 1100446118 MUCHAMAD JAFAR PRIYONO, [Link] 01/03/1969 JL. KH. MUKHLAS NO. 41 RT. 01/03 KOTA TEGAL
6657 1100446119 ABDUL WACHID BAMBANG SUHARTO 07/10/1966 RABAK RT 02 RW 01 KAB. PURBALINGGA
6658 1100446122 ENI MUSLIKAH 09/12/1973 JOHO RT.03/RW.04 KAB. SUKOHARJO
6659 1100446124 RETNOWATI,ST 11/12/1972 TEGALREJO 05/10 KAB. KLATEN
6660 1100446126 PAINO 19/07/1970 TEGALREJO 05/10 KAB. KLATEN
6661 1100446131 QONA'AH 04/02/1963 DK. LAMARAN RT.09/08 LARANGAN KAB. BREBES
6662 1100446132 SUNARDI 29/07/1958 BANJARI CUKIL RT.20/07 TENGARAN KAB. SEMARANG
6663 1100446133 SITI ROBIATUN 19/09/1962 DSN. BANJARI RT.20 / 07 CUKIL TENGARAN KAB. SEMARANG
6664 1100446134 INDARDI, SH 27/04/1963 DSN. JUBELAN RT.03 RW.01 KAB. SEMARANG
6665 1100446136 SITI ZIAROH 26/04/1965 DSN. JUBELAN RT.03 RW.01 KAB. SEMARANG
6666 1100446141 TASRONI 02/06/1965 DSN. KEMADU RT.27 RW.08 KAB. SEMARANG
6667 1100446143 SITI AMINAH 04/06/1966 DSN. KEMADU RT.27 RW.08 KAB. SEMARANG
6668 1100446144 JOKO SANTOSO TOHA 21/08/1964 GEDONGMULYO RT 002 RW 003 LASEM KAB. REMBANG
6669 1100446145 WIWIK WIJAYANTI MASRUKIN M. ARBI 16/01/1969 GEDONGMULYO RT 002 RW 003 LASEM KAB. REMBANG
6670 1100446147 SITI NGAISAH 02/11/1961 [Link] RT.2/12 KLAPAGADING KAB. BANYUMAS
6671 1100446148 SUNIATUN NAFISAH AFIF 27/10/1975 MINDAHAN RT.001/002 KAB. JEPARA
6672 1100446151 SUYATMONO 05/05/1958 JL TERWOEH MERSI RT 2 / 5 KAB. BANYUMAS
6673 1100446152 SUMARNI 16/11/1963 [Link] MERSI RT. 2/5 KAB. BANYUMAS
6674 1100446156 MURWANI, S. PD. 25/05/1961 ASRAMA BRIMOB KALIBANGER RT. 1 RW. 1 KOTA PEKALONGAN
6675 1100446158 MADIYANTO 10/10/1960 ASRAMA BRIMOB KALIBANGER RT. 1 RW. 1 KOTA PEKALONGAN
6676 1100446159 SRI KISWATUN 21/08/1971 DUKUH SORONINI RT 02 RW 02 KAB. BLORA
6677 1100446160 SURIYAH 03/05/1959 LIMBANGAN RT. 05/01 LOSARI KAB. BREBES
6678 1100446162 HUMAEDI 21/05/1981 LIMBANGAN RT. 03/01 LOSARI KAB. BREBES
6679 1100446163 LILIK SULISTIYO 14/01/1967 DK. SORONINI RT 02/02 KAB. BLORA
6680 1100446164 THORIK HARI WIBOWO 30/05/1969 SEMANGGI RT 01/19 KOTA SURAKARTA
6681 1100446168 KARIMAH 16/08/1977 SEMANGGI RT 01/19 KOTA SURAKARTA
6682 1100446169 ADY FUAD MUSTOFA, SH. 21/09/1982 JL. JENSUD NO. 163 RT. 2 RW. 3 KOTA PEKALONGAN
6683 1100446170 RIWAYAT ENDANG PRIHATIN 28/07/1963 NGAWEN RT 04 RW 04 KAB. BLORA
6684 1100446172 PONO 08/04/1969 DERSO RT. 01 RW. 04 KAB. KARANGANYAR
6685 1100446173 EKO SUDARMANTO 28/05/1959 NGAWEN RT 04 RW 04 KAB. BLORA
6686 1100446174 SULASIH 16/09/1967 DSN. KRAJAN RT.08 RW.02 KAB. SEMARANG
6687 1100446175 MOCHAMAD YUNUS 15/08/1965 JL. PEMBANGUNAN GG. 2 /17 RT. 1 RW. 7 KOTA PEKALONGAN
6688 1100446177 NUR FUADAH 12/06/1965 CEPORAN RT. 03 RW. 07 KAB. KARANGANYAR
6689 1100446178 ZAENUDIN 08/06/1962 CEPORAN RT. 03 RW. 07 KAB. KARANGANYAR
6690 1100446183 SUTI TAHRUM 08/02/1960 TEGUHAN RT 03/01 KAB. SRAGEN
6691 1100446184 MUNAHIROH 17/07/1982 BANYURIP ALIT RT. 1 RW. 3 KOTA PEKALONGAN
6692 1100446185 SRI SETYOWATI 18/08/1968 BLUMBANG KRAJAN RT 05 RW 01 KAB. BOYOLALI
6693 1100446186 ALI MASHUDIN 20/10/1960 PURWAREJA RT 002/001 KAB. BANJARNEGARA
6694 1100446187 KATIYAH 07/12/1959 KRADENAN RT.03 RW.01 KAB. BATANG
6695 1100446189 RR. SOESIJANTI 15/04/1971 JL. PEMBANGUNAN 2 / 17 RT. 1 RW. 7 KOTA PEKALONGAN
6696 1100446192 MUHAMAD RIZQON 22/05/1972 BANYURIP ALIT RT. 1 RW. 3 KOTA PEKALONGAN
6697 1100446196 SRI PURWANTI 05/06/1979 PENCIL RT.04 RW.01 KAB. KARANGANYAR
6698 1100446197 MASLUR 31/12/1959 BRAMBANG RT 05/05 KAB. DEMAK
6699 1100446198 ROSIDA HARIYANI 19/03/1977 SENDANGAPAK RT 13 KAB. SRAGEN
6700 1100446199 MOH. KHASAN 12/12/1974 JL. BUKIT TUNGGAL III BLOK C 2A RT 12 RW KOTA SEMARANG
6701 1100446200 DWI JOKO , DRS 26/11/1965 SENDANGAPAK RT 13 KAB. SRAGEN
6702 1100446201 NALURITA RAHARJO 12/01/1979 [Link] INDAH PERMAI NO.12 RT.04/RW.08 KAB. SUKOHARJO
6703 1100446202 NUROHDIN 20/12/1969 PERMITAN 04/02 KAB. MAGELANG
6704 1100446204 SRI SURYO FIRMANSYAH NOVIYANTO 11/11/1974 [Link] INDAH PERMAI NO.12 RT.04/RW.08 KAB. SUKOHARJO
6705 1100446207 SOLIKHA 02/03/1963 DAWUHAN RT.16/04 TALANG KAB. TEGAL
6706 1100446208 SUWARNINGSIH PARMAN SAYEM 10/06/1971 BAKARAN WETAN 1/2 JUWANA KAB. PATI
6707 1100446209 KAMIYO 02/04/1972 JOYOTAKAN RT.03 RW.02 KOTA SURAKARTA
6708 1100446210 TRIYONO TEGUH WIDODO 13/07/1972 KALIPUCANG WETAN RT.001/001 KAB. JEPARA
6709 1100446211 ZULFAH KUSDIYARTI MASRUCHIN 25/08/1972 KALIPUCANG WETAN RT.001/001 KAB. JEPARA
6710 1100446212 KUSMINAH SALIM RAIS 17/08/1961 TROSO RT.005/003 KAB. JEPARA
6711 1100446213 KUSAIRI 03/05/1960 PAKUMBULAN RT.13/07 BUARAN KAB. PEKALONGAN
6712 1100446215 NUR ROHMAH 04/02/1964 PAKUMBULAN RT.13/07 BUARAN KAB. PEKALONGAN
6713 1100446216 MAT SOLEH SUHUD 02/08/1970 PASURUHAN 5/2 KAYEN KAB. PATI
6714 1100446217 USWATUN KHASANAH 17/04/1970 SIDEWI RT.02 RW.09 KAB. KARANGANYAR
6715 1100446218 TRI WAHONO AL MULYONO 19/08/1966 SIDEWI RT.02 RW.09 KAB. KARANGANYAR
6716 1100446221 UMMUL CHOIR MAFTUH 30/11/1983 RACI 01/03 BATANGAN KAB. PATI
6717 1100446222 FAICHATUL MISKIYAH 14/10/1975 NGROTO 03/05 KAB. GROBOGAN
6718 1100446223 SULIM 01/07/1968 CONDONGCAMPUR. RT. 001/002 KAB. BANJARNEGARA
6719 1100446224 WIJI HAMDANI WARMIN 06/10/1975 RACI 1/3 BATANGAN KAB. PATI
6720 1100446226 NANIK YUSNIATI 15/08/1959 PETEMPEN MALANG 327 RT.05/01 KOTA SEMARANG
6721 1100446227 MUSTI'IN SUTIONO NARISIH 06/07/1980 JAMBEAN KIDUL 5/2 MARGOREJO KAB. PATI
6722 1100446229 AHMAD MUNIR ABDILLAH 28/10/1962 NGROTO 03/05 KAB. GROBOGAN
6723 1100446230 SITI MASFUATIN 17/08/1957 KRANGGANHARJO 02/01 KAB. GROBOGAN
6724 1100446231 MINTORO KUSLAN SUTARNI 16/05/1976 JAMBEAN KIDUL 5/2 MARGOREJO KAB. PATI
6725 1100446233 SUWAJI SUDARLAN PAIJAH 01/05/1962 KUTOHARJO 4/8 PATI KAB. PATI
6726 1100446235 IDA NOOR SAADAH 03/05/1964 KUTOHARJO 4/8 PATI KAB. PATI
6727 1100446239 BETA SOFIATUN SUKIYONO 13/04/1978 JAMBEAN KIDUL 2/1 MARGOREJO KAB. PATI
6728 1100446241 WINARNO SARDJONO TASMILAH 06/10/1968 JAMBEAN KIDUL 2/1 MARGOREJO KAB. PATI
6729 1100446242 SALIM 04/09/1964 CONDONGCAMPUR. RT. 001/002 KAB. BANJARNEGARA
6730 1100446243 RUNAH 12/07/1960 NONANG 03/02 KAB. GROBOGAN
6731 1100446244 SRI UTAMI 31/12/1967 GONDANGAN 02/11 KAB. KLATEN
6732 1100446250 TITIK LISMIYATI 09/02/1971 MOJOREJO 01/07 KAB. KLATEN
6733 1100446251 MARIYAM 18/10/1979 JL. KHM MANSYUR BENDAN GG.3 NO.11A KOTA PEKALONGAN
6734 1100446252 BASIR, SH 07/01/1968 JL. KHM MANSYUR BENDAN GG.3 NO.11A KOTA PEKALONGAN
6735 1100446253 TRI SUWARDANI 13/04/1963 AMPELGADING RT. 04 RW. 03 KAB. PEMALANG
6736 1100446255 MUSLIKHAH 18/07/1963 LENGKONG. RT. 006/001 KAB. BANJARNEGARA
6737 1100446257 WAHIDIN 08/10/1958 AMPELGADING RT.04 RW.03 KAB. PEMALANG
6738 1100446258 SUNOTO SUKAR PARMI 12/03/1974 KALAIMULYO 3/1 JAKENAN KAB. PATI
6739 1100446259 DWI WIWIN SUPRIYATI 21/10/1972 KEBLUKAN RT01 RW01 KAB. TEMANGGUNG
6740 1100446263 RINA DWI HASTUTI, DRA 19/03/1961 JL. BASKARA I NO. 10 RT 1 RW 7 KOTA SEMARANG
6741 1100446264 RIYANTO, BSC 25/10/1962 JL. BASKARA I NO. 10 RT 1 RW 7 KOTA SEMARANG
6742 1100446265 ABDUL MU'ID MASKAN 16/03/1963 NGAGEL 07/03 DUKUHSETI KAB. PATI
6743 1100446271 MU'LINATUS SA'ADAH NURWI 07/04/1973 NGAGEL 07/03 DUKUHSETI KAB. PATI
6744 1100446274 SAMSIR 01/07/1961 LENGKONG. RT. 006/001 KAB. BANJARNEGARA
6745 1100446275 HANIYATUN DAMANHURI BASROWI 28/10/1959 PEJAGOAN RT. 02. 04 KAB. KEBUMEN
6746 1100446276 SUWONDO ACHMAD CHAELANI 11/10/1962 JEMUR RT.04/02 KAB. KEBUMEN
6747 1100446278 UMI HANIYATI 24/11/1972 JL. MENOREH UTARA XI/31 RT 010 / RW 001 KOTA SEMARANG
6748 1100446279 DANIK SULISTIAWATI 08/12/1981 MLESE 02/01 KAB. KLATEN
6749 1100446280 NUR AKHYANI 08/02/1984 GRASAK RT 43 KAB. SRAGEN
6750 1100446281 MUSLIH ABDUL HAMID 24/05/1979 GRASAK RT 43 KAB. SRAGEN
6751 1100446282 ARIES WAHYU HIDAYAT 03/04/1982 MLESE 02/01 KAB. KLATEN
6752 1100446286 SUMARMAN 24/08/1962 LINGKUNGAN MENDUT I RT. 03/02 KAB. MAGELANG
6753 1100446289 SUKASIH SUMARDI MADISKAK 10/08/1960 JEMUR RT. 04. 02 KAB. KEBUMEN
6754 1100446290 NUR HASSANAH 01/06/1968 GETAS 02/04 KAB. GROBOGAN
6755 1100446291 SRI HUNUNG HIMAWATI 04/09/1962 LING MENDUT I RT.03 RW.02 KAB. MAGELANG
6756 1100446296 SRI SUKARJIYATI 28/09/1957 JEKETRO 02/03 KAB. GROBOGAN
6757 1100446298 MARYONO 18/07/1966 MANTUP RT 04 KAB. SRAGEN
6758 1100446299 PUPUK 17/07/1972 NGAWEN RT 04/07 KAB. BLORA
6759 1100446301 MUNAWAROH 06/07/1965 NGROTO 04/01 KAB. GROBOGAN
6760 1100446302 KUSNADI PATMAN AMINI 03/01/1958 BOLOAGUNG 11/02 KAYEN KAB. PATI
6761 1100446303 KUSMIYATI 04/10/1971 MANTUP RT 04 KAB. SRAGEN
6762 1100446304 SUMITRI 20/02/1973 JAPAH RT 02/01 KAB. BLORA
6763 1100446306 ZUNIYARTI 09/02/1977 BLUMBANG RT 14 KAB. SRAGEN
6764 1100446307 SUTRINI KARJAN KASI 19/06/1961 BOLOAGUNG 11/02 KAYEN KAB. PATI
6765 1100446309 SUPARNO 23/07/1969 BLUMBANG RT 14 KAB. SRAGEN
6766 1100446310 SUWARDI 30/12/1957 BAKALAN RT 21 KAB. SRAGEN
6767 1100446312 MUSTOLANI 07/05/1968 JL. DAHLIA NO.29 RT.03 RW.07 KAB. CILACAP
6768 1100446313 SUKIYATNO 29/01/1968 NGROTO 03/01 KAB. GROBOGAN
6769 1100446314 MUHTAMIL 09/04/1971 JL. DAHLIA RT.03 RW.07 SERANG CIPARI KAB. CILACAP
6770 1100446315 SUMIRAN 03/06/1967 NGAWEN RT 04/07 KAB. BLORA
6771 1100446316 ARIES DWI ADITYA 12/02/1989 BOLOAGUNG 11/02 KAYEN KAB. PATI
6772 1100446319 NUR KHAMID 14/07/1972 WONOSALAM RT.06/02 KAB. DEMAK
6773 1100446320 WIRTONO 02/11/1961 TRAJU RT.02/01 BUMIJAWA KAB. TEGAL
6774 1100446321 DUINAH 31/12/1963 TRAJU RT.02/01 BUMIJAWA KAB. TEGAL
6775 1100446322 DAMSURI 05/04/1964 GETAS 02/04 KAB. GROBOGAN
6776 1100446323 SUBUR KARYANI SARMI 18/03/1973 KARANGWONO 04/04 TAMBAKROMO KAB. PATI
6777 1100446325 NAILISY SYARIFAH 24/09/1980 WONOSALAM RT.06/02 KAB. DEMAK
6778 1100446326 SUWARLI 13/02/1963 NGROTO 04/01 KAB. GROBOGAN
6779 1100446327 UMINI KARSONO SUGIMAH 29/09/1978 KARANGWONO 04/04 TAMBAKROMO KAB. PATI
NO NO. PORSI NAMA TANGGAL LAHIR ALAMAT KAB/KOTA KETERANGAN
6780 1100446329 MISNGAD 15/07/1957 DK. MENTENG RT.07/01 PAGUYANGAN KAB. BREBES
6781 1100446334 SRI SUDARMI 03/02/1963 TLAWONG RT 01 RW 01 KAB. BOYOLALI
6782 1100446335 WARSIN 16/02/1972 NGROTO 01/05 KAB. GROBOGAN
6783 1100446337 SAMIDI 11/04/1963 DUKUH KLIWONAN RT 34/09 KAB. SRAGEN
6784 1100446339 ANIK SRI HERYANI 30/03/1963 TLOGOREJO 05/01 TLOGOWUNGU KAB. PATI
6785 1100446340 WIDODO 30/01/1962 TLAWONG RT 01 RW 01 KAB. BOYOLALI
6786 1100446341 NUR HAMID 21/11/1957 TUNGU 05/01 KAB. GROBOGAN
6787 1100446343 SUHARMI 31/12/1958 DUKUH RT 34/09 KAB. SRAGEN
6788 1100446344 AL HILAL 06/11/1986 SURODADI RT 02 RW 14 KAB. BOYOLALI
6789 1100446345 SUYANTO HARJO WAGE 20/08/1965 KAJEN 03/01 MARGOYOSO KAB. PATI
6790 1100446346 SUDARTO TRI NUGROHO 06/12/1972 KURIPAN RT.02/01 KAB. DEMAK
6791 1100446347 MOKHAMMAD ZAR'AN 14/04/1971 PARE RT01 RW04 KAB. TEMANGGUNG
6792 1100446348 ROMIAH 10/01/1966 NGROTO 01/05 KAB. GROBOGAN
6793 1100446351 ENY RUFIAH AHMAD SYAHUD 17/07/1962 NGEMPLAK KIDUL 04/04 MARGOYOSO KAB. PATI
6794 1100446352 MURTOFINGAH 28/02/1958 JL. CIBEREM RT.03 RW.08 KAB. CILACAP
6795 1100446353 SOFIATUN 30/12/1965 TUNGU 05/01 KAB. GROBOGAN
6796 1100446354 SARI WIJAYANINGSIH 21/06/1986 SURODADI RT 02 RW 14 KAB. BOYOLALI
6797 1100446355 KOYO IWAN CHOLIS 08/08/1962 DS. LEDOK RT 04/05 KAB. BLORA
6798 1100446357 SODIKAN SUKIMIN SABARI 01/12/1969 KARANGHARJO RT 003 RW 002 KRAGAN KAB. REMBANG
6799 1100446359 DEDY TRIO SAPUTRA 07/12/2000 DS. LEDOK RT 04/05 KAB. BLORA
6800 1100446360 MUH. SUUD 13/05/1967 MINTENAN RT.03/01 LOGANDENG KARANGDADAPKAB. PEKALONGAN
6801 1100446363 ISMARYUNI 04/09/1966 PONCOBUDOYO RT 01 RW 10 KAB. BOYOLALI
6802 1100446364 MASITOH 10/11/1964 SIDAPURNA RT.28/04 DUKUHTURI KAB. TEGAL
6803 1100446365 MUSDALIFAH 21/07/1976 MINTENAN RT.03/01 LOGANDENG KARANGDADAPKAB. PEKALONGAN
6804 1100446366 ERNI HAYATI 20/06/1966 DS. SLATRI NO.04 RT.02/01 LARANGAN KAB. BREBES
6805 1100446367 NAWAWI TAHYAT 20/10/1958 SIDAPURNA RT.28/04 DUKUHTURI KAB. TEGAL
6806 1100446368 WAHADI 26/02/1968 DS. SEMPU RT 04/01 KAB. BLORA
6807 1100446369 RUBIYEM 01/06/1961 BEKANGAN RT 04 RW 02 KAB. BOYOLALI
6808 1100446371 KOYIN 21/11/1967 SENDANG UTARA III RT.02/07 KOTA SEMARANG
6809 1100446372 HANIFAH,DRA 19/06/1959 MATANGAN 05/03 KAB. KLATEN
6810 1100446373 NGATIJAH 21/03/1967 DS. SEMPU RT 04/01 KAB. BLORA
6811 1100446374 ROIPAH 11/11/1958 KLAMPOK RT.03/RW.02 WANASARI KAB. BREBES
6812 1100446376 SUCIPTO 15/05/1958 BEKANGAN RT 04 RW 02 KAB. BOYOLALI
6813 1100446377 HAMDAN SYAKIRIN. AS 04/02/1974 JL. HASYIM ASY'ARI NO. 235 RT. 1 RW. 3 KOTA PEKALONGAN
6814 1100446378 FADJAR ROHYANI, SE. 06/11/1971 JL. HASYIM ASY'ARI NO.235 RT. 1 RW. 3 KOTA PEKALONGAN
6815 1100446379 SANTOSO 05/08/1960 PONCOBUDOYO RT 01 RW 10 KAB. BOYOLALI
6816 1100446380 TASRIPIN 10/02/1969 PEGIRIKAN RT.31/08 TALANG KAB. TEGAL
6817 1100446383 MUSLIKAH SUTARDJI WARAS 13/11/1976 KARANGHARJO RT 003 RW 002 KRAGAN KAB. REMBANG
6818 1100446384 KOMARIYAH 15/09/1970 PEGIRIKAN RT.31/08 TALANG KAB. TEGAL
6819 1100446388 SRI INDRIATUN 22/10/1965 KARANGREJO RT.01/03 KAB. DEMAK
6820 1100446389 SWASONO ALAN KUSUMA 27/01/1991 KISMOREJO RT.02 RW.10 KOTA SURAKARTA
6821 1100446390 PUDJI ISWATI 07/08/1957 JL. MUSI 38E RT 04/01 KAB. BLORA
6822 1100446392 ARI SUTIKNO 19/06/1977 LEMAHIRENG 04/02 KAB. KLATEN
6823 1100446393 SUKAHAR 01/09/1964 KARANGREJO RT.01/03 KAB. DEMAK
6824 1100446394 NAHDIYAH 27/05/1973 MEGA PERMAI VIII/173 RT.05/12 KOTA SEMARANG
6825 1100446395 SURATINI 29/07/1958 KISMOREJO RT.02 RW.10 KOTA SURAKARTA
6826 1100446397 TITI SUDIARTI HIDAYAT 06/06/1962 KARANGMONCOL RT. 04 RW. 01 KAB. PEMALANG
6827 1100446400 KOTIMAH 10/12/1973 KEBASEN RT.05/02 TALANG KAB. TEGAL
6828 1100446401 GIYONO 01/11/1958 KARANGMONCOL RT. 04 RW. 01 KAB. PEMALANG
6829 1100446404 SUPRAPTO 15/02/1973 KEBASEN RT.05/02 TALANG KAB. TEGAL
6830 1100446405 SRI HARJANTO 24/09/1962 ASPOL TLOGOMULYO D/385 RT 3 RW 7 KOTA SEMARANG
6831 1100446406 BUDI UTAMI, PH 17/07/1961 GIRIMULYO 02/06 KAB. KLATEN
6832 1100446407 IBNU MUNDZIR NADZIR 17/05/1984 DUKUH BERJAN RT.01/05 KAB. PURWOREJO
6833 1100446409 SUKARSIH 09/07/1963 BANJARSARI NO. 61 RT.03/01 - TEMBALANG KOTA SEMARANG
6834 1100446410 MARDIYONO 16/01/1972 MEGA PERMAI VIII/173 RT.05/12 KOTA SEMARANG
6835 1100446411 SUGENG PRAYITNO 07/05/1968 CELEBAN UH 3/633 RT 048 / RW 007 KOTA TEGAL
6836 1100446412 MUHADI 08/11/1962 GEMAMOL 01/07 KAB. KLATEN
6837 1100446413 TARBIAH MAKSUM HASAN 16/08/1965 BAWU 35/07 KAB. JEPARA
6838 1100446414 IKA NEVE ASMOKO 05/11/1980 JL. BANJARSARI NO.61 RT.03/01 TEMBALANG KOTA SEMARANG
6839 1100446415 ANDY KUNTJORO 01/12/1970 TERBOYO WETAN RT.02/01 KOTA SEMARANG
6840 1100446416 EDI SURYANI 02/09/1965 GEMAMOL 01/07 KAB. KLATEN
6841 1100446417 AB. LATIP NUR SAHLAN 25/03/1965 BAWU 35/07 KAB. JEPARA
6842 1100446418 EFFY MARDIYANI 08/06/1971 TERBOYO WETAN RT.02/01 KOTA SEMARANG
6843 1100446420 MUH KUSNIN, DRS. M. PD 26/08/1963 DS. BITING RT 01/03 KAB. BLORA
6844 1100446421 WIDODO SOEROMIHARDJO SOERADIWIRJA 23/03/1958 KEMBARAN RT.01/02 KAB. KEBUMEN
6845 1100446423 HASANUDIN HADI 11/05/1963 JL. KH. HASYIM ASY'ARI RT. 1 RW. 3 KOTA PEKALONGAN
6846 1100446424 UMI ROHANAH 14/06/1971 JL. KH. HASYIM ASY'ARI 34 RT. 2 RW. 3 KOTA PEKALONGAN
6847 1100446425 SULASTRI, DRA 26/02/1965 DS. BITING RT 01/03 KAB. BLORA
6848 1100446426 KUKUH FATCHUROCHIM 05/08/1972 KAUMAN [Link] RT.04 RW.08 KAB. BATANG
6849 1100446427 LAHURI 04/05/1959 BRABO 03/01 KAB. GROBOGAN
6850 1100446428 NUR HASANAH 09/01/1974 KAUMAN [Link] RT.04 RW.08 KAB. BATANG
6851 1100446429 NUDYANINGSIH SISWO KARYO SUJONO 20/02/1962 KEMBARAN RT.01/02 KAB. KEBUMEN
6852 1100446430 M. RUSDI 17/09/1977 BANYURIP AGENG RT.01 RW.06 KOTA PEKALONGAN
6853 1100446432 ROKHIS 07/04/1979 BANYURIP AGENG RT.01 RW.06 KOTA PEKALONGAN
6854 1100446433 SUYANTO 28/05/1958 PILANG LOR 04/03 KAB. GROBOGAN
6855 1100446434 AGUS PURWANTO NGADIYO 27/08/1957 BUMIHARJO RT.01/03 KAB. KEBUMEN
6856 1100446435 JUMINEM 03/08/1963 GONDANG RT.03 RW.05 KAB. WONOGIRI
6857 1100446436 RESTYANA ENDRAWATI 22/12/1963 SIDAKANGEN RT 09 RW 05 KAB. PURBALINGGA
6858 1100446437 LINDARTI 27/12/1965 SIDAKANGEN RT 09 RW 05 KAB. PURBALINGGA
6859 1100446438 EKO YULI ASTUTI 01/07/1963 BUMIHARJO RT. 01. 03 KAB. KEBUMEN
6860 1100446439 MUJIYONO 05/05/1963 GONDANG RT.03 RW.05 KAB. WONOGIRI
6861 1100446440 WIDARYO WAGIRAN MOROKEMPAR 22/12/1957 SUKODONO 004/002 KAB. JEPARA
6862 1100446441 PAINAH PARDI WARSIH 02/03/1961 SUKODONO 04/02 KAB. JEPARA
6863 1100446445 MASKURI 21/06/1969 TLOGOMULYO RT.01/05 KOTA SEMARANG
6864 1100446446 ANWAR MASYHURI RAIS 03/06/1962 KARAS RT 001 RW 001 SEDAN KAB. REMBANG
6865 1100446447 NURALIYAH 27/03/1971 TLOGOMULYO RT.01/05 KOTA SEMARANG
6866 1100446448 MOHAMAD TOHIRIN 06/06/1961 KEMBANGAN RT 02 RW 08 KAB. PURBALINGGA
6867 1100446449 RAHMAWATI SITI ASIYAH 14/04/1974 KALANGAGUNG 02/09 KAB. MAGELANG
6868 1100446450 BUDI HARYONO 29/06/1965 KALANGAGUNG RT.02 RW.09 KAB. MAGELANG
6869 1100446451 YUMIATI SUTIKNO BASIRAN 02/06/1965 KARAS RT 001 RW 001 SEDAN KAB. REMBANG
6870 1100446453 SITI NOR CHAYATI MASRUHIN 09/06/1977 JURANG RT.01 RW.02 KAB. KUDUS
6871 1100446454 MOHAMAD AHRIS NOOR QOSYIM 10/08/1972 JURANG RT.01 RW.02 KAB. KUDUS
6872 1100446456 YAYUK SRI RAHAYU 02/01/1967 CEPOGO RT.001/011 [Link] KAB. JEPARA
6873 1100446458 ATHIKA DIAN PARFINA 14/06/1978 PARE RT01 RW04 KAB. TEMANGGUNG
6874 1100446459 DARSONO MINTA MIHARDJA 16/03/1960 CEPOGO 01/11 KEC. KEMBANG KAB. JEPARA
6875 1100446462 SARJONO 17/08/1966 PUYOH RT 04 RW 07 KAB. KUDUS
6876 1100446464 NUR HAKIMAH, S. AG. 22/12/1972 SETONO GG. 6 NO. 33 RT. 2 RW. 7 KOTA PEKALONGAN
6877 1100446466 MOH. ISRO'I, S. AG. MM. 13/03/1973 SETONO GG. 6 NO. 33 RT. 2 RW. 7 KOTA PEKALONGAN
6878 1100446467 SARIYAH KARTUBI TAMAN 01/01/1961 JAPEREJO RT 001 RW 001 PAMOTAN KAB. REMBANG
6879 1100446468 FITROKHATUN 29/10/1972 CINTAMANIK RT.03/03 BUMIJAWA KAB. TEGAL
6880 1100446470 ANIK WIDIHASTUTININGSIH 19/07/1968 PECING RT 02/14 KAB. SRAGEN
6881 1100446472 DARMONO 12/09/1962 PECING RT 02/14 KAB. SRAGEN
6882 1100446473 MAHMUDI, SAG 02/10/1958 YOSODIPURAN RT.02 RW.03 KOTA SURAKARTA
6883 1100446475 TARMIYATI 23/04/1966 TUKSONGO RT02 RW01 KAB. TEMANGGUNG
6884 1100446476 MUKH SAIFUDIN 13/07/1980 BAWANG RT 005 / RW 003 KAB. BATANG
6885 1100446479 UNTUNG WAHYONO 01/01/1963 TUKSONGO RT02 RW01 KAB. TEMANGGUNG
6886 1100446480 ABDUL GHOFUR 24/03/1969 CINTAMANIK RT.03/03 BUMIJAWA KAB. TEGAL
6887 1100446481 DEVI ISMAYAWATI 03/05/1972 WATUTELENAN RT 07 RW 08 KAB. BOYOLALI
6888 1100446482 TRIYOGI SUKA ANDARU 28/07/1969 WATUTELENEN RT 07 RW 08 KAB. BOYOLALI
6889 1100446483 ABDUL WAHID SAMUDI 01/11/1974 GUYANGAN 4/2 TRANGKIL KAB. PATI
6890 1100446484 KAMAN 30/10/1963 PRINGAMBA RT 002 RW 001 KAB. BANJARNEGARA
6891 1100446485 RAYEM 01/07/1967 PRINGAMBA RT 002 RW 001 KAB. BANJARNEGARA
6892 1100446486 PRAMESTI WIDYA SUSANA 25/10/1982 JL. RAYA SURADADI RT. 02/05 KAB. TEGAL
6893 1100446487 MAHMUD YUNUS 01/10/1976 WANASARI RT. 06 RW. 02 KAB. PEMALANG
6894 1100446488 NURJANAH MUNASIR KARTINI 20/12/1974 JATIMULYO 6/1 WEDARIJAKSSA KAB. PATI
6895 1100446489 MOHAMAD NABHAN ULINNUHA 13/01/1973 JATIMULYO 6/1 WEDARIJAKSA KAB. PATI
6896 1100446490 WASILATUL MUYASSAROH 07/07/1977 WANASARI RT. 06 RW. 02 KAB. PEMALANG
6897 1100446491 SAMIARJO 10/01/1958 PASUNGGINGAN RT 032 / RW 012 KAB. PURBALINGGA
6898 1100446492 TARWAN 16/09/1972 SOKANEGARA RT 02 RW 01 KAB. PURBALINGGA
6899 1100446493 SRI MARYATI JAMIL SUMANTO 08/08/1959 GIWANGRETNO RT.01/02 KAB. KEBUMEN
6900 1100446494 TRI WARNO 14/03/1971 SRAGEN LOR RT 01 RW 09 KAB. SRAGEN
6901 1100446495 TIAR SAPTONO 12/09/1976 PANGEBATAN RT 4 RW 01 KAB. BANYUMAS
6902 1100446496 HARTANTI 23/10/1978 SRAGEN LOR RT 01 RW 09 KAB. SRAGEN
6903 1100446498 SITI KHODRIYAH 03/05/1966 SOKANEGARA RT 02 RW 01 KAB. PURBALINGGA
6904 1100446504 WIDYO PAMUJO 23/11/1958 SAWANGAN RT 02 RW 03 KAB. PURBALINGGA
6905 1100446505 DWIYANTI 06/05/1966 SAWANGAN RT 02 RW 03 KAB. PURBALINGGA
6906 1100446506 ISMAWATI 07/12/1978 PANGEBATAN RT 4 RW 01 KAB. BANYUMAS
6907 1100446507 SAFRUDIN NUR HIDAYAT 05/06/1971 KEBUTUH RT 01 RW 04 KAB. PURBALINGGA
NO NO. PORSI NAMA TANGGAL LAHIR ALAMAT KAB/KOTA KETERANGAN
6908 1100446508 NUR CAHYATI 05/02/1977 KEBUTUH RT 01 RW 04 KAB. PURBALINGGA
6909 1100446511 RITA HANDAYANI MUNAWAR 23/03/1977 GUYANGAN 4/2 TRANGKIL KAB. PATI
6910 1100446512 HIDAYATUL MA'RIFAH 21/09/1981 REJOSARI TIMUR RT.03 RW.02 KAB. BATANG
6911 1100446514 PRATOMO HADI 07/09/1971 REJOSARI TIMUR RT.03 RW.02 KAB. BATANG
6912 1100446515 WARSITO 15/04/1971 PRM GS MANDALATAMA BLK 20 NO.11 RT.3/6 KAB. BANYUMAS
6913 1100446516 UPIK MARIA NOVIANTI 21/11/1975 PRM GS MANDALATAMA BLOK 20 NO.11 RT.3/6 KAB. BANYUMAS
6914 1100446517 SADUN 31/12/1960 JL. SLAMET RIYADI NO.29 RT12 RW06 KAB. CILACAP
6915 1100446520 MUSTOLIH 05/12/1962 DUSUN SIDASARI RT. 06 RW. 05 KAB. CILACAP
6916 1100446521 SRI MULYANI 02/09/1968 PILANGSARI RT 08/04 KAB. SRAGEN
6917 1100446522 MUTASINGAH 01/07/1973 DUSUN SIDASARI RT. 06 RW. 05 KAB. CILACAP
6918 1100446523 SUKONCO 29/01/1965 PILANGSARI RT 08/04 KAB. SRAGEN
6919 1100446525 SUWARTI RANU PAWIRO 08/06/1959 MENGANTI RT. 03. 04 KAB. KEBUMEN
6920 1100446527 WAHYU ADI SUTOPO 25/05/1978 JL. RAYA SURADADI RT.02/05 KAB. TEGAL
6921 1100446528 DWI MARTYASTUTI, DR 08/03/1962 JL. BASUKI RAHMAT NO.24 RT.03 RW.13 KOTA SURAKARTA
6922 1100446529 HERI SUSILOWATI 20/04/1960 JL NUSA INDAH NO. 21 RT. 15/18 PERUM KAB. KARANGANYAR
6923 1100446530 MARYATI 03/12/1965 JL PUSPONYINDRO D5 NO.2 RT. 3/19 KAB. KARANGANYAR
6924 1100446532 SUMARWOTO 20/07/1957 JL NUSA INDAH NO. 21 RT. 15/18 PERUM KAB. KARANGANYAR
6925 1100446533 SUMAZATI 10/02/1958 BANARAN RT.02/05 KOTA SEMARANG
6926 1100446534 BAHIR 09/06/1971 WONOROJO RT.05/01 KALIREJO TALUN KAB. PEKALONGAN
6927 1100446537 BAHRANI KARTOWIYONO SONTODIKROMO 04/10/1960 JEPANG RT 04 RW 11 KAB. KUDUS
6928 1100446538 SITI KHALIMAH 15/03/1961 SUMBER RT. 01/01 KAB. MAGELANG
6929 1100446539 ENDAH RAHMAWATI 22/02/1966 SALAM 2 RT. 01/04 KAB. MAGELANG
6930 1100446540 RAGIL RETNO KUNTARI 08/04/1972 PUCUNGSARI RT. 19/08 KAB. MAGELANG
6931 1100446541 MARIYAH 01/07/1960 GESARI RT.01 RW.01 KAB. MAGELANG
6932 1100446542 MUHAMMAD SALMAN 07/06/1958 CANDIKULON RT.01 RW.11 KAB. MAGELANG
6933 1100446545 TARYONO 13/12/1978 SIBEDUG RT.17/06 KEBONAGUNG KAJEN KAB. PEKALONGAN
6934 1100446549 RUWANTI 31/12/1973 KRAGON RT. 03/03 KAB. MAGELANG
6935 1100446550 SUNARTI 09/11/1979 [Link] RT.17/06 KEBONAGUNG KAJEN KAB. PEKALONGAN
6936 1100446551 YAMRONI 10/03/1969 BANARAN RT. 01/05 KAB. MAGELANG
6937 1100446553 MURYANI 08/05/1972 JL. MAWAR NO.33 RT.06/05 BREBES KAB. BREBES
6938 1100446554 SUPIATI 01/07/1972 BANARAN RT.01 RW.05 KAB. MAGELANG
6939 1100446556 SAIRUN 09/03/1963 JL. MAWAR NO.33 RT.06/05 BREBES KAB. BREBES
6940 1100446557 NASRIFAH 13/12/1974 WONOROJO RT.05/01 KALIREJO TALUN KAB. PEKALONGAN
6941 1100446558 DWI LASMANI 07/09/1965 SENDEN 09/04 KAB. KLATEN
6942 1100446560 SAIFUL HADI AHMAD ABAS 07/08/1961 SUNGGINGAN RT.05 RW.02 KAB. KUDUS
6943 1100446562 SUTRISNO ACHMAD SUMARNO 21/06/1963 PASURUHAN LOR RT.02 RW.04 KAB. KUDUS
6944 1100446563 KRISTANTO, DRS 31/03/1964 SENDEN 09/04 KAB. KLATEN
6945 1100446564 SUYATNO, SKM 10/07/1963 KEDUNGBANTENG RT 42 KAB. SRAGEN
6946 1100446566 SRI HARTANI 24/03/1967 KEDUNG BANTENG RT 42 KAB. SRAGEN
6947 1100446567 SUPIYATI SURATMAN KASBI 17/06/1969 SEGOROMULYO RT 002 RW 003 PAMOTAN KAB. REMBANG
6948 1100446569 MAS'UD SAEKUM SURO KLIWON 15/02/1962 SEGOROMULYO RT 002 RW 003 PAMOTAN KAB. REMBANG
6949 1100446571 ACHMAD FATAH ZAIN 16/09/1973 LANGENHARJO 4/1 MARGOREJO KAB. PATI
6950 1100446573 DWI PUJI LESTARI 16/09/1976 LANGENHARJO 4/1 MARGOREJO KAB. PATI
6951 1100446574 SHOFIA ULFA ALI SHAHBANA 22/09/1969 SUNGGINGAN RT.05 RW.02 KAB. KUDUS
6952 1100446575 SITI MUFAWAZAH AHMAD FAUZAN 16/03/1968 WINONG 4/4 PATI KAB. PATI
6953 1100446576 MOH SODIQ KASTARI SAPURAH 17/06/1960 WINONG 4/4 PATI KAB. PATI
6954 1100446579 TOLKAH 15/03/1973 BANJARAN RT.01 RW.08 KAB. SEMARANG
6955 1100446580 IDA SURYA 23/06/1981 DSN. BANJARAN RT.01 RW.08 KAB. SEMARANG
6956 1100446582 KAWISAH 20/07/1971 KEMBANGAN RT 02 RW 08 KAB. PURBALINGGA
6957 1100446583 SRI HARTATI LASMIN PUJO HADIWARDOJO 15/01/1961 MUKTISARI RT.03/03 KAB. KEBUMEN
6958 1100446584 SRI RAHAYUNINGSIH 07/09/1964 BODROREJO 19/07 KAB. KLATEN
6959 1100446585 SARTINI 01/07/1964 KAJEN 15/06 KAB. KLATEN
6960 1100446586 SUKADI,AMK 09/02/1962 BODROREJO 19/07 KAB. KLATEN
6961 1100446587 MARYANTI 15/04/1966 SINUNG RT.01 RW.07 KAB. WONOGIRI
6962 1100446588 SUGIHARTO 16/06/1971 BAJONG RT 1 RW 5 KEL BAJONG KAB. PURBALINGGA
6963 1100446589 TUTIK MURWANI 03/07/1965 KRISAK KULON RT.01 RW.05 KAB. WONOGIRI
6964 1100446590 SUGIYONO 09/03/1960 KRISAK KULON RT 01 RW 05 KAB. WONOGIRI
6965 1100446592 NUR RAKHMAWATI, S KEP 12/08/1989 GABUDAN RT.01 RW.07 KOTA SURAKARTA
6966 1100446593 AMAT KHASANI 01/01/1965 BOJANEGARA RT 02 RW 04 KAB. PURBALINGGA
6967 1100446594 SUWAEDAH RADI SURANI 05/12/1967 TELUK WETAN 005/001 KAB. JEPARA
6968 1100446595 SITI ROCHIMAH 10/06/1962 KALANGAGUNG RT.02 RW.09 KAB. MAGELANG
6969 1100446596 SRI BASUKININGSIH 03/07/1967 KARANGSIDO RT 04 KAB. SRAGEN
6970 1100446597 GHUFRON HUDAYA UMAR MA'RUF 29/08/1971 MINDAHAN 01/02 KAB. JEPARA
6971 1100446598 AHMAD SIROJUL ANAM 25/08/1982 TELUK WETAN 005/001 KAB. JEPARA
6972 1100446599 NUR AKHSAN 03/12/1960 JETIS KAPUAN KAB. KUDUS
6973 1100446600 NOOR JANAH SHOLEH 04/02/1973 JETISKAPUAN RT.02 RW.03 KAB. KUDUS
6974 1100446601 DARWATI 06/06/1966 TLOGOWUNGU RT 02/02 KAB. BLORA
6975 1100446603 SITI MUTHMAINNAH ASYHURI 09/09/1991 TELUK WETAN 005/001 KAB. JEPARA
6976 1100446607 FARISTIN SUBANDI RIDLWAN 22/10/1960 RENDENG RT.01 RW.07 KAB. KUDUS
6977 1100446608 NIKMATUL ULFA 28/07/1994 RENDENG RT.01 RW.07 KAB. KUDUS
6978 1100446609 TUGIMIN 01/05/1960 KARANGSIDO RT 04 KAB. SRAGEN
6979 1100446610 SITI AMIROH 27/04/1969 BOJANEGARA RT 02 RW 04 KAB. PURBALINGGA
6980 1100446611 SARMINAH JASIRUN JASTRO 27/07/1966 TERNADI RT 03 RW 01 KAB. KUDUS
6981 1100446613 NOOR ROHMAT SAPARI 12/07/1963 TERNADI RT.03 RW.01 KAB. KUDUS
6982 1100446614 IMAM TRIYANTO WIDI NUGROHO 19/10/1971 BARONGAN RT.04 RW.03 KAB. KUDUS
6983 1100446615 SUKARNO KARTOSUPARNO KROMO 24/10/1961 GONDANGMANIS RT 04 RW 06 KAB. KUDUS
6984 1100446616 SUROTUN UNTUNG MULYONO 25/01/1964 GONDANGMANIS RT.04 RW.06 KAB. KUDUS
6985 1100446617 JOKO SAPUTRO 21/07/1974 PLOSO RT 03 KAB. SRAGEN
6986 1100446618 HIDAYAH 30/09/1958 PERUM PODOSUGIH INDAH JL. BERLIAN 20-22 KOTA PEKALONGAN
6987 1100446619 SLAMET LESTIYONO 19/11/1974 JL. SUGRIWO IX/197 RT.03/03 KOTA SEMARANG
6988 1100446621 ISMAN BUDIYANTO 28/04/1959 BALEDONO RT 06/08 KAB. PURWOREJO
6989 1100446622 SRI SURATI 21/05/1965 PANJANG BARU RT 001 / RW 007 KOTA MAGELANG
6990 1100446623 AMINI RUSLAN KASNATUN 04/12/1959 KAYEN 5/3 KAYEN KAB. PATI
6991 1100446624 TITIN YULIANTI 01/07/1977 JL. SUGRIWO IX/197 KOTA SEMARANG
6992 1100446625 ROHYAT 11/06/1966 MANGGORAN 03/07 KAB. MAGELANG
6993 1100446627 AMINAH MUSLIM SITI MASRIAH 11/05/1968 NGEMPLAK KIDUL 7/4 MARGOYOSO KAB. PATI
6994 1100446629 SRI WIDIYATSIH 07/10/1961 PULOSARI RT. 03/04 KAB. SUKOHARJO
6995 1100446630 HARIYANTO NARKO SUTINI 15/04/1963 NGEMPLAK KIDUL 07/04 MARGOYOSO KAB. PATI
6996 1100446631 QOMARIYATUN 31/05/1967 MANGGORAN 03/07 KAB. MAGELANG
6997 1100446632 SUGIHARTO 27/07/1966 KEYONGAN RT 05/01 KAB. SRAGEN
6998 1100446634 GURUH DIAN ASMARA 10/05/1980 PULOSARI RT 003 / RW 004 KAB. SUKOHARJO
6999 1100446635 SRI SULASTRI 12/05/1970 KEYONGAN RT 05/01 KAB. SRAGEN
7000 1100446636 DWI SUTRISNOWATI DJUMADI 03/05/1976 PAKIS 03/01 TAYU KAB. PATI
7001 1100446638 ALI ARIFIN ALI SHOHIBI 09/06/1966 PAKIS 03/01 TAYU KAB. PATI
7002 1100446639 SUPARMI NGADIMIN RUKIMI 01/07/1958 TRIMULYO 1/2 KAYEN KAB. PATI
7003 1100446640 SRI MURDIYATI 22/08/1962 [Link].005/001 KAB. BANJARNEGARA
7004 1100446641 R. BAMBANG IRAWAN, APT 03/05/1968 JL. KAUMAN III/8 RT 3 RW 8 KOTA SEMARANG
7005 1100446643 NUR MAHMUDAH 28/07/1972 PLAOSAN RT.01/14 KAB. PURWOREJO
7006 1100446644 HERU NUSANTORO, [Link] 26/08/1970 PURWOREJO RT 01/14 KAB. PURWOREJO
7007 1100446646 KORIAH 20/02/1975 PERUM JOGIN 2 NO. RR7 RT. 02/11 KAB. MAGELANG
7008 1100446650 PONCO MURTININGSIH 06/12/1961 PUSPONJOLO DALAM RT.01/01 KOTA SEMARANG
7009 1100446651 DENOK TATIK BAGIYATI,[Link] 16/01/1974 [Link] III/8 RT.03/08 KOTA SEMARANG
7010 1100446652 SUGENG RIYADI 25/08/1969 PERUM JOGIN 2 RT.02 RW.11 KAB. MAGELANG
7011 1100446654 AVIAH UMI SYARIFAH 02/06/1977 JL. PUCANG PERMAI I NO.5 RT.01/22 KAB. DEMAK
7012 1100446655 MAESAROH 07/05/1971 DK KINCIR 1/4 SUKOLILO KAB. PATI
7013 1100446656 MUH. SHOFI 09/09/1965 JL. PUCANG PERMAI I NO.5 RT.01/22 KAB. DEMAK
7014 1100446660 WAGIMAN 06/03/1959 TMN BOROBUDUR UTARA 38 RT.05/10 KOTA SEMARANG
7015 1100446662 SUTIAH KADAR MASRAM 17/01/1965 PASURUHAN LOR RT.02 RW.04 KAB. KUDUS
7016 1100446663 SRI WIDAYATI 23/07/1967 DUSUN NGLUWAR 05/01 KAB. MAGELANG
7017 1100446665 KHOZANAH 07/05/1968 GEMBONGKULON RT.04/02 TALANG KAB. TEGAL
7018 1100446666 SITI ASPIYAH SUYADI 15/04/1966 BENDAN 9/4 PATI KIDUL PATI KAB. PATI
7019 1100446667 DRA. IDA IRAWATY 13/07/1969 BAJANGREJO RT 03/01 KAB. PURWOREJO
7020 1100446669 SUKIRAN 10/06/1967 DSN. NGLUWAR 05/01 KAB. MAGELANG
7021 1100446670 KHAMIM AMJAD 03/04/1962 GEMBONGKULON RT.04/02 TALANG KAB. TEGAL
7022 1100446671 MUNDOFAR KUSRIN NAFI'AH 18/02/1962 BENDAN 9/4 PATI KIDUL PATI KAB. PATI
7023 1100446673 MAIDAH 02/05/1963 TULUNG 01/01 KAB. MAGELANG
7024 1100446674 SITI KHOTIJAH 10/01/1968 CANDI SARI RT 19 RW 05 KAB. BOYOLALI
7025 1100446675 SUPARNO 03/07/1964 PUNDUNGGEDE RT 25 KAB. SRAGEN
7026 1100446683 SUGIYARTI 04/06/1968 WINONG RT 22 KAB. SRAGEN
7027 1100446686 NUR KHOZIN 05/11/1972 SIMPAR RT.07 RW.01 KAB. BATANG
7028 1100446687 YASIR SUKOCO KARSUM 20/12/1960 NGEMBALKULON RT.01 RW.01 KAB. KUDUS
7029 1100446690 NILASUTA SUHARTO MASPURI 13/05/1976 NGEMBALKULON RT.01 RW.01 KAB. KUDUS
7030 1100446692 HADI SUPRAPTO 16/10/1960 GROBOGAN 03/03 KAB. GROBOGAN
7031 1100446694 JUWARNI 03/04/1966 JL. PINUS 1007 PLAM. INDAH RT.04/08 KOTA SEMARANG
7032 1100446696 JAMILATUN 23/03/1966 GROBOGAN 03/03 KAB. GROBOGAN
7033 1100446697 SITI KHOTIJAH 12/12/1963 DUSUN PANDAKSARI RT.03 RW.04 KAB. KENDAL
7034 1100446699 SUHARNI SUPARWI SUDARNI 16/07/1962 SUMBEREJO 3/4 JAKEN KAB. PATI
7035 1100446701 NURHADI 16/11/1958 JL. PINUS 1007 PLAM. INDAH RT.04/08 KOTA SEMARANG
NO NO. PORSI NAMA TANGGAL LAHIR ALAMAT KAB/KOTA KETERANGAN
7036 1100446704 SUDARTO SOPYAN KARTO LEGIMAN 15/04/1967 PECANGAAN WETAN 03/03 KAB. JEPARA
7037 1100446710 FUAD JAMALUDIN 12/07/1963 JL. TREGULENG RT05 RW01 KAB. CILACAP
7038 1100446711 SUYATI 12/12/1965 JL. TREGULENG RT05 RW01 KAB. CILACAP
7039 1100446712 JUMIATUN 10/03/1968 GRIGIT RT 18 KAB. SRAGEN
7040 1100446713 SUKIM 23/03/1969 JATIBARANG KIDUL RT. 03/04 JATIBARANG KAB. BREBES
7041 1100446715 ROKHIMAH 10/12/1976 JATIBARANG KIDUL RT. 03/04 JATIBARANG KAB. BREBES
7042 1100446716 FUTUKHATUL MAHALIYAH 15/09/1960 KAUMAN RT.16/08 WIRADESA KAB. PEKALONGAN
7043 1100446717 SARNI 16/09/1961 PLUMBON RT.03/RW.02 KAB. SUKOHARJO
7044 1100446718 AGUS TININGSIH 26/08/1966 TEMBOK BANJARAN RT.19/03 ADIWERNA KAB. TEGAL
7045 1100446719 INSHOFIYATI 31/07/1965 KAUMAN RT.13/07 WIRADESA KAB. PEKALONGAN
7046 1100446720 ACHMAD SYAEFUDIN 26/06/1966 TEMBOK BANJARAN RT.18/03 ADIWERNA KAB. TEGAL
7047 1100446723 HERI SUTANTO 30/04/1977 DEMPET RT.06/01 KAB. DEMAK
7048 1100446724 SUJAK JASMIN SUTIAH 14/11/1963 SOKOPULUHAN 1/2 PUCAKWANGI KAB. PATI
7049 1100446727 SUHARTO 31/12/1963 GERDU RT 04 KAB. SRAGEN
7050 1100446728 KUSNAN SUNAR KAREP 08/09/1970 PUYOH RT.04 RW.03 KAB. KUDUS
7051 1100446730 NI'MATUZ ZAHROH ROHMAT NURKAN 06/02/1981 PUYOH RT.04 RW.03 KAB. KUDUS
7052 1100446734 DWI INDAH MUJI ASTUTI 09/08/1975 BARONGAN RT.04 RW.03 KAB. KUDUS
7053 1100446735 SUNARNI 31/12/1962 GERDU RT 04 KAB. SRAGEN
7054 1100446736 SUTAMI SORO GENUK 01/07/1960 KESAMBI RT 05 RW 08 KAB. KUDUS
7055 1100446737 SAFI'I WARO SAWI KENCI 31/12/1957 KESAMBI RT 05 RW 08 KAB. KUDUS
7056 1100446738 SAMAN 15/03/1958 BALEDONO RT. 04/07 PURWOREJO KAB. PURWOREJO
7057 1100446740 WAGIYAH 17/10/1958 KEDUNGPUCANG RT. 02/02 BENER KAB. PURWOREJO
7058 1100446742 SUROTO 14/07/1959 CURUT 01/03 KAB. GROBOGAN
7059 1100446743 MURTIATUN 30/11/1971 CURUT 01/03 KAB. GROBOGAN
7060 1100446745 ERWAN SETIAWAN 19/04/1974 PEKAJANGAN GG.4 RT.38/14 KEDUNGWUNI KAB. PEKALONGAN
7061 1100446747 RISNA MAULIDA 14/10/1976 PEKAJANGAN GG.4 RT.38/14 KEDUNGWUNI KAB. PEKALONGAN
7062 1100446748 HANDOKO ABDUL MALIK MOHADI 17/05/1981 SOWAN LOR 12/04 KAB. JEPARA
7063 1100446749 SITI MASMUDAH HAJAR ASTUTI 02/05/1964 [Link] BB SUPRAPTO RT.3/3 PWT LOR KAB. BANYUMAS
7064 1100446750 CITA RAHAYU SAHRUL 06/09/1983 SOWAN LOR 12/04 KAB. JEPARA
7065 1100446751 SUYAMTO, STP 02/02/1958 KARANGTENGAH RT.02 RW.03 KAB. SEMARANG
7066 1100446753 SUPARSIH 28/07/1960 KARANGTENGAH RT.02 RW.03 KAB. SEMARANG
7067 1100446754 SITI AROFAH MUNAWI 02/01/1968 WERGU WETAN RT 01 RW 02 KAB. KUDUS
7068 1100446755 WAHYU TRI AJI PRABOWO 22/10/1992 SINANGGUL 24/04 KAB. JEPARA
7069 1100446756 ANNI RAHWATI MOESA 10/04/1977 UJUNG BATU 08/03 KAB. JEPARA
7070 1100446757 RUDY SAPTO HARTONO 02/01/1974 UJUNG UJUNG BATU 08/03 KAB. JEPARA
7071 1100446758 SALAMAH BISRI ABDUL GHONI 16/04/1968 KARANGRANDU 03/05 KAB. JEPARA
7072 1100446759 AMIN YAHYA MUCHID 05/12/1962 KARANGRANDU 03/05 KAB. JEPARA
7073 1100446761 WASIK MUNAYAH ASY'ARI 15/05/1979 TROSO RT.004/009 KAB. JEPARA
7074 1100446762 NOOR ROCHMAD ABDUL WACHID 15/12/1971 TROSO RT.004/009 KAB. JEPARA
7075 1100446764 TATHIROH 05/04/1978 REJOSARI RT.04/10 METESEH KOTA SEMARANG
7076 1100446766 ASMININGSIH SUMARI RASIBAN 25/10/1959 JAMBU TIMUR 19/04 KAB. JEPARA
7077 1100446767 KUMAIDI 15/06/1976 REJOSARI RT.04/101 METESEH KOTA SEMARANG
7078 1100446768 JOKO PURWANTO , SK 14/05/1971 BUGAN RT 11 KAB. SRAGEN
7079 1100446769 WALINI 12/11/1973 BUGAN RT 11 KAB. SRAGEN
7080 1100446773 PASINI PARTO PARMAN 12/12/1959 KUTUK RT 05 RW 01 KAB. KUDUS
7081 1100446774 CANDRA ISDIYANA MOHAMMAD CHAMZAWI 03/09/1989 SINGOCANDI RT.07 RW.02 KAB. KUDUS
7082 1100446778 TITIK LESTARI CHOLIB 05/03/1968 JEKULO RT 04 RW 09 KAB. KUDUS
7083 1100446780 LINA DWI ARYANI 08/06/1985 SINGOCANDI RT 07 RW 02 KAB. KUDUS
7084 1100446781 SLAMET RIYANTO SUPRAPTO 15/11/1963 JEKULO RT 04 RW 09 KAB. KUDUS
7085 1100446782 ARIF FAIZA MUHAMMAD CHAMZAWIE 05/05/1985 SINGOCANDI RT.07 RW.02 KAB. KUDUS
7086 1100446783 SITI NURHAYATI MUDLOFAR 23/09/1973 BAE RT 01 RW 05 KAB. KUDUS
7087 1100446786 SOLEHIN [Link] 10/11/1968 JL. KALIMANTAN RT.03/08 NO.03 BREBES KAB. BREBES
7088 1100446788 SRI RAHAYU, SE 13/12/1968 JL. KALIMANTAN NO.35 RT.03/08 BREBES KAB. BREBES
7089 1100446789 AGUS RAHARJO SUKO REKSOSISWOYO 17/08/1971 BAE RT 01 RW 05 KAB. KUDUS
7090 1100446792 SITI YULIANTI 27/07/1971 GENTAN RT. 01/01 KAB. SUKOHARJO
7091 1100446793 M. BAZAZAH 30/01/1976 SIMBANG WETAN RT.04/02 BUARAN KAB. PEKALONGAN
7092 1100446794 MURYATI VARIA 07/09/1960 MENGORI RT.03 RW.02 KAB. PEMALANG
7093 1100446795 NANANG AHMAD NURSIDIQ 09/04/1997 DSN. SLENTO RT.02 RW.03 KAB. KENDAL
7094 1100446796 ELVIYATUN 31/12/1982 SIMBANG WETAN RT.04/02 BUARAN KAB. PEKALONGAN
7095 1100446798 SUTIMAN 20/01/1968 WELAR RT 01 RW 09 KAB. BOYOLALI
7096 1100446799 SUTARNI 08/09/1969 GAREN RT 04 RW 03 KAB. BOYOLALI
7097 1100446801 JOKO SUWITO, ST 02/01/1971 SAMBIREJO RT 13 KAB. SRAGEN
7098 1100446802 TUSIMAN AHMAD FAHRUDIN 18/10/1973 DUSUN KLUMPRIT WETAN RT. 04 RW. 05 KAB. CILACAP
7099 1100446803 MITA AMARLIA NUR HIDAYAT 08/06/1981 SAMBIREJO RT 13 KAB. SRAGEN
7100 1100446805 KAMIROH 09/11/1975 LUWUNGRAGI RT.04/08 BULAKAMBA KAB. BREBES
7101 1100446806 KOMARIYAH 07/12/1957 GOLENG 03/04 KAB. GROBOGAN
7102 1100446808 BUDI KURNIAWAN 28/05/1973 TAMAN BALARAJA BLOK A12 NO.08 RT 006 / RW 008
KAB. KEBUMEN
7103 1100446810 MUHAMMAD NURHIDAYAT 12/08/1993 DUUSN GOLENG 03/04 KAB. GROBOGAN
7104 1100446812 KURNIA SANIADI 01/07/1974 JL. GAJAH MADA 02/09 KAB. GROBOGAN
7105 1100446813 HELVY FOURE ANDRIANI 23/07/1978 JL. GAJAH MADA 02/19 KAB. GROBOGAN
7106 1100446816 NUR SALIM 22/08/1975 PEDURUNGAN LOR RT.02/05 KOTA SEMARANG
7107 1100446817 JAMARI 05/08/1960 BESARI RT. 01/05 KAB. MAGELANG
7108 1100446818 IMROKHAH 28/08/1975 PEDURUNGAN LOR RT.02/05 KOTA SEMARANG
7109 1100446822 IRKHAM 08/11/1964 KRAJAN TIMUR RT.03 RW.04 KAB. PEMALANG
7110 1100446824 PUJIYATI 12/07/1964 KRAJAN TIMUR RT.03 RW.04 KAB. PEMALANG
7111 1100446825 IMAM WAHYUDI SUKARDI 26/07/1961 WEDARIJAKSA 1/3 WEDARIJAKSA KAB. PATI
7112 1100446826 NASROWI 30/12/1958 SUMURJURANG RT.03/03 KOTA SEMARANG
7113 1100446827 IKE KUSWANTI 20/12/1978 BOTOKAN RT. 02/09 KAB. SUKOHARJO
7114 1100446831 MASKAN RONY 13/12/1959 [Link] GG PESANTREN 02/01 KAB. GROBOGAN
7115 1100446832 SUGIYANTI 17/11/1958 LEMPUYANG II/507 KOTA SEMARANG
7116 1100446833 SITI SOFWATI 03/07/1960 [Link] GG PESANTREN 02/01 KAB. GROBOGAN
7117 1100446835 SITI KHOTIJAH A THOHA 03/06/1966 WEDARIJAKSA 1/3 WEDARIJAKSA KAB. PATI
7118 1100446837 ASMIN MOH KASNI 14/09/1974 KEDUNGSARI RT.06 RW.01 KAB. KUDUS
7119 1100446838 UMI LATHIFAH 19/03/1984 PLAOSAN BLUMBANGAN RT.01/16 KAB. PURWOREJO
7120 1100446839 NUR AINI 29/03/1961 SIDOREJO [Link] RT.14 RW.04 KAB. BATANG
7121 1100446840 SUMARDI SEHONO ROWIJOYO 07/09/1964 KEDUNGSARI RT.06 RW.01 KAB. KUDUS
7122 1100446841 TURIS HEININGSIH 10/11/1984 SENDANG KLAMPOK RT 03/09 KAB. BLORA
7123 1100446843 ACHMAD MUSTAQIM 26/03/1962 SIDOREJO [Link] RT.14 RW.04 KAB. BATANG
7124 1100446844 DEDI KURNIAWAN 10/06/1982 SENDANGKAMPLOK RT 03/09 KAB. BLORA
7125 1100446846 SUNARYO 20/01/1958 KUNIREJOWETAN RT 03/01 KAB. PURWOREJO
7126 1100446847 TRI MUJIANTO 28/01/1966 DUSUN PADAWARAS RT. 01 RW. 04 KAB. CILACAP
7127 1100446848 MARYATUN 03/09/1963 SAMPING RT 01/06 KAB. PURWOREJO
7128 1100446849 SOPINAH 02/02/1970 DUSUNPADAWARAS RT001 RW 004 KAB. CILACAP
7129 1100446850 SUGIYATI 12/12/1959 RAWAKELE RT 01 RW 05 KAB. WONOSOBO
7130 1100446851 SUHARI 24/10/1970 KARANGDEMPEL RT.08/01 LOSARI KAB. BREBES
7131 1100446852 SITI KHOTIJAH 05/12/1967 CIPETE RT 5 / 4 KAB. BANYUMAS
7132 1100446853 KARSIWI TRI S. 21/07/1970 SIDOREJO RT 02/02 KAB. PURWOREJO
7133 1100446855 YUWANTI YULI PRASTIWI 24/07/1964 [Link] [Link] MURIA 18 RT.4/5 KOBER KAB. BANYUMAS
7134 1100446856 JUMROH 17/07/1974 KARANGDEMPEL RT. 08/01 LOSARI KAB. BREBES
7135 1100446857 DARTI 01/07/1963 KARANGGINTUNG RT 22 RW 07 KAB. PURBALINGGA
7136 1100446858 ISTI SOPIYAH 11/10/1971 TEMUROSO RT.01/07 KAB. DEMAK
7137 1100446859 SAROFI, DRS 20/05/1965 JL. CUT NYAK DIEN NO.01 RT.05/10 BREBES KAB. BREBES
7138 1100446862 MUHAMMAD MUKIP 03/10/1963 TEMUROSO RT.01/07 KAB. DEMAK
7139 1100446864 KHIKMAWATI 01/06/1968 JL. CUT NYAK DIEN NO.01 RT.05/01 BREBES KAB. BREBES
7140 1100446865 SUPRIHATIN 22/06/1960 SRAGEN DOK RT16/06 KAB. SRAGEN
7141 1100446868 TAEFUR 08/07/1971 PRM PEMDA NO.62 RT.1/8 BANTARSOKA KAB. BANYUMAS
7142 1100446870 NURJANAH 07/04/1978 SIGERUNG RT.01/01 SIJERUK SRAGI KAB. PEKALONGAN
7143 1100446871 SYARIFAH MUHAMAD MISKAN 11/07/1963 KALIPOH RT. 05. 03 KAB. KEBUMEN
7144 1100446875 MUNTAJAH MUSIDAN SUKATMI 21/08/1960 MRAYUN RT 003 RW 004 SALE KAB. REMBANG
7145 1100446876 EVI DIYAH RAHMAWATI 25/06/1973 PERUM PEMDA NO 62 RT 1/VIII BANTARSOKA KAB. BANYUMAS
7146 1100446878 KUMAEDI 07/01/1958 TELUK RT.04/02 KAB. DEMAK
7147 1100446881 DARIYAH 08/08/1963 KEMBARAN, RT.07/RW.01 KAB. TEMANGGUNG
7148 1100446882 SITI MAESAROH MUHAMAD MISKAN 04/08/1978 MANGUNWENI RT.06/01 KAB. KEBUMEN
7149 1100446883 RUSTIATI 27/01/1961 PANCURENDANG RT. 4/1 KAB. BANYUMAS
7150 1100446885 MASROKAN 18/02/1960 BRABO 06/03 KAB. GROBOGAN
7151 1100446887 ARIF WIDODO,[Link] 02/10/1981 [Link] NO.23-A RT.01/09 KOTA SEMARANG
7152 1100446888 JELANI 01/07/1968 KRAMAT RT. 12/04 JATIBARANG KAB. BREBES
7153 1100446891 ROCHAYATUN 12/02/1973 SENDANGGUWO SELATAN RT 1 RW 1 KOTA SEMARANG
7154 1100446892 ASROFI 05/01/1960 KEMBARAN, RT.07/RW.01 KAB. TEMANGGUNG
7155 1100446894 SUPARDJO 04/10/1965 SENDANGGUWO SELATAN RT 1 RW 1 KOTA SEMARANG
7156 1100446897 SULISTYOWATI 27/12/1977 DK. DAWUNG RT 4 RW 3 KOTA SEMARANG
7157 1100446899 JASWADI 26/01/1978 DK DAWUNG RT 4 RW 3 KOTA SEMARANG
7158 1100446903 NURLATAENI DULAH MAKSUM 01/10/1967 BOJONGSARI RT.02/02 KAB. KEBUMEN
7159 1100446906 ERNI HENDRAYANTI 18/11/1972 BERCAK 01/03 KAB. MAGELANG
7160 1100446907 PUPAK FAJARIAH MARGONO SAHONO 13/05/1970 BOJONGSARI RT.02/02 KAB. KEBUMEN
7161 1100446909 NAWANGSARI DEWI 18/07/1979 JL. KASIPAH NO. 23 A RT 1 RW 9 KOTA SEMARANG
7162 1100446915 ULFIYATUL MUSTAGHFIROH 10/09/1987 SELO KRAJAN 01/03 KAB. GROBOGAN
7163 1100446916 ZAINUDIN AZIZ 02/02/1981 SELO KRAJAN 01/03 KAB. GROBOGAN
NO NO. PORSI NAMA TANGGAL LAHIR ALAMAT KAB/KOTA KETERANGAN
7164 1100446919 TOIPAH 19/12/1959 DUKUH SIGERUNG RT.01/02 JATIMULYA KAB. TEGAL
7165 1100446920 KASAD 31/12/1962 DUKUH SIGERUNG RT.01/02 JATIMULYA KAB. TEGAL
7166 1100446921 SLAMET KADARISMAN 12/11/1965 PERUM ASLI PERMAI P.14 RT 07 RW 05 KAB. WONOSOBO
7167 1100446923 SALIM 04/07/1962 BODORAN RT.08 RW.02 KAB. WONOSOBO
7168 1100446924 KATMIN 15/12/1976 BANGSRI RT.02 RW.02 KAB. WONOGIRI
7169 1100446925 MASRUIN TASMAN MARZANI 07/07/1974 WELAHAN 04/03 KAB. JEPARA
7170 1100446927 PRAYITNO TASLEMAN MASRI 24/12/1968 WELAHAN 04/03 KAB. JEPARA
7171 1100446929 WIDODO 17/02/1962 BANJARAN RT.02 RW.02 KAB. WONOSOBO
7172 1100446931 SUPARDI 28/10/1961 PADUROSO RT 01/03 KAB. PURWOREJO
7173 1100446934 SUTARMI 22/01/1968 PADUROSO RT 01/03 KAB. PURWOREJO
7174 1100446936 SRI SUWARNI 08/08/1968 TAMAN SATRIO MANAH 8 RT.09/09 KOTA SEMARANG
7175 1100446937 BAMBANG SETYABUDI 22/07/1962 TAMAN SATRIO MANAH 8 RT.09/09 KOTA SEMARANG
7176 1100446939 SUWARTI 01/01/1967 PERUM ASLI PERMAI P.14 RT 07 RW 05 KAB. WONOSOBO
7177 1100446942 PARNI 08/05/1978 BANGSRI RT.02 RW.02 KAB. WONOGIRI
7178 1100446943 SUTONO 01/05/1963 JL. SENDANG UTARA III/20 RT.04/07 KOTA SEMARANG
7179 1100446944 SUDARMAN SAHLI SARNO 10/10/1967 SINGOROJO 01/01 KAB. JEPARA
7180 1100446946 NUR SANIPAH NASRUN 18/08/1972 SINGOROJO 01/01 KAB. JEPARA
7181 1100446947 SUPRIYONO 06/05/1968 KEDAWUNG RT.03 RW.02 KAB. WONOSOBO
7182 1100446948 JUMIAH 27/07/1965 JL. SENDANG UTARA II/20 RT.04/07 KOTA SEMARANG
7183 1100446949 TONI WIDIYONO 30/08/1973 CIMANGGU RT. 01 RW. 01 KAB. CILACAP
7184 1100446950 ENDANG SRI PURWANINGSIH 22/06/1981 CIMANGGU RT. 01 RW. 01 KAB. CILACAP
7185 1100446952 PARNO 10/11/1972 KARANGJATI RT 12/02 KAB. SRAGEN
7186 1100446953 IIN KARLINA 20/08/1979 KARANGJATI RT 12/02 KAB. SRAGEN
7187 1100446956 MASRI 12/06/1974 TUWEL RT.02/04 BOJONG KAB. TEGAL
7188 1100446958 KOSIM 19/05/1985 DK. GONAYAN RT. 01/04 KAB. SUKOHARJO
7189 1100446959 ISTIKHAROH 12/12/1975 TUWEL RT.02/04 BOJONG KAB. TEGAL
7190 1100446961 SAMSUL HIDAYAT 08/11/1972 KAUMAN RT 03 RW 06 KAB. WONOSOBO
7191 1100446962 NUR FATIMAH 09/05/1991 POJOK RT. 03/03 KAB. SUKOHARJO
7192 1100446963 SUGIATI 05/12/1962 BRABO 06/03 KAB. GROBOGAN
7193 1100446964 TASMAN 18/01/1968 DK. RANDUALAS RT 01/02 KAB. BLORA
7194 1100446966 KASIRAH 06/05/1969 DK. RANDUALAS RT 01/02 KAB. BLORA
7195 1100446967 TAUFIK RAHMAD RAMADHAN 23/01/1997 BOGOLAN RT 001 / RW 001 KAB. SRAGEN
7196 1100446971 ANIS MARYATI, SPD 12/03/1966 BOGOLAN RT 01/01 KAB. SRAGEN
7197 1100446973 WAHYUNURHIDAYAT PARIWIRAWAN, SE 03/04/1966 JL. PUSPOWARNO SELATAN II/6 RT.02/05 KOTA SEMARANG
7198 1100446974 NENI PUSPITASARI,AMD 05/03/1980 TLOGOSARI WETAN RT.06/04 KOTA SEMARANG
7199 1100446976 SITI RISWATI 05/02/1974 KRAKAL DAWUNG RT 02 RW 09 KAB. WONOSOBO
7200 1100446978 MOHAMAD SUNHAJI,AMD 23/10/1979 TLOGOSARI WETAN RT.06/04 KOTA SEMARANG
7201 1100446979 RUBIYANTO SUHADI MUJIATUN 02/05/1962 TAYU WETAN 2/1 TAYU KAB. PATI
7202 1100446980 SUPARNO 18/01/1969 KRAKAL DAWUNG RT 02 RW 09 KAB. WONOSOBO
7203 1100446981 SUMI SUKARDI NGAMIRAH 27/01/1962 TAYU WETAN 2/1 TAYU KAB. PATI
7204 1100446983 DJOKO HERIYANTO 09/05/1971 DLIMOSARI RT 04 RW 01 KAB. BOYOLALI
7205 1100446984 SARWAN 01/01/1961 TLOGO RT 04 RW 02 KAB. BOYOLALI
7206 1100446985 UMI ANISAH 05/05/1976 GROBOG WETAN RT.05/07 PANGKAH KAB. TEGAL
7207 1100446986 JUNAINAH HELMY 30/04/1972 DLIMOSARI RT 04 RW 01 KAB. BOYOLALI
7208 1100446989 SRI MAWAR 01/07/1966 DK. MANGGERAN RT.001 RW.004 PECALUNGAN KAB. BATANG
7209 1100446991 DARWIATI 16/06/1969 RANDU GONDANGSARI RT.03 RW.05 KAB. BATANG
7210 1100446994 SUTRISNO 02/02/1972 KAUMAN TIMUR II/116 RT.01/01 KOTA SEMARANG
7211 1100446995 SUDARNI 27/10/1960 KEDUNGBULUS RT 22/07 KAB. SRAGEN
7212 1100446997 ARY SUJARWONO 12/06/1977 SENDEN RT 006 / RW 005 KAB. KARANGANYAR
7213 1100446998 NIAMAH HARUN ROSYID 12/03/1965 UJUNG BATU RT.002/002 KAB. JEPARA
7214 1100447000 NOOR FARIDAH 28/08/1973 KAUMAN TIMUR II/116 RT.01/01 KOTA SEMARANG
7215 1100447001 SUDAR SUJAK ABDUL SYUKUR 06/06/1965 UJUNG BATU RT.002/002 KAB. JEPARA
7216 1100447002 ENDANG SRI SETYO M L 03/07/1965 KARANG KIDUL RT 02 RW 07 KAB. BOYOLALI
7217 1100447004 SUMIYEM 05/10/1957 SANGGRAHAN RT. 01/20 KAB. SUKOHARJO
7218 1100447006 ROSYID HAMDANA 22/12/1990 KARANG KIDUL RT 02 RW 07 KAB. BOYOLALI
7219 1100447008 SUPARLAN TROLAWI SRIYATI 31/12/1960 TLOGOREJO 2/2 WINONG KAB. PATI
7220 1100447010 SITI MAIMUNAH, SH 29/09/1959 JL. TAMAN DURIAN IV/ 6 A RT 11 RW 1 KOTA SEMARANG
7221 1100447011 SITI FATIMAH PARSAM JARMI 31/12/1971 TLOGOREJO 2/2 WINONG KAB. PATI
7222 1100447012 SYAMSUDDIN 05/02/1960 NYAMPLUNG KIDUL RT 01 RW 06 KAB. BOYOLALI
7223 1100447016 UNING WIDIYANI 16/03/1965 NYAMPLUNG KIDUL RT 01 RW 06 KAB. BOYOLALI
7224 1100447018 FARKAH 04/03/1963 KRAJANKULON RT.01/RW.02 KAB. KENDAL
7225 1100447019 SUNARNI 26/11/1970 BENDUNGAN 01/02 KAB. KLATEN
7226 1100447020 RIYADI 10/07/1962 BENDUNGAN 01/02 KAB. KLATEN
7227 1100447022 MAS'UD IMAM SARDJONO 21/01/1961 KIJINGSARI WETAN 03/01 KAB. MAGELANG
7228 1100447024 JAMILATUN MARDHIYAH 10/02/1964 KIJINGSARI WETAN 03/01 KAB. MAGELANG
7229 1100447025 SOLICHIN 02/12/1978 JOGODAYOH KIDUL 02/09 KAB. KLATEN
7230 1100447027 MARIA ULFAH 29/07/1983 [Link] RT.06/RW.06 PAGUYANGAN KAB. BREBES
7231 1100447028 MUH ZUMRONI 10/02/1966 JL. MENOREH UTARA XI/5 RT.08/01 KOTA SEMARANG
7232 1100447029 TRI RUBIYATI 30/06/1973 GUNUNG LURAH RT.05 RW.05 KAB. BANYUMAS
7233 1100447030 SOLICHIN 06/06/1975 GUNUNG LURAH RT.05 RW.05 KAB. BANYUMAS
7234 1100447032 SITI SOPIYAH 02/09/1970 JL. MENOREH UTARA XI/5 RT.08/01 KOTA SEMARANG
7235 1100447033 TOHARI 04/07/1979 [Link] RT.06/RW.06 PAGUYANGAN KAB. BREBES
7236 1100447038 SARASWATI 17/08/1958 MENTIR RT 10 KAB. SRAGEN
7237 1100447039 NURHADI AHMAD 15/05/1985 MENTIR RT 10 KAB. SRAGEN
7238 1100447040 SUNARTI 06/11/1969 DK. NGROWO RT 05/01 KAB. BLORA
7239 1100447041 IKA KUSRI RAHAYU 29/07/1974 GRIYA MEDOHO ASRI NO.95 RT.06/08 KOTA SEMARANG
7240 1100447042 LASMITO 20/06/1967 DK. NGROWO RT 05/01 KAB. BLORA
7241 1100447043 ALI RIDHO 12/04/1972 GRIYA MEDOHO ASRI NO.59 RT.06/08 KOTA SEMARANG
7242 1100447044 ABD MUHIT 19/03/1962 PENGGARON KIDUL RT.04/03 KOTA SEMARANG
7243 1100447045 SOLEKAH 07/09/1968 PENGGARON KIDUL RT.04/03 KOTA SEMARANG
7244 1100447046 HJ. INA MUTMAINA 28/12/1960 JL. WANARA MUKTI I/850 RT.05/05 KOTA SEMARANG
7245 1100447048 MUDJI WARDONO 20/04/1974 BUNDER 22/12 KAB. KLATEN
7246 1100447049 AHMAD HUSIN 30/11/1963 JL. VETERAN 149 GROBAGAN RT.01 RW.03 KOTA SURAKARTA
7247 1100447050 NITA WAHDANI 15/05/1975 BUNDER 22/12 KAB. KLATEN
7248 1100447051 FARIDA FATKHIYAH 07/03/1966 JL. VETERAN 149 GROBAGAN RT.01 RW.03 KOTA SURAKARTA
7249 1100447052 SAIS FIRDA HASANAS SYIFA 12/09/1994 BANDUNGREJO RT.03/02 KEC. KALINYAMATAN KAB. JEPARA
7250 1100447053 DJOKO MULYONO 10/09/1959 GRIYA PRIMA BARAT 339 04/19 KAB. KLATEN
7251 1100447054 SU'UDI MUH KARSAN 16/05/1966 BANDUNGREJO 03/02 KEC. KALINYAMATAN KAB. JEPARA
7252 1100447055 SUDARWATI 01/02/1960 GRIYA PRIMA BARAT 339 04/19 KAB. KLATEN
7253 1100447061 INKA AGUSTA ARDHIANI 18/08/2001 KARANGANYAR RT 03 RW 04 KARANGDOWO WELERIKAB. KENDAL
KENDAL
7254 1100447062 SOLICHATI 05/07/1964 LING BIYETAN 02/06 KAB. MAGELANG
7255 1100447063 ROCHANI 06/03/1958 JL. BRANTAS RT.03 RW.02 KAB. SEMARANG
7256 1100447064 SUMANTO 27/04/1971 SONO RT 22/07 KAB. SRAGEN
7257 1100447065 SUHARNI 04/08/1974 SONO RT 22/07 KAB. SRAGEN
7258 1100447066 SUTARMI 02/10/1969 JL. BRANTAS RT.03 RW.02 KAB. SEMARANG
7259 1100447071 MOKHAMAD PUJIONO SOPANDI DIPASENTANA 08/05/1977 SANGUBANYU RT. 03. 03 KAB. KEBUMEN
7260 1100447072 AHMAD MIFTAH AL AMIN 08/07/1973 WONOSARI RT.03/04 KAB. DEMAK
7261 1100447073 AGUS NAJIB 02/01/1980 SAMONG RT 04 RW 04 KAB. PEMALANG
7262 1100447074 MUBAROKAH 31/12/1959 PRINGLANGU GG.6 NO.63 RT.01 RW.02 KOTA PEKALONGAN
7263 1100447075 MUKHOLIFAH SARKUM SARNO 14/04/1978 SANGUBANYU RT. 03. 03 KAB. KEBUMEN
7264 1100447077 ATIYA EL MAULA 16/05/1983 SAMONG RT. 04 RW. 04 KAB. PEMALANG
7265 1100447078 NURUL HAJAH MAEMUNA ULFA 09/04/1995 NAMBANGAN RT 02/01 KAB. PURWOREJO
7266 1100447079 SITI AMINAH 10/09/1969 PEPEDAN RT.01/03 DUKUHTURI KAB. TEGAL
7267 1100447080 SUCIPTO 30/12/1969 PEPEDAN RT.01/03 DUKUHTURI KAB. TEGAL
7268 1100447082 SRI KUSTATI 24/06/1960 BOROBUDUR III/21 RT.02/12 KOTA SEMARANG
7269 1100447083 SUMIRAH 11/04/1959 REJOSARI RT. 02/01 GRABAG KAB. PURWOREJO
7270 1100447084 ARIEF HIDAYAT 21/01/1981 JL. DELIMA NO. 8 MULYADADI KAB. CILACAP
7271 1100447089 AS'AD DAMANHURI MUHAMAD BASORI 02/11/1970 KUWAYUHAN RT. 02. 08 KAB. KEBUMEN
7272 1100447091 SITI NGAISAH AHMAD SYAEFUDIN 12/07/1976 KUWAYUHAN RT 02/08 PEJAGOAN KAB. KEBUMEN
7273 1100447093 BAMBANG SABDONO 23/06/1959 PER. SIDANEGARA INDAH BLOKXI/379 RT.2/18 KAB. CILACAP
7274 1100447095 TURMIYATI 10/07/1964 PER. SIDANEGARA INDAH BLOKXI/379 RT.2/18 KAB. CILACAP
7275 1100447098 ABDUL CHOLIQ 09/08/1963 DEMPEL KIDUL RT 1RW 16 KOTA SEMARANG
7276 1100447100 SETYA RAHAYU 05/06/1964 JL. RAYA MAOS KIDUL RT02 RW04 KAB. CILACAP
7277 1100447101 SUPARTI 09/06/1966 DEMPEL KIDUL RT 1 RW 16 KOTA SEMARANG
7278 1100447103 TRI WAHYU SULISTYONINGSIH 12/01/1961 JL. SETIABUDI NO.36 RT.03/01 KOTA SEMARANG
7279 1100447109 TARSIWEN 31/12/1959 JL. WATES NO.210 RT01 RW14 KAB. CILACAP
7280 1100447112 SRIYATI 16/06/1980 WONOSARI RT.03/04 KAB. DEMAK
7281 1100447114 TAM'IN SRI ANISAH 03/02/1977 BERAHAN WETAN RT.03/08 KAB. DEMAK
7282 1100447115 MARYAMAH 13/05/1960 DUSUN BENGKLE RT.03 RW.02 KAB. KENDAL
7283 1100447116 AHMAD DIMYATI 24/03/1975 BERAHAN WETAN RT.03/08 KAB. DEMAK
7284 1100447117 MOH FAOZAN 29/12/1961 DUSUN BENGKLE RT.03 RW.02 KAB. KENDAL
7285 1100447118 SULISTYOWATI 28/12/1960 PEKUNCEN RT. 5/3 KAB. BANYUMAS
7286 1100447119 MUSTAGHFIRIN 24/01/1983 MENUR RT.03/03 KAB. DEMAK
7287 1100447123 FERA DIAN SEPTIA 28/02/1989 JL. BANOWO RT.03/03 KAB. DEMAK
7288 1100447124 AGUS SETIAWAN 18/08/1977 GRIYA SANTIKA 6 NO. 19 RT. 05/03 KAB. TEGAL
7289 1100447126 WARSITIN SANTER SUMARNI 27/10/1966 BAJOMULYO 4/1 JUWANA KAB. PATI
7290 1100447127 MUSTOVIYAH 23/04/1974 GRIYA SANTIKA 6 NO. 19 RT. 05/03 KAB. TEGAL
7291 1100447128 SUTRISNO JOYO URIP 28/11/1962 BAJOMULYO 4/2 JUWANA KAB. PATI
NO NO. PORSI NAMA TANGGAL LAHIR ALAMAT KAB/KOTA KETERANGAN
7292 1100447130 MUSYAROFAH 20/08/1968 MENUR RT.03/03 KAB. DEMAK
7293 1100447131 INDAH RATNAWATI 16/11/1964 SETIABUDI NO. 38 RT.03/01 KOTA SEMARANG
7294 1100447133 PASRI 04/06/1963 MENUR RT.03/03 KAB. DEMAK
7295 1100447134 MUJIYEM 02/04/1965 TLOGO RT 04 RW 02 KAB. BOYOLALI
7296 1100447136 IMRONAH 15/05/1966 WONOSARI RT.01/03 KAB. DEMAK
7297 1100447137 TITIK ENDANG SULISTYOWATI, SPD 28/11/1958 NGESREP TIMUR IV/26 RT.04/01 KOTA SEMARANG
7298 1100447138 SETYA RAHARJO 29/09/1965 DK. BANMATI RT. 01/09 KAB. SUKOHARJO
7299 1100447140 MUDIYAT 26/10/1964 WONOSARI RT.01/03 KAB. DEMAK
7300 1100447141 TRI FARIDA AZMI 11/09/1976 SARI RT.08/01 KAB. DEMAK
7301 1100447142 JOKO TRI WARDOYO, ST 02/10/1963 SETIABUDI NO. 38 RT.03/01 KOTA SEMARANG
7302 1100447143 FAUZAN ADHIM 05/05/1964 SARI RT.08/01 KAB. DEMAK
7303 1100447144 ERWIN YARNITA 07/08/1971 DK. BANMATI RT. 01/09 KAB. SUKOHARJO
7304 1100447146 SUTOMO 30/09/1959 PER. BUKIT SUKOREJO RT.04/10 KOTA SEMARANG
7305 1100447147 SRIATUN 15/03/1971 [Link] II/36.B RT.01/01 KOTA SEMARANG
7306 1100447148 SUMARDI 11/11/1968 [Link] NO.36 B RT.01/01 KOTA SEMARANG
7307 1100447149 PURWANTI 15/06/1966 TEMPEL 07/06 KAB. GROBOGAN
7308 1100447150 SUWARSIH 17/09/1963 PER. BUKIT SUKOREJO RT.04/10 KOTA SEMARANG
7309 1100447152 GIYANTO 31/12/1964 GENDOR RT.01/04 BANDING BRINGIN KAB. SEMARANG
7310 1100447153 JARIYATUN 13/03/1969 LONING RT 02 RW 01 KAB. BOYOLALI
7311 1100447154 KAMTO 22/01/1963 JL. ARIMBI RAYA NO. 61 RT. 06/06 KOTA TEGAL
7312 1100447155 SUYATNO 09/10/1968 TEMPEL 07/06 KAB. GROBOGAN
7313 1100447156 JAUHARI MUSTHAFA MAHFUD 23/10/1962 CITROSONO RT. 01/01 KAB. MAGELANG
7314 1100447159 SITI MASITOH 01/12/1966 JL. ARIMBI RAYA NO. 6 RT. 06/06 KOTA TEGAL
7315 1100447164 ANISAH 08/06/1973 ASMIL YONIF 406 KAB. PURBALINGGA
7316 1100447165 SRI SETIJOWATI 12/11/1970 KUTABANJARNEGARA RT.01 RW.02 KAB. BANJARNEGARA
7317 1100447168 MOKHAMAD FATKHULLOH 01/01/1960 KUTABANJARNEGARA RT.01 RW.02 KAB. BANJARNEGARA
7318 1100447169 DARSONO 02/03/1972 ASMIL YONIF 406 KAB. PURBALINGGA
7319 1100447171 SUWARNO 10/06/1965 KALIURIP RT. 5 RW.05 KAB. BANJARNEGARA
7320 1100447173 BINI ASTRIANI 07/07/1973 KALIURIP. RT. 005/005 KAB. BANJARNEGARA
7321 1100447176 ABDUL NAFE' 04/06/1975 TEMBARAK KIDUL RT03 RW01 KAB. TEMANGGUNG
7322 1100447179 ISTIYATI NINGSIH 22/09/1968 MEJING II 04/02 KAB. MAGELANG
7323 1100447180 AGUS SARIFUDIN 27/08/1979 KEBAYEN, RT.01/RW.04 KAB. TEMANGGUNG
7324 1100447183 CHABIB SHOLEH 22/01/1981 MOJOTENGAH, RT.01/RW.04 KAB. TEMANGGUNG
7325 1100447188 SUKARTONO 14/09/1966 TIDAR BARU RT. 04 RW. 08 KOTA MAGELANG
7326 1100447189 TURAH 14/09/1965 SITERUS RT 04 RW 05 KAB. WONOSOBO
7327 1100447190 HERI INDIASTUTI 14/01/1971 TIDAR BARU RT 04 RW 08 KOTA MAGELANG
7328 1100447196 AHMAD BASUKI 09/03/1970 JL. MERPATI PURWOKERTO RT.04/RW.06 KAB. KENDAL
7329 1100447199 ASRI KHOLISHOH 04/04/1964 DSN. WONOSARI RT.05 RW.05 KAB. SEMARANG
7330 1100447200 LULUK SUGIHARTI 03/03/1973 JL. MERPATI PURWOKERTO RT.04/RW.06 KAB. KENDAL
7331 1100447202 TOHIRIN 03/05/1962 PANGEBATAN RT 1 / 7 KAB. BANYUMAS
7332 1100447206 AHMAD SAIFUDIN ZUHRI 22/02/1962 SOKANANDI RT.03 RW.03 KAB. BANJARNEGARA
7333 1100447208 ENDANG LIRIH WIGATI 21/11/1974 WINONG 10/3 PATI KAB. PATI
7334 1100447212 SURIPTO 28/12/1957 JLAMPRANG, RT.04/RW.03 KAB. TEMANGGUNG
7335 1100447213 NUR KHIARTRI 02/06/1980 JL. NUSA INDAH NO. 27 RT. 01/06 KOTA TEGAL
7336 1100447214 WIWI SUSANTI 29/04/1970 PANGEBATAN RT 01 / 7 KAB. BANYUMAS
7337 1100447215 SUGIYARTI 20/08/1960 KARANG SUWUNG 04/02 KAB. KLATEN
7338 1100447216 KHAYATUN ISNAIN MOHAMAD ROMELAN 20/09/1964 BRECONG RT.01/03 KAB. KEBUMEN
7339 1100447217 HARSOYO 18/02/1977 JL. NUSA INDAH NO. 27 RT. 01/06 KOTA TEGAL
7340 1100447218 SITI MARKOWIYAH JARIMUN HADI PRANOTO 02/03/1968 BRECONG RT. 01. 03 KAB. KEBUMEN
7341 1100447220 TITIN KUSRIATI 17/10/1962 [Link] [Link] NO.2 RT.5/1 KOBER KAB. BANYUMAS
7342 1100447221 SLAMET PRAMONO 13/07/1959 KAUMAN RT 07 KAB. SRAGEN
7343 1100447223 SITI MULYATUN 12/09/1959 JL. MANGGA RT. 02 RW. 04 KAB. CILACAP
7344 1100447224 JARWANDI 16/04/1969 KLEMUT 02/09 KAB. KLATEN
7345 1100447226 KASMIYATI KASIR PARSI 01/07/1968 KURYOKALANGAN 2/1 GABUS KAB. PATI
7346 1100447228 YULI TRI RIANI 09/07/1967 JL. JATIKUSUMAN RT.07/04 KAB. DEMAK
7347 1100447229 SRI MULYANI 30/11/1967 KLEMUT 02/09 KAB. KLATEN
7348 1100447230 AHMAD FAOZI 10/03/1966 BAKALAN RT 07 RW 04 KAB. WONOSOBO
7349 1100447231 JASRI MUNAJAD SARIJOYO 28/11/1959 HADIWARNO RT.07 RW.01 KAB. KUDUS
7350 1100447232 SUKINO MUNTARI SARIYAH 01/07/1963 KURYOKALANGAN 2/1 GABUS KAB. PATI
7351 1100447233 SUYUTI 31/12/1970 NGRAMUT 03/02 KAB. GROBOGAN
7352 1100447235 SUHARINI NORHADI MUNTOHIR 12/02/1965 HADIWARNO RT.07 RW.01 KAB. KUDUS
7353 1100447236 AREIF BUDIMAN, SE 16/05/1975 DSN. SERDADI PURWOHARJO RT. 04 RW. 08 KAB. PEMALANG
7354 1100447237 AHAM ARIFIN 16/09/1968 BANDUNGAN RT.01/07 BANDUNGAN KAB. SEMARANG
7355 1100447238 KAERUDIN 06/09/1981 JATIBARANG KIDUL RT.02/08 NO.17B JTB KAB. BREBES
7356 1100447241 RUMINI 01/02/1961 KARANGTANJUNG RT 15/04 KAB. SRAGEN
7357 1100447243 INDAH ISWATI 15/02/1985 JATIBARANG KIDUL NO.17 B RT.02/08 JTB KAB. BREBES
7358 1100447245 TATI ALFIANI HADI SISWOYO 28/12/1979 PULIHARJO RT. 010. 05 KAB. KEBUMEN
7359 1100447249 HARNOTO AJI IMAM BASOEKI 08/05/1969 PULIHARJO RT.10/05 KAB. KEBUMEN
7360 1100447251 SARI WAHYUNINGSIH 10/10/1975 BANDUNGAN RT.01 RW.07 KAB. SEMARANG
7361 1100447253 ISTILAH 01/08/1969 PAESAN UTARA RT.03/04 KEDUNGWUNI BARAT KAB. PEKALONGAN
7362 1100447254 HARYATI 01/07/1962 KEDUNGBUNGKUS RT.04/01 TARUB KAB. TEGAL
7363 1100447255 KOSIM 01/07/1957 KEDUNGBUNGKUS RT.04/01 TARUB KAB. TEGAL
7364 1100447256 NANDRISAH 13/06/1972 JL. GATOT SUBROTO 225 RT. 1 RW. 4 KOTA PEKALONGAN
7365 1100447258 LEBUH ZAENUDIN 11/07/1957 PETIR RT.07 RW.03 KAB. WONOSOBO
7366 1100447259 SASTININGSIH SUKARDI SUROKANDI 09/08/1971 KARANGGONDANG 01/09 KAB. JEPARA
7367 1100447260 SITI ZAENAH 16/07/1964 JATI RT.07/RW.01 KAB. KENDAL
7368 1100447262 SRI KUNAFSIYAH 20/10/1958 GANG PEGADAIAN RT.02/RW.03 KAB. KENDAL
7369 1100447263 SURATIJO 04/05/1967 JL. MAWAR 100 RT 01/04 KAB. BLORA
7370 1100447265 NGADINI 06/04/1960 RT.01/01 KAB. PURWOREJO
7371 1100447266 WIJININGASIH 04/02/1973 JL MAWAR NO 100 MENTUL INDAH RT 01 RW 04 KAB. BLORA
7372 1100447268 ARDHIAN SUCAHYATI D SOEMARDHI 02/03/1966 MUKTIHARJO 3/5 MARGOREJO KAB. PATI
7373 1100447269 PUJIYATI 18/09/1966 WULUNG RT 05/04 KAB. BLORA
7374 1100447271 SUSMIYATI 14/10/1959 PETIR RT 07 RW 03 KAB. WONOSOBO
7375 1100447272 MAT RAIS 06/04/1966 WULUNG RT 05/04 KAB. BLORA
7376 1100447273 ABDUL SYAKUR 30/06/1970 JL. GATOT SUBROTO 225 RT.1 RW. 4 KOTA PEKALONGAN
7377 1100447275 LILIK SUYANTO HADI 16/12/1963 MUKTIHARJO 3/5 MARGOREJO KAB. PATI
7378 1100447276 SLAMET BOTOK 05/06/1958 RAMBUT GONO RT.02/RW.06 KAB. KENDAL
7379 1100447278 MUHAMMAD KHOZIN 07/03/1982 DUSUN KARANG JATI RT.05/RW.04 KAB. KENDAL
7380 1100447283 NURKHOLIS 29/11/1959 BULAKWARU RT. 04/02 TARUB KAB. TEGAL
7381 1100447287 SOBIYAH 23/04/1962 LEBENG RT 9 / 01 KAB. BANYUMAS
7382 1100447288 ASIH HENIWATI 30/06/1981 BULAKWARU RT. 04/03 TARUB KAB. TEGAL
7383 1100447289 RUSIJAH HIDAJATI ZARONI 20/05/1969 PECANGAAN WETAN 03/03 KAB. JEPARA
7384 1100447290 KARTI 01/07/1957 SIGEDONG RT. 01/03 BUMIJAWA KAB. TEGAL
7385 1100447291 NUDIYATI 01/01/1965 PANCURAWIS RT 3 RW 10 PWT KIDUL KAB. BANYUMAS
7386 1100447292 SITI ZUMAROH ASNAWI 29/09/1974 RAU RT.002/003 KAB. JEPARA
7387 1100447299 ATIKOH 22/12/1982 BATUMIRAH RT. 05/03 BUMIJAWA KAB. TEGAL
7388 1100447300 MUH ZIDIN 02/03/1968 PAGERSARI 01/09 KAB. MAGELANG
7389 1100447301 SUHARNI 08/10/1973 PAGERSARI 01/09 KAB. MAGELANG
7390 1100447302 SAMSUDIN 31/12/1972 BATUMIRAH RT. 05/03 BUMIJAWA KAB. TEGAL
7391 1100447303 SULISNO SUMADI SIRUN 14/06/1972 KARANGGONDANG 01/09 KAB. JEPARA
7392 1100447304 MUHAMMAD MASYKURI MUSYAFA' 18/09/1975 KERTOMULYO 1/4 MARGOYOSO KAB. PATI
7393 1100447305 USWATUN HASANAH ISMAIL 08/07/1983 KERTOMULYO 1/4 MARGOYOSO KAB. PATI
7394 1100447306 AMIRUDIN NGAFIYAH MADRISAD 21/12/1959 BENDUNGAN RT. 02. 01 KAB. KEBUMEN
7395 1100447307 TORIPAH 18/11/1964 GUMAYUN RT. 10/04 DUKUHWARU KAB. TEGAL
7396 1100447308 YOHANA PUJI RAHAYU 30/10/1972 BANDUNGREJO 01/04 KEC. KALINYAMATAN KAB. JEPARA
7397 1100447309 SULISTYO TULUS JATMIKO 17/02/1971 BANDUNGREJO 01/04 KEC. KALINYAMATAN KAB. JEPARA
7398 1100447310 SRI KHATUN 26/11/1961 DUKUHSEMBUNG RT.08/02 PANGKAH KAB. TEGAL
7399 1100447311 YATI 31/12/1967 NGRAO SELATAN 02/05 KAB. GROBOGAN
7400 1100447312 SUNARTI SAN BARDI MADGASIM 05/07/1958 BENDUNGAN RT. 02. 01 KAB. KEBUMEN
7401 1100447313 ARTIFAH 21/10/1981 REJASA. RT. 003/004 KAB. BANJARNEGARA
7402 1100447315 HERI SUHARYOTO 15/07/1958 GUMAYUN RT. 10/04 DUKUHWARU KAB. TEGAL
7403 1100447316 SADYO SAMPURNO 25/11/1973 REJASA. RT. 003/004 KAB. BANJARNEGARA
7404 1100447317 RASWIN 07/06/1972 MANGUNSAREN RT.03/01 TARUB KAB. TEGAL
7405 1100447324 MAESAROH MUZZAYYIN MUHTADI 24/08/1968 SURODADI 06/02 KAB. JEPARA
7406 1100447325 ABD. NAFIK MALSI MAHFUD 04/05/1963 SURODADI 06/02 KAB. JEPARA
7407 1100447326 SOFIYAH DASUKA KARMAT 18/12/1961 PECANGAAN KULON 03/01 KAB. JEPARA
7408 1100447327 MOH NASUKA KASDURI COROKO 14/03/1960 PECANGAAN KULON 03/01 KAB. JEPARA
7409 1100447328 NUROHYATI 18/01/1958 KRANDEGAN RT 002 RW 002 KAB. BANJARNEGARA
7410 1100447333 ABDUL ROSID SUMARTO 22/04/1973 TELUK WETAN RT.001/001 KAB. JEPARA
7411 1100447337 KHURNITI 30/06/1967 SIMBANG WETAN RT.23/08 BUARAN KAB. PEKALONGAN
7412 1100447338 MUHAMMAD NURWIDAYAT 14/05/1972 JOGOLOYO RT.04/07 KAB. DEMAK
7413 1100447339 USMAN 20/06/1963 [Link] SIMBANG WETAN RT.23/08 BUARAN KAB. PEKALONGAN
7414 1100447340 SULISTYORINI 19/02/1974 JOGOLOYO RT.04/07 KAB. DEMAK
7415 1100447343 SRI HARYANI 26/01/1960 KRANDEGAN RT 003 RW 009 KAB. BANJARNEGARA
7416 1100447346 MARYATI 31/12/1960 [Link] SELATAN RT.08/05 KOTA SEMARANG
7417 1100447347 AZAR SAHARI 09/08/1958 DK. GUDANG RT.02 RW.01 KAB. WONOSOBO
7418 1100447348 WAGE 15/12/1961 KENDAYAKAN RT. 07/01 WARUREJA KAB. TEGAL
7419 1100447349 SUMARTI WELAS NGADIMIN 11/03/1962 BRANTAKSEKARJATI 09/02 KAB. JEPARA
NO NO. PORSI NAMA TANGGAL LAHIR ALAMAT KAB/KOTA KETERANGAN
7420 1100447350 WIWIK ENDANG TRININGSIH 26/02/1977 BANGSRI 02/14 KAB. JEPARA
7421 1100447351 SUTOMO SONO PARIMIN 16/03/1974 BANGSRI 02/14 KAB. JEPARA
7422 1100447357 MARTOJO 08/08/1963 GENENG RT 02 KAB. SRAGEN
7423 1100447358 NUR CHIKMAH, [Link] 05/07/1963 GRIYA PRAJA MUKTI C.13 RT.05/08 KALISAPU KAB. TEGAL
7424 1100447360 UMI ZAENAH KHOZEN 18/03/1959 MAYONG LOR 06/01 KAB. JEPARA
7425 1100447362 AFIFAH MASRUH SANUSI 25/03/1960 JEBOL 05/01 KAB. JEPARA
7426 1100447363 SRI HAYU 23/04/1963 GENENG RT 02 KAB. SRAGEN
7427 1100447365 JUMANTO FADLULLAH 03/03/1976 HADIWARNO RT 04 RW 03 KAB. KUDUS
7428 1100447370 IRIANTO DWI ASMORO, [Link] 14/05/1962 GRIYA PRAJA MUKTI C.13 RT.05/08 KALISAPU KAB. TEGAL
7429 1100447371 RATUN WAGIMIN TOWIJO JARIYO 31/12/1960 HADIWARNO RT 04 RW 03 KAB. KUDUS
7430 1100447372 RUMINAH AMAD MUHADI 12/10/1965 SELOTUMPENG RT. 02. 01 KAB. KEBUMEN
7431 1100447373 JAMINGAN AMAD MARSO 18/07/1963 SELOTUMPENG RT.02/01 KAB. KEBUMEN
7432 1100447374 NGATINAH PARTO REJO 10/01/1972 LORAM WETAN RT 01 RW 02 KAB. KUDUS
7433 1100447376 BARIYAH KASUWI KASIRAN 04/08/1960 DERMOLO 02/04 KEC. KEMBANG KAB. JEPARA
7434 1100447377 YAMTO SUMERI MATAHAL 04/07/1966 LORAM WETAN RT 01 RW 02 KAB. KUDUS
7435 1100447378 SARTIKA 23/07/1969 PRUWATAN RT.06/01 BUMIAYU KAB. BREBES
7436 1100447383 MOH SUKIMAN 29/11/1959 KEPANJEN BARAT 03/03 KAB. GROBOGAN
7437 1100447384 SITI ROHAYAH 23/04/1967 PERUM ARGOPENI INDAH RT.01 RW.11 KAB. WONOSOBO
7438 1100447386 CHALIMAH RODHI KASMIRI 02/05/1963 GETASRABI RT 01 RW 07 KAB. KUDUS
7439 1100447388 LESTARI 23/08/1965 KEPANJEN BARAT 03/03 KAB. GROBOGAN
7440 1100447389 RISWARYANTI 15/07/1969 PURNAMANDALA BLOK.V 9-10 RT.03 RW.05 KAB. WONOSOBO
7441 1100447390 ADHIEKI SUYANTO 11/06/1964 PURNAMANDALA BLOK. V. 9-10 RT.03 RW.05 KAB. WONOSOBO
7442 1100447391 DIDIK BUDI RAHAYU 01/09/1966 PERUM ARGOPENI INDAH RT.01 RW.11 KAB. WONOSOBO
7443 1100447392 SUSANIYATI 09/09/1968 PERUM ARGOPENI INDAH B.A-28 RT 02 RW 11 KAB. WONOSOBO
7444 1100447393 SURANTO 05/05/1966 NGEMPLAK BARU RT. 04/01 KAB. SUKOHARJO
7445 1100447394 SOPIYAH 05/04/1969 TANJUNGSARI RT.02/02 WANASARI KAB. BREBES
7446 1100447395 TITIK SUMARNI 24/11/1968 DK. GUDANG RT.02 RW.01 KAB. WONOSOBO
7447 1100447396 CAHYONO 01/07/1960 TANJUNGSARI RT.02/02 WANASARI KAB. BREBES
7448 1100447398 SUWARTI 10/10/1968 NGEMPLAK BARU RT. 04/01 KAB. SUKOHARJO
7449 1100447399 SUDIYONO 25/11/1960 MADUSARI RT 04 RW 05 KAB. WONOSOBO
7450 1100447400 PRIHARTINI EKOWATININGSIH 26/10/1961 MADUSARI RT 04 RW 05 KAB. WONOSOBO
7451 1100447401 M. AUNURROFIQ 04/05/1966 JANGGRUNGAN RT 01 RW 04 KAB. WONOSOBO
7452 1100447402 WIWIK SUNARTI 03/05/1968 JANGGRUNGAN RT 01 RW 04 KAB. WONOSOBO
7453 1100447405 SUTRISNO KARNADI SUKIDJAH 22/05/1962 KABONGAN KIDUL RT 004 RW 003 REMBANG KAB. REMBANG
7454 1100447406 WASINAH 30/03/1962 NGABEAN RT 05 RW 07 KAB. WONOSOBO
7455 1100447407 NUNING SUPRIATI MASABUN DIMJATI 21/05/1960 SRUSUH RT.04/01 KAB. KEBUMEN
7456 1100447409 SITI SAROH 03/06/1963 BLUMBANG RT 15 KAB. SRAGEN
7457 1100447410 SUYATNO 07/05/1966 BLUMBANG RT 15 KAB. SRAGEN
7458 1100447415 SRI SETYANINGSIH 22/10/1976 RINGINDADI RT 14 KAB. SRAGEN
7459 1100447416 SITI HIDAYAH 19/08/1958 TEMBIRING RT.06/03 KAB. DEMAK
7460 1100447417 DWI KOESTIANNA 12/07/1960 JL. PERUM BPI BLOK A/19 RT.01/10 KOTA SEMARANG
7461 1100447418 SUMBONO 08/07/1962 KEDUNGPRING RT 05 RW 01 KAB. BANYUMAS
7462 1100447420 YAROH 11/01/1971 PEKUNDEN SELATAN 1142B RT.02/02 KOTA SEMARANG
7463 1100447422 PARJANA 10/08/1968 RINGINDADI RT 14 KAB. SRAGEN
7464 1100447423 MISWANTO SUROKARYO JAKARIYA 12/07/1963 UNGARAN RT.01/07 KAB. KEBUMEN
7465 1100447425 SHABRI 21/03/1970 JL. [Link] 30 RT.05/05 KETANGGUNGAN KAB. BREBES
7466 1100447427 SUNYOTO 05/08/1957 KADILUWIH 02/01 KAB. MAGELANG
7467 1100447428 SITI JAENAH DAHROJI MADRAWI 09/07/1961 UNGARAN RT. 01. 07 KAB. KEBUMEN
7468 1100447429 EFI SOFIYANTI 26/01/1974 [Link]. MUKLAS 30 RT.05/05 KETANGGUNGAN KAB. BREBES
7469 1100447430 HERY SETYANTO 18/04/1961 JETISAN 02/04 KAB. KLATEN
7470 1100447431 IWAN FIRDAUS BUKHORI 21/06/1981 DS. KALITULUNG RT 004 / RW 002 KAB. MAGELANG
7471 1100447435 WAHYUNI 07/12/1962 KADILUWIH 02/01 KAB. MAGELANG
7472 1100447436 NASRUDIN 16/04/1972 KEDITAN 01/01 KAB. MAGELANG
7473 1100447437 SITI MUCHSONATUN MUHAMMAD ROJIKIN 11/05/1968 PREMBUN RT.03/03 KAB. KEBUMEN
7474 1100447439 PARDIYO AMAD SLAMET 21/08/1960 PREMBUN RT 03. 03 KAB. KEBUMEN
7475 1100447440 NUR HADLIROH 06/08/1960 WONOSEKAR RT.03/08 KAB. DEMAK
7476 1100447441 SAMIAN 27/04/1965 DONOROJO RT.04/02 KAB. DEMAK
7477 1100447442 SITI RIYANI 10/12/1978 JL. MULAWARMAN RAYA NO. 55 RT.01/01 KOTA SEMARANG
7478 1100447443 SRI HARTIYAH 18/08/1972 JOGOWEDANAN RT.02 RW.08 KAB. WONOSOBO
7479 1100447444 MUHAMAD ROKHIM 17/06/1967 JOGOWEDANAN RT.02 RW.08 KAB. WONOSOBO
7480 1100447445 RATNA INDAH WAHYU SEJATI 22/09/1972 REJOSARI RT 07 RW 02 KAB. BOYOLALI
7481 1100447446 TRUBUS PURNAMA 28/07/1971 JL. MULAWARMAN RAYA NO.55 RT.01/01 KOTA SEMARANG
7482 1100447448 ROMSITAH 28/10/1974 DONOROJO RT.04/02 KAB. DEMAK
7483 1100447453 DALIMIN 02/01/1965 WONOKERTO RT.07 RW.03 KAB. BATANG
7484 1100447454 ANTENG NURSAMSI 16/10/1973 BADAMITA. RT. 004/001 KAB. BANJARNEGARA
7485 1100447455 INDRIYATI 29/04/1964 WONOKERTO RT.07 RW.03 KAB. BATANG
7486 1100447456 A. KHOIRI 10/03/1960 RT.002/002 KAB. PURWOREJO
7487 1100447457 KHUJAEMAH 05/08/1957 BADAMITA. RT. 004/001 KAB. BANJARNEGARA
7488 1100447460 SRI ROHADI, DRS 09/05/1964 SAMBER 14/07 KAB. KLATEN
7489 1100447461 DJUWARIYAH 01/07/1961 KARANGGENENG RT 05/01 KAB. BLORA
7490 1100447462 SITI ASIH ZULINDA, BSC 05/04/1962 SAMBER 14/07 KAB. KLATEN
7491 1100447465 MIFTAH 27/08/1972 TOSO MARGOSARI RT.08 RW.04 KAB. BATANG
7492 1100447466 BATONAH 12/12/1972 TOSO MARGOSARI RT.08 RW.04 KAB. BATANG
7493 1100447472 MURSID EFFENDI, S PSI 08/08/1971 JL. MAJAPAHIT I NO.16 RT.06 RW.14 KOTA SURAKARTA
7494 1100447473 TRI REJEKI ANDAYANI, S. PSI, MSI 09/01/1974 JL. MAJAPAHIT I NO.16 RT.06 RW.14 KOTA SURAKARTA
7495 1100447477 MASFAAH 17/03/1979 WEDUNG RT.04/06 KAB. DEMAK
7496 1100447479 KISTIYATUN 25/04/1958 KLEWOGAN, NO. 064, RT.03/RW.10 KAB. TEMANGGUNG
7497 1100447480 AGUS MUSYAFAK 29/07/1976 WEDUNG RT.04/06 KAB. DEMAK
7498 1100447482 KARIM 31/12/1959 KARANGTALUN RT. 02 RW. 01 KAB. PEMALANG
7499 1100447484 SITI FADHILAH 03/01/1959 DESA JAMBEARUM RT.01 RW.01 KAB. KENDAL
7500 1100447486 SUMARNI 30/12/1973 [Link] RT.02 RW.01 KAB. PEMALANG
7501 1100447487 SURADI 24/08/1957 REJASARI. RT. 001/001 KAB. BANJARNEGARA
7502 1100447488 SUWARNI 12/08/1965 BOGOREJO RT 14/03 KAB. BLORA
7503 1100447489 SARWATI 11/12/1961 REJASARI .RT. 001/001 KAB. BANJARNEGARA
7504 1100447491 BISAR 01/07/1959 KENDAGA ,RT, 005/002 KAB. BANJARNEGARA
7505 1100447493 MUNIFAH 01/07/1966 KENDAGA. RT. 005/002 KAB. BANJARNEGARA
7506 1100447497 MUSRINGAH 19/07/1963 PAGELAK RT.04 RW.01 KAB. BANJARNEGARA
7507 1100447500 SARMINI 04/06/1959 WATUBONANG RT.03/RW.02 KAB. SUKOHARJO
7508 1100447502 SUKIMAN 21/03/1963 WATUBONANG RT.03/RW.02 KAB. SUKOHARJO
7509 1100447503 NISAUL MUFIDAH 18/10/1968 TUBAN KULON RT. 01 RW. 02 KAB. KARANGANYAR
7510 1100447504 SULIPAH 02/11/1961 KRANDEGAN 15/07 KAB. MAGELANG
7511 1100447506 KISWANTO 27/03/1963 SIDABOWA RT.1/2 KAB. BANYUMAS
7512 1100447507 ALI MUJIB 31/12/1976 BOTOKAN 03/03 KAB. KLATEN
7513 1100447508 RADITO 21/12/1966 PRM GRIYA SATRIA BANTARSOKA RT. 1/9 KAB. BANYUMAS
7514 1100447510 SLAMET 19/03/1958 PAGERSARI RT.01/02 BERGAS KAB. SEMARANG
7515 1100447511 EDI PRAYITNO 08/11/1959 KRANDEGAN RT.15 RW.07 KAB. MAGELANG
7516 1100447513 SURIDAH 16/05/1964 SIDABOWA RT. 1/2 KAB. BANYUMAS
7517 1100447514 SURIPNO 20/07/1965 TUBAN KULON RT. 01 RW. 02 KAB. KARANGANYAR
7518 1100447515 ELFI KADARIYAH 10/12/1968 [Link] SATRIA Z-1 RT 01 RW IX KAB. BANYUMAS
7519 1100447516 SITI CHOTIMAH 20/10/1959 PAKEMBARAN RT. 05/06 SLAWI KAB. TEGAL
7520 1100447517 WAKHIDIN 07/09/1977 KAMPIL RT.12/03 WIRADESA KAB. PEKALONGAN
7521 1100447519 YASMI HARIYATUN 25/12/1959 JL. ANGGREK 59 RT. 06/02 KAB. MAGELANG
7522 1100447520 TRI RAHAYUNINGSIH 10/11/1958 JL. GNUNG SLAMET XV /106 RT 1/4 PWSAR I KAB. BANYUMAS
7523 1100447521 KOMARIYAH 03/06/1964 WONOSUKO 20/08 KAB. MAGELANG
7524 1100447522 WAHYU KORDIYAH 15/06/1981 MAMPIRAN 06/03 KAB. KLATEN
7525 1100447523 ARIS ARIFIN 09/03/1967 JURANG RT.01 RW.01 KAB. MAGELANG
7526 1100447525 RIFATUNAH 09/12/1979 KAMPIL RT.12/03 WIRADESA KAB. PEKALONGAN
7527 1100447526 DWI RAHADI 04/01/1965 WONOSUKO RT.20 RW.08 KAB. MAGELANG
7528 1100447527 AGUS HARIYANTO AHMADI 01/08/1978 MAMPIRAN 06/03 KAB. KLATEN
7529 1100447528 FATKHUR ROHMAN 05/05/1958 JOHOREJO KRAJAN RT.05/RW.01 KAB. KENDAL
7530 1100447529 RUDIHARTO 15/07/1959 JL ANGGREK 59 RT.06 RW.02 KAB. MAGELANG
7531 1100447531 SITI AMINAH 27/07/1960 NGENTAK RT.08 RW.06 KAB. MAGELANG
7532 1100447534 SRIYATUN 22/10/1973 PENGGARON KIDUL RT.02/04 KOTA SEMARANG
7533 1100447535 SUDIRMAN 23/03/1973 PENGGARON KIDUL RT.02/04 KOTA SEMARANG
7534 1100447537 ZAENATUN 12/08/1968 DUSUN KARANGTURI RT.02/RW.04 KAB. KENDAL
7535 1100447541 MINAROH KASIMAN TEKAT POGUNO 24/08/1960 PASURUHAN KIDUL RT 02 RW 02 KAB. KUDUS
7536 1100447542 SUTIKNA SUPARMAN MUISIH 12/07/1966 SIDOKERTO 1/1 PATI KAB. PATI
7537 1100447543 ABDUL HAFIDZ 09/11/1959 JOGOLOYO RT 02/03 KAB. DEMAK
7538 1100447547 SHOLEKHAH 12/12/1969 PILANGREJO RT 06/06 KAB. DEMAK
7539 1100447548 SENIYAH 09/02/1963 [Link] NO.30 RT.02/04 TONJONG KAB. BREBES
7540 1100447549 NUGROHOWATI KASBIRAN WARIS 23/09/1965 SIDOKERTO 1/1 PATI KAB. PATI
7541 1100447551 SUWITO 04/10/1966 PILANGREJO RT 06/06 KAB. DEMAK
7542 1100447552 SUKIRMAN SUHARJI CODIKROMO 01/06/1959 PLOSO RT.02 RW.04 KAB. KUDUS
7543 1100447554 DRA. UMI HANIK 07/01/1961 JL. KAPTEN MULYADI 305 RT. 03 RW.11 KOTA SURAKARTA
7544 1100447555 NUR ALIYAH CHARIRI BADRIN 03/07/1976 PLOSO RT.02 RW.04 KAB. KUDUS
7545 1100447556 ALIM MIFTAH IKHSAN 22/10/1966 KALIKALONG 4/4 TAYU KAB. PATI
7546 1100447557 [Link] WAHYUDI 19/09/1959 JL. KAPTEN MULYADI NO.305 RT.03 RW.11 KOTA SURAKARTA
7547 1100447558 MURDIYANTO 28/11/1968 [Link] INDAH RT.5/1 KARANGSOKA KAB. BANYUMAS
NO NO. PORSI NAMA TANGGAL LAHIR ALAMAT KAB/KOTA KETERANGAN
7548 1100447559 OETAMI DWI HAJOENINGJIJAS 29/10/1971 [Link] 3 RT. 5/1 KARANGSOKA KAB. BANYUMAS
7549 1100447560 TITI SUWARNI 04/01/1968 PERUM BKD BLOK 19 RT. 03 RW. 10 KAB. CILACAP
7550 1100447561 SUGIYONO 28/10/1961 PERUM BKD BLOK 19 RT. 03 RW. 10 KAB. CILACAP
7551 1100447563 LILIS ROHMAWATI FAUZAN 25/10/1967 KALIKALONG 4/4 TAYU KAB. PATI
7552 1100447564 MUHAMMAD RIKZA MUSHOFA 28/07/2001 TLOGOSARI WETAN RT.04/04 KOTA SEMARANG
7553 1100447565 HANANTO 14/10/1959 NOTOMULYO 01/11 KAB. KLATEN
7554 1100447566 TUGIYATNO 03/07/1966 JL. SEMEN ROMO NGRUKI BARU RT. 05/17 KAB. SUKOHARJO
7555 1100447567 ULIN MUBAROK 31/08/1992 TLOGOSARI WETAN RT.04/04 KOTA SEMARANG
7556 1100447568 BAMBANG SETYO UTOMO 09/09/1970 KARANGWONO 6/4 TAMBAKROMO KAB. PATI
7557 1100447569 SULASIH 16/06/1971 [Link] MONGINSIDI RT.01/09 KOTA SEMARANG
7558 1100447571 SITI SHOLIHATIN RASIPAN 16/03/1978 KARANGWONO 6/4 TAMBAKROMO KAB. PATI
7559 1100447572 INTI ROCHANI 17/11/1961 JL SEMEN ROMO NGRUKI RT. 05/17 KAB. SUKOHARJO
7560 1100447573 MARGIATIN 18/11/1958 NOTOMULYO 01/11 KAB. KLATEN
7561 1100447575 SUWITO 09/07/1962 [Link] MONGINSIDI RT.01/09 KOTA SEMARANG
7562 1100447577 SITI JULAICHAH 18/02/1972 PEDURUNGAN TENGAH RT.01/06 KOTA SEMARANG
7563 1100447578 ROKHIM 25/03/1983 ASRAMA YON ZIKON 13 RT 04 / RW 13 KAB. SEMARANG
7564 1100447579 AMIR MUSTOFA 23/06/1970 PEDURUNGAN TENGAH RT.01/06 KOTA SEMARANG
7565 1100447581 SRI SUYATI 15/03/1960 TEGALDOWO RT 10 KAB. SRAGEN
7566 1100447584 JANATI 01/12/1965 DSN. WIRU RT.04/01 WIRU BRINGIN KAB. SEMARANG
7567 1100447588 NOROYAH 17/01/1977 PURWAREJA RT 002/001 KAB. BANJARNEGARA
7568 1100447589 SITI MA'MURIYATUL MAZQIYAH 18/05/1972 PURWAREJA RT 002/001 KAB. BANJARNEGARA
7569 1100447590 MUHAMMAD IMAM SUMARNO 01/03/1966 DSN. SUKODONO RT.03 RW.10 KAB. SEMARANG
7570 1100447592 M. HANIK 14/08/1975 JL. H. KURDI RT. 1 RW. 5 KOTA PEKALONGAN
7571 1100447594 SITI ANI ASTUTIK 25/01/1972 DSN. SUKODONO RT.03 RW.10 KAB. SEMARANG
7572 1100447595 MUSLICHATUN RODHIYAH 03/08/1971 BUKIT KELAPA KOPYOR III/BH-22 RT.01/14 KOTA SEMARANG
7573 1100447596 IRMA IRANI 12/01/1980 JL. H. KURDI RT. 1 RW. 5 KOTA PEKALONGAN
7574 1100447599 MUSLIH 23/10/1970 DSN. WATES RT.05 RW.04 KAB. SEMARANG
7575 1100447601 SUPARTI, DRA 23/01/1962 BIBIS RT. 02 RW. 12 KAB. KARANGANYAR
7576 1100447602 RINI WIDYASTUTI 26/08/1973 DSN. WATES RT.05 RW.04 KAB. SEMARANG
7577 1100447603 SITI MARYATUN 10/12/1965 SUMBER RT 12 RW 02 KAB. BOYOLALI
7578 1100447604 CASINI 20/03/1974 PESANTREN RT. 06 RW. 06 KAB. PEMALANG
7579 1100447605 SAMINO 09/06/1962 [Link] II 155 BEJI RT 08/12 BEJI KAB. SEMARANG
7580 1100447606 MARSANA 22/02/1962 JL. KINIBALU NO. 36 RT. 01 RW. 13 KAB. CILACAP
7581 1100447609 CARTIWAN 21/04/1968 PESANTREN RT.06 RW.06 KAB. PEMALANG
7582 1100447610 IIS SURYANI 28/04/1964 JL. WAMENA II 155 RT.08/12 BEJI KAB. SEMARANG
7583 1100447613 SUJATI 05/03/1965 JL. KINIBALU NO. 36 RT. 01 RW. 13 KAB. CILACAP
7584 1100447615 JULI PURWANINGSIH 19/07/1972 DK. KEPOH RT.03/04 KOTA SEMARANG
7585 1100447616 WARNO SARIMAN WARSIH 01/07/1959 SINOMAN 4/2 PATI KAB. PATI
7586 1100447617 WASTIM 07/02/1968 DK. KEPOH RT.03/04 KOTA SEMARANG
7587 1100447618 MARLUKI 12/02/1961 MAJASARI RT.02 RW.04 KAB. BANJARNEGARA
7588 1100447619 ABDULLAH SUKRI 14/12/1960 MAJASARI. R T. 002/004 KAB. BANJARNEGARA
7589 1100447620 SITI MUSTOFIAH 02/04/1963 MAJASARI. RT. 002/003 KAB. BANJARNEGARA
7590 1100447621 SJARIFUDIN LATIF 07/12/1971 BRANTI RT.04 RW.05 KAB. KENDAL
7591 1100447622 NUNUK SRI SULASTRI, DRA 02/01/1967 TEGALWINANGUN RT. 03 RW. 13 KAB. KARANGANYAR
7592 1100447623 SUTRI MUNIR JENI 02/10/1963 SINOMAN 4/2 PATI KAB. PATI
7593 1100447624 INDIYAH 05/04/1965 PATEMON RT 1 RW 3 KOTA SEMARANG
7594 1100447625 BUDI SANTOSA 07/03/1981 MARGOREJO, RT.03/RW.05 KAB. TEMANGGUNG
7595 1100447626 GUSTI CHAIRIL IMANSYAH, IR 19/02/1970 TEGALWINANGUN RT. 03 RW. 13 KAB. KARANGANYAR
7596 1100447627 SITI FATIMAH PAKIH 31/07/1969 BOGOREJO RT 003 RW 003 SEDAN KAB. REMBANG
7597 1100447628 MUNTOWIYATUN 19/12/1957 NGEPANREJO 03/01 KAB. MAGELANG
7598 1100447629 KHOEROTUN NADIROH 05/07/1973 BRANTI RT.04 RW.05 KAB. KENDAL
7599 1100447632 TULUS PAWIROWIYONO TOMO 02/04/1962 BOGOREJO RT 003 RW 003 SEDAN KAB. REMBANG
7600 1100447636 SUCIPTO 16/12/1959 PRM TEKAD MAKMUR RT. 02/13 KAB. SUKOHARJO
7601 1100447638 WANTI PUJI ASIH 11/06/1984 MARGOREJO, RT.03/RW.05 KAB. TEMANGGUNG
7602 1100447639 SITI PURWANTI 06/04/1966 PERUM TEKAD MAKMUR RT. 02/13 KAB. SUKOHARJO
7603 1100447640 SRI SUYATMI 10/02/1969 KRISAK WETAN RT.03 RW.04 KAB. WONOGIRI
7604 1100447643 TUMINEM 08/12/1958 WONOREJOKULON RT 02/02 KAB. PURWOREJO
7605 1100447646 SITI ARYANI 05/01/1963 [Link] 01/07 KAB. GROBOGAN
7606 1100447648 ISROLIYAH 08/10/1966 GENDOL 01/02 KAB. MAGELANG
7607 1100447650 ABDUL KARIM 16/02/1968 [Link]. AHMAD DAHLAN RT. 02/03 BREBES KAB. BREBES
7608 1100447651 NANANG ENDAR HERMAWAN 20/12/1977 WATES KULON RT 03 RW 03 KAB. WONOGIRI
7609 1100447656 NURHIDAYAH 30/10/1977 [Link] DAHLAN RT. 02/03 BREBES KAB. BREBES
7610 1100447657 SRI MUJIATI 18/02/1967 PEDURUNGAN TENGAH RT.01/09 KOTA SEMARANG
7611 1100447660 FATKHURROZI 21/07/1975 PRINGLANGU GG. 7 19 C RT. 1 RW. 1 KOTA PEKALONGAN
7612 1100447661 SUNARYO 04/07/1958 KREYO RT.02 RW.09 KAB. KENDAL
7613 1100447662 AISYAH 19/09/1977 PRINGLANGU GG. 7 19 C RT. 1 RW. 1 KOTA PEKALONGAN
7614 1100447664 SRI WAHYUNI MUH SUGENG 08/10/1974 TINGKIR TENGAH RT 02 RW 06 KOTA SALATIGA
7615 1100447669 DIDIK SETYANTO ARIS PURNOMO 10/03/1975 WATES WETAN RT.02 RW.05 KAB. WONOGIRI
7616 1100447670 SRI HASTUTI SOEMARDI 05/09/1963 PANDAN RT 004 RW 001 PANCUR KAB. REMBANG
7617 1100447672 ABDUL FATAH SATIR 15/08/1958 JL. DIPONEGORO NO. 346 RT 27 RW 008 KAB. CILACAP
7618 1100447673 DARNINGSIH 10/07/1970 KENDALSERUT RT. 02/01 PANGKAH KAB. TEGAL
7619 1100447674 AHMAD WILUJENG KUSNINDAR 12/08/1960 PANDAN RT 004 RW 001 PANCUR KAB. REMBANG
7620 1100447675 LIS MUJIATUN, SE 19/05/1962 PACEKELAN RT 01/02 KAB. PURWOREJO
7621 1100447676 SRI HIDAYATI 29/12/1972 JL. MT. HARYONO 484 RT.04/04 PAKEMBARAN KAB. TEGAL
7622 1100447677 IHYAUN NAFI'AH 27/04/1984 TEMBARAK KIDUL RT03 RW01 KAB. TEMANGGUNG
7623 1100447678 MASINEM 17/10/1966 JL. DIPONEGORO NO. 346 RT. 27 RW. 08 KAB. CILACAP
7624 1100447680 APRILIA BUDI HAPSARI 12/04/1983 WATES KULON RT 03 RW 03 KAB. WONOGIRI
7625 1100447681 SITI MARYANI 28/02/1969 DSN. KARANGKOPEK WETAN 01/07 KAB. MAGELANG
7626 1100447683 SRI SUKARTININGSIH, SE 02/07/1959 CENGKAWAKREJO RT 05/01 KAB. PURWOREJO
7627 1100447685 AHMAD BAEQUNY 21/04/1974 JL. [Link] 484 RT.04/04 PAKEMBARAN KAB. TEGAL
7628 1100447687 ACHMAD ASRORI MINGUN 01/10/1960 JL. GUNUNG JERUK RT 05 RW 03 NO. 32 KAB. CILACAP
7629 1100447689 LUTHFATU ZAKIYAH 11/02/1978 PAKEMBARAN RT. 02/04 SLAWI KAB. TEGAL
7630 1100447691 ESTI NURCAHYATI 31/10/1975 GANDASULI RT 03 RW 04 KAB. PURBALINGGA
7631 1100447692 MASRIYAH 30/09/1963 JL. GUNUNG JERUK NO. 32 RT. 05 RW. 03 KAB. CILACAP
7632 1100447693 TEGUH SANTOSA 20/09/1974 GANDASULI RT 03 RW 04 KAB. PURBALINGGA
7633 1100447694 SAWINAH 09/04/1964 KREYO RT.02 RW.09 KAB. KENDAL
7634 1100447695 YULI BAYU AJI 11/07/1973 PAKEMBARAN RT. 02/04 SLAWI KAB. TEGAL
7635 1100447696 KASBUN 10/04/1965 JL. PESANTREN NO. 845 RT. 25 RW. 08 KAB. CILACAP
7636 1100447697 SRI PEBRI HASTANTI 09/02/1985 TASIKHARJO RT 003 RW 001 KALIORI KAB. REMBANG
7637 1100447699 SITI ADRINAH 02/06/1972 JL. PESANTREN NO. 845 RT. 25 RW. 08 KAB. CILACAP
7638 1100447701 PAWIRO REJO 19/07/1961 DUSUN BULUSARI RT.04 RW.04 KAB. CILACAP
7639 1100447702 SUPRIYONO 25/02/1961 JL. CANDI BERLIAN I/97 RT.01/09 KOTA SEMARANG
7640 1100447703 ADI CAHYONO PASIRUN 07/05/1985 TASIKHARJO RT 001 RW 001 KALIORI KAB. REMBANG
7641 1100447704 JEMINAH 10/10/1965 DSN BULUSARI RT. 04 RW. 04 KAB. CILACAP
7642 1100447706 SRI RAHAYU 06/12/1978 BOTOKAN 03/03 KAB. KLATEN
7643 1100447707 KAPTI PRASTIYO AJI 13/11/1980 TASIKHARJO RT 003 RW 001 KALIORI KAB. REMBANG
7644 1100447709 IDHA HANDAYANI 11/11/1966 JL. CANDI BERLIAN I/97 RT.01/09 KOTA SEMARANG
7645 1100447716 SISIL SRI RAHAYU 05/07/1984 LAWEN RT 002/002 KAB. BANJARNEGARA
7646 1100447718 MASHUDI 07/09/1965 KERANGKULON RT.04/03 KAB. DEMAK
7647 1100447722 SUPARTI 03/05/1968 JL. MR ISKANDAR XII RT 04/04 KAB. BLORA
7648 1100447723 WARTINI WARNADI DARSINI 31/12/1962 SEKARJALAK 5/2 MARGOYOSO KAB. PATI
7649 1100447724 RAWIYANTI 25/01/1963 JETIS 02/03 KAB. KLATEN
7650 1100447726 KASTAMAH 14/05/1968 BUMIREJO RT.03/06 KAB. DEMAK
7651 1100447727 SUMIJAN 12/04/1960 BUMIREJO RT.03/06 KAB. DEMAK
7652 1100447728 RAHARJO 23/06/1969 PURI SELATAN II.B/34 RT.11/16 KEDUNGWUNI KAB. PEKALONGAN
7653 1100447732 MUTAHAROH 17/07/1971 KERANGKULON RT.04/03 KAB. DEMAK
7654 1100447733 UMI HANI 29/08/1969 PURI SELATAN II.B/34 RT.11/16 KEDUNGWUNI KAB. PEKALONGAN
7655 1100447735 MULATSIH 06/08/1963 DADIMULYO 03/01 KAB. KLATEN
7656 1100447736 DEWI SARYANI 25/02/1975 JL FLAMBOYAN I NO.232 RT.01/05 BREBES KAB. BREBES
7657 1100447739 SRI HARTATI 10/08/1960 TEGALARUM RT 07 RW 02 KAB. BOYOLALI
7658 1100447743 FERI WIDY LESTARI 03/04/1987 MLANGSE RT 02/01 KAB. SRAGEN
7659 1100447744 SRI WIDATI [Link] 20/05/1965 MLANGSE RT 02/01 KAB. SRAGEN
7660 1100447745 SITI BAROROH AMINI 06/12/1966 JL BHAYANGKARA I /09 02/04 KAB. KLATEN
7661 1100447746 SETIA FITRI ATIQOH, [Link] 25/05/1986 BALAPULANG KULON RT.03/02 KAB. TEGAL
7662 1100447748 BAROKAH 01/10/1965 BALAPULANG KULON RT.03/02 KAB. TEGAL
7663 1100447749 ELAN JAELANI 23/09/1971 PRM KPN GR NO.140 RT.3/8 BNTRSK KAB. BANYUMAS
7664 1100447750 DIKRON KHOLIK, SEI 15/10/1972 BALAPULANG KULON RT.03/02 KAB. TEGAL
7665 1100447751 JARWOTO 08/07/1983 BALAPULANG WETAN RT. 007/009 KAB. TEGAL
7666 1100447753 IRYANTO HARMANSAHANA 23/09/1962 TEGALSARI RT 03/15 KAB. SRAGEN
7667 1100447755 ADE NIA HERNIATI 09/02/1975 PERUM KPN-GR 140 RT 3/8 BANTARSOKA KAB. BANYUMAS
7668 1100447758 WARTINI 20/08/1963 KARANG RT 10 KAB. SRAGEN
7669 1100447760 SUWARSINI 06/03/1972 JAGAN RT 02/01 KAB. SRAGEN
7670 1100447761 MUTOHAR 28/04/1959 KEBANARAN RT . 001/007 KAB. BANJARNEGARA
7671 1100447762 SUWARNO 28/03/1962 JL. MR ISKANDAR XII RT 04/04 KAB. BLORA
7672 1100447763 SUDARMAJI 19/11/1972 JAGAN RT 02/01 KAB. SRAGEN
7673 1100447764 YATI SRI MULYANI 31/12/1962 KEDUNGBANTENG RT 42 KAB. SRAGEN
7674 1100447766 HARDI SANTOSO 31/12/1959 KEDUNG BANTENG KAB. SRAGEN
7675 1100447768 ARIF WINDARTO 26/04/1971 KRIKILAN RT 09/02 KAB. SRAGEN
NO NO. PORSI NAMA TANGGAL LAHIR ALAMAT KAB/KOTA KETERANGAN
7676 1100447769 LYNDA CAHYANTI 19/03/1973 KRIKILAN RT 9 KAB. SRAGEN
7677 1100447771 ARIFIN HADI WIBOWO ST 03/09/1984 PENGKOK RT 01 KAB. SRAGEN
7678 1100447772 MIFTAHUL HANI-AH 28/04/1985 PENGKOK RT 01 KAB. SRAGEN
7679 1100447774 TEGUH YUWONO 06/12/1970 KRANDEGAN. RT. 001/005 KAB. BANJARNEGARA
7680 1100447778 MURNI 27/05/1964 DUSN. SIDOMULYO I RT. 02/01 KAB. MAGELANG
7681 1100447779 UMI SETYANINGSIH 13/09/1962 JL. SEMERU RT. 01/06 DUKUHWRINGIN KAB. TEGAL
7682 1100447785 PARDJONO 11/05/1958 JL. SEMERU RT. 01/06 DUKUHWRINGIN KAB. TEGAL
7683 1100447786 HARYANTO SABAR SUTIRI 23/11/1963 GROWONG KIDUL 2/2 JUWANA KAB. PATI
7684 1100447787 SUJIYAH 05/05/1960 KREYO RT.02 RW.09 KAB. KENDAL
7685 1100447788 AZWAR ANAS 12/03/1969 BAKALAN RT 09 RW 10 KAB. WONOSOBO
7686 1100447789 YUHDI 21/07/1958 MARGOAYU RT.02/03 KAB. DEMAK
7687 1100447790 SARMINI 03/07/1966 MARGOAYU RT.02/03 KAB. DEMAK
7688 1100447793 ROCHMAD 15/05/1958 TLANGU RT.06/RW.05 KAB. KENDAL
7689 1100447794 UNTUNG WAHIDIN 22/01/1984 BALAPULANG WETAN RT. 10/04 KAB. TEGAL
7690 1100447795 DEWI ASRI YUNINGASIH 21/06/1974 GROWONG KDIUL 2/2 JUWANA KAB. PATI
7691 1100447796 SUPRIYO ABDUL HADI ROSID 30/04/1961 JAJAR 03/03 KAB. GROBOGAN
7692 1100447798 SUNDUSIYAH 01/07/1963 BADONG RT 01/02 KAB. BLORA
7693 1100447799 ETTY HARYUNI ALI MUHSIN 25/08/1981 BANGSRI RT.001/011 KAB. JEPARA
7694 1100447800 SUMIASTUTI 15/03/1964 JAJAR 03/03 KAB. GROBOGAN
7695 1100447801 DJAWADI 18/04/1958 JL. NANGKA NO.41 RT.03/01 PROCOT KAB. TEGAL
7696 1100447802 DIDIK ARI BINTARA 01/02/1979 BANGSRI RT.001/011 KAB. JEPARA
7697 1100447803 MUNDIROH, [Link] 27/10/1962 JL. NANGKA NO. 41 RT.03/01 PROCOT KAB. TEGAL
7698 1100447804 SITI WAHYUNI 21/06/1960 JL. SIDOLUHUR XI/03 RT.03/06 KOTA SEMARANG
7699 1100447806 SLAMET SUTOMO 27/08/1973 TAMBANGAN RT.03/01 KOTA SEMARANG
7700 1100447807 DIANA SARI DEWI PADANG 27/03/1977 TAMBANGAN RT.02/01 KOTA SEMARANG
7701 1100447808 ASMAINAH 01/06/1965 TEMUROSO RT.02/05 KAB. DEMAK
7702 1100447811 MUDRIYAH 05/10/1957 [Link] GEDE RT.14/04 KALIMOJOSARI KAB. PEKALONGAN
7703 1100447812 SANTOSO 01/01/1968 KAUMAN RT 01 RW 01 KAB. WONOSOBO
7704 1100447814 FIRMAN ALIP HP 26/08/1969 JL BHAYANGKARA 1/9 02/04 KAB. KLATEN
7705 1100447816 RODIYATUN 11/12/1960 GLAGAH RT 03 RW 02 KAB. WONOSOBO
7706 1100447817 USDEK SUTIYONO 18/06/1962 SEMAWUNGKEMBARAN RT 02/03 KAB. PURWOREJO
7707 1100447818 TURIYAH 16/12/1964 KAUMAN RT 01 RW 01 KAB. WONOSOBO
7708 1100447820 TUGIYANTO 04/12/1974 TEGALSARI RT.02 RW.32 KOTA SURAKARTA
7709 1100447821 YANTI 05/03/1978 TEGALSARI RT.02 RW.32 KOTA SURAKARTA
7710 1100447822 NGAISAH 24/03/1965 SEMAWUNGKEMBARAN RT 02/03 KAB. PURWOREJO
7711 1100447824 MUHAMMAD NURHUDA 29/01/1974 TEGALSARI RT.02 RW.32 KOTA SURAKARTA
7712 1100447826 NURUL KHASANAH 21/06/1967 KAGOKAN RT. 01/04 KAB. SUKOHARJO
7713 1100447827 FATIMATUZ ZAHRO 24/11/1968 MANGGAR 04/02 KAB. GROBOGAN
7714 1100447828 ATUK SUBAKTI 20/12/1979 TEGALSARI RT [Link].32 KOTA SURAKARTA
7715 1100447830 NUR HIDAYATI 15/06/1975 MANGGARMAS 04/03 KAB. GROBOGAN
7716 1100447832 NUR KHOLIK 17/12/1970 MANGGAR 04/03 KAB. GROBOGAN
7717 1100447835 MUNTIAROH SUKADI SUTIRAH 08/06/1974 PURI 3/4 PATI KAB. PATI
7718 1100447836 ABDUL KODIR 03/04/1965 BANJARANYAR RT. 2/3 KAB. BANYUMAS
7719 1100447837 EDI SETIASIH 10/01/1963 JL. SURTIKANTI X/8 RT.03/02 KOTA SEMARANG
7720 1100447838 NURUL KOMARIYAH 24/04/1973 BANJARANYAR RT. 2/3 KAB. BANYUMAS
7721 1100447839 FATHIMAH 08/04/1962 KARANGASEM RT.02 RW.06 KOTA SURAKARTA
7722 1100447841 MULYATININGSIH, DRA 09/01/1967 CARANGAN RT.01 RW. 08 KOTA SURAKARTA
7723 1100447847 SUTIYONO USMAN SAGIYO 21/02/1969 TRANGKIL 3/2 TRANGKIL KAB. PATI
7724 1100447848 SRI WAHYUNI DARSONO 14/12/1973 TRANGKIL 3/2 TRANGKIL KAB. PATI
7725 1100447849 EMY NURYANI 01/08/1961 KAUMAN RT 01/01 BINTORO KAB. DEMAK
7726 1100447852 SUHARNI 06/11/1965 MIJAHAN RT 05/01 KAB. SRAGEN
7727 1100447853 ETI HERNAWATI 01/07/1981 KARANGBINANGUN RT.02/03 SONGGOM KAB. BREBES
7728 1100447855 ALI KHABIBI 10/04/1979 KARANGBINANGUN RT.02/03 SONGGOM KAB. BREBES
7729 1100447857 SULAWI RAJI SUHARTI 05/10/1970 TRIMULYO 2/1 JUWANA KAB. PATI
7730 1100447860 UMI RODHIYAH 19/04/1963 DSN. LEDOK RT.01 RW.08 KAB. SEMARANG
7731 1100447862 SIDIK 09/08/1957 DSN. LEDOK RT.01 RW.06 KAB. SEMARANG
7732 1100447863 HADI PRAYITNO SOEKAHAR 12/09/1969 KAWAK RT.002/001 [Link] AJI KAB. JEPARA
7733 1100447865 SYIHABUDDIN NUR 15/09/1987 [Link] BARAT RT.01/01 SAWANGAN KAB. PEKALONGAN
7734 1100447866 SADINO 19/10/1966 DSN. SUGIHAN RT.08 RW.02 KAB. SEMARANG
7735 1100447868 MUSYAROFAH 01/07/1962 GANDRIROJO RT 002 / RW 004 KAB. REMBANG
7736 1100447869 ESTER DYAH RETNOWATI 22/10/1972 KAWAK RT.002/001 [Link] AJI KAB. JEPARA
7737 1100447870 ARIS 06/03/1963 POSONG RT.10/05 SAWANGAN DORO KAB. PEKALONGAN
7738 1100447871 MUSTAQIM 03/08/1973 DSN. REKESAN RT.23 RW.05 KAB. SEMARANG
7739 1100447872 SUPRIYATI RAHAYU 13/07/1968 PONDOK BARU PERMAI H. 38 RT. 01/12 KAB. SUKOHARJO
7740 1100447873 ULIYAH 08/11/1963 POSONG RT.10/05 SAWANGAN DORO KAB. PEKALONGAN
7741 1100447874 PURWANTO 27/12/1961 MIJAHAN RT 05/01 KAB. SRAGEN
7742 1100447875 EKA SULISTIYA 15/04/1966 PONDOK BARU PERMAI H. 38 RT. 01/12 KAB. SUKOHARJO
7743 1100447876 WIDODO SE 27/07/1977 KARANGJATI RT 08/02 KAB. SRAGEN
7744 1100447878 LEBUH 12/04/1967 MEDAYU RT . 003/001 KAB. BANJARNEGARA
7745 1100447879 KHOZANAH 04/01/1966 BANJARAN RT. 03 RW. 03 KAB. PEMALANG
7746 1100447880 MUHTAR 17/04/1960 BANJARAN RT.03 RW.03 KAB. PEMALANG
7747 1100447881 SOLIKHUL HUDA 27/06/1975 BUNDERAN RT 02 RW 01 KAB. DEMAK
7748 1100447882 TENTREM AMAT DANURI 03/12/1962 KRIYAN RT 02 RW 04 KOTA SALATIGA
7749 1100447884 SARWOTO MARTO SETIKO 13/04/1969 KRIYAN RT 02 RW 04 KOTA SALATIGA
7750 1100447885 UBAEDILAH 24/08/1965 PANUSUPAN RT 10 RW 05 KAB. BANYUMAS
7751 1100447886 SRI PUDJIATI, SH 14/09/1972 UJUNGGEDE RT. 07 RW. 01 KAB. PEMALANG
7752 1100447887 TININGSRI 19/06/1964 JL. DEWI SARTIKA RT.04/02 BREBES KAB. BREBES
7753 1100447889 DHAKIROH 14/02/1973 BUNDERAN RT 02 RW 01 KAB. DEMAK
7754 1100447890 RUHARTI 20/02/1972 PANUSUPAN RT. 10/5 KAB. BANYUMAS
7755 1100447892 KOESDI KARTUBI KASMO TUKUL 01/12/1966 MLATI KIDUL RT 03 RW 02 KAB. KUDUS
7756 1100447893 SANIRAH 17/06/1974 MEDAYU. RT. 003/001 KAB. BANJARNEGARA
7757 1100447895 SRI FAJARYATI ASMUI 08/02/1967 JEPANGPAKIS RT.01 RW.05 KAB. KUDUS
7758 1100447896 SUKRAM KASMAT SUKEMITAS 23/01/1962 JEPANGPAKIS RT 01 RW 05 KAB. KUDUS
7759 1100447897 ZAENAL ABIDIN, DRS 10/08/1960 SIDOMULYO RT.02/01 PAGERBARANG KAB. TEGAL
7760 1100447898 ZAENAB KASMANI SENENG 05/04/1964 SUKOSONO RT.003/001 KAB. JEPARA
7761 1100447899 YUSNO 26/06/1979 REJOWINANGUN RT 01/03 KAB. PURWOREJO
7762 1100447902 BACHRIYATI 13/04/1969 SIDOMULYO RT.02/01 PAGERBARANG KAB. TEGAL
7763 1100447903 ASRIFATUN SUGITO SUROKERTO 07/05/1965 JAPAN RT 10 RW 02 KAB. KUDUS
7764 1100447904 KASMINTAK LEMPE KARMISAN 12/10/1958 SUKOSONO RT.003/001 KAB. JEPARA
7765 1100447905 ACHMAD HAZARI 09/11/2000 JL. SUNAN AMPEL 7 NO. 86 RT 06 RW 01 KOTA MAGELANG
7766 1100447906 SUDONO MATKUSEN KOWIRONO 18/05/1962 JAPAN RT 10 RW 02 KAB. KUDUS
7767 1100447907 SITI ALBADRIYAH AHMAD 16/11/1966 KECAPI RT.030/006 KAB. JEPARA
7768 1100447908 MOH LATIF SUKARDI 17/03/1964 KRANDON RT.02 RW.03 KAB. KUDUS
7769 1100447910 AHMED SHOIM EL AMIN 02/05/1982 JL. KEBON JERUK RT01 RW04 KAB. CILACAP
7770 1100447911 MUHAMMAD BAIDLOWI SUJUD 25/08/1965 KECAPI RT.030/006 KAB. JEPARA
7771 1100447913 FAIZAH PURNAMAWATI 14/03/1968 JL SUNAN AMPEL 7 NO. 86 RT 06 RW 01 KOTA MAGELANG
7772 1100447915 KHUMAEDAH 05/04/1968 KARANGJOMPO RT.02/03 TIRTO KAB. PEKALONGAN
7773 1100447916 WIRDIANUL ULUM 20/11/1986 JL. KEBON JERUK RT. 01 RW. 04 KAB. CILACAP
7774 1100447918 KLIWON 05/10/1964 KARANGJOMPO RT.02/03 TIRTO KAB. PEKALONGAN
7775 1100447923 SITI MUIBAH 28/05/1963 SIMBANG RT.23/06 KALIMOJOSARI DORO KAB. PEKALONGAN
7776 1100447924 SITI RUHIYAH INDRIYATI 05/01/1970 KRANDON RT.02 RW.03 KAB. KUDUS
7777 1100447926 ENDAH SUTRIKANTI 01/10/1962 JL. BLIMBING GG.2 NO.32 RT.03 RW.05 KOTA TEGAL
7778 1100447927 AMIN SUCIPTO,SIP 13/10/1969 RT.01/02 KAB. PURWOREJO
7779 1100447928 SRI ATIPAH MUSLIH 12/12/1957 GETASPEJATEN RT 07 RW 04 KAB. KUDUS
7780 1100447929 SAADAH 27/06/1963 LANGGEN RT.04/01 TALANG KAB. TEGAL
7781 1100447932 TUSNIAH 27/08/1978 KEMIRI LOR RT 01/02 KAB. PURWOREJO
7782 1100447944 RIWAYATI 27/10/1973 JL. PAHLAWAN NO.7 RT.18/RW.04 KAB. KENDAL
7783 1100447946 JAMAL MAHBUB 07/12/1984 [Link] TIMUR NO.104 RT.03 RW.04 KAB. KENDAL
7784 1100447948 SITI AKHIROH 28/02/1971 KARANGSARI 03/04 KAB. GROBOGAN
7785 1100447949 KHIKAYATI SHOIMATUN ISRINA 29/05/1986 [Link] RT.01 RW.02 KAB. KENDAL
7786 1100447951 TUKUL 10/08/1961 LATAK 04/04 KAB. GROBOGAN
7787 1100447952 ANI FADILAH 05/04/1983 BEDAGAS RT 10 RW 05 KAB. PURBALINGGA
7788 1100447954 ROICHATUN NASICHAH MASKUN 14/10/1971 GENENG 09/02 KAB. JEPARA
7789 1100447955 NASICHIN MAKHSUB SULAIMAN 28/05/1958 GENENG 09/02 KAB. JEPARA
7790 1100447957 SISWANTO 13/02/1971 JL. PAHLAWAN NO.7 RT.18/RW.04 KAB. KENDAL
7791 1100447961 PUJI ASTUTI 08/04/1958 SUSUKAN RT . 002/002 KAB. BANJARNEGARA
7792 1100447962 AHMAD ANWARI 07/01/1960 DERAS 01/02 KAB. GROBOGAN
7793 1100447964 SUKESI 07/11/1971 KAUMAN [Link] 5 NO.15 RT.08 RW.06 KAB. BATANG
7794 1100447965 SRI WINARYATI 24/11/1957 PLOSO RT 03 KAB. SRAGEN
7795 1100447967 SUTAJI SUYUT WIROHARJO 06/01/1958 SITIREJO 07/02 TAMBAKROMO KAB. PATI
7796 1100447968 MUH HASAN 26/01/1971 TRENGGULI 04/05 KAB. DEMAK
7797 1100447969 PONIDJAH 20/01/1959 GUBUG 01/07 KAB. GROBOGAN
7798 1100447972 SUKARSIH 17/08/1974 TRENGGULI RT 04/05 KAB. DEMAK
7799 1100447974 SUKARTO 13/03/1966 SALAMSARI RT 004 RW 06 KAB. BOYOLALI
7800 1100447975 MUHAMAD ROMADLON NURUL KAMAL 03/05/1988 GUBUG 01/07 KAB. GROBOGAN
7801 1100447976 DJOKO SUTRISNO RIJADI 28/02/1969 PERUM TEGAL SARI BLOK I-4/33 BOJONGSARI KAB. BANYUMAS
7802 1100447978 LATRI 21/04/1966 LATAK 04/04 KAB. GROBOGAN
7803 1100447979 SITI NURYATI 13/06/1969 SALAMSARI RT 04 RW 06 KAB. BOYOLALI
NO NO. PORSI NAMA TANGGAL LAHIR ALAMAT KAB/KOTA KETERANGAN
7804 1100447984 KUSUMARINI 30/01/1974 PERUM TEGAL SARI BLOK I-4/33 RT 3/6 KAB. BANYUMAS
7805 1100447988 HARSI WIRYAWANTI 20/06/1976 JEKETRO 04/03 KAB. GROBOGAN
7806 1100447990 SRI MULYATI 13/08/1961 KARANGSARI RT.03/RW.03 KAB. KENDAL
7807 1100447992 ASHADI 24/08/1961 KAMPUNG RANDUSARI 02/05 KAB. GROBOGAN
7808 1100447996 SITI MAESAROH 25/09/1968 KAMPUNG RANDUSARI 02/05 KAB. GROBOGAN
7809 1100447998 MARYATI 02/04/1965 LIMBANGAN RT. RT. 04 RW. 06 KAB. CILACAP
7810 1100447999 BADARIYAH HADI SUPARTO 03/04/1960 SUKOSARI RT 01 RW 02 KOTA SALATIGA
7811 1100448001 IKA RATNANINGRUM 20/08/1986 GINGGANG TANI 01/03 KAB. GROBOGAN
7812 1100448003 TITIK UMIYATI 26/12/1975 GINGGANG SANTRI 01/03 KAB. GROBOGAN
7813 1100448004 SURATMI 15/08/1958 JL. GALAR RAYA NO. 8 RT 6 RW 16 KOTA SEMARANG
7814 1100448006 JUMIATUN SIRAT SUKARNO 16/04/1966 KAJAR RT.01 RW.02 KAB. KUDUS
7815 1100448008 BUSTANUL ARIFIN 05/09/1977 GINGGANG SANTRI 01/03 KAB. GROBOGAN
7816 1100448010 RIEZA DWI BASKARA 17/12/1987 JL. GALAR RAYA NO. 8 RT 006 / RW 016 KOTA SEMARANG
7817 1100448015 RUMISIH SURO SARIMAN 01/07/1965 SUNDOLUHUR 01/01 KAYEN KAB. PATI
7818 1100448016 SUNDUSIYAH 15/06/1969 DERAS 01/02 KAB. GROBOGAN
7819 1100448017 SUBKHAN ARIEF 24/03/1985 PEGANDON RT.01/RW.04 KAB. KENDAL
7820 1100448019 SUGENG 27/09/1965 SRIWULAN RT 04/04 KAB. DEMAK
7821 1100448022 ABDUL DAIM 06/05/1967 JEKETRO 04/03 KAB. GROBOGAN
7822 1100448023 KHUMAIDI 10/08/1972 DESA PENANGGULAN RT.01/RW.02 KAB. KENDAL
7823 1100448025 SRI WARTI 12/05/1965 SRIWULAN RT 04/04 KAB. DEMAK
7824 1100448028 MUHYADI 07/07/1957 LIMBANGAN RT. 04 RW. 06 KAB. CILACAP
7825 1100448029 NGASRI PENI RESO LAS 14/09/1973 MENORO RT 003 RW 005 SEDAN KAB. REMBANG
7826 1100448030 MULYONO SPD 14/06/1962 PLUMBUNGAN INDAH NO. 40 RT 25/08 KAB. SRAGEN
7827 1100448031 SUMINI 17/05/1969 SUGIHAN RT.11 RW.02 KAB. SEMARANG
7828 1100448032 SAEFUDIN 02/05/1971 DESA PEGANDON RT.01/RW.04 KAB. KENDAL
7829 1100448034 SRI SAYEKTI 20/09/1962 PLUMBUNGAN RT 25/08 KAB. SRAGEN
7830 1100448035 JAMARI BASIR BARIS 07/11/1964 MENORO RT 003 RW 005 SEDAN KAB. REMBANG
7831 1100448036 MAEMUNAH 24/04/1972 DESA PENANGGULAN RT.01/RW.02 KAB. KENDAL
7832 1100448037 MUH SURYANTO 03/04/1974 DK. LEMAHBANG RT. 02/03 KAB. SUKOHARJO
7833 1100448039 SRI PRATIWININGSIH 06/08/1968 JL. MERBABU RAYA RT.02 RW.03 KOTA SEMARANG
7834 1100448040 WIWIK LISTIARINI 09/11/1979 KAMPUNG BARU RT. 02/06 KAB. SUKOHARJO
7835 1100448044 ROLIYAH ROHAYATI 01/01/1959 DUSUN NAGKA PEUSAR RT. 01 RW. 09 KAB. CILACAP
7836 1100448045 MIFTAKHUL KOIRIYAH 03/03/1986 JL. RAYA PEGANDON RT.01/RW.04 KAB. KENDAL
7837 1100448046 NUR KHASANAH 03/09/1977 DESA PEGANDON RT.01/RW.04 KAB. KENDAL
7838 1100448047 ASIH RUMIANA RUMAIN 14/05/1977 KAYEN 07/07 KAYEN KAB. PATI
7839 1100448050 SUTIMAN 17/08/1958 DELEG RT.06 RW. 01 KAB. KARANGANYAR
7840 1100448051 ISTIANAH 02/12/1974 PEGANDON RT.01/RW.04 KAB. KENDAL
7841 1100448052 WIDYA HARY CAHYATI 27/12/1977 PATEMON RT 4 RW 1 KOTA SEMARANG
7842 1100448053 NARTO WIYONO 12/11/1957 DANGURAN KIDUL 02/10 KAB. KLATEN
7843 1100448055 ZAENAL ARIFIN 23/02/1979 DESA PEGANDON RT.01/RW.04 KAB. KENDAL
7844 1100448056 YAYUK HANDAYANI 31/12/1979 DELEG RT.06 RW.01 KAB. KARANGANYAR
7845 1100448057 DARYANI 10/11/1960 DANGURAN 02/10 KAB. KLATEN
7846 1100448058 ENDANG HARYATUN 12/05/1968 MOJOMULYO RT 02/10 KAB. SRAGEN
7847 1100448059 ETIKA ROCHANI 28/04/1980 DESA PEGANDON RT.01/RW.04 KAB. KENDAL
7848 1100448061 ISTIROKHAH 07/02/1983 PATEBON KAUMAN RT.05/RW.02 KAB. KENDAL
7849 1100448062 RANTINEM 31/12/1960 TOPENG 01/08 KAB. KLATEN
7850 1100448063 FADHOLIN 08/04/1981 PATEBON KAUMAN RT.05/RW.02 KAB. KENDAL
7851 1100448064 ENY WIHARTANTI 08/09/1973 GAWAN RT 11 KAB. SRAGEN
7852 1100448065 SUTARJU DR 16/12/1966 GAWAN RT 11 KAB. SRAGEN
7853 1100448068 SUHARYO 18/05/1979 PATEMON RT 4 RW 1 KOTA SEMARANG
7854 1100448072 SUDAR SUHUD PARMI 07/04/1959 TLOGOSARI 2/1 TLOGOWUNGU KAB. PATI
7855 1100448073 PULANAH 02/08/1976 BONDANSARI RT.13/05 WIRADESA KAB. PEKALONGAN
7856 1100448074 MUH ARWAN SAHERUN 06/03/1965 KAYEN 07/07 KAYEN KAB. PATI
7857 1100448075 DAROAT 11/12/1969 BONDANSARI RT.13/15 WIRADESA KAB. PEKALONGAN
7858 1100448076 SHOLIKHAH NGUSMAN SALAMAH 30/03/1970 TLOGOSARI 2/1 TLOGOWUNGU KAB. PATI
7859 1100448078 MARGIYATI,AMA,PD 24/07/1959 JETIS 07/03 KAB. KLATEN
7860 1100448079 RINA WATI 24/04/1983 BONDANSARI RT 013 / RW 005 KAB. PEKALONGAN
7861 1100448080 MASUDI DJAMASRI SALEMAN 10/11/1958 GULANG RT 03 RW 06 KAB. KUDUS
7862 1100448085 NGADINAH SAJUDI BAJURI 03/12/1962 GULANG RT.03 RW.06 KAB. KUDUS
7863 1100448086 MARTINI URIP JOYO 26/07/1977 NGOTET RT 004 RW 002 REMBANG KAB. REMBANG
7864 1100448089 SITI FATIMAH KASIR 01/07/1963 KLECOREGONANG 1/3 WINONG KAB. PATI
7865 1100448092 RUSTAMAJI PARIJI PIJAH 10/12/1970 NGOTET RT 004 RW 002 REMBANG KAB. REMBANG
7866 1100448093 SENIPAH 04/01/1964 HARJOWINANGUN TIMUR RT.01 RW.01 KAB. BATANG
7867 1100448094 SATONAH KLUMPUK NGASIMAH 21/02/1961 KETANGGI RT 003 RW 001 REMBANG KAB. REMBANG
7868 1100448095 KARSADI 14/03/1962 SIDOMULYO RT 04/03 KAB. DEMAK
7869 1100448096 RUBINEM 07/07/1957 PERENG KULON 11/05 KAB. KLATEN
7870 1100448097 MADI SELAN SARIYANI 22/08/1962 TLOGOREJO 02/04 TLOGOWUNGU KAB. PATI
7871 1100448102 HARYONO 23/12/1959 DSN. KROYO RT.01/06 BRINGIN KAB. SEMARANG
7872 1100448104 NURYANTI 07/05/1978 DSN. TALOK RT.20 RW.05 KAB. SEMARANG
7873 1100448105 TERI 14/03/1958 BANGSRI RT.06/07 BULAKAMBA KAB. BREBES
7874 1100448106 SUGIYANTI 06/09/1966 DSN. KROYO RT.01/06 BRINGIN KAB. SEMARANG
7875 1100448107 ALFIYAH 09/06/1959 JL. JALAK JANEGARA RT.09/03 JATIBARANG KAB. BREBES
7876 1100448108 NGATIRAH 09/05/1963 DSN. GADING RT.32 RW.07 KAB. SEMARANG
7877 1100448109 ENDANG SAWIJI HARJO UTOMO 01/04/1962 TLOGOREJO 02/04 TLOGOWUNGU KAB. PATI
7878 1100448112 MISBAHUL MUNIR 03/12/1998 KARANGMALANG RT. 04/02 KEDUNGBANTENG KAB. TEGAL
7879 1100448113 ZAINUDIN 24/06/1966 KARANGMALANG RT. 04/02 KEDUNGBANTENG KAB. TEGAL
7880 1100448116 ANDI FAMILIANTO,[Link] 01/05/1981 TAMAN ASRI B.3 RT.03 RW.04 KAB. PEMALANG
7881 1100448118 FITRIYAH DEWI MARYANI 23/03/1980 TAMAN ASRI B.3 RT. 03 RW. 04 KAB. PEMALANG
7882 1100448119 HARTINI 15/02/1970 JL. SERANG NO.1 RT 04/14 KAB. SRAGEN
7883 1100448120 MUHAMAD ANWAR 25/04/1969 JL. SERANG NO.1 RT 04/14 KAB. SRAGEN
7884 1100448122 ZUHRI 02/04/1962 [Link] RT.05/04 KOTA SEMARANG
7885 1100448123 KHOFIYAH 28/08/1967 [Link] TENGAH RT.05/04 KOTA SEMARANG
7886 1100448124 NING SETIYOWATI 20/10/1960 JL. ARILOKA RT.01/08 KOTA SEMARANG
7887 1100448125 ACHMAD SUPARNO 18/07/1959 JL. ARILOKA RT.01/08 KOTA SEMARANG
7888 1100448132 SITI SUMARLIYAH 10/09/1959 DERSONO RT 04 RW 01 KAB. BOYOLALI
7889 1100448135 UMI YUNIA 29/08/1961 MELATI BARU NIO. 13 RT. 02 RW. 06 KOTA MAGELANG
7890 1100448138 NISWATUL UMMAH 21/12/1978 JENGGOT GG. 5 / 412 RT. 7 RW. 1 KOTA PEKALONGAN
7891 1100448143 HASRIYATI 02/01/1972 [Link] UTARA RT.03 RW.05 KAB. KENDAL
7892 1100448144 DURI WIDAYANTI 09/06/1980 KARANGJATI RT 08/02 KAB. SRAGEN
7893 1100448148 ARUM KUSUMANINGSIWI 05/08/1989 KP. PEDURUNGANTENGAHRT 6 RW 1 KOTA SEMARANG
7894 1100448149 HANDAYANI SULIYONO MOH. NOOR 30/07/1971 PUYOH RT 02 RW 04 KAB. KUDUS
7895 1100448150 RUKAYAH 12/04/1962 TRATEMULYO RT.04 RT.03 KAB. KENDAL
7896 1100448151 KUSMANA KURDI BASIR 12/05/1963 PUYOH RT 02 RW 04 KAB. KUDUS
7897 1100448152 SRI ENDANG SUCI KARTINI 18/12/1962 MARGOREJO RT.01 RW.09 KAB. KUDUS
7898 1100448153 MASYHUDI KARJAN TOMPO WIJOYO 19/10/1961 MARGOREJO RT 01 RW 09 KAB. KUDUS
7899 1100448154 SRI HARYATI 31/01/1962 KP. PEDURUNGAN TENGAH RT 6 RW 1 KOTA SEMARANG
7900 1100448155 SITI PARNI ABDUL QOHAR 17/05/1978 KANDANGMAS RT.04 RW.07 KAB. KUDUS
7901 1100448158 ABDUL JALIL BARNAWI 21/07/1975 KANDANGMAS RT 04 RW 07 KAB. KUDUS
7902 1100448161 SUKARTI 15/01/1963 BANTAR RT. 8/5 KAB. BANYUMAS
7903 1100448164 DIAN WULANINGSIH 01/05/1986 KUTO REJO RT 01 RW 08 KAB. SRAGEN
7904 1100448165 SALWO WIKARTO 05/05/1960 BANGON RT 01 RW 07 KAB. WONOSOBO
7905 1100448166 SUPARMI 20/05/1960 KEBONHARJO RT.05/02 KOTA SEMARANG
7906 1100448167 AKHMAD MUZANI 21/02/1980 JL. URIP SUMOHARJO KAB. SRAGEN
7907 1100448168 WARTITIK 02/03/1963 BANGON RT 01 RW 07 KAB. WONOSOBO
7908 1100448169 SUTONO 18/11/1963 RANDU RT 03 RW 02 KAB. BOYOLALI
7909 1100448170 ARIFATUN 27/09/1980 KARANGTENGAH .RT. 003/003 KAB. BANJARNEGARA
7910 1100448171 SRI LESTARI 08/11/1960 KLAPA RT 004 RW 004 KAB. BANJARNEGARA
7911 1100448172 BAKHRON SODIK 01/12/1981 KARANGTENGAH .RT. 003/003 KAB. BANJARNEGARA
7912 1100448173 PUDJI HARJATI 16/07/1968 KRANDEGAN. RT. 001/005 KAB. BANJARNEGARA
7913 1100448174 UMI CHASANAH 21/04/1969 RANDU RT 03 RW 02 KAB. BOYOLALI
7914 1100448175 KHALIMATUL HIDAYAH SALAMUN 19/03/1981 KARANGTURI RT 002 RW 001 LASEM KAB. REMBANG
7915 1100448176 M. FAQIH 13/03/1973 JL. PELITA 3 NO.42 RT.02 RW.03 KOTA PEKALONGAN
7916 1100448177 SLAMET RIYANTO 24/05/1958 REJOSARI BARAT RT.05 RW.02 KAB. BATANG
7917 1100448178 ISTIQOMAH 30/11/1975 JL. PELITA 3 NO.42 RT.02 RW.03 KOTA PEKALONGAN
7918 1100448179 ARIYAH 08/08/1964 REJOSARI BARAT RT.05 RW.02 KAB. BATANG
7919 1100448186 DWI WIDIYANTO SUPRIYANTO 04/11/1979 KARANGTURI RT 002 RW 001 LASEM KAB. REMBANG
7920 1100448190 MAHMUDAH 01/02/1971 MOJOSARI RT 02 RW 09 KAB. BOYOLALI
7921 1100448192 ABDUL ROHIM 15/07/1967 MOJOSARI RT 02 RW 09 KAB. BOYOLALI
7922 1100448193 DAONAH 16/05/1962 PRUWATAN, RT. 06/02 BUMIAYU KAB. BREBES
7923 1100448195 ENTI SETYANINGSIH 20/09/1982 GUMIWANG RT 002/006 KAB. BANJARNEGARA
7924 1100448198 NURHAYATI 11/11/1963 TAMAN GEDE RT.01/RW.02 KAB. KENDAL
7925 1100448200 NGADIMIN 21/04/1968 GEBANG RT 02/02 KAB. SRAGEN
7926 1100448202 ALAYA FADLLU HADI MUKHAMMAD 27/09/1985 DESA KEBONHARJO RT.01 RW.05 KAB. KENDAL
7927 1100448203 NURKHOLIS 27/12/1962 BEDONO RT 05/05 KAB. DEMAK
7928 1100448204 SURIPTO 03/08/1967 NGINGGIL RT 29/05 KAB. SRAGEN
7929 1100448205 MUAWANAH 12/06/1966 BEDONO RT 05/05 KAB. DEMAK
7930 1100448206 IRFAN 30/09/1963 [Link] YOS SUDARSO 6E RT.24/06 BEBEL KAB. PEKALONGAN
7931 1100448208 KUMAIDI 17/06/1968 BANDUNGREJO RT 06/06 KAB. DEMAK
NO NO. PORSI NAMA TANGGAL LAHIR ALAMAT KAB/KOTA KETERANGAN
7932 1100448209 ENY MURYANINGSIH 27/03/1971 NGINGGIL RT 29 KAB. SRAGEN
7933 1100448210 NIKMAH 15/06/1969 [Link]. 001/002 KAB. BANJARNEGARA
7934 1100448211 LAZIMAH 22/11/1962 [Link] YOS SUDARSO 6E RT.24/06 BEBEL KAB. PEKALONGAN
7935 1100448214 RONDIYAH 03/08/1973 BANDUNGREJO RT 06/06 KAB. DEMAK
7936 1100448215 SUPRAPTO 17/08/1972 MAJENANG RT 16 KAB. SRAGEN
7937 1100448218 TUTIK NUR HIDAYATI 31/12/1976 MAJENANG RT 16 KAB. SRAGEN
7938 1100448220 INSYANURI 16/05/1971 JL. BUKIT KELAPA GADING IV/AM-04 RT7/11 KOTA SEMARANG
7939 1100448221 NUR AIDA 05/10/1979 TANON RT 03 KAB. SRAGEN
7940 1100448222 CITRO NANDLOH NANDIB 09/12/1993 SIDOHARJO RT 03/01 KAB. DEMAK
7941 1100448223 FIKA MUSTIKA ASTITI MAULIDA 26/08/1996 SIDOHARJO RT 03/01 KAB. DEMAK
7942 1100448224 SUROSO 13/11/1971 TANON RT 03/01 KAB. SRAGEN
7943 1100448225 TRI HARJANTI 24/04/1976 BUKIT KELAPA GADING IV/AM-04 RT 7/11 KOTA SEMARANG
7944 1100448226 USWATUN KHASANAH 20/05/1974 [Link] RT.01 RW.03 KAB. SEMARANG
7945 1100448227 AGUS SALIM 15/08/1969 DSN. ROWOKASAM RT.01 RW.03 KAB. SEMARANG
7946 1100448229 DJASMANI SUROSO KADIYO 10/10/1958 SEGOROMULYO RT 002 RW 003 PAMOTAN KAB. REMBANG
7947 1100448230 KOMARIAH RASMIN MATARI 24/04/1968 WUWUR RT 007 RW 003 PANCUR KAB. REMBANG
7948 1100448231 PARINAH 03/08/1965 DUSUN GEBANGSARI RT. 02 RW. 04 KAB. CILACAP
7949 1100448232 SOHIBUN 20/11/1965 GEBANGSARI RT RT02 RW04 KAB. CILACAP
7950 1100448233 TUMINGIN MUNDAKIR KASTO KASMAN 05/06/1961 WUWUR RT 007 RW 003 PANCUR KAB. REMBANG
7951 1100448235 JAMIRAH KARMAEN KASRUN 20/12/1966 SEGOROMULYO RT 002 RW 003 PAMOTAN KAB. REMBANG
7952 1100448236 SUTASRIANI WONGSO PRAWIRO 11/11/1960 KEPOHAGUNG RT 001 RW 003 PAMOTAN KAB. REMBANG
7953 1100448237 ARIF BAHTIAR ACHWAN 06/01/1977 PANDANGAN WETAN RT 010 RW 003 KRAGAN KAB. REMBANG
7954 1100448238 IKA NI'MATURROSADA 26/11/1996 SIDOHARJO RT 03/01 KAB. DEMAK
7955 1100448239 SUGIYONO 19/04/1965 TAMBAK BOYO RT.01/01 KALIREJO TALUN KAB. PEKALONGAN
7956 1100448240 UMANAH AHWAN ISKANDAR 01/01/1972 PANDANGAN WETAN RT 010 RW 003 KRAGAN KAB. REMBANG
7957 1100448241 SRIPENI 14/05/1958 GONDEL RT 04/01 KAB. BLORA
7958 1100448243 NURJANAH 15/08/1970 TAMBAK BOYO RT.01/01 KALIREJO TALUN KAB. PEKALONGAN
7959 1100448244 DRA ELOK FAIQOH 12/08/1967 PUNDENSARI RT 01/02 KAB. PURWOREJO
7960 1100448246 SITI WARDAH 19/07/1966 BATUR RT 004 RW 001 KAB. BANJARNEGARA
7961 1100448247 SHODIQ 01/01/1961 BATURSARI RT 05/01 KAB. DEMAK
7962 1100448249 KUSRIYATI 13/11/1958 CINGEBUL RT. 3/1 KAB. BANYUMAS
7963 1100448252 MUYASAROH 18/10/1969 BANTARBOLANG RT. 03 RW. 05 KAB. PEMALANG
7964 1100448253 ABDUL KHARIS 27/11/1967 BANTARBOLANG RT. 03 RW. 05 KAB. PEMALANG
7965 1100448254 SAHLATI 19/03/1970 KLUWUT NO.21 RT.04/08 BULAKAMBA KAB. BREBES
7966 1100448256 WATINI PUJI ROHMATUN 06/04/1961 BULUREJO RT.02 RW.06 KAB. KARANGANYAR
7967 1100448257 ARIEF SUSANTO 09/03/1980 MANGLI RT. 02 RW. 01 KAB. PEMALANG
7968 1100448258 MAT SOKEH 03/01/1965 KUDU RT.06/02 KOTA SEMARANG
7969 1100448259 TARMINAH 15/07/1958 MANGLI RT.02 RW.01 KAB. PEMALANG
7970 1100448260 MUKAROMAH 02/03/1969 KUDU RT.06/02 KOTA SEMARANG
7971 1100448262 KASMUTI 14/03/1958 KEBUMEN RT.01 RW.05 KAB. BATANG
7972 1100448263 CASMO 12/07/1965 MANGLI RT.07 RW.02 KAB. PEMALANG
7973 1100448264 HASANUDIN 05/05/1960 KLUWUT NO.21 RT.04/08 BULAKAMBA KAB. BREBES
7974 1100448265 NUR JAETUN 09/12/1974 MANGLI RT. 07 RW. 02 KAB. PEMALANG
7975 1100448268 SUTARNO 12/11/1959 BANDUNGSARI RT.01/02 BANJARHARJO KAB. BREBES
7976 1100448269 SITI PATIMAH 14/03/1974 BANDUNGSARI RT. 01/02 BANJARHARJO KAB. BREBES
7977 1100448271 H. CASDORI 25/07/1966 KALIBUNTU RT.04/04 LOSARI KAB. BREBES
7978 1100448272 SOFIYATUN 16/07/1969 KUDU RT.04/02 KOTA SEMARANG
7979 1100448273 MUHAMMAD MIFTAKHUL KHARIS 28/01/1997 KAYON RT. 05/01 KAB. DEMAK
7980 1100448274 ISNIAYAH 31/08/1959 TERSONO RT.01 RW.05 KAB. BATANG
7981 1100448277 NURIJAH 01/02/1964 KALIBUNTU RT.04/04 LOSARI KAB. BREBES
7982 1100448279 NURHAMIDAH 07/09/1992 PAHONJEAN RT. 01 RW. 14 KAB. CILACAP
7983 1100448280 NAPSIYAH 05/10/1968 PAHONJEAN RT. 01 RW. 14 KAB. CILACAP
7984 1100448283 SRI MUJI RAHAYU 19/03/1963 TANJUNGSARI RT.03 RW.01 KAB. BATANG
7985 1100448285 SUDONO 13/09/1960 KRANGGAN NO.2 RT.02 RW.02 KAB. BATANG
7986 1100448286 ODELINA THERESIA SURATI 06/07/1963 KRANGGAN NO.02 RT.02 RW.02 KAB. BATANG
7987 1100448289 SITI AKHSANIATUL KIROM, [Link] 04/05/1972 BANYUASINKEMBARAN RT 01/01 KAB. PURWOREJO
7988 1100448290 RUKAYAH 16/08/1970 CANDIARENG RT.03 RW.03 KAB. BATANG
7989 1100448291 SAPUROH 01/05/1979 DERMASANDI RT.09/02 PANGKAH KAB. TEGAL
7990 1100448292 RUSLAN 30/07/1960 BAPANGAN RT 07/02 KAB. BLORA
7991 1100448293 SUBARKAH 27/09/1964 BATUR RT 004 RW 001 KAB. BANJARNEGARA
7992 1100448294 NISEM 09/09/1969 PRINGAMBA RT 002 RW 001 KAB. BANJARNEGARA
7993 1100448295 SARNA 03/12/1966 [Link] 002/001 KAB. BANJARNEGARA
7994 1100448296 FADLUN APRILIA AYUWATI 01/04/1959 WONOSARI RT.05/08 KOTA SEMARANG
7995 1100448297 NIPAN 10/02/1965 PRINGAMBA RT 005 RW 001 KAB. BANJARNEGARA
7996 1100448300 AHMAD KOMARUDIN 02/05/1977 DERMASANDI RT.09/02 PANGKAH KAB. TEGAL
7997 1100448301 CHAERUL ANWAR 23/06/1984 WINONG RT. 02. 02 KAB. KEBUMEN
7998 1100448302 SAPARI 12/03/1960 TANJUNG RT.04/01 TIRTO KAB. PEKALONGAN
7999 1100448303 NOAH 14/05/1966 TANJUNG RT.04/01 TIRTO KAB. PEKALONGAN
8000 1100448305 BUNASIH 07/07/1963 BAPANGAN RT 07/02 KAB. BLORA
8001 1100448307 WINARSIH 13/04/1960 NGABLAK 02/03 KAB. GROBOGAN
8002 1100448308 WASRAH 17/07/1960 KALADAWA RT.09/02 TALANG KAB. TEGAL
8003 1100448309 ISTICHAROH 25/10/1958 BANDUNGREJO RT 01/01 KAB. DEMAK
8004 1100448310 SITI ASIYAH 20/05/1962 BANDUNGREJO RT 01/01 KAB. DEMAK
8005 1100448312 JAZULI 24/02/1970 PUCANGGADING RT.07 RW.03 KAB. BATANG
8006 1100448313 GUNARTI 31/12/1970 PUCANGGADING RT.05 RW.03 KAB. BATANG
8007 1100448316 EUIS SRI HERNINGSIH 04/10/1964 TALANG RT.11/02 KAB. TEGAL
8008 1100448318 ICHWAN 12/10/1957 WONOSARI RT.05/08 KOTA SEMARANG
8009 1100448319 MUH SHOCHEH 13/06/1966 KUDU RT.06/02 KOTA SEMARANG
8010 1100448320 DEMIATUN RUKIDJAN TASMO 02/02/1961 JURANGJERO RT 001 RW 001 SLUKE KAB. REMBANG
8011 1100448321 PARYATUN SUPARWI SUDARSI 03/10/1966 RACI 1/2 BATANGAN KAB. PATI
8012 1100448322 SITI AISYAH MUSTAMAR 02/01/1982 SINGOCANDI RT.03 RW.02 KAB. KUDUS
8013 1100448323 SUKAMTI 31/12/1959 KEDUNGSARI RT.04/RW.01 KAB. SUKOHARJO
8014 1100448324 MIFTACHUL CHOIR ALY 17/07/1976 SINGOCANDI RT 03 RW 02 KAB. KUDUS
8015 1100448325 TASIRAN WASKUR TASMO 02/04/1967 JURANGJERO RT 001 RW 001 SLUKE KAB. REMBANG
8016 1100448327 DWI SUPRIYANTO SUGIMIN 05/06/1979 BAKARAN KULON 3/5 JUWANA KAB. PATI
8017 1100448328 SRI SUHARTI 31/10/1971 NGIJO RT.04 RW.01 KAB. KARANGANYAR
8018 1100448329 MASNGUT BASIRAN MUTAIP 02/05/1973 JURANGJERO RT 001 RW 001 SLUKE KAB. REMBANG
8019 1100448330 AGUS SRIYONO, [Link] 27/08/1970 PERUM MANGGEH ANYAR A.2 NO. 5 RT. 03/13 KAB. KARANGANYAR
8020 1100448331 MUHHAMMAD ABDUL AZIS 04/09/1997 NGIJO RT. 04 RW. 01 KAB. KARANGANYAR
8021 1100448332 SITI ISTIQOMAH MIDI 12/12/1979 JURANGJERO RT 002 RW 001 SLUKE KAB. REMBANG
8022 1100448333 SUTIYEM 10/03/1967 JUNGSARI RT. 01 RW. 02 KAB. KARANGANYAR
8023 1100448334 MUSINI PASIMAN WARIDIN 07/04/1971 JURANGJERO RT 001 RW 001 SLUKE KAB. REMBANG
8024 1100448335 SRIYATUN SUJANI TUMIRAH 16/12/1982 TRIMULYO 1/3 JUWANA KAB. PATI
8025 1100448336 ROHANI DAENG SIAMPO 19/12/1960 [Link] II/H-55 RT.03/06 KOTA SEMARANG
8026 1100448337 TARMUDI RADI LASMI 28/10/1977 TRIMULYO 1/3 JUWANA KAB. PATI
8027 1100448338 T. GATOT SUSILO 21/01/1961 JUNGSARI RT. 01 RW. 02 KAB. KARANGANYAR
8028 1100448339 DJAKARIA ISMAIL 05/10/1957 JL. PATRIOT II/H-55 RT.03/06 KOTA SEMARANG
8029 1100448340 SUMARNI,SPD 21/04/1972 SEBAN LOR RT.02 RW.06 KAB. KARANGANYAR
8030 1100448341 MUHAMAD ISMAIL MUH. MUSYAFAK 31/10/1969 TANJUNGREJO RT 04 RW 04 KAB. KUDUS
8031 1100448342 MUNDHIR, MAG 07/05/1971 LEMAH MENDAK RT.01/06 KOTA SEMARANG
8032 1100448343 WARMIYATI 23/04/1963 [Link] RT.5/2 TELUK KAB. BANYUMAS
8033 1100448344 BUDI SANTOSO 12/10/1963 [Link] TENGAH I/548-D RT.02/02 KOTA SEMARANG
8034 1100448345 SUPENDI 15/07/1977 PENDE RT.01 RW. 05 KAB. BREBES
8035 1100448346 LISTIYANTI BUSIRI RIYANTO 31/05/1976 TANJUNGREJO RT 04 RW 04 KAB. KUDUS
8036 1100448347 SRI SETIYARINI, [Link] 24/09/1969 PERUM MANGGEH ANYAR A2 NO. 5 RT. 03/13 KAB. KARANGANYAR
8037 1100448348 NAHDIYATUL UMMAH 12/01/1976 LEMAH MENDAK RT.01/06 KOTA SEMARANG
8038 1100448350 ASIH ZAEMMI 13/07/1963 JL. LAMPER TENGAH I/548-D RT.02/02 KOTA SEMARANG
8039 1100448351 SUMIYATI 02/12/1957 MOJOMULYO RT 01 RW 08 KAB. SRAGEN
8040 1100448354 EKA JUNIASTUTI 01/06/1967 SOKARAJA WETAN RT. 3/1 KAB. BANYUMAS
8041 1100448355 SUROSO 21/11/1959 SOKARAJA WETAN RT. 3/1 KAB. BANYUMAS
8042 1100448357 PANTI 23/11/1959 PLOSOREJO RT.02 RW.02 KAB. KARANGANYAR
8043 1100448359 ISMAIL 21/09/1966 DANUPAYAN RT02 RW01 KAB. TEMANGGUNG
8044 1100448360 SUKANTI 12/03/1973 SEWUKAN I RT. 01/01 KAB. MAGELANG
8045 1100448361 ASROPI 17/03/1971 NGALIYAN RT.02 RW.03 KAB. BATANG
8046 1100448362 SUMARJI 07/10/1968 SEWUKAN I 01/01 KAB. MAGELANG
8047 1100448364 SRI HARTATI 16/03/1976 NGALIYAN RT.02 RW.03 KAB. BATANG
8048 1100448365 BARDIYAH 31/12/1968 DANUPAYAN RT02 RW01 KAB. TEMANGGUNG
8049 1100448367 SUGIARTO ISNAENI, S, SOS 30/01/1961 JALAN DAMAR NO.1, RT.2/09 KAB. CILACAP
8050 1100448368 SOBIYAH 05/05/1961 JL. DAMAR NO. 1 RT. 02 RW. 09 KAB. CILACAP
8051 1100448369 SUHARTI JARWADI MADISRAN 16/02/1961 KRITIG RT. 03. 01 KAB. KEBUMEN
8052 1100448370 NUSRI 16/08/1959 [Link] RT.01/02 LANGENSARI KESESI KAB. PEKALONGAN
8053 1100448371 SITI NURYATI 07/09/1979 GROMPOL RT 03 KAB. SRAGEN
8054 1100448372 KHAIRUDIN 05/06/1973 GROMPOL RT 03 KAB. SRAGEN
8055 1100448373 KUSWATI 21/08/1968 JL. SERAYU RT. 01 RW. 03 KAB. CILACAP
8056 1100448374 SUGIYARTI 30/12/1965 GONGGANGAN RT 28 KAB. SRAGEN
8057 1100448375 M. ZAINI 31/12/1960 GONGGANGAN RT 28 KAB. SRAGEN
8058 1100448376 MUHLASIN 24/03/1971 DUSUN KLUMPRIT KULON RT03 RW01 KAB. CILACAP
8059 1100448378 SUHARTI 02/01/1970 DUSUN KLUMPRIT RT03 RW01 KAB. CILACAP
NO NO. PORSI NAMA TANGGAL LAHIR ALAMAT KAB/KOTA KETERANGAN
8060 1100448379 SOLICHUN 25/03/1981 DUSUN KLUMPRIT, RT.2/001 KAB. CILACAP
8061 1100448380 SOIMAH 26/07/1974 DUSUN KLUMPRIT KULON RT03 RW01 KAB. CILACAP
8062 1100448381 SOBIRIN 03/03/1978 KLUMPRIT KULON RT 01 RW01 KAB. CILACAP
8063 1100448382 ESTRI SUTARTI 17/04/1984 KLUMPRIT KULON RT02 RW01 KAB. CILACAP
8064 1100448385 SARKIYAH 01/04/1962 WONOYOSO RT 02 RW 01 KAB. WONOSOBO
8065 1100448386 KASPIYAH 05/06/1958 KARANGROTO RT.05/02 KOTA SEMARANG
8066 1100448387 RATIH HARDJUWATI 30/06/1963 WATES TENGAH RT 03 RW 02 KOTA MAGELANG
8067 1100448388 ANIK WURYANDARI 06/02/1971 SELIRAN RT. 02/05 KAB. SUKOHARJO
8068 1100448391 SUPRIYADI 11/12/1964 WATES TENGAH RT. 03 RW. 02 KOTA MAGELANG
8069 1100448392 QOMARI 03/06/1968 SELIRAN RT.02/05 KAB. SUKOHARJO
8070 1100448393 AZIS SUBARKAH 24/01/1979 SALAM KAB. MAGELANG
8071 1100448394 ARFITA DEWI 10/06/1982 SALAM KAB. MAGELANG
8072 1100448395 SARDI 27/05/1958 GEMAH JAYA VI NO. 85 RT.08/04 KOTA SEMARANG
8073 1100448397 SRI WAHYUNINGSIH 04/11/1968 JL. JAWA NO.3 JOMBOR KOTA RT. 06/01 KAB. SUKOHARJO
8074 1100448398 RUWI YASMINI 27/08/1960 GEMAH JAYA VI NO. 85 RT.08/04 KOTA SEMARANG
8075 1100448401 MUHAMAD HISYAM 23/08/1968 JOLONTORO RT 03 RW 04 KAB. WONOSOBO
8076 1100448404 DARTO,SAG 15/09/1967 DERES RT.03 RW.07 KAB. KARANGANYAR
8077 1100448405 PAINI 08/04/1980 DERES RT. 03 RW. 07 KAB. KARANGANYAR
8078 1100448406 ZUMROTUL HASANAH 03/03/1979 JOLONTORO RT 03 RW 04 KAB. WONOSOBO
8079 1100448407 KURNIAWAN NUGROHO 15/11/1996 DUKUN PILANG KIDUL RT 05/04 KAB. GROBOGAN
8080 1100448409 KARYANTI 28/01/1961 [Link] KENCANA NO.5 01/11 KAB. GROBOGAN
8081 1100448413 ISKANDAR 01/01/1970 LENGKONG RT 009 RW 003 KAB. BANJARNEGARA
8082 1100448414 JUNAEDI 29/01/1971 CANGKRING RT.05/02 KAB. DEMAK
8083 1100448416 JUBAIDI, DRS 21/06/1964 PADANGAN RT. 02 RW. 08 KAB. KARANGANYAR
8084 1100448417 SRI NORYANAH 25/11/1977 CANGKRING RT.05/02 KAB. DEMAK
8085 1100448419 SITI MARDHIYAH 28/10/1965 PADANGAN RT.02 RW.08 KAB. KARANGANYAR
8086 1100448423 W. ERRY WIJAYANTI , [Link] 28/12/1960 KUNIREJOWETAN RT 03/01 KAB. PURWOREJO
8087 1100448424 KUSNO 12/05/1959 PABUARAN RT.04/02 SALEM KAB. BREBES
8088 1100448426 WAHYU RAFBANI 21/08/1982 PADANGAN 12/06 KAB. KLATEN
8089 1100448427 SUKARNI 15/04/1962 PADANGAN 12/06 KAB. KLATEN
8090 1100448428 TARKINI 24/04/1963 PABUARAN RT.04/02 SALEM KAB. BREBES
8091 1100448429 YENI SUSANTI 31/01/1973 JL SULTAN AGUNG NO.79 RT.01/06 BREBES KAB. BREBES
8092 1100448430 SITI KHOTIJAH, [Link] 15/12/1963 KEBAK RT. 04 RW. 03 KAB. KARANGANYAR
8093 1100448433 SUPARSIYAH 14/07/1970 LEKSANA .RT. 001/003 KAB. BANJARNEGARA
8094 1100448435 SUKARTI 01/07/1959 [Link]. 001/002 KAB. BANJARNEGARA
8095 1100448438 SITI SUNARTI 06/06/1965 GONDANG RT.04 RW.04 KAB. KENDAL
8096 1100448440 MUDZAKIR 08/06/1963 GONDANG RT.04 RW.04 KAB. KENDAL
8097 1100448441 LEJAR 04/11/1961 BALERAKSA RT 04 RW 04 KAB. PURBALINGGA
8098 1100448443 SITI SALBIYAH 14/03/1961 CANGKRING RT.10/02 KAB. DEMAK
8099 1100448446 SUYITNO SUMARDI MADPEKIH 09/04/1960 ADIKARSO RT. 02. 05 KAB. KEBUMEN
8100 1100448447 KUSTIPAH 08/10/1977 KAUMAN RT 03 RW 06 KAB. WONOSOBO
8101 1100448449 CHALIFAH, SPD 07/03/1963 SANGEN RT.04 RW.02 KAB. KARANGANYAR
8102 1100448450 NASIRUDIN ARIEF 26/07/1970 KRADENAN GG.7 NO.16 RT.02 RW.05 KOTA PEKALONGAN
8103 1100448454 SUHARTI 10/03/1962 REMPOAH RT. 2/2 KAB. BANYUMAS
8104 1100448455 SUHARTI 22/09/1957 PRAMPELAN RT 11 KAB. SRAGEN
8105 1100448459 NGAZIZAH 15/06/1965 RANDEGAN RT. 1/2 KAB. BANYUMAS
8106 1100448460 SAMIRAN 22/09/1962 DUMPUL RT. 01 RW. 05 KAB. KARANGANYAR
8107 1100448461 SUHARDI 18/12/1958 RINGINANOM RT 04/17 KAB. SRAGEN
8108 1100448462 NASIKIN MADUN MASRAM 12/07/1965 KRAMAT RT09 RW 04 KAB. KUDUS
8109 1100448464 HOTMAIDA 02/03/1962 RINGINANOM RT 04/17 KAB. SRAGEN
8110 1100448465 NADHIFATUN 05/12/1968 JURANG 1 RT02 RW01 KAB. TEMANGGUNG
8111 1100448466 SUTARWI SUPAR JUMINAH 29/11/1967 TEGALHARJO 1/5 TRANGKIL KAB. PATI
8112 1100448468 SUBKHAN 12/08/1966 JURANG I, RT.02 RW.01 KAB. TEMANGGUNG
8113 1100448469 SITI SUTJI LESTARI 03/05/1969 KRAMAT RT 09 RW 04 KAB. KUDUS
8114 1100448470 RODJIKIN 12/01/1958 SERANG RT 002 RW 002 KAB. BANJARNEGARA
8115 1100448472 JOKO SURYONO 12/08/1974 JLN. SUKARNO HATTA NO.26 RT.01/003 KAB. CILACAP
8116 1100448474 INAUL MURTHAFIAH 24/04/1982 GEMOLONG RT 03/03 KAB. SRAGEN
8117 1100448475 SUPARMAN 20/01/1960 KARANGASEM 01/03 KAB. GROBOGAN
8118 1100448478 ANDHI TRISNAWATI 25/08/1982 BANARAN RT.05 RW.01 KAB. KARANGANYAR
8119 1100448479 PANTO SRI WAHYUDI 03/06/1972 NGESENG RT 03/03 KAB. SRAGEN
8120 1100448480 KASRI SAMAT SUPI 11/03/1959 SUNDOLUHUR 19/03 KAYEN KAB. PATI
8121 1100448481 MUJIARTO 29/04/1981 JLN. SUKARNO HATTA NO.26 RT.01/003 KAB. CILACAP
8122 1100448482 JUWONO 13/05/1963 BANTARBARANG RT 01 RW 04 KAB. PURBALINGGA
8123 1100448484 SUYATMI 05/11/1962 KARANGASEM 01/03 KAB. GROBOGAN
8124 1100448485 SITI ISTIYAH MASKRIM 03/02/1970 BENDAR 1/5 JUWANA KAB. PATI
8125 1100448486 SRI RUKATI SUKIMAN 12/03/1969 TEGALHARJO 1/5 TRANGKIL KAB. PATI
8126 1100448487 SUMIATI SUBHAN PAINI 28/10/1978 KUDUKERAS 1/2 JUWANA KAB. PATI
8127 1100448488 SRI AGUSTIN 12/08/1957 BOJONG RT 03 RW 04 KAB. PURBALINGGA
8128 1100448489 ACHMAD ZUHRI 14/07/1964 DESA KEBONHARJO RT.04/RW.02 KAB. KENDAL
8129 1100448490 AGUS JUNAEDI SANIMAN 14/08/1974 KUDUKERAS 1/2 JUWANA KAB. PATI
8130 1100448491 PUJIASTUTI 22/01/1976 LAWEN RT 002/002 KAB. BANJARNEGARA
8131 1100448492 WILOPO 08/07/1960 LAWEN RT 002/002 KAB. BANJARNEGARA
8132 1100448494 SITI MUALIFAH 27/09/1968 DESA KEBONHARJO RT.04/RW.02 KAB. KENDAL
8133 1100448495 SIH WINULYANI KAWIJAN 15/06/1974 BAJOMULYO 4/1 JUWANA KAB. PATI
8134 1100448496 WATONO RAKIM WAGIYAH 06/04/1965 BAOJOMULYO 4/1 JUWANA KAB. PATI
8135 1100448498 TEGUH IMANTO 05/11/1983 BANARAN RT.05 RW.01 KAB. KARANGANYAR
8136 1100448500 ESTI YUNARIYAH , SE 11/04/1966 LINGK. SIKUNIR RT.06/07 BERGAS LOR KAB. SEMARANG
8137 1100448503 NUR [Link] 05/04/1978 KEBONDALEM GEBANGANOM RT.02 RW.05 KAB. BATANG
8138 1100448509 NUNING [Link] 13/05/1982 KEBONDALEM GEBANGANOM RT.02 RW.05 KAB. BATANG
8139 1100448511 WAGIMIN TONGADI JASMI 16/08/1957 SLUNGKEP 2/1 KAYEN KAB. PATI
8140 1100448512 MUSTAJIB 28/12/1957 TEGALREJO RT. 01 RW. 04 KAB. KARANGANYAR
8141 1100448514 SRI ASTUTI 12/01/1969 TREMBULREJO RT 01 RW 01 KAB. BLORA
8142 1100448515 MARYATI KASBIN POLANGI 01/07/1965 SLUNGKEP 2/1 KAYEN KAB. PATI
8143 1100448516 NADLIROH FAUZI QODIRONO 07/07/1957 SURODADI RT.014/004 KAB. JEPARA
8144 1100448517 SUYATNI 08/02/1964 TEGALREJO RT. 01 RW. 04 KAB. KARANGANYAR
8145 1100448520 SAMI'ATUN 31/12/1963 DK TAMPINGAN RT 05 RW 01 KAB. KUDUS
8146 1100448521 SUPIYATI PUJI ASTUTI 07/10/1972 JL. PEMBANGUNAN 3 NO96 PRUM UNS RT 02/05 KAB. KARANGANYAR
8147 1100448522 MUKLIS, [Link].I 04/04/1968 TREMBULREJO RT 01 RW 01 KAB. BLORA
8148 1100448523 SLAMET 18/06/1962 KARANGWATU RT.03 RW.02 KAB. MAGELANG
8149 1100448525 JUWAHIR 18/08/1970 KAMOLAN RT 01 RW 10 KAB. BLORA
8150 1100448526 AHMAD SULISTIYONO SUTRIMO 29/10/1970 TULAKAN 02/02 KEC. DONOROJO KAB. JEPARA
8151 1100448527 SITI AISAH 30/09/1979 KAMOLAN RT 01 RW 10 KAB. BLORA
8152 1100448528 NURUL IMAMAH AHMAD 01/06/1971 TULAKAN 02/02 KEC. DONOROJO KAB. JEPARA
8153 1100448529 SRIYANI 28/05/1960 JAJAR RT.06 RW.04 KOTA SURAKARTA
8154 1100448532 NUR SYAHID JAMARI SARMANI 20/05/1969 TAHUNAN RT.002/008 KAB. JEPARA
8155 1100448533 SITI CHOZINAH 03/06/1972 KERANGKULON RT 04/04 KAB. DEMAK
8156 1100448534 ISTIKOMAH MUCHSIN NURROHMAN 07/01/1973 TAHUNAN RT.002/008 KAB. JEPARA
8157 1100448535 SITI MAEMUNAH 05/06/1958 TAMANASRI RT 31/14 KAB. SRAGEN
8158 1100448536 SULAEMAN 05/03/1963 KERANGKULON RT 04/04 KAB. DEMAK
8159 1100448537 KOMARI, SPDI 01/08/1960 SALAM II RT.03 RW.02 KAB. MAGELANG
8160 1100448541 SUMARYATI 06/03/1960 SALAM II RT.03 RW.02 KAB. MAGELANG
8161 1100448542 SITI ZULAIKAH 12/06/1983 KEMOLAN RT 002 / RW 010 KAB. BLORA
8162 1100448545 MAHMOED 01/07/1959 KAMOLAN RT 02/10 KAB. BLORA
8163 1100448548 BRAWASTU PUSPITA ADI 31/07/1992 JL. KOBER GG. RISWAN 25 RT 1 RW 6 PURWOKERTO
KAB. BANYU
BANYUMAS
8164 1100448550 SUSWATI DWI PUJIASTUTI 16/03/1966 JL. KOBER GG. RISWAN 25 RT.01 RW.06 KAB. BANYUMAS
8165 1100448553 CASDIYAN 20/12/1966 [Link]. YOS SUDARSO RT.10/03 BEBEL KAB. PEKALONGAN
8166 1100448554 MAWARDI 19/06/1958 BANJARAN RT03 RW.08 KAB. SEMARANG
8167 1100448555 SUBAGYO 04/11/1966 KAUMAN RT.02/RW.07 KAB. SUKOHARJO
8168 1100448556 KIPTIYAH 04/02/1965 MIJEN RT.02/03 KAB. DEMAK
8169 1100448557 KARMAIN 16/06/1962 MIJEN RT.02/03 KAB. DEMAK
8170 1100448558 MURDININGSIH 18/01/1970 KARANGWATU 02/01 KAB. MAGELANG
8171 1100448559 ENI SOBIKAH 31/12/1962 BANJARAN RT.03 RW.07 KAB. SEMARANG
8172 1100448560 MULYATI 07/01/1961 MIJEN RT.02/03 KAB. DEMAK
8173 1100448562 KUNATI DJUMERI RUHMIN 11/09/1962 KALIPUTU RT.08 RW.01 KAB. KUDUS
8174 1100448563 TURIPAH 02/05/1972 JL. YOS SUDARSO RT.10/03 BEBEL KAB. PEKALONGAN
8175 1100448565 ASEP SUTRIYAWAN ROCHANA 24/04/1976 PASURUHAN LOR RT 03 RW 01 KAB. KUDUS
8176 1100448566 TRI YULI RAHMAWATI 15/07/1974 KAUMAN RT.02/RW.07 KAB. SUKOHARJO
8177 1100448567 AGUS MULYADI SUGIMAN 13/03/1980 PASURUHAN LOR RT.03 RW.01 KAB. KUDUS
8178 1100448569 SRI SULARDI 30/06/1972 PANDAN KIDUL RT 01 RW XIII KAB. KARANGANYAR
8179 1100448570 SUBANDI 03/03/1958 MIJEN RT.01/02 KAB. DEMAK
8180 1100448572 LAILIYA 01/08/1963 MIJEN RT.01/02 KAB. DEMAK
8181 1100448573 ELIN BADRUN KANDI 24/01/1980 PASURUHAN LOR RT 03 RW 01 KAB. KUDUS
8182 1100448574 SRI WAHYUNI,SE 04/03/1973 PANDAN KIDUL RT.O1 RW.13 KAB. KARANGANYAR
8183 1100448575 INDAH SRI KUNTARWATI 08/07/1961 JL. NAKULA I NO. 06 RT.07/09 LEREP KAB. SEMARANG
8184 1100448579 NUNUK SRI REJEKI 30/05/1969 DALANGAN RT 24 KAB. SRAGEN
8185 1100448580 NAKIM 10/09/1967 KALIBENING RT 002 RW 005 KAB. BANJARNEGARA
8186 1100448581 SYARIEF TAUFIK HIDAYATULLAH 02/06/1998 DALANGAN RT.024/007 KLIWONAN MASARAN KAB. SRAGEN
8187 1100448582 SUGIONO MUDJIMAN MANGUNDIMEJO 24/12/1960 KRAMAT RT 04 RW 01 KAB. KUDUS
NO NO. PORSI NAMA TANGGAL LAHIR ALAMAT KAB/KOTA KETERANGAN
8188 1100448583 TUNIAH 01/07/1965 KALIBENING RT 002 RW 005 KAB. BANJARNEGARA
8189 1100448584 HENI HARTANTI SARI HARIYANTO 02/10/1964 KRAMAT RT 04 RW 01 KAB. KUDUS
8190 1100448585 RAKIS 15/06/1971 KALIBENING RT 001 RW 005 KAB. BANJARNEGARA
8191 1100448587 SURIYAH 04/09/1975 KALIBENING RT 001 RW 005 KAB. BANJARNEGARA
8192 1100448588 NINA AGUSTARIA SARI 05/08/1986 JEPANGPAKIS RT 004 / RW 003 KAB. KUDUS
8193 1100448589 SITI RAHAYU 15/01/1974 GETASREJO 03/02 KAB. GROBOGAN
8194 1100448591 SRI ISLAMI BUDI HANDAYANI 12/04/1964 [Link] 02/02 KAB. GROBOGAN
8195 1100448594 TARNO 07/09/1957 KALONGAN 02/02 KAB. GROBOGAN
8196 1100448595 USWATUN KHASANAH 19/08/1986 BALUN RT 020 RW 004 KAB. BANJARNEGARA
8197 1100448596 ALIMAH 08/05/1970 BALUN RT 020 RW 004 KAB. BANJARNEGARA
8198 1100448597 SUHADA 25/11/1966 PRIGI RT 001 RW 003 KAB. BANJARNEGARA
8199 1100448598 SRI UMAMI 21/07/1972 PRIGI RT 001 RW 003 KAB. BANJARNEGARA
8200 1100448599 SRI HANDAYANI NOTO KISWONO 12/09/1958 WERGU KULON RT 06 RW 02 KAB. KUDUS
8201 1100448602 MASRUKHAN ISEH MARTO SARMIN 15/09/1957 KEDUNGSARI RT 04 RW 07 KAB. KUDUS
8202 1100448603 RUMIYATI SUPARLAN SUTOWIJOYO 12/03/1963 KEDUNGSARI RT 04 RW 07 KAB. KUDUS
8203 1100448604 ENDAH YUNIARTI 08/06/1975 DAWUHAN RT 002 RW 001 KAB. BANJARNEGARA
8204 1100448605 ABDUL ROZZAQ ZAIN ALBA 16/01/1972 GONDANGMANIS RT 10 RW 06 KAB. KUDUS
8205 1100448606 BUDI PURWANTO 13/12/1965 WANAKARSA RT 007 RW 001 KAB. BANJARNEGARA
8206 1100448607 INDIAH WIDIASTUTI 31/12/1970 WANAKARSA RT 007 RW 001 KAB. BANJARNEGARA
8207 1100448608 ANNE MARIA RACMAWATI 17/04/1972 GONDANGMANIS R.10 RW.06 KAB. KUDUS
8208 1100448609 SURIKIN NUR DASIR 18/04/1967 TANJUNGREJO RT.03 RW.06 KAB. KUDUS
8209 1100448610 TITIK MUFIDAH ACHMAD ROSJID 16/12/1970 TANJUNGREJO RT 03 RW 06 KAB. KUDUS
8210 1100448611 ARI YUANITA DWI ASTUTI 16/01/1984 GUNUNGSARI RT.09 RW.03 KAB. MAGELANG
8211 1100448613 MASIRUDDIN CHASANI SITI ZAENAB 19/06/1958 MARGOMULYO 1/3 TAYU KAB. PATI
8212 1100448614 DEWI SULISTIYAWATI 22/12/1980 KRADENAN GG.7 NO.16 RT.02 RW.05 KOTA PEKALONGAN
8213 1100448615 WASWINAH 18/03/1965 SINDANGHEULA RT.13/05 BANJARHARJO KAB. BREBES
8214 1100448616 SUWARNO, [Link] 16/08/1959 SINDANGHEULA RT.13/05 BANJARHARJO KAB. BREBES
8215 1100448617 ROCHMAT 20/04/1961 WONOKERSO PANJER RT.03 RW.05 KAB. BATANG
8216 1100448619 TUMINEM 24/06/1962 WONOKERSO PANJER RT.03 RW.05 KAB. BATANG
8217 1100448620 ALI MAKSUM 01/11/1969 BANDUNG JURANG NO.02 RT.02 RW.02 KAB. BATANG
8218 1100448621 SUWARTI 12/11/1963 DUMPUL RT. 01 RW. 05 KAB. KARANGANYAR
8219 1100448622 MISRIYAH 20/03/1972 BANDUNG JURANG RT.02 RW.02 KAB. BATANG
8220 1100448623 ANI DAETUN HARTI 10/07/1992 PESANTUNAN RT.001 RW.001 KAB. BREBES
8221 1100448625 IBNU UMAR 30/10/1976 JL. DR. SETIA BUDHI RT.07/01 BREBES KAB. BREBES
8222 1100448626 CARLAN 06/06/1963 LUWUNGGEDE RT. 03/01 LARANGAN KAB. BREBES
8223 1100448627 SITI SAPUROH 14/10/1965 BANJARANYAR RT.05/02 BREBES KAB. BREBES
8224 1100448635 SUPRAPTI 09/10/1960 KLURAHAN RT. 01/13 KAB. SUKOHARJO
8225 1100448636 DYAH SAPTARINI 29/01/1963 JL. LAWU 19 RT.01/RW.08 KAB. SUKOHARJO
8226 1100448638 SOEHARTOYO 17/06/1963 JATI 03/03 KAB. GROBOGAN
8227 1100448640 DWI KARTI 23/11/1966 JATI 03/03 KAB. GROBOGAN
8228 1100448641 ZUDAH 09/11/1965 RANDUSARI RT.03/RW.01 KAB. KENDAL
8229 1100448642 NIDIANINGRUM TRIANINGTYAS ANGGRAENI 29/05/1995 JATI 03/03 KAB. GROBOGAN
8230 1100448646 KORIATUN 12/03/1978 JL. DR. SETIA BUDHI RT.07/01 BREBES KAB. BREBES
8231 1100448647 RUSTATI 26/02/1985 SITANGGAL RT.13/02 LARANGAN KAB. BREBES
8232 1100448648 ADHY RISMANTO 17/08/1981 SITANGGAL RT.13/02 LARANGAN KAB. BREBES
8233 1100448650 MUNAWAROH 23/08/1968 RANDUSARI RT.03/RW.01 KAB. KENDAL
8234 1100448651 SUJIANI 19/06/1963 SAMBONG [Link] NO.54 RT.04 RW.05 KAB. BATANG
8235 1100448652 ERNI FATMAH SARI 27/11/1984 RENGASPENDAWA RT.01/02 LARANGAN KAB. BREBES
8236 1100448654 DAMIR 14/06/1983 RENGASPENDAWA RT.01/02 LARANGAN KAB. BREBES
8237 1100448656 MUSDALIFAH 08/02/1974 JL. KENANGA RT. 04/05 N0. 49 D BREBES KAB. BREBES
8238 1100448657 HERI MASRUH 16/08/1973 JL. KENANGA RT.04/05 NO. 49 D BREBES KAB. BREBES
8239 1100448660 NURUL AYNI RACHMAWATI 06/06/1977 PAMOTAN RT 003 RW 005 PAMOTAN KAB. REMBANG
8240 1100448665 SRI SUENDAH 26/07/1959 JL. PATIMURA RT.01/03 DUKUHSALAM KAB. TEGAL
8241 1100448667 SRI KUSDWIYANTI 05/11/1970 GRIYA MULIA [Link]/11 RT.03/18 KOTA SEMARANG
8242 1100448668 SANDUNG BUDI SANTOSO 07/03/1976 POKOH BARU RT. 09 RW. 06 KAB. KARANGANYAR
8243 1100448669 ENIYATI PURWANINGSIH 29/10/1975 JL MANGGA 4 NO.9 PERUM WONOREJO RT. 2/20 KAB. KARANGANYAR
8244 1100448670 NENENG MULYANI 11/03/1976 POKOH BARU RT 09 RW 06 KAB. KARANGANYAR
8245 1100448671 ABDUL WAHID MAKSUM 18/09/1976 [Link] 4 NO.9 PERUM WONOREJO KAB. KARANGANYAR
8246 1100448672 SRI SURANTI 12/11/1963 MANDUNGAN RT. 02/10 KAB. SUKOHARJO
8247 1100448673 SUNARTO 09/03/1964 GRIYA NULIA [Link]/11 RT.03/18 KOTA SEMARANG
8248 1100448674 SUGENG 14/03/1959 MANDUNGAN RT. 02/10 KAB. SUKOHARJO
8249 1100448675 RINA RAKHMAWATI 30/09/1976 LOSARI RT 04 RW 01 KAB. PURBALINGGA
8250 1100448676 WIWIK MULYANTO 17/05/1980 BANJARSARI RT.01/04 KAB. DEMAK
8251 1100448678 CAHYO RUDIYANTO 04/09/1970 LOSARI RT 04 RW 01 KAB. PURBALINGGA
8252 1100448679 SOLEKHAH 26/09/1981 BANJARSARI RT.01/04 KAB. DEMAK
8253 1100448680 MASKURI 18/03/1966 PAKINTELAN RT.04/01 KOTA SEMARANG
8254 1100448681 TUKIMAN MULYONO 14/12/1958 RANDUKUNING RT 01 RW 01 KAB. BOYOLALI
8255 1100448682 DWI HARTONO 28/11/1980 PERBOTO RT 01 RW 01 KAB. WONOSOBO
8256 1100448683 WAHYUMI 10/09/1962 TLILIR, RT.04/RW.01 KAB. TEMANGGUNG
8257 1100448684 MUHAMMAD SLAMET RIYADI 03/08/1972 KADIREJO RT 012 RW 02 KAB. BOYOLALI
8258 1100448685 TAMIROH 15/10/1970 PAKINTELAN RT.04/01 KOTA SEMARANG
8259 1100448689 AGUNG SISWANTO 19/06/1982 SIDOREJO 01/17 KAB. KLATEN
8260 1100448690 ALIYAH 02/04/1963 DUKUH SILUMBUNG RT 004/ RW 001 DORO KAB. PEKALONGAN
8261 1100448692 BAROKAH 05/08/1969 SIMBANG RT.03/03 WINDUAJI PANINGGARAN KAB. PEKALONGAN
8262 1100448695 SUPARNO 28/08/1958 DSN. JOMBOR RT.02/07 JETIS KAB. SEMARANG
8263 1100448696 SUPRIYATI 28/02/1958 SUMBERRAHAYU RT.04 RW.01 KAB. KENDAL
8264 1100448697 DEVI TRI HANDAYANI 16/02/1984 DESA BANJAREJO RT.05/RW.01 KAB. KENDAL
8265 1100448699 ANANG EKO WAHYUDI 23/08/1975 DESA BANJAREJO RT.05/RW.01 KAB. KENDAL
8266 1100448701 MU'MINAH 29/12/1959 GUNUNG LURAH RT 001 RW 005 KAB. BANYUMAS
8267 1100448702 BAMBANG SISWANTO 03/04/1959 SOKANANDI RT 003 RW 004 KAB. BANJARNEGARA
8268 1100448704 BARIKHA 23/08/1987 [Link] SIMBANG WETAN RT.30/10 BUARAN KAB. PEKALONGAN
8269 1100448705 RUANAH 18/01/1962 KEBUMEN RT.02 RW.04 KAB. BATANG
8270 1100448712 SUHADA AL MUJAHIDIN 22/02/1966 JL. TIMAH NO.16 RT01 RW01 KAB. CILACAP
8271 1100448713 ENI HARYATUN 02/08/1972 JLN. TIMAH NO.16 RT.01/01 KAB. CILACAP
8272 1100448715 DJUMADI 08/09/1957 KETAON SELATAN RT 17 RW 03 KAB. BOYOLALI
8273 1100448717 HENI WINARSIH 01/05/1961 KETAON SELATAN RT 17 RW 03 KAB. BOYOLALI
8274 1100448718 SITI CHUTSIYAH 06/06/1967 JETIS RT 08 KAB. SRAGEN
8275 1100448721 ABDUL FADLIL 10/07/1967 POJOKREJO RT 33 KAB. SRAGEN
8276 1100448724 SRI SUPARTI 23/09/1967 POJOKREJO RT 33 KAB. SRAGEN
8277 1100448730 SITI ASIAH 08/07/1969 TRAYON RT 01 RW 02 KAB. BOYOLALI
8278 1100448731 ARTATI SULAMAH 08/04/1965 BATUTENGAH RT 01 RW 14 KAB. WONOGIRI
8279 1100448733 YATIN ABDUL HADI 12/07/1964 JL. HOS COKOAMINOTO GG.16/4 B RT. 1/3 KOTA PEKALONGAN
8280 1100448735 HARYANTO 13/08/1977 BATURETNO RT.01 RW.14 KAB. WONOGIRI
8281 1100448736 CHOLIFAH 07/07/1970 JL. HOS COKROAMINOTO GG. 16/ 4 B RT. 1/3 KOTA PEKALONGAN
8282 1100448737 SRI PARWATI 08/04/1965 SUDIMORO RT.03 RW.07 KAB. WONOGIRI
8283 1100448738 AINIS WATI 30/11/1971 BANYURIP AGENG RT 2 RW. 5 KOTA PEKALONGAN
8284 1100448739 ARIS SUBEKTI 14/02/1983 CLUSTER GRAND PAMULANG RESIDENCE BLOK D KAB.
NO WONOGIRI
RT 08
8285 1100448740 MASBAROTO SANTONUGROHO, ST, MSI 21/01/1978 SUMBER RT 04 RW 09 KOTA SURAKARTA
8286 1100448741 AHMAD ROFI'I 28/09/1964 CURUG RT.03/01 PANGKAH KAB. TEGAL
8287 1100448742 SUMANAH 19/11/1979 MANGGUNGSARI RT.03/RW.03 KAB. KENDAL
8288 1100448743 SURIYATI 02/10/1972 CURUG RT.03/01 PANGKAH KAB. TEGAL
8289 1100448744 ISTILAMAH LAILI 17/05/1978 SUMBER RT 04 RW 09 KOTA SURAKARTA
8290 1100448745 RONITI 01/07/1965 GUMALAR RT.20/02 ADIWERNA KAB. TEGAL
8291 1100448746 SODIKIN 18/11/1978 MANGGUNGSARI RT.03/RW.03 KAB. KENDAL
8292 1100448748 IMAM TEJO MARWOTO 09/03/1966 SOKANANDI RT.05 RW.04 KAB. BANJARNEGARA
8293 1100448750 MULYATI 15/10/1965 SOKANANDI. RT. 005/004 KAB. BANJARNEGARA
8294 1100448757 [Link] BW 12/04/1978 SAMONG RT.04 RW.04 KAB. PEMALANG
8295 1100448759 MUAWANAH 01/11/1969 SAMONG RT.04 RW.04 KAB. PEMALANG
8296 1100448760 MUJI DWI RINAWATI 30/05/1983 GUNDI RT.001 RW.001 KAB. GROBOGAN
8297 1100448761 MULYONO 04/12/1957 [Link] PENDOWO 02/07 KAB. GROBOGAN
8298 1100448762 MOHTAR ARIFIN SUWARNO 28/05/1967 JL NAKULA SADEWA V/D NO.04 RT 05 RW 03 KOTA SALATIGA
8299 1100448763 LAILATUL KHURRIYAH SOLICHUN 24/12/1970 JL. NAKULA SADEWA V/D NO.04 RT 05 RW 03 KOTA SALATIGA
8300 1100448764 SUMARSI 31/12/1959 SARI RT 06 KAB. SRAGEN
8301 1100448767 MURSINI 06/07/1960 GESANGAN RT.02 RW.06 KAB. KARANGANYAR
8302 1100448773 ROKHAYATI 19/11/1961 GUNUNGLURAH RT. 3/10 KAB. BANYUMAS
8303 1100448776 SUYATNI 21/11/1968 KARANGPANCING 03/01 KAB. GROBOGAN
8304 1100448778 SUROTO 25/09/1965 KARANGPANCING 03/01 KAB. GROBOGAN
8305 1100448782 MUSTIANAH ABDUL MUKHID 28/08/1969 BUGEL 016/004 KAB. JEPARA
8306 1100448785 ENDANG SURAME 14/09/1958 KP. AMPELSARI RT.06/23 KOTA SEMARANG
8307 1100448786 MAKMUN 01/11/1967 JL. BAYU PRASETYA BRT A/9 NO.24 RT.07/03 KOTA SEMARANG
8308 1100448787 ENI SETIAWATI 22/04/1973 BAYU PRASETYA BARAT A/9 NO. 24 RT 7/ 3 KOTA SEMARANG
8309 1100448788 MATMURI 07/04/1959 PALEBON RT.07/03 KOTA SEMARANG
8310 1100448789 SUNDARI 09/06/1966 TEMPURAN RT.04/04 KAB. DEMAK
8311 1100448790 PUTRI KHOIRON NISA' 08/01/1993 TASIKHARJO RT 001 RW 001 KALIORI KAB. REMBANG
8312 1100448791 MUTMAINAH 06/06/1964 PALEBON RT.07/03 KOTA SEMARANG
8313 1100448792 SUKARI 10/05/1963 TEMPURAN RT.04/04 KAB. DEMAK
8314 1100448793 NORYDA WURYANTO 22/10/1972 KEMANTREN 09/03 KAB. GROBOGAN
8315 1100448794 LINDA KRISTIANA 15/10/1986 JL. RAYUNGKUSUMAN RAYA RT.07/05 KAB. DEMAK
NO NO. PORSI NAMA TANGGAL LAHIR ALAMAT KAB/KOTA KETERANGAN
8316 1100448795 BADRIYATUS SYA'ADAH 20/03/1978 KEMANTREN 09/03 KAB. GROBOGAN
8317 1100448796 SUTIYONO 30/06/1977 JL. RAYUNGKUSUMAN RAYA RT.07/05 KAB. DEMAK
8318 1100448797 SITI MUTI'AH MAHMUDI 23/07/1971 SAMBIYAN RT 004 RW 001 KALIORI KAB. REMBANG
8319 1100448798 SARKONI MUNDAKIR KASTO KASMAN 20/03/1962 SAMBIYAN RT 004 RW 001 KALIORI KAB. REMBANG
8320 1100448800 SUKARTI KARIMAN RASIMAN 13/12/1964 MANTINGAN RT 001 RW 004 BULU KAB. REMBANG
8321 1100448802 TRI PURWATININGSIH SUPARJO 10/06/1968 NGAGLIK RT 03 RW 11 KOTA SALATIGA
8322 1100448803 SITI MASRIAH 20/06/1989 BUMIHARJO RT.05/02 KAB. DEMAK
8323 1100448805 SRI PURWANI DJAYUS 18/01/1963 KADOWONO RT 003 RW 001 BULU KAB. REMBANG
8324 1100448806 KHAERONI 14/05/1965 WOLODONO RT05 RW01 KAB. TEMANGGUNG
8325 1100448807 WIDJI PAWIRO KAJIYO 15/01/1962 KADOWONO RT 003 RW 001 BULU KAB. REMBANG
8326 1100448809 SYAFIIL KHAKIM 30/11/1981 BUMIHARJO RT.01/02 KAB. DEMAK
8327 1100448810 KHOLIFAH WIDI UTAMI 09/04/1982 KARANGMANGU RT 003 RW 001 SARANG KAB. REMBANG
8328 1100448811 SUJARWO WIRO TENOYO 13/11/1958 NGAGLIK RT 03 RW 11 KOTA SALATIGA
8329 1100448813 SUWARSIH PARDAM SANDAR 20/04/1970 SULANG RT 003 RW 006 SULANG KAB. REMBANG
8330 1100448814 ARI SETYOWATI 14/09/1969 WOLODONO RT05 RW01 KAB. TEMANGGUNG
8331 1100448815 ABDUL CHANAN ABDUL RACHMAT PARTO 14/06/1960 SULANG RT 003 RW 006 SULANG KAB. REMBANG
8332 1100448816 SRI WILUJENG SOEDJAJIN 08/10/1965 KUTOHARJO RT 003 RW 001 REMBANG KAB. REMBANG
8333 1100448817 AMAT YUSUF AL KENJUR 03/03/1966 KEBUMEN RT.02 RW.03 KAB. BATANG
8334 1100448821 DRS. SUMGHODIN 10/10/1960 PUNDUHSARI 02/02 KAB. MAGELANG
8335 1100448822 MUKHLIS ARIS 04/12/1966 PESANGGRAHAN NO.33 RT.03/01 PAGUYANGAN KAB. BREBES
8336 1100448823 SULASTRI 28/01/1979 BATURSARI RT 003 / RW 002 KAB. PATI
8337 1100448824 NUR ANISAH 22/04/1967 PUNDUHSARI 02/02 KAB. MAGELANG
8338 1100448826 AFIFATUL IKHTIYATI 03/06/1976 PESANGGRAHAN N0.33 RT.03/01 PAGUAYANGANKAB. BREBES
8339 1100448827 SITI NURLAELI 12/09/1976 GAMBARSARI RT 06 RW 03 KAB. PURBALINGGA
8340 1100448828 LISTYANI SUWADI RAMELAN 29/01/1963 HAIPOLO RT.09 RW.01 KAB. KUDUS
8341 1100448831 SITI SULASMI 08/04/1960 KLEBEN 03/02 KAB. MAGELANG
8342 1100448832 SULAEMAN SANUSI SHOLIKHIN 29/03/1963 HADIPOLO RT 09 RW 01 KAB. KUDUS
8343 1100448834 NUR KHOLIS AHMAD WAGE 31/12/1963 BEGEL 016/004 KAB. JEPARA
8344 1100448836 SUMARTI 02/09/1962 NGLEDOK RT. 02 RW. 08 KAB. KARANGANYAR
8345 1100448841 MUNAWAROH 24/06/1969 KEBUMEN RT.02 RW.03 KAB. BATANG
8346 1100448842 SITI MUZAYANAH DURHAM 04/05/1960 SIDIGEDE 06/02 KAB. JEPARA
8347 1100448844 AHMAD MUHAJIR, [Link] 15/07/1967 ADIWERNA RT.14/07 KAB. TEGAL
8348 1100448845 AHMAD SUWADI SUBARI 10/07/1963 SAWAHAN RT 02 RW 04 KOTA SALATIGA
8349 1100448846 SUPRIYATI SUKARMAN KARTODINOMO 01/11/1960 SAWAHAN RT 02 RW 04 KOTA SALATIGA
8350 1100448848 YUNI SUWARTO 03/06/1968 JL. KOM NOTO SUMARSONO 27 RT 03 RW 01 KAB. PURBALINGGA
8351 1100448849 TANTI WAHYUNINGSIH 12/12/1968 ADIWERNA RT.14/07 KAB. TEGAL
8352 1100448851 RIDHLO ANNAFI WIRANTO 08/04/1996 JL. SADEWA 3 D/24 RT 01 RW 04 PADAMARA PURBALINGGA
KAB. PURBALINGGA
8353 1100448852 NIKEN MALASIYANTI 14/10/1963 JL. SADEWA 3 D/24 RT 01 RW 04 KAB. PURBALINGGA
8354 1100448853 TRI WINARSIH, DRA., [Link] 19/07/1967 BANJAREJO RT. 03 RW. 01 KAB. KARANGANYAR
8355 1100448855 MUSTAKIM, DRS 30/03/1960 BANJAREJO RT. 03 RW. 01 KAB. KARANGANYAR
8356 1100448856 WINARYANTO YOKO SUHARYO 10/10/1960 SALAM II RT. 04/02 KAB. MAGELANG
8357 1100448857 DANI ALFAH 30/05/1995 SEMPOR LOR RT 02 RW 02 KAB. PURBALINGGA
8358 1100448860 TUNINGSIH SADIMAN SUJARMI 13/08/1960 PATI KIDUL 4/5 PATI KAB. PATI
8359 1100448862 YUSNOFRIANI [Link] 11/11/1962 JL. FLAMBOYAN NO.11 RT.01/05 BREBES KAB. BREBES
8360 1100448863 NUR FITRI WIDIYANTI 18/08/1977 BRECEK RT 02 RW 02 KAB. PURBALINGGA
8361 1100448866 SRI RAHAYU 02/05/1978 TEMBOK KIDUL RT. 20/03 ADIWERNA KAB. TEGAL
8362 1100448867 MOCHAMAD NURDIN LUTHOFA 06/04/1974 BRECEK RT 02 RW 02 KAB. PURBALINGGA
8363 1100448868 KOMARIYAH 17/01/1964 LAWATAN RT.05/02 DUKUHTURI KAB. TEGAL
8364 1100448869 WAKHIDIN, [Link] 17/04/1963 LAWATAN RT.05/03 DUKUHTURI KAB. TEGAL
8365 1100448870 MURWANINGSIH SISWOTARYONO AMAD WARSI 06/09/1972 TLOGOPRAGOTO RT.02/03 KAB. KEBUMEN
8366 1100448873 TITIK PURWANTINI 23/11/1963 KLIWONAN RT 01 RW 07 KAB. BOYOLALI
8367 1100448874 HARYANTI 05/10/1960 GEONGAN RT. 01 RW. 06 KAB. KARANGANYAR
8368 1100448875 TRI ANDRIAN GUNARKO 12/07/1979 [Link] RT.02 RW.02 KAB. PEMALANG
8369 1100448876 ESTI MURWANTO 22/11/1962 KLIWONAN RT 01 RW 07 KAB. BOYOLALI
8370 1100448877 SAMSIYAH 12/08/1957 JL. GURAMAI RT. 02 RW. 02 KAB. PEMALANG
8371 1100448878 AGUS SETYONO, DRS 12/06/1959 GEDONGAN RT. 01 RW. 06 KAB. KARANGANYAR
8372 1100448879 MUHAMAD ROSIKHUN 03/09/1973 TEMBOK KIDUL RT.20/03 ADIWERNA KAB. TEGAL
8373 1100448880 SRI TUTI PUJILESTARI 10/11/1963 PANGENJURUTENGAH RT 04/07 KAB. PURWOREJO
8374 1100448885 KUNA'AH 04/07/1959 KRAJAN RT.01/RW.02 KAB. KENDAL
8375 1100448886 MUHADI SPDI 12/12/1957 NGROTO RT 01 KAB. SRAGEN
8376 1100448888 SUWARYANI 20/02/1966 NGROTO RT 01 KAB. SRAGEN
8377 1100448889 NUR ZAHROH 13/12/1957 MLANGSE LOR RT. 01 RW. 05 KAB. WONOGIRI
8378 1100448891 SARYADI [Link] 16/02/1964 KARANGREJO RT 22/07 KAB. SRAGEN
8379 1100448892 AMBAR MUSTIKARUKMI SPD 13/08/1968 KARANG REJO RT 22/07 KAB. SRAGEN
8380 1100448894 RIADY DJAMIRIN SANMIRSAD 20/04/1966 PODOLUHUR RT.02/04 KAB. KEBUMEN
8381 1100448896 RETNAWATI SUHARTO SALIM 08/08/1964 PODOLUHUR RT.02/04 KAB. KEBUMEN
8382 1100448898 PARIYEM 19/01/1962 DK. LEDOK RT. 02/06 KAB. SUKOHARJO
8383 1100448899 MAHMUDAH 04/03/1970 GUMAWANG RT.05/02 WIRADESA KAB. PEKALONGAN
8384 1100448901 MOCHAMAD ADI SAPUTRO 17/12/1970 GEMBUNG 02/01 KAB. MAGELANG
8385 1100448902 SUWARTO 08/06/1959 DK. LEDOK RT. 02/06 KAB. SUKOHARJO
8386 1100448903 MUDLOFAR 20/04/1972 [Link] RT.10/06 WARULOR WIRADESA KAB. PEKALONGAN
8387 1100448904 MUKHOLIK 13/01/1972 BONJOR RT03 RW01 KAB. TEMANGGUNG
8388 1100448905 [Link] 15/10/1973 [Link] MUKTI UTARA RAYA NO.1 RT.08/06 KOTA SEMARANG
8389 1100448906 NUR HIKMAH 25/04/1977 [Link] RT.01/06 WARU LOR WIRADESA KAB. PEKALONGAN
8390 1100448907 ATIK NUR HIDAYAH 04/11/1977 [Link] MUKTI UTARA RAYA NO.1 RT.08/06 KOTA SEMARANG
8391 1100448909 SRI MULYATI 16/08/1968 SIDOREJO RT.05/02 KAB. DEMAK
8392 1100448911 TONI AGUS KRISTIONO 10/09/1961 SIDOREJO RT.05/02 KAB. DEMAK
8393 1100448913 MUHARI 09/05/1962 DANYANG UTARA 08/02 KAB. GROBOGAN
8394 1100448914 MARMI RIKIN FAISAH 18/07/1965 BUMIAYU 1/5 WEDARIJAKSA KAB. PATI
8395 1100448915 SUWONO 04/03/1966 CEMUNG SARI RT. 10 RW.06 KAB. SEMARANG
8396 1100448916 TRI YUNANI 16/04/1964 DANYANG UTARA 08/02 KAB. GROBOGAN
8397 1100448918 SLAMET WADINO 06/06/1971 PARAKANCANGGAH RT 002/007 KAB. BANJARNEGARA
8398 1100448920 SITI MUNJAYANAH 29/11/1966 CEMUNG SARI RT.10 RW.06 KAB. SEMARANG
8399 1100448921 MUJARI 02/05/1959 DUKUH GENTANSARI RT.04 RW.03 KAB. KENDAL
8400 1100448922 SITI ROFINGAH 03/02/1970 PARAKANCANGGAH RT 002/007 KAB. BANJARNEGARA
8401 1100448923 JUBAEDAH 11/05/1965 DUKUH GENTANSARI RT.04 RW.03 KAB. KENDAL
8402 1100448927 FAJAR PURWONO 08/07/1969 GAMBARSARI RT 06 RW 03 KAB. PURBALINGGA
8403 1100448928 KHOMSIYAH 20/06/1961 MAJATENGAH RT 14 RW 05 KAB. PURBALINGGA
8404 1100448929 SRI HASTUTI 24/05/1960 SUSUKAN 05/02 KAB. MAGELANG
8405 1100448931 MUHAMMAD IMAN SANTOSO 18/05/1996 [Link] NO.105 RT.03/01 KETANGGUN KAB. BREBES
8406 1100448932 YUNAWATI 11/07/1977 PONDOK KARANGSARI A.30 RT 04 RW 08 KAB. KARANGANYAR
8407 1100448934 DANI LASMONO 31/10/1972 PONDOK KARANG ASRI A30 RT. 04 RW. 08 KAB. KARANGANYAR
8408 1100448937 MOHAMMAD EFFENDI 26/06/1966 YOSOREJO RT.05 RW.01 KOTA PEKALONGAN
8409 1100448940 AISYAH 25/07/1967 YOSOREJO RT.05 RW.01 KOTA PEKALONGAN
8410 1100448943 SUPARMANTO 26/06/1958 KARANG WETAN RT. 02 RW. 03 KAB. KARANGANYAR
8411 1100448946 GIAH SUPRIHATIN 09/12/1962 BODASKARANGJATI RT 02 RW 05 KAB. PURBALINGGA
8412 1100448947 SRI GIYANI 01/03/1962 KARANG WETAN RT. 02 RW. 03 KAB. KARANGANYAR
8413 1100448948 DEWI MURTINI 26/11/1963 GANDU REJO RT 04/03 KAB. SRAGEN
8414 1100448951 DIDIK SUYONO 21/07/1960 BODASKARANGJATI RT 02 RW 05 KAB. PURBALINGGA
8415 1100448954 SUTIKNO 08/02/1963 BODASKARANGJATI RT 02 RW 05 KAB. PURBALINGGA
8416 1100448955 MULYONO PARJAN NGADIN 06/10/1962 TUNAHAN 009/002 KAB. JEPARA
8417 1100448957 MARKAMAH PARJO PAIRAN 29/11/1971 TUNAHAN 09/02 KAB. JEPARA
8418 1100448958 INUNG SULASIH 07/12/1966 BODASKARANGJATI RT 02 RW 05 KAB. PURBALINGGA
8419 1100448960 SARTONO 02/07/1962 TANALUM RT 03 RW 01 KAB. PURBALINGGA
8420 1100448961 SITI MARDIYAH 31/12/1961 KARANGREJO RT 04/03 KAB. DEMAK
8421 1100448962 SUSWATI 04/05/1963 TANALUM RT 03 RW 01 KAB. PURBALINGGA
8422 1100448965 SAROZI 07/07/1974 DONOROJO RT.03/03 KAB. DEMAK
8423 1100448966 SUKINAH 04/07/1982 DONOROJO RT.03/03 KAB. DEMAK
8424 1100448969 SRI EDI NURHAYATI 01/04/1962 GAJAH RT 04/01 KAB. DEMAK
8425 1100448970 YAYUK FAIQOH 17/01/1977 PERUM GRIYA SATRIYA RT.01/02 JATIBARANG KAB. BREBES
8426 1100448971 ACHMAD CHOLIL HELMI 27/06/1971 SINDURJAN RT 05/04 KAB. PURWOREJO
8427 1100448972 SUPRIYATI 14/08/1964 JLN. GERILYA NO.12 RT.01/10 KAB. CILACAP
8428 1100448973 SUBIYANTO 31/07/1969 PERUM GRIYA SATRIYA RT.01/02 JATIBARANG KAB. BREBES
8429 1100448974 SLAMET EDRIS PURNAMA,[Link] 26/04/1974 SUMBEREJO 08/04 KAB. KLATEN
8430 1100448975 KASORI 15/05/1966 RENGASPENDAWA RT.10/07 LARANGAN KAB. BREBES
8431 1100448976 WAMROKHATUN 10/07/1975 RENGASPENDAWA RT.10/07 LARANGAN KAB. BREBES
8432 1100448980 MUHAMMAD IKHSAN FATHONI 04/06/1969 SANGGRAHAN RT.01/RW.05 KAB. SUKOHARJO
8433 1100448981 JEMADI 16/07/1960 SIPEDANG RT 06 RW 02 KAB. BANJARNEGARA
8434 1100448983 KARSIYEM 02/04/1963 PASEH RT 001 RW 001 KAB. BANJARNEGARA
8435 1100448985 SULASTRI RAHAYU 10/05/1977 DUSUN I RT/002 RW.001 KALIREJO GRABAG KAB. PURWOREJO
8436 1100448987 SUNARMI 20/03/1967 GETAS RT.04/RW.06 KAB. KENDAL
8437 1100448988 WARSI LADIYEM 03/03/1958 MENOREH BARAT III RT.05/04 KOTA SEMARANG
8438 1100448989 TRI HENY YUNIYANTI 26/06/1969 SANGGRAHAN RT.01/RW.05 KAB. SUKOHARJO
8439 1100448992 PUDJI SANTOSO 27/08/1962 WOLO 08/04 KAB. GROBOGAN
8440 1100448993 SITI ROFIAH 19/09/1970 WOLO 08/04 KAB. GROBOGAN
8441 1100448994 HENNY MAS'AMAH MUCHSININ 12/12/1975 BLOTONGAN RT 01 RW 07 KOTA SALATIGA
8442 1100448995 SUPADMI 13/04/1974 NGUTER RT.02/08 KAB. SUKOHARJO
8443 1100448997 SUPARNO KASIJAN KARSI 16/12/1966 TLOGOSARI 2/4 TLOGOWUNGU KAB. PATI
NO NO. PORSI NAMA TANGGAL LAHIR ALAMAT KAB/KOTA KETERANGAN
8444 1100448998 SARTANA 15/05/1969 NGUTER RT.02/RW.08 KAB. SUKOHARJO
8445 1100448999 SAMSUL MA'ARIF ASMU'I 15/12/1965 BLOTONGAN RT.01 RW.07 KOTA SALATIGA
8446 1100449000 IMAM SETIYONO 18/10/1971 JL. SOKA INDAH RT.05 RW.01 KAB. BANYUMAS
8447 1100449002 ENDI WAJIANTO 22/12/1965 TLEPOK KULON RT 01/01 KAB. PURWOREJO
8448 1100449003 DIYAH YULISTIKA HANDAYANI 16/07/1975 [Link] INDAH RT.5/1 KARANGSOKA KAB. BANYUMAS
8449 1100449004 CASMONO 10/10/1959 [Link] BAKTI IV/81 RT. 5/2 PWT LOR KAB. BANYUMAS
8450 1100449005 SRI PUJIATI SUMADI 12/05/1982 TLOGOSARI 2/4 TLOGOWUNGU KAB. PATI
8451 1100449006 ARI ASTUTI 20/01/1961 [Link] BAKTI IV/81 RT. 5/2 PWT LOR KAB. BANYUMAS
8452 1100449007 SINGGIH SETYOBUDI 14/09/1959 SUSUKAN 05/02 KAB. MAGELANG
8453 1100449008 DARYATI 10/01/1984 GERLANG RT.10RW.05 KAB. BATANG
8454 1100449010 SURADI 08/07/1978 GERLANG RT.10 RW.05 KAB. BATANG
8455 1100449013 DASTI 26/09/1958 GERLANG RT.07 RW.02 KAB. BATANG
8456 1100449016 SITI ASIYAH SAHURUN 06/07/1960 KARANGBENER RT 02 RW 01 KAB. KUDUS
8457 1100449017 SITI ASIYAH 05/05/1960 PAGELAK RT 03 RW 01 KAB. BANJARNEGARA
8458 1100449018 NURUL HUDA 10/06/1978 BONJOR RT03 RW01 KAB. TEMANGGUNG
8459 1100449019 SYAMSIYAH 05/12/1962 PAGELAK RT 004 / RW 001 KAB. BANJARNEGARA
8460 1100449020 NANIK TASIR RANTAM 06/10/1965 MAYONG LOR 01/05 KAB. JEPARA
8461 1100449023 DRA. TRI SAPTA YULIARTI 07/07/1966 CANGAKAN RT.04 RW.10 KOTA SURAKARTA
8462 1100449024 FITRI DWIYANTI 15/09/1978 SENENG RT.01 RW.01 KAB. MAGELANG
8463 1100449025 IR. IRWAN INDRAWAN PUJO 30/06/1967 CANGAKAN NO.13 RT.04.10 KOTA SURAKARTA
8464 1100449026 SRI PURWANTI 29/12/1971 WADASLINTANG RT 02 RW 03 KAB. WONOSOBO
8465 1100449027 AMAT SANTOSO 11/08/1970 KROYO LOR RT 02/03 KAB. PURWOREJO
8466 1100449028 PRIYATI 01/07/1968 PENGALUSAN RT 02 RW 03 KAB. PURBALINGGA
8467 1100449029 SULISTYA 12/02/1970 WADASLINTANG RT 02 RW 03 KAB. WONOSOBO
8468 1100449030 SRI TRISNANINGSIH, AMD. PD 10/09/1959 KAMOLAN RT 01/02 KAB. BLORA
8469 1100449031 SUGIATI 31/05/1980 KROYO LOR RT 02/03 KAB. PURWOREJO
8470 1100449032 NUR ARUNA IRANI 27/09/1980 WONOREJO RT.02/RW.04 KAB. KENDAL
8471 1100449033 KISWORO 14/09/1961 PENGALUSAN RT 02 RW 03 KAB. PURBALINGGA
8472 1100449035 AWANG AJI PRADANA 01/06/1998 WONOREJO RT.02/RW.04 KALIWUNGU KAB. KENDAL
8473 1100449036 SUPONO 15/02/1958 GONDANGREJO RT. 01 RW. 14 KAB. KARANGANYAR
8474 1100449040 SITI MARYAM 02/12/1961 JL. RUSLANI HS NO. 16 RT. 01/02 KOTA TEGAL
8475 1100449043 SOBIRIN 14/08/1958 JL. RUSLANI HS NO. 16 RT. 01/02 KOTA TEGAL
8476 1100449044 NASHRON AZIZ 10/04/1975 PURI UTARA IB/51 RT.07/17 KEDUNGWUNI KAB. PEKALONGAN
8477 1100449045 SITI SUBARTINI 27/12/1962 POSONGAN RT. 01 RW. 03 KAB. PEMALANG
8478 1100449046 APRIYANI 11/04/1980 PURI UTARA IB/51 RT.07/17 KEDUNGWUNI KAB. PEKALONGAN
8479 1100449047 SISWANDI SARKUM 10/01/1959 PASEH RT 001 RW 001 KAB. BANJARNEGARA
8480 1100449053 INDAH HARTININGSIH 22/07/1959 DUNGDANG RT 02/01 KAB. SRAGEN
8481 1100449054 SITI MARYATI 26/07/1957 KORIPAN RT01 RW03 KAB. TEMANGGUNG
8482 1100449056 SUSIHATI 15/08/1959 DUKUH KARANGPELEM RT 03 KAB. SRAGEN
8483 1100449057 TUTINGGAL 07/02/1964 DESA MULYOSARI RT.19/RW.05 KAB. KENDAL
8484 1100449058 AGUS SRI ANTORO 21/04/1982 JIPANGAN RT 11 KAB. SRAGEN
8485 1100449062 SUKARSA 16/07/1961 [Link] GG.G BATUR RT.1/7 BNCRKM KAB. BANYUMAS
8486 1100449064 TRI JATMIKO INDRI MARTONO 05/03/1976 GEMOLONG RT 03/03 KAB. SRAGEN
8487 1100449066 ENAS HINDASAH 22/10/1965 [Link] [Link] RT.1/7 BNCRKM KAB. BANYUMAS
8488 1100449068 ATIK KHOMSIAWATI 17/07/1972 SROYO RT.04 RW.09 KAB. KARANGANYAR
8489 1100449071 MUHLISIN 05/06/1984 BERAN WETAN RT. 01/08 KAB. MAGELANG
8490 1100449073 FIFIN ANITA EKAWATI 07/04/1981 GEMOLONG RT 03/03 KAB. SRAGEN
8491 1100449075 SLAMET ROSIDI 17/07/1972 SROYO RT. 04 RW. 09 KAB. KARANGANYAR
8492 1100449076 GITO SADIYANTO 10/06/1972 KWANGEN RT 03/01 KAB. SRAGEN
8493 1100449077 NUR ALI 10/07/1971 GETASKEREP RT. 06/02 TALANG KAB. TEGAL
8494 1100449078 SURATNI 05/08/1975 GETASKEREP RT. 06/02 TALANG KAB. TEGAL
8495 1100449080 YUNI DWI WIRATNI 13/06/1972 JETIS 02/07 KAB. MAGELANG
8496 1100449082 TURIYONO 17/06/1983 GENTING RT 16 RW 04 KAB. WONOSOBO
8497 1100449083 LAILY FAUZIYAH 09/06/1976 TEGOWANU KULON 06/03 KAB. GROBOGAN
8498 1100449084 SUWANTI 02/05/1975 KWANGEN RT 3/1 KAB. SRAGEN
8499 1100449085 DWI SUSILO 07/09/1980 NGEREN RT 08/02 KAB. SRAGEN
8500 1100449086 USWATUN HASANAH 27/07/1983 DUSUN KUWON RT 001 / RW 005 KAB. GROBOGAN
8501 1100449087 RUMIYATI 15/07/1958 SEPETE RT.07/01 LEGOKGUNUNG WONOPRINGGO KAB. PEKALONGAN
8502 1100449089 ENI 07/05/1987 GENTING RT 16 RW 04 KAB. WONOSOBO
8503 1100449090 ETIK PURWANTI 27/12/1983 NGEREN RT 08/02 KAB. SRAGEN
8504 1100449091 MASNI'AH TAMSIR MUSTI'AH 24/10/1957 TAWANGREJO 2/6 WINONG KAB. PATI
8505 1100449092 AGUS WARJONO 02/12/1969 JETIS RT.02 RW.07 KAB. MAGELANG
8506 1100449093 WIWIN PUSPITOWATI 25/12/1964 JL. MANYAR 2 NO 18 RT 02/05 KAB. BLORA
8507 1100449094 ARIS MIN CHOIRIYAH 02/12/1958 KALITULUNG 04/02 KAB. MAGELANG
8508 1100449095 SUNARDI PAWI NARTI 13/08/1966 KEBOLAMPANG 4/2 WINONG KAB. PATI
8509 1100449096 MASTUR MASDUKI SARIJAN 05/05/1969 TENGGELES RT 03 RW 04 KAB. KUDUS
8510 1100449097 TRI SUDONO 07/11/1958 JL MANYAR 2 NO 18 RT 02/05 KAB. BLORA
8511 1100449098 AHMAD SOLEH 12/11/1967 TEGOWANU KULON 06/03 KAB. GROBOGAN
8512 1100449100 AF'IDAH AHMAD YUSUF 28/02/1970 TENGGELES RT 03 RW 04 KAB. KUDUS
8513 1100449102 ANI YUSNIAR, SH 11/03/1963 [Link] RAYA NO.04 RT.01 RW.12 KAB. SEMARANG
8514 1100449103 ZULIKAH SUWAWI SUWATI 06/01/1971 KEBOLAMPANG 4/2 WINONG KAB. PATI
8515 1100449105 RUSMINAH 02/04/1965 PADANGAN 01/11 KAB. KLATEN
8516 1100449110 ENDANG WERDININGSIH 12/07/1963 CEPOGO RT 03 RW 01 KAB. BOYOLALI
8517 1100449113 MARTUTI SUPARDI BASMI 03/01/1962 SALE RT 002 RW 003 SALE KAB. REMBANG
8518 1100449114 DONI AGUS RIYANTO 17/08/1980 PRM GRY SATRIA BLK ZD-1 RT. 5/9 BNTRSOKA KAB. BANYUMAS
8519 1100449116 YORETTA NIDYA WIDIATI 31/07/1987 SALE RT 002 RW 003 SALE KAB. REMBANG
8520 1100449118 KISWANTO 24/05/1964 KARANGMALANGWETAN RT.08/RW.01 KAB. KENDAL
8521 1100449122 DIAN MAHARDIKA 20/08/1986 KARANGMALANGWETAN RT.08/RW.01 KAB. KENDAL
8522 1100449123 USWATUN KHASANAH 11/11/1969 SIWULUH RT.06/04 BULAKAMBA KAB. BREBES
8523 1100449124 ADE AYU CHRISANTI 27/11/1978 PRM GRIYA SATRIA [Link]-1 RT.5/9 BNTRSOK KAB. BANYUMAS
8524 1100449125 ASFURIYAH 14/10/1973 TLOGOMULYO RT.02/05 KOTA SEMARANG
8525 1100449126 LINA ASTUTIK 20/01/1989 KARANGMALANGWETAN RT.08/RW.01 KAB. KENDAL
8526 1100449127 SUJARWO 25/08/1974 SIWULUH RT. 06/04 BULAKAMBA KAB. BREBES
8527 1100449128 SUNARYO KASNO SARINAH 02/07/1975 SIDOMULYO 3/2 JAKENAN KAB. PATI
8528 1100449129 TUKIYAT 11/09/1963 SIDOHARJO RT. 04 RW. 11 KAB. KARANGANYAR
8529 1100449130 NGASTINAH 14/12/1970 GEPOR RT.16/RW.05 KAB. KENDAL
8530 1100449131 WARSINAH KASMADI SUWARSIH 06/04/1982 SIDOMULYO 3/2 JAKENAN KAB. PATI
8531 1100449135 ERNI APRILIASTUTI 17/04/1971 SIDOHARJO RT. 04 RW. 11 KAB. KARANGANYAR
8532 1100449137 SALAMUN 03/04/1965 GEPOR RT.16/RW.05 KAB. KENDAL
8533 1100449138 RAHAYU 31/01/1975 DAMARAN G.V NO.72 01/02 KAB. KLATEN
8534 1100449139 ERA AGUSTINA 16/08/1973 TAWANGSARI RT03 RW03 NO.A7 KAB. TEMANGGUNG
8535 1100449140 WAHYUNINGSIH 19/10/1972 TALUN RT. 06/07 BERGAS LOR KAB. SEMARANG
8536 1100449141 SUPARNO 30/12/1979 TUREN RT.03/RW.05 KAB. SUKOHARJO
8537 1100449142 SODIKIN 09/02/1960 DESA MULYOSARI RT.19/RW.05 KAB. KENDAL
8538 1100449143 HENDRA SUMARYANA 24/03/1972 TAWANGSARI RT03 RW03 NO.A7 KAB. TEMANGGUNG
8539 1100449145 ZARKASI 08/05/1960 DAMARAN G.V NO.72 01/02 KAB. KLATEN
8540 1100449149 SITI ROCHAYAH 09/12/1961 GUMELAR,WANGON RT 001/002 KAB. BANJARNEGARA
8541 1100449150 [Link], MSC 04/12/1967 TALUN RT.06 RW.07 KAB. SEMARANG
8542 1100449155 KASYAIN 31/12/1959 PILANG RT 02/07 KAB. BLORA
8543 1100449156 TANIJAH 04/03/1960 BEJI RT. 01 RW. 05 KAB. PEMALANG
8544 1100449160 DARWATI 10/01/1981 KARANGBANDUNG RT.02/03 KETANGGUNGAN KAB. BREBES
8545 1100449162 DAKIROH 02/04/1966 KASEGERAN RT. 8/2 KAB. BANYUMAS
8546 1100449163 HARINI 25/12/1965 TELAP LOR 39/14 KAB. KLATEN
8547 1100449164 SITI MUNTAKIYAH TOLANI SANMURJI 17/02/1972 TAMBAKAGUNG RT.01/05 KAB. KEBUMEN
8548 1100449165 KHOMSATUN 12/10/1965 PESANTREN TIMUR RT. 03 RW. 05 KAB. PEMALANG
8549 1100449166 FADHOLI 31/12/1962 PLAMONGANSARI RT.03/02 KOTA SEMARANG
8550 1100449167 SUYATNO 16/04/1958 WONODADI RT 01 RW 04 KAB. BOYOLALI
8551 1100449168 YUNUS 26/07/1973 KARANGBANDUNG RT. 02/03 KETANGGUNGAN KAB. BREBES
8552 1100449170 JUMAIDI 15/08/1966 TLOGOMULYO RT.02/05 KOTA SEMARANG
8553 1100449171 IS SUHENI 03/08/1978 JL. [Link] NO.27 RT.08 RW.12 KOTA TEGAL
8554 1100449172 WAGIYEM 14/07/1966 WONODADI RT 01 RW 04 KAB. BOYOLALI
8555 1100449174 RODIN 12/05/1972 JL. [Link] NO.27 RT.08 RW.12 KOTA TEGAL
8556 1100449175 HARJAKA 06/06/1962 TELAP LOR 39/14 KAB. KLATEN
8557 1100449177 SUMANTO,DRS 07/01/1963 KAJEN 02/04 KAB. KLATEN
8558 1100449179 SUYANTI,DRA 12/03/1963 KAJEN 02/04 KAB. KLATEN
8559 1100449183 EKO SRI HARYANTI, SH 29/09/1969 KARANGASEM 04/02 KAB. KLATEN
8560 1100449185 ROHIMAH 05/08/1977 BABALAN RT 01 RW 03 KAB. DEMAK
8561 1100449186 SUWARTI 21/09/1957 JAMBANGAN RT 27 KAB. SRAGEN
8562 1100449188 MUJIYANTO, DRS 12/12/1963 KARANGASEM 04/02 KAB. KLATEN
8563 1100449189 ABDURROHMAN 15/06/1967 KASEGERAN RT. 8/2 KAB. BANYUMAS
8564 1100449191 MUSTOFIAH 28/02/1963 PLAMONGANSARI RT 3 RW 2 KOTA SEMARANG
8565 1100449192 TASOKHIN 30/06/1965 KLIDANG LOR RT.03 RW.03 KAB. BATANG
8566 1100449193 SUSANTO MOCHAMAD BASUKI 21/06/1966 TAMBAKAGUNG RT.01/05 KAB. KEBUMEN
8567 1100449194 PRIHATIN NATALINAWATI 24/12/1980 JAMBANGAN RT 27 KAB. SRAGEN
8568 1100449195 INNANIS 22/10/1967 KLIDANG LOR RT.03 RW.03 KAB. BATANG
8569 1100449197 M. CHANAFI DJENAR SASMITODIHARJO 30/06/1960 TASIKAGUNG RT 003 RW 008 REMBANG KAB. REMBANG
8570 1100449198 EDI KARMANTO 05/06/1975 JAMBANGAN RT 27 KAB. SRAGEN
8571 1100449200 UMI KULSUM 13/02/1978 JL. KH. AKROM KHASANI NO.34 KOTA PEKALONGAN
NO NO. PORSI NAMA TANGGAL LAHIR ALAMAT KAB/KOTA KETERANGAN
8572 1100449201 TITI DIAH SOTIJANINGSIH 01/08/1963 TASIKAGUNG RT 003 RW 003 REMBANG KAB. REMBANG
8573 1100449202 INDRA GUNARTI 06/01/1978 KALIERANG RT.05/RW.05 BUMIAYU KAB. BREBES
8574 1100449203 ZUMROTUN JASMANI KASTO 17/05/1965 LEBUAWU 06/01 KAB. JEPARA
8575 1100449204 SUPOMO ABDUL MUNTOLIB 15/06/1961 LEBUAWU 06/01 KAB. JEPARA
8576 1100449205 SITI RIWAYATI 16/08/1962 JL. SIDODRAJAT II/13 RT.02/19 KOTA SEMARANG
8577 1100449208 BAMBANG HARTADI 14/04/1958 JL. SIDODRAJAT II/13 RT.02/19 KOTA SEMARANG
8578 1100449209 SUPARMIN 14/12/1965 KALIERANG RT.05/RW.05 BUMIAYU KAB. BREBES
8579 1100449211 KASRIN RASMITO DASMINAH 03/05/1966 SIDOWAYAH RT 003 RW 001 PANCUR KAB. REMBANG
8580 1100449212 HARIYATI 30/01/1968 SODONG PURWOSARI RT RT 1 RW 2 KOTA SEMARANG
8581 1100449213 MASLIKHAH, S. AG , [Link] 29/05/1970 TEGOWANON 100 RT. 20/09 KAB. MAGELANG
8582 1100449215 HADI NUR HIDAYAT 19/12/1969 SODONG PURWOSARI RT 1 RW 2 KOTA SEMARANG
8583 1100449216 KHAYATI 27/10/1968 JL. MERPATI NO. 15 BGI RT. 04 RW. 11 KAB. KARANGANYAR
8584 1100449217 IR . SAIFUDIN ASHARI 15/04/1963 PAYAMAN 100 RT. 20/10 KAB. MAGELANG
8585 1100449219 PARWOTO 25/11/1963 TEMUROSO RT 08/01 KAB. DEMAK
8586 1100449220 MUTOHAROH 20/04/1970 TEMUROSO RT 08/01 KAB. DEMAK
8587 1100449221 QOWIMAH FADLIL AHYARI 05/06/1981 LODAN WETAN RT 001 RW 003 SARANG KAB. REMBANG
8588 1100449224 MUSLIKAH J 11/02/1975 DSN. CLOWOK RT.02 RW.05 KAB. SEMARANG
8589 1100449225 SULASTRI 05/05/1961 SOKARAJA TENGAH RT. 3/5 KAB. BANYUMAS
8590 1100449226 EMA MALINI EDHI MUHTADI 11/01/1978 BARONGAN RT 01 RW 04 KAB. KUDUS
8591 1100449230 ANANTA YUSUF FAKHRUDIN 28/06/2000 KRAMAT REJO 301 RT 01 RW 04 KAB. KUDUS
8592 1100449231 ANDRIANI RATNA PUSPITASARI 08/05/1972 JOMBOR INDAH RT.05/RW.03 KAB. SUKOHARJO
8593 1100449232 EDI YUSUF 15/10/1964 PISMA GRIYA PERMAI BLOK B/64 RT.08/17 KAB. PEKALONGAN
8594 1100449235 SRI SUWARNI 31/12/1972 TEGAL MULYO RT.04/RW.05 KAB. SUKOHARJO
8595 1100449236 AHMAD KHARIRI 30/03/1969 TIDAR WARUNG RT. 04 RW. 04 KOTA MAGELANG
8596 1100449238 MUSYAWAROH 08/08/1967 PISMA GRIYA PERMAI BLOK B/64 RT.08/17 KAB. PEKALONGAN
8597 1100449239 HERLINA KRISTIYAWATI 20/04/1972 TIDAR WARUNG RT. 04 RW. 04 KOTA MAGELANG
8598 1100449240 MUJIATI 17/01/1980 TEGALMULYO RT. 04/05 KAB. SUKOHARJO
8599 1100449241 ISNAWATI 09/02/1998 TUREN RT.05/RW.05 KAB. SUKOHARJO
8600 1100449243 CARIDAN 16/05/1967 DUKUH TAUSIT RT. 2 RW. 2 KAB. PEKALONGAN
8601 1100449249 MURSITI 30/06/1963 YOSOREJO RT.01/02 SIWALAN KAB. PEKALONGAN
8602 1100449251 MUHTAROM MUNADI MARJAN 06/07/1961 GEMIRING LOR 02/07 KAB. JEPARA
8603 1100449252 MADJUDI 30/06/1963 GADE 08/03 KAB. GROBOGAN
8604 1100449253 TASYANI 15/03/1958 YOSOREJO RT.01/02 SIWALAN KAB. PEKALONGAN
8605 1100449254 MASRIYAH FAIDLONI KERTO 10/07/1966 BUARAN 01/02 KAB. JEPARA
8606 1100449255 SUGIMUN 03/02/1965 BATIKAN RT 01 RW 03 KOTA SURAKARTA
8607 1100449256 YONNI ARIYANTO 28/03/1976 GALAN RT. 05/04 KAB. SUKOHARJO
8608 1100449257 KANTI RUDATI 08/11/1959 KP. CENDANASARI 01/07 KAB. GROBOGAN
8609 1100449258 MUSAYADAH KASIYADI WONO 17/04/1970 GEMIRING LOR 02/07 KAB. JEPARA
8610 1100449261 WIWIK SETIYAWATI 20/04/1972 GALAN RT. 05/04 KAB. SUKOHARJO
8611 1100449262 RUSMANIYAH 17/09/1971 BATIKAN RT.01 RW.03 KOTA SURAKARTA
8612 1100449263 HARYANTI 09/12/1970 CEMANI RT. 03/13 KAB. SUKOHARJO
8613 1100449264 DUL MUTOLIB 05/02/1969 CEMANI RT. 03/13 KAB. SUKOHARJO
8614 1100449265 MURWANINGSIH 12/02/1969 DK. MALANGAN RT.03/RW.06 KAB. SUKOHARJO
8615 1100449267 HILMY RIZQI MAULANA 11/01/1999 JL. JAMBU III NO. 415 RT 7 RW 5 KOTA SEMARANG
8616 1100449268 SITI FATMAH 25/03/1968 DK MALANGAN RT 03/06 KAB. SUKOHARJO
8617 1100449269 PONI RAHAYU 01/01/1961 GAMBUHAN RT 03 RW 01 KAB. BOYOLALI
8618 1100449270 ROSO 20/10/1967 SIPEDANG RT 01 RW 02 KAB. BANJARNEGARA
8619 1100449271 WIWIN BUDI RAHAYU 20/11/1964 [Link] III/415 RT.07/05 KOTA SEMARANG
8620 1100449275 LAELA, [Link] 13/04/1959 KEMANTRAN RT.02/02 KRAMAT KAB. TEGAL
8621 1100449276 PRIHARTOMO ADI SANTOSO 08/12/1962 [Link] III/415 RT.07/05 KOTA SEMARANG
8622 1100449279 SARDI 10/08/1960 WONOSEGORO RT 02 RW 05 KAB. BOYOLALI
8623 1100449280 SUCI HANDAYANINGSIH 13/06/1970 PAKISAN RT01 RW05 KAB. TEMANGGUNG
8624 1100449281 SUMITO, [Link] 15/05/1959 KEMANTRAN RT.01/03 KRAMAT KAB. TEGAL
8625 1100449284 SUKARMIN 23/12/1966 KUPATAN RT. 04 RW. 09 KOTA MAGELANG
8626 1100449285 SALIYAH 02/09/1968 SIPEDANG RT 01 RW 02 KAB. BANJARNEGARA
8627 1100449287 SRI UNTARI 27/08/1973 KUPATAN RT. 04 RW. 09 KOTA MAGELANG
8628 1100449292 SUWITO 21/01/1965 [Link] RT.1/4 RT.1/4 PASIR MUNCANG KAB. BANYUMAS
8629 1100449293 IMAM WAHYUDI 25/08/1980 JL. KH. SUFYAN TSAURI RT01 RW03 KAB. CILACAP
8630 1100449294 TENTREM 05/05/1969 WONOSEGORO RT 02 RW 05 KAB. BOYOLALI
8631 1100449295 KUNTARINI 27/07/1972 [Link] RT.1/4 PASIRMUNCANG KAB. BANYUMAS
8632 1100449296 MAESAROH 24/09/1964 [Link] UTARA RT.02/01 KAB. PEKALONGAN
8633 1100449297 SRI SAIDAH SUDIONO 24/09/1976 LORAM KULON RT 07 RW 01 KAB. KUDUS
8634 1100449299 SRI TURYANTI YAKOED 03/06/1968 DUKUTALIT 1/3 JUWANA KAB. PATI
8635 1100449301 SURANTI 31/12/1959 DSN. TEPUS WETAN 07/15 KAB. MAGELANG
8636 1100449302 SAROYAH 14/07/1965 DEBEGAN RT 01 RW 032 KOTA SURAKARTA
8637 1100449303 UKEN SUKAISIH 04/11/1960 SEWORAN RT 07 RW 04 KAB. BOYOLALI
8638 1100449305 SUKARNO LASTARI LEGINAH 22/05/1967 DUKUTALIT 1/3 JUWANA KAB. PATI
8639 1100449306 SUMI'AH KASTURI SUWONDO 18/06/1966 PIJI RT 05 RW 01 KAB. KUDUS
8640 1100449308 AMIRUDIN 12/03/1961 KETOYAN RT 05 RW 01 KAB. BOYOLALI
8641 1100449309 SUWONO SUMARI RASIDIN 08/02/1960 GONDOHARUM RT 06 RW 02 KAB. KUDUS
8642 1100449310 PURWO PRIH UTAMI 02/01/1969 KETOYAN RT 05 RW 01 KAB. BOYOLALI
8643 1100449311 ESTI NUGRAHANI 18/10/1965 MOJO RT 08 KAB. SRAGEN
8644 1100449312 SITI MARDIYAH MAT YADI 01/04/1964 GONDOHARUM RT 06 RW 02 KAB. KUDUS
8645 1100449313 SUPARDI 16/08/1962 MOJO RT 08 KAB. SRAGEN
8646 1100449314 NDARI AGUSTINA 06/08/1976 BRECEK RT 01 RW 01 KAB. PURBALINGGA
8647 1100449315 SWARI MARYUNONI SUYONO 29/01/1984 RENDENG RT 01 RW 02 KAB. KUDUS
8648 1100449316 WARDOYO 18/06/1978 SIGIT RT 02 KAB. SRAGEN
8649 1100449317 MUJI 12/09/1984 SIGIT RT 02 KAB. SRAGEN
8650 1100449318 TEGUH PATUH HINDRATNO 10/07/1984 RENDENG RT 01 RW 02 KAB. KUDUS
8651 1100449321 SUNARTI 13/07/1965 MARGOREJO RT 10 KAB. SRAGEN
8652 1100449322 SUMARJI 01/12/1968 MARGOREJO RT 10 KAB. SRAGEN
8653 1100449325 CHAYATI 23/06/1969 DUSUN NUSADADI RT02 RW08 KAB. CILACAP
8654 1100449326 MUHAMMAD ABDUL YASIR 03/08/1962 DUSUN KEBOGORAN RT. 02 RW. 10 BANTARSAR KAB. CILACAP
8655 1100449328 DARTONO 24/02/1965 MOJOPURO RT 09 KAB. SRAGEN
8656 1100449329 SITI NURJANAH 26/10/1971 MOJOPURO RT 09 KAB. SRAGEN
8657 1100449330 SRI SUPARMIYATI, [Link] 11/04/1970 KEMIRI KIDUL RT. 03/01 KEMIRI KAB. PURWOREJO
8658 1100449331 EJE ZAENAL MUTTAQIN 24/11/1964 LORAM KULON RT 07 RW 01 KAB. KUDUS
8659 1100449332 REVONDA ANDESTIADI, [Link] 26/12/1985 DUKUH LARANGAN RT.03/03 MUNJUNGAGUNG KAB. TEGAL
8660 1100449333 NOOR BASUKI SOENARYO RIDLWAN 19/03/1964 PIJI RT 05 RW 01 KAB. KUDUS
8661 1100449335 WILDAN 10/04/1980 KP. WOTPRAU NO. 14 RT 2 RW 2 KOTA SEMARANG
8662 1100449336 AHMAD TAUFIKURROHMAN 07/07/1982 CIKANDANG RT. 01/06 KERSANA KAB. BREBES
8663 1100449338 SUWARNO 11/08/1960 NGRINGIN RT. 01 RW. 05 KAB. KARANGANYAR
8664 1100449339 SHUFRINA MAULIDA SABTANA 18/09/1990 KP. WOTPRAU NO. 14 RT 2 RW 2 KOTA SEMARANG
8665 1100449340 HILMAN HIDAYATULLAH 12/01/1974 BABALAN RT 01 RW 03 KAB. DEMAK
8666 1100449341 WARSITO 28/04/1973 KRAJAN KALIERANG NO.02 RT.07/02 BUMIAYU KAB. BREBES
8667 1100449342 SHOFIYATUN 16/06/1978 JOGOLOYO RT 01/01 KAB. DEMAK
8668 1100449343 SLAMET 06/01/1966 KEBONBATUR RT 04/20 KAB. DEMAK
8669 1100449344 SISWATI, S. PD 15/05/1975 JL. BIMA NO 28 RT 02/02 KAB. BLORA
8670 1100449345 SAPTONO SPD 02/01/1964 KWANGEN RT 04/01 KAB. SRAGEN
8671 1100449346 LISTYORINI 08/04/1973 KEBONBATUR RT 04/20 KAB. DEMAK
8672 1100449347 MUSLIH ABDURRAHMAN 01/03/1971 JOGOLOYO RT 01/01 KAB. DEMAK
8673 1100449348 NUR KHOLIPAH 08/11/1976 KRAJAN KALIERANG NO.02 RT.07/02 BUMIAYU KAB. BREBES
8674 1100449349 FATHUL HIMAM, S. AG 10/10/1970 JL. BIMA NO 28 RT 02/02 KAB. BLORA
8675 1100449350 MANINGSIH 08/08/1964 KWANGEN RT 04/01 KAB. SRAGEN
8676 1100449351 NUR HANDAYATI 30/12/1976 KAUMAN GG. MERAPI NO.02 RT.01 RW.03 KAB. BATANG
8677 1100449352 PARNO 09/04/1967 SENENG RT 09 KAB. SRAGEN
8678 1100449353 HUBAIB IZZUDIN,[Link] 06/06/1972 KEBONDALEM KUTOREJO RT.03 RW.01 KAB. BATANG
8679 1100449354 NANANG JAELANI 10/03/1972 AMBARAWA ASRI RT.01 RW.12 KAB. SEMARANG
8680 1100449355 WAHYU SARJIATI, DRA 29/04/1965 SENENG RT 09 KAB. SRAGEN
8681 1100449356 WAWAN SETIAWAN SUYONO 20/04/1977 BACIN RT 01 RW 01 KAB. KUDUS
8682 1100449358 ERI KUSUMAWATI MURSIDI 28/08/1977 BACIN RT 01 RW 01 KAB. KUDUS
8683 1100449362 SRI PUJI ASTUTI 31/12/1959 [Link] GANG MASJID 5 RT 02/05 KAB. BLORA
8684 1100449363 ABDUL MUHID 08/04/1959 JL. BHAYANGKARA GANG MASJID 5 RT 02/05 KAB. BLORA
8685 1100449366 MURIYAH 24/05/1962 GOMBONG KRAJAN RT.01 RW.04 KAB. BATANG
8686 1100449371 NUR KUAT SANTOSO 05/03/1970 JL. TANJUNGSARI RT.07/05 KOTA SEMARANG
8687 1100449373 TRI RETTAGUNG DIANA,DRA 27/09/1968 [Link] PERMAI BLOK D-2 RT.02/04 KOTA SEMARANG
8688 1100449374 KORWINAH 25/11/1976 PENJALINBANYU RT.02/02 LARANGAN KAB. BREBES
8689 1100449375 SYA'RONI SUDOMO RUSKI 29/03/1969 WOTAN 3/6 SUKOLILO KAB. PATI
8690 1100449377 SUMARTONO,SPD 24/03/1969 [Link] PERMAI BLOK D-2 RT.02/04 KOTA SEMARANG
8691 1100449380 JUMIATI NASRIN SUMILAH 23/07/1972 WOTAN 03/06 SUKOLILO KAB. PATI
8692 1100449381 PATMI 01/12/1973 JL. TANJUNGSARI RT.07/05 KOTA SEMARANG
8693 1100449382 SYAKURI 15/05/1974 PENJALINBANYU RT02/02 LARANGAN KAB. BREBES
8694 1100449384 YANTI KOMALA DEWI 06/08/1986 CIKANDANG RT. 01/06 KERSANA KAB. BREBES
8695 1100449386 TRIYONO KARTOWISASTRO SADIWIRYA 14/09/1963 ROGODADI RT.01/03 KAB. KEBUMEN
8696 1100449388 HERI SUTRISNO, [Link] 10/09/1973 TENGKLIK RT. 09 RW. 04 KAB. KARANGANYAR
8697 1100449389 RAISEM RANUWIREJA WADIKRAMA 06/03/1964 ROGODADI RT.01/03 KAB. KEBUMEN
8698 1100449390 PARINI 17/09/1959 KOMPRENGAN, RT.02/RW.07 KAB. TEMANGGUNG
8699 1100449394 ERIKA CANDRA NUGRAHA 14/11/1995 DUKUH KIRINGAN RT 003 / RW 004 KAB. KUDUS
NO NO. PORSI NAMA TANGGAL LAHIR ALAMAT KAB/KOTA KETERANGAN
8700 1100449396 RASTRINI WIDYASTUTI 26/09/1967 [Link] Tengah VI KOTA SURAKARTA
8701 1100449399 KASIFAH 08/09/1958 JL. SENGON RT02 RW04 KAB. CILACAP
8702 1100449401 EDI WARNO 08/11/1960 JL. SENGON NO.32 RT02 RW04 KAB. CILACAP
8703 1100449403 DEDY ARIF SANTOSA 12/08/1978 MEGAWON RT 002 / RW 002 KAB. KUDUS
8704 1100449404 SARIYAH 19/04/1958 JL. PEMUGARAN NO.175, RT.05/01 KAB. CILACAP
8705 1100449405 MANSUR MUH PARISAN 26/09/1968 SINANGGUL 23/04 KAB. JEPARA
8706 1100449407 ASYFARIKHAH KASTURI KARJONO SUWONO 16/04/1970 SAMIREJO RT 03 RW 04 KAB. KUDUS
8707 1100449409 ENY SETYAWATI SUNGKONO 01/04/1971 SINANGGUL 23/04 KAB. JEPARA
8708 1100449410 RUJIYANTO PAIDI DJOJOPRAWIRO 18/01/1968 RENDOLE 1/6 MUKTIHARJO MARGOREJO KAB. PATI
8709 1100449411 MUHAMMAD WAHID USUP 25/03/1973 PERUM SEHATI D/130 B RT 01 RW 14 KOTA SALATIGA
8710 1100449412 HENI WIJAYANTI SLAMET 19/11/1968 RENDOLE 1/6 MUKTIHARJO MARGOREJO KAB. PATI
8711 1100449413 MOHAMAD RIFKY ARIEF 29/05/1978 [Link] NO.11 RT.05/01 KOTA SEMARANG
8712 1100449415 BAROKAH TARMUJI HAMBALI 05/06/1976 PERUM SEHATI D/130 B RT 01 RW 14 KOTA SALATIGA
8713 1100449416 WIDYA ANDRIYANTI SURIAMIHARDJA 17/04/1982 [Link] NO.11 RT.05/01 KOTA SEMARANG
8714 1100449417 SRI LESTARI 02/09/1969 PUCUK RT 13 KAB. SRAGEN
8715 1100449418 MUTASOR 15/09/1967 BANTARWARU RT 004 RW 002 KAB. BANJARNEGARA
8716 1100449419 ISTI KHASANAH 12/06/1978 BANTARWARU RT 004/002 KAB. BANJARNEGARA
8717 1100449420 SULARSI DIAH PURWANINGSIH 23/12/1975 MACANAN RT. 04 RW. 02 KAB. KARANGANYAR
8718 1100449425 SUYADI 03/05/1973 MACANAN RT 04 RW 02 KAB. KARANGANYAR
8719 1100449426 DARYANTO 16/04/1980 NGABEN REJO 07/01 KAB. GROBOGAN
8720 1100449427 S RAHAYU 04/07/1957 BUNGKUS KADEM RT.01/03 KEDUNGKEBO KAB. PEKALONGAN
8721 1100449428 SULIMAH 03/07/1979 NGABENREJO 07/01 KAB. GROBOGAN
8722 1100449429 ASROFAH 12/09/1962 JL PUSPANJOLO BARAT I / 1 RT 2 RW 3 KOTA SEMARANG
8723 1100449430 SUGIARTI 05/06/1965 TOKO 02/02 KAB. GROBOGAN
8724 1100449433 MUSLIMIN AMIN 01/02/1958 JL. PUSPANJOLO BARAT I / 1 RT 2 RW 3 KOTA SEMARANG
8725 1100449434 SRI ROKHANI SASTROMIHARJO SELAM 14/11/1966 DS. KALIRANCANG RT 02/03 ALIAN KAB. KEBUMEN
8726 1100449438 MUHYIDIN HADI SUPRAPTO 22/04/1967 KALIRANCANG RT.02/03 KAB. KEBUMEN
8727 1100449439 SRI SURARSINI 22/07/1962 TROMBOL KULON RT. 01 RW. 01 KAB. KARANGANYAR
8728 1100449441 WARSITO, [Link] 07/10/1958 TROMBOL KULON RT. 01 RW. 01 KAB. KARANGANYAR
8729 1100449442 SRI YATUN 16/01/1970 CENGKAWAKREJO RT 05/01 KAB. PURWOREJO
8730 1100449444 BAMBANG DWI PURYONO 06/10/1963 LAMONGAN RT 01 RW 01 KAB. PURBALINGGA
8731 1100449445 SRI ROHYATI JERI 06/07/1964 JLEGONG 08/03 KAB. JEPARA
8732 1100449446 DWI MULYONO 08/06/1966 CENGKAWAKREJO RT 05/01 KAB. PURWOREJO
8733 1100449447 SUPARJO SAMSURI PARTI 14/08/1977 KAJAR 03/03 TRANGKIL KAB. PATI
8734 1100449448 PURNYOTO KASMO KARJO 02/06/1967 JLEGONG 08/03 KAB. JEPARA
8735 1100449450 SYAIFUL BAHRI KOMARI 04/01/1971 JL. MUTIARA NO.018 RT 01 RW 04 KOTA SALATIGA
8736 1100449452 SALIKATUN NAJIYAH MUSLIM 29/07/1971 JL. MUTIARA NO.018 RT 01 RW 04 KOTA SALATIGA
8737 1100449453 MULTATIAH BISYUKRI INAYAH 09/07/1975 PERUM GRIYA SAMPANG PERMAI RT01 RW09 KAB. CILACAP
8738 1100449454 JAINEM 11/06/1969 KEDUNGDOWO RT 03/02 KAB. SRAGEN
8739 1100449455 HADI MAARIF 15/12/1975 PERUM GRIYA SAMPANG PERMAI RT.01/09 KAB. CILACAP
8740 1100449456 KASMI 04/09/1972 KEDUNGWARU LOR RT.05/02 KAB. DEMAK
8741 1100449457 KAMAL MARYONO WAGINI 28/12/1958 KAUMAN 03/03 KAB. JEPARA
8742 1100449459 SULASTRI SUTOYO SUGINTEN 06/09/1981 KAJAR 3/3 TRANGKIL KAB. PATI
8743 1100449460 SEMI 21/07/1957 JUMO 03/05 KAB. GROBOGAN
8744 1100449461 TUTI SRI HARYUNI 02/09/1976 DESA TAMPINGAN RT.05 RW.03 KAB. KENDAL
8745 1100449462 ADI SUCIPTO 14/04/1960 KEDUNGWARU LOR RT.05/02 KAB. DEMAK
8746 1100449464 DIDIK ZAIN MUTTAHAR 22/08/1977 DESA TAMPINGAN RT.05 RW.03 KAB. KENDAL
8747 1100449467 AHMAD NURUL HUDA 09/09/1974 BANTRUNG RT 001 / RW 001 KAB. JEPARA
8748 1100449469 RINI DWI HASTUTI 10/11/1975 BLIMBING RT.03/06 KAB. SUKOHARJO
8749 1100449471 NUR HIDAYATI 06/09/1974 SARIREJO RT.05/03 KAB. DEMAK
8750 1100449472 ALI MASHAR 04/04/1967 SARIREJO RT.05/03 KAB. DEMAK
8751 1100449473 HARIYATNO 04/06/1966 MENTIR RT 08/03 KAB. SRAGEN
8752 1100449475 HASAN BASRI 07/08/1967 [Link] NO.31 RT.06/05 BREBES KAB. BREBES
8753 1100449477 SUPARMI 27/07/1967 MENTIR RT 08/03 KAB. SRAGEN
8754 1100449479 MAKSUM SODIQ MAHMUDIN IKSAN 27/04/1977 DS. KALIBAGOR RT 03/03 KEBUMEN KAB. KEBUMEN
8755 1100449480 ABDUL BASITH 08/06/1971 WONOYOSO GG.2 RT.14/05 WONOYOSO BUARANKAB. PEKALONGAN
8756 1100449482 MUHAROROH 08/09/1982 WONOYOSO GG.2 RT.14/05 BUARAN KAB. PEKALONGAN
8757 1100449483 SUBIYANTO SARIYADI DARTI 22/11/1972 SUKOHARJO 1/3 WEDARIJAKSA KAB. PATI
8758 1100449485 IKROM KAMAL 25/11/1958 [Link] KERTIJAYAN NO.47 RT.25/09 BUARAN KAB. PEKALONGAN
8759 1100449486 BUDI SUHARTO DJOYO SUWARNO 25/07/1968 DS. KEBUMEN 07/01 KEBUMEN KAB. KEBUMEN
8760 1100449487 NURROHMAN TRI SULISTYANTO 08/06/1975 TEGALAN RT.04/RW.02 KAB. SUKOHARJO
8761 1100449491 BUDI PRASETYO 01/08/1970 DAWUHAN RT 02 RW 03 KAB. PURBALINGGA
8762 1100449492 SITI KHOSIYAH 12/12/1973 KALIWANG RT 02 RW 02 KAB. WONOSOBO
8763 1100449494 AHMAD MUSANGID RIDLOL MUFTI 10/04/1972 JL. KYAI SUHUD NO.14 RT.03/08 KAB. CILACAP
8764 1100449495 FATMA WAHYUNINGSIH 22/06/1970 DAWUHAN RT 02 RW 03 KAB. PURBALINGGA
8765 1100449496 MANUSATUL KHAURO 03/03/1978 JL. KH. SUHUD NO.14 RT03 RW08 KAB. CILACAP
8766 1100449497 SUSIMAN 07/12/1965 KALIWANG RT 02 RW 02 KAB. WONOSOBO
8767 1100449498 EKOWARI SETYOWATI 05/01/1962 BAKUNGAN, N0.09 RT06 RW05 KAB. TEMANGGUNG
8768 1100449500 PUSPITOWATI SUNDARI SOEKARSO 05/03/1973 SUKOHARJO 1/3 WEDARIJAKSA KAB. PATI
8769 1100449502 ELY KURNIAWATI 06/09/1977 GEDAWANG PERMAI E-14 RT.03/04 KOTA SEMARANG
8770 1100449503 BAMBANG SUGITO 11/03/1958 BAKUNGAN NO 09 RT06 RW05 KAB. TEMANGGUNG
8771 1100449506 SUHARDI 18/08/1960 KOMPLEK AKPOL BLOK D-20 RT.07/06 KOTA SEMARANG
8772 1100449507 MASRIKAH KASBULAH DASIMIN 15/01/1959 SUMURTAWANG RT 003 RW 003 KRAGAN KAB. REMBANG
8773 1100449508 DYAH RETNO UTAMININGTYAS 30/01/1961 JL. ARYA MUKTI SELATAN I/617 A RT 1 RW 2 KOTA SEMARANG
8774 1100449509 MOHAMAD NADIRUDIN MUSLIMAN 11/12/1962 LAYANSARI RT03 RW02 KAB. CILACAP
8775 1100449510 SYUKUR HIDAYAT 09/06/1973 GEDAWANG PERMAI E-14 RT.03/04 KOTA SEMARANG
8776 1100449512 RUMIYATI 06/07/1965 LAYANSARI RT.03 RW.02 KAB. CILACAP
8777 1100449513 ISMINAH SIWI BAKRI 19/07/1959 MAGUAN RT 004 RW 001 KALIORI KAB. REMBANG
8778 1100449515 PUJI RAHMAWATI 08/12/1969 KEMBANGARUM RT 10 RW 3 KOTA SEMARANG
8779 1100449517 ENEN NURAENI 12/11/1965 KOMPLEK AKPOL BLOK D-20 RT.07/06 KOTA SEMARANG
8780 1100449519 ARISTIYONO SUNTONO PARJO 06/06/1975 KRASAK RT 05/01 KAB. JEPARA
8781 1100449520 HENIS TAKARINA AHMAD 14/01/1978 KRASAK RT.005/001 KAB. JEPARA
8782 1100449521 SITI ASIYAH 03/11/1958 KEDUNG JANGAN RT.03/03 KOTA SEMARANG
8783 1100449522 MUH SUTIKNO 28/04/1965 NGEKEL 04/02 KAB. KLATEN
8784 1100449524 MINAH 03/05/1960 INDRAJAYA RT.02/04 SALEM KAB. BREBES
8785 1100449530 SRI REJEKI ROCHIYATUN 02/05/1965 NGEKEL 04/02 KAB. KLATEN
8786 1100449531 RONDI DIRONO AGUR 21/04/1961 JLEGONG RT.008/003 KAB. JEPARA
8787 1100449533 WARSENO 13/02/1964 KEDUNGREJO RT 037 / RW 000 KAB. SRAGEN
8788 1100449534 SUPARMIYANTO 07/07/1961 SOKA 03/04 KAB. KLATEN
8789 1100449535 MASMIATUN SUPARWI TAMBAN 26/09/1968 JLEGONG RT.008/003 KAB. JEPARA
8790 1100449537 WAGINEM 05/04/1966 SOKA 03/04 KAB. KLATEN
8791 1100449539 ZAENAL ARIFIN 29/04/1990 SELOPURO RT 001 RW 002 LASEM KAB. REMBANG
8792 1100449540 LASMITAH KUSNIN KIMIN 17/05/1970 SELOPURO RT 001 RW 002 LASEM KAB. REMBANG
8793 1100449542 MUHAMMAD AKMAL ARRAVI' 27/05/1999 KARANGTURI RT 002 RW 003 LASEM KAB. REMBANG
8794 1100449543 UMIROH 05/06/1966 PRAPAG KIDUL RT.01 RW.02 LOSARI KAB. BREBES
8795 1100449546 NURUL HIDAYATIL JANNAH 29/06/1973 KARANGTURI RT 002 RW 003 LASEM KAB. REMBANG
8796 1100449548 ABDUL KODIR 08/04/1958 PRAPAG KIDUL RT.01 RW.02 LOSARI KAB. BREBES
8797 1100449550 GUPPI ISMIYANTO 09/05/1972 DSN. BEJALEN BARAT RT.03/01 BEJALEN KAB. SEMARANG
8798 1100449554 ISNA MARDIYATI 26/04/1966 JL. BALAPULANG RT. 07 RW. 05 KAB. PEMALANG
8799 1100449555 WASTIAH 10/11/1973 DSN. BEJALEN BARAT RT.03/01 BEJALEN KAB. SEMARANG
8800 1100449557 WAKINI 02/04/1958 BODORAN RT 05 RW 02 KAB. WONOSOBO
8801 1100449559 MOHAMAD KHUZAENI MOHAMAD MASDUKI 05/04/1960 WOTBOWONO RT.02/03 KAB. KEBUMEN
8802 1100449560 AMAT BASORI 30/12/1964 BONGSO, RT.01/RW.01 KAB. TEMANGGUNG
8803 1100449562 NAKROWI AHMAT NUH 12/09/1962 BANGSALREJO 2/2 WEDARIJAKSA KAB. PATI
8804 1100449563 SUROH HANDAYANI 07/10/1968 KALIGONDANG RT 02 RW 08 KAB. PURBALINGGA
8805 1100449564 NETY MEILIANAWATI 23/05/1968 GTA [Link] I RT.03/04 TANJUNG TIRTO KAB. PEKALONGAN
8806 1100449567 HERU PURWANTO 10/12/1966 KALIGONDANG RT 02 RW 08 KAB. PURBALINGGA
8807 1100449568 RIYANTO HARTOKO 01/11/1963 [Link] NO.1 RT.03/04 TANJUNG TIRTO KAB. PEKALONGAN
8808 1100449569 PUJI ASTUTI, SPD 07/05/1967 JONAYAN 01/19 KAB. KLATEN
8809 1100449570 NUR IZZI ENDANG ASTUTI 17/01/1965 BOJONG RT 01 RW 03 KAB. PURBALINGGA
8810 1100449572 ASIH ERNAWATI 05/04/1976 PONDOK MAJAPAHIT BLOK V/07 RT.10/04 KAB. DEMAK
8811 1100449573 JUMARI 14/02/1960 KEBUMEN RT.09 RW.03 KAB. BATANG
8812 1100449575 SRI PANGATI PURYADI 15/05/1972 BANGSALREJO 2/2 WEDARIJAKSA KAB. PATI
8813 1100449576 YUDI SAKUNTORO 01/01/1979 PONDOK MAJAPAHIT BLOK V/07 RT.10/04 KAB. DEMAK
8814 1100449578 NUR SETIYADI 26/10/1963 BOJONG RT 01 RW 03 KAB. PURBALINGGA
8815 1100449582 SAIDI, SPD 01/01/1968 JONAYAN 01/19 KAB. KLATEN
8816 1100449585 SUMANTO 05/08/1958 JL. JAYA SERAYU 64 RT.01 RW.04 KAB. BANYUMAS
8817 1100449586 SUMIYATI 01/07/1963 DSN. KAUMAN RT.01 RW.01 KAB. SEMARANG
8818 1100449587 RAHIMAH 27/12/1958 [Link] SUHARSO [Link] RT.5/3 PWTLR KAB. BANYUMAS
8819 1100449589 AMAD URIP 09/01/1963 PURWOREJO RT 03/18 KAB. PURWOREJO
8820 1100449590 MIFTAH UDIN, SH 24/09/1958 BALEDONO RT 06/09 KAB. PURWOREJO
8821 1100449591 NINGSIH WIDAYATI 08/05/1961 [Link] 64 RT. 1/4 PAKUNDEN KAB. BANYUMAS
8822 1100449592 PARINEM 03/04/1960 RIMUN RT. 03/02 LOANO KAB. PURWOREJO
8823 1100449593 SUKAMI NAWIKARSA KADIKRAMA 01/02/1965 PASIR RT.01/01 KAB. KEBUMEN
8824 1100449594 SUWARNI 20/02/1961 PANDEAN RT. 01/03 KAB. SUKOHARJO
8825 1100449595 ARIFIN PRAYITNO 04/02/1960 JL. ABDUL KADIR RT.02 RW.06 KAB. BANYUMAS
8826 1100449596 SUMARNI 17/03/1963 GEDONGAN RT.01/RW.04 KAB. SUKOHARJO
8827 1100449598 HARYANI 18/10/1964 SINE RT 03/04 KAB. SRAGEN
NO NO. PORSI NAMA TANGGAL LAHIR ALAMAT KAB/KOTA KETERANGAN
8828 1100449599 IFFAH SATRIYAWAN 27/08/1970 NGEBRAK, RT.02/RW.04 KAB. TEMANGGUNG
8829 1100449600 SRI NUGRAENI 16/09/1970 JL. ABDUL KADIR RT 02 RW 06 KAB. BANYUMAS
8830 1100449601 USMAN BASORI 07/07/1969 SINE RT 03/04 KAB. SRAGEN
8831 1100449603 SRI MUKANINGSIH 07/04/1970 TLOBONGAN RT 22/06 KAB. SRAGEN
8832 1100449604 PURWATI 31/12/1959 SEDAN 01/10 KAB. MAGELANG
8833 1100449605 SUNARNO 17/02/1959 GEDONGAN RT.01/RW.04 KAB. SUKOHARJO
8834 1100449606 SUGENG DRS 16/06/1968 TLOBONGAN RT 22/06 KAB. SRAGEN
8835 1100449608 BAMBANG WIBOWO 16/09/1967 BLORONG RT. 01 RW. 01 KAB. KARANGANYAR
8836 1100449610 WIWIK RUBIYANTI, DRA 31/12/1968 BLORONG RT. 01 RW. 01 KAB. KARANGANYAR
8837 1100449613 KHALIMATUS SA'DIYAH, SPD 07/07/1979 PURWOMUKTI BARAT V RT.08/01 KOTA SEMARANG
8838 1100449615 SODIMI NUR ISWANTO 31/12/1966 JL. MT. HARYONO NO. 40 RT. 02 RW. 01 KAB. CILACAP
8839 1100449616 KHOIRI,[Link] 20/09/1965 [Link] MUKTI BARAT V RT.08/01 KOTA SEMARANG
8840 1100449617 SITI NGAISAH 05/09/1967 JL. MT. HARYONO NO 40 RT. 02 RW. 01 KAB. CILACAP
8841 1100449620 SRI HANDAYANI 16/03/1981 NEPEN 01/07 KAB. MAGELANG
8842 1100449621 MUHAMMAD MUNADHIRIN 23/09/1975 SIDOLUHUR V RT.03/05 KOTA SEMARANG
8843 1100449625 KUWAT 08/11/1964 PENGGARON KIDUL RT 3 RW 4 KOTA SEMARANG
8844 1100449626 KUSRINI 02/11/1969 PENGGARON KIDUL RT 3 RW 4 KOTA SEMARANG
8845 1100449627 MOECHAMAD WAHYU KRISTIYANTO 17/11/1986 PANJANG RT 02 RW 02 KAB. KUDUS
8846 1100449628 KARYATI KASMO KARJO 07/10/1957 JLEGONG 08/03 KAB. JEPARA
8847 1100449631 SAEFUDIN 28/11/1962 DSN. NGAWINAN RT.03 RW.04 KAB. SEMARANG
8848 1100449632 SRI LESTARI 24/05/1974 DSN. NGAWINAN RT.03 RW.04 KAB. SEMARANG
8849 1100449633 HAFIZH SYAH REZA PAHLEVI 16/02/1996 DSN. NGAWINAN RT.03 RW.04 KAB. SEMARANG
8850 1100449634 JIHAN TASYA NADHIFA 07/10/2001 DSN. NGAWINAN RT.03 RW.04 KAB. SEMARANG
8851 1100449635 SURAJI 17/08/1965 BATIOMBO RT.04 RW.01 KAB. BATANG
8852 1100449636 WARNISIH 03/08/1973 BATIOMBO GLAGAHOMBO RT.04 RW.01 KAB. BATANG
8853 1100449639 SRI RAHAYU 17/03/1968 BANJARKERTA RT 01 RW 02 KAB. PURBALINGGA
8854 1100449640 NANANG KUSDIANTORO 14/05/1979 GANG SLEDRI NO.7 RT.4/6 KOBER KAB. BANYUMAS
8855 1100449641 MUNASIR 12/03/1960 BANJARKERTA RT 01 RW 02 KAB. PURBALINGGA
8856 1100449642 KARSIDI WAKIMIN PASIH 20/08/1968 PATI WETAN 1/3 PATI KAB. PATI
8857 1100449643 INDAH SURYANI MASRUM 15/05/1969 PATI WETAN 1/3 PATI KAB. PATI
8858 1100449647 SUNHAJI KEMAT RATINI 27/03/1961 WOTAN 3/5 SUKOLILO KAB. PATI
8859 1100449648 NISWAH SARMIDI WARSI 01/01/1970 WOOTAN 3/5 SUKOLILO KAB. PATI
8860 1100449649 CHOIRUL HUDA SUNHAJI 02/06/1990 WOTAN 3/5 SUKOLILO KAB. PATI
8861 1100449652 SRI LESTARI 12/10/1969 DEWAN 17/07 KAB. KLATEN
8862 1100449654 SUPRAPTI 30/09/1963 JL. KAHURIPAN BARAT 2 NO 1 RT 02 RW 06 KOTA SURAKARTA
8863 1100449655 ARIPIN 07/12/1965 PADASARI RT. 24/06 JATINEGARA KAB. TEGAL
8864 1100449658 TARILAH 04/04/1969 PADASARI RT. 24/06 JATINEGARA KAB. TEGAL
8865 1100449660 SRI HANDAYANI 15/02/1977 DEWAN 17/07 KAB. KLATEN
8866 1100449665 AGUS MIFTAH 09/08/1959 BANJARSARI RT09 RW.07 KAB. BANYUMAS
8867 1100449666 ENDANG YUWANATRI AGUSTIN 10/08/1965 BANJARSARI RT. 9/7 KAB. BANYUMAS
8868 1100449667 SUKAMTO DASI LASIMAN 03/04/1962 LOGEDE RT 002 RW 001 SUMBER KAB. REMBANG
8869 1100449668 SUMIATUN SARJAN MARKIJAN 06/05/1967 LOGEDE RT 002 RW 001 SUMBER KAB. REMBANG
8870 1100449669 SITI ASIYAH 09/03/1961 KEPAKISAN RT 02 RW 04 KAB. BANJARNEGARA
8871 1100449671 YUSUF ABDULLAH SADJADI 12/03/1961 SUMBER RT 003 RW 001 SUMBER KAB. REMBANG
8872 1100449672 KASIR 15/04/1958 KEPAKISAN RT 02 RW 04 KAB. BANJARNEGARA
8873 1100449673 NGATINI PANIDIN PALIYO 10/12/1967 SUMBER RT 003 RW 001 REMBANG KAB. REMBANG
8874 1100449678 SUMIYARSI SASTRODIHARJO WONGSO IJOYO 04/07/1964 SUMBER RT 001 RW 003 SUMBER KAB. REMBANG
8875 1100449679 ABDUL HAMID SOLIKHAN KASDAN 22/11/1963 SUMBER RT 001 RW 003 SUMBER KAB. REMBANG
8876 1100449680 WARYANI 26/12/1963 [Link] KARANGASEM RT.07 RW.02 KAB. PEMALANG
8877 1100449681 SUTIONO PARMAN SUROSU 18/10/1976 DRESI KULON RT 002 RW 002 KALIORI KAB. REMBANG
8878 1100449682 SAMIATUN SUPARLAN SUPRAPTO 22/08/1983 DRESI KULON RT 002 RW 002 KALIORI KAB. REMBANG
8879 1100449683 MUNZAYANAH MASHUD MUNTORO 27/02/1980 BAJING MEDURO RT 003 RW 001 SARANG KAB. REMBANG
8880 1100449684 MASRIYATUN 30/12/1968 DSN II KARANGASEM RT. 07 RW. 02 KAB. PEMALANG
8881 1100449691 MAUALANA 01/01/1976 DSN. GATON RT.01 RW.07 KAB. SEMARANG
8882 1100449692 EDI SANTOSA 11/05/1960 JL. SATRIO WIBOWO III/43 RT.08/08 KOTA SEMARANG
8883 1100449693 HARLIYAH 01/03/1966 JL. SATRIO WIBOWO III/43 RT.08/08 KOTA SEMARANG
8884 1100449694 SITI NANDARIYAH 17/08/1983 DSN. GATON RT.01 RW.07 KAB. SEMARANG
8885 1100449695 MUTIATUN 05/05/1958 JL. KAUMAN NO. 127 RT 002 / RW 003 KAB. DEMAK
8886 1100449696 [Link], MSI 05/07/1960 JL. JATIRAYA NO.99 RT.03 RW.03 KAB. SEMARANG
8887 1100449697 YUNI ZAHARA HS 05/06/1980 MRANGGEN RTR 02/03 KAB. DEMAK
8888 1100449700 RESMIASIH, BSC 06/10/1959 KEPUH RT. 02/01 KUTOARJO KAB. PURWOREJO
8889 1100449702 MUH TOHIR 18/10/1960 MAITAN RT.02 RW.10 KAB. MAGELANG
8890 1100449704 MARYATUN 07/08/1967 TINGGARJAYA RT.03 RW.09 KAB. BANYUMAS
8891 1100449705 KIRSAM 05/04/1968 TINGGARJAYA RT. 3/9 KAB. BANYUMAS
8892 1100449706 KASWAN 31/12/1960 WONOSARI RT.17 RW.08 KAB. KENDAL
8893 1100449707 KOMSATUN 06/04/1962 DSN. TIGOREJO RT.02 RW.08 KAB. SEMARANG
8894 1100449710 SITI ROPI'AH 20/10/1966 WONOSARI RT.17 RW.08 KAB. KENDAL
8895 1100449712 NUROKHMAN AZIS 16/12/1968 GAMBARSARI RT.01 RW.01 KAB. BANYUMAS
8896 1100449714 MUJIARTI 22/05/1970 GAMBARSARI RT 1 RW I KAB. BANYUMAS
8897 1100449716 SITI BAWON 28/07/1979 KARANGSARI RT 03/01 KUTOWINANGUN KAB. KEBUMEN
8898 1100449717 WIYONO HERY KUSNANTO 23/12/1964 SAWAHAN BARU RT.01/RW.09 KAB. SUKOHARJO
8899 1100449721 ENDANG WARSIKI 11/03/1968 SAWAHAN BARU RT.01/RW.09 KAB. SUKOHARJO
8900 1100449724 SUTIMAH 11/08/1957 RANCAMAYA RT. 3/1 KAB. BANYUMAS
8901 1100449725 MUSLIHAN SUKILAN MUSRI'AH 12/03/1958 BAJING MEDURO RT 003 RW 001 SARANG KAB. REMBANG
8902 1100449726 SITI NURHIDAYATI 31/01/1969 NGABLAK RT 01 RW 07 KAB. BOYOLALI
8903 1100449727 NASHIR NAZZALA 30/11/1992 NGABLAK RT 01 RW 07 KAB. BOYOLALI
8904 1100449728 ISTIADAH 22/11/1979 CERIH RT.03/02 JATINEGARA KAB. TEGAL
8905 1100449729 ASROFI 05/10/1973 CERIH RT.03/02 JATINEGARA KAB. TEGAL
8906 1100449732 NOOR FAIQ TAMRIN 15/05/1968 SUNGGINGAN RT 02 RW 01 KAB. KUDUS
8907 1100449733 AGUS SUPRIHANTO 18/08/1971 JL. MALABAR SELATAN 3 RT 004 / RW 017 KAB. DEMAK
8908 1100449734 DANO 06/09/1969 GUCI RT.01/03 BUMIJAWA KAB. TEGAL
8909 1100449736 NURANI 26/09/1970 JL. RAYUNG KUSUMAN RT.01/05 KAB. DEMAK
8910 1100449737 MUSLIKUN 01/07/1957 SADAKAN LOR RT. 03 RW. 07 KAB. KARANGANYAR
8911 1100449738 MOHAMAD NUR AMIN 01/05/1967 JL. RAYUNG KUSUMAN RT.01/05 KAB. DEMAK
8912 1100449741 SURATI 31/12/1967 SADAKAN LOR RT. 03 RW. 07 KAB. KARANGANYAR
8913 1100449742 SRI MUJIHATIN 26/11/1967 BANTENGAN RT 05 RW 03 KAB. BOYOLALI
8914 1100449743 HANAFI HATTA 25/09/1959 TUWUHAN 01/06 KAB. KLATEN
8915 1100449745 SUPANTINI 11/09/1962 TUWUHAN 01/06 KAB. KLATEN
8916 1100449752 ALFIYAH 04/06/1976 PURBALINGGA LOR RT 03 RW 03 KAB. PURBALINGGA
8917 1100449754 AHROM BALHI 12/03/1972 PURBALINGGA LOR RT 03 RW 03 KAB. PURBALINGGA
8918 1100449756 SUKARSO MADMUSLIM ALIREJA 13/08/1965 KEDAWUNG RT.01/03 KAB. KEBUMEN
8919 1100449758 SAYEKTI WAHYU PAWESTRI 02/02/1975 JL. GONDANG TIMUR III RT 2 RW 2 KOTA SEMARANG
8920 1100449759 EDI GUNAWAN 16/07/1974 JL. GONDANG TIMUR III RT 2 RW 2 KOTA SEMARANG
8921 1100449760 MUNTOLIB 19/10/1963 DUSUN SOMOPURO RT.02 RW.07 KAB. KENDAL
8922 1100449761 AHMAD TOLKAH MANSUR 04/03/1972 GTA [Link] BI/66 RT.02/04 TANJUNG KAB. PEKALONGAN
8923 1100449762 NAWANGSASI SRI AGUSTININGSIH 16/08/1969 DUSUN SUMOPURO RT.02 RW.07 KAB. KENDAL
8924 1100449763 RUKAIDAH AL NUR HADAH 09/04/1968 BOGOREJO RT 003 RW 002 SEDAN KAB. REMBANG
8925 1100449764 SITI MAESAROH SAJIMAN RUSDI 11/01/1973 DS. KEDAWUNG RT 01/03 PEJAGOAN KAB. KEBUMEN
8926 1100449765 ESTI MULARTI 14/02/1968 SUSUKAN NO.57 RT.04 RW.01 KAB. MAGELANG
8927 1100449766 SUGIYAN 04/03/1962 DUSUN SEKLOTOK RT.02/RW.01 KAB. KENDAL
8928 1100449767 MURTOFINGAH SAJIMAN RUSDI 25/08/1976 PETANAHAN RT.01/05 KAB. KEBUMEN
8929 1100449768 ACHMAD IRFAI SANMOHALI 05/05/1966 DS. PETANAHAN RT 01/05 PETANAHAN KAB. KEBUMEN
8930 1100449769 LAILI WIDIASTUTI FAJRIANI 02/08/1980 PADAAN RT.02/05 KOTA SEMARANG
8931 1100449772 SUGIARTI BASONO BUKARI 31/12/1963 KIRIG RT 01 RW 03 KAB. KUDUS
8932 1100449775 WANURI JAYIN TAMIN 05/06/1968 BOGOREJO RT 003 RW 002 SEDAN KAB. REMBANG
8933 1100449776 DISRI 31/12/1971 GUCI RT.01/03 BUMIJAWA KAB. TEGAL
8934 1100449777 MASROCHAN 04/03/1979 PALEBON RAYA NO. 96RT 8 RW 3 KOTA SEMARANG
8935 1100449778 RASMINI NGADIMIN ATIN 20/07/1976 KEBLORAN RT 003 RW 002 KRAGAN KAB. REMBANG
8936 1100449779 SUKARISIH 31/12/1959 PALEBON RAYA NO. 96 RT 1 RW 11 KOTA SEMARANG
8937 1100449780 SUTARSO 01/05/1966 SUDAGARAN RT. 5/1 KAB. BANYUMAS
8938 1100449782 SITI FATIMAH 08/08/1965 CONGOL RT 11 RW 04 KAB. BOYOLALI
8939 1100449783 DYAH MARYUNINGSIH 10/12/1961 SUDAGARAN RT.05 RW.01 KAB. BANYUMAS
8940 1100449784 DALDIRI 17/02/1962 CONGOL RT 11 RW 04 KAB. BOYOLALI
8941 1100449785 NUR KOMAR 12/03/1965 SUMPIUH RT. 4/1 KAB. BANYUMAS
8942 1100449786 SARMI KARJIMIN SUTO 10/01/1972 KEBLORAN RT 003 RW 002 KRAGAN KAB. REMBANG
8943 1100449787 SITI DIYAH SETYORINI 16/06/1974 GTA [Link] B.I/66 RT.02/04 TANJUNG KAB. PEKALONGAN
8944 1100449788 MUNDIR SAYADI SUTO 11/06/1965 KARANGHARJO RT 002 RW 001 KRAGAN KAB. REMBANG
8945 1100449791 TRI RAHAYU SUMARNI 15/01/1958 DK. KRAJAN RT.11/RW.04 KAB. KENDAL
8946 1100449792 SITI SUGIYARTI 15/01/1963 KARANGTENGAH RT 002 RW 003 KAB. BANJARNEGARA
8947 1100449793 SUGIYATNO 04/03/1960 MANDUNGAN RT. 02 RW. 05 KAB. KARANGANYAR
8948 1100449795 HARI NURDI 06/05/1972 SUROBAYAN 06/02 KAB. KLATEN
8949 1100449796 SUPIYAH SARMADI DJALIMIN 17/12/1967 KARANGHARJO RT 002 RW 001 KRAGAN KAB. REMBANG
8950 1100449797 WARSONO 19/04/1959 JL. TRUNTUM NO.32 RT.05 RW.03 KOTA PEKALONGAN
8951 1100449798 DARYANTI 07/12/1958 MANDUNGAN RT. 02 RW. 05 KAB. KARANGANYAR
8952 1100449799 YANTO SUHARTO, [Link] 22/08/1959 JL. SERAYU NO. 15 RT. 20/07 SLAWI WETAN KAB. TEGAL
8953 1100449800 YUDHIANA HESTI NURAINI, SPD, MM 28/05/1971 TEGALSARI BARAT 4/22 RT.03/12 KOTA SEMARANG
8954 1100449801 SUSWATIAH 27/02/1967 SABRANGAN RT.03/03 PLALANGAN KOTA SEMARANG
8955 1100449802 ROBBERTO AGUNG NUGROHO 15/10/1969 TEGALSARI BARAT 4/22 RT 3 RW 12 KOTA SEMARANG
NO NO. PORSI NAMA TANGGAL LAHIR ALAMAT KAB/KOTA KETERANGAN
8956 1100449803 SITI FARKHAH, [Link] 08/08/1963 JL. SERAYU NO.15 RT. 20/07 SLAWI WETAN KAB. TEGAL
8957 1100449804 WARDOYO 15/02/1958 SETEPENG, RT02 RW03 KAB. TEMANGGUNG
8958 1100449807 SITI HARTINAH 11/06/1963 SETEPENG , RT02 RW03 KAB. TEMANGGUNG
8959 1100449811 SARJUNI 07/08/1960 BREBES KAB. BREBES
8960 1100449812 HAMIDAH 26/07/1961 JL MERPATI 17 RT. 02 RW. 05 KAB. KARANGANYAR
8961 1100449813 SARMA'I 07/08/1957 JL. KAKAK TUA PEGUNDAN RT. 04 RW. 06 KAB. PEMALANG
8962 1100449814 DANURI 02/08/1964 KUBANGSARI RT.01/RW.07 KETANGGUNGAN KAB. BREBES
8963 1100449816 SARWIYATUN 20/03/1967 GADING SANTREN 02/09 KAB. KLATEN
8964 1100449817 SUYITNO SUMERI KASANMURJI 21/03/1959 KALIREJO RT.01/04 KAB. KEBUMEN
8965 1100449818 SUHERTI 02/08/1964 KUBANGSARI RT.07/RW.01 KETANGGUNGAN KAB. BREBES
8966 1100449819 TRI SULISTYOWATI SUPARDJAN 17/08/1962 DS. KALIOREJO RT 01/04 KEBUMEN KAB. KEBUMEN
8967 1100449823 SUWARNI PANI SAWI 11/12/1965 KELET 02/01 KAB. JEPARA
8968 1100449825 NOK TERANG TUTIATY 02/10/1962 JL. GATOT SUBROTO 107A RT 04/03 KAB. BLORA
8969 1100449828 MUHAMMAD SUHARTO 30/04/1959 JL. GATOT SUBROTO 107A RT 04/03 KAB. BLORA
8970 1100449831 ANUGRAH ATMAJA PUTRA 09/08/1996 SABRANGAN RT 03 RW 3 KOTA SEMARANG
8971 1100449836 SUYANTI 10/10/1961 JL. GUNUNG JATI SELATAN NO. 345 RT.09/02 KOTA SEMARANG
8972 1100449837 NGATIMIN 25/05/1960 SABRANGAN RT.03/03 PLALANGAN KOTA SEMARANG
8973 1100449839 TUKIMAN 09/11/1963 JL. GUNUNGJATI SELATAN NO. 345 RT 9 RW 2 KOTA SEMARANG
8974 1100449840 AGUS PRISTIYANTO, SH 11/07/1964 CANDIBARU RT 35/02 KAB. SRAGEN
8975 1100449841 YUNI HADI NINGSIH 17/06/1967 CANDIBARU RT 35/02 KAB. SRAGEN
8976 1100449843 ENDAH RETNO NAWANGSIH 22/10/1965 JL. PELANGI UTARA III KOTA SURAKARTA
8977 1100449845 AGUS RUDIANTO 15/08/1964 JL. PELANGI UTARA III NO.8 RT.06 RW.28 KOTA SURAKARTA
8978 1100449847 WARTINI 08/06/1963 DUSUN SUDAGARAN RT. 02 RW. 02 KAB. CILACAP
8979 1100449848 MARIYANTO 16/06/1977 PANDEYAN 05/03 KAB. KLATEN
8980 1100449849 JAMILAH 02/11/1969 KEPODANG TIMUR II. B-103 RT.03/12 KOTA SEMARANG
8981 1100449850 SUWARNO 27/06/1959 DUSUN SUDAGARAN RT. RT. 02 RW. 02 KAB. CILACAP
8982 1100449851 SRI WINANING, DRA, SPD 15/06/1961 SOKA 03/02 KAB. KLATEN
8983 1100449854 SUWARSIYAH 21/12/1960 DANARAJA RT 001 RW 001 KAB. BANJARNEGARA
8984 1100449855 TUTIK PURBANI 10/12/1976 PANDEYAN 05/03 KAB. KLATEN
8985 1100449858 HANIFAH YULIANI 30/12/1982 KRAMATSARI I NO. 20 RT. 1 RW.1 KOTA PEKALONGAN
8986 1100449859 PUJI SISWOYO 27/11/1964 KEPODANG TIMUR II B-103 KOTA SEMARANG
8987 1100449860 AMIN SYAHRI 02/06/1967 JL. GERILYA NO.88 A RT.04 RW.04 KAB. CILACAP
8988 1100449861 TURIPAH SABAR BESAR 15/07/1971 KERSO 03/02 KAB. JEPARA
8989 1100449863 YUNI SUGIASTI 14/06/1966 JL. GERILYA NO. 88A, RT.04 RW.04 KAB. CILACAP
8990 1100449864 TUTI WAHYUNINGSIH 28/02/1970 PERUM WONOREJO JL MANGGA 6/1 RT. 7/21 KAB. KARANGANYAR
8991 1100449865 PURWANTI 14/07/1967 WONOSARI RT.01/08 KOTA SEMARANG
8992 1100449867 RUMIATI 05/12/1973 [Link] TANDANG RT.05/08 KOTA SEMARANG
8993 1100449868 SATINAH DUL ROHMAN KERTADIKRAMA 22/07/1957 DS JOHO RT 04/02 ADIMULYO KAB. KEBUMEN
8994 1100449869 KALIMIN 15/05/1961 JL. MELON NO. 17 MANTENAN BARU RT.01/1 KAB. MAGELANG
8995 1100449870 ERNA HERAWATI 29/04/1967 JL MELON NO.17 MANTENAN BARU 01/01 KAB. MAGELANG
8996 1100449872 KUNTO SRIYONO 23/06/1959 LENGKONG RT 008 RW 001 KAB. BANJARNEGARA
8997 1100449873 ROKHMAN 09/06/1965 KEMBANGARUM RT.03/05 KAB. DEMAK
8998 1100449874 JUWARTI 09/01/1964 LENGKONG RT 008 RW 001 KAB. BANJARNEGARA
8999 1100449875 SUJATMOKO 28/04/1972 [Link] TANDANG RT.05/08 KOTA SEMARANG
9000 1100449876 MARSINI 08/06/1965 KEMBANGARUM RT.03/05 KAB. DEMAK
9001 1100449878 SUTOMO KASAN HADI 26/01/1965 KERSO RT.003/002 KAB. JEPARA
9002 1100449879 ISTIATI MUSLIAH ZAINI 24/07/1960 MANGUNEGARA RT 05 RW 03 KAB. PURBALINGGA
9003 1100449885 NASRUN 19/08/1967 TLODAS RT.01/RW.01 KAB. KENDAL
9004 1100449887 INNI ROSYIDA 29/09/1972 BUKIT CEMARA INDAH I/CA-02 RT.02/13 KOTA SEMARANG
9005 1100449888 SURATI 12/09/1964 JATEN RT 06 RW 03 KAB. BOYOLALI
9006 1100449890 LOSO SUNARSO 03/04/1959 JATEN RT 06 RW 03 KAB. BOYOLALI
9007 1100449892 MALIKAH 28/08/1963 PAGIREN RT.27 RW.13 KAB. MAGELANG
9008 1100449893 JOKO MULYONO 17/10/1966 KEDON RT 02 RW 01 KAB. BOYOLALI
9009 1100449897 INDAH RETNOWATI 11/12/1969 KEDON RT 02 RW 01 KAB. BOYOLALI
9010 1100449900 RUMIYATNO 22/12/1969 TEGALREJO RT 01/01 KAB. PURWOREJO
9011 1100449903 ILLIYAH FATMAH 12/10/1970 BLERONG RT 03 RW 02 KAB. DEMAK
9012 1100449904 NOOR RIDHO SOLICHUL HADI 11/07/1971 GOLANTEPUS RT.05 RW.03 KAB. KUDUS
9013 1100449905 EKLASATI 07/03/1962 GAYAMPRIT RT 03 RW 01 KAB. BOYOLALI
9014 1100449906 ABDUL JALIL 05/06/1969 BLERONG RT 03 RW 02 KAB. DEMAK
9015 1100449910 ERYANTI ALI ASYHAR 07/03/1977 GOLANTEPUS RT 05 RW 03 KAB. KUDUS
9016 1100449912 SA'RONI MUSTOFA SUHADI 24/10/1971 TENGGELES RT.03 RW.05 KAB. KUDUS
9017 1100449914 SITI FATIMAH MUNDZAKIR 18/05/1982 TENGGELES RT.03 RW.05 KAB. KUDUS
9018 1100449915 SUYONO 06/11/1963 DSN. POTEN RT.03 RW.01 SIWAL KAB. SEMARANG
9019 1100449916 HADI SUCIPTO 07/02/1971 KARANG TENGAH RT.02 RW.01 KAB. SEMARANG
9020 1100449917 DASIYAH 01/09/1970 BANDUNGREJO RT. 02/04 BAYAN KAB. PURWOREJO
9021 1100449919 DASPEN 13/08/1967 CIMUNDING RT.09/02 BANJARHARJO KAB. BREBES
9022 1100449921 DWI HENIYANTI 28/08/1978 NGLOROK RT 002 / RW 003 KAB. DEMAK
9023 1100449922 NASORI 12/04/1962 CIMUNDING RT.09/02 BANJARHARJO KAB. BREBES
9024 1100449925 TEGUH BUDI RAHARJO 11/05/1968 BANDUNGREJO RT 02/04 KAB. PURWOREJO
9025 1100449926 SRI LESTARI 12/07/1967 SRAGO CILIK 03/06 KAB. KLATEN
9026 1100449927 PONIYANTO 12/07/1964 SRAGO CILIK 03/06 KAB. KLATEN
9027 1100449928 WARNOSIN 16/04/1959 KEMURANG WETAN RT.03/06 TANJUNG KAB. BREBES
9028 1100449929 CASTRI 06/09/1963 KEMURANG WETAN RT.03/06 TANJUNG KAB. BREBES
9029 1100449930 SRI HARYATI 25/01/1958 KADILANGU RT.02/03 KAB. DEMAK
9030 1100449933 YUNI ASTUTI 27/06/1973 JL MURIA C3/20 PERUM JOSROYO RT. 3/20 KAB. KARANGANYAR
9031 1100449934 SRI NURYANTI 26/12/1975 WINONG LOR RT 02/04 KAB. PURWOREJO
9032 1100449935 SANTOSO TRI HANANTO 24/09/1969 JL MURIA C3/20 PERUM JOSROYO RT. 3/20 KAB. KARANGANYAR
9033 1100449936 SUCI MURNI 10/08/1975 KENDALDOYONG RT. 03 RW. 04 KAB. PEMALANG
9034 1100449939 TUKUL NGATIJO 25/01/1958 BENGLE RT 10 RW 05 KAB. BOYOLALI
9035 1100449940 BAMBANG SUBIANTORO 19/12/1961 KARANG TENGAH RT.04/RW.04 KAB. KENDAL
9036 1100449943 RUPA'I 17/12/1971 LEMAH DUWUR RT.03 RW.04 KAB. PEMALANG
9037 1100449944 RIFIANA 22/06/1969 KARANG TENGAH RT.04/RW.04 KAB. KENDAL
9038 1100449945 SAFARIYAH 14/10/1963 [Link] [Link] RT.21/04 BENER KAB. PEKALONGAN
9039 1100449946 MUSAENI 12/06/1960 [Link] GG. NANAS RT.21/04 BENER KAB. PEKALONGAN
9040 1100449947 MASRIATUN TASMAN SUMOWIYOTO 09/07/1967 LEBAK 03/02 KEC. PAKIS AJI KAB. JEPARA
9041 1100449949 AMBARWATI 04/11/1978 KEMBANG 07/02 KAB. KLATEN
9042 1100449950 MALIKAH 11/02/1960 REJOSARI RT 04 RW 03 KAB. DEMAK
9043 1100449951 SUWAR SUHONO SUPRIYADI 24/06/1963 LEBAK 03/02 KEC. PAKIS AJI KAB. JEPARA
9044 1100449952 ISKAK 05/01/1960 REJOSARI RT 04 RW 03 KAB. DEMAK
9045 1100449953 WAWAN PRIYAJATMIKA, SH, MKN 21/04/1970 KEMBANG 07/02 KAB. KLATEN
9046 1100449954 AMAT TARYONO 07/12/1968 WINONG LOR RT. 02/04 GEBANG KAB. PURWOREJO
9047 1100449955 MAGHFUROH NUR SYAHID 20/07/1982 BANGSRI 03/07 KAB. JEPARA
9048 1100449956 ZAENAL ARIF ROZI 13/09/1971 BANGSRI 03/07 KAB. JEPARA
9049 1100449957 WASIDI 31/12/1969 SENDEN RT08 RW01 KAB. TEMANGGUNG
9050 1100449960 JAMILATUN SYAKUR DAKI 23/08/1973 SIDOMULYO RT 001 RW 001 SEDAN KAB. REMBANG
9051 1100449961 SOBIRIN 08/03/1964 LEBO NO.03 RT.03 RW.02 KAB. BATANG
9052 1100449962 BAROKAH 05/12/1967 LEBO NO.03 RT.03 RW.02 KAB. BATANG
9053 1100449964 ZAENI MUSLIM MASTUR 12/12/1964 SIDOMULYO RT 001 RW 001 SEDAN KAB. REMBANG
9054 1100449966 SOFIYATUN 21/09/1963 KARANGSARI KENDAL RT.05/RW.03 KAB. KENDAL
9055 1100449967 WAHYU RETNOWATI 23/02/1963 NAYAN RT. 01 RW. 08 KAB. KARANGANYAR
9056 1100449968 MUSTARICHAH 24/09/1970 DUKUN RT 05 RW 04 KAB. DEMAK
9057 1100449970 PUJI ZAMROH 23/11/1974 KARANGSARI KENDAL RT.05/RW.03 KAB. KENDAL
9058 1100449971 JOKO PRAYITNO 27/11/1972 TANON RT 07/11 KAB. SRAGEN
9059 1100449972 NUR MASKUR 03/02/1964 DUKUN RT 05 RW 04 KAB. DEMAK
9060 1100449973 SAYIDATI 04/12/1974 TANON RT 07/11 KAB. SRAGEN
9061 1100449975 MUHAMMAD RIJAL AROSYID 23/12/1992 KARANGSARI KENDAL RT.05/RW.03 KAB. KENDAL
9062 1100449978 DIYAN RASIKHAH 14/06/1994 JL. DIENG NO 134 RT 03 RW 10 KAB. WONOSOBO
9063 1100449983 LAKSMI SIWI DESTIYANI 18/12/1972 JL. DIENG NO 134 RT 03 RW 10 KAB. WONOSOBO
9064 1100449984 JAKA AGUS SULASNA, SPD 17/08/1959 PANDEYAN 04/02 KAB. KLATEN
9065 1100449988 ISTATI 12/12/1962 PANDEYAN 04/02 KAB. KLATEN
9066 1100449990 AHMAD ROYANI ABDUR ROHMAN 27/07/1973 KARAS RT 001 RW 002 SEDAN KAB. REMBANG
9067 1100449996 FARIKHA 25/05/1968 PENGGARUTAN RT. 03/01 BUMIAYU KAB. BREBES
9068 1100449997 SRIYANTI 23/05/1960 TAMBAHREJO RT 03 RW 01 KAB. BLORA
9069 1100449999 ABDUL ROKHIM, [Link], [Link] 15/07/1963 PENGGARUTAN RT. 03/01 BUMIAYU KAB. BREBES
9070 1100450000 HASYIM 12/01/1971 KEPUTON RT.01 RW.02 KAB. BATANG
9071 1100450001 SYAIFUDIN ZUHRI 18/02/1968 BANARAN RT 07 KAB. SRAGEN
9072 1100450003 WINARNI 29/07/1975 BANARAN RT 07 KAB. SRAGEN
9073 1100450004 MUHAMMAD AN 04/11/1958 BENDOKOBONG RT 05 RW 02 KAB. BOYOLALI
9074 1100450006 SRIYANTI 04/07/1972 JL. GATOT SUBROTO 2 NO 42 RT 01/02 KAB. BLORA
9075 1100450007 NINIK SUNARTI 01/01/1966 BENDOKOBONG RT 05 RW 02 KAB. BOYOLALI
9076 1100450008 WAHID HASIM 06/10/1990 KABUTUH RT 08 RW 04 KAB. WONOSOBO
9077 1100450009 NUR HIDAYATI 08/07/1969 KABUTUH RT 08 RW 04 KAB. WONOSOBO
9078 1100450011 NUR TITIN SUMARNI 04/04/1961 SAWAHJOHO RT.09 RW.04 KAB. BATANG
9079 1100450013 DRS. WIDODO 05/03/1969 SIGOROK RT. 08 RW. 05 KAB. PEMALANG
9080 1100450014 MISRON 11/07/1965 KEDUNGDOWO RT 02 KAB. SRAGEN
9081 1100450015 RATIH HASTUTI 11/04/1974 KEDUNGDOWO RT 02 KAB. SRAGEN
9082 1100450016 EPON SUMAR SULISTIANING 10/03/1975 [Link] RT.08 RW.05 KAB. PEMALANG
9083 1100450017 KATMINI, DRA. 06/07/1968 JL. BALI 4 RT. 03/06 GROBOG KULON KAB. TEGAL
NO NO. PORSI NAMA TANGGAL LAHIR ALAMAT KAB/KOTA KETERANGAN
9084 1100450018 TRIONO 09/04/1968 JL. BALI 4 RT. 03/06 GROBOG KULON KAB. TEGAL
9085 1100450021 DWI WURYATNI HARYUNIASIH 09/06/1973 JL. WIJAYA KUSUMA 12 RT. 03/05 KUDAILE KAB. TEGAL
9086 1100450024 AGUS HARIRI ANWARUDIN 01/10/1981 PLUMBON RT.05/05 KAB. KEBUMEN
9087 1100450025 MUJITO ARIFA'I 31/12/1958 MEKARSARI, RT.05/RW.02 KAB. TEMANGGUNG
9088 1100450026 SUMIYATI 30/11/1964 JL. VETERAN NO. 37 PURWOREJO RT 04/05 KAB. PURWOREJO
9089 1100450027 ROCHMAT SOFYAN MUHAMMAD SULKIN 24/07/1978 RENDENG RT 03 RW 02 KAB. KUDUS
9090 1100450028 ANI HIDAYATI NOOR 09/01/1978 RENDENG RT.03 RW.02 KAB. KUDUS
9091 1100450030 AKHORI 05/09/1962 KEPUTON RT.01 RW.01 KAB. BATANG
9092 1100450031 LILIK HARIYANTO 25/01/1989 DESA TAMBAKSARI RT 003 / RW 007 KAB. BLORA
9093 1100450032 IDA LUGITO 14/04/1976 KEDUNGSEGOG RT.01 RW.01 KAB. BATANG
9094 1100450033 SRI WAHYUNI 15/03/1964 NGAWEN RT 03 RW 07 KAB. BLORA
9095 1100450034 EKI SETYANINGSIH 19/06/1975 KEDUNGSEGOG RT.01 RW.01 KAB. BATANG
9096 1100450037 NUR FUADAH 23/12/1973 TEGALSARI PERBALAN RT.10/04 KOTA SEMARANG
9097 1100450038 SUMARNO YASAREJA YASAKRAMA 05/07/1967 SEMONDO RT 03/03 GOMBONG KAB. KEBUMEN
9098 1100450041 TUTI LESTARI 12/08/1961 JL. SADEWA II BLOK C NO 14 RT 01 RW 04 KAB. PURBALINGGA
9099 1100450042 KHOPIPAH 04/07/1966 KEPUTON RT.01 RW.01 KAB. BATANG
9100 1100450044 NURYANI 10/03/1969 KARANGWUNI RT. 04 RW. 07 KOTA MAGELANG
9101 1100450045 SUFIYANAH SODIKIN MADMUKSIN 26/09/1969 DS. SEMONDO RT 03/03 GOMBONG KAB. KEBUMEN
9102 1100450046 PUJI HARSIWI 04/09/1968 JL. BLEWAH RAYA I NO.16 B RT 02 RW 07 KOTA SURAKARTA
9103 1100450047 POERWONO KARSONO 06/08/1957 JL. SADEWA II BLOK C NO 14 RT 01 RW 04 KAB. PURBALINGGA
9104 1100450049 SITI FATIMAH 03/01/1971 SARIMULYO RT 02 RW 01 KAB. DEMAK
9105 1100450050 ABDUL BASHIR 24/12/1961 SARIMULYO RT 02 RW 01 KAB. DEMAK
9106 1100450051 PARMUJI 07/07/1963 KARANGWUNI RT. 04 RW. 07 KOTA MAGELANG
9107 1100450052 SARJANA 27/06/1966 JL. BLEWAH RAYA I NO 16 B RT 02 RW 07 KOTA SURAKARTA
9108 1100450053 SOLIHIN 10/05/1971 CABEAN RT 01 RW 02 KAB. DEMAK
9109 1100450057 MUDDIROH 11/07/1968 PEKAUMAN KULON RT.01/01 DUKUHTURI KAB. TEGAL
9110 1100450059 TRIJOKO 04/06/1962 DK. TEGALSARI RT.03/RW.03 KAB. SUKOHARJO
9111 1100450060 NURSIDIK 27/01/1963 PEKAUMAN KULON RT.01/01 DUKUHTURI KAB. TEGAL
9112 1100450061 WIJI 01/06/1966 DK. TEGALSARI RT.03/RW.03 KAB. SUKOHARJO
9113 1100450063 KUSWIYONO 01/12/1967 TEGALSARI PERBALAN RT 10 RW 4 KOTA SEMARANG
9114 1100450064 MUNAROH 24/01/1960 SUBAH [Link] RT.04 RW.03 KAB. BATANG
9115 1100450065 SUKADI 03/03/1964 KEBAK RT. 02 RW. 03 KAB. KARANGANYAR
9116 1100450066 DARTININGSIH 27/10/1974 CABEAN RT 01 RW 02 KAB. DEMAK
9117 1100450067 MUHAMMAD ARIF FIBRIANA 23/02/1974 TUNGGULREJO 01/03 KAB. GROBOGAN
9118 1100450068 NUR HAYATI 28/03/1977 TUNGGULREJO 01/03 KAB. GROBOGAN
9119 1100450069 SRI MULYANI 16/07/1967 KEBAK RT. 02 RW. 03 KAB. KARANGANYAR
9120 1100450071 FEBRI ADI DARMAWAN 17/02/1993 PUNUKAN RT 003 / RW 015 KAB. KARANGANYAR
9121 1100450072 YASIN SULKAN SUYAT 06/07/1962 PAYAMAN RT 01 RW 03 KAB. KUDUS
9122 1100450073 GUS ULIN NUHA AZKA 09/06/1971 TRIMULYO RT 02/06 KAB. DEMAK
9123 1100450074 NURTI NAWI AL NGADINI 17/10/1969 PASURUHAN KIDUL RT 01 RW 01 KAB. KUDUS
9124 1100450077 SUMIYATI SUKIN WIRO JASMIN 07/02/1966 PAYAMAN RT 01 RW 03 KAB. KUDUS
9125 1100450080 WINARNO DWI ANTORO 09/06/1958 BAWANG. RT. 004/006 KAB. BANJARNEGARA
9126 1100450084 SUBANDIYAH 01/12/1964 JEKETRO 04/02 KAB. GROBOGAN
9127 1100450085 NARTO, SAG 17/07/1960 PONDOK RT 03 KAB. SRAGEN
9128 1100450086 MENUK WIDAYATI 24/01/1969 PONDOK RT 03 KAB. SRAGEN
9129 1100450088 SUHARNO WARDANI SUHARNI 03/08/1959 KEMUDO 02/10 KAB. KLATEN
9130 1100450089 SRI SUWARNI 05/05/1966 MADYANTORO RT 02 RW 07 KAB. KARANGANYAR
9131 1100450091 SULIYEM 12/09/1957 WIDURI 06/07 KAB. GROBOGAN
9132 1100450093 MUNTAMAH ZAHLI WAHID 27/05/1958 SAMBIROTO RT 001 RW 001 SEDAN KAB. REMBANG
9133 1100450096 LARTRI WINARTI 07/09/1959 BUTUH RT 30/12 KAB. SRAGEN
9134 1100450097 ABDUL ROZAK MASHUDI FAHRURROZI 28/05/1968 SAMBIROTO RT 001 RW 001 SEDAN KAB. REMBANG
9135 1100450098 SRI YANTI HAPSARI 13/07/1958 JL JERUK TIMUR I / 2A RT 02 RW 06 KOTA MAGELANG
9136 1100450100 MARLIN KASMOREJO KASMIN 09/04/1962 WIROYUDAN RT 02 RW 05 KOTA SALATIGA
9137 1100450102 FARIDHOH FAOZI MOHAMMAD FADIL 11/03/1979 SAMBIROTO RT 001 RW 001 SEDAN KAB. REMBANG
9138 1100450103 KALIMAH 11/11/1957 KERSAN RT.02/RW.07 KAB. KENDAL
9139 1100450104 HAFIZHAH WINDA PUTRI 09/01/2002 NUSAWUNGU NO. 335 RT.004 RW.01 KAB. CILACAP
9140 1100450109 PAMIYATUN WINARSIH 07/08/1972 NUSAWUNGU NO.335 RT.04 RW.01 KAB. CILACAP
9141 1100450110 MOHAMAD SALMAN H 10/12/1959 NGUNUT RT. 01 RW. 06 KAB. KARANGANYAR
9142 1100450111 BUDIYANTO 08/04/1968 GENDENG GRIYA TIMOHO NO.28 YK RT.85 RW.20KAB. CILACAP
9143 1100450113 KANISAH 31/12/1958 DANASARI RT. 06/01 BOJONG KAB. TEGAL
9144 1100450114 CHORIDAH NAHROWI ZUHDI 08/12/1965 PAMOTAN RT 003 RW 005 PAMOTAN KAB. REMBANG
9145 1100450115 SUPARMI 22/04/1962 NGUNUT RT. 01 RW. 06 KAB. KARANGANYAR
9146 1100450118 ENDANG MURDIYANTI 30/01/1966 KALORAN RT. 03 RW. 05 KAB. WONOGIRI
9147 1100450121 WARTADI 18/09/1965 KALORAN RT 03 RW. 05 KAB. WONOGIRI
9148 1100450122 RAMINAH KASTRO KEMI 01/01/1968 GEMIRING LOR 02/02 KAB. JEPARA
9149 1100450123 SUGIANTI 08/06/1958 NGUNUT RT. 01 RW. 06 KAB. KARANGANYAR
9150 1100450124 RAHAYU SUMARDIYANTI, [Link] 13/01/1972 KARANGJATI RT.07/01 TARUB KAB. TEGAL
9151 1100450126 SUWARSONO, [Link] 31/03/1968 KARANGJATI RT.07/01 TARUB KAB. TEGAL
9152 1100450127 SITI MARYAM 24/07/1961 PERENG RT 01 RW 01 KAB. BOYOLALI
9153 1100450131 MAULAN KISUD NOWONGSO SAYO 12/01/1963 GEMIRING LOR 02/02 KAB. JEPARA
9154 1100450132 NIKEN WIDYANINGRUM 03/07/1987 TANJUNGSARI RT.04/- JATI SUMBERLAWANG KAB. SRAGEN
9155 1100450133 ISTIJABATIS SANATI 04/01/1994 JL. KI MANGUN SARKORO 110 RT 06/ RW 01 KOTA SURAKARTA
9156 1100450134 AGUS WIYONO, DRS 20/08/1960 NGROTO RT 02 KAB. SRAGEN
9157 1100450135 SUTINI, [Link] 10/12/1959 JL. KI MANGUN SARKORO 110 RT 06/01 KOTA SURAKARTA
9158 1100450142 SITI ROMELAH 28/08/1968 TLOGOREJO 03/02 KAB. MAGELANG
9159 1100450145 TITIK WIDIYATI 09/03/1976 MEJING 04/02 KAB. MAGELANG
9160 1100450146 TITIK WINARSIH 17/02/1964 PURWOREJO RT 04 RW 06 KAB. BOYOLALI
9161 1100450151 SITI ZUBAIDAH 22/06/1960 PENDEM RT.06 RW.02 KAB. MAGELANG
9162 1100450154 SUCIATI 29/07/1969 JL. BLITAR NO.10 RT.02 RW.02 KOTA TEGAL
9163 1100450155 MAHROJI 08/04/1972 MEJING RT.04 RW.02 KAB. MAGELANG
9164 1100450156 BIBIT WIDIANTA, SPD 06/06/1964 NGADIRETNO RT.03 RW.17 KAB. MAGELANG
9165 1100450158 NURHADI SH 02/01/1964 JL. BLITAR NO.10 RT.02 RW.02 KOTA TEGAL
9166 1100450159 SUMINAH MARTO SUDARMO 05/12/1959 KUWARISAN RT.03/04 KAB. KEBUMEN
9167 1100450161 ENDANG SRI UMAMAH WATI, [Link] 13/01/1975 SUMINGKIR RT.18/09 KEDUNGBANTENG KAB. TEGAL
9168 1100450162 SITI MUZARONGAH 31/12/1963 KOPEN NO.105 RT.04 RW.02 KAB. MAGELANG
9169 1100450164 KHASAN ALI 14/12/1974 SUMINGKIR RT.18/09 KEDUNGBANTENG KAB. TEGAL
9170 1100450165 MAT BASIT 31/12/1962 KOPEN 105 RT. 04/01 KAB. MAGELANG
9171 1100450168 SUYATMO 30/12/1961 DOLAH 1/2 KAB. GROBOGAN
9172 1100450170 MUZAYANAH 14/02/1965 DOLAH 01/02 KAB. GROBOGAN
9173 1100450171 TITIK SUPRIYATIN 20/08/1968 KLIWONAN RT 01 RW 07 KAB. BOYOLALI
9174 1100450173 RASIPAH 10/08/1971 KEMBANGARUM RT 02/03 KAB. DEMAK
9175 1100450175 SURADI 21/11/1967 KEMBANGARUM RT 02/03 KAB. DEMAK
9176 1100450176 NURHIDAYATI 05/02/1968 KALIPUCANG NO.12 RT.02/01 JATIBARANG KAB. BREBES
9177 1100450177 WAHYU SUKAMTI 09/05/1967 PERUM PESONA ALAM NO 8 RT 01 RW 02 KAB. BOYOLALI
9178 1100450178 TRI WINARSIH 25/09/1965 SIDOMULYO RT 01/01 KAB. SRAGEN
9179 1100450181 SOBIRIN 27/04/1964 [Link] KOTA RT.06/09 KESESI KAB. PEKALONGAN
9180 1100450183 TRI MURGIYANTI 25/09/1967 GEMOLONG RT 05/02 KAB. SRAGEN
9181 1100450184 KASINAH 09/05/1965 KEMAKMURAN RT.03/01 SONGGOM KAB. BREBES
9182 1100450186 SHIHATUN NAFIS 10/11/1970 BANYUMENENG RT 02/03 KAB. DEMAK
9183 1100450187 PASMIN, DRS, MPDI 01/04/1963 GEMOLONG RT 05/02 KAB. SRAGEN
9184 1100450188 SODIRI 08/12/1960 KEMAKMURAN RT. 03/01 SONGGOM KAB. BREBES
9185 1100450189 WIDODO TRIYONO 19/05/1963 KLIWONAN RT 01 RW 07 KAB. BOYOLALI
9186 1100450193 ROPAI 03/02/1962 CIBUYUR RT.03 RW.01 KAB. PEMALANG
9187 1100450196 PUJI RAHAYU 07/11/1978 JL. SAKTI [Link] NO.10 RT.03 RW.04 KOTA TEGAL
9188 1100450198 M. QOMAR SYARIFUDIN 10/02/1969 JL. SAKTI [Link] NO.10 RT.03 RW.04 KOTA TEGAL
9189 1100450200 SUTARTO 08/06/1958 KALIMARO 01/05 KAB. GROBOGAN
9190 1100450201 MUHTAR ARIFIN 21/04/1964 PERUM PESONA ALAM NO 08 RT 01 RW 02 KAB. BOYOLALI
9191 1100450202 SRI ANDAYANI 15/11/1963 NGADIRETNO 03/17 KAB. MAGELANG
9192 1100450203 TOPARI 14/02/1959 PETUNJUNGAN RT.05/04 BULAKAMBA KAB. BREBES
9193 1100450204 SRI SURYANI 04/03/1971 DSN KRAJAN RT. 03 RW. 01 KAB. PEMALANG
9194 1100450205 MOCHAMAD AMARI AWI SUPAKAT 07/07/1959 ADIKARSO RT.02/02 KAB. KEBUMEN
9195 1100450208 UMNIATUN BAHIYAH AHMAD BASRI 04/06/1968 DS. ADIKARSO RT 02/02 KEBUMEN KAB. KEBUMEN
9196 1100450212 SUYATMI, [Link] 19/10/1965 PERUM KORPRI NO.41 RT. 01 RW. 13 KAB. KARANGANYAR
9197 1100450213 WARSI KROMO KASIDIN 20/09/1965 GEMBONG 2/13 GEMBONG KAB. PATI
9198 1100450214 ISROIN WIJI MISIR 15/08/1980 KLALING RT 05 RW 02 KAB. KUDUS
9199 1100450215 MUNAWAR 31/12/1974 BONANGREJO RT 04/01 KAB. DEMAK
9200 1100450216 ALI MAHMUDI ACHMAD RABODIN 20/01/1973 KLALING RT.05 RW.02 KAB. KUDUS
9201 1100450217 MINANGSIH 04/10/1983 BONANGREJO RT 04/01 KAB. DEMAK
9202 1100450218 MUHAMAD LUTFI SULISTIO 12/11/1998 RENGASPENDAWA RT.07/06 LARANGAN KAB. BREBES
9203 1100450219 SUYADI 12/08/1958 RENGASPENDAWA RT.07/06 LARANGAN KAB. BREBES
9204 1100450220 NGADIMAN MAT SAPAR 31/12/1960 GEMBONG 2/13 GEMBONG KAB. PATI
9205 1100450223 ATMI 04/07/1957 DESA PENANGGULAN RT.03/RW.04 KAB. KENDAL
9206 1100450224 KOSIM 12/12/1964 DUKUH BEBER RT.02/01 BANJARHARJO KAB. BREBES
9207 1100450225 KURSIAH 03/05/1971 DUKUH BEBER RT.02/01 BANJARHARJO KAB. BREBES
9208 1100450226 USWATUN HASANAH 02/08/1981 DUKUH BEBER RT.02/01 BANJARHARJO KAB. BREBES
9209 1100450227 NANANG KURNIAWAN 28/07/1977 SEMPU RT 02 / RW 03 KAB. KENDAL
9210 1100450228 DWI SURYANINGSIH 16/03/1971 KARANGMLATI RT 05 RW 01 KAB. DEMAK
9211 1100450230 HARIYATI 17/10/1977 REKESAN RT.22 RW.05 KAB. SEMARANG
NO NO. PORSI NAMA TANGGAL LAHIR ALAMAT KAB/KOTA KETERANGAN
9212 1100450231 SUKONO 12/06/1962 KARANGMLATI RT 05 RW 01 KAB. DEMAK
9213 1100450233 DUDUNG ABDUL FATAH 01/12/1978 DUKUH BEBER RT.02/01 BANJARHARJO KAB. BREBES
9214 1100450235 PUJIATI 20/09/1979 KEDONDONG RT 05 RW 05 KAB. DEMAK
9215 1100450236 DWI CAHYONO 27/12/1975 REKESAN RT.22 RW.05 KAB. SEMARANG
9216 1100450237 AMINUDIN ALWI 26/08/1960 DUSUN MULYADADI RT.005 RW.04 KAB. CILACAP
9217 1100450238 ARIES MAULANA ADJI 01/08/1998 KEDONDONG RT 05 RW 05 KAB. DEMAK
9218 1100450240 IWAN DWI CAHYONO 05/05/1981 DALANGAN 01/01 KAB. KLATEN
9219 1100450242 NILA PRATIWI 01/12/1981 DALANGAN 01/01 KAB. KLATEN
9220 1100450244 LATIFATURROHMAH, [Link] 04/07/1974 LUGOSOBO RT 01/01 KAB. PURWOREJO
9221 1100450245 SLAMET RIYADI MATSARI 18/10/1958 BOLOAGUNG 5/1 KAYEN KAB. PATI
9222 1100450246 IIK FITRIYAH 01/01/1964 KESUGIHAN KIDUL RT.005 RW.01 KAB. CILACAP
9223 1100450247 DANAR EBNU SETIAWAN 09/05/1976 DALANGAN 01/01 KAB. KLATEN
9224 1100450249 ITA SULISTYOWATI 10/06/1978 DALANGAN 01/01 KAB. KLATEN
9225 1100450250 SRI NUR WAHYUNINGSIH 05/08/1975 PENDEKAN RT 03 RW 02 KAB. BOYOLALI
9226 1100450251 MACHMUD EDRIS 04/07/1968 PENDEKAN RT 03 RW 02 KAB. BOYOLALI
9227 1100450252 WIDOYO 08/08/1961 KARANG 03/02 KAB. KLATEN
9228 1100450253 SIWI HUDAYANTI DASUKI 29/05/1973 PULIHARJO RT.11/05 KAB. KEBUMEN
9229 1100450254 NURWAHYUNIATI 07/11/1965 KARANG 03/02 KAB. KLATEN
9230 1100450255 YEKTI HARTATI 11/07/1967 KARANGANYAR POS NO.11 RT.03/04 TONJONG KAB. BREBES
9231 1100450256 TITIK SULISTYANI SUHADA 19/01/1962 BOLOAGUNG 5/1 KAYEN KAB. PATI
9232 1100450257 AHMAD FATONI MOKH MAHFUDL 12/06/1967 DS. PULIHARJO RT 11 /05 PURING KAB. KEBUMEN
9233 1100450259 KUWAT SLAMET 07/06/1962 KARANGANYAR POS NO.11 RT.03/04 TONJONG KAB. BREBES
9234 1100450260 WARTINI 07/06/1960 DUSUN CILEDUG RT 03 RW03 KAB. CILACAP
9235 1100450261 MULYONO 03/11/1960 [Link] [Link] NO.81 RT.1 RW.4 KAB. BATANG
9236 1100450262 NANIK SRI PRIHARTININGSIH 08/03/1962 [Link] [Link] NO.81 RT.1 RW.4 KAB. BATANG
9237 1100450264 AHMAD SYUKUR AHMADI 13/08/1974 BANDUNGREJO 03/04 KEC. KALINYAMATAN KAB. JEPARA
9238 1100450265 AGUS NURHIDAYAT 12/08/1977 SAMBENG KULON RT 03 RW 01 KAB. BANYUMAS
9239 1100450266 RETNO PUJIATI SUKARTONO 13/07/1960 SINOMAN 1/1 PATI KAB. PATI
9240 1100450267 MUH IRFAN 08/02/1959 JL. KANCING MAS RT 07 RW.01 KAB. SEMARANG
9241 1100450268 YULIARTI 18/07/1976 SAMBENG KULON RT. 3/1 KAB. BANYUMAS
9242 1100450270 NINING MARIYANA EKROM 02/06/1974 BANDUNG REJO RT 03/04 KEC. KALINYAMATAN KAB. JEPARA
9243 1100450271 MANSYUR MARDANI HARTO 17/06/1977 BANDUNGREJO 03/03 KEC. KALINYAMATAN KAB. JEPARA
9244 1100450272 SITI ROHMIYATUN 07/07/1957 JL. KANCING MAS RT.07 RW.01 KAB. SEMARANG
9245 1100450273 SABRINA ZULMI RAHMATINA UTAMI 16/09/1998 PEKUNCEN RT 006/ RW 008, PEKUNCEN, WIRADESA
KAB. PEKALONGAN
9246 1100450275 MUSYAROFAH KASTARI ASRO 09/07/1968 BONANG RT 002 RW 001 LASEM KAB. REMBANG
9247 1100450276 RIFQIYAH A FAQIH MANGUN 28/08/1979 BANDUNGREJO 03/03 KEC. KALINYAMATAN KAB. JEPARA
9248 1100450279 USRIFAH 15/09/1980 KADEMANGARAN RT. 06/02 DUKUHTURI KAB. TEGAL
9249 1100450281 WARTI LASMININGSIH 25/08/1972 PEKUNCEN RT.06/08 WIRADESA KAB. PEKALONGAN
9250 1100450282 MUSLICHAN SAHIDAN JURIATUN 11/10/1963 BONANG RT 002 RW 001 LASEM KAB. REMBANG
9251 1100450283 MOH MUCHLAS 24/06/1961 KARANGANYAR RT 02 RW 04 KAB. DEMAK
9252 1100450284 RUCHAMAH 09/09/1964 KARANGANYAR RT 02 RW 04 KAB. DEMAK
9253 1100450285 MASRUROH 11/04/1982 KALISARI RT 01/05 KAB. DEMAK
9254 1100450287 AHMAD DASMURI 03/12/1964 SUDAN RT 003 RW 001 KRAGAN KAB. REMBANG
9255 1100450290 SA'ABDULLAH 02/05/1974 KALISARI RT 01 RW 05 KAB. DEMAK
9256 1100450291 AINI AZIZAH 16/10/1978 KAUMAN 03/08 KAB. GROBOGAN
9257 1100450292 MIFTAHUL HUDA 08/01/1969 KAUMAN 03/08 KAB. GROBOGAN
9258 1100450293 CATUR JATMIKO, DRS 14/04/1961 SANGKRAH RT 02/09 KOTA SURAKARTA
9259 1100450299 RETNANINGSIH, DRA 12/01/1966 SANGKRAH RT 02/09 KOTA SURAKARTA
9260 1100450301 WAGINAH MUHIDIN JARIYUN 31/12/1964 KEDUNGWINANGUN RT.01/03 KAB. KEBUMEN
9261 1100450302 SAKUR DULGOPUR MADMARJA 31/12/1959 KEDUNGWINANGUN RT.01/03 KAB. KEBUMEN
9262 1100450305 YULI DWI ASTUTI 20/07/1974 PURI KENCANA BLOK G NO.11 RT02 RW05 KAB. TEMANGGUNG
9263 1100450306 MUHAMMAD MARUTO ARDISETIYANTO 21/03/1981 JL. LABAN RT.04 RW.13 KAB. CILACAP
9264 1100450307 PRI SETYANINGSIH 28/09/1980 JL. LABAN RT04 RW13 KAB. CILACAP
9265 1100450310 MASRUROH WAGIYO MARJAN 03/03/1978 NGASEM 02/01 KAB. JEPARA
9266 1100450311 SUROSO WARJAN WARTI 29/04/1969 KALIKALONG 6/1 TAYU KAB. PATI
9267 1100450313 SITI ZUMROTUN KARDI 10/02/1966 NGASEM RT.002/001 KAB. JEPARA
9268 1100450314 SEKAR LATI YOGASARI 13/11/1968 KALIKALONG 6/1 TAYU KAB. PATI
9269 1100450315 BARYONO 05/10/1957 KUPANG SEWAN RT.02 RW.07 KAB. SEMARANG
9270 1100450318 SARNI 15/02/1962 BANJAREJO RT.03/04 KAB. DEMAK
9271 1100450320 FATIMATUZ ZAHRO ROMLI 20/07/1987 NGASEM 02/01 KAB. JEPARA
9272 1100450321 MAGI 02/11/1959 BANJAREJO RT.03/04 KAB. DEMAK
9273 1100450322 UUN MUNARSIH SAMSURI 02/08/1962 MANJANG 3/2 JAKEN KAB. PATI
9274 1100450325 CHOTIMAH 04/01/1981 WONOLELO RT 02 RW 01 KAB. WONOSOBO
9275 1100450326 JUMINAH 03/03/1974 BABADAN KESASIH RT.03 RW.04 KAB. BATANG
9276 1100450327 SUYATUN USUP TAMBUR 13/03/1966 BAWU 24/05 KAB. JEPARA
9277 1100450329 MAKMUN SALATUN 13/03/1979 WONOLELO RT 02 RW 01 KAB. WONOSOBO
9278 1100450331 AHMAD FATONI 22/04/1970 KUSUMA BARU RT 21 RW 08 KAB. WONOSOBO
9279 1100450332 SITI MUNIROH 06/08/1966 GINTUNGAN RT. 01/05 GEBANG KAB. PURWOREJO
9280 1100450333 MUNDLAKKIR MAHFUDH IMAMUT THOLIBIEN 02/04/1982 KARANGMANGU RT 001 RW 001 SARANG KAB. REMBANG
9281 1100450334 SULIYONO ALI BADRI 02/05/1962 MANJANG 3/2 JAKEN KAB. PATI
9282 1100450336 KHUMAEDI 25/12/1975 KUWAYUHAN RT.01/RW.02 KAB. KENDAL
9283 1100450338 MUKHAMMAD LUTFI 25/03/1990 DUSUN LENGKONG RT 005 / RW 001 KAB. PURWOREJO
9284 1100450339 SALAMAH, [Link] 24/03/1967 BENGLE RT.08/01 TALANG KAB. TEGAL
9285 1100450341 SUHARTI RASIMIN ATMOREDJO 31/08/1966 KARAS RT 002 RW 004 SEDAN KAB. REMBANG
9286 1100450343 ZUHRIYAH 05/03/1976 KUWAYUHAN RT.01/RW.02 KAB. KENDAL
9287 1100450344 ABDUL MUKTI TASYRIFUDDIN 22/04/1958 TELUK WETAN 25/03 KAB. JEPARA
9288 1100450345 SRI WAHYUNI 21/12/1970 GINTUNGAN RT. 01/05 GEBANG KAB. PURWOREJO
9289 1100450347 IQBAL AUNURROFIQI 22/02/1995 KARAS RT 002 RW 004 SEDAN KAB. REMBANG
9290 1100450350 SUPARMAN 01/10/1973 GINTUNGAN RT. 01/05 GEBANG KAB. PURWOREJO
9291 1100450351 SUBADI DARNO MARTO 02/12/1958 SUMBERGAYAM RT 003 RW 001 KRAGAN KAB. REMBANG
9292 1100450352 SITI ROHMAH 02/04/1976 DUSUN POLAMAN RT.01/RW.04 KAB. KENDAL
9293 1100450353 ALI AMIN 16/07/1963 BENGLE RT.08/01 TALANG KAB. TEGAL
9294 1100450355 NUR SARWOTO 08/08/1970 JL. MANGGIS 3 RANDUSARI RT 02 RW 01 KOTA MAGELANG
9295 1100450356 SUPARNI MIDJAN MINTOMIDI 07/05/1960 SUMBERGAYAM RT 003 RW 001 KRAGAN KAB. REMBANG
9296 1100450357 NUR HAKIM 20/09/1975 DUSUN POLAMAN RT.01/RW.04 KAB. KENDAL
9297 1100450358 SRI MULYOWATI 09/09/1969 JL. MANGGIS 3 RANDUSARI RT 02 RW 01 KOTA MAGELANG
9298 1100450361 MOHAMMAD MUKHLISIN 20/07/1983 KARANGBOYO RT.10 RW.04 KAB. MAGELANG
9299 1100450364 PARJIYAH 16/11/1965 MLILIR 02/01 KAB. GROBOGAN
9300 1100450366 SITI NUR AFIFAH 08/08/1993 BANOWAN RT 003 RW 002 SARANG KAB. REMBANG
9301 1100450367 NURUL FITRI TURFA'UL ULYA 03/08/1981 KARANGBOYO RT.10 RW.04 KAB. MAGELANG
9302 1100450370 JUMI ALFIAH SUPAKIR 17/05/1968 SITIREJO 7/2 TAMBAKROMO KAB. PATI
9303 1100450371 MUSTAKIM 23/03/1966 MLILIR 02/01 KAB. GROBOGAN
9304 1100450373 TITIN WIDYAWATI 10/08/1972 KUSUMA BARU RT 21 RW 08 KAB. WONOSOBO
9305 1100450375 MARIYAM 20/01/1966 BELANGKULON 04/05 KAB. KLATEN
9306 1100450376 MARYAM KASTUR SUTO 09/01/1971 GILIS RT 002 RW 001 SARANG KAB. REMBANG
9307 1100450377 HARTINI 06/04/1964 POHGEDE RT. 01 RW. 02 KAB. WONOGIRI
9308 1100450378 KUSNO 03/04/1969 TEMBELINGAN 03/04 KAB. GROBOGAN
9309 1100450380 SUPARNO 03/05/1962 BELANGKULON 04/05 KAB. KLATEN
9310 1100450381 NURSALAM SAIDAN WIRO 11/03/1966 GILIS RT 002 RW 001 SARANG KAB. REMBANG
9311 1100450382 SUNARTO KUSLAN SARIMPI 10/10/1965 SITIREJO 7/2 TAMBAKROMO KAB. PATI
9312 1100450383 SIRAH SAMIN SATINAH 01/07/1961 SAMPUNG RT 002 RW 002 SARANG KAB. REMBANG
9313 1100450387 MUSLIM ABDUL HALIM 09/08/1974 MANDUNG RT 02/02 KAB. DEMAK
9314 1100450389 SISMANTO MARTO WIYONO 22/02/1965 SIDOWAYAH RT 002 RW 002 REMBANG KAB. REMBANG
9315 1100450390 ELLY FITROTUN 22/01/1980 MANDUNG RT 02/02 KAB. DEMAK
9316 1100450391 YATMI 15/07/1978 CELENGAN RT.07/02 LOPAIT TUNTANG KAB. SEMARANG
9317 1100450392 DJOKO WAHDJONO 22/03/1958 SIDODRAJAT IX/28 RT.02/03 KOTA SEMARANG
9318 1100450394 SUTONO , [Link] 17/09/1967 CELENGAN RT.07/02 LOPAIT TUNTANG KAB. SEMARANG
9319 1100450395 SITI AMINAH 20/05/1970 KARANGJAMBU RT.03/07 BALAPULANG KAB. TEGAL
9320 1100450397 SUDARDJI DAMSURI 04/10/1962 TEMPEL 06/02 KAB. GROBOGAN
9321 1100450399 RUBIYANTO SAPARI SADIMAH 08/08/1964 TEGALARUM 4/1 JEKAN KAB. PATI
9322 1100450403 SUKAR SUPARMAN KATIDJAH 28/06/1961 SUMBEREJO RT 002 RW 001 PAMOTAN KAB. REMBANG
9323 1100450404 SLAMET 15/05/1962 KARANGJAMBU RT.03/07 BALAPULANG KAB. TEGAL
9324 1100450405 NGATIB 30/05/1965 PASURUHAN KIDUL RT 02 RW 04 KAB. KUDUS
9325 1100450406 SITI KHOIRIYAH 08/08/1968 REJOSARI 03/02 KAB. GROBOGAN
9326 1100450407 SUGIYANTI 11/08/1958 KRAJAN 01/01 KAB. GROBOGAN
9327 1100450408 SUKARNI KARIMAN PAIRAH 18/11/1967 TEGALARUM 4/1 JAKEN KAB. PATI
9328 1100450409 SUGIYANTO 31/12/1963 REJOSARI 03/02 KAB. GROBOGAN
9329 1100450412 SUMARLIN KASIMAN TEKAD 18/02/1972 PASURUHAN KIDUL RT 02 RW 04 KAB. KUDUS
9330 1100450415 KHOMISAH 17/04/1975 LEBETENG RT. 04/01 TARUB KAB. TEGAL
9331 1100450417 SUMYATI 31/12/1957 NGROTO 05/05 KAB. GROBOGAN
9332 1100450423 DWI SUKAMTI MARTO REJO 06/11/1976 SUKOLILO 3/7 SUKOLILO KAB. PATI
9333 1100450424 ISRONAH 17/05/1974 KEDITAN RT.01 RW.01 KAB. MAGELANG
9334 1100450425 MARMIN 06/12/1969 NGROTO 03/06 KAB. GROBOGAN
9335 1100450427 DRS. HERI SISWANTO 04/02/1959 [Link] NO.121 RT06 RW03 KAB. TEMANGGUNG
9336 1100450430 SUMARNI 11/05/1965 NGROTO 04/06 KAB. GROBOGAN
9337 1100450431 IMRON ROSADI 15/07/1976 KADEMANGARAN RT. 06/02 DUKUHTURI KAB. TEGAL
9338 1100450433 EDY PURNOMO SUTO ASMANI 25/09/1969 NGENING 6/1 BATANGAN KAB. PATI
9339 1100450434 DARWADI 28/02/1963 KRAJAN 01/01 KAB. GROBOGAN
NO NO. PORSI NAMA TANGGAL LAHIR ALAMAT KAB/KOTA KETERANGAN
9340 1100450435 WIDODO 01/11/1969 LEBETENG RT. 04/01 TARUB KAB. TEGAL
9341 1100450436 SITI MUKAROMAH 16/08/1958 KAUMAN 03/02 KAB. GROBOGAN
9342 1100450440 NGESTI HIDAYAH 29/11/1963 JL. SUBAGYO NO.121 RT06 RW03 KAB. TEMANGGUNG
9343 1100450441 SULAIDAH 31/12/1965 REJOSARI 03/02 KAB. GROBOGAN
9344 1100450443 HENI SUSANTI 03/05/1969 JL. YOS SUDARSO PANCAARGA I RT. 04/13 KAB. MAGELANG
9345 1100450446 SUBINO 24/06/1963 JL YOS SUDARSO 1 PANCAARGA 1 RT.04 RW.13 KAB. MAGELANG
9346 1100450447 TITIK HARYANTI 15/09/1982 REJOSARI 03/02 KAB. GROBOGAN
9347 1100450448 MARSONO 31/01/1963 TRASAN RT.79 RW.33 KAB. MAGELANG
9348 1100450449 SALMINAH 27/07/1957 NGROTO 02/01 KAB. GROBOGAN
9349 1100450451 WARTINI 17/03/1967 PACUL RT.21/05 TALANG KAB. TEGAL
9350 1100450452 SRIPAH DAMUN NYUYATI 02/07/1973 NGENING 6/1 BATANGAN KAB. PATI
9351 1100450454 MUSTAROM 17/06/1978 REJOSARI 03/02 KAB. GROBOGAN
9352 1100450456 ULFAH HASANAH 30/07/1974 GINGGANGTANI 01/01 KAB. GROBOGAN
9353 1100450457 SUMIYATUN 27/11/1962 KUJON 02/11 KAB. MAGELANG
9354 1100450458 SITI MASROKHAH 31/07/1958 PLOSO 01/01 KAB. GROBOGAN
9355 1100450459 LASMI YAHMIN WARSIAH 16/10/1961 SEGOROMULYO RT 001 RW 003 PAMOTAN KAB. REMBANG
9356 1100450460 DARODJI 07/12/1957 KARANGTURI RT 04 KAB. SRAGEN
9357 1100450462 SUJADI 01/01/1959 KUJON 02/11 KAB. MAGELANG
9358 1100450463 AKHMAD MAHMUD YUNUS 09/12/1962 PACUL RT.21/05 TALANG KAB. TEGAL
9359 1100450464 NUR AINI 29/09/1977 MLILIR 01/04 KAB. GROBOGAN
9360 1100450465 ICHSANUDIN 03/01/1963 PAESAN TENGAH RT.01/06 KEDUNGWUNI KAB. PEKALONGAN
9361 1100450466 NOOR HIDAYATI MAS'UDI 29/08/1968 LETEH RT 001 RW 002 REMBANG KAB. REMBANG
9362 1100450467 MUSLIH MUSTOFA FATHAN 16/05/1963 LETEH RT 001 RW 002 REMBANG KAB. REMBANG
9363 1100450468 MUSTAIN 26/03/1972 SENDANG 02/06 KAB. GROBOGAN
9364 1100450470 MASIPAH 04/08/1975 KARANGMULYA RT.04/02 BOJONG KAB. TEGAL
9365 1100450474 MUSYAFAATUN 12/07/1964 NAWANGSARI RT.08/RW.02 KAB. KENDAL
9366 1100450475 NURHADI SUMARI SUTO RASID 16/06/1965 SUMBEREJO RT 003 RW 002 PAMOTAN KAB. REMBANG
9367 1100450476 PARENG PAHROJI 18/06/1966 KARANGMULYA RT.04/02 BOJONG KAB. TEGAL
9368 1100450477 ROSYIDAH 30/06/1970 PAESAN TENGAH RT.01/06 KEDUNGWUNI KAB. PEKALONGAN
9369 1100450479 SITI MASKANAH 25/2/1980 DUSUN KRAJAN RT.02/RW.01 KAB. KENDAL
9370 1100450480 ABDUL SALAM DIMAN SAKIMO 12/12/1974 KARANGMANGU RT 003 RW 001 SARANG KAB. REMBANG
9371 1100450481 SUWARJO 15/12/1965 DAWUNG 02/03 KAB. GROBOGAN
9372 1100450482 MARMAN 12/03/1965 JEKETRO 02/01 KAB. GROBOGAN
9373 1100450483 RUSIDI 04/01/1971 BRUMBUNG RT 03 RW 02 KAB. DEMAK
9374 1100450484 SRI WAHYUNI 05/03/1964 PILANGKIDUL 02/05 KAB. GROBOGAN
9375 1100450485 MULYO SURYANI IKRAM 11/04/1978 KARANGMANGU RT 003 RW 001 SARANG KAB. REMBANG
9376 1100450486 SUPARTI 21/05/1962 KALITINGGAR KIDUL 02 RW 02 KAB. PURBALINGGA
9377 1100450488 KOMTI 08/04/1967 DAWUNG 03/04 KAB. GROBOGAN
9378 1100450489 ARIEF MAHENDRA 06/06/1977 DUSUN KRAJAN RT.02/RW.01 KAB. KENDAL
9379 1100450490 ZUMAROH JASWADI MASFUFAH 09/05/1977 BAJINGJOWO RT 006 RW 002 SARANG KAB. REMBANG
9380 1100450493 KOMARI 12/07/1968 KRAJAN 03/01 KAB. GROBOGAN
9381 1100450495 NANI FUJI ASTUTIK 09/09/1974 BEJI NO.34 RT.05 RW.02 KAB. BATANG
9382 1100450497 SARKI 15/7/1958 PAKU LAUT RT. 06/04 MARGASARI KAB. TEGAL
9383 1100450499 RUSMINAH 31/12/1957 BEJI RT.04 RW.02 KAB. BATANG
9384 1100450501 ROSIKIN 01/12/1971 NGROTO 01/04 KAB. GROBOGAN
9385 1100450502 SUPARTI DJUMADI BODIN 31/03/1972 DRESI KULON RT 002 RW 004 KALIORI KAB. REMBANG
9386 1100450503 AHMAD JAZULI 10/05/1962 KAMBANGAN RT. 28/06 LEBAKSIU KAB. TEGAL
9387 1100450505 ABDUS SHOMAD 2/3/1960 RANDUSARI 02/05 KAB. GROBOGAN
9388 1100450508 JUMADIONO 23/12/1960 NAWANGSARI RT.08/RW.02 KAB. KENDAL
9389 1100450511 YASIMIN BASRIKIN SURADI 10/10/1963 DRESI KULON RT 002 RW 004 KALIORI KAB. REMBANG
9390 1100450512 MUAMALAH 11/08/1977 BANDAR SARI 04/09 KAB. GROBOGAN
9391 1100450514 RUMINAH 11/04/1968 KAMBANGAN RT. 28/06 LEBAKSIU KAB. TEGAL
9392 1100450515 SITI ROATUL KHOTIMAH 03/08/1970 DUSUN GETAS RT 002 / RW 004 KAB. GROBOGAN
9393 1100450516 WINDIANI 31/08/1980 KALIBENDA RT 002 RW 002 KAB. BANJARNEGARA
9394 1100450517 QOIMAH HUSIN SAHLI 13/04/1984 KEBLORAN RT 003 RW 002 KRAGAN KAB. REMBANG
9395 1100450518 NUR HIDAYAT 13/02/1978 KALIBENDA RT 002 RW 002 KAB. BANJARNEGARA
9396 1100450519 SRI INDRAWATI 6/5/1971 JL. GANESA 02 RT.01/07 BULAKPACING KAB. TEGAL
9397 1100450520 RUDY RIYONO 26/10/1977 BANDAR SARI 04/09 KAB. GROBOGAN
9398 1100450522 KASMUDI SARMADI SARI 06/02/1974 KEBLORAN RT 003 RW 002 KRAGAN KAB. REMBANG
9399 1100450524 SUKAENAH SYUKUR SUTARWI 01/07/1973 KURYOKALANGAN 1/1 GABUS KAB. PATI
9400 1100450525 MOH ALI THOHIR 20/7/1967 KUTYOKALANGAN 1/1 GABUS KAB. PATI
9401 1100450528 SUWARNI 31/12/1962 KAYUPURING TENGAH 01/01 KAB. MAGELANG
9402 1100450532 ALI NUR ROFIQ 31/05/1972 NGROTO 03/04 KAB. GROBOGAN
9403 1100450533 NASICHIN SAYIDAN SARPANGI 01/07/1957 BAJINGJOWO RT 012 RW 004 SARANG KAB. REMBANG
9404 1100450534 BUDI ASMARA 08/12/1966 TRASAN RT.79 RW.33 KAB. MAGELANG
9405 1100450536 ROHMIYATI 18/08/1977 PURWOSARI 03/03 KAB. GROBOGAN
9406 1100450537 MARYATUN 19/3/1975 BULU 02/04 KAB. GROBOGAN
9407 1100450538 ABDUL MUJIB 18/12/1958 KEMIRI 03/01 KAB. GROBOGAN
9408 1100450539 MAHFUD 7/7/1962 PILANGKIDUL 02/05 KAB. GROBOGAN
9409 1100450541 SUPARMIN 12/10/1961 JEKETRO 04/01 KAB. GROBOGAN
9410 1100450542 ARYATI 31/12/1959 PEKUNCEN RT.006 RW.01 KAB. CILACAP
9411 1100450543 NURHADI 11/02/1970 GETAS 02/05 KAB. GROBOGAN
9412 1100450546 TOENAH TASRIPAN KASTOGIMAN 05/12/1968 BAJINGJOWO RT 012 RW 004 SARANG KAB. REMBANG
9413 1100450547 DARIPAH TRIASTUTI 08/03/1968 DEBONG KIDUL RT.02 RW.02 KOTA TEGAL
9414 1100450548 ANDI RAHARJO 04/08/1978 BULU 02/04 KAB. GROBOGAN
9415 1100450549 DARYOSO 21/01/1963 DEBONG KIDUL RT.02 RW.02 KOTA TEGAL
9416 1100450550 ENDAHRI WULANSRI 7/2/1963 PERUM WONOLELO INDAH . NO.L 15 RT. 04/1 KAB. MAGELANG
9417 1100450551 SURODJO TAAT ANDAYANI 12/10/1961 PERUM WONOLELO INDAH NO.L 15 RT 04/12 KAB. MAGELANG
9418 1100450552 NUR FAIZAH 11/03/1968 RANDUSARI 02/05 KAB. GROBOGAN
9419 1100450553 SRI TUMINI 05/07/1972 GETAS 02/05 KAB. GROBOGAN
9420 1100450555 SAMUDI 21/02/1970 GINGGANG TANI 02/01 KAB. GROBOGAN
9421 1100450556 SITI SAFAAH 12/07/1974 BANDAR SARI 03/09 KAB. GROBOGAN
9422 1100450557 HAYYINA MASLIKHATUL UMAMI 30/1/1987 TERMAS 01/03 KAB. GROBOGAN
9423 1100450558 HASANUDDIN NAJIB 15/12/1983 TERMAS 01/03 KAB. GROBOGAN
9424 1100450559 SITI MARDLIYAH 27/12/1978 GINGGANG TANI 02/01 KAB. GROBOGAN
9425 1100450565 TANWIR 11/10/1957 [Link] RT.01 RW.04 KAB. SEMARANG
9426 1100450566 SHODIQ 13/1/1968 GUBUG 03/09 KAB. GROBOGAN
9427 1100450569 RIFATUN 22/12/1959 SUSUKAN RT.01 RW.03 KAB. SEMARANG
9428 1100450570 MASMUDLOH 04/06/1970 JEKETRO 02/01 KAB. GROBOGAN
9429 1100450571 RASIPAH 1/7/1965 TAUSIT PAIT RT.01/02 SIWALAN KAB. PEKALONGAN
9430 1100450572 HADI UMRI 24/12/1960 SRONDOL KULON RT 3 RW 7 KOTA SEMARANG
9431 1100450573 HERNAN 08/01/1965 DUKUH SEMPUMAJA RT.03/01 YAMANSARI KAB. TEGAL
9432 1100450579 BISRI MUSTOFA 05/06/1983 DAWUNG 01/03 KAB. GROBOGAN
9433 1100450580 USWATUN HASANAH 16/02/1995 PILANGKIDUL 01/05 KAB. GROBOGAN
9434 1100450583 SRI MADYANINGSIH 02/09/1966 DUKUH SEMPUMAJA RT.03/01 YAMANSARI KAB. TEGAL
9435 1100450584 TUMINAH 1/7/1963 MLILIR 01/06 KAB. GROBOGAN
9436 1100450585 SITI KASMINAH 31/12/1960 MLILIR 01/08 KAB. GROBOGAN
9437 1100450586 KASIYEM 31/03/1960 GERDU RT 04/02 KAB. SRAGEN
9438 1100450587 MUHAMAD ALI RIDLO 13/04/1973 KAMPUNG PURWOSARI 03/03 KAB. GROBOGAN
9439 1100450590 SITI FATIMAH 06/02/1967 BUARAN INDAH C / 14 RT.01 RW.08 KOTA PEKALONGAN
9440 1100450596 SAEROZI 15/04/1967 JERUKGULUNG RT.05/01 KAB. DEMAK
9441 1100450597 KARJINAH 19/07/1973 JERUKGULUNG RT.05/01 KAB. DEMAK
9442 1100450599 WARSITO 12/05/1963 KLODRAN RT. 02 RW. 04 KAB. KARANGANYAR
9443 1100450600 IIS INDRIYANI SURYONO 04/05/1980 KLAPASAWIT RT.01/04 KAB. KEBUMEN
9444 1100450601 SRI TRI LESTARI RETNOWATI 5/5/1962 TAMANWINANGUN RT.03/03 KAB. KEBUMEN
9445 1100450603 YAMINAH 26/12/1967 DUSUN SEKLOTOK RT.02/RW.01 KAB. KENDAL
9446 1100450605 MUZAYANAH 27/06/1971 NGAMPEL WETAN RT.02/RW.02 KAB. KENDAL
9447 1100450606 KHAMIDUN 22/03/1967 NGAMPEL WETAN RT.02/RW.02 KAB. KENDAL
9448 1100450607 MUHAMAD MUNINDAR MUHAMAD MASKUR 8/10/1976 KLAPASAWIT RT.01/04 KAB. KEBUMEN
9449 1100450610 NAWANG WULAN INDRIASTUTI 18/11/1972 KLODRAN RT. 02 RW. 04 KAB. KARANGANYAR
9450 1100450611 AHMAD SYAFI'I 21/12/1990 PILANGKIDUL 01/05 KAB. GROBOGAN
9451 1100450615 SURIYAM 8/11/1965 SINGOREJO RT 03 RW 02 KAB. DEMAK
9452 1100450616 SITI ZUHRIYAH 13/11/1999 PILANGKIDUL 05/05 KAB. GROBOGAN
9453 1100450617 SOLEHA 12/05/1960 JL. PANTAISARI II 75 B RT.5 RW. 9PERUNEL KOTA PEKALONGAN
9454 1100450618 ASARI 14/01/1960 SINGOREJO RT 03 RW 02 KAB. DEMAK
9455 1100450619 WALJUKI 07/09/1959 JL. PANTAISARI II/75 B RT. 5 / 9 PERUNEL KOTA PEKALONGAN
9456 1100450621 SUTIMAH 11/02/1972 PILANGKIDUL 01/05 KAB. GROBOGAN
9457 1100450622 ARIEF KHOIRUNNIDHOM 2/5/1984 NGROTO 03/05 KAB. GROBOGAN
9458 1100450624 AHMAD WAJIB 12/12/1961 PILANGKIDUL 01/05 KAB. GROBOGAN
9459 1100450625 DEVI MAHYARANI ULFAH 02/03/1984 JEKETRO 04/03 KAB. GROBOGAN
9460 1100450626 IMRON AMIN 13/04/1965 GINGGANGTANI 01/01 KAB. GROBOGAN
9461 1100450628 ZUHDI 01/01/1958 [Link] UMAR 01/05 KAB. GROBOGAN
9462 1100450629 NUR KOMARIYAH 17/06/1960 MRISI 02/04 KAB. GROBOGAN
9463 1100450630 SUHARWATI KASNAPUN SITI 1/7/1974 ANGKATAN LOR 9/1 TAMBAKROMO KAB. PATI
9464 1100450631 MURYATI 31/12/1972 TEMPEL 06/02 KAB. GROBOGAN
9465 1100450632 RUMINI 01/11/1967 MOJODEMAK RT.02/05 KAB. DEMAK
9466 1100450633 TAMSIH 12/04/1975 [Link] UMAR 01/05 KAB. GROBOGAN
9467 1100450634 ACH SUKIMIN KASIBAN 1/7/1962 ANGKATAN LOR 9/1 TAMBAKROMO KAB. PATI
NO NO. PORSI NAMA TANGGAL LAHIR ALAMAT KAB/KOTA KETERANGAN
9468 1100450636 KUSRIWATI ABAS SAWITRI 15/12/1975 BRATI 7/2 KAYEN KAB. PATI
9469 1100450637 SUNAUN NGASIO FATIMAH 06/10/1966 BRATI 7/2 KAYEN KAB. PATI
9470 1100450639 TRITUNGGAL EKAWATI KARTIKA 12/07/1978 KRAJAN 03/01 KAB. GROBOGAN
9471 1100450642 SUHARTATIK MUSA SURATMI 17/08/1967 NGEPUNGROJO 01/01 PATI KAB. PATI
9472 1100450643 MUHAMAD ZAENURI NGADIMIN 3/12/1968 NGEPUNGROJO 01/01 PATI KAB. PATI
9473 1100450644 MASMUAH 16/10/1963 KEMIRI 03/01 KAB. GROBOGAN
9474 1100450645 TITIK WARNITI JOYO SARMI 11/10/1959 PURI 4/4 PATI KAB. PATI
9475 1100450648 SUPARDI KARNO KASNI 22/04/1974 TAMBAHARJO 2/2 TAMBAKROMO KAB. PATI
9476 1100450649 ASROPAH SUGENG SUTIMAH 25/04/1982 TAMBAHARJO 2/2 TAMBAKROMO KAB. PATI
9477 1100450651 ALVIROH 08/06/1972 PENGARADAN NO.19 RT.03/04 TANJUNG KAB. BREBES
9478 1100450652 KHAMBALI 02/12/1959 MOJODEMAK RT.02/05 KAB. DEMAK
9479 1100450653 JASMANTO,SPD 5/9/1968 MARGOREJO RT.02 RW.04 KOTA SURAKARTA
9480 1100450654 SUSILAWATI SUDJARWO RONGGO 26/12/1965 NGEMBAL REJO RT 03 RW 06 KAB. KUDUS
9481 1100450655 TOGIRI 02/11/1966 PENGARADAN NO.19 RT.03/04 KAB. BREBES
9482 1100450657 MASRUHIN SUHADI DONO IRCHAM 15/07/1959 NGEMBAL REJO RT 03 RW 06 KAB. KUDUS
9483 1100450659 DIAN NAYAWATI SARASWATI UTAMI, DRA 14/6/1967 JL. ZEBRA TENGAH III/45 RT.06/05 KOTA SEMARANG
9484 1100450661 SULASIH SARMADI PASINI 31/12/1960 PUNDENREJO 1/1 TAYU KAB. PATI
9485 1100450662 RAMELAN MOCH. DJUPRIYANTO 10/04/1968 JL. ZEBRA TENGAH III/45 RT 6 RW 5 KOTA SEMARANG
9486 1100450664 SUSILO 30/08/1975 PUNDENREJO RT 001 / RW 001 KAB. PATI
9487 1100450667 SRI HARTATI 21/02/1962 MANDIRAJAKULON RT.05 RW.04 KAB. BANJARNEGARA
9488 1100450668 MUNAWAROH 07/02/1975 [Link] RT.04 RW.05 KAB. PEMALANG
9489 1100450669 KHUZAEMAH 11/04/1971 SAMONG RT.02 RW.04 KAB. PEMALANG
9490 1100450670 SUHARTONO 06/09/1962 [Link] RT.04 RW.05 KAB. PEMALANG
9491 1100450671 MUHAMMAD ZIDNI FARKHAN 28/02/1997 JL. P. DIPONEGORO NO.410 RT 001 / RW 004 KAB. BREBES
9492 1100450672 ENDANG SUPRIYATININGSIH 7/12/1963 JL. SINDORO NO.30 RT05 RW.02 KAB. CILACAP
9493 1100450674 BAMBANG SARWONO 18/12/1961 JL. SINDORO NO. 30 RT. 05 RW. 02 KAB. CILACAP
9494 1100450675 SANDI AHMAD 12/07/1976 JL. KEBONHARJO GG 01 RT 1 RW 2 KOTA SEMARANG
9495 1100450676 MARFUAH 29/1/1965 BULUREJO RT. 02 RW. 06 KAB. KARANGANYAR
9496 1100450678 PUDJI TRI WAHYUNI 28/10/1978 JL. KEBONHARJO GG 1 RT 1 RW 2 KOTA SEMARANG
9497 1100450679 SURADI, [Link] 28/1/1959 BULUREJO RT. 02 RW. 06 KAB. KARANGANYAR
9498 1100450680 SUGITO 12/12/1961 BANDARAN TIMUR RT.03 RW.01 KAB. SEMARANG
9499 1100450681 SITI NURIYAH 09/04/1973 WERDOYO RT.02/07 KAB. DEMAK
9500 1100450682 ABDUL KAMID 20/05/1967 WERDOYO RT.02/07 KAB. DEMAK
9501 1100450684 SUNARTO 3/5/1965 KEMANGKON RT 01 RW 01 KAB. PURBALINGGA
9502 1100450685 LASTINAH 22/10/1963 KALAPACUNG RT 01 RW 05 KAB. PURBALINGGA
9503 1100450686 MIRJAN 22/06/1966 KALAPACUNG RT 01 RW 05 KAB. PURBALINGGA
9504 1100450691 SARGATI 15/09/1965 BANDARAN TIMUR RT.03/01 BANDARJO KAB. SEMARANG
9505 1100450692 MUSRINGATUN 07/02/1972 PETARANGAN RT 01 RW 01 KAB. BANYUMAS
9506 1100450694 RISKHA UMMI SYAYEKTI 1/10/1982 [Link] MADA PERUMDA 04/20 KAB. GROBOGAN
9507 1100450697 RISNOTO 21/11/1966 KRAMAT RT.05/03 KAB. TEGAL
9508 1100450698 SUNARMI 12/10/1959 NGASEM 03/17 KAB. MAGELANG
9509 1100450700 SARNO PRIYO HARTONO 03/03/1959 SEMANGGI RT.07 RW.04 KOTA SURAKARTA
9510 1100450701 KARTINI 28/02/1971 KRAMAT RT.05/03 KAB. TEGAL
9511 1100450702 HARSINI 05/07/1960 SEMANGGI RT.07 RW.04 KOTA SURAKARTA
9512 1100450704 SUPANDAYA, [Link] 5/6/1985 BLIMBING RT. 05 RW. 09 KAB. KARANGANYAR
9513 1100450706 WULANDARI 10/10/1991 BLIMBING RT. 05 RW. 09 KAB. KARANGANYAR
9514 1100450707 MARDIANA INDRASTUTI, SE 28/09/1978 JL. MARKISA, GULON RT 04 RW 09 KOTA SURAKARTA
9515 1100450709 SURATMAN, SE AK 06/03/1972 JL. MARKISA GULON RT 04 RW 09 KOTA SURAKARTA
9516 1100450710 SITI ZAENAB ZAENURI 11/07/1957 LETEH RT 004 RW 004 REMBANG KAB. REMBANG
9517 1100450712 PIN AGUSTINA 01/08/1958 JL LITERARI 98 PERUM UNS RT. 03 RW. 06 KAB. KARANGANYAR
9518 1100450713 KUSRIN LEGI MUKINI 10/05/1969 BENDAR 3/5 JUWANA KAB. PATI
9519 1100450714 FAJAR KARTIKA 07/05/1992 KRAJAN 03/01 KAB. GROBOGAN
9520 1100450715 MUHAMMAD ISA AL ATSARI 22/08/2003 PETARANGAN RT 01 RW 01 KAB. BANYUMAS
9521 1100450716 DWI RETNOWATI 02/03/1980 CANDINATA RT 08 RW 4 KAB. PURBALINGGA
9522 1100450717 SITI MUDAYANAH NASUKA 07/02/1975 BENDAR 3/5 JUWANA KAB. PATI
9523 1100450718 AGUNG DWIYANTORO 9/11/1976 CANDINATA RT 08 RW 4 KAB. PURBALINGGA
9524 1100450719 KAZIN 31/12/1965 NGROTO 01/04 KAB. GROBOGAN
9525 1100450720 SITI SALAMAH 29/01/1960 JL. SUMATRA NO. 113 RT. 1 RW. 3 KOTA PEKALONGAN
9526 1100450721 HADI SUTJAHJO 2/10/1958 JL. SUMATRA NO. 113 RT . 1 RW. 3 KOTA PEKALONGAN
9527 1100450722 SUTINI 31/12/1972 NGROTO 01/04 KAB. GROBOGAN
9528 1100450726 KHOTIJAH 06/04/1968 BLIGO RT.06/02 BUARAN KAB. PEKALONGAN
9529 1100450727 AMIRIN 24/07/1968 GEMPOLDENOK RT.05/01 KAB. DEMAK
9530 1100450728 ROHMAN 1/4/1961 BLIGO RT.06/02 BUARAN KAB. PEKALONGAN
9531 1100450729 AMAD SUHRONI MAD SAMSI 27/11/1965 DS. JATISARI RT 04/01 KEBUMEN KAB. KEBUMEN
9532 1100450730 SUTRINI 12/07/1974 GEMPOLDENOK RT.05/01 KAB. DEMAK
9533 1100450732 SRINGATI ISYANTO WASIKUN 31/03/1971 DS. JATISARI RT 04/01 KEBUMEN KAB. KEBUMEN
9534 1100450734 KRISANTO 15/04/1971 KUBANGPUTAT RT.07/03 TANJUNG KAB. BREBES
9535 1100450736 WIHARTI 1/7/1972 KUBANGPUTAT RT.07/03 TANJUNG KAB. BREBES
9536 1100450743 SUHONO KASLAN SURATMI 18/12/1963 KARANGREJO LOR 4/2 JAKENAN KAB. PATI
9537 1100450744 MUJINAH DJAKA KARTO UTOMO 12/12/1965 KARANGREJO LOR 4/2 JAKENAN KAB. PATI
9538 1100450745 ENY WIDAYATI 23/10/1974 BULU RT 03/08 KAB. SUKOHARJO
9539 1100450750 INAROH MANARINA 17/01/1992 DK. TULAKAN RT. 01/RW.07 KAB. SUKOHARJO
9540 1100450751 SUJONO SURI SUTARNI 27/06/1965 GADU 04/01 GUNUNGWUNGKAL KAB. PATI
9541 1100450752 NASICHIN 24/05/1959 KETELENG KEMADANG RT.05 RW.02 KAB. BATANG
9542 1100450753 SURONO 17/03/1970 BULU RT. 03/RW.08 KAB. SUKOHARJO
9543 1100450754 ENI WIJAYANTI 28/06/1971 KETELENG KEMADANG RT.05 RW.02 KAB. BATANG
9544 1100450756 LATIFAH 13/03/1972 DK. TULAKAN RT.01/RW.07 KAB. SUKOHARJO
9545 1100450758 KASMIYATI KROMO KASIRUN 04/11/1974 GADU 4/1 GUNUNGWUNGKAL KAB. PATI
9546 1100450759 ANDANIATI 28/02/1959 JL. DURIAN II/14 RT.05/01 KOTA SEMARANG
9547 1100450760 SOFIATUN NURAINI 02/05/1963 [Link] KEDUNGWULUH RT. 6/7 KAB. BANYUMAS
9548 1100450765 DRS. ADI ARIYONO 13/02/1964 [Link] KRIDOSONO RT 02/05 KAB. BLORA
9549 1100450767 MARYATI 07/10/1964 [Link] KRIDOSONO RT 02/05 KAB. BLORA
9550 1100450768 SLAMET PAMUJI MUSTAMIN 06/02/1959 PUCAKWANGI 6/3 PUCAKWANGI KAB. PATI
9551 1100450771 FATHONAH 03/02/1963 NGADISUKA RT 05 RW 02 KAB. WONOSOBO
9552 1100450776 SRI MARGIYANTI KARYANTO 22/09/1961 PUCAKWANGI 6/3 PUCAKWANGI KAB. PATI
9553 1100450778 MUHAMAD AGUS SALIM 20/03/1977 PERUM SONGGO INDAH BK. G/7 RT. 02 RW. 07 KAB. PEMALANG
9554 1100450779 ALIYA RAHMA SAHARA 03/08/1976 PERUM SONGGO INDAH BK. G/7 RT. 02 RW.07 KAB. PEMALANG
9555 1100450780 DYAH PURWANTININGSIH 17/08/1982 KARANGMALANG RT 10 KAB. SRAGEN
9556 1100450781 SUKATMI 15/6/1964 KEDUNGDOWO RT 01/05 KAB. SUKOHARJO
9557 1100450782 IRAWAN DWI ATMOKO 25/11/1966 LAHAR 2/3 TLOGOWUNGU KAB. PATI
9558 1100450783 DRS KHAIRUL ANWAR 30/06/1968 PANGENREJO RT 03/03 KAB. PURWOREJO
9559 1100450785 SRI DARMAWATI SUDARMAN 04/02/1976 LAHAR 2/3 TLOGOWUNGU KAB. PATI
9560 1100450787 SULARNO 1/3/1961 KEDUNGDOWO RT.01/RW.05 KAB. SUKOHARJO
9561 1100450789 SUKRISTIYONO 30/12/1958 WONOREJO 05/08 KAB. GROBOGAN
9562 1100450790 ENDANG YULISTIYOWATI SUMO BIRAN 10/04/1972 WINONG 17/01 PATI KAB. PATI
9563 1100450791 AMAH 23/08/1959 JL. TRENGGILING RT.004 RW.01 KAB. CILACAP
9564 1100450792 SUDI HARTONO 03/05/1976 JL. TRENGGILING RT.004 RW.01 KAB. CILACAP
9565 1100450793 SITI KAROMIYANI 02/08/1957 WONOREJO 05/08 KAB. GROBOGAN
9566 1100450794 RUDI SANTOSO SOEKISMAN 16/06/1969 WINONG 17/01 PATI KAB. PATI
9567 1100450796 SUNDOYONO 16/09/1963 KASO TENGAH RT.03/04 DORO KAB. PEKALONGAN
9568 1100450797 SRI PARNI 20/01/1965 BAKALAN 07/02 KAB. MAGELANG
9569 1100450799 PARMINI, DRA 29/07/1964 RINGIN ASRI RT. 03 RW. 12 KAB. KARANGANYAR
9570 1100450800 PASIMUN SANDIREJO SANMURDIYAH 09/09/1965 SITIREJO RT.03/02 KAB. KEBUMEN
9571 1100450801 RACHMAN NOER ARIFIN 09/01/1993 BAKALAN RT.007 RW.002 KAB. MAGELANG
9572 1100450802 WAHYU YUNIANTO, [Link] 21/06/1983 NGUNDAAN RT.001/001 KAB. SRAGEN
9573 1100450803 SUGENG WIBOWO 26/3/1978 KARANGGINTUNG RT. 1/5 KAB. BANYUMAS
9574 1100450806 MUJIATI MOHAMAD RUBANGI 23/10/1974 DS. SITIREJO RT 03/02 KLIRONG KAB. KEBUMEN
9575 1100450807 TRI HARSO SISWANTO 31/01/1964 RINGIN ASRI RT. 03 RW. 12 KAB. KARANGANYAR
9576 1100450808 AJI PRAYOGO 01/12/1979 NGILIR RT.03 RW.01 KAB. KENDAL
9577 1100450809 RIRIS PURNAWAN 18/3/1981 KARANGMALANG RT 10 KAB. SRAGEN
9578 1100450810 FATIKHATUN HANA, [Link] 10/10/1971 PAKEMBARAN RT.02/01 SLAWI KAB. TEGAL
9579 1100450811 SULASTRI SAREH SAMI 01/07/1957 GROWONG KIDUL 4/1 JUWANA KAB. PATI
9580 1100450812 NURIDIN 02/01/1980 PAKEMBARAN RT.02/01 SLAWI KAB. TEGAL
9581 1100450816 WARILAH 09/10/1962 BERSOLE RT 06 RW 03 KAB. WONOSOBO
9582 1100450819 KASIMUN 04/06/1960 BERSOLE RT 06 RW 03 KAB. WONOSOBO
9583 1100450821 MARYATI 16/01/1959 [Link] III/26 01/17 KAB. GROBOGAN
9584 1100450825 SRI HARYATI 21/4/1972 WINONG RT 02 RW 02 KAB. BOYOLALI
9585 1100450826 FATHURROHMAN 10/10/1973 KERTIJAYAN GG.3 RT.07/03 BUARAN KAB. PEKALONGAN
9586 1100450827 NURINI SUMARMO MARTODIMEJO 26/06/1972 DS. TANGGERAN RT 01/04 SRUWENG KAB. KEBUMEN
9587 1100450828 SITI TARUNI 01/02/1981 KERTITAJAN GG.3 RT.07/03 BUARAN KAB. PEKALONGAN
9588 1100450829 MURSITO 04/05/1967 WINONG RT 02 RW 02 KAB. BOYOLALI
9589 1100450830 SITI MENDIYATIN 10/05/1960 JL. NANGKA NO.58 RT.005 RW.10 KAB. CILACAP
9590 1100450834 SARWAENI 11/6/1972 KUDU RT 02 RW 01 KAB. BOYOLALI
9591 1100450838 MUHLASIN. SAG 28/11/1964 DSN. ROWOKASAM RT.01 RW.03 KAB. SEMARANG
9592 1100450839 SLAMET SUWIJI 18/8/1965 KUDU RT 02 RW 01 KAB. BOYOLALI
9593 1100450840 WAHYU ARIANI 23/12/1960 PERUM JATISARI PERMAI BLK B 4/2 RT 3/12 KOTA SEMARANG
9594 1100450844 SRI HARDATI 3/9/1963 DSN. PLUMBON RT. 14/04 SURUH KAB. SEMARANG
9595 1100450846 DARSUN 10/12/1975 JL PUNGKURAN RT 02 RW 02 KAB. DEMAK
NO NO. PORSI NAMA TANGGAL LAHIR ALAMAT KAB/KOTA KETERANGAN
9596 1100450847 NENI SUPRAPTI 19/10/1969 KEDUNGPRING RT. 3/1 KAB. BANYUMAS
9597 1100450848 BUDI SANTOSO 11/02/1972 KEBAAN RT 24 RW 12 KAB. BOYOLALI
9598 1100450849 SUPARNI 29/5/1959 CANGKRING RT 01 RW 07 KAB. WONOSOBO
9599 1100450850 SRI SLAMET RAHAYU 29/11/1973 JL PUNGKURAN RT 02 RW 02 KAB. DEMAK
9600 1100450851 KUWAT 26/07/1961 KEDUNGPRING RT. 3/1 KAB. BANYUMAS
9601 1100450852 RIMA WURYANTI 11/01/1978 KEBAAN RT 24 RW 12 KAB. BOYOLALI
9602 1100450853 MURDIYANTO 30/01/1981 JL PUNGKURAN RT 02 RW 02 KAB. DEMAK
9603 1100450855 SITI MAEMONAH, SAG 15/08/1970 DSN. ROWOKASAM RT.01 RW.03 KAB. SEMARANG
9604 1100450856 HIDAYAH MUNAWAROH 13/07/1957 SIDOMULYO RT 02/03 KAB. PURWOREJO
9605 1100450857 R. TUTUK HENY WAHYONO 24/04/1968 JL. DELIMA UTARA IV / 16 RT. 01 RW. 02 KOTA MAGELANG
9606 1100450858 MASRUKATUN DJAMHARI DWI MUSAWAD 10/5/1962 SAMBIROTO 5/1 TAYU KAB. PATI
9607 1100450859 SUMINI 31/12/1960 BEJI RT 001 RW 006 KAB. BANYUMAS
9608 1100450860 SYAMSANTI KUSMIYARSI 24/10/1973 NAMBANGAN RT.02/RW.05 KAB. SUKOHARJO
9609 1100450862 YUYUN SUSILOWATI 18/06/1978 PATUKAN RT 09 RW 22 AMBARKETAWANG SLEMAN
KOTA MAGELANG
9610 1100450863 JOKO WAHONO 17/01/1973 NAMBANGAN RT.02/RW.05 KAB. SUKOHARJO
9611 1100450864 TEGUH WIYONO SOETJIPTO 17/08/1960 WINONG 2/4 PATI KAB. PATI
9612 1100450866 ERA KURNIATI 17/02/1977 [Link] KAPLING KRIDOSONO RT 02/05 KAB. BLORA
9613 1100450869 VERNA ANDANSARI 21/08/1970 JL. DELIMA UTARA IV / 16 RT. 01 RW. 02 KOTA MAGELANG
9614 1100450870 SRI SUHARSIH SPD 23/07/1963 DAWUNG KULON RT 003/011 KOTA SURAKARTA
9615 1100450872 SRI YANTI ACHMAD SUWITO 11/03/1977 KALITENGAH RT.01/02 KAB. KEBUMEN
9616 1100450873 ARIS ANDAYANI 28/09/1960 RINGIN ANOM 160 RT. 04 RW. 03 KOTA MAGELANG
9617 1100450875 MARSINEM 19/02/1958 SIDOMULYO RT 02/03 KAB. PURWOREJO
9618 1100450876 PRIYATNO PRIYOSUMARTO MARTO 16/7/1972 KALITENGAH RT.02/02 KAB. KEBUMEN
9619 1100450877 GILANG SAHARA DEWI 28/10/1983 WINONG 2/4 PATI KAB. PATI
9620 1100450878 DARMANTA 19/06/1970 POLODADI 04/02 KAB. KLATEN
9621 1100450881 SITI KHANIFAH 2/7/1965 LEGOKSARI RT.03 RW.07 KAB. MAGELANG
9622 1100450883 LIA NOVALA SARI,SE 22/11/1986 BENDO 03/02 KAB. KLATEN
9623 1100450884 SRI RAHAYU SUHARNO 08/01/1965 SRIKATON 15/7 JAKEN KAB. PATI
9624 1100450885 SRI SUNDARI 11/07/1972 POLODADI 04/02 KAB. KLATEN
9625 1100450886 SURATNO 30/04/1959 LEGOKSARI RT.03 RW.07 KAB. MAGELANG
9626 1100450889 DARMAWAN 27/07/1963 [Link]. KEMBANG NO.07 RT.01/03 SIRAMPOG KAB. BREBES
9627 1100450890 MELANI ASTUTI 21/07/1976 [Link] NO.07 RT.01/03 SIRAMPOG KAB. BREBES
9628 1100450892 RASIPAH KASNAN SARIGATUL 30/05/1960 PENDEM 02/07 KEC. KEMBANG KAB. JEPARA
9629 1100450893 SUGIYANTO 19/09/1966 WONOKERSO SIDOMUKTI RT.04 RW.03 KAB. BATANG
9630 1100450895 SRI MULYANI 23/09/1970 WONOKERSO SIDOMUKTI RT.04 RW.03 KAB. BATANG
9631 1100450897 ROCHANIYAH 01/01/1965 DUSUN BAYONG RT.01 RW.04 KAB. KENDAL
9632 1100450898 MARIANA ARIANI 19/06/1983 GONDANGAN RT.07/02 BATANG TULIS KAB. BATANG
9633 1100450899 SARI WIJAYANTI,SPT 07/07/1971 JUWIRING 02/03 KAB. KLATEN
9634 1100450900 MUHAMMAD FATIHIN 06/10/1973 PEBATAN RT.05/04 WANASARI KAB. BREBES
9635 1100450901 RUDY SETYAWAN 20/06/1969 JUWIRING 02/03 KAB. KLATEN
9636 1100450903 DHAMAS FAISAL HAKIM 24/02/1984 BENDO 03/02 KAB. KLATEN
9637 1100450904 JAMRONI 27/04/1963 DSN. PLUMBON RT.14 / 04 SURUH KAB. SEMARANG
9638 1100450908 MUKHAYATI 29/05/1967 KUJON RT.03 RW.02 KAB. MAGELANG
9639 1100450910 SRI MULYANI 09/10/1975 PEBATAN RT.05/04 WANASARI KAB. BREBES
9640 1100450912 BAMBANG SUPROJO 06/09/1972 KUJON RT.03 RW.02 KAB. MAGELANG
9641 1100450913 CASLAM 12/4/1978 CIKANDANG RT.02/05 KERSANA KAB. BREBES
9642 1100450915 UHROWIYAH HAYATI 19/11/1972 CIKANDANG RT. 02/05 KERSANA KAB. BREBES
9643 1100450921 ISNOTO 1/2/1961 WONOGIRI 23/03 KAB. MAGELANG
9644 1100450922 MUCHAROMAH 21/12/1959 JL.R SUPRAPTO 01/01 KAB. GROBOGAN
9645 1100450927 DARWANTI MASIRAN SUMARTI 12/08/1964 KUTOHARJO 4/6 PATI KAB. PATI
9646 1100450928 SUHARTI 07/11/1962 WULUNG RT 01 RW 02 KAB. BLORA
9647 1100450932 SARBINI 03/11/1975 TANGGULANGIN RT.03 RW.05 KAB. MAGELANG
9648 1100450933 SUHARTI 09/12/1977 TANGGULANGIN 03/05 KAB. MAGELANG
9649 1100450936 MUSYAROKAH 18/05/1965 WONOGIRI RT.24 RW.04 KAB. MAGELANG
9650 1100450937 IMRAN HARAHAP 25/05/1964 PERUM DEPKES A5 / 2 RT. 03 RW. 05 KOTA MAGELANG
9651 1100450939 SUTIMAH SADI PARYO 10/7/1965 BLINGOH 07/06 KEC. DONOROJO KAB. JEPARA
9652 1100450940 SUYATMI 21/12/1966 PERUM DEPKES A5 / 2 RT. 03 RW. 05 KOTA MAGELANG
9653 1100450941 IRNAENI CAHYA ASTUTI 9/8/1966 DEMANGAN TIMUR 01/01 KAB. MAGELANG
9654 1100450942 JEMADI SAMPAN RATIMAN 13/10/1958 BLINGOH 07/06 KEC. DONOROJO KAB. JEPARA
9655 1100450943 DANANG ARI PRABOWO 08/03/1992 BENOWO RT. 006 RW. 008 JATEN KAB. KARANGANYAR
9656 1100450946 MOHAMMAD SYAHID KARYO 18/07/1979 WINONG 1/2 WINONG KAB. PATI
9657 1100450947 KHABIB 13/01/1964 NGAMPEL 05/02 KAB. MAGELANG
9658 1100450950 ERNI EROWATI, DRA 07/03/1965 LENGKONGSARI RT 03 RW 10 KAB. WONOSOBO
9659 1100450951 PAMUJI SRI HARSONO 03/07/1964 LENGKONGSARI RT 03 RW 10 KAB. WONOSOBO
9660 1100450952 BAQIATUS SOLIKHAH 17/08/1968 NGAMPEL RT.05 RW.02 KAB. MAGELANG
9661 1100450953 DARMAN 10/04/1967 DUSUN PANIMBANG RT.003 RW.01 KAB. CILACAP
9662 1100450955 SUWARNO, SAG. 07/06/1958 PENGKOLREJO RT 04 RW 03 KAB. BLORA
9663 1100450956 YARTINI 13/04/1968 PENGKOLREJO RT 04 RW 03 KAB. BLORA
9664 1100450957 AHMAD MUSYAFFA' MAHIN 02/03/1976 NGASEM 02/01 KAB. JEPARA
9665 1100450958 WALIYAH 04/06/1971 DUSUN PANIMBANG RT. 003 RW.01 KAB. CILACAP
9666 1100450959 SUTEJA SUJONO KASIDIN 05/04/1963 BAWU 24/05 KAB. JEPARA
9667 1100450960 SRI SUTANTI HANDAYANI 11/5/1978 MANGGUNG 13/04 KAB. KLATEN
9668 1100450962 PUTHUT KAWURI RUSTAM AJI 26/11/1978 MANGGUNG 13/04 KAB. KLATEN
9669 1100450963 AGUS DWI PRASETYO 31/8/1994 BLETENGAN RT 02 RW 01 KAB. BOYOLALI
9670 1100450965 SRI AMANI 10/11/1958 GAMBUHAN RT 03 RW 01 KAB. BOYOLALI
9671 1100450967 SARWOKO 13/01/1967 BLETENGAN RT 02 RW 01 KAB. BOYOLALI
9672 1100450972 MAMLU'ATUN NI'MAH SHOLEH 19/9/1978 TEMPERAK RT 004 RW 002 SARANG KAB. REMBANG
9673 1100450973 MUADDZIN MURWAFI AFWAN 20/10/1976 TEMPERAK RT 004 RW 002 SARANG KAB. REMBANG
9674 1100450974 SUNARSI 30/04/1960 JL. KALI SAROKA NO.155 RT.01 RW.10 KOTA SURAKARTA
9675 1100450976 NASIR FALAHUDIN 03/02/1969 SAWOJAJAR RT.03/06 BREBES KAB. BREBES
9676 1100450978 SUSILOWATI 23/02/1973 SAWOJAJAR RT.03/06 BREBES KAB. BREBES
9677 1100450979 ISMIYATUN 26/04/1961 DK MASAHAN RT 05 RW 07 KAB. BOYOLALI
9678 1100450980 IR . BAMBANG ISRIYANTO 20/06/1958 JL. KEPODANG 3/9 RT.07 RW.01 KAB. SEMARANG
9679 1100450982 CASMIAH 01/07/1961 KEBORANGAN RT.01 RW.02 KAB. BATANG
9680 1100450983 IR. IDA WIDIHASTUTI 05/03/1965 JL. KEPODANG 3/9 RT.07 RW.01 KAB. SEMARANG
9681 1100450987 SUPARDI 16/07/1965 JL. KERTABUMI NO 06 RT.04 RW.04 KAB. SEMARANG
9682 1100450988 MANIS 05/01/1964 KERTASARI RT. 02/05 SURADADI KAB. TEGAL
9683 1100450989 MUZAYANAH 29/04/1969 KERTASARI RT.02/03 SURADADI KAB. TEGAL
9684 1100450990 IMROAH 14/05/1964 JL. KERTABUMI NO.06 RT.04 RW.04 KAB. SEMARANG
9685 1100450992 HARYANI 14/07/1961 JL. KUTILANG NO.12 PANCAARGA RT. 01/12 KAB. MAGELANG
9686 1100450993 MUCH SAWALI 13/08/1969 DK. BEJI RT 005 / RW 003 KAB. BOYOLALI
9687 1100450994 ZAINAL MUTTAQIN 24/07/1972 SEMBUNGAN UTARA RT.06 RW.04 KAB. SEMARANG
9688 1100450996 SABAR 07/07/1962 BEJI RT 02 RW 03 KAB. BOYOLALI
9689 1100450997 ISTIANAH 17/9/1981 SEMBUNGAN BARAT RT.06 RW.04 KAB. SEMARANG
9690 1100451000 FAUZIAH 13/11/1966 DSN. KETAPANG RT.01 RW.02 KAB. SEMARANG
9691 1100451001 PARJIO 22/05/1958 JL. KUTILANG NO.12 PANCAARGA RT. 01/12 KAB. MAGELANG
9692 1100451002 SULIMAH 18/9/1958 KEDONDONG RT.05/03 KAB. DEMAK
9693 1100451003 SAEPAH 31/12/1962 SIDAPURNA RT.02/01 DUKUHTURI KAB. TEGAL
9694 1100451005 ROCHMANI 21/03/1959 SIDAPURNA RT.02/01 DUKUHTURI KAB. TEGAL
9695 1100451006 MUFASAROH 09/12/1975 BOGOSARI RT.01/01 KAB. DEMAK
9696 1100451008 JOKO WINARNO SUTARMAN 20/04/1981 DS. SAWANGAN RT 01/05 KUWARASAN KAB. KEBUMEN
9697 1100451009 MUHAMMAD FAKHRUR ROZI 20/07/1972 BOGOSARI RT.01/01 KAB. DEMAK
9698 1100451010 SULASTRI 12/8/1993 SIDAPURNA RT.06/01 DUKUHTURI KAB. TEGAL
9699 1100451011 MILIN 31/12/1969 SIDAPURNA RT. 06/01 DUKUHTURI KAB. TEGAL
9700 1100451013 NANANG INDRIYANTO 07/08/1970 NGESENG RT 03/03 KAB. SRAGEN
9701 1100451014 SUKARMINAH 19/06/1958 WONOSARI RT.03/03 KOTA SEMARANG
9702 1100451016 SRI WAHYUNINGSIH SADJIMIN 17/04/1961 TEGALMULYO RT 003 RW 002 KRAGAN KAB. REMBANG
9703 1100451017 SRI LESTARI 15/06/1979 NGESENG RT 03/03 KAB. SRAGEN
9704 1100451019 IRAWAN 17/4/1962 BUKATEJA RT 04 RW 03 KAB. PURBALINGGA
9705 1100451022 SIPYANI 15/11/1964 DSN. GALANGAN RT.05 RW.05 KAB. SEMARANG
9706 1100451024 RUNDIAH 1/6/1964 BUKATEJA RT 04 RW 03 KAB. PURBALINGGA
9707 1100451025 WAHYUDI 23/12/1961 GROGOL RT.12/04 DUKUHTURI KAB. TEGAL
9708 1100451026 TOPO HASTOPO 15/03/1982 WONOSARI RT.03/03 KOTA SEMARANG
9709 1100451027 SITI SUHANI 14/6/1968 DSN. GALANGAN RT.05 RW.05 KAB. SEMARANG
9710 1100451029 ROSIKHO 31/12/1958 GENUKSARI RT 4 RW 9 KOTA SEMARANG
9711 1100451031 SARKONAH 27/03/1964 KEMIRI BARAT JUMBLENG RT.01 RW.04 KAB. BATANG
9712 1100451032 MAESAROH 23/02/1964 KEMURANG WETAN RT.06/02 TANJUNG KAB. BREBES
9713 1100451035 ACHMAD FADOLI, BSC 06/07/1959 KEMURANG WETAN RT.06/02 TANJUNG KAB. BREBES
9714 1100451036 SRI PARTINI 06/03/1981 BULU RT. 03 RW. 03 KAB. KARANGANYAR
9715 1100451038 DULAJIS 28/02/1961 KEMIRI BARAT JUMBLENG RT.01 RW.04 KAB. BATANG
9716 1100451040 ONE ANDANG WARDOYO 25/09/1968 WONOJOYO RT 02 RW 01 KAB. WONOSOBO
9717 1100451042 MUNAWAROH 14/07/1982 SIDOKUMPUL RT 04 RW 02 KAB. DEMAK
9718 1100451044 WIEN SULISTYANINGSIH 03/06/1970 WONOJOYO RT 01 RW 02 KAB. WONOSOBO
9719 1100451045 SON ALI 15/02/1964 SIDOKUMPUL RT 04 RW 02 KAB. DEMAK
9720 1100451049 KASBOLLAH 30/06/1959 PEKAJANGAN GG.11 RT.12/05 KEDUNGWUNI KAB. PEKALONGAN
9721 1100451050 GALUH SETYOWATI 23/04/1978 JL. JATILUHUR RT.03/04 KOTA SEMARANG
9722 1100451051 NANGIMAH DULAH MAKSUM 08/08/1958 PODOLUHUR RT.01/02 KAB. KEBUMEN
9723 1100451054 SUMIDAH 02/12/1975 GEDEGAN, RT.09/RW.02 KAB. TEMANGGUNG
NO NO. PORSI NAMA TANGGAL LAHIR ALAMAT KAB/KOTA KETERANGAN
9724 1100451055 MUHAMAD KOSIM 05/05/1969 JL. JATILUHUR RT 3 RW 4 KOTA SEMARANG
9725 1100451057 MURWATI 01/07/1957 JATILAWANG RT 002/001 KAB. BANJARNEGARA
9726 1100451058 SETYOWATI DWI RISTANTI 23/05/1984 WANADRI. RT. 001/001 BAWANG KAB. BANJARNEGARA
9727 1100451059 DJUPRI 05/09/1959 PANJANGAN RT 7 RW 6 KOTA SEMARANG
9728 1100451060 MUSTADJAB 14/09/1972 BOJANEGARA. RT. 002/001 KAB. BANJARNEGARA
9729 1100451061 NGATMAH 5/10/1958 PANJANGAN RT 7 RW 6 KOTA SEMARANG
9730 1100451063 WAETUN 31/12/1960 BEJI KARANGTUANG RT. 04 RW. 12 KAB. PEMALANG
9731 1100451064 USWATUN KHASANAH 15/05/1979 KERTASARI RT.05/01 SURADADI KAB. TEGAL
9732 1100451067 SUTAR 02/02/1962 KERTASARI RT. 02/05 SURADADI KAB. TEGAL
9733 1100451068 SINOK 1/7/1967 PEKAJANGAN GG.11 RT.12/05 KEDUNGWUNI KAB. PEKALONGAN
9734 1100451069 LASMINAH 31/12/1958 KARANGGINTUNG RT. 1/5 KAB. BANYUMAS
9735 1100451070 WARNIJAH 16/05/1958 DSN. PROMPONG RT. 04 RW. 04 KAB. PEMALANG
9736 1100451073 BUDI MARYANTO DJAKA MULYA 11/08/1971 LANGENHARJO 1/1 MARGOREJO KAB. PATI
9737 1100451074 PUJI WIDYASTUTI KARDJANI 22/05/1979 LANGENHARJO 1/1 MARGOREJO KAB. PATI
9738 1100451078 SIAMI 04/02/1967 GERU 03/01 KAB. MAGELANG
9739 1100451081 MICKI HASTUTI 08/09/1991 WONOREJO RT 10 / 003 KAB. SRAGEN
9740 1100451083 SUWARNI 04/06/1963 WONOREJO RT 10 KAB. SRAGEN
9741 1100451085 DARIYAH MULYOREJO KRAMAJATI 09/08/1958 JOGOPATEN RT.01/02 KAB. KEBUMEN
9742 1100451087 WIWIEK KAROLINA 9/11/1965 KUTOSARI SULANGSARI RT.02 RW.06 KAB. BATANG
9743 1100451089 DYAHSIH HERINARNI BUDIRIYATI 21/12/1960 JL. GUSTI PUTRI I/17 RT.09/05 KOTA SEMARANG
9744 1100451090 ROFIAH 15/07/1962 KEDAWUNG NO. 61 RT. 01/01 TANJUNG KAB. BREBES
9745 1100451092 TATANG BUDIYANTO 29/07/1959 KEDAWUNG NO. 61 RT. 01/01 TANJUNG KAB. BREBES
9746 1100451093 SLAMET ABIDIN 05/06/1964 PAGELAK RT 002/002 KAB. BANJARNEGARA
9747 1100451094 SUBIYANTI 5/7/1964 SEMAMPIR. RT. 004/003 KAB. BANJARNEGARA
9748 1100451095 NURHAYATI 29/11/1964 SINDANGJAYA RT.01/03 KERSANA KAB. BREBES
9749 1100451096 RUKOYAH 15/7/1964 PAGELAK RT 002/002 KAB. BANJARNEGARA
9750 1100451097 RUMINI 18/10/1972 TEGALREJA NO.46 RT. 01/06 BANJARHARJO KAB. BREBES
9751 1100451098 MUHAMMAD HAIZAL MUNA 14/12/1984 TINGKIR LOR RT 03 RW 03 KOTA SALATIGA
9752 1100451099 AKHMAD NUR AZIZ 10/04/1986 JOGOPATEN RT.01/02 KAB. KEBUMEN
9753 1100451100 TASMIYAH IRFAN ABDUL MANAN 03/10/1957 TINGKIR LOR RT 03 RW 05 KOTA SALATIGA
9754 1100451102 JUNEDI 02/11/1966 TEGALREJA NO.46 RT.01/06 BANJARHARJO KAB. BREBES
9755 1100451103 MULYADI 06/07/1972 BULU RT. 03 RW. 03 KAB. KARANGANYAR
9756 1100451104 SUMARYOKO 01/04/1966 LAWANG RT 04 RW 01 KAB. BOYOLALI
9757 1100451106 WASIS MURNIYATI 24/04/1966 LAWANG RT 04 RW 01 KAB. BOYOLALI
9758 1100451108 TUTI MURYATI 24/4/1968 MANGLI RT. 02 RW. 01 KAB. PEMALANG
9759 1100451109 FAUZAH 15/10/1965 BONDANSARI RT.01/01 WIRADESA KAB. PEKALONGAN
9760 1100451110 MUHAMMAD AGUNG 30/10/1965 DK. DERSO RT.02/RW.02 KAB. SUKOHARJO
9761 1100451111 SITI PRIHATIN 17/10/1971 DERSO RT.02/RW.02 KAB. SUKOHARJO
9762 1100451112 SITI KHOMSIYAH NGARSIS SANLIYAS 01/12/1958 KLEGENWONOSARI RT.02/03 KAB. KEBUMEN
9763 1100451115 MERRY SULISTYOWATI 01/05/1962 TEGAL KEPUNTREN RT 04 RW 05 KOTA SURAKARTA
9764 1100451118 NURHADI 07/10/1963 MANGLI RT. 02 RW. 01 KAB. PEMALANG
9765 1100451119 FRINTA AUSTINA PARMAN 04/11/1980 SENDANG 001/001 KEC. KALINYAMATAN KAB. JEPARA
9766 1100451122 HARSONO 23/08/1964 BULU RT. 03 RW. 03 KAB. KARANGANYAR
9767 1100451124 SETYO BUDI 09/04/1971 KARANGANYAR RT 03 RW 05 KAB. BOYOLALI
9768 1100451125 SRI WAHYUNI HARUN ROSYID 12/05/1968 SENDANG 001/001 KEC. KALINYAMATAN KAB. JEPARA
9769 1100451126 SUDIKAN 12/08/1965 SALE RT 01 RW 04 KAB. BLORA
9770 1100451127 TRI MARSIYANTI 08/03/1970 KARANGANYAR RT 03 RW 05 KAB. BOYOLALI
9771 1100451128 EFI RIZQIYATI 18/08/1975 JL. KH. NASUCHA NO.26 RT.02/02 BUMIAYU KAB. BREBES
9772 1100451129 MAIMUNAH 28/06/1964 SALE RT 01/04 KAB. BLORA
9773 1100451130 SITI HARYANTI 01/01/1958 JANGKUNG 01/10 KAB. GROBOGAN
9774 1100451131 MUHAMAD MUKHSON 07/07/1968 JL. KH. NASUCHA NO.26 RT.02/02 BUMIAYU KAB. BREBES
9775 1100451132 SUHARSOYO HARUN ROSYID 4/10/1965 SENDANG 001/001 KEC. KLAINYAMATAN KAB. JEPARA
9776 1100451136 SITI ISTIQOMAH SUKIMAN 29/10/1982 DS. SAWANGAN RT 01/05 KUWARASAN KAB. KEBUMEN
9777 1100451138 MUFTIA FARIDA AHMAD SHOLEH IBRAHIM 08/05/1975 KAJEN 1/1 MARGOYOSO KAB. PATI
9778 1100451144 NOOR AZIZAH 10/08/1965 JL. KH. A. DAHLAN GG. 10 / 409 RT 3 RW. KOTA PEKALONGAN
9779 1100451146 CHOLIK ST SPD 16/08/1971 [Link] I RT.01 RW.01 KAB. PEMALANG
9780 1100451148 TARDO 30/06/1967 KRASAK AGENG RT.03/10 SRAGI KAB. PEKALONGAN
9781 1100451150 IDA KHAMIDAH, S. AG 30/3/1976 JL. GARUDA I PEGUNDAN RT. 01 RW. 07 KAB. PEMALANG
9782 1100451152 GUNADI SETIAWAN 20/10/1971 PUCUNGWETAN RT 15 RW 04 KAB. WONOSOBO
9783 1100451153 SUDIYAH 17/07/1969 KRASAK AGENG RT.03/10 SRAGI KAB. PEKALONGAN
9784 1100451154 SUMARSIH 02/04/1958 PEPEDAN RT 01 RW 08 KAB. PURBALINGGA
9785 1100451156 SRI MUJIYATI 17/08/1972 PUCUNG WETAN RT 015 RW 04 KAB. WONOSOBO
9786 1100451159 SUMARI 01/06/1961 JETAKSARI RT.04/02 KAB. DEMAK
9787 1100451160 MENIK ROHAYATI 26/04/1962 JATISRONO RT.03 RW.01 KAB. WONOGIRI
9788 1100451163 MOHAMMAD SYA'RONI SARMIDI 29/05/1983 BACIN RT 01 RW 03 KAB. KUDUS
9789 1100451165 MUH DALHAR 08/08/1975 PENJOR RT.01 RW.06 KAB. KENDAL
9790 1100451167 LASIYAH MADYASIN SURANTANI 20/05/1959 KLAIBANGKANG RT.02/04 KAB. KEBUMEN
9791 1100451169 SITI ALFIYAH UMAR 15/07/1981 BACIN RT 01 RW 03 KAB. KUDUS
9792 1100451176 KHOMSATUN MUTMAINAH 15/07/1967 TUNGGORONO RT 02/01 KAB. PURWOREJO
9793 1100451179 AHMAD MUAEDHY SUDADI 2/1/1969 KAJEN 1/1 MARGOYOSO KAB. PATI
9794 1100451180 TOFIK HIDAYAT 12/12/1975 ONGGOPATRAN 16/07 KAB. KLATEN
9795 1100451186 SRI LESTARI 20/7/1965 DUKUH RT.18 RW.06 KAB. KLATEN
9796 1100451191 SURATNO SUTARNO SITI KHOFSAH 25/11/1971 SUWADUK 7/3 WEDARIJAKSA KAB. PATI
9797 1100451195 HERY KOESDARWANTO 30/07/1971 DESA DARUPONO RT.01/RW.04 KAB. KENDAL
9798 1100451197 SUKARNI SUWARNO KARMI 02/06/1977 SUWADUK 7/3 WEDARIJAKSA KAB. PATI
9799 1100451198 ABDUL SARNAB 24/2/1960 CIKOKOL RT.02/06 BANTARKAWUNG KAB. BREBES
9800 1100451199 DARGO 16/12/1960 SIDOMULYO 05/03 KAB. GROBOGAN
9801 1100451201 WARSAH 05/07/1959 CIKOKOL RT.02/06 BANTARKAWUNG KAB. BREBES
9802 1100451202 ASRI DWI ASTUTI 14/8/1977 DESA DARUPONO RT.01/RW.04 KAB. KENDAL
9803 1100451203 NENIK PURWANINGSIH 15/12/1973 ONGGOPATRAN 16/07 KAB. KLATEN
9804 1100451204 AHMAD ZUBAIDI TARMAN 02/03/1974 NGASEM 02/01 KAB. JEPARA
9805 1100451205 MASRI'AH IMAM SYAFII 16/06/1965 KARANGHARJO RT 001 RW 002 KRAGAN KAB. REMBANG
9806 1100451206 ASTANTI KASDURI SUMO 18/07/1975 WATUAJI 01/02 KAB. JEPARA
9807 1100451207 SUSANTI 27/8/1971 KETAPANG JOMBOR TIMUR RT.21/RW.07 KAB. KENDAL
9808 1100451208 KHUMAIDI 14/11/1970 KETAPANG JOMBOR TIMUR RT.21/RW.07 KAB. KENDAL
9809 1100451211 WAHYU NUR HIDAYATI SIDIK 22/06/1964 DS. GOMBONG RT 03/03 GOMBONG KAB. KEBUMEN
9810 1100451214 JUNAIDI JAYADI GHONI 29/08/1971 WATUAJI 01/02 KAB. JEPARA
9811 1100451217 SRI NUR CHASANAH SIDIK 28/02/1969 DS. BANJARSARI RT 02/02 GOMBONG KAB. KEBUMEN
9812 1100451218 WATI MUNTARI RAJI 05/10/1961 WORO RT 002 RW 003 KRAGAN KAB. REMBANG
9813 1100451219 KHUSNUL KHOTIMAH ZA ALJOEFRI 06/04/1961 NGEMPLAK RT 001 RW 001 LASEM KAB. REMBANG
9814 1100451220 RUBINI 07/09/1957 NGABLAK RT. 04 RW. 06 KAB. KARANGANYAR
9815 1100451221 UMARUDIN MOHAMAD MANSURI 18/08/1961 NGEMPLAK RT 001 RW 001 LASEM KAB. REMBANG
9816 1100451222 HANAFI SYARIF DJUMAD 01/02/1960 DS. BANJARSARI RT 02/02 GOMBONG KAB. KEBUMEN
9817 1100451223 NOORMANINGSIH,[Link] 01/12/1980 PASEKARAN [Link] 3 NO.57 03 / 03 KAB. BATANG
9818 1100451225 ROKHNY RUSSENO 17/07/1976 PASEKARAN [Link] 3 NO.57 03 / 03 KAB. BATANG
9819 1100451226 SUPATMI 02/11/1961 KEMIRI 01/05 KAB. KLATEN
9820 1100451227 MASRIAH SARTAMIN SONGIMAN 18/08/1963 BAWU 10/02 KAB. JEPARA
9821 1100451228 SUKAMTO 18/09/1959 KEMIRI 01/05 KAB. KLATEN
9822 1100451230 WIDAYANTI 11/08/1961 SAMBUNGREJO RT 27 RW 04 KAB. BOYOLALI
9823 1100451233 ABDUL GHONI 30/01/1962 SAMBUNGREJO RT 027 RW 04 KAB. BOYOLALI
9824 1100451234 SIDAR 10/07/1960 JL. BUDI UTOMO RT. 06 RW. 14 KAB. CILACAP
9825 1100451236 PARINEM 15/5/1968 JL. BUDI UTOMO RT.006 RW.14 KAB. CILACAP
9826 1100451237 PURWADI 27/12/1962 JL. KEMUNING NO. 13 02/06 KAB. GROBOGAN
9827 1100451238 CUNIK PUSPITASARI 29/04/1966 JL. KEMUNING NO. 13 02/06 KAB. GROBOGAN
9828 1100451240 PARIYEM 25/09/1963 KAUMAN RT 08 KAB. SRAGEN
9829 1100451241 NIKMAH 10/02/1959 DSN. TEMBELANGAN RT.01 RW.06 KAB. SEMARANG
9830 1100451242 SUPRAPTO 30/08/1957 KAUMAN RT 08 KAB. SRAGEN
9831 1100451244 SRI PUJIANI 13/06/1964 SIDABOWA RT.01 RW.05 KAB. BANYUMAS
9832 1100451245 SUTIKNO 18/02/1971 BENDO SELATAN 04/02 KAB. GROBOGAN
9833 1100451246 SITI RUKMILAH 06/05/1978 BENDO SELATAN 04/02 KAB. GROBOGAN
9834 1100451247 LENI KUMAELA 30/08/1978 JL. PANGERAN ANTASARI RT. 1 RW. 1 KOTA PEKALONGAN
9835 1100451248 IDA NOOR FITRIYAH 13/09/1974 JEPAT LOR 7/3 TAYU KAB. PATI
9836 1100451249 YUKHOIRUDIN ISWANTO 5/5/1974 JL. PANGERAN ANTASARI RT. 1 RW. 1 KOTA PEKALONGAN
9837 1100451250 AHMAD FAYUMI MA'SUM 25/10/1973 JEPAT LOR 7/3 TAYU KAB. PATI
9838 1100451251 SUKARNO 04/09/1969 PONDOK RT 03 KAB. SRAGEN
9839 1100451252 ROHMAD BOESAIRI PARTO 02/05/1961 JL. PATIMURA 100 RT 04 RW 08 KOTA SALATIGA
9840 1100451253 RUSMIYATI 17/01/1975 PONDOK RT 03 KAB. SRAGEN
9841 1100451254 SUMIYATI JOYO PAINI 15/1/1964 WONOREJO 10/03 KAB. JEPARA
9842 1100451255 DALIM 31/12/1960 PILANGSARI RT 05 KAB. SRAGEN
9843 1100451256 HAMNA BUDIYARTO KANDIR 15/1/1964 WONOREJO 10/03 KAB. JEPARA
9844 1100451257 RUSIDI 17/11/1971 PONDOK RT 03 KAB. SRAGEN
9845 1100451258 NGATIRAH 11/7/1982 PONDOK RT 03 KAB. SRAGEN
9846 1100451259 NUR KHOLIS 20/12/1960 JL. JATIKUSUMAN RAYA RT.06/03 KAB. DEMAK
9847 1100451261 NINGWIYATI 08/05/1966 JL. RAYA KLAREYAN RT. 05 RW. 01 KAB. PEMALANG
9848 1100451262 NUR KHAYATI 01/05/1961 JL. JATIKUSUMAN RAYA RT.06/03 KAB. DEMAK
9849 1100451264 AKHMAD SARIFUDIN 04/02/1966 JL. RAYA KLAREYAN RT. 05 RW. 01 KAB. PEMALANG
9850 1100451265 BAMBANG SURYONO SOEWARTO DIRDJOSOEDARMO
02/10/1960 TAMANWINANGUN RT.03/03 KAB. KEBUMEN
9851 1100451266 SITI ROCHMAH 3/4/1964 KEDUNGBANTENG RT 01 KAB. SRAGEN
NO NO. PORSI NAMA TANGGAL LAHIR ALAMAT KAB/KOTA KETERANGAN
9852 1100451267 HARYANTO 30/12/1966 JL. KAMBOJA NO.20 RT.05 RW.02 KOTA TEGAL
9853 1100451269 ALI RACHMANTO 24/7/1974 PONDOK RT 03 KAB. SRAGEN
9854 1100451270 GETTA ARDAYANI 11/11/1973 PONDOK RT 03 KAB. SRAGEN
9855 1100451277 SUHADAH PANDU MASKAT 25/12/1960 BLIMBING KIDUL RT 01 RW 02 KAB. KUDUS
9856 1100451282 SRI HANDAYANI 03/11/1972 PUCANG. RT. 005/002 KAB. BANJARNEGARA
9857 1100451283 NOR FAIZAH MOCH ALWI 18/05/1984 PLATAR 03/01 KAB. JEPARA
9858 1100451284 MUHAMMAD ABDUL LATIF 9/10/1982 PLATAR 03/01 KAB. JEPARA
9859 1100451286 WILDA SALASATI IMROCHAN 19/12/1975 BAKALAN 14/02 KEC. KALINYAMATAN KAB. JEPARA
9860 1100451289 SETIAWAN BUDHIARTO 05/10/1968 PUCANG RT . 005/002 KAB. BANJARNEGARA
9861 1100451290 SINTORO ADE 28/05/1968 RANDUDONGKAL RT. 30 RW. 04 KAB. PEMALANG
9862 1100451292 SITI MASRUROH 18/08/1975 RANDUDONGKAL RT. 30 RW. 04 KAB. PEMALANG
9863 1100451295 MUSTIKAWATI 10/02/1962 CEPOKOKUNING [Link] RT.01 RW.01 KAB. BATANG
9864 1100451296 SIWI WAHYUSARWOSRI 26/02/1972 PERUM KORPRI V-28 RT. 02/14 KAB. SUKOHARJO
9865 1100451297 SUMIYATI 19/03/1965 JOGOLOYO RT.04/02 KAB. DEMAK
9866 1100451300 SUPARMI 08/06/1966 BEJEN RT. 01 RW. 11 KAB. KARANGANYAR
9867 1100451302 SETYO AJI NUGROHO 17/04/1969 WUNGUSARI RT. 02/06 KAB. SUKOHARJO
9868 1100451303 SUKADI SUCIPTO PRAYITNO 01/02/1963 BEJEN RT 01 RW 11 KAB. KARANGANYAR
9869 1100451304 HERU INDARJO 27/09/1965 JOMBOR INDAH GANG 12 RT. 04/03 KAB. SUKOHARJO
9870 1100451305 UMI SUNARSIH 17/04/1971 WUNGUSARI RT.02/RW.06 KAB. SUKOHARJO
9871 1100451306 SRI SULISTYOWATI 17/05/1976 JL. RAJAWALI, NO. 24, RT.03/RW.02 KAB. TEMANGGUNG
9872 1100451307 SRI WIDAYATININGSIH 14/06/1971 JOMBOR INDAH GANG 12 RT. 04/03 KAB. SUKOHARJO
9873 1100451308 SURATI 20/02/1973 GODEAN RT 05 RW 04 KAB. WONOSOBO
9874 1100451309 TRIAS USADANA 08/07/1974 JL. RAJAWALI, NO. 24, RT.03/RW.02 KAB. TEMANGGUNG
9875 1100451310 ROBI'ATUL ADAWIYAH SUHUD 21/2/1973 BAWU RT.013/003 KAB. JEPARA
9876 1100451313 LUKLUUL MAKNUN 15/12/1977 JL. PUCANG ARGO RAYA NO.46 RT.07/25 KAB. DEMAK
9877 1100451314 CASWONO 11/01/1972 JETAK RT.01/02 SINDANGWANGI BANTARKAWUNG KAB. BREBES
9878 1100451315 SALAFUDIN YUSRA YOENOES 02/08/1976 BAKALAN 14/02 KEC. KALINYAMATAN KAB. JEPARA
9879 1100451316 TITIK EFENDI 26/06/1991 PUNDUNG RT 05 RW 02 KAB. WONOSOBO
9880 1100451317 FARID RIYANTO 18/01/1970 JL. GERILYA NO.22 RT02 RW07 KAB. CILACAP
9881 1100451318 ANNA YULIANTI 02/07/1978 PILANGSARI RT 17 KAB. SRAGEN
9882 1100451319 EMI SUSANAH 05/06/1974 JL. GERILYA NO. 22 RT. 02 RW. 07 KAB. CILACAP
9883 1100451320 NUNUNG NURJANAH 16/02/1973 JETAK RT.01/02 SINDANGWANGI BANTARKAWUNG KAB. BREBES
9884 1100451321 ABDUL GHOFAR 05/09/1984 PUNDUNG RT 05 RW 02 KAB. WONOSOBO
9885 1100451323 RODI RASYIDI 24/05/1967 PAKISAN, RT.01/RW.05 KAB. TEMANGGUNG
9886 1100451324 LILIK WURYANI 19/05/1965 BANGSAL RT.04 RW.02 KAB. MAGELANG
9887 1100451325 SUGIONO 07/09/1962 BANGSAL 04/02 KAB. MAGELANG
9888 1100451326 UMIYATI 07/11/1968 BEJEN RT 01 RW 11 KAB. KARANGANYAR
9889 1100451328 SURIYANA NINGSIH 6/6/1969 SUROPATI RT 05 RW 09 KAB. WONOSOBO
9890 1100451332 M BUDI JATMIKO 10/10/1959 CEMANGKLEK 04/09 KAB. MAGELANG
9891 1100451334 NOK AFIYAH 31/12/1966 CEMANGKLEK RT.04 RW.09 KAB. MAGELANG
9892 1100451335 NAJMA NORA AGUSTINA 14/8/2002 LANGKAP RT 001 / RW 002, LANGKAP, KEDUNGWUNI
KAB. PEKALONGAN
9893 1100451340 SITI MUSTAGHFIROH 28/11/1970 DESA SUKOLILAN RT.03/RW.01 KAB. KENDAL
9894 1100451341 CAMELIA CONETA 17/06/1991 LANGKAP RT 001/ RW 002 KEDUNGWUNI KAB. PEKALONGAN
9895 1100451345 SRI WALUYO 01/10/1963 KARANGDUREN RT 01 RW 01 KAB. BOYOLALI
9896 1100451347 LISTINAH 12/4/1964 KARANGDUREN RT 01 RW 01 KAB. BOYOLALI
9897 1100451349 TARYADI 26/11/1957 KALIMENDONG RT 05 RW 02 KAB. WONOSOBO
9898 1100451352 SOHIROH 21/06/1979 JEJEG RT.02/02 BUMIJAWA KAB. TEGAL
9899 1100451354 FATCHURI 06/08/1978 JEJEG RT.02/02 BUMIJAWA KAB. TEGAL
9900 1100451357 SONHAJI 10/7/1975 KARANGSUNO RT.04 RW.02 KAB. KENDAL
9901 1100451358 ABDUL FATAH 31/12/1957 REJOSARI 03/02 KAB. GROBOGAN
9902 1100451362 SUNARYO 28/03/1969 [Link] RT.04/01 BUMIAYU KAB. BREBES
9903 1100451363 TUTIK TRI CAHYAWATI 09/02/1964 JL. PRINGGODANI NO.01 RT.02/RW.04 KAB. KENDAL
9904 1100451364 MASRUROH 10/04/1983 KARANGSUNO RT.03/RW.02 KAB. KENDAL
9905 1100451366 MARONO 18/05/1969 GEMOLONG RT 03 KAB. SRAGEN
9906 1100451368 SADIYO WAGIMAN NGOKIMAN 12/01/1959 BULUNGCANGKRING RT 01 RW 11 KAB. KUDUS
9907 1100451369 TATIK 10/05/1974 GEMOLONG RT 03 KAB. SRAGEN
9908 1100451374 ABU TOYIB SUYATNO 16/4/1962 KARANGROWO RT 06 RW 04 KAB. KUDUS
9909 1100451377 TARI 20/11/1965 KALIMENDONG RT 05 RW 02 KAB. WONOSOBO
9910 1100451378 ARIFIN GIRI SUSANTO 01/10/1979 DUSUN KARNGPUTAT RT 002 / RW 005 KAB. KEBUMEN
9911 1100451381 SUHIMI AL SUMIAH 15/04/1977 SEMANDING RT 013 RW 007 KAB. WONOSOBO
9912 1100451382 KHUSNA FARIDA 04/03/1960 SAYANG MULYO RT 01 RW 06 KAB. WONOSOBO
9913 1100451385 SRI MULYATI 18/7/1957 KAYUNAN TIMUR RT.02/02 KAYUGERITAN KAB. PEKALONGAN
9914 1100451386 MUHAJIRIN 20/10/1972 BALAPULANG WETAN RT. 02/10 KAB. TEGAL
9915 1100451387 FASIDAH 04/01/1968 PEPEDAN RT.04/01 DUKUHTURI KAB. TEGAL
9916 1100451388 SRI SUPARTINI 10/04/1958 KEDUNGDOWO RT 05 KAB. SRAGEN
9917 1100451389 ENI ERAWATI 23/05/1969 [Link] RT.04/01 BUMIAYU KAB. BREBES
9918 1100451390 SUTRISNO SABARIYANTO SARYANI 04/11/1975 MLATI LOR RT 01 RW 05 KAB. KUDUS
9919 1100451391 MARLIJANTI 30/05/1971 JL. TAMAN TLOGOMULYO IV RT 1 RW 7 KOTA SEMARANG
9920 1100451393 SRI PURWANTI 05/05/1958 KEBONSARI RT 01 KAB. SRAGEN
9921 1100451394 TINA MARTINI AFIF SHOLEH 23/03/1977 MLATI LOR RT.01 RW.05 KAB. KUDUS
9922 1100451396 SUHUDI 7/7/1957 PUCUK RT 13 KAB. SRAGEN
9923 1100451398 KUSTINI KASTUBI GIMAN 31/12/1963 NGEMBALREJO RT 01 RW 01 KAB. KUDUS
9924 1100451400 SUMARNI MARTO GUNDUL 17/09/1966 BULUNGCANGKRING RT 01 RW 11 KAB. KUDUS
9925 1100451401 SRI SOLEKHATI 10/01/1967 KAYUNAN TIMUR RT.02/02 KAYUGERITAN KAB. PEKALONGAN
9926 1100451402 SUDARNI'AH REJO SARPIN 23/05/1968 WEDELAN RT.001/005 KAB. JEPARA
9927 1100451404 ENNY SULISTIJOWATI 16/5/1959 MLANDANG 20/09 KAB. KLATEN
9928 1100451405 M. ABDULLAH ZAINI SULAIMAN 21/10/1968 BAWU RT.013/003 KAB. JEPARA
9929 1100451406 SYAMSUL BAHRI 3/4/1967 SALAM RT 13 KAB. SRAGEN
9930 1100451407 SUYATI 31/12/1966 KARANGMALANG RT 11 KAB. SRAGEN
9931 1100451409 ISKANDAR 19/09/1972 JL. TAMAN TLOGOMULYO IV RT.01/07 KOTA SEMARANG
9932 1100451410 SRIANAH 18/04/1959 KRAJAN 02 RT.02 RW.02 KAB. KENDAL
9933 1100451411 SUNARTO 15/04/1961 KARANGMALANG RT 11 KAB. SRAGEN
9934 1100451413 MASLAKHA 10/07/1961 DANAWARIH RT.01/01 BALAPULANG KAB. TEGAL
9935 1100451417 LATIFAH HADI SANJAYA 5/10/1978 PELOKSEPUR RT 13 KAB. SRAGEN
9936 1100451422 KOZIN 26/12/1957 WONOYOSO GG.3 RT.10/04 BUARAN KAB. PEKALONGAN
9937 1100451423 SUMARDIYATMI HADI SUPRAPTO 23/03/1959 SINGOROJO 05/03 KAB. JEPARA
9938 1100451424 ROCHIMAH 23/01/1961 WONOYOSO GG.3 RT.10/04 BUARAN KAB. PEKALONGAN
9939 1100451426 SUYONO SUMARDI JAMARI 10/08/1967 LAU RT 11 RW 04 KAB. KUDUS
9940 1100451427 JUMIAH MARJAN MARTO REJO 20/02/1966 LAU RT 01 RW 04 KAB. KUDUS
9941 1100451428 MULYONO MARDI SUGITO 01/07/1959 SINGOROJO 05/03 KAB. JEPARA
9942 1100451429 MASKUB MARZUKI MUSLIM 10/08/1957 NGEMBALREJO RT 04 RW 02 KAB. KUDUS
9943 1100451430 SUPRIYATIN BASIRUN MAT SIRAJ 06/11/1967 NGEMBALREJO RT 04 RW 02 KAB. KUDUS
9944 1100451431 WELAS PAIMIN NGONGARSANI 16/02/1969 KALIPUCANG KULON 07/04 KAB. JEPARA
9945 1100451433 ROFIATUN ANWAR ASMURI 21/09/1959 SINGOCANDI RT.03 RW.04 KAB. KUDUS
9946 1100451435 NUR EKO 10/08/1972 TURIREJO RT.01/12 KAB. DEMAK
9947 1100451436 YARMI TITI ANA WATI 02/02/1976 KALIPUCANG KULON 05/03 KAB. JEPARA
9948 1100451437 SULISTYONINGSIH 09/12/1974 TURIREJO RT.01/12 KAB. DEMAK
9949 1100451438 SITI AMINAH TOHAR 15/1/1962 SETROKALANGAN RT 01 RW 0W KAB. KUDUS
9950 1100451439 ALI MAHMUDI 17/12/1973 DUSUN WENI RT 04/03 KAB. BLORA
9951 1100451440 SLAMET TEGUH PUJI RAHARJO 29/10/1964 SUROPATI RT 05 RW 09 KAB. WONOSOBO
9952 1100451441 YULIATI 19/6/1979 DUSUN WENI RT 04/03 KAB. BLORA
9953 1100451442 NUR AKHMAD NASHORI 12/10/1978 DLIMAS KEBUNSARI RT.02 RW.04 KAB. BATANG
9954 1100451443 MOHTAR AL DADIK 25/3/1968 PERUM DEPKES D 5 NO. 23 RT. 03 RW. 03 KOTA MAGELANG
9955 1100451445 SUTEKNO SUKARMAN KASMAN 15/11/1973 KALIPUCANG KULON 05/03 KAB. JEPARA
9956 1100451446 RATNA FIBRI WAHYUNININGSIH 11/2/1988 PLUMBUNGAN RT 05/02 KAB. SRAGEN
9957 1100451447 SUTRISNI 31/12/1960 PLUMBUNGAN RT 05/02 KAB. SRAGEN
9958 1100451448 TUTIK ERNAWATI MUHADI 07/07/1969 HADIPOLO RT 01 RW 05 KAB. KUDUS
9959 1100451449 ENY YUNIATUN 01/06/1980 PLUMBUNGAN RT 05/02 KAB. SRAGEN
9960 1100451450 ANDI NIRTIYANTO 05/07/1977 PLUMBUNGAN RT 05/02 KAB. SRAGEN
9961 1100451451 MUHAMMAD HARMUZI SUKARMAN 05/06/1970 DS. SIDOMORO RT 01/05 BULUSPESANTREN KAB. KEBUMEN
9962 1100451453 MAHMUDI 11/5/1963 KARANGASEM RT 01/01 KAB. SRAGEN
9963 1100451455 SRI BUDIMARYATI 14/11/1976 SALAM RT 13 KAB. SRAGEN
9964 1100451456 MUHTAR YAHYA 10/8/1976 PELOKSEPUR RT 13 KAB. SRAGEN
9965 1100451457 TITIK ASHURIYATI AHMAD MASYHURI 14/11/1973 SIDOMORO RT.01/05 KAB. KEBUMEN
9966 1100451459 AGUS LISTIYONO 05/10/1971 JL. ANGSANA KAPLING KRIDOSONO RT 02/05 KAB. BLORA
9967 1100451461 SRI SUPADMI 07/05/1970 KARANGASEM RT 01/01 KAB. SRAGEN
9968 1100451464 UJANG SHOLEH 08/08/1993 DUSUN KEBANARAN RT.001 RW.05 KAB. CILACAP
9969 1100451466 GINANJAR ABDUNNAFI' 18/08/1994 BRUMBUNG RT.05/03 KAB. DEMAK
9970 1100451467 SITI NGAISAH 05/06/1961 DUSUN KEBANARAN RT.01 RW.05 KAB. CILACAP
9971 1100451468 SUMARNI 27/07/1977 PILANG BANGU RT 20 KAB. SRAGEN
9972 1100451469 ZARQONI SUBADI RAHMAT 09/05/1980 KLALING RT 10 RW 04 KAB. KUDUS
9973 1100451472 ZAENAL ARIFIN 03/09/1976 PILANGBANGU RT 20 KAB. SRAGEN
9974 1100451474 AINIA SOFIA RUCHANI 4/6/1983 KLALING RT.10 RW.04 KAB. KUDUS
9975 1100451476 RATNA SENJA MULYA 14/11/1987 GAPURO RT.04 RW.02 KAB. BATANG
9976 1100451477 ABDUL MUIS 06/04/1981 GAPURO GG.4 NO.26 RT.04 RW.02 KAB. BATANG
9977 1100451478 ZAENAL ABIDIN 12/3/1963 GETAS DUWUR RT.02/RW.04 KAB. KENDAL
9978 1100451482 SYAKIRUN 15/10/1969 GUMANTI RT.02/01 KUTOREJO KAJEN KAB. PEKALONGAN
9979 1100451483 ALPIYAH 07/07/1969 GETAS DUWUR RT.02/RW.04 KAB. KENDAL
NO NO. PORSI NAMA TANGGAL LAHIR ALAMAT KAB/KOTA KETERANGAN
9980 1100451484 SUKIRNO 24/06/1966 DOLOGAN RT 02 RW 01 KAB. BLORA
9981 1100451485 MUKINI 10/4/1974 DOLOGAN RT 02/01 KAB. BLORA
9982 1100451486 SUWARTI 28/12/1969 PURWOREJO II RT 14 KAB. SRAGEN
9983 1100451487 NUR EMI 26/10/1972 GUMANTI RT.02/01 KUTOREJO KAJEN KAB. PEKALONGAN
9984 1100451488 HADI SUGIYO 31/12/1962 PURWOREJO RT 14 KAB. SRAGEN
9985 1100451490 IDA SUPRIYADI 15/01/1980 JETIS RT.02/RW.06 KAB. SUKOHARJO
9986 1100451491 MUDHAKIR 22/07/1975 KP. DESEL NGALIYAN RT 3 RW 9 KOTA SEMARANG
9987 1100451492 SUPIYAH SUCITO SUMO WARSIDIN 06/04/1971 TEGALMULYO RT 005 RW 001 KRAGAN KAB. REMBANG
9988 1100451493 SUHARDJITO HASTROPAWIRO SOWO 21/03/1962 TEGALMULYO RT 005 RW 001 KRAGAN KAB. REMBANG
9989 1100451494 TOIFAH 02/11/1972 KP. DESEL NGALIYAN RT 3 RW 9 KOTA SEMARANG
9990 1100451495 SRI PURWATI 18/2/1962 BRANGKAL 12/06 KAB. KLATEN
9991 1100451496 TAYINEM DULATIF NAHROWI 18/10/1957 KLEGENWONOSARI RT.03/03 KAB. KEBUMEN
9992 1100451498 NASRIAH 26/05/1973 KETAPANG RT.20 RW.07 KAB. KENDAL
9993 1100451499 MARYONO 01/06/1965 SOMOLINGGANG 02/03 KAB. KLATEN
9994 1100451501 SITI ROKHIMAH 20/05/1965 SOMOLINGGANG 02/03 KAB. KLATEN
9995 1100451502 TRI PURWANTO BUSRO 02/02/1961 SUWAWAL TIMUR 04/03 KEC. PAKIS AJI KAB. JEPARA
9996 1100451504 ERLYN KUSUMAWATI 03/03/1982 DK. JETIS RT.02/RW.06 KAB. SUKOHARJO
9997 1100451505 HASAN 16/04/1962 JL. WILIS NO. 45 RT. 5 RW. 1 KOTA PEKALONGAN
9998 1100451506 WIYANTONO 20/05/1959 [Link] [Link] REJASARI RT.5/7 KAB. BANYUMAS
9999 1100451508 KUSRIYATI 19/01/1971 KEDUNGPRING RT. 1/4 KAB. BANYUMAS
10000 1100451509 MANIK INDRA DEFIE 01/10/1958 [Link] [Link] RT.5/7 REJASARI KAB. BANYUMAS
10001 1100451510 SARIYATI 28/01/1960 PUCANGREJO RT.05/RW.02 KAB. KENDAL
10002 1100451513 SARTINAH DULKHANAN PAREJA 01/03/1966 DS. KALIBENING RT 04/02 K KARANGGAYAM KAB. KEBUMEN
10003 1100451517 HAFIDH MUNAWIR 19/08/1976 KEPUTREN RT. 04/08 KAB. SUKOHARJO
10004 1100451518 KASIRUN 18/4/1967 KEDUNGPRING RT. 1/4 KAB. BANYUMAS
10005 1100451520 SALBIYAH 31/12/1961 SANGUBANYU UTARA RT.02 RW.12 KAB. MAGELANG
10006 1100451521 SHOFIATUZ ZUHROH 27/11/1981 KEPUTREN RT. 04/08 KAB. SUKOHARJO
10007 1100451522 ZAEN NUGROHO 10/03/1989 KUWASEN REJO RT 003 / RW 004 KOTA SEMARANG
10008 1100451526 MUH RIDWAN HASYIM 12/09/1962 MALANGAN RT 14 RW 03 KAB. BOYOLALI
10009 1100451530 PARSUM 17/7/1959 SOMAGEDE RT 01 RW 04 KAB. BANYUMAS
10010 1100451535 DJAMI DJOJO DJAMAL 30/12/1959 SUMBERGIRANG RT 002 RW 007 LASEM KAB. REMBANG
10011 1100451536 SAIMUN MAD WINTANOM MAD MULYA 11/03/1968 MIRIT RT.02/01 KAB. KEBUMEN
10012 1100451537 YULI ASTUTI NINGSIH 09/06/1959 REJOSARI RT.02/01 KAB. DEMAK
10013 1100451538 NIKEN SUSIANI 24/1/1970 JL. PROGO NO.27 RT.001 RW.06 KAB. CILACAP
10014 1100451540 MURNINING EDIASIH SUKAMTO 19/11/1966 MIRIT RT.02/01 KAB. KEBUMEN
10015 1100451541 SANIS 21/12/1969 JL. MERBABUNO.21 RT.002 RW.06 KAB. CILACAP
10016 1100451544 IMRON ROSYADI MUHAMMAD 7/6/1974 JEPANGPAKIS RT 03 RW 04 KAB. KUDUS
10017 1100451545 TUGIYANTI 30/10/1973 TUBAN KULON RT. 02 RW. 02 KAB. KARANGANYAR
10018 1100451546 YAFIE WIRA MAHADIKA 01/05/1994 JL. PROGO NO.27 RT.001 RW.06 KAB. CILACAP
10019 1100451547 PURWATI 09/12/1958 PACEKELAN RT 01/03 KAB. PURWOREJO
10020 1100451548 NIK RUMIATUN SUBHAN 17/05/1978 JEPANGPAKIS RT.03 RW.04 KAB. KUDUS
10021 1100451549 SUDARNO 03/06/1967 TUBAN KULON RT. 02 RW. 02 KAB. KARANGANYAR
10022 1100451551 RATI 02/06/1960 RANDUDONGKAL RT. 23 RW. 03 KAB. PEMALANG
10023 1100451552 MUHAMMAD ADIB DAHLAN 02/08/1978 BUMIREJO 5/1 JUWANA KAB. PATI
10024 1100451554 SITI ASMAH 02/10/1977 KETIWIJAYAN RT 01/01 KAB. PURWOREJO
10025 1100451558 PURWATI 15/08/1964 SAWAHJOHO RT.01 RW.01 KAB. BATANG
10026 1100451559 SULISTIYONO 06/06/1973 SAWAHJOHO RT.02 RW.01 KAB. BATANG
10027 1100451560 FARICHIYAH 08/03/1962 DI PANJAITAN RT.02/13 NO.10 BREBES KAB. BREBES
10028 1100451561 KHUMIDAH 01/05/1971 SAWAHJOHO RT.02 RW.01 KAB. BATANG
10029 1100451563 ISTI QOKIMAH SUYOTO WAYO 12/02/1984 BUMIREJO 4/1 JUWANA KAB. PATI
10030 1100451565 YULIATUNIINGSIH 7/7/1968 KARANG KLESEM RT 01 RW 07 KAB. BANYUMAS
10031 1100451568 WATA 10/11/1960 PESANTREN RT 01 RW 02 KAB. BANYUMAS
10032 1100451572 IKHWAN YUSUF SUPARDI 08/08/1983 BUMIREJO 4/1 JUWANA KAB. PATI
10033 1100451573 NUR SAHID 12/04/1979 TEGALKANGKUNG RT.02/02 KOTA SEMARANG
10034 1100451575 SUPRIYATI 11/02/1981 TEGALKANGKUNG RT.02/02 KOTA SEMARANG
10035 1100451576 SUPOYO 20/8/1957 JOJOGAN RT03 RW01 KAB. TEMANGGUNG
10036 1100451578 SOFFATALIANA MUJAEROAH SUPARDI 22/11/1985 BUMIREJO 5/1 JUWANA KAB. PATI
10037 1100451579 NANI SETYOWATI 25/09/1963 KARANGKLESEM RT. 4/4 KAB. BANYUMAS
10038 1100451580 ONY HARDOKO 19/02/1973 SELOREJO BARU RT 29 RW 03 KAB. BOYOLALI
10039 1100451581 SURATNI 05/07/1962 SUKOREJO RT. 01 RW. 14 KAB. KARANGANYAR
10040 1100451582 YAMTO 22/09/1977 DK. SIRING RT.01/RW.06 KAB. SUKOHARJO
10041 1100451583 SITI MAHMUDAH 09/05/1968 JL. MARGOYOSO II NO. 47 RT 5 RW 4 KOTA SEMARANG
10042 1100451585 ENI ASTUTI 30/08/1967 REMPOAH RT.4/1 KAB. BANYUMAS
10043 1100451586 ASMUNI,[Link] 21/02/1958 TANJUNGSARI RT.01 RW.01 KAB. BATANG
10044 1100451587 ESTI KARTIKA DEWI 23/04/1978 SELOREJO BARU RT 29 RW 03 KAB. BOYOLALI
10045 1100451588 MUSRIATI 23/06/1966 TANJUNGSARI RT.01 RW.01 KAB. BATANG
10046 1100451590 JOKO NURSUSMONO 20/06/1966 REMPOAH RT. 4/1 KAB. BANYUMAS
10047 1100451591 TARYANTO 09/07/1972 JL. MARGOYOSO II NO. 47 RT 5 RW 4 KOTA SEMARANG
10048 1100451592 SRI SUMARNI 21/06/1974 KARANG PULUHAN 05/03 KAB. KLATEN
10049 1100451593 EDI SETYO PRANOTO 16/02/1968 KARANGKLESEM RT. 1/7 KAB. BANYUMAS
10050 1100451594 TRI NUR ROCHMANINGSIH 2/2/1968 PERUM GAYAMSARI BLOK L NO.12 RT.01/13 KAB. SUKOHARJO
10051 1100451595 ALPIYAH 31/12/1960 CITRO MANGGISAN 03/01 KAB. MAGELANG
10052 1100451598 MULYANTO 08/08/1984 SUGIHARJO 3/1 PATI KAB. PATI
10053 1100451600 UPIK SRI LESTARI 23/02/1968 MRANGGEN RT.03/RW.03 KAB. SUKOHARJO
10054 1100451602 JOKO SETYO BASUKI 29/07/1961 MRANGGEN RT.03/RW.03 KAB. SUKOHARJO
10055 1100451603 SRI RUKAYATI JALMI 01/07/1961 SUGIHARJO 3/1 PATI KAB. PATI
10056 1100451604 NGATIYEM 26/05/1960 SIRING RT. 01/06 KAB. SUKOHARJO
10057 1100451606 SITI MARDIYAH 24/06/1966 BAKULAN LOR RT 10 RW 02 KAB. BOYOLALI
10058 1100451607 NURYANI 26/01/1978 CITRO MANGGISAN RT.03 RW.01 KAB. MAGELANG
10059 1100451610 HARUN 29/08/1962 BAKULAN LOR RT 10 RW 02 KAB. BOYOLALI
10060 1100451612 SUKARNO 26/03/1962 KEBAK RT. 04 RW. 03 KAB. KARANGANYAR
10061 1100451613 SRI REJEKI MARTO ATMOJA 23/03/1958 KARANGPULE RT.03/04 KAB. KEBUMEN
10062 1100451614 SURYATMINI 02/05/1965 BUNDER RT 01 RW 03 KAB. BOYOLALI
10063 1100451615 NASISWATI KAYUBI RONO 01/02/1971 BAWU RT.032/007 KAB. JEPARA
10064 1100451616 IIN WAINAH 13/09/1969 GEBANG RT, 01 RW. 17 KOTA SURAKARTA
10065 1100451617 MULYANA 07/06/1962 NGARES RT 23 RW 03 KAB. BOYOLALI
10066 1100451618 SUWARTO 23/02/1964 BUNDER RT 01 RW 03 KAB. BOYOLALI
10067 1100451620 YATI SUMARYATI 28/02/1966 WONOKARTO UTARA RT.01 RW.07 KAB. WONOGIRI
10068 1100451621 SUNTANI PARMO PARIS 13/04/1960 BAWU RT.032/007 KAB. JEPARA
10069 1100451623 MUHIDIN 28/04/1961 PENDEM 02/03 KAB. KLATEN
10070 1100451626 SITI JUWARIYAH 22/03/1962 PENDEM 02/03 KAB. KLATEN
10071 1100451628 SUTARNI 17/01/1965 SOMAGEDE RT 01 RW 04 KAB. BANYUMAS
10072 1100451629 WIYONO 7/5/1966 GEBANG RT.01 RW.17 KOTA SURAKARTA
10073 1100451632 RUMINAH 20/10/1958 CABAWAN [Link] 1 RT.01 RW.02 KOTA TEGAL
10074 1100451634 AKHMAD KAFI 11/11/1962 TEGALWANGI RT.03/01 TALANG KAB. TEGAL
10075 1100451636 NURUL CHOTIMAH ES 25/02/1979 TANGKISAN POS 06/03 KAB. KLATEN
10076 1100451637 SULARTO 24/03/1963 WONOKARTO UTARA KAB. WONOGIRI
10077 1100451638 NASIRIN DJAJERI KARJANIMEN 01/08/1968 GETASPEJATEN 05 RW.03 KAB. KUDUS
10078 1100451639 M ALI MUSTOFA 6/3/1972 TANGKISAN POS 06/03 KAB. KLATEN
10079 1100451640 PURNA ADI MINTARTO 21/11/1982 BAKUNG RT.01/01 KAB. DEMAK
10080 1100451641 MURSANTI 28/11/1972 TEGALWANGI RT.03/01 TALANG KAB. TEGAL
10081 1100451642 ZAENURI 29/9/1980 SUMBEREJO RT 004 / RW 003 KOTA SEMARANG
10082 1100451643 ANTO 17/10/1964 GONDANG RT.03 RW.01 KAB. WONOGIRI
10083 1100451644 KAMSINAH 10/12/1960 KP. AMPEL SARI RT 6 RW 23 KOTA SEMARANG
10084 1100451645 NENENG TRI LUSIANA 10/09/1982 WANGON RT 001 RW 003 KAB. BANJARNEGARA
10085 1100451647 NUR ROKHIM AHMAD ISNAIN 14/05/2000 TEBON GEDE 01/08 KAB. KLATEN
10086 1100451648 MURWATI 09/11/1963 TEBON GEDE 01/08 KAB. KLATEN
10087 1100451649 NUR ACHMAD 06/06/1971 JL. KYAI KHOLID BARAT NO.60 RT.03/14 BBS KAB. BREBES
10088 1100451650 AMIN NURITA FAJAR ASTUTI 09/10/1975 KEDAWUNG RT 02 RW 09 KAB. WONOSOBO
10089 1100451651 IRFAI AL FARUQ 22/02/1963 DUSUN BOJA RT.03 RW.04 KAB. KENDAL
10090 1100451652 CHOLIDATU NI'MAH 01/01/1975 JL. KYAI KHOLID BARAT NO.60 RT.03/14 BBS KAB. BREBES
10091 1100451653 AMIN BUDI SANTOSO 21/02/1973 KEDAWUNG RT 02 RW 09 KAB. WONOSOBO
10092 1100451654 RINI WARDIANA 12/05/1969 GONDANG RT.03 RW.01 KAB. WONOGIRI
10093 1100451656 RIZUL FATEKAH 28/02/1984 BAKUNG RT.01/01 KAB. DEMAK
10094 1100451659 MASDUKI MUCHAMAD DAHLAN 02/06/1970 LEMAHDUWUR RT.03/05 KAB. KEBUMEN
10095 1100451660 PARTIMAH 11/08/1969 KURIPAN 05/13 KAB. GROBOGAN
10096 1100451661 SAENI RASMANI PASIRAN 14/08/1964 TAWANGREJO RT 001 RW 001 SARANG KAB. REMBANG
10097 1100451662 RATNA LEGAWATI 08/11/1961 MANGGISAN INDAH RT 05 RW 06 KAB. WONOSOBO
10098 1100451663 SUKARI 04/05/1969 KURIPAN 05/13 KAB. GROBOGAN
10099 1100451664 SRI RAHAYU MOCHAMAD NGARSIS 6/1/1972 LEMAHDUWUR RT.003/005 KAB. KEBUMEN
10100 1100451665 SRI PUDJIATI 22/12/1967 JL PUNTODEWO 1/8 RT 06/01 KAB. BLORA
10101 1100451668 ASMUJI 03/05/1961 BANJARAN RT.04 RW.05 KAB. PEMALANG
10102 1100451669 UMORO DANA MULYADI 4/2/1963 MANGGISAN INDAH RT 05 RW 06 KAB. WONOSOBO
10103 1100451670 MUSRI'AH 27/10/1975 LOGUNG RT 006 RW 002 SUMBER KAB. REMBANG
10104 1100451671 YON SUGIYONO 14/04/1963 JL PUNTODEWO 1/26 RT 06/01 KAB. BLORA
10105 1100451672 HANI MAYAWATI 10/07/1963 KRAGILAN 17/08 KAB. KLATEN
10106 1100451673 SUJIANTO 16/08/1968 DS. SEMPU RT 03/01 KAB. BLORA
10107 1100451676 JASMIYATI 10/4/1979 DS. SEMPU RT 03/01 KAB. BLORA
NO NO. PORSI NAMA TANGGAL LAHIR ALAMAT KAB/KOTA KETERANGAN
10108 1100451677 PARYATI WAGE PARNI 10/10/1977 BENDAR 1/2 JUWANA KAB. PATI
10109 1100451679 SITI MARYAM 27/08/1968 BANJARAN RT. 04 RW. 05 KAB. PEMALANG
10110 1100451680 RUMI KASIRIN SURAJI 02/09/1959 LOGUNG RT 006 RW 002 SUMBER KAB. REMBANG
10111 1100451681 JUANDOYO 01/01/1968 RT.03 RW.01 KAB. BATANG
10112 1100451683 TITIK MARTINI, [Link] 12/03/1975 PERUM BUMI POKOH INDAH B.09 RT. 02/07 KAB. KARANGANYAR
10113 1100451684 MUTAMIMAH MUSLIM ABDUL WAHAB 30/06/1961 NGOTET RT 005 RW 004 REMBANG KAB. REMBANG
10114 1100451685 LUKMANUL HAKIM AL AZHAR 23/06/1991 KRAGILAN 17/08 KAB. KLATEN
10115 1100451686 ROHMAD HARYANTO, ST 08/10/1972 PERUM BUMI POKOH INDAH B.09 RT. 02/07 KAB. KARANGANYAR
10116 1100451688 TRI ASRIYANI 02/08/1967 PATUTREJO RT 05/02 KAB. PURWOREJO
10117 1100451689 PRISTIYANTO DJOEPRIJANTO SARMADI 26/09/1962 NGOTET RT 005 RW 004 REMBANG KAB. REMBANG
10118 1100451693 RETNO MARSISTININGSIH 14/01/1965 JL. BLEDAK KANTIL 4/5 BLOK A RT.04/06 KOTA SEMARANG
10119 1100451696 AGUS HERI SUTOPO 08/08/1965 JL. BLEDAK KANTIL 4/5 BLOK A RT.04/06 KOTA SEMARANG
10120 1100451697 MUHAMMAD IMAM NASYIRUDDIN 05/05/1964 DS. TRIKARSO RT 03/04 SRUWENG KAB. KEBUMEN
10121 1100451698 KARSINI 01/01/1964 NGUNUT RT 04/10 KAB. SUKOHARJO
10122 1100451699 UMI KULSUM ISWARINI 20/2/1972 GROGOL RT01 RW02 KAB. TEMANGGUNG
10123 1100451700 HERI KUSTANTO 31/12/1978 GONOHARJO RT.02/RW.04 KAB. KENDAL
10124 1100451702 KASWANDI 19/09/1959 PATUTREJO RT 05/02 KAB. PURWOREJO
10125 1100451703 TOYIBATUL MARWIYAH 11/08/1974 GONOHARJO RT.02/RW.04 KAB. KENDAL
10126 1100451704 NOUPAL ATTAQI, [Link] 8/7/1971 DANAWARIH RT.04/04 BALAPULANG KAB. TEGAL
10127 1100451706 IZZATUL MALKIYAH HASYIM 10/11/1976 DANAWARIH RT.04/04 BALAPULANG KAB. TEGAL
10128 1100451707 SRI UMIYATI 01/01/1967 KLUWAK RT.02 RW.04 KAB. KENDAL
10129 1100451708 ILLIYIN,[Link].I 4/11/1961 [Link] - KERTOSARI RT.07 RW.01 KAB. PEMALANG
10130 1100451710 MUNFAINGAH 20/10/1958 KRAGILAN RT 02/02 KAB. PURWOREJO
10131 1100451712 IPUK TUFLIHAH 25/05/1971 SELUMBUNG KERTOSARI RT. 07 RW. 01 KAB. PEMALANG
10132 1100451713 MUHAIMIN 10/7/1970 KLUWAK RT.02 RW.004 KAB. KENDAL
10133 1100451715 DIANA ASTUTI 28/10/1977 JL. KETAPANG RT. 04 RW. 02 KAB. PEMALANG
10134 1100451720 FAJAR 10/06/1977 TRIKAYAN RT 02/13 KAB. MAGELANG
10135 1100451721 ISTANTI, [Link] 18/08/1975 SURYODINGRATAN MJ 2 /905 A RT.47 / 14 KAB. MAGELANG
10136 1100451723 ALI MAKSUM 22/06/1975 PLOSO RT 03 RW 04 KAB. DEMAK
10137 1100451726 SRI YATI 15/7/1959 KEMBARAN RT. 01/06 KAB. MAGELANG
10138 1100451727 SITI HAJAR 12/11/1984 PLOSO RT 03 RW 04 KAB. DEMAK
10139 1100451728 CHATIMAH 10/01/1959 DAWUHAN RT 004 RW 001 KAB. BANJARNEGARA
10140 1100451729 NIRA FITRIYANA 15/08/1979 TRIKAYAN RT.02 RW.13 KAB. MAGELANG
10141 1100451730 KUSNADI SUYADI DJENAH 07/09/1972 BENDAR 1/2 JUWANA KAB. PATI
10142 1100451731 SUPARYONO 03/09/1960 KUNIR RT.04/05 KAB. DEMAK
10143 1100451734 SALMONAH 07/05/1962 KUNIR RT.04/05 KAB. DEMAK
10144 1100451735 SLAMET MUHAJIRIN 23/03/1979 [Link]. 03 CEBONG - KABUNAN RT.02 RW.06 KAB. PEMALANG
10145 1100451736 SITI ISWINARNI ARI KOZIN 27/1/1962 SUMBERGIRANG RT 001 RW 004 LASEM KAB. REMBANG
10146 1100451738 SITI ZUBAIDAH SARMAWI 31/12/1960 TAWANGREJO 1/4 WINONG KAB. PATI
10147 1100451741 SUKANTI 22/02/1973 SAMBUNG RT.04/02 KAB. DEMAK
10148 1100451742 AVID ARIFA SUJATI 02/11/1981 TEGES RT.04 / 04 BRUNO PURWOREJO KAB. PURWOREJO
10149 1100451744 AHMAD JUNAIDI, [Link] 29/06/1962 JL. DURIAN DALAM SRONDOL IV/51 RT.06/01 KOTA SEMARANG
10150 1100451745 AHMAD RIFAI 11/7/1980 SUMBERGIRANG NO. 11 RT 001 RW 004 LASEM KAB. REMBANG
10151 1100451746 NOOR SUHUD 31/12/1961 SAMBUNG RT 04 RW 02 KAB. DEMAK
10152 1100451747 DEWI HANDAYANI, DRA 26/07/1965 JL. DURIAN DALAM SRONDOL IV/51 RT.06/01 KOTA SEMARANG
10153 1100451749 YULI PRIHATI 5/7/1963 BRANGGAH 02/09 KAB. GROBOGAN
10154 1100451750 HARISUDDIN HAKIM 21/12/1989 JL. DURIAN DALAM SRONDOL IV/51 RT.06/01 KOTA SEMARANG
10155 1100451751 KUNARNI YASIR GUNO 27/3/1966 SUMBERJO RT 002 RW 007 REMBANG KAB. REMBANG
10156 1100451752 SUMARDI 24/12/1960 BRANGGAH 02/09 KAB. GROBOGAN
10157 1100451753 MASTUROH 28/05/1959 LETEH KAB. REMBANG
10158 1100451754 SYAIFUDDIN HALIM 06/09/1992 JL. DURIAN DALAM SRONDOL IV/51 RT.06/01 KOTA SEMARANG
10159 1100451756 SITI ZABIDAH 5/9/1957 BABAD 30/14 KAB. KLATEN
10160 1100451757 ADI SANTOSO MOH. SOETRISNO DW 16/12/1959 SUMBERJO RT 002 RW 007 REMBANG KAB. REMBANG
10161 1100451758 CAHAYA DEWANTORO 20/06/1972 JL. BANGUNHARJO 389 RT 1 RW 2 KOTA SEMARANG
10162 1100451759 SRI NUGRAHENI 06/04/1961 [Link] 1 BLOK E4/11 [Link] RT.3/6 KAB. BANYUMAS
10163 1100451760 ANA YULIANTI 28/05/1972 JL. BANGUNHARJO 389 RT 1 RW 2 KOTA SEMARANG
10164 1100451761 MIFTAQUL ANAM 27/04/1967 SIDOMUKTI RT 03 RW 06 KAB. WONOSOBO
10165 1100451762 MARSINI 01/08/1961 BRENGKOL RT 01/04 KAB. PURWOREJO
10166 1100451763 MUHLISHIN ADNAN SRIATMI 12/09/1972 PUNCEL 7/1 DUKUHSETI KAB. PATI
10167 1100451764 CAHAYA JATMOKO 14/02/1974 JL. MAGERSARI II/37 RT 3 RW 5 KOTA SEMARANG
10168 1100451765 MARDIYAH 05/05/1968 SIDOMUKTI RT 03 RW 06 KAB. WONOSOBO
10169 1100451766 IMRON MUCHAFID 17/09/1981 KLIWONAN RT.01/04 BRENGKOL PITURUH KAB. PURWOREJO
10170 1100451767 SUGIRWO 28/09/1961 [Link] 1 E4 NO.11 RT.3/6 TGLSRI KAB. BANYUMAS
10171 1100451769 NOK RUSTINI 28/05/1975 JL. MAGERSARI II / 37 RT 3 RW 5 KOTA SEMARANG
10172 1100451771 NISA ULYA RAHMA 21/05/1997 DUSUN MANGGAR RT.05 RW.02 KAB. GROBOGAN
10173 1100451772 NUR SARIWATI 12/02/1968 JL. FAJAR INDAH II BLOK A /27 RT.07/07 KOTA SURAKARTA
10174 1100451773 DEWI CAHYANING HANDADARI 18/07/1976 BUKIT BERINGIN ELOK 348 RT 3RW 16 KOTA SEMARANG
10175 1100451774 MURTINI MUHADI SARPI 28/8/1979 PUNCEL 7/1 DUKUHSETI KAB. PATI
10176 1100451775 INDAH DWI WIDARINI, AMR 12/10/1970 JL. MULAWARMAN I/99 RT.09/01 KOTA SEMARANG
10177 1100451776 ANTON FATONI 20/05/1974 BUKIT BERINGIN ELOK 348 RT 3 RW 16 KOTA SEMARANG
10178 1100451777 MOCH. AFIEQ HISYAM 15/01/1971 SENDANGMULYO RT 004 RW 002 KRAGAN KAB. REMBANG
10179 1100451781 SUWATI 9/7/1958 JL. GEDONGSONGO RT.09/02 KOTA SEMARANG
10180 1100451786 ANIK HIDAYANI 12/12/1964 JL. LINTANG TRENGGONO V/15 RT.06/18 KOTA SEMARANG
10181 1100451788 PRANYOTO BUDIYONO YATMI 30/01/1969 JAMBEAN KIDUL 2/2 MARGOREJO KAB. PATI
10182 1100451789 KARTINI JASIR KASMINAH 08/06/1972 JAMBEAN KIDUL 2/2 MARGOREJO KAB. PATI
10183 1100451790 TITIN KRISTIYANI 10/04/1968 BANJARAN RT.03/01 SALEM KAB. BREBES
10184 1100451792 NUR ROHMAD MUHAMMAD ACHYADI 14/08/1966 HADIPOLO RT 01 RW 05 KAB. KUDUS
10185 1100451793 NASAM 8/8/1968 DUSUN MENTASAN RT. 01 RW. 02 KAB. CILACAP
10186 1100451798 MUJIYATI 10/11/1965 PARAKANCANGGAH RT 002/009 BANJARNEGARA KAB. BANJARNEGARA
10187 1100451800 SRI SUBEKTI 10/02/1963 KONGKLANGAN 13/06 KAB. KLATEN
10188 1100451803 MAKMURI 11/05/1970 PADAS GEMPAL RT 01 RW 08 KAB. BOYOLALI
10189 1100451805 SU'UDI 24/09/1973 KALANGSONO RT.05 RW.01 KAB. BATANG
10190 1100451806 SUTARMI 14/04/1969 PADAS GEMPAL RT 01 RW 08 KAB. BOYOLALI
10191 1100451814 SUKAMTA 19/02/1967 SUKOMARTO RT 04 KAB. SRAGEN
10192 1100451816 SUGIARTI 14/6/1970 SUKOMARTO RT 04 KAB. SRAGEN
10193 1100451821 SOHARI 22/11/1958 PAKIJANGAN RT.01/03 NO.49 BULAKAMBA KAB. BREBES
10194 1100451822 HARNO 28/8/1962 TUMENGGUNGAN 05/03 KAB. GROBOGAN
10195 1100451823 FATONAH 30/12/1963 PAKIJANGAN RT.02/03 BULAKAMBA KAB. BREBES
10196 1100451824 HARNANIK 21/03/1969 TUMENGGUNGAN 05/03 KAB. GROBOGAN
10197 1100451825 QORINATUS SHOLICHAH 5/7/1978 ROWO TENGAH RT.01/04 KOTA SEMARANG
10198 1100451827 MASYHUD 29/12/1968 ROWO TENGAH RT.01/04 KOTA SEMARANG
10199 1100451830 SUHARDI 26/6/1973 BUMIHARJO RT.07/02 KAB. DEMAK
10200 1100451831 AJI ANGGA PURNOMO 21/10/1984 JL. BAWAL GG. BUNTU NO. 9 RT 008 / RW 003 KOTA TEGAL
10201 1100451832 ENDANG SETIOWATI 11/11/1979 BUMIHARJO RT.07/02 KAB. DEMAK
10202 1100451833 SITI JAMILAH, S. PD. 2/3/1958 JL. BAWAL GG. BUNTU NO. 9 RT. 08/03 KOTA TEGAL
10203 1100451834 EDY SARTONO 12/11/1983 SIDOMULYO RT 01 RW 02 KAB. BOYOLALI
10204 1100451836 WIDODO 19/01/1962 TANJUNG 06/02 KAB. GROBOGAN
10205 1100451838 RUQOYYAH 28/03/1973 TANJUNG 06/02 KAB. GROBOGAN
10206 1100451839 ASIS WINARDI 27/04/1973 JL. GENUK BARU II/23 RT.03/06 KOTA SEMARANG
10207 1100451840 AGUSTINA ERNAWATI 05/08/1974 JL. GENUK BARU II NO. 23 RT.03/06 KOTA SEMARANG
10208 1100451841 TASHURI 02/04/1975 GANG PRAHU - KARANGTALOK RT.025 RW.11 KAB. PEMALANG
10209 1100451842 NUNU FITRIYANTI 19/8/1979 GANG PRAHU RT. 25 RW. 11 KAB. PEMALANG
10210 1100451844 SUPINI 12/12/1966 POMAH RT 01 RW 02 KAB. BOYOLALI
10211 1100451845 SRI MARTINI 18/08/1961 SEMANGGI RT 03 RW 17 KOTA SURAKARTA
10212 1100451848 HANIK ROSIDAYANA NOOR MA'UDI 29/07/1975 KAJEKSAN RT 02 RW 03 KAB. KUDUS
10213 1100451849 ABDUL AZIS KAMSUN SAMAD 12/08/1976 KAJEKSAN RT 02 RW 03 KAB. KUDUS
10214 1100451850 UTARI 25/05/1971 NGESENG RT 02/03 KAB. SRAGEN
10215 1100451851 MUCHAMMAD SULCHAN MC. FARIQ 23/07/1975 KAJEKSAN RT.02 RW.03 KAB. KUDUS
10216 1100451852 TANTRI SANTOSO 22/08/1966 GEMOLONG RT 03/03 KAB. SRAGEN
10217 1100451853 AROFAH MC. MUFARIK SURATMAN 01/12/1976 KAJEKSAN RT 02 RW 03 KAB. KUDUS
10218 1100451854 SAKRIB,DRS 15/05/1968 BANDUNGSARI RT.03/01 NO.15 BANJARHARJO KAB. BREBES
10219 1100451856 NURJANAH 27/02/1969 BANDUNGSARI RT.03/01 BANJARHARJO KAB. BREBES
10220 1100451857 MUDJIONO 25/04/1960 JL. BLEDAK KANTIL 6 NO. 52 RT.07/06 KOTA SEMARANG
10221 1100451858 SHOBIRIN 05/09/1966 [Link] SIMBANG WETAN RT.176/03 BUARAN KAB. PEKALONGAN
10222 1100451860 NUR RO'YAH 14/1/1972 PONDOK MAJAPAHIT RT 10 RW 07 KAB. DEMAK
10223 1100451861 WASRIAH 11/11/1961 GANGGAWANG RT.04/01 SALEM KAB. BREBES
10224 1100451863 SUMINI AMAT SAHLAN 03/07/1958 NOBOTENGAH RT 03 RW 07 KOTA SALATIGA
10225 1100451864 NAWANTA 26/03/1968 DK. DLIYUN RT.02/RW.02 KAB. SUKOHARJO
10226 1100451866 TRIWANTORO 26/01/1963 ALBASIA NO. 30 PLAMONGAN INDAH RT 3 /8 KOTA SEMARANG
10227 1100451867 SRI PARIYANTI 16/02/1980 TANGGUNGHARJO 06/06 KAB. GROBOGAN
10228 1100451868 KAMSONO 18/02/1965 PONDOK MAJAPAHIT RT 10 RW 07 KAB. DEMAK
10229 1100451869 MUNAFIAH MUH SHOLEH 19/05/1968 NOBOTENGAH RT 01 RW 07 KOTA SALATIGA
10230 1100451870 SUPRAYADI,[Link] 09/08/1972 SURJO RT.04 RW.01 KAB. BATANG
10231 1100451871 WURYANDARI 9/5/1967 JL. ALBASIA NO. 30 RT.03/08 PLAM. INDAH KOTA SEMARANG
10232 1100451873 EVY [Link] 12/11/1976 SURJO RT.04 RW.01 KAB. BATANG
10233 1100451874 SURADI AMAT SAHLAN 10/03/1965 NOBOTENGAH RT 01 RW 07 KOTA SALATIGA
10234 1100451876 AGUS SUDONO 23/6/1971 JL. PUCANG ARGO RAYA NO.46 RT.07/25 KAB. DEMAK
10235 1100451877 ABDUL ROHMAN 28/10/1972 TANGGUNGHARJO 06/06 KAB. GROBOGAN
NO NO. PORSI NAMA TANGGAL LAHIR ALAMAT KAB/KOTA KETERANGAN
10236 1100451878 AMINAH 19/11/1957 BANJARHARJO RT.10/02 BANJARHARJO KAB. BREBES
10237 1100451879 PURWANTO 10/02/1963 PRANTEN REJOSARI RT.01 RW.02 KAB. BATANG
10238 1100451880 SUATI 17/03/1964 PRANTEN REJOSARI RT.01 RW.02 KAB. BATANG
10239 1100451882 IMRO'ATUL AIN 29/05/1968 [Link] SIMBANG WETAN RT.176/03 BUARAN KAB. PEKALONGAN
10240 1100451883 ISTININGSIH 03/10/1970 DLIYUN RT.02/02 KAB. SUKOHARJO
10241 1100451884 TRIYONO 28/02/1974 KUNCEN RT.01 RW.01 KAB. SEMARANG
10242 1100451885 NANIK YULIANI 01/05/1981 KUNCEN RT.10 RW.01 KAB. SEMARANG
10243 1100451886 SUTRISNO 11/04/1965 DSN. KARANGLO RT.06 RW.01 KAB. SEMARANG
10244 1100451887 SIGIT YULIANTO 05/07/1974 KIOS KEBONDALEM LOR 13/06 KAB. KLATEN
10245 1100451888 SUBIYATI 20/04/1966 DSN. KARANGLO RT.06 RW.01 KAB. SEMARANG
10246 1100451890 KARSI 03/05/1963 NGRUNUT 03/06 KAB. GROBOGAN
10247 1100451893 TRIANA KRISTIANI 24/04/1973 PANGEBATAN RT. 2/5 KAB. BANYUMAS
10248 1100451896 NGATIMIN 04/03/1965 PANGEBATAN RT.02 RW.05 KAB. BANYUMAS
10249 1100451902 KOMARIYAH 09/01/1961 HARJASARI RT.05/05 SURADADI KAB. TEGAL
10250 1100451906 HARSONO SUYADI YAMIDJO 01/07/1960 GROWONG LOR 6/2 JUWANA KAB. PATI
10251 1100451907 NAHNU 30/06/1961 KERTIJAYAN GG.10.A BUARAN KAB. PEKALONGAN
10252 1100451909 DWI AGUSTONO 21/08/1960 JEDUNG RT.03/03 KOTA SEMARANG
10253 1100451910 TURIATI 14/01/1972 LUWUNG RT.05 RW.03 KAB. BATANG
10254 1100451911 SUGENG WIDODO 08/12/1962 JOHO BARU RT.02/RW.08 KAB. SUKOHARJO
10255 1100451912 SASMINAH 02/01/1966 JEDUNG RT.03/03 KOTA SEMARANG
10256 1100451914 SUNARYO 18/05/1970 LUWUNG RT.05 RW.03 KAB. BATANG
10257 1100451915 DEWI NI'MAH SIBROWI 4/12/1981 SENDANGMULYO RT 004 RW 002 KRAGAN KAB. REMBANG
10258 1100451916 JARIYAH 11/12/1962 KLEGEN RT. 05 RW. 01 KAB. PEMALANG
10259 1100451918 RUWET WIWIK SABARINI 12/09/1981 JEKULO RT 04 RW 07 KAB. KUDUS
10260 1100451919 MASLIKAH LEGI BAWI 15/06/1980 BAJINGJOWO RT 002 RW 001 SARANG KAB. REMBANG
10261 1100451920 NOER AFIEF MASKOEN BAEDLOWI 17/08/1978 JEKULO RT 04 RW 07 KAB. KUDUS
10262 1100451921 SUBAGIYO 05/10/1964 DSN. JONGGRANGAN RT.01 RW.07 KAB. SEMARANG
10263 1100451922 [Link] 11/06/1967 [Link] - CIBUYUR RT.10 RW.01 KAB. PEMALANG
10264 1100451923 SUMPENAH 03/03/1973 JONGGRANGAN RT.01/07 NGRAPAH KAB. SEMARANG
10265 1100451924 ASIH HARTATI PRIHATIN 14/05/1974 DSN. KRAJAN RT. 10 RW. 01 KAB. PEMALANG
10266 1100451925 SAMURI MUTASAM KARSILAN 22/02/1971 BAJINGJOWO RT 002 RW 001 SARANG KAB. REMBANG
10267 1100451926 NIKWATI 23/04/1967 PLUMBON RT 02/03 KAB. BLORA
10268 1100451927 BAHARUDIN 19/07/1978 PEDAGUNG RT05 RW 02 KAB. PEMALANG
10269 1100451928 SUGIHARTI 13/05/1970 TAWANGREJO RT 03/08 KAB. BLORA
10270 1100451930 KASWIYAH 15/7/1958 SIMA RT.01 RW.10 KAB. PEMALANG
10271 1100451931 ANDI KURNIANTO SRI PRIHATNO 27/10/1978 DS. SEMANDING RT 02/05 GOMBONG KAB. KEBUMEN
10272 1100451935 AHMAD SUTANTO SURAHMAT 09/05/1977 BANDENGAN 12/04 KAB. JEPARA
10273 1100451936 SITI KHALIMATUL KHASANAH 20/06/1982 JL. KH. SUFYAN TSAURI RT01 RW03 KAB. CILACAP
10274 1100451938 INDARSIH KARTO SUDARMO 22/02/1973 GUNUNGSARI RT.07/02 KAB. KEBUMEN
10275 1100451939 HERTI EMILIAH 02/12/1972 SAJEN RT 10 RW 01 KAB. BOYOLALI
10276 1100451940 YUSUF MAMAD MAHFUL 10/07/1963 KARANGTANJUNG RT.03/01 KAB. KEBUMEN
10277 1100451941 ERTA ERNAWATI SUMADI 6/9/1979 BANDENGAN RT 12/04 KAB. JEPARA
10278 1100451942 MOCHAMAD NOVI ARIEF RACHMAN 21/11/1982 PANJANG INDAH III JL. PALAPA II NO.6 KOTA PEKALONGAN
10279 1100451944 ROSDYANA DEWI 29/01/1972 TANGKIL RT 02/07 KAB. SRAGEN
10280 1100451945 HASTI NURAENI 26/9/1971 BANDINGAN RT 28 RW 13 KAB. PURBALINGGA
10281 1100451946 SUGIANTO 16/10/1969 TANGKIL RT 02/07 KAB. SRAGEN
10282 1100451947 ROHMAD SUSILOWARNO 02/07/1972 SAJEN RT 10 RW 01 KAB. BOYOLALI
10283 1100451948 SITI MUNTASIYAH SUKARDI DURROHIM 19/06/1966 DS. KARANGTANJUNG RT 03/01 ALIAN KAB. KEBUMEN
10284 1100451949 MASKANAH 19/05/1958 PANJANG INDAH III JL. PALAPA II NO.6 KOTA PEKALONGAN
10285 1100451950 SUBANDI NOTOSUWITO NAKIB 28/06/1964 GUNUNGSARI RT.07/04 KAB. KEBUMEN
10286 1100451952 YURI SUKARWI SADINAH 28/02/1971 TAMBAHARJO 2/4 PATI KAB. PATI
10287 1100451953 SUGRIT PRAYITNO 13/3/1960 GARINGAN 11/05 KAB. KLATEN
10288 1100451954 ISRORIYAH 26/12/1959 BUGANGAN RT 02 RW 05 KAB. WONOSOBO
10289 1100451955 KASMIATUN KADI KARMINI 13/01/1974 TAMBAHARJO 2/4 PATI KAB. PATI
10290 1100451958 CHANDRA HERLAMBANG 25/01/1991 GIRIMARTO RT.22/05 TLINGSING CAWAS KAB. KLATEN
10291 1100451960 KARYATI 08/04/1972 KURYO RT.02 RW.01 KAB. WONOGIRI
10292 1100451961 FAIZATU ALMAS HADYANTARI 19/9/1994 BANDINGAN RT 28 RW 13 KAB. PURBALINGGA
10293 1100451963 SUHARDIYANTO 11/12/1966 KURYO RT.01 RW.01 KAB. WONOGIRI
10294 1100451964 SURYANTI 12/06/1968 JOHO BARU RT. 02/08 KAB. SUKOHARJO
10295 1100451967 ADIEK PUJI AFRIHARTORO 1/12/1980 KARANGSARI RT 02/04 KAB. PURWOREJO
10296 1100451968 RASMUDI CENTOK 31/12/1962 KENCONOREJO [Link] RT.07 RW.02 KAB. BATANG
10297 1100451970 SUMIATI 31/12/1961 KENCONOREJO [Link] RT.07 RW.02 KAB. BATANG
10298 1100451972 SRI RAHAYUNING VINDRI ASTUTI 18/05/1982 KARANGSARI RT 02/04 KAB. PURWOREJO
10299 1100451974 WASIAH OKTAVIANI 15/07/1965 BUMIJAWA RT.02/06 KAB. TEGAL
10300 1100451976 FAIZIN, [Link] 02/05/1958 BUMIJAWA RT.02/06 KAB. TEGAL
10301 1100451982 KHAFID 02/11/1966 KALISALAK RT.01 RW.01 KAB. BANYUMAS
10302 1100451983 [Link] 01/12/1957 JL. PALAGAN NO.69 RT.01 RW.04 BAWEN KAB. SEMARANG
10303 1100451984 SAGUNG AYU HERMAENI 25/2/1973 KURYO RT.01 RW.01 KAB. WONOGIRI
10304 1100451985 SUWATI 16/11/1972 KALISALAK RT. 1/1 KAB. BANYUMAS
10305 1100451986 SUGIYATNO 30/7/1975 KURYO RT.02 RW.01 KAB. WONOGIRI
10306 1100451989 SRI MARYATUN 21/12/1971 GATAKSARI RT 04 RW 02 KAB. WONOSOBO
10307 1100451991 WINARSIH 20/11/1959 [Link] KIDUL RT.01 RW.04 KAB. SEMARANG
10308 1100451993 IDHA ROKANA 25/08/1969 NGESENG RT 04 KAB. SRAGEN
10309 1100451994 JUNAIDI 05/07/1967 GATAKSARI RT 04 RW 02 KAB. WONOSOBO
10310 1100451995 TRIYANI PUJI LESTARI 27/03/1960 TEGAL SENDEN 09/05 KAB. KLATEN
10311 1100451996 AHMAD WAFIR,[Link] 08/07/1973 LUWUNGRAGI RT.04/RW.07 BULAKAMBA KAB. BREBES
10312 1100451998 SUTOPO 30/06/1967 NGESENG RT 04 KAB. SRAGEN
10313 1100452000 NAWANGSIH 09/07/1974 PERUM PERMATA HOKY B. 09 RT. 02 RW. 05 KAB. PEMALANG
10314 1100452002 ULFAH,[Link] 29/08/1977 LUWUNGRAGI RT.04/RW.07 BULAKAMBA KAB. BREBES
10315 1100452003 RASIDAL 07/04/1958 JL. MINAHASA NO. 99 A RT. 04 RW. 08 KAB. CILACAP
10316 1100452005 MUHDIR 8/3/1958 JL. RAMBUTAN NO. 1206 RT. 03 RW. 04 KAB. CILACAP
10317 1100452006 SRI SUWARNI 15/11/1969 GATAK TUAN 01/01 KAB. KLATEN
10318 1100452007 EKO SETIANINGSIH 15/10/1965 JL. MINAHASA NO.99A RT04 RW08 KAB. CILACAP
10319 1100452008 MOCH. GUNTUR 14/04/1975 PERUM PERMATA HOKY B. 09 RT. 02 RW. 05 KAB. PEMALANG
10320 1100452014 PERTIWI 16/04/1973 BODONGAN RT 12 KAB. SRAGEN
10321 1100452017 ARUM SYURADHANTY 15/06/1994 PANGENREJO RT 01/06 KAB. PURWOREJO
10322 1100452019 RUSTAMI 20/06/1960 KLAMPOK RT.05/04 WANASARI KAB. BREBES
10323 1100452020 AGUS SHOMAD 9/12/1969 GATAK TUAN 01/01 KAB. KLATEN
10324 1100452022 ARIFIN JAMA'I JASMIN 25/10/1970 GETASRABI RT 01 RW 07 KAB. KUDUS
10325 1100452023 NGATMI 02/02/1959 MALANGREJO RT 005 / RW 002 KAB. BOYOLALI
10326 1100452026 ULFAIYAH ALI MAS'UD 19/07/1968 GETASRABI RT 01 RW 07 KAB. KUDUS
10327 1100452027 MUSLIMAH 04/07/1960 DUSUN KEDUNGBANTENG SELATAN RT05 RW 02KAB. CILACAP
10328 1100452030 MASINEM 11/09/1959 DSN KEDUNGBANTENG SELATAN RT. 05/02 KAB. CILACAP
10329 1100452031 MASDASUKI ROIES 04/05/1982 KARANGMALANG RT.01/03 KETANGGUNGAN KAB. BREBES
10330 1100452032 KUNAYAH 10/08/1959 WATES [Link] RT.06 RW.02 KAB. BATANG
10331 1100452033 SURYANTI WACHID KARSIM 06/06/1966 PRAMBATAN LOR RT 01 RW 03 KAB. KUDUS
10332 1100452034 SRI RIYATI 28/04/1964 COKROKEMBANG 16/05 KAB. KLATEN
10333 1100452036 LUGIYEM 17/06/1963 KALANGAN 07/04 KAB. KLATEN
10334 1100452037 MUIROH 09/03/1959 KEMUKTEN RT.03/03 KERSANA KAB. BREBES
10335 1100452042 UMAR ASYIDIG WIBOWO 12/05/1980 KERINGAN 06/04 KAB. KLATEN
10336 1100452044 SRIATUN 8/1/1963 SURJO RT.14 RW.05 KAB. BATANG
10337 1100452046 AHMAD TAUKHID 31/12/1960 SURJO RT.14 RW.05 KAB. BATANG
10338 1100452049 RUNTAH SARITOMO 29/10/1963 BANJARKULON RT005/001 KAB. BANJARNEGARA
10339 1100452050 TUTI MASRIYAH 14/06/1969 BANJARKULON RT 005 RW 001 KAB. BANJARNEGARA
10340 1100452052 ENY NURYATI MASKAT 14/08/1966 KRIYAN RT 14/03 KEC. KALINYAMATAN KAB. JEPARA
10341 1100452054 FU'AD ABDILLAH ABDULLAH ZAWAWI 16/04/1962 NGAGEL 2/1 DUKUHSETI KAB. PATI
10342 1100452055 IZZATUN NADA MUHYIDDIN 23/05/1968 NGAGEL 2/1 DUKUHSETI KAB. PATI
10343 1100452056 EDI SUDARMAWAN 06/01/1984 KEMIRI RT.06 RW.01 KAB. BANYUMAS
10344 1100452057 SAKDULLAH, DRS 1/8/1964 GEDONGSARI RT 03/01 KAB. BLORA
10345 1100452058 SRIYANTI 11/12/1968 TALANG RT.04/01 KAB. TEGAL
10346 1100452059 SITI ROCHAYAH 31/12/1961 KEMIRI RT. 6/1 KAB. BANYUMAS
10347 1100452060 MUH LUTHFIL HAKIM 07/09/1989 NGAGEL 2/1 DUKUHSETI KAB. PATI
10348 1100452061 SLAMET RAHARJO 14/09/1964 TALANG RT.04/01 KAB. TEGAL
10349 1100452063 SITI ARTININGSIH, DRA 13/01/1969 GEDONGSARI RT 03/01 KAB. BLORA
10350 1100452064 MOH WAFIQ THORIQI 27/4/1994 NGAGEL 2/1 DUKUHSETI KAB. PATI
10351 1100452066 ELYNAWATI SOLEH SAJAD 20/10/1969 JEPANGPAKIS RT.04 RW.03 KAB. KUDUS
10352 1100452067 DARKASIH, DRA 09/10/1964 DUKUHTURI RT.03/03 KAB. TEGAL
10353 1100452068 TRIYONO SALIKIN SUTI 8/2/1966 SUMBERMULYO RT 006 RW 003 SALE KAB. REMBANG
10354 1100452069 MU'ANAH 12/12/1966 DS. BOGOREJO RT 04/02 KAB. BLORA
10355 1100452070 ANTONI, SMHK 03/11/1960 DUKUHTURI RT.03/03 KAB. TEGAL
10356 1100452071 SHOFIYAH 20/08/1966 BONANGREJO RT.02/02 KAB. DEMAK
10357 1100452072 MASHADI PALI WARGONO 07/02/1959 PRAMBATAN LOR RT 01 RW 03 KAB. KUDUS
10358 1100452073 AMINUDDIN MAKSUM CHODLORI 30/06/1977 PANJUNAN 2/1 PATI KAB. PATI
10359 1100452075 MUTMAINAH 01/01/1958 REMBES RT.09/01 REMBES BRINGIN KAB. SEMARANG
10360 1100452076 SRI WAHYUNI MUNADI 08/02/1977 SUMBERMULYO RT 006 RW 003 SALE KAB. REMBANG
10361 1100452077 SUYANTO SUTOMO MARKILAH 04/08/1972 PURI 3/3 PATI KAB. PATI
10362 1100452079 SUMAINAH KARYO UTOMO 01/07/1958 DS. TERSOBO RT 03/01 PREMBUN KAB. KEBUMEN
10363 1100452082 MANSYUR 09/09/1963 BONANGREJO RT.02/02 KAB. DEMAK
NO NO. PORSI NAMA TANGGAL LAHIR ALAMAT KAB/KOTA KETERANGAN
10364 1100452083 HARJO WIJOYO 30/04/1961 BORO KULON RT 02/05 KAB. PURWOREJO
10365 1100452086 MUCHAMAD ABU HANIFAH 08/06/1969 [Link] UTARA NO.88 RT.01 RW.08 KAB. PEMALANG
10366 1100452087 DAFIT RUDITO 18/6/1980 DUSUN PANGGEL RT 001/ RW 008 PANJER KAB. KEBUMEN
10367 1100452088 RETNO INDRI HAPSARI 13/12/1979 BULAKWARU RT.07/01 TARUB KAB. TEGAL
10368 1100452089 SITI ASTIYAH 15/4/1966 BOROKULON RT 02/05 KAB. PURWOREJO
10369 1100452090 RUBIYANTO ABDUL RAZAK 31/10/1964 KRIYAN RT 14/03 KEC. KALINYAMATAN KAB. JEPARA
10370 1100452091 SAWITRI AWI NGANI 20/11/1961 KALIKALONG 6/4 TAYU KAB. PATI
10371 1100452092 SUHARTI 11/05/1968 SREBEG GEDE 08/04 KAB. KLATEN
10372 1100452093 SITI MUKAROMAH SUWANDI MANDIARJO 21/04/1974 DS. KUTOWINANGUN RT 04/04 KUTOWINANGUN KAB. KEBUMEN
10373 1100452095 ROFIQ HARYADI CHABIB 14/05/1961 KUTOWINANGUN RT.04/04 KAB. KEBUMEN
10374 1100452097 MUSTA'IDAH 15/7/1967 CAPGAWEN UTARA RT.03/03 KEDUNGWUNI KAB. PEKALONGAN
10375 1100452098 TARJUKI 17/11/1975 LIMBANGAN KULON RT.05/01 BREBES KAB. BREBES
10376 1100452099 DWI MULYATI 10/05/1978 [Link] UTARA NO.88 RT.01 RW.08 KAB. PEMALANG
10377 1100452100 MARYATUN 19/07/1972 JL. PURWOYOSO 5 B NO. 24 RT 4 RW 12 KOTA SEMARANG
10378 1100452102 ABDURROHIM 01/08/1961 CAPGAWEN UTARA RT.03/03 KEDUNGWUNI KAB. PEKALONGAN
10379 1100452103 UMI SAMAH 25/07/1981 LIMBANGAN KULON RT.05/01 BREBES KAB. BREBES
10380 1100452105 AHMAD MASDAR TOHARI 01/04/1970 JL. PURWOYOSO 5B NO.24 RT.04/12 KOTA SEMARANG
10381 1100452107 PRAKUSYANTO ABD. MANAF 01/02/1961 KALIKALONG 6/4 TAYU KAB. PATI
10382 1100452109 MUAWANAH SUMARDI SURATMAN 09/02/1966 JERUKWANGI RT.002/004 KAB. JEPARA
10383 1100452113 ISNANTO NUGROHO 23/03/1992 WIRADESA RT.14/03 WIRADESA KAB. PEKALONGAN
10384 1100452115 MUAWANAH 15/08/1963 DUSUN KAUMAN RT.01 RW.03 KAB. KENDAL
10385 1100452117 DARYATI 07/07/1963 [Link] KALIBAGOR RT.9/1 KALIBAGOR KAB. BANYUMAS
10386 1100452118 SUBI ALWI 09/07/1960 DUSUN KAUMAN RT.01 RW.03 KAB. KENDAL
10387 1100452121 SUYONO 01/08/1967 JL. SARYAREJA NO. 18 RT. 04 RW. 02 KAB. CILACAP
10388 1100452122 WATIMAH 05/07/1969 DARMAKRADENAN RT.04 RW.04 KAB. BANYUMAS
10389 1100452123 MUJI ASTUTI 21/06/1970 AJIBARANG KULON RT. 1/5 KAB. BANYUMAS
10390 1100452124 AJAT ARI SUJARI 17/05/1968 DARMAKRADENAN RT. 4/4 KAB. BANYUMAS
10391 1100452126 SURADI 24/01/1966 AJIBARANG KULON RT.01 RW.05 KAB. BANYUMAS
10392 1100452129 EUIS DWI CAHAYANI 21/04/1967 JOMBOR RT.02/08 KAB. SUKOHARJO
10393 1100452130 SUMNGANI 20/07/1971 JL. A. YANI RT. 02 RW. 02 KAB. CILACAP
10394 1100452131 SITI JURIYAH 01/10/1976 JL. A. YANI RT. 02 RW. 02 KAB. CILACAP
10395 1100452132 SRI HARYATI 24/02/1965 P. RADEN PATAH D.1/08 RT.04/03 KAB. DEMAK
10396 1100452133 NUR FARIDAH 11/05/1963 RAJI RT.06/01 KAB. DEMAK
10397 1100452134 MARSIDI 10/02/1965 BANTERAN RT. 2/5 WANGON KAB. BANYUMAS
10398 1100452135 ALFIAH 9/9/1971 BANTERAN RT. 2/5 WANGON KAB. BANYUMAS
10399 1100452136 SUMIYATI 11/10/1971 SUDAGARAN RT 02 RW I KAB. BANYUMAS
10400 1100452137 YUNI MARHAENI RAHAYU 19/06/1966 SELOPURO RT 001 RW 002 LASEM KAB. REMBANG
10401 1100452138 SUPRAPTO 19/03/1959 P. RADEN PATAH D.1/08 RT.04/03 KAB. DEMAK
10402 1100452140 KUSMANTO DASIMAN KASAN 14/05/1961 SELOPURO RT 001 RW 002 LASEM KAB. REMBANG
10403 1100452144 PARTINI 02/11/1965 JL. TINGGAR JENGKOL RT. 03 RW. 06 KAB. CILACAP
10404 1100452145 MOHAMMAD ALI BUDIMAN 07/06/1959 KEL MLANGSEN RT 02 RW 03 KAB. BLORA
10405 1100452146 YANIK ISMAWATI 07/11/1977 NGROTO 01/04 KAB. GROBOGAN
10406 1100452147 INDRA THOMAS KURNIAWAN 02/06/1979 BANDUNGREJO RT.02/02 KAB. DEMAK
10407 1100452149 KIRNOMO 05/08/1959 JLN. TINGGAR JENGKOL RT03 RW06 KAB. CILACAP
10408 1100452153 SUPARMI 07/01/1968 JUWORO 01/01 KAB. GROBOGAN
10409 1100452154 TURAHMAN 29/06/1972 KUBANG RT 003/003 KAB. BANJARNEGARA
10410 1100452155 PARTIMAH 10/6/1979 KUBANG RT. 003/003 KAB. BANJARNEGARA
10411 1100452162 MUHAMMAD ROUF NUR AZIZ 20/10/1985 KALIWARU RT.22 RW.05 KAB. SEMARANG
10412 1100452163 RAMELAN SUWITO 10/10/1957 DOMENGGALAN RT.08/03 KAB. DEMAK
10413 1100452165 TUSWATUL CHASANAH 02/12/1969 JL. TEUKU UMAR RT.03 RW.04 KOTA TEGAL
10414 1100452167 WINDARTO 7/7/1968 PERUM BUMI GEMILANG NO. B 2 A RT. 01/14 KAB. MAGELANG
10415 1100452168 SULIMAH 31/12/1959 KARANGASEM 01/06 KAB. GROBOGAN
10416 1100452171 KARYO 26/01/1969 DEBONG KIDUL RT.04 RW.01 KOTA TEGAL
10417 1100452172 SUPARTINI 22/3/1972 PERUM BUMI GEMILANG NO, B2A RT. 01/14 KAB. MAGELANG
10418 1100452173 DARWATI 10/10/1973 DEBONG KIDUL RT.04 RW.01 KOTA TEGAL
10419 1100452174 AKHMAD SAHLAN 11/02/1977 BANTERAN RT. 4/4 WANGON KAB. BANYUMAS
10420 1100452175 TRI MULYANI 7/8/1980 BANTERAN RT. 4/4 WANGON KAB. BANYUMAS
10421 1100452176 MANSUR 31/12/1963 JL. TEUKU UMAR RT.03 RW.04 KOTA TEGAL
10422 1100452177 FARKIS MAHARTATI SULIYAS 13/02/1970 BUARAN 09/04 KAB. JEPARA
10423 1100452178 ULINNUHA HASAN BISRI 04/09/1962 BUARAN 09/04 KAB. JEPARA
10424 1100452181 AFANDI KASDI TOKASNO 05/08/1959 TULAKAN 02/02 KEC. DONOROJO KAB. JEPARA
10425 1100452182 NAIMU 12/04/1963 REJOSARI RT 03/02 KAB. DEMAK
10426 1100452185 ASIKAH MASKURI MARKOM 17/07/1966 BAKALAN 006/001 KEC. KALINYAMATAN KAB. JEPARA
10427 1100452187 SUKARWAN SAEFUL MUJAB 11/06/1975 LEGOKSARI RT02 RW01 KAB. TEMANGGUNG
10428 1100452188 SRI MURNI SARI JOYO 19/7/1968 BANDENGAN 07/02 KAB. JEPARA
10429 1100452189 SUMARJI SALIBAN PATO 11/12/1968 BANDENGAN 07/02 KAB. JEPARA
10430 1100452190 SUNARDI 07/11/1961 TANJUNG RT 07 RW 02 KAB. BOYOLALI
10431 1100452191 TEGUH ARIFIN 25/07/1969 PEKUNCEN RT. 3/1 KAB. BANYUMAS
10432 1100452192 UMI KHASANAH 05/03/1967 TANJUNG RT 07 RW 02 KAB. BOYOLALI
10433 1100452193 BAMBANG ALFIYANTO 07/10/1959 PONGGOK RT.03 RW.18 KAB. MAGELANG
10434 1100452194 ASNAL NGATIYAH 20/09/1985 LEGOKSARI RT02 RW01 KAB. TEMANGGUNG
10435 1100452195 TITIK SARTINI 24/6/1959 TARI WETAN RT 06 RW 02 KAB. BOYOLALI
10436 1100452196 NOK URIP 18/12/1965 PONGGOK RT.03 RW.18 KAB. MAGELANG
10437 1100452197 MUHAMMAD YUSUF 26/07/1975 TEMPURSARI 13/06 KAB. KLATEN
10438 1100452198 NI'MATUL KHOMSAH 16/02/1974 TEMPURSARI 13/06 KAB. KLATEN
10439 1100452199 TUKIPAN 04/01/1964 DUSUN NGADIPIRO RT.05 RW.12 KAB. KENDAL
10440 1100452202 HERI SUSANTO 26/07/1982 JETAK RT 08 RW 01 KAB. BOYOLALI
10441 1100452203 MULYANTO 11/4/1965 JETIS RT 08/03 KOTA SURAKARTA
10442 1100452204 HAYIK MUJAHIDAH 20/10/1987 JETAK RT 08 RW 01 KAB. BOYOLALI
10443 1100452205 HERU PROBOWATI 08/09/1963 JETIS RT 08/03 KOTA SURAKARTA
10444 1100452206 ROHMINI 20/06/1976 DUSUN NGADIPIRO RT.05 RW.12 KAB. KENDAL
10445 1100452207 HARYANTI 07/03/1975 PEKUNCEN RT. 3/1 KAB. BANYUMAS
10446 1100452209 INDIARTI 10/02/1974 [Link]. 002/003 KAB. BANJARNEGARA
10447 1100452210 NGADIANTO 06/06/1966 KRANDEGAN RT . 002/003 KAB. BANJARNEGARA
10448 1100452211 SUNTONO 26/3/1961 PERUM PATRA INDAH BLOK A NO.10 RT01 RW20 KAB. CILACAP
10449 1100452212 SRI RAHAYU 23/12/1963 PERUM PATRA INDAH BLOK A NO. 10 RT. 1/20 KAB. CILACAP
10450 1100452213 PURWADI 29/01/1968 KARANGGENENG RT.03/02 KOTA SEMARANG
10451 1100452215 SITI TARWIYAH 08/11/1972 KARANGGGENENG RT 3 RW 2 KOTA SEMARANG
10452 1100452216 [Link] SUMARNO 23/02/1972 [Link] KLAREYAN RT.05 RW.01 KAB. PEMALANG
10453 1100452217 ITA ERANI, AMD KEB 07/09/1972 JL. RAYA KLAREYAN RT. 05 RW. 01 KAB. PEMALANG
10454 1100452219 MIFTAH AHYA' 17/09/1958 SETONO GG.2 NO.8 RT.05 RW.10 KOTA PEKALONGAN
10455 1100452221 ROHMAH 14/01/1965 SETONO GG.2 NO.8 RT.05 RW.10 KOTA PEKALONGAN
10456 1100452223 SUTRIMO 05/08/1959 SIMBANGDESA RT.08 RW.03 KAB. BATANG
10457 1100452224 MUNATI 28/08/1969 SIMBANGDESA RT.08 RW.03 KAB. BATANG
10458 1100452227 RIYANTI 09/10/1967 JL. SLAMET RIYADI NO. 56 RT 4 RW 7 KOTA SEMARANG
10459 1100452229 MUNAWAR WIJI NGAJAM 15/04/1958 TIGAJURU RT.004/001 KAB. JEPARA
10460 1100452230 SAMINO 28/06/1971 REJOWINANGUN RT 02/03 KAB. PURWOREJO
10461 1100452231 ASIH SUMARNI 01/12/1961 JL. SEROJA NO 49 SAPEN RT.04/RW.02 KAB. KENDAL
10462 1100452233 KUSYATI 15/7/1959 BANTARWARU RT 01 RW 17 KAB. PURBALINGGA
10463 1100452235 SUKATI MUH DAKAH NGADIMAN 10/10/1963 TIGAJURU RT.004/001 KAB. JEPARA
10464 1100452236 PUJI INDRIYATI NOR DAIM 01/07/1966 PENDOSAWALAN RT.021/008 [Link]. JEPARA
10465 1100452238 SUHARTO MOENADJAD SAID 01/03/1966 PENDOSAWALAN RT.021/008 [Link]. JEPARA
10466 1100452239 ERY KUSNANTO 25/08/1971 [Link] RT.4/4 PASIRMUNCANG KAB. BANYUMAS
10467 1100452240 ANI IRAWATI 02/11/1971 [Link] RT.4/4 PASIRMUNCANG KAB. BANYUMAS
10468 1100452243 SUTARYO 30/3/1960 JL. SEROJA NO 49 SAPEN RT.04/RW.02 KAB. KENDAL
10469 1100452246 SUKANAH SARPIN TISONO 27/10/1977 BATEGEDE 06/04 KAB. JEPARA
10470 1100452248 MASLIKAN SAWON WONGSO 01/07/1969 BATEGEDE 06/04 KAB. JEPARA
10471 1100452249 SUMARIYANTO KASIR MENI 04/09/1974 DONGOS RT.001/002 KAB. JEPARA
10472 1100452250 KARSINAH 3/8/1968 KURIPAN RT.01/09 KAB. DEMAK
10473 1100452251 DIAN WAHYUNINGRUM SUPADI 22/11/1976 DONGOS RT.001/002 KAB. JEPARA
10474 1100452253 ZAHIROTUN NAFSI MANSUR 10/02/1980 KARANGAJI RT 16/05 KAB. JEPARA
10475 1100452254 FARRIH ASYFIYA' SIDIQ 23/07/1974 KARANGAJI RT 16/05 KAB. JEPARA
10476 1100452255 MUJIONO 11/01/1967 KURIPAN RT.01/09 KAB. DEMAK
10477 1100452257 INAYAH ROBI'AN NURHADI 13/01/1979 BAKALAN 11/02 KEC. KALINYAMATAN KAB. JEPARA
10478 1100452259 SUWARDI SUWARNO SARIJAN 04/03/1974 CENDONO RT 05 RW 02 KAB. KUDUS
10479 1100452260 SUNISIH SAEUN DJAMARI 30/04/1978 CENDONO RT 05 RW 02 KAB. KUDUS
10480 1100452261 ETI KRISHARTATI 15/05/1963 WAHYU ASRI XIII/DD 41 RT.07/06 KOTA SEMARANG
10481 1100452262 KH. AHMAD FAUZI SAID 04/06/1960 GUNUNG TAWANG RT 02 RW 02 KAB. WONOSOBO
10482 1100452263 UNGGUL IRIANTO 14/04/1961 WAHYU ASRI XIII DD41 RT.07/06 KOTA SEMARANG
10483 1100452264 ZAENAP 12/03/1962 GUNUNGTAWANG RT 02 RW 02 KAB. WONOSOBO
10484 1100452269 BAWON RIYADI DULWAHAB 03/06/1977 KEMANGGUAN RT.03/03 KAB. KEBUMEN
10485 1100452270 TUGIRAN 03/08/1957 REJOWINANGUN RT 02/03 KAB. PURWOREJO
10486 1100452271 NENENG ROHMATUN LATIF 05/06/1970 MIRIT RT.01/02 KAB. KEBUMEN
10487 1100452273 AHMAD MUNDHOFAR 06/06/1961 BERNGOSAN RT 04 RW 08 KAB. WONOSOBO
10488 1100452274 PARNO, DRS 20/04/1967 NANTI RT. 25 RW. 08 KAB. KARANGANYAR
10489 1100452275 AGUS PRASETYO RUBINGIN NOTOSUDARMO 25/08/1963 MIRIT RT.01/02 KAB. KEBUMEN
10490 1100452276 SUTARTI 24/06/1959 MAYANG RT.03/RW.03 KAB. SUKOHARJO
10491 1100452278 SUGIYARTI SUPARMAN RANAWIKRAMA 02/08/1964 KLEGENREJO RT.05/01 KAB. KEBUMEN
NO NO. PORSI NAMA TANGGAL LAHIR ALAMAT KAB/KOTA KETERANGAN
10492 1100452279 MARLINA 24/07/1965 JL. ARIFIN NO 88 RT 01 RW 05 KOTA SURAKARTA
10493 1100452280 KOSIM 30/07/1972 SIDAHARJA RT.01/01 SURADADI KAB. TEGAL
10494 1100452281 SALIMATUN 25/05/1961 REJOWINANGUN RT 02/03 KAB. PURWOREJO
10495 1100452283 AL FASANAH 21/08/1968 BERNGOSAN RT 04 RW 08 KAB. WONOSOBO
10496 1100452284 KHASIATUN 16/01/1977 SIDAHARJA RT.01/01 SURADADI KAB. TEGAL
10497 1100452288 NURKHOLIS 18/05/1993 KALIGANGSA RT.05 RW.03 MARGADANA KAB. TEGAL
10498 1100452289 AGUSTINUS SETIYONO 08/07/1965 JOMBOR RT.02/RW.08 KAB. SUKOHARJO
10499 1100452291 SULIYAH 19/04/1963 [Link] BOJONG SRAGI RT.08/04 BOJONG KAB. PEKALONGAN
10500 1100452292 JURIYAH 01/12/1958 REJOMULYO RT.06/RW.03 KAB. KENDAL
10501 1100452293 MUNDARI MOHADI SUKADI 01/07/1965 SIDIGEDE RT 16/03 KAB. JEPARA
10502 1100452295 JUWARIYAH 05/10/1957 KEDONSARI RT.03 RW.09 KAB. KENDAL
10503 1100452297 MULYONO NGASIPAN TEMON 06/07/1958 SIDIGEDE RT 12/03 KAB. JEPARA
10504 1100452298 UMMI FATKHIYAH 11/04/1964 SIDOMULYO RT. 03 RW.05 KOTA SURAKARTA
10505 1100452299 MOKHAMAD FAKHRUDDIN LAELY 17/6/1975 DS KARANGSARI RT 03/02 KEBUMEN KAB. KEBUMEN
10506 1100452300 SUHARTANTO 13/12/1961 MARGOREJO RT. 46/18 KAB. MAGELANG
10507 1100452301 WINARTO 07/08/1963 SIDOMULYO RT.03 RW.05 KOTA SURAKARTA
10508 1100452303 SITI MARFUAH 16/06/1959 GAGATAN RT 02 RW 03 KAB. BOYOLALI
10509 1100452304 EKA MARDIYANI SUROTO WASIS SAPUTRO 14/3/1983 KARANGSARI RT.03/02 KAB. KEBUMEN
10510 1100452315 DWI KUSTIANI 10/10/1984 LIMBANGAN RT 002/001 KAB. BANJARNEGARA
10511 1100452319 PUJO SUPONO 18/02/1972 KARANGNAGKA RT 001/001 KAB. BANJARNEGARA
10512 1100452320 MISKIYAH 10/06/1979 KARANGNANGKA RT 001/001 KAB. BANJARNEGARA
10513 1100452322 ADISONO 06/05/1968 ARIBAYA RT 005/002 KAB. BANJARNEGARA
10514 1100452323 PONIKEM 08/08/1972 ARIBAYA RT 005/002 KAB. BANJARNEGARA
10515 1100452327 ANDRIYATNO SURYADI 04/11/1981 LIMBANGAN RT 002/001 KAB. BANJARNEGARA
10516 1100452329 MARGONO 11/06/1965 DK. BLIMBING RT.04/RW.04 KAB. SUKOHARJO
10517 1100452330 SURATMI HARJO SUGITO 06/08/1960 DK. BLIMBING RT.04/RW.04 KAB. SUKOHARJO
10518 1100452334 HARI CAHYONO 24/09/1973 DSN. SRATEN NO.60 RT.03 RW.02 KAB. SEMARANG
10519 1100452337 SUGINAH 18/06/1972 SRATEN RT.03 RW.02 KAB. SEMARANG
10520 1100452339 SUGIMAN TRISNO SUWITO 04/06/1962 COKROKEMBANG 16/05 KAB. KLATEN
10521 1100452340 SUSI ANDRIANI 28/05/1975 SIRAPSARI RT.01/RW.01 KAB. KENDAL
10522 1100452341 ROSINI 01/04/1960 ADIPASIR RT 003/001 KAB. BANJARNEGARA
10523 1100452342 RUDHITO 18/6/1978 ADIPASIR RT 003/001 KAB. BANJARNEGARA
10524 1100452344 BAMBANG TAUFIK IRIYANTO 11/10/1968 POKOH RT. 04 RW. 04 KAB. KARANGANYAR
10525 1100452345 WAKHID 23/06/1969 SIRAPSARI RT.01/RW.01 KAB. KENDAL
10526 1100452346 ANIK SUPRAPTI 14/08/1970 POKOH RT. 04 RW. 04 KAB. KARANGANYAR
10527 1100452348 DYAH SRI UTAMI 28/08/1982 JL. SAMPANGAN BARU I/B-15 RT.07/02 KOTA SEMARANG
10528 1100452350 ARIZA MARETA AJI RAHMINTO 17/03/1978 [Link] BARU I/B-15 RT.07/02 KOTA SEMARANG
10529 1100452352 DENIK LARASATI, [Link] 07/02/1963 DUKUH BENDA RT.04/02 PANGKAH KAB. TEGAL
10530 1100452353 BUKHORI 12/8/1968 LUWUNGRAGI RT.01/01 BULAKAMBA KAB. BREBES
10531 1100452354 DAROTIN 24/11/1971 LUWUNGRAGI RT.01/01 BULAKAMBA KAB. BREBES
10532 1100452357 SRI MURWATI 21/12/1973 RT.03 RW.01 KAB. BATANG
10533 1100452361 SUPRIYADI 25/10/1975 SUKOYOSO RT 01 RW 01 KAB. WONOSOBO
10534 1100452362 SUSMORO, [Link] 04/10/1960 DUKUH BENDA RT.04/02 PANGKAH KAB. TEGAL
10535 1100452364 SITI FATONAH 31/01/1967 NGLEDOK 01/03 KAB. KLATEN
10536 1100452365 FADHOLI 05/08/1976 DEMPET RT.06/01 KAB. DEMAK
10537 1100452366 PATONAH 01/04/1966 JUBANG RT.05/01 BULAKAMBA KAB. BREBES
10538 1100452367 KAMTI 09/09/1963 MALANGSARI 04/02 KAB. KLATEN
10539 1100452368 LULUS 16/04/1966 TAMAN 03/05 KAB. GROBOGAN
10540 1100452369 SUGITO 11/04/1960 JEPANGREJO RT 03/01 KAB. BLORA
10541 1100452370 SYAEMURI 21/03/1958 MALANGSARI 04/02 KAB. KLATEN
10542 1100452371 SULIYATUN 04/11/1963 JEPANGREJO RT 03/01 KAB. BLORA
10543 1100452375 BASUNI 17/7/1966 BANYURIP ALIT RT.02 RW.02 KOTA PEKALONGAN
10544 1100452378 DEWI HANDAYANI 11/12/1975 BANYURIP ALIT RT.02 RW.02 KOTA PEKALONGAN
10545 1100452379 ROKHIMAH 06/05/1961 GROBOG KULON RT.02/06 PANGKAH KAB. TEGAL
10546 1100452380 MOHAMMAD DIAN FAJRI 26/5/1986 JL. SIDOASIH TIMUR NO. 9 RT 01/06 KOTA SURAKARTA
10547 1100452381 BAMBANG SARONO EDI 22/10/1962 JL MAGERSARI IV N0 110 RT 05 RW 05 KOTA SEMARANG
10548 1100452383 DWI ISTANTI 05/09/1972 JL MAGERSARI IV NO 110 RT 05 RW 05 KOTA SEMARANG
10549 1100452386 EDY NURYANTO 05/03/1981 SIDANEGARA INDAH BLOK 3 NO. 92 RT. 03/18 KAB. CILACAP
10550 1100452387 YUNI ARIANA PERTIWI 08/06/1981 SIDANEGARA INDAH BLOK 3 NO. 92 RT. 03/18 KAB. CILACAP
10551 1100452388 SRI WAHYUNI SASTRO KANDAR 20/09/1972 MUKTIHARJO 1/6 MARGOREJO KAB. PATI
10552 1100452392 WINDARI 10/04/1968 JL. TENTARA PELAJAR NO. 59 01/10 KAB. GROBOGAN
10553 1100452394 ENDANG SURYADI 03/09/1967 JL. TENTARA PELAJAR NO. 59 01/10 KAB. GROBOGAN
10554 1100452396 WINY NURIKA YUWANTARI 08/04/1977 DEMPET RT.06/01 KAB. DEMAK
10555 1100452398 ISTARODLI 20/06/1958 JL. [Link] NO.18 RT.03 RW.02 KAB. KENDAL
10556 1100452399 SLAMET HARIYONO HARSO 24/09/1969 MUKTIHARJO 1/6 MARGOREJO KAB. PATI
10557 1100452401 SLAMET 07/08/1958 SIDOREJO 02/01 KAB. KLATEN
10558 1100452402 SUPRIYONO SURYANI SURATI 22/07/1973 SUKOHARJO 5/3 WWEDARIJAKSA KAB. PATI
10559 1100452403 DEWI HENDRI RIYANTI 16/08/1986 TEGALKUBUR RT. 03/09 YAMANSARI KAB. TEGAL
10560 1100452405 SUNARTO 20/09/1966 KERTANEGARA RT 01 RW 02 KAB. PURBALINGGA
10561 1100452406 KHOLILAH 26/06/1971 KERTANEGARA RT 01 RW 02 KAB. PURBALINGGA
10562 1100452408 HARJITO 01/12/1980 MANDIRAJA WETAN RT 001/003 KAB. BANJARNEGARA
10563 1100452409 SUGIYARTI 5/7/1964 ASPOL SENDANGMULYO E-7 RT.03/10 KOTA SEMARANG
10564 1100452410 ENDANG SULASTRI JAMARI 18/11/1973 SUKOHARJO 5/3 WEDARIJAKSA KAB. PATI
10565 1100452411 MATSAID BUDI REKSONO 31/03/1975 TEGALKUBUR RT. 02/09 YAMANSARI KAB. TEGAL
10566 1100452412 ELY DARYATI 12/02/1982 MANDIRAJA WETAN RT 001 RW 003 KAB. BANJARNEGARA
10567 1100452413 AMAT BADERI 17/09/1961 ASPOL SENDANGMULYO BLOK E NO. 7 RT.03/10 KOTA SEMARANG
10568 1100452414 WIDAYANI 27/09/1962 [Link] NO.18 RT.03 RW.02 KAB. KENDAL
10569 1100452415 WARTOYO DARSUKI RAWI 05/10/1974 DUKUTALIT 01/03 JUWANA KAB. PATI
10570 1100452417 ASHOFANI NASHIRUDDIN W 03/11/1968 PERUM BUMI NUSANTARA I NO. 18 RT.06/06 KAB. MAGELANG
10571 1100452418 SUKARLIN MUADAM MARKINAH 20/07/1974 DUKUTALIT 1/3 JUWANA KAB. PATI
10572 1100452419 SULASTRI 12/05/1980 LANGGEN RT.10/02 LANGGENHARJO JUWANA KAB. PATI
10573 1100452420 M. RAMADANI NUR SETYO NUGROHO 21/09/1996 GUPOLO RT 004 / RW 002 KAB. KLATEN
10574 1100452422 JAYUSMAN MASRAN MUNASIH 05/05/1970 KUTOHARJO 2/7 PATI KAB. PATI
10575 1100452423 SUHARTINI 29/9/1969 BUMI NUSANTARA I NO.18 RT. 06/06 KAB. MAGELANG
10576 1100452425 KARTINI SANDI ARIYANI 25/12/1975 DUKUTALIT 01/03 JUWANA KAB. PATI
10577 1100452426 MARTINI 07/07/1965 GUPOLO 04/02 KAB. KLATEN
10578 1100452428 ENOH KARNAWATI DWI WAHYUNI 27/06/1971 DENGKENG TENGAH 01/02 KAB. KLATEN
10579 1100452429 KASWA SURYO MANGGOLA 17/04/1965 DK. PILANGSARI RT.04/11 LOSARI KAB. BREBES
10580 1100452433 KADARMIYATUN 01/01/1962 GONO RT.03 RW.02 KAB. MAGELANG
10581 1100452434 SUSILOWATI ROHMAT ASRINI 04/05/1973 KUTOHARJO 2/7 PATI KAB. PATI
10582 1100452435 LILIK BUDIYANTO 01/05/1969 DENGKENG TENGAH 01/02 KAB. KLATEN
10583 1100452436 SARMINI 17/04/1972 ASRAMA KODAM RT.03/05 KOTA SEMARANG
10584 1100452438 SUHARTONO KAYANI KARSANI 23/4/1984 KARANGANYAR RT 001 RW 001 KRAGAN KAB. REMBANG
10585 1100452439 WAGIMIN 10/10/1960 PELEM RT 13 KAB. SRAGEN
10586 1100452440 SITI REJEKI 21/1/1974 [Link] AIR III NO.3A JONGGRANGAN 03/2 KAB. KLATEN
10587 1100452442 SUMERI 31/12/1963 PELEM RT 13 KAB. SRAGEN
10588 1100452443 SITI FATIMAH 27/11/1959 SEDAYU I RT. 03/13 KAB. MAGELANG
10589 1100452445 CAHYA SUSI HANDAYANI 27/03/1969 BUMI PRAYUDAN BLOK N-3 RT. 10/04 KAB. MAGELANG
10590 1100452446 SUWARNI TASIMAN KARTONI 10/09/1968 KARANGANYAR RT 001 RW 001 KRAGAN KAB. REMBANG
10591 1100452447 NANA NURMANSYACH 21/03/1964 BUMI PRAYUDAN BLOK N-3 RT. 10/04 KAB. MAGELANG
10592 1100452448 KARETNO NINGSIH ACHMAD SARIP 06/09/1989 KARANGANYAR RT 001 RW 001 KRAGAN KAB. REMBANG
10593 1100452449 NUR ACHMAD 27/03/1959 KLUMPRIT RT. 01/05 KAB. MAGELANG
10594 1100452452 SHOFIATUN 01/09/1958 KAMPUNG SEPRIH RT 02 RW 05 KAB. WONOSOBO
10595 1100452453 SARYANTI, SPD 13/4/1961 KLUMPRIT RT. 01/05 KAB. MAGELANG
10596 1100452454 SITI ROMLAH 30/11/1969 TEGALKUNING RT. 02/01 BANYUURIP KAB. PURWOREJO
10597 1100452455 CINDY WIDYAKUSUMA 09/07/1989 [Link] NO.18 RT.03 RW.02 KAB. KENDAL
10598 1100452456 ISTIQOMAH 03/03/1969 JAWAR RT 04 RW 03 KAB. WONOSOBO
10599 1100452457 SUYANTO 02/04/1961 GONO RT.03 RW.02 KAB. MAGELANG
10600 1100452461 GUNAWAN SETIYADI 05/08/1973 JAGALAN RT.01/RW.07 KAB. SUKOHARJO
10601 1100452462 SUKAMTO 01/01/1968 MEKARSARI RT. 05 RW. 12 KAB. WONOSOBO
10602 1100452463 PONIRAH CITRO SEMITO 12/04/1968 WINONG 9/4 PATI KAB. PATI
10603 1100452464 DWI ASTUTI 13/06/1975 JAGALAN RT. 01/07 KAB. SUKOHARJO
10604 1100452465 DAMAR ASIH PRAMARTANINGTYAS 26/3/1985 BANDUNG KIDUL RT. 01/02 BAYAN KAB. PURWOREJO
10605 1100452466 PARIYEM 31/12/1959 SIMO LOR RT. 03 RW. 07 KAB. KARANGANYAR
10606 1100452468 SITI SAYIDAH, [Link].I 26/06/1958 KARANGREJO RT. 02/01 KUTOARJO KAB. PURWOREJO
10607 1100452469 NUR WAKHID 22/9/1971 SIDAKATON RT.04/07 DUKUHTURI KAB. TEGAL
10608 1100452470 SUGIYONO 30/10/1966 JL. PURI II D-3 NO. 1 RT.01/16 KOTA SEMARANG
10609 1100452471 TUTIK MUHTASIBAH 20/03/1966 KP. KRANGGAN 04 RT.02 RW.03 KAB. KENDAL
10610 1100452472 SITI FATIMAH 12/5/1972 SIDAKATON RT.04/07 DUKUHTURI KAB. TEGAL
10611 1100452473 SAWIYO 12/12/1961 SIMO LOR RT. 03 RW. 07 KAB. KARANGANYAR
10612 1100452476 KHOMSIYAH 01/02/1959 PEKANDANGAN RT 003 RW 003 KAB. BANJARNEGARA
10613 1100452481 SUWANTI 11/06/1975 SIDOREJO RT. 10 RW. 02 KAB. KARANGANYAR
10614 1100452482 SUTARMO 05/07/1959 TEGAL MULYO RT 04 RW 05 KAB. BOYOLALI
10615 1100452483 THOLHAH 03/06/1969 SIDOREJO RT. 10 RW. 02 KAB. KARANGANYAR
10616 1100452484 DRS. PUJIANTO SAID MSI 20/6/1960 NGAWEN RT 03 RW 02 KAB. BLORA
10617 1100452485 SUPOMO SUPARDJO KARTO RUWAH 20/10/1963 SINGOCANDI RT 05 RW 01 KAB. KUDUS
10618 1100452486 YENI SUMIATI SPD. 12/7/1968 NGAWEN RT 03 RW 02 KAB. BLORA
10619 1100452487 WAHIDIN YUNUS 30/12/1958 KP. KRANGGAN 04 RT.02 RW.03 KAB. KENDAL
NO NO. PORSI NAMA TANGGAL LAHIR ALAMAT KAB/KOTA KETERANGAN
10620 1100452488 SUGINEM 01/01/1962 TEGALMULYO RT 04 RW 05 KAB. BOYOLALI
10621 1100452489 F. EMILIANA SUKARMI 14/08/1959 JL. BULUSAN 8/73 RT.02/05 KOTA SEMARANG
10622 1100452490 MARKINI TURI KARJIN 09/03/1967 SINGOCANDI RT 05 RW 01 KAB. KUDUS
10623 1100452491 ROHMAH ZUSRIYAH 01/12/1975 KALIKIJING RT 02 RW 01 KAB. BOYOLALI
10624 1100452493 AHMAD MUFID 21/04/1964 BOGOSARI RT.02/02 KAB. DEMAK
10625 1100452495 THOHARI 07/01/1971 KALIKIJING RT 02 RW 01 KAB. BOYOLALI
10626 1100452496 SITI NUR AENIYAH 20/09/1970 BOGOSARI RT.02/02 KAB. DEMAK
10627 1100452497 SUBANDIYAH 06/12/1958 GENUKSARI RT.01/01 KOTA SEMARANG
10628 1100452499 SUBANDI 15/06/1970 JL. TAWES II NO. 21 RT. 07/04 KOTA TEGAL
10629 1100452500 SODIKUN 19/09/1973 KETANDA RT. 7/1 KAB. BANYUMAS
10630 1100452502 ASDARIYANTO 25/05/1961 PASIR LOR RT. 4/1 KAB. BANYUMAS
10631 1100452504 WARSITI 10/07/1963 PASIR LOR RT. 4/1 KAB. BANYUMAS
10632 1100452505 IMAM WARSITO 5/2/1974 KEBUMEN RT.07/RW.04 KAB. KENDAL
10633 1100452506 WIWIN SARWININGRUM 20/11/1979 [Link] AGENG PENGGING NO.4 BLOK B/II 04/6 KAB. KLATEN
10634 1100452508 ARIFIN, SE. 01/08/1977 DEBONG KULON RT. 04/03 KOTA TEGAL
10635 1100452510 KRISWATI 6/9/1979 KETANDA RT.07 RW.01 KAB. BANYUMAS
10636 1100452511 RURIYAH, SE. 10/12/1977 DEBONG KULON RT. 04/03 KOTA TEGAL
10637 1100452512 ENI INTANDARI 21/10/1979 KEBUMEN RT.07/RW.04 KAB. KENDAL
10638 1100452513 SHOLIHAH WARSO SUMARTO 07/08/1959 POTROYUDAN RT 03/02 KAB. JEPARA
10639 1100452514 UMI CHOYIMAH 16/2/1966 NGEMPLAK SUREN RT 09 RW 04 KAB. BOYOLALI
10640 1100452517 ASHARI 27/11/1961 JL. MASJID TERBOYO NO.93 RT.06/01 KOTA SEMARANG
10641 1100452518 SITI SYAFUAH ARIF SULAIMAN 17/7/1973 MARGOTUHU KIDUL 2/3 MARGOYOSO KAB. PATI
10642 1100452519 RAHAYU PUJI ASTUTI 10/12/1981 [Link] 916 RT.1/8 BNCRKMBR KAB. BANYUMAS
10643 1100452525 JAYANTI IS RAHARJA 09/07/1985 [Link] AGENG PENGGING NO.4 BLOK B/II 04/6 KAB. KLATEN
10644 1100452532 MAHMUDAH, DRA 09/10/1966 JL. WAHYU ASRI SELATAN I/17 RT 9 RW 6 KOTA SEMARANG
10645 1100452533 RUKINI DARSONO SIBAN 07/08/1964 SENDANGWARU RT 003 RW 003 KRAGAN KAB. REMBANG
10646 1100452534 SUYITNO 17/07/1975 POMAH RT 05 RW 01 KAB. BOYOLALI
10647 1100452535 YULI EKO SETYOWATI 23/07/1973 BANYUANYAR RT. 02 RW.04 KOTA SURAKARTA
10648 1100452536 MUSTAGHFIRIN 11/08/1958 DK. KARANGJOHO RT. 03 RW. 01 KAB. KENDAL
10649 1100452539 RITA SUSANA 11/07/1977 POMAH RT 05 RW 01 KAB. BOYOLALI
10650 1100452540 ROKHAYATUN 22/07/1976 DK. KARANGJOHO RT.03 RW. 01 KAB. KENDAL
10651 1100452542 DWI HARWATI 05/04/1965 JL. TUGU BARAT NO. 75 RT. 06 RW. 01 KAB. CILACAP
10652 1100452543 YUSUF AFSRI FIRDAUS 01/06/1989 PERUM KORPRI KLIPANG BLOK Q 12 NO.10 RT.09/04
KAB. SEMARANG
10653 1100452545 MASRUROTUN TARSAM SA'IDAH 10/5/1971 PAGENDISAN 3/2 WINONG KAB. PATI
10654 1100452548 SRI HIDAYATUN 26/10/1964 JL. KS. TUBUN II NO.30 RT.04 RW.02 KAB. SEMARANG
10655 1100452550 SUTI ERIYANI RUSTAM 26/12/1977 PASURUHAN KIDUL RT.02 RW.03 KAB. KUDUS
10656 1100452552 TUBARIMAN 18/03/1965 SUCENJURUTENGAH RT. 07/01 BAYAN KAB. PURWOREJO
10657 1100452553 SUWONDO 12/7/1976 GRINGGINGSARI RT.07 RW.04 KAB. BATANG
10658 1100452554 MUNJIATUN 10/10/1964 DSN. TEGALMELIK RT.03 RW.03 KAB. SEMARANG
10659 1100452556 JABIR 01/01/1958 KALIWUNGU RT 02/03 KAB. PURWOREJO
10660 1100452557 SUGENG ARIYADI 27/04/1962 TROCOH, RT.03/RW.04 KAB. TEMANGGUNG
10661 1100452560 ENDRATNO, DRS 02/01/1968 TUBAN LOR RT. 05 RW. 04 KAB. KARANGANYAR
10662 1100452561 SITI WAQIAH 01/11/1961 JL. LETJEND SUPRAPTO NO. 8 RT. 3 RW. 4 KOTA PEKALONGAN
10663 1100452562 WAGINI 04/06/1968 TUBAN LOR RT. 05 RW. 04 KAB. KARANGANYAR
10664 1100452563 TITIK KUSUMASTUTI 07/05/1962 RT.02 RW,01 KAB. BATANG
10665 1100452564 WAHYU SUBARKAH 06/04/1968 JL. KARONSIH TIMUR VII/151 RT.03/05 KOTA SEMARANG
10666 1100452565 LAMBANG PRIBADI KAMID 03/06/1978 PASURUHAN KIDUL RT.02 RW.03 KAB. KUDUS
10667 1100452566 TRI HANDAYANI, [Link], MM 7/1/1968 JETAK PANDES RT. 03 RW. 12 KAB. KARANGANYAR
10668 1100452567 BAMBANG SUGENG SURYATNA, IR 28/11/1965 TANAH PUTIH 103 RT.01/03 KOTA SEMARANG
10669 1100452568 ZUHAID 09/12/1974 KLIWONAN RT 01 RW 07 KAB. BOYOLALI
10670 1100452570 MIEKE ANGGRAENI DEWI 13/06/1965 TANAH PUTIH 103 RT.01/03 KOTA SEMARANG
10671 1100452571 SRI SUGIYANTI 26/4/1972 KALIBOTO RT 01/03 KAB. PURWOREJO
10672 1100452574 S. BUDI HARTOYO 23/12/1978 KARANGSARI RT 02/04 KAB. PURWOREJO
10673 1100452577 SUKIRAH 18/03/1962 SAMPING RT 02/04 KAB. PURWOREJO
10674 1100452579 NENENG ASMARAWATI SHOLICHIN 28/05/1969 GEMIRING LOR RT.001/001 KAB. JEPARA
10675 1100452580 ISMAIL 10/08/1957 KARANGSARI RT. 01/02 BENER KAB. PURWOREJO
10676 1100452581 MUHAMMAD SAHIL MASKUR 17/05/1968 GEMIRING LOR RT.001/001 KAB. JEPARA
10677 1100452584 MURTONO 14/05/1965 BANJARKERTA RT 04 RW 04 KAB. PURBALINGGA
10678 1100452585 ACHMAD NURCHAN 23/05/1975 DUSUN SUMOPURO RT.03 RW.07 KAB. KENDAL
10679 1100452588 SRI WARYANTI MUSTAMIR 22/01/1963 BULUNG KULON RT 06 RW 06 KAB. KUDUS
10680 1100452590 TONY DWI SUSANTO 02/10/1977 DESA BANJAREJO RT.05/RW.01 KAB. KENDAL
10681 1100452591 SUDARMANTO, [Link] 3/9/1968 JETAK PANDES RT. 03 RW. 12 KAB. KARANGANYAR
10682 1100452592 WIWID WIJAYANTI 16/10/1979 DESA BANJAREJO RT.05/RW.01 KAB. KENDAL
10683 1100452594 DADI ESTRI MURWANI 23/09/1973 KLIWONAN RT 01 RW 07 KAB. BOYOLALI
10684 1100452596 JAKIMIN 04/01/1962 DUSUN SEKLOTOK RT.02/RW.01 KAB. KENDAL
10685 1100452597 TASNIYAH 04/03/1968 DUSUN SEKLOTOK RT.02/RW.01 KAB. KENDAL
10686 1100452598 SUMARWATI 11/5/1974 MUNCAR KRAJAN, RT.01/RW.01 KAB. TEMANGGUNG
10687 1100452599 CHUMIDAH 31/12/1965 KALIPUCANG RT.02 RW.01 KAB. MAGELANG
10688 1100452601 SITI FATONAH 27/08/1967 TROCOH, RT.03/RW.04 KAB. TEMANGGUNG
10689 1100452602 SUPARNOMO ALMAUN 15/7/1969 MUNCAR KRAJAN, RT.01/RW.01 KAB. TEMANGGUNG
10690 1100452603 NINING WAHYUNI 11/11/1963 WONOREJO RT.08/RW.02 KAB. KENDAL
10691 1100452605 MAS'UDAH 27/8/1959 CANDISARI RT.05/02 KAB. DEMAK
10692 1100452607 HERY ENDARTO 25/10/1961 JL. CANDI MUTIARA RAYA 1275 RT.10/06 KOTA SEMARANG
10693 1100452609 SUSI MARLIYANI 18/09/1968 JL. CANDI MUTIARA RAYA 1275 RT.10/06 KOTA SEMARANG
10694 1100452612 MUHAMMAD SAIFUL AKBAR 17/08/1999 DK. BADONG RT 05 RW 01 KAB. BLORA
10695 1100452613 MURTINAH 3/2/1967 BANJARKERTA RT 04 RW 04 KAB. PURBALINGGA
10696 1100452614 SARPI 10/10/1968 BADONG RT 05/01 KAB. BLORA
10697 1100452615 MUHSINUN 31/12/1959 KALIPUCANG RT.01 RW.01 KAB. MAGELANG
10698 1100452618 TULUS MARDIONO 17/06/1968 LINGK. BAKUNGAN, RT.05/RW.05 KAB. TEMANGGUNG
10699 1100452619 RIFAI 03/02/1970 DOWO RT.02 RW.03 KAB. MAGELANG
10700 1100452620 PAINAH 01/04/1960 GROGOL RT 004 RW 001 KAB. BANJARNEGARA
10701 1100452621 SITI RIF'ANAH SYA'RONI 06/12/1964 MINDAHAN RT.006/002 KAB. JEPARA
10702 1100452622 ROPIKAH 1/7/1961 GROGOL RT 004 RW 001 KAB. BANJARNEGARA
10703 1100452623 MUH ZAENI 31/12/1973 KALIPUCANG RT.01 RW.01 KAB. MAGELANG
10704 1100452624 PURWANTI 10/12/1982 PENANGGUNGAN RT 003 RW 004 KAB. BANJARNEGARA
10705 1100452625 WASHOFARIYATUL J. MAKSUM HANAN 4/6/1965 MINDAHAN RT.006/002 KAB. JEPARA
10706 1100452626 MUJI CHAYATI 17/10/1974 KALIPUCANG RT.01 RW.01 KAB. MAGELANG
10707 1100452628 SISWOTO, A. MD 18/09/1972 SADANG RT 08/02 KAB. BLORA
10708 1100452629 SOEHARTONO SUWARGI ROMO KARBIN 11/06/1970 MEGAWON RT 04 RW 03 KAB. KUDUS
10709 1100452630 NASIHUN MOHADI SUKEMI 01/03/1964 MINDAHAN RT.006/002 KAB. JEPARA
10710 1100452632 KHADIRUN 12/3/1967 BLIMBING RT 004/002 KAB. BANJARNEGARA
10711 1100452633 SITI KHOTIMAH 17/12/1977 SADANG RT 08 RW 02 KAB. BLORA
10712 1100452634 ETI SUSILOWATI 03/05/1978 BLIMBING RT 004 RW 002 KAB. BANJARNEGARA
10713 1100452635 TENTREM 11/05/1964 DOWO RT.02 RW.03 KAB. MAGELANG
10714 1100452636 CHOLISOH 31/07/1982 JAMBU 01/01 KAB. MAGELANG
10715 1100452637 HANI INDRASARI 03/12/1989 KEDUNGTUKANG RT.16/05 JATIBARANG KAB. BREBES
10716 1100452638 MARINAH 14/07/1961 KEDUNGTUKANG RT.16/05JATIBARANG KAB. BREBES
10717 1100452639 RUWI 11/02/1965 KARANGBALE RT.02/04 LARANGAN KAB. BREBES
10718 1100452640 SURYANA 10/01/1959 KARANGBALE RT.02/04 LARANGAN KAB. BREBES
10719 1100452641 EKO SARNOTO 08/08/1978 PENANGGUNGAN RT 003 RW 004 KAB. BANJARNEGARA
10720 1100452642 SITI WACHIDIYAH 15/03/1977 MERTAN RT. 01/16 KAB. MAGELANG
10721 1100452643 AMIN FATHONAH ZABIDI 12/09/1971 MEGAWON RT 04 RW 03 KAB. KUDUS
10722 1100452644 LENNY KUSUMA MAHARANI, SH M HUM 24/02/1978 KARANGASEM RT.02 RW.08 KOTA SURAKARTA
10723 1100452646 SITI TACHWIN 04/05/1970 KRAJAN I RT.04 RW.02 TEGARON KAB. SEMARANG
10724 1100452647 NURSALIM 20/4/1959 KRAJAN I RT. 04 RW.02 TEGARON KAB. SEMARANG
10725 1100452649 JAZIMAH 11/11/1970 MANGGONG RT03 RW03 KAB. TEMANGGUNG
10726 1100452654 WIDAYANTI 30/07/1975 BANJAREJO RT 02 RW 02 KAB. BOYOLALI
10727 1100452655 TRIYONO 23/06/1975 BANJAREJO RT 02 RW O2 KAB. BOYOLALI
10728 1100452659 AGUS SETYADI 12/9/1974 TANGKIL RT. 01/07 KAB. SUKOHARJO
10729 1100452661 SITI NUR LANDARI 19/11/1978 TANGKIL RT. 01/07 KAB. SUKOHARJO
10730 1100452662 ADAM 16/08/1963 CLAPAR RT 003 RW 001 KAB. BANJARNEGARA
10731 1100452663 ADMINAH 01/01/1969 CLAPAR RT 003 RW 001 KAB. BANJARNEGARA
10732 1100452664 MEI ISSYAUKI 13/05/1976 KARANGBULU RT 03 RW 01 KAB. BOYOLALI
10733 1100452665 DARWIYANTI 4/9/1979 KARANGBULU RT 03 RW 01 KAB. BOYOLALI
10734 1100452667 SUDAM MORO KASBAN 31/12/1958 PAYAK 18/06 CLUWAK KAB. PATI
10735 1100452670 SUNIPAH MITO LASI 01/07/1961 PAYAK 18/06 CLUWAK KAB. PATI
10736 1100452671 KASIMAH 03/11/1965 BANARAN RT.01 RW.01 KAB. BATANG
10737 1100452672 ABRORI 14/7/1968 JL. RAYA PEGANDON RT. 01 RW. 05 KAB. KENDAL
10738 1100452673 ZABIDI MUHYIDIN MUSYAROFAH 31/12/1962 SIRAHAN 15/5 CLUWAK KAB. PATI
10739 1100452674 SUWATI SUWITO MONAH 01/07/1968 SIRAHAN 05/05 CLUWAK KAB. PATI
10740 1100452675 RAMINI 12/04/1969 JL. RAYA PEGANDON RT. 01 RW. 05 KAB. KENDAL
10741 1100452677 SUPARNO MARNAN JA'IZ 09/03/1960 PENGILON RT.07 RW.03 KOTA SALATIGA
10742 1100452678 SUTIMAH SUYOTO SAWIRNO 01/01/1969 PENGILON RT.07 RW.03 KOTA SALATIGA
10743 1100452681 SRI KISWATI KASIRAN 28/04/1970 NGEMPLAK KIDUL 02/03 MARGOYOSO KAB. PATI
10744 1100452682 MUTMAINAH 15/07/1972 KRAJAN 03/01 KAB. GROBOGAN
10745 1100452684 SUTIMIN 3/4/1958 LEMAHBANG RT 02 RW 02 KAB. BOYOLALI
10746 1100452686 SUMIARSI 30/12/1964 GRUMBULREJO RT. 03 RW. 01 KAB. KARANGANYAR
10747 1100452687 SUMARDI SOEMARTO SUPARTO 21/1/1961 BARONGAN RT 04 RW 03 KAB. KUDUS
NO NO. PORSI NAMA TANGGAL LAHIR ALAMAT KAB/KOTA KETERANGAN
10748 1100452688 DARNO 12/12/1963 GRUMBULREJO RT. 03 RW. 01 KAB. KARANGANYAR
10749 1100452689 NOOR SUNARSIH NOOR YASIN 2/5/1967 BARONGAN RT 04 RW 03 KAB. KUDUS
10750 1100452695 TOHIR 31/12/1958 POS WETAN RT 26 RW 04 KAB. BOYOLALI
10751 1100452698 MAHMUD YUSUF 08/08/1965 TIRTOMULYO 02/12 KAB. KLATEN
10752 1100452699 TRI HANJATMIKOWATI 26/05/1961 JL. WIJAYA KUSUMA 10 NO.15 RT.03/05 KAB. TEGAL
10753 1100452700 YENI TUTU ROHIMAH 10/04/1965 TIRTOMULYO 02/12 KAB. KLATEN
10754 1100452701 SATINEM 9/11/1962 CIHERANG RT. 04 RW. 12 KAB. CILACAP
10755 1100452702 RESMININGSIH 31/12/1957 DK. NGASEM RT.02/RW.01 KAB. SUKOHARJO
10756 1100452703 SURANTI 23/12/1977 DUSUN RANCAKOLE RT.07 RW.02 KAB. SUKOHARJO
10757 1100452709 SITI LESTARI 16/05/1969 DUNGUS RT 15 KAB. SRAGEN
10758 1100452710 FRIDAYANI ADIASTUTI 2/5/1980 KUDU RT.05/05 KOTA SEMARANG
10759 1100452711 SUMARTI 31/12/1958 KADISONO RT 12 KAB. SRAGEN
10760 1100452712 NOOR ASHIJAH 04/08/1976 SEMPALWADAK RT.05/03 KAB. DEMAK
10761 1100452714 SUMANTO 18/8/1958 DUNGUS RT 15 KAB. SRAGEN
10762 1100452718 ROCHIMIN ABDUL RAHMAN 11/11/1957 DOROPAYUNG 02/01 JUWANA KAB. PATI
10763 1100452719 ANWAR 26/07/1958 KALIKONDANG RT.02/05 KAB. DEMAK
10764 1100452720 KRUSTIMAH,[Link].I 15/08/1959 PUJUT RT.03 RW.01 KAB. BATANG
10765 1100452721 SRINI NAWARDI MARTINI 28/08/1957 DOROPAYUNG 02/01 JUWANA KAB. PATI
10766 1100452722 FITA DWI RIANI 11/6/1986 DOROPAYUNG 02/01 JUWANA KAB. PATI
10767 1100452724 SULASIH 31/12/1960 KALIKONDANG RT.02/05 KAB. DEMAK
10768 1100452726 JAETI 22/08/1964 CIPAWON RT 04 RW 01 KAB. PURBALINGGA
10769 1100452727 IMAM YAKODIR 10/02/1960 CIPAWON RT 04 RW 01 KAB. PURBALINGGA
10770 1100452728 WINDARTI 08/03/1981 JOYOREJAN RT 01 KAB. SRAGEN
10771 1100452729 ENDANG SRI YUGOWATI 21/06/1969 JL. TEGAL MAS III NO.26 RT.04/08 KAB. DEMAK
10772 1100452734 SURYANTO 30/01/1960 JL. TEGAL MAS III NO.26 RT.04/08 KAB. DEMAK
10773 1100452735 INDRI ISMAYANTI 2/4/1975 BABADAN RT.02 RW.03 KAB. BATANG
10774 1100452736 AJI GUMELAR 20/12/1994 DOMPILAN RT.03/01 KAB. SUKOHARJO
10775 1100452737 EKO HERWANTO 12/06/1975 KUDU RT.05/05 KOTA SEMARANG
10776 1100452738 ROSIDATUL HIDAYATI 14/04/1961 NGRUKI RT. 05/17 KAB. SUKOHARJO
10777 1100452740 SRI NUZULAENI 09/12/1969 KUYANG RT 06/03 KAB. SRAGEN
10778 1100452742 ROKIM JASMIN SINI 17/7/1957 MARGOMULYO 02/02 TAYU KAB. PATI
10779 1100452743 HARSONO 31/12/1959 KLAYU RT 01 KAB. SRAGEN
10780 1100452744 SRI WAHYUNI SUKARNO 01/07/1958 MARGOMULYO 02/02 TAYU KAB. PATI
10781 1100452745 SURATI 02/07/1969 KLAYU RT 01 KAB. SRAGEN
10782 1100452746 SITI ASIYAH NGARIBAN 12/04/1966 MARGOMULYO 2/2 TAYU KAB. PATI
10783 1100452754 CONDRO EKOWATI 16/01/1969 [Link] I/713 RT.05/02 KOTA SEMARANG
10784 1100452758 DARMINI 2/9/1957 PURBAYAN RT. 01/01 KAB. SUKOHARJO
10785 1100452761 SUWARNI 31/12/1965 SIDOMULYO RT 15 KAB. SRAGEN
10786 1100452762 TIYONO 31/12/1962 SIDOMULYO RT 15 KAB. SRAGEN
10787 1100452763 MOCH ABIDIN 9/2/1960 KEL. LANGENHARJO RT.04/RW.08 KAB. KENDAL
10788 1100452764 AGUS SETIAWAN 19/10/1968 [Link] LAWAS RT.10/05 ROWOKEMBU KAB. PEKALONGAN
10789 1100452765 TITIK WIDIARTI 08/05/1967 KEL. LANGENHARJO RT.04/RW.08 KAB. KENDAL
10790 1100452766 WASILAH 27/07/1959 DUSUN. JEBENGAN .1/04 KAB. MAGELANG
10791 1100452767 FATONAH 10/02/1965 JL. SRINALENDRA NO.13 RT.03 RW.03 KOTA SURAKARTA
10792 1100452768 HARI SAPTOHADI 19/03/1960 JL. SRINALENDRO 13 RT.03 RW.03 KOTA SURAKARTA
10793 1100452769 NINA SUHARSIH 02/05/1972 [Link] LAWAS RT.10/05 ROWOKEMBU KAB. PEKALONGAN
10794 1100452770 EDY HARYANTO 27/7/1959 MANGLI RT 005 RW 03 KAB. BOYOLALI
10795 1100452771 DIDIEK PERMADI 29/10/1978 KALISALAK [Link] RAYA NO.56 C 01/01 KAB. BATANG
10796 1100452772 SRI SULASTRI 13/06/1965 MANGLI RT 005 RW 03 KAB. BOYOLALI
10797 1100452773 HERY SUSILO UTOMO, [Link] 16/02/1980 PERUM KCVRI NO. 77 RT. 03 RW. 17 KAB. KARANGANYAR
10798 1100452774 BINTARI RETNA KUMALA 18/3/1978 KALISALAK [Link] RAYA NO.56 C 01/01 KAB. BATANG
10799 1100452776 SABAR 14/10/1958 JLEGONG RT 04 RW 03 KAB. WONOSOBO
10800 1100452778 KHAIRUNNISA 09/11/1970 JL. TEUKU UMAR NO.11 RT.04 RW.06 KAB. BANYUMAS
10801 1100452779 HOLID, SAG 10/2/1960 BANJARAN RT.03/01 SALEM KAB. BREBES
10802 1100452780 NGATIRAH 10/10/1965 JLEGONG RT 04 RW 03 KAB. WONOSOBO
10803 1100452781 NUR RAHMAH 24/12/1964 PUCANG SAWIT RT.01 RW.03 KOTA SURAKARTA
10804 1100452782 SRI SUNDARI 20/08/1960 MANGLI RT 05 RW 03 KAB. BOYOLALI
10805 1100452783 HARI PRASETIO 25/03/1967 [Link] UMAR NO.11 RT.4/6 SKRJ WTN KAB. BANYUMAS
10806 1100452784 WARJONO 10/05/1958 DK. GLEMPANG RT.03/02 PAGUYANGAN KAB. BREBES
10807 1100452786 ENDAH KISWATI 16/9/1961 DK. GLEMPANG RT.03/02 PAGUYANGAN KAB. BREBES
10808 1100452793 ISTIQOMAH 10/12/1957 BRUNOSARI RT 01/05 KAB. PURWOREJO
10809 1100452794 SUHERMANTO 09/08/1975 CANGKRING RT.08/04 KAB. DEMAK
10810 1100452796 FATIMAH 18/02/1976 BRUNOSARI RT 01/06 KAB. PURWOREJO
10811 1100452797 ACHMAD ASRORI MOCH BAKRI 16/08/1961 SULANG RT 003 RW 007 SULANG KAB. REMBANG
10812 1100452798 SETYO PONCO HARI FITRIYANI 18/08/1982 CANGKRING RT.08/04 KAB. DEMAK
10813 1100452800 SINGGIH FATCHURROCHIM 25/06/1970 PETORAN RT.03 RW.09 KOTA SURAKARTA
10814 1100452801 NINIK NURLAELA MOCH SUYONO 09/10/1964 SULANG RT 003 RW 007 SULANG KAB. REMBANG
10815 1100452803 JOIS SUSANA DEWI 03/10/1972 PETORAN RT.03 RW.09 KOTA SURAKARTA
10816 1100452806 UMI SYARIFAH 12/06/1961 JAJAR NO. 03 RT.02 RW.08 KOTA SURAKARTA
10817 1100452807 MIS ERNI MIHAYATI 15/05/1981 TLOGOSARI WETAN RT.03/03 KOTA SEMARANG
10818 1100452809 MUFLIKAH 01/07/1960 BALEREJO RT.02/01 KAB. DEMAK
10819 1100452810 MUHAMMAD ANDI SETIAWAN 13/07/1974 BUTUH RT 39 KAB. SRAGEN
10820 1100452811 EDI BUANA 21/05/1986 SELOPAJANG TIMUR RT.01 RW.01 KAB. BATANG
10821 1100452812 RINI SETYONINGSIH 12/09/1976 BUTUH RT 39 KAB. SRAGEN
10822 1100452813 BUDI HARJO , [Link] 06/02/1971 TLOGOSARI WETAN RT.03/03 KOTA SEMARANG
10823 1100452814 SITI AISYAH 04/06/1969 TLOGOREJO RT.04/01 KAB. DEMAK
10824 1100452815 SITI HAJRIYAH 2/3/1972 JL. NUSA INDAH RT. 04 RW. 08 KAB. CILACAP
10825 1100452816 SRI MURYATI 25/12/1961 KEMPLONG RT.04/02 WIRADESA KAB. PEKALONGAN
10826 1100452817 ULIN NUHA FARISI 26/3/1973 TLOGOREJO RT.04/01 KAB. DEMAK
10827 1100452819 RUDIANTO 30/10/1964 KENDAGA RT 005 RW 004 KAB. BANJARNEGARA
10828 1100452822 MUSLIH ABDUROHMAN ABDUROHMAN 17/09/1961 JATISARI RT.10/03 KAB. KEBUMEN
10829 1100452825 MUSLIMATUL CHABIBAH ALIMA'SUM 19/04/1958 JATISARI RT.10/03 KAB. KEBUMEN
10830 1100452826 ENDANG SETIAWATI SUWARDI 19/09/1959 MLATI LOR RT 03 RW 03 KAB. KUDUS
10831 1100452828 SUBEKAN SARIPIN KARTO SARAH 05/05/1967 PANJANG RT.03 RW.02 KAB. KUDUS
10832 1100452829 KHUMYATI NURSODIK MADROHMIN 12/6/1975 SELANG RT.01/03 KAB. KEBUMEN
10833 1100452832 SUPRAPTO 25/10/1972 KARANGSARI KIDUL RT. 01 RW. 09 KAB. CILACAP
10834 1100452835 KUSNO PRANOTO SUTRIMO 04/05/1969 LAMBANGAN RT.07 RW.02 KAB. KUDUS
10835 1100452837 SITI LASMI RUSLAN 15/07/1976 LAMBANGAN RT.07 RW.02 KAB. KUDUS
10836 1100452838 ENY PUJI ASTUTI 05/10/1979 KARANGSARI KIDUL RT. 01 RW. 09 KAB. CILACAP
10837 1100452839 EKO HANDESTYOWATI 4/4/1966 DK. KRAJAN BANYUMUDAL RT. 07 RW. 02 KAB. PEMALANG
10838 1100452840 MENIK MARYUNI 20/12/1972 MOJO RT.02/RW.05 KAB. SUKOHARJO
10839 1100452842 ARDHIA DIANI DWI PRASTIWI 13/02/1999 MOJO RT 02/05 KAB. SUKOHARJO
10840 1100452843 BUDIYANTO 03/05/1963 DK KRAJAN BANYUMUDAL RT. 07RW. 02 KAB. PEMALANG
10841 1100452844 SRI MAMIK MOCH BADIL 10/05/1964 PANJANG RT.03 RW.02 KAB. KUDUS
10842 1100452846 INTARINI NURHAYATI 15/6/1966 MEKARSARI RT 05 RW 12 KAB. WONOSOBO
10843 1100452847 WAHYUDI 21/11/1961 GANDUNG LOR RT.02/05 DADIREJO TIRTO KAB. PEKALONGAN
10844 1100452848 SITI HANI'AH ROFI'I 10/10/1987 SIDOREJO RT 002 RW 001 PAMOTAN KAB. REMBANG
10845 1100452849 SABILAL ROSYAD 19/01/1980 WIJO RT.02/01 GETAS WONOPRINGGO KAB. PEKALONGAN
10846 1100452851 SUPARMO AMAD SURYAN 15/07/1960 BABADSARI RT.02/02 KAB. KEBUMEN
10847 1100452852 JUMIYATUN 11/05/1973 CANDI RT 01 RW 06 KAB. BOYOLALI
10848 1100452854 SRI HAMIYATI MAN SURUN 18/03/1960 BABADSARI RT.02/02 KAB. KEBUMEN
10849 1100452855 WAJI 03/02/1969 CANDI KAB. BOYOLALI
10850 1100452856 NELI HANDAYANI ZAINI SAYUTI 20/08/1979 SUMBERJO RT 002 RW 007 REMBANG KAB. REMBANG
10851 1100452857 MUHAMMAD MASHUD MARCHABAN 9/2/1979 SUMBERJO RT 002 RW 007 REMBANG KAB. REMBANG
10852 1100452859 RIFAI 27/12/1966 REJOSARI RT 03/02 KAB. DEMAK
10853 1100452860 PONIMIN 9/4/1960 KOMP. AKPOL BLOK M NO.28 RT.10/06 KOTA SEMARANG
10854 1100452861 ENDANG WIDAYATI 10/10/1963 KOMP AKPOL BLOK M NO.28 RT.10/06 KOTA SEMARANG
10855 1100452862 ISKAK 22/02/1962 KARANGNANGKA RT.03 RW.04 KAB. BANYUMAS
10856 1100452863 SUMINAH 16/07/1966 KARANGNANGKA RT. 3/4 KAB. BANYUMAS
10857 1100452865 NI MADE NOTAL 4/10/1973 PRM SAPEN RAYA RT.02/RW.10 KAB. SUKOHARJO
10858 1100452867 DEWI MURBANISARI 26/10/1965 LINGK. BAKUNGAN RT05 RW05 KAB. TEMANGGUNG
10859 1100452868 RUSMIYATI 18/04/1959 GEDANGAN RT. 02 RW. 04 KAB. KARANGANYAR
10860 1100452869 MUNTAMAH SUWARDJO RUMINI 06/07/1968 TRIMULYO 2/5 KAYEN KAB. PATI
10861 1100452870 REZEKIYAH 11/09/1969 LAMUK LEGOK, RT.02/RW.01 KAB. TEMANGGUNG
10862 1100452871 SUDARMIN KARSIDI JASMI 13/06/1961 TRIMULYO 2/5 KAYEN KAB. PATI
10863 1100452872 SUKARDI 18/5/1967 LAMUK LEGOK, RT.02/RW.01 KAB. TEMANGGUNG
10864 1100452873 JUMADI, [Link] 23/11/1973 TEGALASRI RT. 02 RW. 08 KAB. KARANGANYAR
10865 1100452874 SUWARTO 23/05/1966 PERUM SAPEN RAYA B.19 RT. 02/10 KAB. SUKOHARJO
10866 1100452875 SEFIN UMI LATIFAH 04/02/1987 KWALUHAN NO.20 RT01 RW04 KAB. TEMANGGUNG
10867 1100452876 SRI UTAMI ZAKIYAH DAROJAT, [Link] 04/01/1971 TEGALASRI RT. 02 RW. 08 KAB. KARANGANYAR
10868 1100452879 SUYATNO 30/09/1974 PILANG BANGO RT. 07 RW. 07 KAB. KARANGANYAR
10869 1100452880 SURATMI 12/6/1975 PILANG BANGO RT. 07 RW. 07 KAB. KARANGANYAR
10870 1100452882 SYAMSUL VERY 20/12/1977 JL. RAYA RT.02 RW.02 KAB. CILACAP
10871 1100452885 SRI UMI NASIKHAH 8/5/1982 JL RAYA RT. 02 RW. 02 KAB. CILACAP
10872 1100452892 MUHAMAT 31/12/1965 DUSUN. SRI GENTAN KAB. MAGELANG
10873 1100452894 AHMAD SOHIBI 09/08/1968 BOJONG RT.01/03 KAB. TEGAL
10874 1100452895 SITI ROHMAH 14/01/1979 BERAHAN WETAN RT.05/08 KAB. DEMAK
10875 1100452896 ASWADI 20/01/1967 DUSUN KEDUNGBENDA RT. 03 RW. 01 KAB. CILACAP
NO NO. PORSI NAMA TANGGAL LAHIR ALAMAT KAB/KOTA KETERANGAN
10876 1100452897 ALMASUPIJAH 4/9/1957 BUNGO RT.01/02 KAB. DEMAK
10877 1100452898 SUANAH 10/10/1975 BOJONG RT.01/03 KAB. TEGAL
10878 1100452899 SUHARTI 16/03/1964 RANDUDONGKAL RT.17 RW.02 KAB. PEMALANG
10879 1100452900 SITI KHAFSOH 07/11/1985 PAGERAJI RT.05 RW.09 KAB. BANYUMAS
10880 1100452901 SUSI BARIYATUN 08/02/1971 JL. PALEM 121 RT. 04 RW. 07 KAB. CILACAP
10881 1100452902 SITI JUARIYAH 21/08/1981 CILONGOK RT. 5/2 KAB. BANYUMAS
10882 1100452903 MUJIBURROHMAN 09/08/1971 CILONGOK RT. 5/2 KAB. BANYUMAS
10883 1100452904 AGUS WIDIYANTORO 07/08/1967 JL. PALEM 121 RT. 04 RW.07 KAB. CILACAP
10884 1100452905 AKHMAD ROFIQ SUYETNO 13/06/1973 BAKALAN 11/02 KEC. KALINYAMATAN KAB. JEPARA
10885 1100452906 SHOLEH 09/10/1976 PAGERAJI RT. 5/9 KAB. BANYUMAS
10886 1100452907 FARIKHAH SUTIYO KARSAN 17/08/1971 PURWOGONDO 19/01 KEC. KALINYAMATAN KAB. JEPARA
10887 1100452908 SUPARJAN ROTO PAIJAN 04/11/1970 PURWOGONDO RT.019/001 [Link] KAB. JEPARA
10888 1100452915 NUR AZIZAH ACHMAD CHAMIM 04/01/1969 PECANGAAN WETAN 01/03 KAB. JEPARA
10889 1100452916 SUHARTO ANWAR SARBINI 05/01/1961 PECANGAAN WETAN 01/03 KAB. JEPARA
10890 1100452917 SUTRISNO 13/5/1967 KRANGGAN RT.02 RW.08 KAB. BATANG
10891 1100452920 SUBIWATI 22/12/1971 TEGOWANU KULON 10/01 KAB. GROBOGAN
10892 1100452922 AMIN PRAJOGO 09/07/1968 TEGOWANU KULON 10/01 KAB. GROBOGAN
10893 1100452923 MUHAJIR 06/10/1970 BERAHAN WETAN RT.05/08 KAB. DEMAK
10894 1100452924 FATHIYATURROHMAH IMAH CANDRAWATI 02/05/1973 BERAHAN KULON RT.01/02 KAB. DEMAK
10895 1100452926 ENY ERAWATI,[Link] 08/02/1970 PANCURAN RT. 01 RW. 09 KAB. KARANGANYAR
10896 1100452927 DADIYANA JAYA SUMARTO 13/02/1962 JEPAT LOR 3/4 TAYU KAB. PATI
10897 1100452928 BUDI SETYAWATININGSIH 01/07/1969 GRIYA PRAJA MUKTI BLOK J.23 RT.02/RW.08 KAB. KENDAL
10898 1100452930 LATIFATUL ISTIANAH NURHADI 06/06/1967 JEPAT LOR 3/4 TAYU KAB. PATI
10899 1100452931 NUNUK GESURIYANTI KOMALASIH 18/08/1963 [Link] KUSUMADIYO I/ 28A RT 03/02 KAB. BLORA
10900 1100452932 SITI KAMIATI 20/09/1975 PONDOK MAJAPAHIT I UU.27 RT.7/5 KAB. DEMAK
10901 1100452933 ACHMADI 04/10/1970 GRIYA PRAJA MUKTI BLOK J.23 RT.02/RW.08 KAB. KENDAL
10902 1100452935 HASAN PURNOMO 17/08/1975 PONDOK MAJAPAHIT I UU.27 RT.7/5 KAB. DEMAK
10903 1100452937 HAFIDZ KHOLIDA 16/04/1977 JL BLIMBING 5 NO.11 PERUMNAS RT. 01/20 KAB. KARANGANYAR
10904 1100452938 PONIMAN, SS 09/02/1969 PANCURAN RT. 01 RW. 09 KAB. KARANGANYAR
10905 1100452940 ADIB GHUFRON 12/07/1978 GANDU KULON RT03 RW01 KAB. TEMANGGUNG
10906 1100452945 TUTI LISTANTUN 10/08/1968 TAMANSARI RT.03/01 KAB. DEMAK
10907 1100452951 SRI WINDARTI,[Link] 28/06/1972 [Link] UTARA DALAM KAV-65 RT.0904 KOTA SEMARANG
10908 1100452952 DINUL KANIF,SE 03/08/1974 [Link] UTARA DALAM KAV-65 RT.09/04 KOTA SEMARANG
10909 1100452961 SRI REJEKI 02/04/1960 JL. SADEWA V NO. 16 RT.04/03 KOTA SEMARANG
10910 1100452963 AHMAD SALAHUDIN DAMURI 5/2/1974 NGABUL 03/02 KAB. JEPARA
10911 1100452964 RASNI 31/12/1958 WADUK 04/11 KAB. GROBOGAN
10912 1100452965 HENI FARIDA TAS'AN 26/3/1979 NGABUL 03/02 KAB. JEPARA
10913 1100452966 KHANIFAH 31/12/1963 SENGON 02/03 KAB. MAGELANG
10914 1100452967 JEMINI MOCHAMAD SUKIRMAN 19/09/1972 KLEGENREJO RT.01/01 KAB. KEBUMEN
10915 1100452968 AZAM SURYO NUGROHO 28/02/1986 KELING 03/03 KAB. JEPARA
10916 1100452969 MU'LINATUS SOLIHAH MATHORI 09/02/1986 KELING 03/03 KAB. JEPARA
10917 1100452970 TRI HARNINGSIH 15/9/1962 JL MAWAR BRT IV D39 FAJAR INDAH RT. 2/11 KAB. KARANGANYAR
10918 1100452971 JOKO SETIYONO 30/10/1963 [Link] BARAT IV D.39 FAJAR INDAH KAB. KARANGANYAR
10919 1100452972 NURKHOLIS MOHAMAD DAMAMI 13/04/1966 KLEGENREJO RT.01/01 KAB. KEBUMEN
10920 1100452973 CHUNDLORI UMAR KASEMI 18/01/1965 KRAPYAK 01/01 KAB. JEPARA
10921 1100452974 KASTINI SAKIP SARJAN 2/8/1975 KRAPYAK 01/01 KAB. JEPARA
10922 1100452976 DAIM 31/12/1964 BOJONG RT.10/02 KAB. TEGAL
10923 1100452977 TOASIH 02/06/1971 BOJONG RT.10/02 KAB. TEGAL
10924 1100452978 ROKHMAT TRISTIADI 03/03/1968 PATIKRAJA RT.03 RW.06 KAB. BANYUMAS
10925 1100452981 AMINUDDIN AZIZ 19/1/1985 JL. SUMBING NO. 17 RT. 03 RW. 17 KAB. PEMALANG
10926 1100452983 NOFI SETIOWATI 12/11/1982 [Link] NO.17 RT.03 RW.17 KAB. PEMALANG
10927 1100452984 SUWARNO 31/12/1959 RAGUKLAMPITAN RT 007/ RW 002 KAB. JEPARA
10928 1100452985 SUKATI KARIADI SADI 10/08/1962 BONDO RT.001/007 KAB. JEPARA
10929 1100452986 SRI SUKEKSI DRA 29/08/1961 MARGOASRI NO.051 RT 30/09 KAB. SRAGEN
10930 1100452988 JULI KUSMANTO [Link] 11/07/1963 MARGOASRI NO.051 RT 30/09 KAB. SRAGEN
10931 1100452991 KUSMAN HARTO SARKAWI 16/02/1965 MOJOLUHUR 7/1 JAKEN KAB. PATI
10932 1100452992 HERI PURWATI 19/09/1960 PANDAK RT. 4/2 KAB. BANYUMAS
10933 1100452993 SULASTRI KASJAN JASMI 04/03/1967 MOJOLUHUR 7/1 JAKEN KAB. PATI
10934 1100452994 WARSONO 09/04/1976 KARANGGONDANG RT 003/001 KAB. BANJARNEGARA
10935 1100452995 SRI WINARNI 22/06/1965 SUMBER AGUNG 03/09 KAB. KLATEN
10936 1100452997 SUHARTO HARTO WINARNO 05/07/1964 SUMBER AGUNG 03/09 KAB. KLATEN
10937 1100453000 DIYONO 05/10/1962 BLENDUNG PESUCEN RT. 09 RW. 02 KAB. PEMALANG
10938 1100453001 MEKAR AZIZAH 15/06/1977 JL. KOTA BARU VI RT. 03/20 BREBES KAB. BREBES
10939 1100453002 SONI LUKIYANTO 2/4/1976 JL. ARBOI RT. 001 RW. 009 BOJONGNANGKA KAB. PEMALANG
10940 1100453003 [Link] HASTUTI ZAETUN 28/12/1967 [Link] PESUCEN RT.09 RW.02 KAB. PEMALANG
10941 1100453004 RIPNIATIN DARMINING RAHAYU 15/12/1965 JOGODAYOH 01/09 KAB. KLATEN
10942 1100453005 SUGITA 12/09/1962 JOGODAYOH 01/09 KAB. KLATEN
10943 1100453006 DAIROH 09/10/1969 PESAREAN RT.15/04 ADIWERNA KAB. TEGAL
10944 1100453007 SUTARMAN 05/05/1965 PESAREAN RT.15/04 ADIWERNA KAB. TEGAL
10945 1100453009 AMAD BADERI 09/09/1970 KEBURUSAN RT. 02/01 PITURUH KAB. PURWOREJO
10946 1100453010 SITI DJUMINAH 05/10/1973 DESA KEBONHARJO RT.04/RW.02 KAB. KENDAL
10947 1100453011 TITIEK NURYATI TRIMAN 22/7/1963 JL. TIRTONING NO.06 RT 03 RW 03 KOTA SALATIGA
10948 1100453012 TUTI ALAWIYAH 19/11/1976 KR. TENGAH BENDA RT.02/03 SIRAMPOG KAB. BREBES
10949 1100453013 MUCHSON 28/02/1963 DESA KEBONHARJO RT.04/RW.02 KAB. KENDAL
10950 1100453015 AHMAD JIHAD 06/02/1969 [Link] BENDA RT.02/03 SIRAMPOG KAB. BREBES
10951 1100453016 MOHAMMAD THOLHAH 24/07/1971 GEBANGAN 01/03 KAB. GROBOGAN
10952 1100453017 MUJIYO LATIF JAUHARI 19/05/1965 JONGGRANGAN 02/03 KAB. KLATEN
10953 1100453018 SUKARMI REJO LEGIYO SARNI 19/05/1961 TRIMULYO 2/1 JUWANA KAB. PATI
10954 1100453020 IZZATI UQTOFIA 17/09/1979 GEBANGAN 01/03 KAB. GROBOGAN
10955 1100453021 ROSIDAH 18/03/1973 JONGGRANGAN 02/03 KAB. KLATEN
10956 1100453024 PARDIYAH 06/07/1958 JL. H. SOLEH NO. 64 RT.04 RW.06 KAB. CILACAP
10957 1100453029 DARSONO 02/04/1966 CILONGOK RT.07 RW.01 KAB. BANYUMAS
10958 1100453030 SITI UMIROH 24/02/1976 CILONGOK RT.07 RW.01 KAB. BANYUMAS
10959 1100453031 MAEMUN 02/08/1960 [Link] ZEIN PASIR KIDUL RT. 2/3 KAB. BANYUMAS
10960 1100453032 VIVI RAHMA NUR CAHYANI 17/08/1999 CILONGOK RT. 6/1 BANYUMAS KAB. BANYUMAS
10961 1100453033 MAHMUDAH 05/05/1969 CILONGOK RT. 6/1 KAB. BANYUMAS
10962 1100453035 BAKRI 04/08/1957 NGAGLIK RT 03 RW 03 KOTA MAGELANG
10963 1100453039 SUYATI, AMD 25/07/1967 BESOLE RT 01/02 KAB. PURWOREJO
10964 1100453043 WIHARTO 28/02/1972 KEL BANDUNG RT. 01/05 KOTA TEGAL
10965 1100453045 YULI ASTUTI 11/7/1971 PATIKRAJA RT. 3/6 KAB. BANYUMAS
10966 1100453047 SRI HARYANTI 29/11/1977 PERUMDA CACABAN GANG PERSADA NO 39 KOTA MAGELANG
10967 1100453048 TARSUMI 17/04/1974 KEL BANDUNG RT. 01 /05 KOTA TEGAL
10968 1100453049 DENDI KRISGIANTO 08/11/1981 API-API RT.01/01 WONOKERTO KAB. PEKALONGAN
10969 1100453050 MUHAEMIN, [Link] 09/03/1961 BANJARTURI RT.02/05 WARUREJA KAB. TEGAL
10970 1100453051 MARFUAH 29/08/1968 BANJARTURI RT.02/05 WARUREJA KAB. TEGAL
10971 1100453052 IDA YUHIDA 13/3/1981 API-API RT.01/01 WONOKERTO KAB. PEKALONGAN
10972 1100453053 WAWAN SETIADI 14/10/1973 PERUMDA CACABAN GANG PERSADA NO 39 KOTA MAGELANG
10973 1100453057 ZUNIAR LUTHFILLAH, SAG 19/12/1972 KRAJAN RT.06 RW.01 KESONGO KAB. SEMARANG
10974 1100453059 KUSMIYATI 27/06/1963 NGENTAKSARI RT.03/02 KESONGO TUNTANG KAB. SEMARANG
10975 1100453060 ANNAH DWI KORIAWATI 17/05/1964 GAJAHAN RT. 03 RW. 01 KAB. KARANGANYAR
10976 1100453061 WINARNO 03/02/1960 GAJAHAN RT. 03 RW. 1 KAB. KARANGANYAR
10977 1100453065 SUTINI 02/03/1963 DUSUN BADAAN RT.04/RW.06 KAB. KENDAL
10978 1100453071 JAM'IYAH 03/12/1960 DUSUN TANJUNGANOM RT.04/RW.02 KAB. KENDAL
10979 1100453072 KHOLIFAH NGASIMAN KASEMAN 12/03/1970 DEMAAN 002/005 KAB. JEPARA
10980 1100453073 WAWAN HERMAWAN RUHENDI 07/03/1978 BANJARSARI RT.01/04 KAB. KEBUMEN
10981 1100453074 ABDULLAH YASIR LAMI 04/02/1972 DEMAAN 02/05 KAB. JEPARA
10982 1100453075 SRI MURNIATI 7/7/1964 LEMAHJAYA RT 001 RW 002 KAB. BANJARNEGARA
10983 1100453076 SITI MULYATI SANDIKARTO SANMULYA 15/11/1978 BANJARSARI RT.01/04 KAB. KEBUMEN
10984 1100453078 SUMINI 04/01/1963 REJODANI RT 02 RW 02 KAB. BOYOLALI
10985 1100453079 HERU WIDODO YOTOSOEDASNO 02/04/1966 NGAGEL 1/3 DUKUHSETI KAB. PATI
10986 1100453085 SAIDIN 07/06/1960 JEBED SELATAN RT.02 RW.06 KAB. PEMALANG
10987 1100453086 KARSIDAH 13/07/1957 JEBED SELATAN RT. 02 RW. 06 KAB. PEMALANG
10988 1100453088 MUSLIAH 26/07/1963 JL. ACMAD ZEIN RT.02 RW.03 KAB. BANYUMAS
10989 1100453089 SRI ASIH PUJIATI 04/07/1970 BLENDER RT. 2/3 PURWOJATI KAB. BANYUMAS
10990 1100453090 HIDAYATI MASHURI SHOLIHAH 27/03/1968 NGAGEL 1/3 DUKUHSETI KAB. PATI
10991 1100453091 SUDARKO 29/01/1979 TANGKIL RT 03/07 KAB. SRAGEN
10992 1100453093 CHOMIYAH 21/06/1963 LEKSANA RT 001 RW 003 KAB. BANJARNEGARA
10993 1100453094 KUSWANTO 2/2/1967 BLENDER RT. 2/3 PURWOJATI KAB. BANYUMAS
10994 1100453095 SRIYANI PUJI ASTUTI,[Link] 14/10/1975 KARANG 01/06 KAB. KLATEN
10995 1100453096 CHOIRUL MUSTAMIR 04/10/1969 TODIPAN RT 02/06 KOTA SURAKARTA
10996 1100453097 MOH SOEHADHA, [Link],[Link] 17/04/1972 KARANG 01/06 KAB. KLATEN
10997 1100453099 ROHADI 24/5/1965 PESUCEN RT.10 RW.01 KAB. PEMALANG
10998 1100453101 SAISAH 14/12/1959 PESUCEN RT. 10 RW. 01 KAB. PEMALANG
10999 1100453102 SUWARNO 13/8/1960 KARANGAN RT. 03 RW. 05 KAB. KARANGANYAR
11000 1100453103 UMIYATI 12/10/1978 KARANGGONDANG RT 003 RW 001 KAB. BANJARNEGARA
11001 1100453105 NGADIYATI 20/06/1967 KARANGAN RT. 03 RW. 05 KAB. KARANGANYAR
11002 1100453106 FASHIHAH FUROIDAH 24/07/1975 TODIPAN RT 02 RW 06 KOTA SURAKARTA
11003 1100453107 SULIPAH 19/08/1973 SINGOPRANAN 05/02 KAB. GROBOGAN
NO NO. PORSI NAMA TANGGAL LAHIR ALAMAT KAB/KOTA KETERANGAN
11004 1100453108 SUMARNO 07/10/1959 SINGOPRANAN 05/02 KAB. GROBOGAN
11005 1100453109 NGADINI KASMOKOBIN RONO 21/02/1959 PANCUR 45/09 KAB. JEPARA
11006 1100453110 ALWIYAH, SPD 2/8/1969 JL. LAYANG BARAT NO.9 RT.01 RW.09 KOTA TEGAL
11007 1100453111 BASUTI RESADIKRAMA SANDILEKSANA 31/12/1958 GRUJUGAN RT.03/01 KAB. KEBUMEN
11008 1100453112 SUTIKAH PARTONO MARTO 08/07/1966 PANCUR 45/09 KAB. JEPARA
11009 1100453114 WAHYU KHONIFAH SPD 18/4/1969 JL. LAYANG BARAT NO.9 RT.01 RW.09 KOTA TEGAL
11010 1100453115 ROSIYAH 15/12/1969 SIDOMORO RT.01/02 KAB. KEBUMEN
11011 1100453118 SRI BAKDIYATIN, [Link] 13/01/1967 PERUM MUTIARA VANTAVIN RT.04/08 PACUL KAB. TEGAL
11012 1100453119 LAILATUS SYARIFAH 12/01/1988 [Link] PUGER 03/01 KAB. GROBOGAN
11013 1100453121 SLAMET SUBAGYO, SE 16/06/1966 PERUM MUTIARA VANTAVIN RT.04/08 PACUL KAB. TEGAL
11014 1100453122 MUCH MUZNI 16/04/1977 [Link] PUGER 03/01 KAB. GROBOGAN
11015 1100453124 TURMADIYANTI 16/4/1961 MALANGAN 08/03 KAB. KLATEN
11016 1100453125 TASBI'ATUN RASMIN KASRI 24/10/1960 PANCUR 45/09 KAB. JEPARA
11017 1100453126 SOEPRIHADI SOEPARNO WIROBROJO 11/05/1958 SUMBERJO RT 005 RW 002 REMBANG KAB. REMBANG
11018 1100453128 SITI MARKUMAH 25/07/1965 SINAR ASRI III NO. 730 RT 8 RW 6 KOTA SEMARANG
11019 1100453129 SUDARMI 02/04/1964 GONDANG SAWAH RT.01/RW.07 KAB. SUKOHARJO
11020 1100453131 KUSMIYATUN KUSNAN RUSMAN 06/09/1963 SUMBERJO RT 005 RW 002 REMBANG KAB. REMBANG
11021 1100453132 SARJONO 15/07/1964 GONDANG SAWAH RT.01/RW.07 KAB. SUKOHARJO
11022 1100453133 TRI MULYADI 06/09/1965 JL. SINAR ASRI III NO. 730 RT 8 RW 6 KOTA SEMARANG
11023 1100453134 ARIFATUL KHORIDA MOH FADLAN 29/01/1980 TAYU WETAN 4/2 TAYU KAB. PATI
11024 1100453135 HARTONO 01/09/1959 BENDOSARI RT 02 RW 01 KAB. BOYOLALI
11025 1100453136 FAHRUDIN KASIM ACHMAD 4/7/1971 TAYU WETAN 4/1 TAYU KAB. PATI
11026 1100453138 SRI MURTINI 21/10/1966 BENDOSARI RT 02 RW 01 KAB. BOYOLALI
11027 1100453139 UMI SYARIFAH AMBARWATI 20/01/1981 BRATAN RT 06/06 KOTA SURAKARTA
11028 1100453142 YENNY NURCHASANAH 31/03/1977 PALUR KULON RT. 01/01 KAB. SUKOHARJO
11029 1100453144 USLINAH TUTI 24/08/1961 KALITORONG RT.06 RW.02 KAB. PEMALANG
11030 1100453145 WAHYU ARIF RAHMAN 02/12/1976 BRATAN RT 06/06 KOTA SURAKARTA
11031 1100453146 PADIYEM 10/02/1964 BUGEL RT.03/RW.07 KAB. SUKOHARJO
11032 1100453148 UTARIO SUKARDI 02/07/1958 DK MUNGGANG RT.01/04 BUMIAYU KAB. BREBES
11033 1100453150 MULAT BUDIYANTO 14/02/1966 PERUM JUNGKE PERMAI RT. 03 RW. 13 KAB. KARANGANYAR
11034 1100453151 CHOTIMAH 23/05/1958 DK MUNGGANG RT. 01/04 BUMIAYU KAB. BREBES
11035 1100453153 SITI MUSLICHAH 06/05/1968 PERUM JUNGKE PERMAI RT. 03 RW. 13 KAB. KARANGANYAR
11036 1100453155 SUTINI MARTOREJO KADIYO 23/04/1960 JL. MENUR NO.26 RT 08 RW 08 KOTA SALATIGA
11037 1100453157 VINA PRAYUNITA 13/06/1984 SRONDOL BUMI INDAH BLOK I/4A RT.05/05 KOTA SEMARANG
11038 1100453158 SARMINI 23/05/1958 KEMBANGARUM RT.14/02 KAB. DEMAK
11039 1100453159 TUHYATI 03/05/1972 PUCUNGBEDUG RT 001 RW 003 KAB. BANJARNEGARA
11040 1100453161 FARIDAH SYAFI'I ABDUL QODIR 16/5/1964 GETASRABI RT 02 RW 04 KAB. KUDUS
11041 1100453162 MUSLIHIN MURSIDI BAJURI 26/12/1958 GETASRABI RT 02 RW 04 KAB. KUDUS
11042 1100453163 WASIYAH 01/01/1970 KALITENGAH, RT.03/RW.02 KAB. TEMANGGUNG
11043 1100453164 FESA KAUTSAR 24/01/1982 SRONDOL BUMI INDAH BL0K I /4A RT.05/05 KOTA SEMARANG
11044 1100453166 MOHAMMAD DARMOYO 23/5/1964 [Link] KALIERANG RT.5/09 BUMIAYU KAB. BREBES
11045 1100453167 MUSTAQIMAH DJUMADI HABIB 19/10/1970 GG ADIPURNAN NO. 176 RT 06 RW 01 KOTA SALATIGA
11046 1100453168 ACHMAD MAIMUN ASYHURI 10/05/1970 GG ADIPURNAN NO.176 RT 06 RW 01 KOTA SALATIGA
11047 1100453169 JUDI 26/09/1965 KALITENGAH, RT.03/RW.02 KAB. TEMANGGUNG
11048 1100453171 YULI ASTUTI 29/07/1961 SINGOCANDI [Link] KUDUS [Link] KAB. KUDUS
11049 1100453174 KURNIA YULIANI 13/07/1989 TERSONO KAUMAN RT.01 RW.03 KAB. BATANG
11050 1100453176 SARJONO 02/11/1967 SEMBOJA RT. 04 RW. 01 KAB. TEGAL
11051 1100453178 WARNINGSIH 17/09/1967 SEMBOJA RT. 04 RW. 01 KAB. TEGAL
11052 1100453179 SITI SARIAH ASNAWI 01/07/1966 SUNDOLUHUR 10/2 KAYEN KAB. PATI
11053 1100453180 NUNUK MARDIYANTI, SP 19/03/1981 BANYUANYAR RT 02 RW 012 KOTA SURAKARTA
11054 1100453182 SITI MARYAMAH 08/03/1979 RAJAWANA RT 15 RW 05 KAB. PURBALINGGA
11055 1100453184 SRI PARTINAH 29/08/1957 NGEMBIK KIDUL RT. 06 RW. 02 KOTA MAGELANG
11056 1100453185 ARIF SUSILO RAHARJO AMD 28/7/1979 BANYUANYAR RT 02 RW 012 KOTA SURAKARTA
11057 1100453186 ANI PUSPA KARTIKAWATI 29/10/1962 JL. SIBELA TENGAH V NO.01 RT 01 RW 024 KOTA SURAKARTA
11058 1100453190 AMIRUL LATIEF 16/08/1971 RAJAWANA RT 15 RW 05 KAB. PURBALINGGA
11059 1100453191 SITI ISMIYATI 15/06/1974 PENDEM 09/01 KAB. MAGELANG
11060 1100453197 LADI PRAHASTO 02/05/1968 WIROREJAN RT. 03 RW. 03 KAB. KARANGANYAR
11061 1100453199 TRI AJI WIBOWO 03/01/1983 GG KEBON KANGKUNG IX RT 03 RW 07 KAB. KEBUMEN
11062 1100453202 JOHAR RINAWATI 16/09/1978 KALANGAN NO. 51 RT. 07/02 KAB. MAGELANG
11063 1100453203 SUNGATMI 6/7/1975 WIROREJAN RT. 03 RW. 03 KAB. KARANGANYAR
11064 1100453204 TIN TRISNOWATI, SKEP, NS 17/11/1965 KUNDEN 01/04 KAB. KLATEN
11065 1100453205 SHODIQ 19/05/1975 KALANGAN NO. 51 RT. 07/02 KAB. MAGELANG
11066 1100453206 TUKUL 04/07/1960 SUMBERAGUNG RT 01/03 KAB. PURWOREJO
11067 1100453207 TJUK SUGIARTO 11/04/1962 JL MAWAR BARAT X B 96 RT. 02 RW. 10 KAB. KARANGANYAR
11068 1100453208 AGUS WIJANARKO 05/08/1969 KUNDEN 01/04 KAB. KLATEN
11069 1100453209 IMAMUDIN AMIN 13/04/1975 KALISUMUR RT. 01/01 BUMIAYU KAB. BREBES
11070 1100453211 SUCI IRIANTI 25/08/1960 JL MAWAR X B 96 RT. 02 RW. 10 KAB. KARANGANYAR
11071 1100453213 MIFTAHUDIN 17/04/1979 SIANDONG RT.01/05 LARANGAN KAB. BREBES
11072 1100453214 UMI ZAENAH 11/03/1968 WARENG RT 02/06 KAB. PURWOREJO
11073 1100453216 RITA RINJANI 12/02/1979 SIANDONG RT.01/05 LARANGAN KAB. BREBES
11074 1100453219 TRI SETIYANINGSIH 13/02/1964 KALISUMUR RT.01/01 BUMIAYU KAB. BREBES
11075 1100453222 MAKMUR 27/03/1961 [Link] RT.07 RW.02 KAB. PEMALANG
11076 1100453223 KUSTI 14/07/1964 [Link] RT.07 RW.02 KAB. PEMALANG
11077 1100453225 BEKTI MULYANI 09/07/1968 JL. ARILOKA RT.03/12 KOTA SEMARANG
11078 1100453226 LANJAR WIDIYATMO 05/05/1967 JL. ARILOKA RT.03/12 KOTA SEMARANG
11079 1100453228 MUHAMMAD IKHWANUDIN 11/08/1963 PANCASAN RT 4 RW 4 KAB. BANYUMAS
11080 1100453230 WARSINAH 03/04/1960 SANDANGSARI 046 RT. 05/08 KAB. MAGELANG
11081 1100453231 MASLA'AH 10/09/1967 PANCASAN RT 4 RW 4 KAB. BANYUMAS
11082 1100453232 FAJAR WAHYU WIDYAWATI 15/09/1961 REMBUN RT 01 RW 03 KAB. BOYOLALI
11083 1100453233 SUMIYATI 24/04/1960 KATERBAN RT. 01/07 KUTOARJO KAB. PURWOREJO
11084 1100453236 RIZKY FITRIANA, SH. 10/08/1980 JL. OTTO ISKANDARDINATA/ 101 RT . 1/ 5 KOTA PEKALONGAN
11085 1100453238 ERNA SRI PURWANTI 25/09/1961 BANGAKAN RT.01/RW.01 KAB. SUKOHARJO
11086 1100453239 ENI KUSRINI MUKRI 26/06/1959 SENDANGSOKO 7/2 JAKENAN KAB. PATI
11087 1100453240 MOHAMMAD THORIQ 06/06/1980 JL. OTTO ISKANDARDINATA NO. 101 RT. 1/5 KOTA PEKALONGAN
11088 1100453241 KARYONO 1/1/1960 SUCENJURUTENGAH RT 03/03 KAB. PURWOREJO
11089 1100453242 SRI MURNININGSIH 11/11/1967 SOMAGEDE RT. 1/5 KAB. BANYUMAS
11090 1100453243 SUDARNO 16/08/1965 SOMAGEDE RT 01 /05 KAB. BANYUMAS
11091 1100453244 SUYATNO MARTO KADIRAN 04/04/1962 MUKTIHARJO 3/5 MARGOREJO KAB. PATI
11092 1100453245 ENY KUNDADARJANI KENGSIMAN 16/09/1969 MUKTIHARJO 3/5 MARGREJO KAB. PATI
11093 1100453246 TRI ARIF NURRAHMAWAN 27/08/1995 DK PULAS 7/2 JAKENAN KAB. PATI
11094 1100453247 SISWATI 26/02/1970 [Link] PATAH 01/02 KAB. GROBOGAN
11095 1100453248 SUAHMAD 12/05/1962 JL. RADEN PATAH 01/02 KAB. GROBOGAN
11096 1100453250 TUGIMIN MULYONO GEMI 08/04/1960 SONOREJO 2/1 JAKENAN KAB. PATI
11097 1100453252 MUZDALIFAH 02/11/1968 KELANGDEPOK RT. 02 RW. 01 KAB. PEMALANG
11098 1100453253 SITI KHAMIDATUN 18/06/1963 CONGOL RT 12 RW 04 KAB. BOYOLALI
11099 1100453254 MURNINGSIH 17/02/1963 SUCENJURUTENGAH RT 03/03 KAB. PURWOREJO
11100 1100453255 RASWO 12/06/1963 KELANGDEPOK RT.02 RW.01 KAB. PEMALANG
11101 1100453258 DRA. MURYANTI 06/02/1960 NGLEREP 05/11 KAB. MAGELANG
11102 1100453259 SRI RAHAYU 15/04/1966 [Link] GG KRAKATAU 21 RT.04 RW.03 KAB. BATANG
11103 1100453261 AAM ZAINUDDIN SAPAN PANI 15/06/1978 TAHUNAN RT.004/001 KAB. JEPARA
11104 1100453264 MISS TITIN FIRMANINGRUM 01/06/1980 TAHUNAN RT.004/001 KAB. JEPARA
11105 1100453265 RIYAN MULYOWANTORO 21/5/1962 KOMPLEK RADAR JL SATELIT NO 20 RT. 04/10 KAB. KARANGANYAR
11106 1100453266 ABDUL KOHAR TARWI 27/11/1965 GAJIHAN 4/2 GUUNGWUNGKAL KAB. PATI
11107 1100453267 SUTONO 12/10/1960 NGLEREP 05/11 KAB. MAGELANG
11108 1100453268 AGUS WAHYUDI 22/10/1975 TEGALREJO RT.03 RW.05 KAB. WONOGIRI
11109 1100453269 SUDARNINGSIH SUDARDI DARTI 13/06/1962 SONOREJO 2/1 JAKENAN KAB. PATI
11110 1100453270 BADRIDUJA 11/05/1976 GENENG RT.01/01 KAB. DEMAK
11111 1100453273 RATNA FITRIA ANDRIANI 5/5/1990 TUBANAN 03/03 KEC. KEMBANG KAB. JEPARA
11112 1100453275 DENY TRI KISWOYO DARKAN 29/11/1980 TUBANAN 03/03 KEC, KEMBANG KAB. JEPARA
11113 1100453277 FAIDATUL JAMHURIYAH 03/03/1978 GENENG RT.01/01 KAB. DEMAK
11114 1100453279 SURIPAH 06/04/1960 WIYOROWETAN RT. 04 RW. 01 KAB. PEMALANG
11115 1100453280 SUPRIYONO 9/11/1978 JL. BINTARA 4 RT.03 RW.15 BINTARA BEKASI BARAT
KAB. PEMALANG
11116 1100453281 DEQY PUJI PATRIA 20/12/1995 DSN KRAJAN RT 05 / RW 02 KAB. PATI
11117 1100453283 ISFARIDAH KARIMAH 30/09/1969 KP. GADUKAN RT.04 RW.01 KAB. KENDAL
11118 1100453284 KARYATI GUSPIR SUJINAH 06/03/1963 GESENGAN 5/2 CLUWAK KAB. PATI
11119 1100453285 SUMADI 12/02/1963 SIDOMULYO RT 03 RW 03 KAB. BOYOLALI
11120 1100453288 ETY SRITININGKATI 01/08/1963 SURADADI RT. 03 RW. 06 KAB. TEGAL
11121 1100453289 DURROTUL FARIDAH MUYASSAROH 14/06/2000 KAMPUNG GADUKAN KAB. KENDAL
11122 1100453290 SUBHAN 24/8/1963 SURADADI RT. 03 RW 06 KAB. TEGAL
11123 1100453291 ASLIHAH KUSNAN ANISAH 12/12/1959 BUMI KOTA SURAKARTA
11124 1100453292 SARTINI 01/01/1966 SIDOMULYO RT 03 RW 03 KAB. BOYOLALI
11125 1100453294 NURHADI 11/06/1963 JL CESNA NO.7 KOMP DIRGANTARA RT. 1/13 KAB. KARANGANYAR
11126 1100453296 SUYITNO 19/05/1963 TIDU NO. 31 RT 03 RW 01 KAB. PURBALINGGA
11127 1100453298 DWI WASIATI 14/08/1972 TOYAREKA RT 01 RW 06 KAB. PURBALINGGA
11128 1100453299 ENDY SARIFUDIN 02/05/1965 TOYAREKA RT 01 RW 06 KAB. PURBALINGGA
11129 1100453302 SUHARNO 09/10/1960 PLAMONGANSARI RT.01/12 KOTA SEMARANG
11130 1100453303 HASANAH 11/06/1961 DK PESANGGRAHAN RT. 01/02 PAGUYANGAN KAB. BREBES
11131 1100453305 KUSNI 04/06/1965 PLAMONGANSARI RT.01/12 KOTA SEMARANG
NO NO. PORSI NAMA TANGGAL LAHIR ALAMAT KAB/KOTA KETERANGAN
11132 1100453306 MUH SAJID 07/07/1963 DK. DELOK POLAMAN RT.01/03 KOTA SEMARANG
11133 1100453307 ALI ROZIQIN 23/06/1958 DK PESANGGRAHAN RT.02/01 PAGUYANGAN KAB. BREBES
11134 1100453308 MUNTAMAH 16/3/1960 BANDUNG RT 16 RW 03 KAB. BOYOLALI
11135 1100453310 HARDOYO, SPD 16/12/1968 SIPUNG 07/03 KAB. KLATEN
11136 1100453311 SUNANTI 01/11/1971 BANDUNG RT 19 RW 03 KAB. BOYOLALI
11137 1100453312 AGUS MUSYAFAQ 26/08/1968 JL. DINAR MAS X NO.05-06 RT.02/16 KOTA SEMARANG
11138 1100453317 SURANTO 15/04/1966 BANDUNG RT 19 RW 03 KAB. BOYOLALI
11139 1100453319 MUSLIMAH, SPD 25/09/1971 SIPUNG 07/03 KAB. KLATEN
11140 1100453320 SUGENG PRIYONO, SE 28/04/1973 PERUMDA GERGUNUNG 185 01/08 KAB. KLATEN
11141 1100453321 SRI REJEKI, SE 07/01/1971 JL. DINAR MAS X NO.05-06 RT.02/16 KOTA SEMARANG
11142 1100453322 UTIEK WIJAYANTI, SE 10/08/1973 PERUMDA GERGUNUNG 185 01/08 KAB. KLATEN
11143 1100453325 MOCHAMAD ZUMAR 28/9/1961 JL. TRADIPA NO.35 RT.001 RW.01 KAB. CILACAP
11144 1100453326 ISWANTI 25/12/1974 TANGKISAN 01/01 KAB. KLATEN
11145 1100453327 TRI SUSANTO, SPD 28/03/1974 TANGKISAN 01/01 KAB. KLATEN
11146 1100453328 SRI MULYATI HARUN 19/03/1972 SENDANG RT.001/001 [Link] KAB. JEPARA
11147 1100453330 SRI SUBEKTI BATHIN 27/05/1974 KESAMBI RT 03 RW 06 KAB. KUDUS
11148 1100453331 KHURIN LAILISSAADAH RONDLI 6/3/1983 PANCUR 013/003 KAB. JEPARA
11149 1100453332 NUR AFANDI MUNTHALIB SARMAT 14/11/1982 PANCUR 013/003 KAB. JEPARA
11150 1100453333 NOOR ALI NGARIMUN 10/01/1972 KESAMBI RT 03 RW 06 KAB. KUDUS
11151 1100453334 DRA. ENDANG RITANA 20/5/1966 JL. TUNAS I NO. 3 RT. 1 RW. 10 KOTA PEKALONGAN
11152 1100453335 BAHRUN NURHUDA, SE 13/10/1968 KARANGGAWANG BARU X / 1 RT 3 RW 6 KOTA SEMARANG
11153 1100453336 MUHAMAD FARRAS DANI S 6/11/1994 JL. TUNAS I NO. 3 RT. 1 RW. 10 KOTA PEKALONGAN
11154 1100453338 HISYAM ABDURRAHMAN RISA 11/11/1996 JL. TUNAS I NO. 3 RT. 1 RW. 10 KOTA PEKALONGAN
11155 1100453339 SRI HAYATI 06/01/1964 [Link] RT.02/01 KARANGSARI KARANGANYARKAB. PEKALONGAN
11156 1100453340 RUSTINI, AMD 28/02/1973 KARANGGAWANG BARU X / 1 RT 3 RW 6 KOTA SEMARANG
11157 1100453342 MURDIANAH 16/01/1960 JL. MERPATI [Link] HITAM RT.06 RW.07 KOTA TEGAL
11158 1100453343 SUKIRMAN 09/07/1965 SEMBUNGAN RT. 01 RW. 04 KAB. KARANGANYAR
11159 1100453345 MEI DARISMAN 19/05/1958 JL. MERPATI [Link] HITAM RT.06 RW.07 KOTA TEGAL
11160 1100453346 SULARSO 14/6/1969 DUWET 03/08 KAB. KLATEN
11161 1100453349 SAKIYEM 31/12/1968 SEMBUNGAN RT. 01 RW. 04 KAB. KARANGANYAR
11162 1100453351 CATUR INDRIYANI 24/11/1972 DUWET 03/08 KAB. KLATEN
11163 1100453353 MUSLIH KHAKAM 28/08/1974 WONOYOSO GG. 3 RT.10/04 BUARAN KAB. PEKALONGAN
11164 1100453354 IVA FADLUN 27/04/1980 WONOYOSO GG.3 RT.10/04 BUARAN KAB. PEKALONGAN
11165 1100453356 NINA YULIAWATI 04/11/1981 SUTRAN 01/05 KAB. KLATEN
11166 1100453357 RUSMIYATI 24/06/1977 SIMBANG KULON RT.25/09 BUARAN KAB. PEKALONGAN
11167 1100453358 BUDI SETIAWAN 10/03/1977 KRAJAN REJO RT.02/01 JETAK KIDUL KAB. PEKALONGAN
11168 1100453359 WASINI 04/02/1960 SUTRAN 02/05 KAB. KLATEN
11169 1100453360 NANI RAHMAWATI 02/11/1979 JETAK KIDUL RT.05/01 WONOPRINGGO KAB. PEKALONGAN
11170 1100453361 BUDI JATMIKO 07/11/1974 GRIYA SATRIA BL.C-14 RT2/9 [Link] KAB. BANYUMAS
11171 1100453365 ERNY WINDYASTUTI 31/08/1975 GRIYA SATRIA BL. C-14 RT 2/9 BTRSOKA KAB. BANYUMAS
11172 1100453366 SUMARSONO 09/09/1973 SUTRAN 01/05 KAB. KLATEN
11173 1100453367 SRI RUSMIYATUN 03/09/1961 LOGANTUNG 09/04 KAB. KLATEN
11174 1100453371 SUHARTI IRIANTI DRA 19/01/1962 LOJIREJO RT 01/03 KAB. SRAGEN
11175 1100453372 TRI PRAMONO 03/03/1961 LOJIREJO RT 01/03 KAB. SRAGEN
11176 1100453374 SULASMININGSIH 03/06/1973 DS. BEKUTUK RT 03/02 KAB. BLORA
11177 1100453375 SLAMET WIYONO 06/12/1967 DS. BEKUTUK RT 03/02 KAB. BLORA
11178 1100453376 HARTONO 09/04/1960 LOGANTUNG 09/04 KAB. KLATEN
11179 1100453377 SURIPAH BASIR KENTO 15/09/1961 NGELING RT.006/002 KAB. JEPARA
11180 1100453378 CHALIMAH 14/01/1966 KUNDURAN RT 05/02 KAB. BLORA
11181 1100453379 BADRUS ZAMAN 9/4/1970 BATUR 05/03 KAB. KLATEN
11182 1100453380 HETY TRI MULYANI 19/10/1973 BAKARAN KULON 1/3 JUWANA KAB. PATI
11183 1100453381 MASROPAH 07/04/1979 PAYUNG RT.03 RW.01 KAB. PEMALANG
11184 1100453382 PRAYITNO 30/03/1959 GRIYA SRAGI INDAH RT.03/16 SRAGI KAB. PEKALONGAN
11185 1100453383 SUWARNO 06/12/1959 PEDURUNGAN KIDUL RT.04/05 KOTA SEMARANG
11186 1100453384 DARJO 13/02/1967 PAYUNG RT.03 RW.01 KAB. PEMALANG
11187 1100453385 HERU KASIH PUDJATMOKO, DRS 10/02/1960 BIBIS LUHUR RT 05 RW 022 KOTA SURAKARTA
11188 1100453386 SUPADI 06/03/1964 JL. PUSPOWARNO SELATAN II / 40 RT 3 RW 5 KOTA SEMARANG
11189 1100453387 KAMSIH 04/01/1961 PEDURUNGAN KIDUL RT.04/05 KOTA SEMARANG
11190 1100453388 UJIYATI, [Link] 02/12/1967 KENDAL SERUT RT.02/01 PANGKAH KAB. TEGAL
11191 1100453389 MUKHASONAH 15/7/1962 KEBONBATUR RT.01/13 KAB. DEMAK
11192 1100453390 SARIYATI SUKANDAR KROMO 18/12/1960 KEDUNGCINO 01/04 KAB. JEPARA
11193 1100453391 SRI MARYATI 28/05/1971 BIBIS LUHUR RT 05 RW 022 KOTA SURAKARTA
11194 1100453392 JATMIKO, DRS 16/1/1965 KENDAL SERUT RT.02/01 PANGKAH KAB. TEGAL
11195 1100453394 SUMIRAH 31/12/1962 JL. PUSPOWARNO SELATAN II / 40 RT 3 RW 5 KOTA SEMARANG
11196 1100453398 YUMAROH 20/04/1966 GRIYA SRAGI INDAH RT.03/16 SRAGI KAB. PEKALONGAN
11197 1100453399 ASA GUNAWAN 19/5/1982 JL. PUSPOWARNO SELATAN II/40 RT.03/05 KOTA SEMARANG
11198 1100453400 ASMAUL ISMAH 12/10/1969 MIJEN RT.03/06 KAB. DEMAK
11199 1100453401 ZUMAROH SUGINI MUAMAT 05/07/1965 TUBANAN 04/07 KEC. KEMBANG KAB. JEPARA
11200 1100453402 ARI WIBOWO 12/01/1987 JL. PUSPOWARNO SELATAN II / 40 RT 3 RW 5 KOTA SEMARANG
11201 1100453403 SWABAWA ARIF WICAKSONO 13/03/1977 WANAMUKTI C 3 NO. 16 RT 6 RW 4 KOTA SEMARANG
11202 1100453404 RETNO DEWI ESTIWULAN, SH 07/08/1984 JL. PUSPOWARNO SELATAN II/40 RT.03/05 KOTA SEMARANG
11203 1100453405 SUNDRATI 30/06/1962 TAMBAKBOYO RT.04 RW.01 KAB. BATANG
11204 1100453406 RINA AFRIANI 30/04/1981 WANAMUKTI C-3 NO.16 RT.06/04 KOTA SEMARANG
11205 1100453409 INDRA KURNIAWAN 20/09/1979 KARANGGAWANG BARU RAYA 139 RT.09/06 KOTA SEMARANG
11206 1100453411 CARMADI 24/02/1961 TAMBAKBOYO RT.04 RW.01 KAB. BATANG
11207 1100453412 ASSA NUGROHO 19/05/1982 JL. PUSPOWARNO SELATAN II / 40 RT 3 RW 5 KOTA SEMARANG
11208 1100453413 SUMINAH 21/03/1968 KALITENGAH RT.01/01 KAB. DEMAK
11209 1100453415 SITI MARFU'AH 09/09/1977 KARANGGAWANG BARU RAYA 139 RT.09/06 KOTA SEMARANG
11210 1100453418 RAKIMAN 08/07/1964 KALITENGAH RT.01/01 KAB. DEMAK
11211 1100453419 HAROMEN 1/1/1975 MENUR RT.02/04 KAB. DEMAK
11212 1100453421 ZAHRO'IL BATUL 26/11/1982 MENUR RT.02/04 KAB. DEMAK
11213 1100453422 RINI UTAMI [Link] 13/09/1963 JL. DEMAK 2 NO.24 RT.06 RW.11 KOTA TEGAL
11214 1100453424 LAILA NUR AZIZAH 27/09/1981 PERUM WONOSALAM ASRI RT.01/07 KAB. DEMAK
11215 1100453425 MUNDHOFAR 01/03/1979 PERUM WONOSALAM ASRI RT.01/07 KAB. DEMAK
11216 1100453428 SUTINI 21/09/1957 KARANGSARI RT.03/04 KAB. DEMAK
11217 1100453431 SRI WAHYUNI PARYANTO 08/11/1980 KALIPUCANG WETAN 05/01 KAB. JEPARA
11218 1100453432 SRI WIDIYANTI SUDIMAN 07/04/1973 PULODARAT RT.014/002 KAB. JEPARA
11219 1100453434 SRI MURYANI 27/01/1973 GADING SANTREN 01/09 KAB. KLATEN
11220 1100453435 SUHARDI SUPARDI SARPAN 17/01/1973 KALIPUCANG WETAN 05/01 KAB. JEPARA
11221 1100453436 KOSIM 01/07/1958 [Link] INDAH RT.01 RW.09 KAB. PEMALANG
11222 1100453437 MUH. SYAHRUDDIN NUR 14/1/1964 GADING SANTREN 01/09 KAB. KLATEN
11223 1100453438 SUMIAH SULEMAN WARSIH 10/10/1957 PECANGAAN WETAN 03/05 KAB. JEPARA
11224 1100453439 NURYATI 01/07/1971 JL. NUSA INDAH RT. 01 RW. 09 KAB. PEMALANG
11225 1100453440 SLAMET WAKIJAN WAGINI 2/9/1971 WOTAN 01/05 SUKOLILO KAB. PATI
11226 1100453441 MUDAKIR YUSRI SUMOREJO 22/10/1971 SALE RT 002 RW 005 SALE KAB. REMBANG
11227 1100453442 SUMIYATI SUWARDI SAWIJAH 07/06/1979 WOTAN 01/05 SUKOLILO KAB. PATI
11228 1100453443 BAMBANG KRISNANTO SOEYOTO 25/04/1963 KUTOHARJO 01/01 PATI KAB. PATI
11229 1100453445 SITI NAFIAH MUSLIH 28/08/1972 KUTOHARJO 01/01 PATI KAB. PATI
11230 1100453447 PUJIYONO 12/1/1967 KARANGSARI RT. 2/1 KAB. BANYUMAS
11231 1100453448 DARKONAH 25/10/1974 PENDOWO RT. 02 RW. 04 KAB. PEMALANG
11232 1100453450 RISNOTO 23/06/1973 PENDOWO RT.02 RW.04 KAB. PEMALANG
11233 1100453451 SUJADI JAMASRI WASIRAH 07/07/1972 WOTAN 03/08 SUKOLILO KAB. PATI
11234 1100453452 TITI LATIFAH 01/07/1971 KARANGSARI RT. 2/1 KAB. BANYUMAS
11235 1100453453 KUMARIATIN SUDARLAN SRINI 22/07/1981 WOTAN 03/08 SUKOLILO KAB. PATI
11236 1100453455 NUR HIDAYATI 07/05/1968 BATUR 03/01 KAB. KLATEN
11237 1100453458 NANING SUSANTI SUPADI 22/01/1982 TRIGUNO 09/02 PUCAKWANGI KAB. PATI
11238 1100453460 TRIYANAH 28/03/1979 PERUM SERASI RT.05/12 KUPANG SERASI KAB. SEMARANG
11239 1100453462 MOH ALMAHDI 07/07/1972 PERUM SERASI RT.05/12 KUPANG SERASI KAB. SEMARANG
11240 1100453464 ROCHYATI RAMELAN MARTOPAWIRO 17/03/1962 BANIORO RT.04/02 KAB. KEBUMEN
11241 1100453465 SITI RUFIAH RAMELAN MARTOPAWIRO 28/1/1971 BANIORO RT.04/02 KAB. KEBUMEN
11242 1100453468 ROHMAH SUGIYARTI 25/11/1965 KLEDUNGKARANGDALEM RT. 04/03 BANYUURIP KAB. PURWOREJO
11243 1100453469 ABDUL SYUKUR 19/06/1969 JL. MADURA RT. 3 RW. 8 KOTA PEKALONGAN
11244 1100453475 WARMUJI 3/4/1960 JL . MADURA NO. 1 RT. 3 RW. 8 KOTA PEKALONGAN
11245 1100453476 ERY HIMAWAN SUNU CAHYADI 26/10/1977 TODANAN RT 01/01 KAB. BLORA
11246 1100453478 SRI HIDAYATI, DRA 07/08/1959 KARANGREJO SELATAN RT.02/03 KOTA SEMARANG
11247 1100453479 SUHONO 8/4/1964 BATUR 01/01 KAB. KLATEN
11248 1100453480 NUNUK INAYATUL ULYA 17/12/1978 TODANAN RT 01/01 KAB. BLORA
11249 1100453481 IR. AGUS SANTOSO, MP 08/04/1965 KLEDUNGKARANGDALEM RT 04/03 KAB. PURWOREJO
11250 1100453483 SUWARNI 09/05/1963 DSN I KALIPRAU RT. 01 RW. 02 KAB. PEMALANG
11251 1100453485 SUTONO 10/02/1960 DSN.I - KALIPRAU RT.01 RW.02 KAB. PEMALANG
11252 1100453486 HARTATI 4/10/1960 PURBALINGGA KIDUL RT 02 RW 04 KAB. PURBALINGGA
11253 1100453487 SUPRIYADI KASMIJAN TUMINAH 16/11/1966 KUTOHARJO 02/10 PATI KAB. PATI
11254 1100453489 DARIYO SOLEH 07/07/1970 PEPE RT 02/01 KAB. PURWOREJO
11255 1100453490 MU'AYANAH TAFRICHAN SULIPAH 2/8/1965 KUTOHARJO 02/10 PATI KAB. PATI
11256 1100453492 SITI RUFIAH AHMAD ROSYAD 28/11/1962 ALASDOWO 4/3 DUKUHSETI KAB. PATI
11257 1100453493 MINTARSIH, SPD 04/02/1973 PEPE RT 02/01 KAB. PURWOREJO
11258 1100453499 MARDI HUTAMA TRI N.,SPD, MM 29/02/1972 KEBONARUM 01/10 KAB. KLATEN
11259 1100453501 BASUKI TRI WARDISIWI, [Link] 09/02/1959 BANYUAGUNG RT 06 RW 02 KOTA SURAKARTA
NO NO. PORSI NAMA TANGGAL LAHIR ALAMAT KAB/KOTA KETERANGAN
11260 1100453502 SETIYANTI 13/07/1969 JL. SARYAREJA NO. 18 RT. 04 RW. 02 KAB. CILACAP
11261 1100453503 CHUSNUL CHOTIMAH ANTHYCAMURTY 20/05/1993 PERUMAHAN ARGOPENI RT. 07/05 KUTOARJO KAB. PURWOREJO
11262 1100453504 SARDI 02/04/1971 MAJASEM RT.10/RW.01 KAB. KENDAL
11263 1100453505 SUBAGIYO 07/09/1960 BRUNOREJO RT. 01/09 BRUNO KAB. PURWOREJO
11264 1100453506 SUJARMI 02/04/1965 CARIKAN RT. 02/05 KAB. SUKOHARJO
11265 1100453507 KISWONO 14/05/1963 PASIR RT 05/06 KAB. DEMAK
11266 1100453508 RYNALDY SHULTON GHIFFARI TRISNO MURTI 23/05/2000 PERUMAHAN ARGOPENI RT. 07/05 KUTOARJO KAB. PURWOREJO
11267 1100453509 KRISMIYATI 13/09/1973 KENONARUM 01/10 KAB. KLATEN
11268 1100453510 MASLAKHAH 21/04/1974 PASIR RT 05/06 KAB. DEMAK
11269 1100453511 SITI MUNAWAROH 14/01/1975 JL. PISANG RT 04 RW 12 KAB. BOYOLALI
11270 1100453512 TRIO NUR PRIAWAN 17/09/1993 WONOWOSO RT 01/06 KAB. DEMAK
11271 1100453513 MARFUAH 01/08/1970 CITRA SRAGO INDAH 05/11 KAB. KLATEN
11272 1100453514 ANINDA MEIREXIA ANGELITA 03/05/2000 JL. PISANG RT 04 RW 12 KAB. BOYOLALI
11273 1100453515 SHOLIKIN 04/06/1960 WONOWOSO RT 01/06 KAB. DEMAK
11274 1100453516 SUROSO 18/06/1963 CITRA SRAGO INDAH 05/11 KAB. KLATEN
11275 1100453519 AHMADI KASMANI KASMO 16/03/1961 PELEMKEREP RT.001/004 KAB. JEPARA
11276 1100453520 SITI KHASANAH 15/06/1958 KEDU GANG II, RT.03/RW.02 KAB. TEMANGGUNG
11277 1100453521 INDARTI 23/04/1971 KUTAWIS RT 05 RW 01 KAB. PURBALINGGA
11278 1100453522 HARINI SUSIANINGRUM 27/04/1970 JL. SRI REJEKI DALAM 25 RT 6 RW 3 KOTA SEMARANG
11279 1100453524 WAHYU WIDODO 08/04/1969 KUTAWIS RT 05 RW 01 KAB. PURBALINGGA
11280 1100453525 AGUS SUBAGIO 13/08/1971 JL. SRI REJEKI DALAM 25 RT.06/03 KOTA SEMARANG
11281 1100453526 UZLIYAH MUH JAIZ 19/03/1969 PELEMKEREP 01/04 KAB. JEPARA
11282 1100453528 MASKANAH 09/08/1972 JL. SENDANG UTARA III NO. 22 RT 2 RW 7 KOTA SEMARANG
11283 1100453529 HAFIDZI, DRS 2/7/1964 JL. SENDANG UTARA III NO.22 RT.02/07 KOTA SEMARANG
11284 1100453530 SUMARI UNTUNG SURADI 13/10/1958 BANDENGAN 20/06 KAB. JEPARA
11285 1100453531 MUHTAROM 31/12/1962 PUCUNG RT 3 RW 1 KOTA SEMARANG
11286 1100453533 ERNI MURNIASIH 30/04/1983 JATISARI RT 2 RW 3 KOTA SEMARANG
11287 1100453535 NUR KHOTIM 05/09/1979 JATISARI RT 2 RW 3 KOTA SEMARANG
11288 1100453537 MUDZAKIR 15/6/1969 PENGGARON LOR RT.04/05 KOTA SEMARANG
11289 1100453538 ABDUL ROHMAN WASIS 13/10/1958 BANDENGAN 20/06 KAB. JEPARA
11290 1100453539 SUNDARI 01/01/1974 PENGGARON LOR RT 4 RW 5 KOTA SEMARANG
11291 1100453540 TRI PURYANTO 09/06/1963 DUSUN GENTAN LOR RT.08/RW.03 KAB. KENDAL
11292 1100453543 GIYARTINI 29/04/1966 DUSUN GENTAN LOR RT.08/RW.03 KAB. KENDAL
11293 1100453544 ROKHMAN 05/03/1974 SIPEDANG RT 006 RW 002 KAB. BANJARNEGARA
11294 1100453546 FAUZI,[Link] 20/05/1975 BANGETAYU WETAN RT.02/01 KOTA SEMARANG
11295 1100453548 MARNI 07/01/1960 JUWORO 03/01 KAB. GROBOGAN
11296 1100453550 JOKO PITOYO 18/08/1969 DESA BEBENGAN RT.02 RW.06 KAB. KENDAL
11297 1100453552 AMALIA MEIDYAWATI 01/05/1979 BANGETAYU WETAN RT.02/01 KOTA SEMARANG
11298 1100453554 SUTINI 2/6/1971 DS. BOTORECO RT 01/02 KAB. BLORA
11299 1100453556 SISWO MARTONO 14/12/1958 LEREP RT 04 RW 01 KAB. BOYOLALI
11300 1100453558 AHMAD SYAEROZI 5/10/1970 KEDATON 02/04 KAB. GROBOGAN
11301 1100453561 PRIYATIN 20/12/1966 JL. KH. NAHRAWI 2 RT. 07/03 KOTA TEGAL
11302 1100453562 KAMINI 30/04/1968 DUSUN KEDUNGBENDA RT.03 RW.01 KAB. CILACAP
11303 1100453563 FATIMAH 17/8/1972 PENGABEAN RT.01/02 LOSARI KAB. BREBES
11304 1100453565 MUNARSO 29/11/1967 KH. NAHRAWI 2 RT. 07/03 KOTA TEGAL
11305 1100453567 WIWI SUSIYATMI 31/10/1964 KARANGANYAR RT.05/02 DUKUHTURI KAB. TEGAL
11306 1100453569 SIHANA,SPD 12/05/1958 CEPOKO 03/06 KAB. KLATEN
11307 1100453571 SUGIHARTO SUMADI SURO IJAN 12/08/1959 MLATI KIDUL RT 01 RW 01 KAB. KUDUS
11308 1100453572 SRI MULYANI 20/4/1960 GOTAKAN RT 02 RW 04 KAB. BOYOLALI
11309 1100453573 RODLIYAH 14/11/1973 KUWAYUHAN TIMUR RT.02/RW.03 KAB. KENDAL
11310 1100453579 ROSMAL ANWAR, [Link] 17/07/1960 KARANGANYAR RT.05/02 DUKUHTURI KAB. TEGAL
11311 1100453581 SUGIYANTO TARSONO NGOSONO NGARIPAN 02/07/1962 PLADEN RT 03 RW 02 KAB. KUDUS
11312 1100453583 SULISTYANI PRAPTO WIYONO 10/04/1962 MLTI KIDUL RT 01 RW 01 KAB. KUDUS
11313 1100453584 FERI SUSILO 08/04/1988 PERUM KOTA SERANG BARU BLOK E 56 NO 29 KAB. SRAGEN
11314 1100453585 UFAFI DATUROHMAH, SAG 02/06/1974 CONDONGSARI RT 06/03 KAB. PURWOREJO
11315 1100453586 SRI WAHYUNINGSIH 23/07/1973 [Link] KALIERANG RT.05/09 BUMIAYU KAB. BREBES
11316 1100453588 CHUSNUL KHOTIMAH 24/03/1981 SAWIT RT 06 KAB. SRAGEN
11317 1100453590 SUPRIYANTO 26/7/1972 SAWIT RT 06 KAB. SRAGEN
11318 1100453591 SAKINAH 31/12/1960 SEBOROPASAR RT. 01/01 NGOMBOL KAB. PURWOREJO
11319 1100453592 KAWIYATUN 04/02/1958 CEPOKO 03/06 KAB. KLATEN
11320 1100453594 WARDONO 14/08/1969 JL. KATAMSO 08/03 KAB. GROBOGAN
11321 1100453595 ABDUL FAKIH, [Link] 5/1/1978 SEBOROPASAR RT 01/01 KAB. PURWOREJO
11322 1100453597 EKA SRI HARIATI 13/11/1972 JL. KATAMSO 08/03 KAB. GROBOGAN
11323 1100453598 IDA YANI 23/06/1990 KARANGTENGAH RT 001 RW 004 KAB. BANJARNEGARA
11324 1100453599 CATUR PANGESTUTI 06/10/1968 JIWO KULON 16/06 KAB. KLATEN
11325 1100453601 MUHAMMAD NASIKHUL ULUM 03/01/1986 KARANGTENGAH RT 001/004 KAB. BANJARNEGARA
11326 1100453604 EKA SETIAWATI, SSI. APT 11/04/1975 SEBOROPASAR RT. 01/01 NGOMBOL KAB. PURWOREJO
11327 1100453606 SUPARDI 10/05/1965 JIWOKULON 16/06 KAB. KLATEN
11328 1100453611 FATCHUR HADIYANTO 23/07/1975 KEMBARAN RT 01 RW 02 KAB. KEBUMEN
11329 1100453615 DIAH ASTUTININGRUM SUTARYO MULYONO 15/09/1975 MANGLI RT.01/02 KAB. KEBUMEN
11330 1100453617 SAWITRI 20/09/1968 JL. NUSA INDAH NO.124 RT.03 RW.07 KAB. CILACAP
11331 1100453619 KHANIF ASHARI MUHTAR AMIN 16/04/1977 DS. MANGLI RT 0-1/02 KUWARASAN KAB. KEBUMEN
11332 1100453620 SUJI PRAYITNO SLAMET 12/04/1967 PORANG PARING 2/3 SUKOLILO KAB. PATI
11333 1100453625 SANGIDIN 22/04/1962 JL. NUSA INDAH NO. 124 RT.03 RW.07 KAB. CILACAP
11334 1100453627 SRI LESTARI 18/01/1958 BANDUNG KIDUL RT. 02/01 BAYAN KAB. PURWOREJO
11335 1100453630 SUASJONO 15/05/1963 ARGASOKA RT 002 RW 008 KAB. BANJARNEGARA
11336 1100453632 NUR WACHID SUPRIYADI 23/04/1979 JAMBUKULON 02/07 KAB. KLATEN
11337 1100453633 HARTATI 5/11/1966 JL. CENDRAWASIH GG.8 NO.10 RT.05 RW.04 KOTA TEGAL
11338 1100453634 SRI HIDAYATI 17/11/1972 ARGASOKA RT 002 RW 008 KAB. BANJARNEGARA
11339 1100453635 NELLY ROSEDIANA [Link] 20/10/1972 JL. WARINGIN NO.34 RT.02 RW.04 KOTA TEGAL
11340 1100453636 SUPINAH SUKRI MADSAYUTI 16/7/1982 DS. SELOKERTO RT 04/03 SEMPOR KAB. KEBUMEN
11341 1100453637 SITI RAHAYUNINGSIH KARDI 24/10/1964 WEDARIJAKSA 1/5 WEDARIJAKSA KAB. PATI
11342 1100453639 NIKEN RACHMAWATI 31/05/1978 GIRIMULYO BLOK A GANG 10 NO.2 03/06 KAB. KLATEN
11343 1100453640 SUNARYO 05/06/1972 NGLAWU 01/05 KAB. GROBOGAN
11344 1100453642 ANY PURWANI 27/3/1977 NGLAWU 01/05 KAB. GROBOGAN
11345 1100453643 AMRI CHUSNIYATI, SH. 10/10/1969 JL. TRAPESIUM 3 / 2 RT.5 RW. 13 LIMAS IN KOTA PEKALONGAN
11346 1100453645 MARTOYO 02/12/1959 GRECOL RT 03 RW 04 KAB. PURBALINGGA
11347 1100453647 TUNIATUN 17/07/1976 PENGALUSAN RT 07 RW 02 KAB. PURBALINGGA
11348 1100453648 SUSMIYATI 31/05/1961 GRECOL RT 03 RW 04 KAB. PURBALINGGA
11349 1100453649 CATUR WIDIYANTO 13/04/1971 KARANGKLESEM RT 11 RW 05 KAB. PURBALINGGA
11350 1100453651 WOTO SUKENDAR 02/04/1959 KARANGLEWAS LOR RT.03 RW.02 KAB. BANYUMAS
11351 1100453652 WAGIMAH RINI 05/06/1958 JATIJAJAR RT.04/01 BERGAS KAB. SEMARANG
11352 1100453653 MUSLICHAH ZAHROH 27/01/1960 KARANGLEWAS LOR RT 03 RW 02 KAB. BANYUMAS
11353 1100453654 CHAMIDAH 25/1/1962 NGEBONG, RT.02/RW.08 KAB. TEMANGGUNG
11354 1100453656 TSABAT MAJIDI 26/12/1992 GILINGAN, RT.03/RW.06 KAB. TEMANGGUNG
11355 1100453657 NUR ALIYAH 01/01/1973 KARANGKLESEM RT 11 RW 05 KAB. PURBALINGGA
11356 1100453658 MUHAMAD MUSHODIQ HAKAM 09/09/1994 GILINGAN, RT.03/RW.06 KAB. TEMANGGUNG
11357 1100453659 SITI RUNTILAH DARSUKI 16/08/1962 KAJAR 02/01 TRANGKIL KAB. PATI
11358 1100453661 HARIYATUN 21/07/1965 KRAJAN, RT.03/RW.10 KAB. TEMANGGUNG
11359 1100453662 PAIJAN 24/05/1961 KARANGANYAR RT. 03/01 PITURUH KAB. PURWOREJO
11360 1100453663 SUWITNYO 23/9/1970 PENGALUSAN RT 07 RW 02 KAB. PURBALINGGA
11361 1100453666 RANTI 11/11/1961 KARANGANYAR RT. 03/01 PITURUH KAB. PURWOREJO
11362 1100453667 ANDHI SYAMSUL 26/06/1975 [Link] RT.10 RW.01 KAB. PEMALANG
11363 1100453669 HARTUTIK 21/05/1973 JL. KEBON INDAH RAYA NO.19 RT.01/22 KAB. DEMAK
11364 1100453672 SUHARDIANINGSIH 28/08/1958 TONJONG RT.08/02 N0.24 TONJONG KAB. BREBES
11365 1100453677 RAHMAT SUSANTO 11/07/1967 PANGEMPON LOR RT 04 RW 05 KAB. WONOSOBO
11366 1100453678 KOMSATUN 12/02/1964 GEMUHBLANTEN RT.02/RW.02 KAB. KENDAL
11367 1100453679 SUGIARTI 05/04/1971 PANGEMPON LOR RT 04 RW 05 KAB. WONOSOBO
11368 1100453681 SUWANDI 12/09/1962 GEMUHBLANTEN RT.02/RW.02 KAB. KENDAL
11369 1100453682 NUR AZIZAH, SE 11/02/1964 BTN TONGGARA RT.08/03 KAB. TEGAL
11370 1100453684 SAROAH 3/9/1962 JANEGARA RT.04/02 JATIBARANG KAB. BREBES
11371 1100453685 SRI PUDJIWATI 15/10/1957 JL. ANGSANA NO.48 RT.006 RW.04 KAB. CILACAP
11372 1100453687 SITI CHAMDIYATI 31/12/1957 SOKARAJA KULON RT 01 RW 01 KAB. BANYUMAS
11373 1100453688 NURHAYATI DWI SULISTYOWATI,DRA 20/05/1967 TONJONG RT.08/02 TONJONG KAB. BREBES
11374 1100453690 SAUFAN KHOLIK 14/06/1961 BTN TONGGARA RT.08/03 KAB. TEGAL
11375 1100453693 PATMI SUPARMO RASIPIN 8/6/1959 PUNDENREJO 3/3 TAYU KAB. PATI
11376 1100453695 SANTO DULROHMAN SAWIARJA 18/11/1976 SELOKERTO RT.04/03 KAB. KEBUMEN
11377 1100453696 WARSITO 1/7/1961 TAMBAKSOGRA RT 3 RW 5 KAB. BANYUMAS
11378 1100453700 INDARTI 14/10/1975 TREMBULREJO RT 02/04 KAB. BLORA
11379 1100453701 SUTARNI 21/3/1963 UJUNG NEGORO RT.03 RW.01 KAB. BATANG
11380 1100453702 SITI KHOMSIYAH 14/10/1964 TAMBAKSOGRA RT 003 RW 005 KAB. BANYUMAS
11381 1100453703 SOLIKHATUN 31/12/1961 DUSUN SUMINGKIR RT.06 RW.05 KAB. CILACAP
11382 1100453706 SUWARNI 15/04/1958 KUYANG RT 04 KAB. SRAGEN
11383 1100453707 BAMBANG SUPRIYANTO 28/09/1962 TREMBULREJO RT 02/04 KAB. BLORA
11384 1100453710 TAVIP INDRAYANA 12/01/1965 DK. SUKOREJO RT 01/03 KAB. BLORA
11385 1100453711 AGUS SUPRIYONO 02/08/1968 KEBUN KELAPA RT 03/15 KAB. BLORA
11386 1100453714 SARWANON 25/06/1969 PERUM PISMA GRIYA PERMAI RT.09/17 KAB. PEKALONGAN
11387 1100453716 SAKDULLAH 7/11/1960 GG. MATARAM LANGENHARJO RT.03/RW.01 KAB. KENDAL
NO NO. PORSI NAMA TANGGAL LAHIR ALAMAT KAB/KOTA KETERANGAN
11388 1100453717 DWI ARTI KHASANAH 28/10/1961 GEGER 03/01 KAB. MAGELANG
11389 1100453720 ATIEK MULYANTI 24/08/1962 TEMBALANG PESONA ASRI F-1A RT.02/04 KOTA SEMARANG
11390 1100453721 SOF KHASANAH 18/04/1963 DK. SUKOREJO RT 01/03 KAB. BLORA
11391 1100453724 NIDA FAUZIYYAH SUPRIATNA 24/1/1988 TEMBALANG PESONA ASRI F-1A RT.02/04 KOTA SEMARANG
11392 1100453727 ARIFIN 30/12/1972 KARANGINGAS RT 3 RW 16 KOTA SEMARANG
11393 1100453728 PARTINI SANISMO MADASLAM 15/06/1960 SELOKERTO RT.04/03 KAB. KEBUMEN
11394 1100453729 WIWIK PURWANINGSIH 31/03/1974 KARANGINGAS RT 3 RW 16 KOTA SEMARANG
11395 1100453730 SUDIYONO BSC 01/07/1958 GEGER 03/01 KAB. MAGELANG
11396 1100453731 SITI MARYATI AMAD ANGSAR 01/07/1957 DS. WIROGATEN RT 05/01 MIRIT KAB. KEBUMEN
11397 1100453732 FAIZIN 19/07/1961 JL. CANDRADIMUKA RT.007 RW.05 KAB. CILACAP
11398 1100453733 SURYANI GUNTARLINAH 28/06/1962 JL. CANDRADIMUKA RT. 07 RW. 05 KAB. CILACAP
11399 1100453735 REBUT ANGSAR REJOMAMAD 25/6/1959 DS. WIROGATEN RT 03/01 MIRIT KAB. KEBUMEN
11400 1100453736 SUHARYONO 16/10/1959 DSN. NUSAWUNGU RT. 01 RW. 01 KAB. CILACAP
11401 1100453738 JASIRAH MUSTANGIN MIKROJI 10/11/1963 DS. WIROGATEN RT 03/01 MIRIT KAB. KEBUMEN
11402 1100453741 JOKO BUDIYONO 09/01/1970 DESA BOJA RT. 04 RW. 04 KAB. KENDAL
11403 1100453743 HARYADI 01/03/1960 DUSUN BADAAN RT.04/RW.06 KAB. KENDAL
11404 1100453744 PARTINI 10/06/1964 GG. MATARAM LANGENHARJO RT.03/RW.01 KAB. KENDAL
11405 1100453745 RUKISTI MARYANI 06/04/1963 DUSUN BADAAN RT.04/RW.06 KAB. KENDAL
11406 1100453749 WIWIK RESWATI 23/01/1972 KEBUN KELAPA RT 03/15 KAB. BLORA
11407 1100453752 NURYANAH 17/02/1959 KADIPATEN RT 01 RW 08 KOTA SURAKARTA
11408 1100453753 DARTATIK 23/03/1968 ARGOMULYO MUKTI NO. 275 RT.03/10 KOTA SEMARANG
11409 1100453755 NUR ROHMAH 25/04/1968 KADIPATEN RT.01 RW.08 KOTA SURAKARTA
11410 1100453756 TIARA DWI KAROMAH 27/05/2002 KARANGWETAN 3/3 PUCAKWANGI KAB. PATI
11411 1100453760 RODINI 01/05/1965 TINGGARJAYA RT 02 RW 05 KAB. BANYUMAS
11412 1100453761 SUPIYANI SARDI SUMINI 23/03/1958 KALIKALONG 3/4 TAYU KAB. PATI
11413 1100453764 MARDIYAH SUKAHAR KASIRAH 01/02/1970 SOKOPULUHAN 3/3 PUCAKWANGI KAB. PATI
11414 1100453766 SUHARDIYONO 19/2/1965 TENGENG KULON RT.03/01 SIWALAN KAB. PEKALONGAN
11415 1100453772 HALIMAH MUDZAKIR MA'RUF 22/12/1959 JOJO RT 02 RW 02 KAB. KUDUS
11416 1100453773 ENNY SOESILAWATY 17/10/1971 TENGENG KULON RT.03/01 SIWALAN KAB. PEKALONGAN
11417 1100453777 DRS. SUKARNO 01/05/1958 DS. KALANGREJO RT 01/03 KAB. BLORA
11418 1100453781 ARIEF MARYONO KHAERUDIN 08/07/1972 KARANGREJA RT 02 RW 02 KAB. PURBALINGGA
11419 1100453782 MUSTAMIROH 05/08/1973 MARIBAYA RT.04/01 KRAMAT KAB. TEGAL
11420 1100453783 ISMAIL ALHAMIDY 03/04/1967 JL. GATOTKACA 2 NO 9 RT 08 RW 04 KAB. PURBALINGGA
11421 1100453785 SULASTRI 03/01/1981 JL. GATOTKACA 2 NO 9 RT 08 RW 04 KAB. PURBALINGGA
11422 1100453786 MUKHAMAD KHAMIM KASBI 09/12/1972 PAGEDANGAN RT.02/02 KAB. KEBUMEN
11423 1100453787 KARYATI LEGISAN KARSIBAN 28/03/1968 SIDIGEDE 14/03 KAB. JEPARA
11424 1100453788 PARIKHATUN 02/02/1979 MOKAHA RT.02/02 JATINEGARA KAB. TEGAL
11425 1100453789 SALIMAH 15/08/1965 TINGGARJAYA RT 02 RW 05 KAB. BANYUMAS
11426 1100453792 LUKMANUDIN 07/06/1968 DUSUN WARUREJA RT.05 RW.03 KAB. CILACAP
11427 1100453793 SABAR SUTAHAR SUKENI 10/1/1967 SIDIGEDE 14/03 KAB. JEPARA
11428 1100453795 SARMAN 31/12/1960 BAKAH RT 01/05 KAB. BLORA
11429 1100453796 SUTIYAH 9/3/1965 DUSUN WARUREJA RT.05 RW.03 KAB. CILACAP
11430 1100453797 SUTARSIH 31/12/1963 BAKAH RT 01/05 KAB. BLORA
11431 1100453798 ARNI KUSMIYANTINI 11/11/1964 SEMERU BARAT RT.01/05 KOTA SEMARANG
11432 1100453799 RIDWAN CHOSY, SH 05/06/1970 MOKAHA RT.02/02 JATINEGARA KAB. TEGAL
11433 1100453800 FARIDA KHUSNA 05/10/1979 JAMBUKULON 02/07 KAB. KLATEN
11434 1100453802 TUKIRIN 7/2/1961 SEMERU BARAT RT.01/05 KOTA SEMARANG
11435 1100453807 SRI LASTARI 23/12/1967 TEGALREJO 02/01 KAB. GROBOGAN
11436 1100453811 MAR'ATUN 05/08/1971 JATIROKEH RT.03/03 SONGGOM KAB. BREBES
11437 1100453812 QOMARIYAH WAJI SAKIYO 17/01/1968 PADURENAN RT 02 RW 03 KAB. KUDUS
11438 1100453814 TURAH 04/09/1958 DUKUH PLANJEN RT. 01 RW. 07 KAB. KENDAL
11439 1100453815 KUSNO WARDOYO 17/1/1971 JATIROKEH RT.03/03 SONGGOM KAB. BREBES
11440 1100453816 SITI NGATIFAH 12/10/1967 JATISABA NO. 117 RT 05 RW 02 KAB. PURBALINGGA
11441 1100453817 MUHAMAD NASIKHI 14/06/1971 KERTASINDUYASA RT.05/02 N0.3 JATIBARANG KAB. BREBES
11442 1100453819 SURONO 17/04/1968 DUSUN MERBUH RT.03 RW.02 KAB. KENDAL
11443 1100453820 MOH. DJASNO SARIMIN 07/01/1958 TANJUNGKARANG RT 02 RW 04 KAB. KUDUS
11444 1100453821 TRISNANI 25/08/1969 PERUM LALUNG PERMAI RT. 01 RW. 15 KAB. KARANGANYAR
11445 1100453822 SITI KHALIMAH 05/05/1981 KERTASINDUYASA RT.05/02 N0.3 JATIBARANG KAB. BREBES
11446 1100453823 [Link] 27/8/1967 PETARUKAN RT.01 RW.05 KAB. PEMALANG
11447 1100453827 SUGINEM 30/11/1957 ROWOSARI RT.06 RW.03 KAB. PEMALANG
11448 1100453828 ALI MANSUR 01/07/1976 DERSONO RT 03 RW 01 KAB. BOYOLALI
11449 1100453829 SAJIMAN 03/04/1968 JATISABA NO. 117 RT 05 RW 02 KAB. PURBALINGGA
11450 1100453830 SITI AMIATUN 5/8/1976 PETARUKAN RT.01 RW.05 KAB. PEMALANG
11451 1100453831 SITI FATIMAH 13/11/1957 JOMPO KULON RT 3 RW 01 KAB. BANYUMAS
11452 1100453833 MASFIROH DJAMI BASIRUN 29/11/1969 TANJUNGKARANG RT 02 RW 04 KAB. KUDUS
11453 1100453836 SANTOSO JOKO RAHARJO 02/10/1963 JL. DR. WAHIDIN 2 RT.03 RT.01 KOTA SURAKARTA
11454 1100453837 SLAMET RIYANTO 05/10/1966 JL. KANTOR POS RT. 03 RW. 02 KAB. CILACAP
11455 1100453838 RASINI MITRO JUREMI 08/03/1968 SADANG RT 03 RW 03 KAB. KUDUS
11456 1100453840 AGOES SULIESTIJONO SYAMIUN KOESHERI 09/08/1958 WINONG 9/2 PATI KAB. PATI
11457 1100453844 SURADI SANI SANIPAN 07/05/1960 SADANG RT 03 RW 03 KAB. KUDUS
11458 1100453846 PAWIT AMALIN 18/03/1972 WATUDUWUR RT. 01/03 BRUNO KAB. PURWOREJO
11459 1100453850 TUSINAH NASRUDIN MADGARTO 01/03/1960 KALIREJO RT.01/07 KAB. KEBUMEN
11460 1100453853 SUNARTO, DRS 08/10/1965 [Link] RAYA NO.23 RT.03 / 12 AMB. ASRI KAB. SEMARANG
11461 1100453854 MISTIYAH MASDUKAN ROHMAT 16/03/1964 HONGGOSOCO RT 07 RW 02 KAB. KUDUS
11462 1100453855 SUPRAPTI 01/05/1960 GUMAYUN RT.11/04 DUKUHWARU KAB. TEGAL
11463 1100453856 SAMBUDI 26/06/1962 PLOSOREJO 05/02 KAB. GROBOGAN
11464 1100453857 AHMAD AMIRUDIN SITTO PERDANA 31/03/1993 AMB. ASRI JL. INTAN RAYA NO.23 RT 003 / RW 012KAB. SEMARANG
11465 1100453858 ANDIRIN RUSWADI SUMO ASTRO 03/11/1971 TEMULUS RT 02 RW 04 KAB. KUDUS
11466 1100453859 FADJRIYAH SITI MARYAM 08/06/1968 JL. DR. WAHIDIN 2 RT 03 RW 01 KOTA SURAKARTA
11467 1100453860 SRI UTAMI RUSLAN 07/07/1978 TEMULUS RT 01 RW 04 KAB. KUDUS
11468 1100453863 MULYAS 01/02/1970 DAMPYAK RT.04/04 KOTA SEMARANG
11469 1100453864 SUCI RAHAYU 09/03/1971 DAMPYAK RT.04/04 KOTA SEMARANG
11470 1100453865 NASORI 01/12/1957 GUMAYUN RT.11/04 DUKUHWARU KAB. TEGAL
11471 1100453869 ERNAMAWATI SUJUD WEKNO 12/03/1971 PASURUHAN KIDUL RT 01 RW 03 KAB. KUDUS
11472 1100453870 ROSO HADONO 31/01/1964 DSN. KALIREJO RT.04 RW.04 KAB. SEMARANG
11473 1100453871 SLAMET PRIHADI 19/8/1967 DSN. PATRAN RT.13/03 CUKILAN SURUH KAB. SEMARANG
11474 1100453872 SUPRAPTI 18/11/1965 REKESAN RT.04/04 KALIREJO KAB. SEMARANG
11475 1100453874 ARISTINA PUDJI RAHAJU 15/03/1960 [Link] RAYA BLK C4-1/4 RT1/6 KAB. BANYUMAS
11476 1100453875 HERI PRASONGKO ACHMAD 03/08/1975 PASURUHAN KIDUL RT 01 RW 03 KAB. KUDUS
11477 1100453876 SITI MUNTAMAH MA'ANIS 27/08/1968 DSN. PATRAN RT.13/03 CUKILAN SURUH KAB. SEMARANG
11478 1100453881 DATIK SUSIATI 19/04/1964 KIDUL PASAR 03/02 KAB. KLATEN
11479 1100453882 DWI SETIYANTO 13/04/1984 SOROGO, NGELO RT 02 RW 06 KAB. BLORA
11480 1100453884 SLAMET 03/07/1960 BANGETAYU WETAN RT 7 RW 6 KOTA SEMARANG
11481 1100453886 MASKUROH 11/04/1961 TLOGOREJO RT 02/02 KAB. DEMAK
11482 1100453887 UMI SUKRISTIYANI 23/02/1965 J. ARJUNA 3 NO. 28 RT.05/10 MAPAGAN KAB. SEMARANG
11483 1100453888 TRI HARSINI 10/1/1959 [Link] [Link] NO.23 RT.5/4 KOBER KAB. BANYUMAS
11484 1100453889 MARYANTI 15/10/1963 DUKUHAN RT.03 RW.06 KOTA SURAKARTA
11485 1100453891 SETYOWATI, SH 26/10/1962 JOYODININGRATAN RT 01 RW 05 KOTA SURAKARTA
11486 1100453892 SUGENG WIHARTO 27/09/1959 JOYODININGRATAN RT 01 RW 05 KOTA SURAKARTA
11487 1100453893 SUBUR TRIWARSONO 10/03/1959 [Link] RAYA NO.4 BLK C.4-1 RT.1/6 KAB. BANYUMAS
11488 1100453901 DWI YUNITASARI 9/1/1984 SOROGO, NGELO RT 02 RW 06 KAB. BLORA
11489 1100453903 MURNAENI 11/12/1961 SUMBAGA RT.05/01 BUMIJAWA KAB. TEGAL
11490 1100453904 MARTINI 01/07/1961 KACEPIT, RT.02/RW.01 KAB. TEMANGGUNG
11491 1100453905 ROFIURRUTAB 28/07/1967 GRIYA SATRIA BLOK M NO.1 RT.05/06 KAB. BANYUMAS
11492 1100453908 NUR WURYANTI 20/04/1967 GRIYA SATRIA BLK M NO 1 BCR KEMBAR KAB. BANYUMAS
11493 1100453910 UMI LISTIYANI PURWADI MECIS 05/11/1973 DS. KLIRONG RT 02/01 KLIRONG KAB. KEBUMEN
11494 1100453912 IMAM SUMARTO MUHSARNO ARIS WIBOWO 20/04/1973 KLIRONG RT.002/001 KAB. KEBUMEN
11495 1100453913 SRI YULIANTI 28/7/1967 JL. KANTOR POS RT. 03 RW. 02 KAB. CILACAP
11496 1100453915 NANI SUMARYATI BENGAT ATMODIJOYO 25/10/1964 DS. SITIADI RT 03/04 PURING KAB. KEBUMEN
11497 1100453917 KASWATI ALSHOFIYATI 11/05/1970 BANGETAYU WETAN RT.07/06 KOTA SEMARANG
11498 1100453922 DARWANSYAH SAHAB SIANTANG 02/05/1962 SITIADI RT.03/04 KAB. KEBUMEN
11499 1100453927 ABDUL KOHAR 15/06/1963 DAKAH RT.01/RW.04 KAB. KENDAL
11500 1100453928 WARSIYAH 01/07/1958 BIBISREJO RT 08 RW 03 KAB. BOYOLALI
11501 1100453930 MA'RUF,BBA 10/5/1960 ARGOMULYO MUKTI NO.275 RT.03/10 KOTA SEMARANG
11502 1100453932 SULASMI 26/12/1976 DAKAH RT.01/RW.04 KAB. KENDAL
11503 1100453933 SITI SUCIATI TASKIMIN 24/10/1966 SUMBER RT 003 RW 004 SUMBER KAB. REMBANG
11504 1100453935 KUTTUT HANDHOKO 15/06/1969 DAMPIT RT 02 RW 03 KAB. BOYOLALI
11505 1100453936 SHOLIKAH 16/03/1985 DALEMAN RT 001 / RW 001 KAB. BOYOLALI
11506 1100453937 SARYONO PASIMIN DOGOL 12/6/1960 SUMBER RT 003 RW 004 SUMBER KAB. REMBANG
11507 1100453939 SUHARNANIE SUHARTO MULYOHARTONO 25/12/1961 JL. KH ISOM NO. 5 C RT 05 RW 05 KOTA SALATIGA
11508 1100453941 KHAERUN NISA IMANINGTIYAS 04/04/2000 KARANGSARI RT. 05 RW. 03 KAB. KENDAL
11509 1100453942 AGTRIA PUTRI RASTIKA 17/08/1993 JL. KH ISOM NO. 5 C RT 05 RW 05 KOTA SALATIGA
11510 1100453943 WARTINI 06/09/1965 DAMPIT RT 02 RW 03 KAB. BOYOLALI
11511 1100453944 ANITA PUSPITASARI SUTARWOCO 03/05/1987 JL. KH ISOM NO.5 C RT 05 RW 05 KOTA SALATIGA
11512 1100453945 SULISTYANI HARTATI 14/03/1960 TUNGGUL KALANG RT.01 RW. 04 KAB. KARANGANYAR
11513 1100453946 KOMARU ZAMAN, SH. 01/06/1964 JL. P. KEMERDEKAAN GG. 16 NO. 27 RT.12/7 KOTA TEGAL
11514 1100453947 MUHAMAD IRSYAD CHOIRUL IMAN 24/3/1996 KARANGSARI RT. 05 RW. 03 KAB. KENDAL
11515 1100453948 SARI GHOZALI 10/12/1965 [Link] RT.01 RW.03 KAB. PEMALANG
NO NO. PORSI NAMA TANGGAL LAHIR ALAMAT KAB/KOTA KETERANGAN
11516 1100453949 ALVINO WARIH SAMUDRO 21/01/1992 [Link] ISOM NO. 5C RT 05 RW 05 KOTA SALATIGA
11517 1100453951 SUGIYARTI 23/04/1964 PURWOREJO RT 06 RW 02 KAB. BOYOLALI
11518 1100453952 SRI MULWATI 13/05/1967 JL. P. KEMERDEKAAN GG. 16 NO.27 RT. 12/7 KOTA TEGAL
11519 1100453953 NUR WIDIYATI 27/02/1965 JL. [Link] NO.33 RT.02/03 BREBES KAB. BREBES
11520 1100453954 MAESAROH 12/6/1976 DK. KAUMAN RT. 01 RW. 03 KAB. PEMALANG
11521 1100453955 RHICA OCTAVIANY 15/10/1982 [Link] VI/58 RT.06/02 KOTA SEMARANG
11522 1100453956 DIDI WAHYUDI BUDIHARTO 04/07/1982 CIMANUK VI/58 RT.06/02 KOTA SEMARANG
11523 1100453957 ENDANG SETYASTUTI MUSLIMAH 11/07/1975 SAMBIROTO RT 01 RW 07 KAB. BOYOLALI
11524 1100453958 RINA SUBIYANTI, [Link].I 21/04/1973 WARENG RT. 02/06 BUTUH KAB. PURWOREJO
11525 1100453959 MUHAMMAD SETIADI 01/10/1969 BABAKAN RT 17 RW 05 KAB. PURBALINGGA
11526 1100453960 SYAMSUL HIDAYAT 05/09/1964 Rumah Sakit Gigi dan Mulut"Soelastri" Surakarta,Jl KOTA SURAKARTA
11527 1100453961 MOHAMMAD BAEDOWI 14/02/1975 SAMBIROTO RT 01 RW 07 KAB. BOYOLALI
11528 1100453962 SITI SHOLIHAH 16/08/1969 RUMAH SAKIT GIGI DAN MULUT SOELASTRI JL SLAMET KOTA SURAKARTA
RIY
11529 1100453963 YULI AMBARWATI 27/07/1974 BABAKAN RT 17 RW 05 KAB. PURBALINGGA
11530 1100453965 MUNAWIR 27/02/1969 DUSUN SUMBEREJA RT.001 RW.03 KAB. CILACAP
11531 1100453967 WIJAYANTI 28/2/1964 KAUMAN 20/10 KAB. KLATEN
11532 1100453968 FATIMAH 31/12/1968 [Link] IV C24 LEMBAH HIJAU RT. 07/21 KAB. MAGELANG
11533 1100453970 WARTOYO HARDIYANTO 31/03/1962 KAUMAN 20/10 KAB. KLATEN
11534 1100453971 KHAERUDIN 05/07/1960 [Link] IV C.24 LEMBAH HIJAU RT. 07/21 KAB. MAGELANG
11535 1100453973 NANIK HARYANTI 08/09/1963 TRONO 12/05 KAB. KLATEN
11536 1100453975 IRMA MEIKHAWATI 17/05/1977 DUKUH 02/02 KAB. KLATEN
11537 1100453976 M. MUSLIH PUJI ARTONO, [Link] 19/03/1969 SUMBEREJO RT. 01 RW. 10 KAB. KARANGANYAR
11538 1100453977 IWAN SULISTIYA SETIYAWAN 25/01/1973 DUKUH 02/02 KAB. KLATEN
11539 1100453978 WUNI ERNAWATI 24/08/1973 SUMBEREJO RT. 01 RW. 10 KAB. KARANGANYAR
11540 1100453979 SLAMET SUBARI 14/07/1971 RINGIN PITU RT.01/09 SRAGI KAB. PEKALONGAN
11541 1100453980 MADINATUL MUNAWAROH 21/04/1978 RINGIN PITU RT.01/09 SRAGI KAB. PEKALONGAN
11542 1100453981 JAMILUL MUHTADI 07/01/1970 TARIWETAN RT 10 RW 02 KAB. BOYOLALI
11543 1100453982 SUKIMIN 05/03/1960 KEPOH RT 14/09 KAB. BLORA
11544 1100453983 MARDIYATUN 29/9/1969 TARI WETAN RT 10 RW 02 KAB. BOYOLALI
11545 1100453985 SULASTRI 31/12/1965 KEPOH RT 14/09 KAB. BLORA
11546 1100453986 HAFIFAH 02/05/1965 JL. GEMAH BARAT NO. 40 RT.02/07 KOTA SEMARANG
11547 1100453988 ENY WIDAYAWATI 28/7/1972 CABEYAN 01/01 KAB. KLATEN
11548 1100453989 [Link] 26/12/1964 [Link] UTARA 4 RT.02/04 KOTA SEMARANG
11549 1100453990 MUHSON ROJI,DRS 05/02/1961 CABEYAN 01/01 KAB. KLATEN
11550 1100453991 SITI MASITOH SAFUWAN 17/5/1961 JOLOTUNDO RT 10 RW 005 LASEM KAB. REMBANG
11551 1100453992 HATNI RIYANTI 12/12/1960 JATIPURO 01/10 KAB. KLATEN
11552 1100453993 LATIFFUDIN AFIF 15/1/1983 DSN KRAJAN RT.01 RW.007 SAMBONGGEDE KAB. REMBANG
11553 1100453994 ROSO HADI SUSILO 31/10/1963 KOMP. AKPOL BLOK K 49 RT 5 RW 6 KOTA SEMARANG
11554 1100453995 KHUSNUL YULIANA 14/07/1963 JL. BANOWATI 1 NO.15 RT.06 RW.06 KOTA TEGAL
11555 1100453997 WAKHYADI 6/4/1959 JL. BANOWATI 1 NO.15 RT.06 RW.06 KOTA TEGAL
11556 1100454001 REBI 31/12/1962 DAWANGAN RT 18 KAB. SRAGEN
11557 1100454003 ARIF SUPARJO MUCLIS 06/01/1969 SUNDOLUHUR 20/03 KAYEN KAB. PATI
11558 1100454005 TRI YUDYANINGSIH SUWONDO 8/8/1958 SINUNGREJO RT. 02. 02 KAB. KEBUMEN
11559 1100454006 MUNJIYAH 31/12/1958 TERCEL RT.01 RW.06 KAB. KENDAL
11560 1100454007 SRI YULIATI SARPIN 03/05/1969 SUNDOLUHUR 20/03 KAYEN KAB. PATI
11561 1100454008 YULI NURANI HIDAYAH 05/07/1966 PLARANGAN RT. 01. 01 KAB. KEBUMEN
11562 1100454009 EDWARD IWAN TIRTA, SE 31/1/1975 BATUR 03/01 KAB. KLATEN
11563 1100454010 AHMAD ZUMRON 15/12/1958 SINAWAH 02/03 KAB. GROBOGAN
11564 1100454012 RIANTO TARYAMAN DASIMUN 26/12/1966 PLARANGAN RT 01. 01 KAB. KEBUMEN
11565 1100454013 PARYATI 07/07/1958 SINAWAH 02/03 KAB. GROBOGAN
11566 1100454017 ANY NARULITA 29/04/1964 JL. SAWI IX / 4 RT 7 RW 6 KOTA SEMARANG
11567 1100454020 TUGIYANTI 24/02/1968 PURWOREJO RT. 02 RW. 05 KAB. KARANGANYAR
11568 1100454022 SARDI 04/06/1961 PURWOREJO RT. 02 RW. 05 KAB. KARANGANYAR
11569 1100454023 MURIAH 27/2/1961 [Link] RT.03 RW.04 KAB. KENDAL
11570 1100454025 YENI ASTUTI 29/10/1976 BATUR 03/01 KAB. KLATEN
11571 1100454026 KARDIYANTI 9/6/1976 TLOGOSARI WETAN RT.06/04 KOTA SEMARANG
11572 1100454028 MUHAMMAD SHOKIB 16/10/1970 TLOGOSARI WETAN RT.06/04 KOTA SEMARANG
11573 1100454030 SUGIARTO 25/12/1963 JL. SAWI IX / 4 RT 7 RW 6 KOTA SEMARANG
11574 1100454034 AMIDAH 24/09/1991 BANYUMENENG RT.01/03 KAB. DEMAK
11575 1100454037 SUNARYA 28/06/1964 NGROMBO RT 37 KAB. SRAGEN
11576 1100454041 ENDANG ISTIYATMI 10/2/1968 NGROMBO RT 37 KAB. SRAGEN
11577 1100454042 ROSIYAM 21/10/1972 PERUM TAMAN BUAH A-3 NO. 4 RT 001 / RW 014 KAB. MAGELANG
11578 1100454044 DWI SETIAWATI 10/02/1971 NGRONGGAH RT. 04/12 KAB. SUKOHARJO
11579 1100454045 HARI WIBOWO 8/8/1967 NGRONGGAH RT. 04/12 KAB. SUKOHARJO
11580 1100454046 TL DYAH HANDAYANI 16/12/1964 PONDOK MULYO [Link] 04/01 KAB. KLATEN
11581 1100454047 SUWARNI 04/08/1961 TIRTOUSODO TIMUR II/13 RT.03/03 KOTA SEMARANG
11582 1100454048 MARIYEM PARNO SURBAT 01/07/1960 KARANGRANDU 03/05 KAB. JEPARA
11583 1100454050 K MINTARSIH 6/10/1966 WONOLELO 01/05 KAB. MAGELANG
11584 1100454051 SITI QOSIDAH ZUHDI 16/10/1981 NGABUL 04/07 KAB. JEPARA
11585 1100454052 KHAERUDIN 11/09/1968 PONCOL RT.01/07 LARANGAN KAB. BREBES
11586 1100454054 LAILINA 10/03/1968 PONCOL RT.01/07 LARANGAN KAB. BREBES
11587 1100454056 MUKHOLIFIN DARIYUN TASERI 16/8/1974 NGABUL 04/07 KAB. JEPARA
11588 1100454057 RUSLAN 12/12/1959 WONOLELO 01/05 KAB. MAGELANG
11589 1100454061 ASRORI 31/12/1958 JOGOSARAN 05/04 KAB. MAGELANG
11590 1100454062 SUGIARTI 06/02/1970 AKPOL BLOK G-12 RT.02/06 KOTA SEMARANG
11591 1100454065 SOFYAN 16/07/1963 AKPOL BLOK G-12 RT.02/06 KOTA SEMARANG
11592 1100454066 TRI PURNOMO RAHARJO M 13/09/1985 GIRIMULYO NO.40 02/06 KAB. KLATEN
11593 1100454067 SITI MARIANI 26/04/1980 SAMBERAN 01/08 KAB. MAGELANG
11594 1100454068 RINI HARTATIK 29/03/1982 JABUNG 01/04 KAB. GROBOGAN
11595 1100454069 MUNTAMAH 2/7/1960 JABUNG 01/04 KAB. GROBOGAN
11596 1100454070 NUR KHOLISAH 23/11/1962 KEDUNGBANTENG RT.13/06 KAB. TEGAL
11597 1100454072 ROBBY MAYNARNO 28/05/1968 TAMAN PRATAMA IH PAULAN RT. 06 RW. 09 KAB. KARANGANYAR
11598 1100454075 SUSI DINI ASTUTI 31/03/1971 TAMAN PRATAMA IH PAULAN RT. 06 RW. 09 KAB. KARANGANYAR
11599 1100454076 UMILAH 20/3/1969 KEDUNGUTER RT.05/01 BREBES KAB. BREBES
11600 1100454077 TRI INDAH WIDYASTUTI 16/12/1975 TUNGGU 04/01 KAB. GROBOGAN
11601 1100454080 MUHAMMAD SAEFUL ROCHMAN 25/09/1990 SUNIARSIH RT 004 / RW 001 KAB. TEGAL
11602 1100454081 TAKARI SUSIANI 29/8/1965 PERUM BKD BLOK 23/A 131 RT. 01 RW. 10 KAB. CILACAP
11603 1100454084 DESTRI WAHYU RIYANTO 31/12/1986 JL. MASJID ISIQOMAH NO. 73 RT 002 / RW 001 KAB. CILACAP
11604 1100454086 JAHRO 03/06/1965 SUNIARSIH RT.04/01 BOJONG KAB. TEGAL
11605 1100454088 WARSITAH 15/04/1958 JL. MASJID ISTIQOMAH NO. 73 RT. 02 /01 KAB. CILACAP
11606 1100454090 SRI WAHYUNINGSIH 17/9/1959 JL. KAKATUA BANJARASRI RT 01/10 KAB. SRAGEN
11607 1100454091 MUHAMMAD BARIKLANA SUPRIANTO 30/11/1997 KALIPUTU RT 03 RW 01 KAB. KUDUS
11608 1100454092 YULI PURWATI KARWADI 17/07/1973 KALIPUTU RT 03 RW 01 KAB. KUDUS
11609 1100454093 SUKIRMAN 14/04/1959 ALUNALUN MENOREH 40/15 KAB. MAGELANG
11610 1100454094 TRI RAHAYU 14/09/1971 DSN. BANGSAL 05/02 KAB. MAGELANG
11611 1100454095 ROHMAT PUATO 15/07/1967 DSN. BANGSAL 05/02 KAB. MAGELANG
11612 1100454097 SUPRIANTO MADEKHUN ALI IRFAN 24/02/1965 KALIPUTU RT 03 RW 01 KAB. KUDUS
11613 1100454098 SUWARDI 13/09/1957 WATUBURIK RT. 01 RW. 14 KAB. KARANGANYAR
11614 1100454101 SUTINAH 18/05/1966 WATUBURIK RT. 01 RW. 14 KAB. KARANGANYAR
11615 1100454103 WAHYU HIDAYAT 30/3/1980 PONGGOK 02/01 KAB. KLATEN
11616 1100454109 JAMILAH 20/10/1962 PEGADON TENGAH RT.03/02 KARANGDADAP KAB. PEKALONGAN
11617 1100454110 RIFATI 06/05/1971 PEGIRIKAN RT.09/03 TALANG KAB. TEGAL
11618 1100454111 JAMBARI 31/01/1959 MUNENG RT.02 RW.02 KAB. SEMARANG
11619 1100454112 TOFIKUROKHMAN 08/10/1970 PEGIRIKAN RT.09/03 TALANG KAB. TEGAL
11620 1100454116 KARIRI 27/06/1960 JL. JEND SUDIRMAN 08/03 KAB. GROBOGAN
11621 1100454117 JUMINEM 23/07/1963 MUNENG RT.02 RW.02 KAB. SEMARANG
11622 1100454118 SITI MUZAENAH 08/03/1966 JL. JEND SUDIRMAN 08/03 KAB. GROBOGAN
11623 1100454119 SARIFFUDIN, [Link] 31/8/1973 HARJOSARI KIDUL RT. 12/03 ADIWERNA KAB. TEGAL
11624 1100454120 NURSABAR 14/10/1962 BANJARSARI WETAN RT. 2/2 KAB. BANYUMAS
11625 1100454121 SUPARNO 15/04/1971 [Link] RAYA NO.25 RT.04/03 KOTA SEMARANG
11626 1100454122 UMI NIKMAH 06/07/1978 HARJOSARI KIDUL RT. 12/03 ADIWERNA KAB. TEGAL
11627 1100454123 RASIWEN 07/10/1963 BANJARSARI WETAN RT 002 RW 002 KAB. BANYUMAS
11628 1100454124 NOKLIKHA, S. PT 9/3/1977 JL. MUTERAN RAYA NO. 25 RT 4 RW 3 KOTA SEMARANG
11629 1100454127 SUHARTI 19/10/1967 UJUNGGEDE RT.02 RW.06 KAB. PEMALANG
11630 1100454129 AMIN ABDUL HALIM BASI 07/06/1960 SUMANDING 08/02 KEC. KEMBANG KAB. JEPARA
11631 1100454130 CHALIMATUS SAKDIAH 25/09/1971 JL. GALAR VII / 11 RT 002 / RW 017 KOTA SEMARANG
11632 1100454133 DWIWORO KOMMY RAHAYU,SPD 28/02/1965 MRISEN 01/01 KAB. KLATEN
11633 1100454134 WARSIKHIN CASMURI 02/04/1963 UJUNGGEDE RT.02 RW.06 KAB. PEMALANG
11634 1100454135 EVI ELVIRA 26/06/1999 JL. AGENG MANGIR NO 3 RT.03 RW.06 KOTA SURAKARTA
11635 1100454136 SANJITO, [Link] 27/07/1971 CEPOGO RT. 03 RW. 02 KAB. KARANGANYAR
11636 1100454137 SITI LESTARI, [Link] 10/04/1976 CEPOGO RT. 03 RW. 02 KAB. KARANGANYAR
11637 1100454140 SITI MAESAROH 5/5/1958 JOGOSARAN 05/04 KAB. MAGELANG
11638 1100454141 TRININGSIH 27/10/1960 WTSLT [Link] KEMERDEKAAN NO.5 01/05 KAB. BATANG
11639 1100454144 HADI SUWITO,SH 12/11/1965 TAMBAKAJI RT.03/12 KOTA SEMARANG
11640 1100454145 MAHMUD 07/02/1969 NGLACOR RT 04/01 KAB. SRAGEN
11641 1100454146 SRI RAHAYU DWI HASTUTI 23/02/1977 NGLACOR RT 04/01 KAB. SRAGEN
11642 1100454147 ACHMAD MUNTOLIB 15/01/1967 SAMBERAN 01/08 KAB. MAGELANG
11643 1100454148 CHOIRIYATI 1/8/1958 AMBARTAWANG 02/01 KAB. MAGELANG
NO NO. PORSI NAMA TANGGAL LAHIR ALAMAT KAB/KOTA KETERANGAN
11644 1100454149 SRI SUTAMI, SE 10/10/1967 JL SEPAT NO 22 RT. 03 RW. 06 TEGALASRI KAB. KARANGANYAR
11645 1100454150 AGUS EFENDI, DRS, [Link] 19/08/1967 JL SEPAT NO 22 RT. 03 RW. 06 TAGALASRI KAB. KARANGANYAR
11646 1100454151 TITIK SUNAR SARI 04/04/1968 TAMBAKAJI RT.03/12 KOTA SEMARANG
11647 1100454152 SAMSURI SAMHADI SANAH 03/01/1960 PUCAKWANGI 2/1 PUCAKWANGI KAB. PATI
11648 1100454153 SULATRI SUDIRAN SUMINAH 14/05/1965 PUCAKWANGI 2/1 PUCAKWANGI KAB. PATI
11649 1100454154 SALIM MUNADI SUWARNI 19/05/1976 KERTOMULYO 2/4 TRANGKIL KAB. PATI
11650 1100454155 SAEFU NURHAYATI MASHULAN 03/04/1984 KERTOMULYO 2/4 TRANGKIL KAB. PATI
11651 1100454157 DRS. MANSUR 07/06/1962 JAMBU LOR RT.04 RW.01 KAB. SEMARANG
11652 1100454158 MARSIYAMTI 28/08/1977 DSN. JAMBU LOR RT.04 RW.01 KAB. SEMARANG
11653 1100454160 DWIDJO SAPTOMO 14/04/1973 JL. KP. SIDODADI RT 02 RW 01 KAB. PURBALINGGA
11654 1100454163 DRS. ASROFI 13/03/1960 NGABEAN RT02 RW02 KAB. TEMANGGUNG
11655 1100454164 TUTI MULYATI 28/06/1980 JL. KP. SIDODADI RT 02 RW 01 KAB. PURBALINGGA
11656 1100454166 DYAH TRI SUWARNI 07/02/1975 PALAR 07/04 KAB. KLATEN
11657 1100454170 AMIR MUHLASIN 20/7/1963 SALAM RT 04 RW 05 KAB. WONOSOBO
11658 1100454171 SUHARMAN, SPD 12/12/1970 PALAR 07/04 KAB. KLATEN
11659 1100454172 HARIYATI 07/09/1962 REJOWINANGUN RT. 01/01 KEMIRI KAB. PURWOREJO
11660 1100454175 MUHAMMAD SULTON 20/08/1962 [Link] REJEKI TIMUR RT.06/06 KOTA SEMARANG
11661 1100454176 KURIMAH 18/05/1963 DUKUH BADAG RT.02/03 KETANGGUNGAN KAB. BREBES
11662 1100454177 PUTRI WAHYU FIRMANTI 22/07/1985 [Link] REJEKI TIMUR RT.06/06 SEMARANG BARATKOTA SEMARANG
11663 1100454179 SAHLAN 12/7/1957 DUKUH BADAG RT.02/03 KETANGGUNGAN KAB. BREBES
11664 1100454180 S U J O N O, S. PD 27/10/1958 JL. BHAYANGKARA GANG MASJID2 RT 01/05 KAB. BLORA
11665 1100454181 SHOLIHAH 13/06/1963 DUKUH BADAG RT.01/04 KETANGGUNGAN KAB. BREBES
11666 1100454182 WAKHURI ALWI SUWARNO 14/08/1965 PLUKARAN 2/2 GEMBONG KAB. PATI
11667 1100454184 MASDUQI 12/06/1969 PURBAYASA RT.03/01 TONJONG KAB. BREBES
11668 1100454185 SUWARTO, SE, MM 13/07/1961 OCAK ACIK RT. 01 RW. 01 KAB. KARANGANYAR
11669 1100454187 DRA RETNO SARI GAYATRI 16/04/1966 NGABEAN RT02 RW02 KAB. TEMANGGUNG
11670 1100454188 DIACH SULASTRI, [Link] 13/08/1969 OCAK ACIK RT. 01 RW. 01 KAB. KARANGANYAR
11671 1100454191 SULAENAH SADIMEN SARBANI 02/02/1958 SIDIGEDE 08/02 KAB. JEPARA
11672 1100454192 KASANAH 22/08/1972 JL A YANI GG 12 NO 2 RT 02 RW 02 KAB. BLORA
11673 1100454193 ROHMAD 21/05/1970 GEMBUNG 01/05 KAB. MAGELANG
11674 1100454195 BUDIASIH, [Link] 19/3/1979 KEDUNGRINGIN RT 01 KAB. SRAGEN
11675 1100454196 SITI NUR ASIYAH 26/10/1977 GEMBUNG 01/05 KAB. MAGELANG
11676 1100454197 ENY SULISTYOWATI 15/06/1977 DENASRI KULON RT.01 RW.05 KAB. BATANG
11677 1100454198 WIRATNO, SE 12/06/1977 KEDUNGRINGIN RT 01 KAB. SRAGEN
11678 1100454199 SUKARMIN, [Link] 12/07/1965 KARANGNONGKO RT. 03 RW. 08 KAB. KARANGANYAR
11679 1100454200 SITI HARSINI 16/08/1969 KARANGNONGKO RT. 03 RW. 08 KAB. KARANGANYAR
11680 1100454201 ARIYAH NUR SITI 28/08/1958 SANDANGSARI NO. 80 RT. 03/08 KAB. MAGELANG
11681 1100454202 ABDI KHAMDANI 22/04/1972 TREMBULREJO RT 01/01 KAB. BLORA
11682 1100454204 SUMIATUN 10/06/1967 TREMBULREJO RT 01 RW 01 KAB. BLORA
11683 1100454205 MUCHAMAD RIO FADCHUL NAJIB 22/04/2003 JL. PURWOMUKTI BARAT V RT 008 / RW 001 KOTA SEMARANG
11684 1100454206 SURIYAT 26/6/1967 JL. PURWOMUKTIBARAT V RT 01 RW 01 KOTA SEMARANG
11685 1100454209 DWI ILYANA 14/10/1985 KENDUREN RT.03/02 KAB. DEMAK
11686 1100454210 JUMIRAH 31/12/1958 KP. DEMPEL BARU RT 9 RW 16 KOTA SEMARANG
11687 1100454211 SRI MULYANI,SPD 17/6/1962 SAMBEN 03/01 KAB. KLATEN
11688 1100454212 MAHDUM 30/10/1971 KENDUREN RT.03/02 KAB. DEMAK
11689 1100454214 SUWOTO ASMAN MOTIRTO 10/03/1959 KEDUNGRINGIN RT 002 RW 001 SEDAN KAB. REMBANG
11690 1100454220 BAMBANG IRANTO 04/06/1960 MANAHAN RT 02 RW 012 KOTA SURAKARTA
11691 1100454221 ASIYAH NAWI SAKIJAN 5/4/1966 KEDUNGRINGIN RT 002 RW 001 SEDAN KAB. REMBANG
11692 1100454222 MUSYAROFAH 10/12/1966 DSN. JAMBU RT.03 RW.01 KAB. SEMARANG
11693 1100454224 SONNY KURNIAWAN 18/09/1980 EASTERN HILL REGENCY BLOK R NO 4 CIBIRU BANDUNG
KOTA MAGELANG
11694 1100454225 ENNY SUWARNI 27/09/1958 JL A. YANI KUPATAN RT 04 RW 09 KOTA MAGELANG
11695 1100454226 WARSONO 10/05/1958 PEKALONGAN RT 01 RW 06 KAB. PURBALINGGA
11696 1100454227 WARSIAH 01/07/1961 PEKALONGAN RT 01 RW 06 KAB. PURBALINGGA
11697 1100454229 SITI NANGIMAH 17/04/1961 BADAKARYA RT 003 RW 007 KAB. BANJARNEGARA
11698 1100454230 AMIN WIDODO 17/01/1966 JAMBU RT.03 RW.01 KAB. SEMARANG
11699 1100454232 SUTRISNO 13/09/1970 BRAMBANG RT 04/01 KAB. DEMAK
11700 1100454233 AMIN MA'RUF 24/03/1975 KECAPI RT.004 RW.001 TAHUNAN KAB. JEPARA
11701 1100454234 MAHYOTO MAKHUDI 2/11/1957 LOSARI RT 04 RW 01 KAB. PURBALINGGA
11702 1100454235 INDARTI 10/11/1974 BRAMBANG RT 04/01 KAB. DEMAK
11703 1100454236 MAINAH 31/12/1962 LOSARI RT 04 RW 01 KAB. PURBALINGGA
11704 1100454237 MURSALIN SUKARJI KUSNO 25/4/1964 TREMBES RT 005 RW 001 GUNEM KAB. REMBANG
11705 1100454238 NURYATI PARISAN SURO 12/10/1960 GUYANGAN 04/05 KAB. JEPARA
11706 1100454239 ASTUTI ENDRAWATI 01/01/1964 KRAJAN 03/01 KAB. MAGELANG
11707 1100454242 MUALIFAH MUZAMMIL HARUN 02/08/1974 TREMBES RT 005 RW 001 GUNEM KAB. REMBANG
11708 1100454243 KHOLISH MAHYUDDIN 15/08/1974 MOJOSARI RT 01 RW 07 KAB. BOYOLALI
11709 1100454244 NURLAELA 4/1/1977 MOJOSARI RT 01 RW 07 KAB. BOYOLALI
11710 1100454246 WASMI 20/10/1964 GRINTING RT. 02/01 BULAKAMBA KAB. BREBES
11711 1100454247 BUDIYONO 28/08/1978 KWADUNGAN GUNUNG, NO. 87, RT.03/RW.02 KAB. TEMANGGUNG
11712 1100454249 SUKARI ASTRONAH MARTO 15/03/1962 BULU 01/02 KAB. JEPARA
11713 1100454250 HADI SUMARNO 05/01/1961 LAMUK RT 06 RW 03 KAB. PURBALINGGA
11714 1100454252 LASIYEM 07/05/1970 KATEGUHAN RT.01/RW.01 KAB. SUKOHARJO
11715 1100454253 MARWATI SETYANINGSIH 14/05/1964 TANJUNGANOM RT 03/03 KAB. PURWOREJO
11716 1100454254 MURSALIN SARDI SUCIPTO 05/09/1971 BULU 01/02 KAB. JEPARA
11717 1100454255 SIGIT PRASETIYONO 22/05/1962 KLIPANG BLOK P 14 / 10 RT 3 RW 7 KOTA SEMARANG
11718 1100454256 NAFIATUL ASLAMIYAH 02/11/1987 BUMIHARJO RT 04 RW 01 KAB. DEMAK
11719 1100454257 ARI ZUNIANTO 27/07/1987 GUYANGAN 04/05 KAB. JEPARA
11720 1100454258 SHOLEKUL HADI 18/04/1978 BUMIHARJO RT 04 RW 01 KAB. DEMAK
11721 1100454260 FURI HANIFAH ZANUARDI 30/7/1989 NGAWINAN RT.04 RW.1V JETIS KAB. SEMARANG
11722 1100454261 DHURIYAH 22/12/1963 KLIPANG BLOK P 14 / 10 RT 3 RW 7 KOTA SEMARANG
11723 1100454262 SUKADI 02/11/1961 TANJUNGANOM RT 03/03 KAB. PURWOREJO
11724 1100454263 HARDANI 17/06/1975 JOMBOR INDAH RT.02/RW.03 KAB. SUKOHARJO
11725 1100454264 SUPARNO 02/04/1968 TUNGGULSARI RT 31 KAB. SRAGEN
11726 1100454265 HARTINI 20/08/1973 TUNGGULSARI RT 31 KAB. SRAGEN
11727 1100454266 RINA WARA WIDIARTI 16/02/1972 DIRGANTARA JL SABRE NO 10 RT. 01 RW. 13 KAB. KARANGANYAR
11728 1100454268 WIWIT KUNADI 16/09/1970 DIRGANTARA JL SABRE NO 10 RT. 01 RW. 13 KAB. KARANGANYAR
11729 1100454271 TRI HANDAYANI 10/03/1980 JOMBOR INDAH RT.02/RW.03 KAB. SUKOHARJO
11730 1100454272 YUNIARTI IMAM SOEPARNO 29/06/1967 ARGOMAS NO.339 RT 01 RW 13 KOTA SALATIGA
11731 1100454273 TRI ARDIANI 09/05/1967 NGAWINAN RT.04 RW.04 JETIS KAB. SEMARANG
11732 1100454274 ANTO SUATMADJI DARMOWIYOTO 1/6/1961 ARGOMAS NO. 339 RT 01 RW 13 KOTA SALATIGA
11733 1100454276 TUTIK 31/12/1965 KRENEN RT RT.02/RW.05 KAB. SUKOHARJO
11734 1100454277 WALITO 31/12/1962 KRENEN RT.02/RW.06 KAB. SUKOHARJO
11735 1100454278 MOHAMAD RIFAN 25/09/1968 KETANGIREJO 03/03 KAB. GROBOGAN
11736 1100454279 SUYATNO 8/8/1959 MANTRIANOM RT 002 RW 003 KAB. BANJARNEGARA
11737 1100454280 JUWITA ARIS MINTARMI 15/11/1976 KETANGIREJO 03/03 KAB. GROBOGAN
11738 1100454281 HERI KISWANTO HARDI 19/06/1976 KRASAK 04/04 KAB. JEPARA
11739 1100454282 NURIDA TIOWATI SUTAMAN 18/08/1980 KRASAK 04/04 KAB. JEPARA
11740 1100454284 AGUS RIYANTO 18/02/1981 WANARATA RT.44 RW.11 KAB. PEMALANG
11741 1100454285 TEGUH IMAM PURWANTO 01/12/1970 JL. BOGOWONTO NO. 32 RT. 01 RW. 06 KAB. CILACAP
11742 1100454286 SRI MURNI MASUDI 07/06/1971 RAU 02/03 KAB. JEPARA
11743 1100454287 NURNGAENI, SPD 02/02/1963 JL. JEND. SUDIRMAN NO.55 RT.02 RW.05 KAB. CILACAP
11744 1100454290 HAYUNINGRAT ODYSSEY SAINT 30/07/1997 JL. GATOTKACA NO.17 DAWUNG KLN RT 04/12 KOTA SURAKARTA
11745 1100454291 IFA SOFANATUN 17/05/1976 KAUMAN [Link] [Link] NO.21B 03/02 KAB. BATANG
11746 1100454292 ROFIK,SH 20/09/1960 JLAMPRANG RT.12 RW.01 KAB. BATANG
11747 1100454293 ALI YASIN MERI RASIMAN 07/10/1967 RAU 02/03 KAB. JEPARA
11748 1100454294 NELI SA'ADAH 06/04/1982 WANARATA RT. 44 RW. 11 KAB. PEMALANG
11749 1100454295 LAYLI ENDAH CAHYANI 22/06/1979 JL. BOGOWONTO NO. 32 RT. 01 RW. 06 KAB. CILACAP
11750 1100454296 SRI HANDAYANI KARIM 23/09/1964 JL. ALIWIJAYAN RT 05 RW 03 KOTA SALATIGA
11751 1100454297 SRI RAHAYU 02/11/1963 KUTAYASA RT 004 RW 002 KAB. BANJARNEGARA
11752 1100454298 AHMAD FAQIH,[Link] 09/05/1959 SAWOJAJAR RT.04/03 WANASARI KAB. BREBES
11753 1100454299 KHOMISATUL MUNAWAROH 01/12/1959 SAWOJAJAR RT. 04/03 WANASARI KAB. BREBES
11754 1100454300 RUSNOTO 27/7/1962 KUTAYASA RT 004/002 KAB. BANJARNEGARA
11755 1100454301 SURIPUDIN 21/10/1976 RANDUSANGA KULON RT.05/02 BREBES KAB. BREBES
11756 1100454302 SUWATI 05/06/1972 RANDUSANGA KULON RT. 05/02 BREBES KAB. BREBES
11757 1100454305 MUH ARWANI MAHFUD 30/09/1963 BANDUNGHARJO 01/02 KEC. DONOROJO KAB. JEPARA
11758 1100454306 IRPAN 04/07/1979 MLATEN RT.06/01 KAB. DEMAK
11759 1100454307 LULUK AFIFAH ABDULLAH 9/3/1969 BANDUNGHARJO 01/02 KEC. DONOROJO KAB. JEPARA
11760 1100454308 MAEMUNAH 10/10/1965 BEJI RT. 03 RW. 01 KAB. PEMALANG
11761 1100454309 IMROATUL HINDUN 05/07/1983 MLATEN RT.06/01 KAB. DEMAK
11762 1100454310 FAIZIN 15/06/1959 BEJI BARAT RT.03 RW.01 KAB. PEMALANG
11763 1100454311 PAIDI 12/4/1963 KEPATIHAN RT. 04 RW. 01 KAB. WONOGIRI
11764 1100454312 SRI WIDAYANTI 10/10/1966 KEPATIHAN RT.04 RW.01 KAB. WONOGIRI
11765 1100454314 OKTAFIANTO DWI INARYONO 04/10/1986 DK. SENER RT.02 RW.08 TERSONO KAB. BATANG
11766 1100454315 INARSIH 5/11/1960 KRANGGAN [Link] RT.02 RW.08 KAB. BATANG
11767 1100454316 SITI ZUZINAH,SPD 20/12/1973 DENGKENG TENGAH 01/03 KAB. KLATEN
11768 1100454319 MUKHAYAT 26/08/1977 BLIMBING RT05 RW03 KAB. TEMANGGUNG
11769 1100454321 SRI EKOYANI 29/01/1965 BANARAN RT 3 RW 7 KAB. KARANGANYAR
11770 1100454322 SIROD TAUFIQ,SAG 12/02/1971 DENGKENG TENGAH 01/03 KAB. KLATEN
11771 1100454323 MUSRIFAH 17/03/1979 BLIMBING RT05 RW03 KAB. TEMANGGUNG
NO NO. PORSI NAMA TANGGAL LAHIR ALAMAT KAB/KOTA KETERANGAN
11772 1100454326 SRI HARYANI 19/04/1969 JOMBARAN RT 01 RW VII KAB. KARANGANYAR
11773 1100454327 MUCHTAR 04/05/1960 UJUNGGEDE RT.03 RW.05 KAB. PEMALANG
11774 1100454329 WIJIANTO 11/01/1968 JOMBORAN RT 01 RW 07 KAB. KARANGANYAR
11775 1100454333 ANJAR KUSUMO JATI 14/09/1971 PERUM BUMI SINGKIL INDAH RT 03 RW14 KAB. BOYOLALI
11776 1100454335 DWI LARSO 5/4/1975 PERUM BUMI SINGKIL INDAH RT 03 RW 14 KAB. BOYOLALI
11777 1100454336 FITRA WELLY FAISAL 31/10/1973 KARANGJOHO RT. 02/10 KAB. SUKOHARJO
11778 1100454337 HERI YUWAHENI 24/12/1963 JETIS RT. 02 RW. 05 KAB. WONOGIRI
11779 1100454338 SUWARNININGSIH 17/11/1979 PURI TAMAN SARI I RT. 07 RW. 01 KAB. KARANGANYAR
11780 1100454339 SUWARTININGSIH 07/05/1960 JL PUSPITASARI RT 03 RW 04 KAB. DEMAK
11781 1100454341 DRS. NUR AZIZ 12/07/1967 BENDA II RT.01/02 SIRAMPOG KAB. BREBES
11782 1100454343 INDRA BAGUS RISTIANTO 09/10/1989 JL PUSPITASARI RT 03 RW 04 KAB. DEMAK
11783 1100454344 SUNARNO 08/04/1971 PURI TAMAN SARI I RT. 07 RW. 1 KAB. KARANGANYAR
11784 1100454345 SURATNO 6/5/1962 JETIS RT. 02 RW. 05 KAB. WONOGIRI
11785 1100454346 DIDIK SURYONO 10/12/1972 KARANGJOHO RT. 02/10 KAB. SUKOHARJO
11786 1100454347 NGIMAROH, [Link] 06/02/1969 BENDA II RT. 01/02 SIRAMPOG KAB. BREBES
11787 1100454348 HENI RETNO WULANDARI 03/03/1988 TAJEM [Link] 02/01 KAB. GROBOGAN
11788 1100454351 TARNO 15/4/1963 NGLEBAK RT. 03 RW. 08 KAB. KARANGANYAR
11789 1100454352 SUDJARWOTO 30/12/1960 GOGIK RT.04 RW.02 KAB. SEMARANG
11790 1100454354 JUPRIAH 15/05/1969 NGLEBAK RT. 03 RW. 08 KAB. KARANGANYAR
11791 1100454355 SUYAROH 04/05/1965 GOGIK RT.04 RW.02 KAB. SEMARANG
11792 1100454357 AHMAD JATMIKO 20/02/1962 [Link] 20 KDUTER RT. 2/3 KAB. BANYUMAS
11793 1100454358 MUHAMAD FATEKHUL MUTOK 15/05/1984 BONGGAN RT 02 RW 09 KOTA SALATIGA
11794 1100454361 INDRIYATI 02/11/1967 JL. PESANGGRAHAN 20 RT 02 RW 03 KAB. BANYUMAS
11795 1100454363 [Link] MULYANI, [Link] 05/08/1959 SRORO RT 04 RW 03 KAB. KARANGANYAR
11796 1100454364 EVELYN EKOWATI 03/11/1979 BEJI TENGAH RT 04 RW 10 KAB. KARANGANYAR
11797 1100454366 SHOFWAN RIDHO 29/07/1980 BEJI TENGAH RT. 04 RW. 10 KAB. KARANGANYAR
11798 1100454370 MUH ANWAR 4/5/1971 KALIABU 01/01 KAB. MAGELANG
11799 1100454371 SHOFIYATUN 31/12/1966 TRIDONOREJO RT 01 RW 05 KAB. DEMAK
11800 1100454375 HARYONO 12/04/1964 DK JLUMBANG RT 01/04 KAB. SUKOHARJO
11801 1100454376 NUR AINI MIFTAKHUL JANNAH 11/06/1978 KALIABU 01/01 KAB. MAGELANG
11802 1100454377 SUKAMTO 21/01/1960 KRENGSENG RT.03 RW.02 KAB. BATANG
11803 1100454378 PARTINI 14/08/1960 KRENGSENG RT.03 RW.02 KAB. BATANG
11804 1100454379 SETYANING RAHAYU 22/07/1970 JLUMBANG RT.01/RW.04 KAB. SUKOHARJO
11805 1100454382 NUR ALI ABU HASAN 04/04/1963 SIRAHAN 5/3 CLUWAK KAB. PATI
11806 1100454383 SRI MULYANI 10/02/1962 TEGALSARI RT 01 RW 07 KAB. BOYOLALI
11807 1100454385 PILANG HARSO RAHARJO 10/02/1958 TEGALSARI RT 01 RW 07 KAB. BOYOLALI
11808 1100454386 MUNJIATI 07/12/1970 JL. MEKAR JAYA RT 03 RW 11 KAB. PURBALINGGA
11809 1100454388 BUDY SANTOSA 03/02/1970 JL. MEKAR JAYA RT 03 RW 11 KAB. PURBALINGGA
11810 1100454390 MASKUROH 02/09/1966 LEBO RT.03 RW.04 KAB. BATANG
11811 1100454391 MUKAROMAH RIFA'I SUTAMAH 12/09/1971 SIRAHAN 5/3 CLUWAK KAB. PATI
11812 1100454392 SITI ROCHANAH MOHAMAD MUSLIH 22/09/1982 PETANAHAN RT.02/03 KAB. KEBUMEN
11813 1100454393 SUDARWATI 01/01/1980 SUGIHAN 05/13 KAB. GROBOGAN
11814 1100454395 MARDLIYAH 08/03/1962 NOYOTRUNAN 01/08 KAB. KLATEN
11815 1100454396 KARIYEM 06/03/1966 LOGENDER 03/10 KAB. GROBOGAN
11816 1100454397 ABD KHOLIQ SUTIKNO 29/8/1969 JL. MANUNGGAL GG. 4 / 36 RT. 4 RW. 10 KOTA PEKALONGAN
11817 1100454398 HAFID BUSTOMI ACHMAD ROZIN 27/10/1983 PETANAHAN RT.02/03 KAB. KEBUMEN
11818 1100454399 PURWANTI 04/10/1963 DUKUH RT 15 KAB. SRAGEN
11819 1100454400 WASLIKHAH 15/08/1973 JL. MANUNGGAL GG. 4 /36 RT. 4 RW. 10 KOTA PEKALONGAN
11820 1100454401 JARDI 12/07/1962 LOGENDER 03/10 KAB. GROBOGAN
11821 1100454407 TUTIK PURWANI 18/08/1962 GRIYA PRIMA TIMUR 449 05/18 KAB. KLATEN
11822 1100454408 ASMA' ABU HASAN ZAENAB 03/01/1958 SIRAHAN 5/3 CLUWAK KAB. PATI
11823 1100454411 SRI PURWANTI 16/03/1959 GUNUNGWIJIL 02/01 KAB. KLATEN
11824 1100454412 YAMTI'AH 05/12/1959 BARAN DUKUH LOR RT.03 RW.04 KAB. SEMARANG
11825 1100454413 WAHUDI 01/03/1960 [Link] - SARWODADI RT.13 RW.02 KAB. PEMALANG
11826 1100454419 MAFTUAH 21/01/1973 SARWODADI RT.28 RW.05 KAB. PEMALANG
11827 1100454420 MUTMAINAH 05/05/1966 DUKUHRANTAM RT.09/05 LARANGAN KAB. BREBES
11828 1100454422 WIJI LESTARI 14/09/1957 BULU RT 25 KAB. SRAGEN
11829 1100454428 HERNI PUJI ASTUTI,STP 07/12/1962 MADYANTORO RT 02 RW 07 KAB. KARANGANYAR
11830 1100454431 SARTONO 16/06/1959 MADYANTORO RT. 02 RW. 07 KAB. KARANGANYAR
11831 1100454432 DARSONO 23/06/1973 DSN 03 SARWODADI RT. 28 RW. 05 KAB. PEMALANG
11832 1100454434 SUDIRO 26/04/1958 JL. MONGINSIDI NIO.25 RT.01 RW.05 KOTA SURAKARTA
11833 1100454435 TRI SUPATMI 18/2/1960 DSN. JAMBU KIDUL RT.01 RW.02 KAB. SEMARANG
11834 1100454436 ISROIYAH AHMAD WUJUD 25/10/1970 PECANGAAN WETAN 04/04 KAB. JEPARA
11835 1100454438 SITI INSIYAH ROCHMANI 28/08/1957 [Link] [Link] NO.29 RT 08 RW 01 KAB. BANYUMAS
11836 1100454439 SARI HARYANI 03/04/1985 DK. KRAJAN RT.05/07 PAGUYANGAN KAB. BREBES
11837 1100454440 ENDANG SRI HASTUTI 06/03/1960 JL. MONGINSIDI NO.25 RT.01 RW.05 KOTA SURAKARTA
11838 1100454441 DATEM 05/05/1965 DK. KRAJAN RT.05/07 PAGUYANGAN KAB. BREBES
11839 1100454442 TUGIMAN, ST 21/08/1957 PADANGAN 12/06 KAB. KLATEN
11840 1100454443 MARMI 18/05/1960 KRAGILAN RT 06 RW 01 KAB. BOYOLALI
11841 1100454445 HARYATI, SPD 12/06/1958 PADANGAN 12/06 KAB. KLATEN
11842 1100454446 BUSAIRI MARISIH SAMBIO 04/03/1966 PECANGAAN WETAN 04/04 KAB. JEPARA
11843 1100454448 SIDIQ PRIMADONA 23/03/1988 BANDAR RT. 02 RW. 06 KAB. KARANGANYAR
11844 1100454451 MOH TOHA CHUSEN 26/09/1962 TLOGOREJO 7/3 TLOGOWUNGU KAB. PATI
11845 1100454452 MUSYAROFAH 23/6/1978 PERUM WIKU II RT 07 RW 05 KAB. DEMAK
11846 1100454454 KUSNIATI 31/12/1958 TULIS CEPOKO RT.03 RW.01 KAB. BATANG
11847 1100454456 TOMMY ARJANTO 23/10/1984 CEPOGO RT. 04 RW. 02 KAB. KARANGANYAR
11848 1100454457 LASANO 10/12/1964 RANCAH WETAN RT 04 RW 11 KAB. BOYOLALI
11849 1100454458 SITI NUR NUGRAHENI 15/01/1971 SARIREJO 11/1 PATI KAB. PATI
11850 1100454459 SISWANDONO HANTOYO PUTRO 24/04/1980 PERUM WIKU 2 RT 07 RW 05 KAB. DEMAK
11851 1100454460 LINDA RUSSITA 27/02/1986 CEPOGO RT 04 RW II KAB. KARANGANYAR
11852 1100454461 ABDISSALAM RIDWAN ABDUL 03/04/1964 KEDUNGLEPER 02/02 KAB. JEPARA
11853 1100454463 RISTANTI YUSTIN 28/04/1970 RANCAH WETAN RT 04 RW 11 KAB. BOYOLALI
11854 1100454464 MASROKAN 11/02/1970 REJOSARI RT.05/16 KAB. DEMAK
11855 1100454465 SUWAIBAH 17/06/1967 KRENGSENG KRAJAN RT.03 RW.02 KAB. BATANG
11856 1100454466 SUMINI 05/05/1962 BANDAR RT 02 RW 06 KAB. KARANGANYAR
11857 1100454467 TIN MURTININGRUM 02/04/1970 JL. GATUTKACA 17 RT.04 RW.12 KOTA SURAKARTA
11858 1100454468 SUSIA DJUNIATI MARZUKI 22/06/1963 TLOGOREJO 7/3 TLOGOWUNGU KAB. PATI
11859 1100454469 ENGGAR NOVITA 11/02/1995 BANDAR RT. 02 RW. 06 KAB. KARANGANYAR
11860 1100454470 ST. NUR ISNIYATI 05/03/1963 GRINGSING RT.02 RW.03 KAB. BATANG
11861 1100454471 AINA NEFA 04/09/1969 DSN. JAMBLANG RT. 04/02 KAB. MAGELANG
11862 1100454472 ROCHMAD SUKARJAN MURAH 29/05/1978 BENDAR 1/1 JUWANA KAB. PATI
11863 1100454473 MAS AKHMAD SUDIARTO 24/05/1983 JL. MADURA GG. JATI RT. 05/01 KOTA TEGAL
11864 1100454474 SITI ZULAIKHA RIFAI 02/02/1974 KEDUNGLEPER 02/02 KAB. JEPARA
11865 1100454475 WHIDIANA PRAMESTY NASRAN 28/07/1981 BENDAR 1/1 JUWANA KAB. PATI
11866 1100454477 NURAENI 22/06/1984 JL. MADURA GG. JATI RT. 05/01 KOTA TEGAL
11867 1100454478 IDA NURSANTI 03/02/1977 [Link] 44 RT 01/03 KAB. BLORA
11868 1100454481 FATCHUL SUPADYO 18/8/1962 DEPOK UTARA 01/01 KAB. GROBOGAN
11869 1100454482 ISLAMIYAH 13/10/1979 JATI REJO RT 03 RW 01 KAB. BOYOLALI
11870 1100454483 TARTI KUSMIYATI 14/04/1970 DEPOK UTARA 01/01 KAB. GROBOGAN
11871 1100454484 YUDI ARIDIAN NUGROHO 08/01/1977 [Link] 44 RT 01/03 KAB. BLORA
11872 1100454485 CHADHIROTUS SHOLICHA 24/06/1999 PETENGAN UTARA RT.07/08 KAB. DEMAK
11873 1100454487 SUSENO ATMOREJO KERTOREJO 18/05/1963 GEMEKSEKTI RT.10/03 KAB. KEBUMEN
11874 1100454488 TURYATI AMAD HASAN BASRI 1/2/1958 PUJODADI RT. 03. 01 BONOROWO KAB. KEBUMEN
11875 1100454489 RIDLWAN SULHADI ZAENAB 14/12/1958 KEDUNGBANG 4/1 TAYU KAB. PATI
11876 1100454490 SUDARNI KADAR SUJINAH 01/07/1960 DUKUHSETI 8/1 DUKUHSETI KAB. PATI
11877 1100454491 WAGIMAN 03/04/1970 JATI REJO RT 03 RW 01 KAB. BOYOLALI
11878 1100454493 SRI TANTO 17/04/1966 LUSAH 01/09 KAB. KLATEN
11879 1100454494 SHOFIATUN SAKIBI SUDARSI 4/12/1965 KEDUNGBANG 4/1 TAYU KAB. PATI
11880 1100454497 DWI HANDAYANI 25/12/1971 LUSAH 01/09 KAB. KLATEN
11881 1100454500 SURANI MEIWIYATI 08/05/1966 TOMPEN RT 03 RW 01 KAB. BOYOLALI
11882 1100454501 MUGIMAN 2/9/1958 TOMPEN RT 03 RW 01 KAB. BOYOLALI
11883 1100454502 MOH. FAUZI 27/11/1957 KRAJAN RT.03/02 LUMENENG PANINGGARAN KAB. PEKALONGAN
11884 1100454504 KHALIMI AMAR KATINI 04/02/1972 CENGKALSEWU 1/1 SUKOLILO KAB. PATI
11885 1100454505 MUNDAKIROH 3/7/1962 KRAJAN RT.03/02 LUMENENG PANINGGARAN KAB. PEKALONGAN
11886 1100454507 ANTI ESTHININGSIH SLAMET SISWOMARTONO 22/11/1965 GEMEKSEKTI RT.10/03 KAB. KEBUMEN
11887 1100454508 ELA MURILAH 10/09/1962 TEMBOK LOR RT.02/01 ADIWERNA KAB. TEGAL
11888 1100454509 SUS MARDIYAH 08/07/1979 DRINGO RT 02/01 KAB. BLORA
11889 1100454510 SITI MAHMUDATUN MAHMUDUN 04/02/1976 CENGKALSEWU 1/1 SUKOLILO KAB. PATI
11890 1100454512 DONNY KURNIAWAN 21/09/1976 DRINGO RT 02/01 KAB. BLORA
11891 1100454517 RUSMINAH SANMUNARI REJOPAWIRO 06/07/1957 PURWOSARI RT.01/01 KAB. KEBUMEN
11892 1100454518 SUGIHARTI PURWANINGSIH 08/09/1960 MOJOMULYO RT 01/08 KAB. SRAGEN
11893 1100454519 MASRI'AH 11/04/1973 KEL. JEPON RT 04/08 KAB. BLORA
11894 1100454521 SUTINI 06/07/1959 MAJASTO RT.01/RW.06 KAB. SUKOHARJO
11895 1100454522 SITI FAIJAH 02/10/1962 PUJUT RT.01 RW.02 KAB. BATANG
11896 1100454524 SYAMSUDIN 03/02/1966 GENTING RT.12/RW.03 KAB. KENDAL
11897 1100454525 BAHRUDDIN 01/01/1965 KEL. JEPON RT 04/08 KAB. BLORA
11898 1100454527 MIFTACHUL ULUM,SP 01/06/1961 TERSONO RT.01 RW.01 KAB. BATANG
11899 1100454528 SUHARYATI 21/08/1960 AJIBARANG WETAN RT. 2/6 KAB. BANYUMAS
NO NO. PORSI NAMA TANGGAL LAHIR ALAMAT KAB/KOTA KETERANGAN
11900 1100454529 MUSTOFIYAH 5/1/1974 GENTING RT.12/RW.03 KAB. KENDAL
11901 1100454530 SUDJONO 27/12/1958 AJIBARANG WETAN RT. 2/6 KAB. BANYUMAS
11902 1100454531 ARI RAHMAWATI 26/02/1980 MUNGUP RT.03 RW.02 SAWIT KAB. BOYOLALI
11903 1100454532 SUKANDAR 20/02/1959 PUJUT RT.01 RW.02 KAB. BATANG
11904 1100454533 CHAMIDAH 19/05/1961 TERSONO RT.01 RW.01 KAB. BATANG
11905 1100454534 DYAH IRAWATI 14/9/1966 POTROBANGSAN RT. 06 RW. 04 KOTA MAGELANG
11906 1100454535 SITI MARYAMAH 26/11/1960 MANTENAN RT 01 RW 02 KAB. BOYOLALI
11907 1100454536 SODIKIN,[Link].I 25/10/1959 TERSONO RT.04 RW.03 KAB. BATANG
11908 1100454537 SUSILOWATI SUHARDJO KARMITO 08/06/1961 SAMBUNG RT.02 RW.02 KAB. KUDUS
11909 1100454539 SITI NASIATI 01/12/1963 WONOKROMO RT.16 RW.05 KAB. PEMALANG
11910 1100454540 SARIPAN NGATIRAN SAEKANI 03/01/1959 SAMBUNG RT 02 RW 02 KAB. KUDUS
11911 1100454541 NASICHIN 01/10/1959 DSN 03 WONOKROMO RT. 16 RW. 05 KAB. PEMALANG
11912 1100454542 DARMI SUGIYANTINI 23/05/1965 SUMBANG RT 007 RW 001 KAB. BANYUMAS
11913 1100454545 TARMANI 03/02/1965 KLAREYAN RT.03 RW.01 KAB. PEMALANG
11914 1100454546 HAYATI 15/07/1971 KLAREYAN RT. 03 RW. 01 KAB. PEMALANG
11915 1100454547 KHURIYAH 26/06/1966 KALIBEBER RT 01 RW 07 KAB. WONOSOBO
11916 1100454549 M IQBAL SURYA NEGARA 11/06/1999 CENGKALSEWU 2/1 SUKOLILO KAB. PATI
11917 1100454550 MARYUDI 13/09/1965 GARUNG RT 09 RW 02 KAB. WONOSOBO
11918 1100454553 KUSMIYATUN 24/9/1965 JAMPEN 03/06 KAB. KLATEN
11919 1100454554 AIDA FITRI 26/12/1968 [Link] [Link] I/39 RT 08 RW 04 KAB. BANYUMAS
11920 1100454555 ALFA SETYARINI FATIMAH 18/10/1984 JL MELATI NO.14 03/11 KAB. KLATEN
11921 1100454557 LILIK SUTRISNO 13/08/1960 [Link] [Link] I/39 RT 08 RW 04 KAB. BANYUMAS
11922 1100454559 ARIE ANNA CHRISTANTI 04/01/1980 PANJER RT.04/12 JL. CENDRAWASIH 57 KAB. KEBUMEN
11923 1100454561 ACHMAD MUCHYIDIN 18/01/1984 JL MELATI NO.14 03/11 KAB. KLATEN
11924 1100454564 M MISBAHUL MUNIR BADRUDIN 01/08/1996 CENGKALSEWU 02/01 SUKOLILO KAB. PATI
11925 1100454565 MAHMUDAH 14/09/1964 JL. SUHADA NO.109, RT.03 RW.03 KAB. CILACAP
11926 1100454567 UMI LATIFAH 26/7/1964 KLAMPOK RT. 12/04 WANASARI KAB. BREBES
11927 1100454568 SOLKAN PAIDI PAINI 11/11/1975 SENENAN 18/06 KAB. JEPARA
11928 1100454569 HENGKY KURNIAWAN PRIYAMBODO 22/12/1980 PANJER RT. 03. 02 JL MAWAR 22 B KAB. KEBUMEN
11929 1100454570 THOBI'IN 07/02/1960 KLAMPOK RT. 12/04 WANASARI KAB. BREBES
11930 1100454571 SITI KHODRIYAH SUKIRMAN 17/08/1982 SENENAN 18/06 KAB. JEPARA
11931 1100454572 SUGIYONO 22/09/1959 JATIBARANG LOR RT.04/01 JATIBARANG KAB. BREBES
11932 1100454573 ACHMAD FAUZI EFFENDI 10/07/1980 JL. MANGUNJAYA NO.15 RT.07 RW.03 KAB. BANYUMAS
11933 1100454574 TATI RAHAYU, BA 21/06/1960 JATIBARANG LOR RT. 04/01 JATIBARANG KAB. BREBES
11934 1100454575 IMAM TURMUDI 01/02/1969 [Link] ARCAWIANGUN RT. 7/8 KAB. BANYUMAS
11935 1100454576 MAYAR 21/2/1969 GARUNG RT 09 RW 02 KAB. WONOSOBO
11936 1100454578 DIANA CATUR SETYASARI 14/11/1979 JL. MANGUNJAYA NO.15 RT.07 RW.03 KAB. BANYUMAS
11937 1100454579 TRI ENDANG RETNOWATI 16/07/1970 JL. SADEWA NO. 492 RT. 10 RW. 03 KAB. CILACAP
11938 1100454580 DARJO 04/01/1965 JL. NAKULA RT 04 RW 16 KAB. CILACAP
11939 1100454581 SUYATMI 28/03/1962 JL. NAKULA RT.004 RW.16 KAB. CILACAP
11940 1100454583 SOEPRIJATONO ,[Link] 04/11/1963 KAYUPURING KIDUL 03/17 KAB. MAGELANG
11941 1100454587 SITI YATIN 02/06/1969 KEDUNG WARU KIDUL RT 02 RW 05 KAB. DEMAK
11942 1100454588 PURWANTO 28/09/1964 JL. SADEWA NO. 492 RT. 10 RW. 03 KAB. CILACAP
11943 1100454589 ILYAS 10/07/1965 KEDUNG WARU KIDUL RT 02 RW 05 KAB. DEMAK
11944 1100454590 BADRUDIN KHODHORI KAMSIRAH 14/08/1959 CENGKALSEWU 02/01 SUKOLILO KAB. PATI
11945 1100454591 MARYONO 1/6/1962 BANYUANYAR RT.02 RW.08 KOTA SURAKARTA
11946 1100454592 SITI AZIZAH 11/11/1973 KAYUPURING KIDUL RT. 03/01 KAB. MAGELANG
11947 1100454593 SRI SUPARTINI 17/4/1967 GEMPOL BAPANG RT.04/RW.02 KAB. KENDAL
11948 1100454594 SRI MARZUNI 11/12/1967 BANYUANYAR RT 02 RW 08 KOTA SURAKARTA
11949 1100454595 DEWI ITA OKTAVIANI 11/10/2001 TOMPEGUNUNG 1/1 SUKOLILO KAB. PATI
11950 1100454597 WIDIYATNO 11/02/1967 GEMPOL BAPANG RT.04/RW.02 KAB. KENDAL
11951 1100454598 MAKHASIN 12/05/1976 CANGKREP KIDUL RT 02/05 KAB. PURWOREJO
11952 1100454599 SRI SUNARWAN 22/05/1964 WIRENGAN RT 03 RW 04 KOTA SURAKARTA
11953 1100454600 NUR ARIFAH 20/2/1972 GERGUNUNG 01/05 KAB. MAGELANG
11954 1100454602 UMI NURHAYATI 29/11/1972 BEBENGAN 05/08 KAB. MAGELANG
11955 1100454604 SUGENG HARYANTO 29/09/1970 BEBENGAN 05/08 KAB. MAGELANG
11956 1100454606 ARIS WINARNA 04/08/1966 JAMBLANG 04/02 KAB. MAGELANG
11957 1100454612 SAHID 10/05/1961 TUBAN RT 42 RW 10 KAB. WONOSOBO
11958 1100454614 ENDANG PURWANTI 06/12/1967 PELEM RT 01 RW 01 KAB. BOYOLALI
11959 1100454616 RIANTINAH 05/09/1972 SEMONO RT 05 RW 02 KAB. BOYOLALI
11960 1100454617 SUPRIYANTO 30/03/1966 MENDONGAN RT.018 RW.05 KAB. SEMARANG
11961 1100454618 MISTICHANAH SARPIN TARSONO 27/05/1971 JEPANGPAKIS RT 03 RW 05 KAB. KUDUS
11962 1100454619 KHUMAIDI 03/03/1959 GG. MURBEI RT.10/RW.02 KAB. KENDAL
11963 1100454621 SADMOKO DANARDONO 19/1/1971 TAMAN PATRA INDAH E/18 RT. 05 RW.20 KAB. CILACAP
11964 1100454622 BAMBANG SUTRISNO 18/11/1972 JL. BUKIT BARISAN BLOK D-V/9 RT.01/10 KOTA SEMARANG
11965 1100454623 RUSMINI 22/4/1965 TUBAN RT 42 RW 10 KAB. WONOSOBO
11966 1100454624 SITI WIJAYANTI 20/12/1970 TAMAN PATRA INDAH E/18 RT.05 RW.20 KAB. CILACAP
11967 1100454626 MOCHAMAD CHOIRUL MAQSUDA 09/06/1966 JEPANGPAKIS RT 03 RW 05 KAB. KUDUS
11968 1100454627 MUCHAMAD FAUZI,SE,MM 17/02/1973 WALANGSANGA RT.04 RW.01 KAB. PEMALANG
11969 1100454628 RIZKY FAJAR ADI PUTRA 22/02/1990 JL. CANDI MAS I NO.450 RT.05/06 KOTA SEMARANG
11970 1100454630 HJ. MUBARIZAH, [Link] 12/4/1975 WALANGSANGA RT 04 RW 01 KAB. PEMALANG
11971 1100454631 MUNTAMAH 10/12/1968 GG. MURBEI RT.10/RW.02 KAB. KENDAL
11972 1100454632 NANANG RAHARJO KARYONO 15/9/1968 SANGKANAYU RT.05/01 BOJONG KAB. TEGAL
11973 1100454634 MASTUTI 30/11/1971 SANGKANAYU RT.05/01 BOJONG KAB. TEGAL
11974 1100454637 USWATUN KHASANAH 09/03/1985 KEMBARAN RT 04 RW 04 KAB. WONOSOBO
11975 1100454639 SITI MUNIPAH 12/02/1972 [Link] 8 ARCAWINANGUN RT. 1/8 KAB. BANYUMAS
11976 1100454640 LUKLUUL MAKNUN BADRUDIN 16/01/1996 CENGKALSEWU 2/1 SUKOLILO KAB. PATI
11977 1100454643 MUSLIM 23/06/1975 KEMBARAN RT 04 RW 04 KAB. WONOSOBO
11978 1100454644 SUNARJI 24/08/1958 KRUKEMAN RT 25 RW 03 KAB. BOYOLALI
11979 1100454646 IMAM WAHYUDI 7/11/1957 MERTAN RT.02 RW.16 KAB. MAGELANG
11980 1100454647 NARYO 13/10/1974 PUCUNGWETAN RT 12 RW 04 KAB. WONOSOBO
11981 1100454648 NANIK FATIMAH 09/06/1970 KRUKEMAN RT 025 RW 03 KAB. BOYOLALI
11982 1100454650 KURNINGSIH 05/05/1979 PUCUNGWETAN RT 12 RW 04 KAB. WONOSOBO
11983 1100454654 SUTIYEM 27/08/1962 JL. MERAK NO. 22 RT. 03 KAB. CILACAP
11984 1100454658 HATNO 15/7/1973 SEMANGKUNG RT 001 RW 001 KAB. BANJARNEGARA
11985 1100454659 YATMI 31/12/1961 GUNUNG SARI RT.04/RW.07 KAB. KENDAL
11986 1100454661 WAKINEM 22/03/1977 SEMANGKUNG RT 002 RW 002 KAB. BANJARNEGARA
11987 1100454662 WAHONO, DRS, MM 6/2/1961 GETAS RT. 02 RW. 09 KAB. KARANGANYAR
11988 1100454663 BAMBANG RUYANI 30/12/1957 GUNUNG SARI RT.04/RW.07 KAB. KENDAL
11989 1100454664 SUKUR 20/11/1974 SEMANGKUNG RT 002 RW 002 KAB. BANJARNEGARA
11990 1100454665 SUMARMAN 05/07/1959 KRAJAN RT.02/RW.02 KAB. KENDAL
11991 1100454670 MULYONO 18/4/1959 MACANAN RT. 01 RW. 02 KAB. KARANGANYAR
11992 1100454671 NOVIE SAPTANING TIAS 16/11/1965 [Link] RAYA NO.44 RT.02 RW.08 KAB. KENDAL
11993 1100454672 ROSIDAH 20/12/1974 JOLONTORO RT 03 RW 04 KAB. WONOSOBO
11994 1100454673 SUTI 26/06/1968 MACANAN RT 01 RW 02 KAB. KARANGANYAR
11995 1100454675 YATIM KURNIADI 27/07/1970 GSP JL. BIAK B. 22 NO. 357 RT. 02 /13 KAB. CILACAP
11996 1100454676 SOLEHAN 28/09/1971 JOLONTORO RT 03 RW 04 KAB. WONOSOBO
11997 1100454677 RETNO MARFIATUL HIDAYAH 04/04/1967 METESEH 05/05 KAB. MAGELANG
11998 1100454678 DARU PURBOWATI, SH 10/09/1968 GETAS RT. 02 RW. 09 KAB. KARANGANYAR
11999 1100454679 CICIK SETYORINI 07/05/1970 GSP JL. BIAK B. 22 NO. 357 RT. 02 /13 KAB. CILACAP
12000 1100454680 IRAWAN UJIYONO 20/3/1967 NGADIRESO RT 06 RW 03 KAB. WONOSOBO
12001 1100454683 NARWIYAH 20/11/1968 SENDEN 05/02 KAB. MAGELANG
12002 1100454687 ISTIROAH 13/02/1970 BANJARANYAR RT 01 RW 05 KAB. BANYUMAS
12003 1100454688 MUHLASIN 19/06/1964 CIKALAN KARANGSARI RT 17 RW 04 KAB. WONOSOBO
12004 1100454689 SENO 12/05/1975 SEMANGKUNG RT 002 RW 002 KAB. BANJARNEGARA
12005 1100454690 WARSONO, SPD 16/07/1959 METESEH 05/05 KAB. MAGELANG
12006 1100454691 WARTIYAH 06/07/1977 SEMANGKUNG RT 002 RW 002 KAB. BANJARNEGARA
12007 1100454692 YATIMAH 10/5/1975 SEMANGKUNG RT 001 RW 001 KAB. BANJARNEGARA
12008 1100454693 UMAR ALI 31/12/1957 KAMPUNG KAUMAN 03/02 KAB. GROBOGAN
12009 1100454694 MAHFUDIN 23/03/1972 GLETOSARI RT.03 RW.03 KAB. WONOSOBO
12010 1100454695 TITIK HANDAYANI 03/05/1958 KRAJAN II RT.04 RW.02 BENER KAB. SEMARANG
12011 1100454696 ABIDATUL MAGHFIROH 26/01/1973 GLETOSARI RT 03 RW 03 KAB. WONOSOBO
12012 1100454697 SUBINAH 22/04/1968 GUDANG RT 03 RW 01 KAB. WONOSOBO
12013 1100454698 SUNARTI SUMARTO NGADIMIN 22/04/1962 BAKALANKRAPYAK RT 06 RW 03 KAB. KUDUS
12014 1100454699 NUGROHO AGUS SANTOSO 17/08/1963 ARGOPENI INDAH 52 A RT 02 RW 11 KAB. WONOSOBO
12015 1100454701 SITI NASIKAH 28/07/1958 DSN. PAKIS RT.02 RW.01 KAB. SEMARANG
12016 1100454702 NARSONO 25/8/1976 RANCAMAYA RT 06 RW 04 KAB. BANYUMAS
12017 1100454704 PUJIATI ANI SETIYAWATI 13/10/1978 GEMUHBLANTEN RT.03 RW.02 KAB. KENDAL
12018 1100454705 MUHAMMAD ARWANI 05/06/1973 JATIREJO RT.08 RW.03 KAB. SEMARANG
12019 1100454706 KHASIYATUN 03/06/1970 BOGELAN RT 03 RW 03 KAB. WONOSOBO
12020 1100454707 SUTRIMAN SUNTI SAKERAH 11/06/1964 TANJUNGANOM 07/05 GABUS KAB. PATI
12021 1100454708 SAIFUDIN 25/3/1960 PAKIS RT.02 RW.01 KAB. SEMARANG
12022 1100454709 TIKAH RAMIN SAINI 17/11/1967 TANJUNGANOM 07/05 GABUS KAB. PATI
12023 1100454711 SARDI KASDI SANIRAH 05/02/1962 LANGENHARJO 02/02 MARGOREJO KAB. PATI
12024 1100454712 KUMINAH KARNADI WARNI 28/06/1958 LANGENHARJO 02/02 MARGOREJO KAB. PATI
12025 1100454717 LUTHFIYAH 14/07/1967 WONOYOSO GG.2 RT.16/04 BUARAN KAB. PEKALONGAN
12026 1100454720 ISLAMIYAH 31/08/1971 SIDOREJO RT.05 RW.08 KAB. KENDAL
12027 1100454721 JUMI NURKHASANAH 15/09/1978 RANCAMAYA RT. 6/4 KAB. BANYUMAS
NO NO. PORSI NAMA TANGGAL LAHIR ALAMAT KAB/KOTA KETERANGAN
12028 1100454722 SUAEDAH, AMD 20/05/1973 JL MALIK IBRAHIM NO. 38 RT. 01/02 BREBES KAB. BREBES
12029 1100454723 ABDUL FATAH 16/04/1964 WONOYOSO GG.2 RT.16/04 BUARAN KAB. PEKALONGAN
12030 1100454727 NAFI'AH 22/03/1966 API-API RT.03/01 WONOKERTO KAB. PEKALONGAN
12031 1100454728 ABDULLAH 27/03/1959 API-API RT.03/01 WONOKERTO KAB. PEKALONGAN
12032 1100454729 NUR YASIN 5/2/1983 REMBUN LOR RT.02/04 SIWALAN KAB. PEKALONGAN
12033 1100454730 WALUYA SIHANA 15/11/1970 SIDOREJO RT.05 RW.08 KAB. KENDAL
12034 1100454732 UMI LAELI 27/8/1967 GUNUNGJATI RT 002 RW 002 KAB. BANJARNEGARA
12035 1100454735 KHUROTUL KHASANAH 10/10/1984 REMBUN LOR RT.02/04 SIWALAN KAB. PEKALONGAN
12036 1100454736 JUARIYAH 06/05/1981 NAGASARI. RT. 001/002 KAB. BANJARNEGARA
12037 1100454737 JUMA 16/07/1976 NAGASARI RT 001 RW 002 KAB. BANJARNEGARA
12038 1100454738 MINEM 01/07/1972 NAGASARI. RT. 002/002 KAB. BANJARNEGARA
12039 1100454740 TAHYATI 11/08/1961 SEMBUNGAN RT 01 RW 01 KAB. WONOSOBO
12040 1100454741 RUDI HARTONO 07/07/1972 WIRODITAN RT.07/02 BOJONG KAB. PEKALONGAN
12041 1100454742 ZAHROTIN 30/03/1970 WIRODITAN RT.07/02 BOJONG KAB. PEKALONGAN
12042 1100454743 GIMAN KAYAT SOWIJOYO 06/07/1963 KUTUK RT 02 RW 04 KAB. KUDUS
12043 1100454745 MUHISAM 03/07/1959 SEMBUNGAN RT 01 RW 01 KAB. WONOSOBO
12044 1100454747 RUSIDAH SUMARMO KASWADI 09/08/1964 KUTUK RT 02 RW 04 KAB. KUDUS
12045 1100454752 MISRI WARNI 07/05/1961 JL. PAHLAWAN I RT.18/RW.04 KAB. KENDAL
12046 1100454753 SUMARNI DIRUN ABDULLAH 25/05/1959 PEDAWANG RT 06 RW 01 KAB. KUDUS
12047 1100454754 DALDIRI 20/02/1972 BAKALAN RT06 RW08 KAB. WONOSOBO
12048 1100454755 SITI ASIYAH 15/09/1965 SARI 01/07 KAB. GROBOGAN
12049 1100454756 ADROI 08/08/1983 NGROTO 02/02 KAB. GROBOGAN
12050 1100454759 KUSHADI JOKO MULYONO 3/5/1967 BANGKLE 01/02 KAB. GROBOGAN
12051 1100454763 MARYATUN 31/12/1959 MOJOKERTO 11/06 KAB. KLATEN
12052 1100454764 TUWARNO 01/07/1963 NAGASARI RT 002 RW 002 KAB. BANJARNEGARA
12053 1100454767 SUKARNI 03/12/1957 TEGALMULYO 10/06 KAB. KLATEN
12054 1100454770 DWI WINARNO 31/08/1969 TAJEMSARI 01/03 KAB. GROBOGAN
12055 1100454772 ROICHATUL MISKIYAH 25/05/1982 NGROTO 01/01 KAB. GROBOGAN
12056 1100454773 SITI MUKAYANAH 08/06/1968 GLAPAN 03/01 KAB. GROBOGAN
12057 1100454774 MASKUDI 11/09/1972 NGROTO 01/01 KAB. GROBOGAN
12058 1100454775 SRI SUMIYATI 31/01/1964 BENINGREJO RT. 01 RW. 05 KAB. KARANGANYAR
12059 1100454777 SURAKUN 11/08/1959 BENINGREJO RT. 01 RW. 05 KAB. KARANGANYAR
12060 1100454778 NARTI 30/01/1987 BAKALAN RT 06 RW 08 KAB. WONOSOBO
12061 1100454779 KIRIYANTO 5/6/1968 JL. GURITA VI NO.17 RT.02 RW.12 KAB. SEMARANG
12062 1100454781 WARGONO 28/12/1957 TUNGU 03/01 KAB. GROBOGAN
12063 1100454782 EVI LOIS SETYOWATI 24/12/1968 JAWAR RT 01 RW 01 KAB. WONOSOBO
12064 1100454783 RUKMINI 26/8/1968 KARONSIH SELATAN VII/613 RT.04/06 KOTA SEMARANG
12065 1100454785 WARSINI 27/10/1962 TUNGU 03/01 KAB. GROBOGAN
12066 1100454786 ASTRID CERYLLIA LESLEI 26/9/1994 JAWAR RT 01 RW 01 KAB. WONOSOBO
12067 1100454788 SRI ISNI KURNIANINGSIH 15/11/1967 GLAPAN 02/01 KAB. GROBOGAN
12068 1100454789 M. AGUS ADHIM FARA 7/8/1978 PUCUNG RT.07/02 TIRTO KAB. PEKALONGAN
12069 1100454790 TRI UTAMI 14/11/1969 JL. GURITA VI NO.17 RT.02 RW.12 KAB. SEMARANG
12070 1100454791 GAMAL SUKENDRO 06/06/1965 JAWAR RT.01 RW.01 KAB. WONOSOBO
12071 1100454792 GURIPNO 08/07/1964 KARONSIH SELATAN VII/613 RT.04/06 KOTA SEMARANG
12072 1100454793 WAGIMIN PRAYITNO 13/09/1970 SIRUNTING RT 01 RW 02 KAB. WONOSOBO
12073 1100454794 SUKIYAH 19/02/1962 SUMBERAN BARAT RT 02 RW 02 KAB. WONOSOBO
12074 1100454795 WIGNYO PRATOMO 01/12/1957 SUMBERAN BARAT RT 02 RW 02 KAB. WONOSOBO
12075 1100454797 MOHAMAD MAFTUH, DRS 25/07/1962 GEMBONG KULON RT.13/05 TALANG KAB. TEGAL
12076 1100454798 NUR TAUFIQ 02/12/1963 MENDIRO RT.02 RW.07 KAB. SEMARANG
12077 1100454799 H. MUHDI 04/11/1959 PULOSARI RT 02 RW 01 KAB. WONOSOBO
12078 1100454800 MARIKEM 13/01/1978 BANJARARJO RT. 04. 02 KAB. KEBUMEN
12079 1100454801 SETIYATUN 10/06/1959 NGEMPON RT.05 RW.05 KAB. SEMARANG
12080 1100454802 DARSIH 14/09/1968 BANGKLE 01/02 KAB. GROBOGAN
12081 1100454803 BAGUS SUSILO WAHYONO 8/7/1968 GLAPAN 02/01 KAB. GROBOGAN
12082 1100454804 SUMARNI 11/12/1957 BANGON RT 04 RW 06 KAB. WONOSOBO
12083 1100454805 MARDIYONO 07/11/1961 SANDANGSARI 80 RT. 03/08 KAB. MAGELANG
12084 1100454806 SARBINI MADISAN MUHAMAD SOLEH 03/08/1960 KARANGDUWUR RT. 06. 01 KAB. KEBUMEN
12085 1100454807 LUKLUATUN 10/08/1978 GLAPAN 02/01 KAB. GROBOGAN
12086 1100454808 NOK SUKESIH, DRA 06/11/1970 GEMBONG KULON RT.13/05 TALANG KAB. TEGAL
12087 1100454810 HINDUN 10/6/1969 MENDIRO RT.02 RW.07 KAB. SEMARANG
12088 1100454811 MIFTAHUR ROHMAH 14/12/1972 NGROTO 01/01 KAB. GROBOGAN
12089 1100454812 AHMAD SHOCHIB 27/7/1962 TEGOWANU WETAN 02/01 KAB. GROBOGAN
12090 1100454814 WAESTUN 31/12/1959 KEDUNGSUKUN RT.19/02 ADIWERNA KAB. TEGAL
12091 1100454816 SUPARYATI 4/11/1964 TEGOWANU WETAN 02/01 KAB. GROBOGAN
12092 1100454817 TULUS WIJAYANTO 12/12/1963 BANJARANYAR RT. 1/5 KAB. BANYUMAS
12093 1100454818 FAUZIYAH ADHIM 16/12/1986 PUCUNG RT.07/02 TIRTO KAB. PEKALONGAN
12094 1100454821 KHUDHORI 16/01/1969 NGROTO 01/01 KAB. GROBOGAN
12095 1100454823 MARYATI 3/9/1960 NGROTO 04/05 KAB. GROBOGAN
12096 1100454824 WIYANTI 24/11/1967 JL. NUSA INDAH NO. 50 RT, 3 RW. 7 KOTA PEKALONGAN
12097 1100454825 WAESATUN 31/12/1960 KEDUNGSUKUN RT.09/02 ADIWERNA KAB. TEGAL
12098 1100454828 MARFUAH 01/07/1959 GLAPAN 02/01 KAB. GROBOGAN
12099 1100454829 ATIKAH 15/04/1958 BREBES LOR RT. 02/18 BREBES KAB. BREBES
12100 1100454831 SULAIMI 27/06/1971 POLAMAN 02/04 KAB. GROBOGAN
12101 1100454832 ULWIYAH 10/04/1976 POLAMAN 02/04 KAB. GROBOGAN
12102 1100454834 MUHAMAD ALI NUR IMAN 04/04/1991 KEDUNGSUKUN RT.09/02 ADIWERNA KAB. TEGAL
12103 1100454836 ALFIATUN 5/4/1985 GLAPAN 01/01 KAB. GROBOGAN
12104 1100454837 MUARIF 10/12/1984 GLAPAN 01/01 KAB. GROBOGAN
12105 1100454838 AGUS SUNARYO 03/04/1971 GLAPAN 03/01 KAB. GROBOGAN
12106 1100454839 DRS. GUSFIAN 15/8/1967 MAGERSARI RT 21 RW 08 KAB. BOYOLALI
12107 1100454840 ISROFAH 17/10/1972 GLAPAN 03/01 KAB. GROBOGAN
12108 1100454841 SITI SOLICHAH NURHAYATI 04/07/1969 MAGERSARI RT 21 RW 08 KAB. BOYOLALI
12109 1100454842 MUHAMMAD AINUR ROHMAN 31/05/1992 KRAJAN 01/01 KAB. GROBOGAN
12110 1100454844 MUHAMMAD BAHRI 28/02/1977 GETAS 01/05 KAB. GROBOGAN
12111 1100454847 SYAIFULLOH 01/10/1986 KRAJAN 01/01 KAB. GROBOGAN
12112 1100454848 BUDIONO 01/07/1965 TREMBULREJO RT 01 RW 05 KAB. BLORA
12113 1100454850 ANA LISTIANA LUTFIYAH 08/07/1978 KEDUNGORI RT.05/02 KAB. DEMAK
12114 1100454851 AZIZAH 12/9/1967 KRAJAN 01/01 KAB. GROBOGAN
12115 1100454854 SOFIATUN AMALIAH 11/11/1976 BEDUG RT.08/03 PANGKAH KAB. TEGAL
12116 1100454855 SUSIYANTO 15/07/1975 KEDUNGORI RT.05/02 KAB. DEMAK
12117 1100454856 UMI ULFAH 08/07/1987 KRAJAN 01/01 KAB. GROBOGAN
12118 1100454857 SUKATMI 01/01/1968 TREMBULREJO RT 01/05 KAB. BLORA
12119 1100454858 FATKUROHMAN 06/06/1966 KRAJAN 01/01 KAB. GROBOGAN
12120 1100454859 MURNIATI LONDA 09/01/1960 GLAPAN 02/01 KAB. GROBOGAN
12121 1100454860 MU'MIN 12/3/1968 BEDUG RT.08/03 PANGKAH KAB. TEGAL
12122 1100454861 SAMINEM 22/12/1973 JL. JERUK RT.003 RW.08 KAB. CILACAP
12123 1100454864 SIROJ 02/10/1970 GLAPAN 03/01 KAB. GROBOGAN
12124 1100454866 SARYADI 07/09/1959 GLAPAN 02/01 KAB. GROBOGAN
12125 1100454870 AHMAD MALIK 15/7/1971 GLAPAN 02/01 KAB. GROBOGAN
12126 1100454871 SOBRI, DRS 27/11/1966 TEGALWANGI RT.10/04 TALANG KAB. TEGAL
12127 1100454873 HARTINI 12/06/1964 TUNGU 06/01 KAB. GROBOGAN
12128 1100454876 WIDIAWATI 23/3/1974 TEGALWANGI RT.10/04 TALANG KAB. TEGAL
12129 1100454877 DAMSURI 22/11/1958 TUNGU 06/01 KAB. GROBOGAN
12130 1100454879 DIAN KURNIASIH 04/12/1977 GETAS 01/05 KAB. GROBOGAN
12131 1100454881 SUDIMAN 07/03/1967 NGARES RT.01/RW.03 KAB. SUKOHARJO
12132 1100454883 ASRI RAHAYUNI 21/03/1972 GLAPAN 03/01 KAB. GROBOGAN
12133 1100454884 SUKAMTINI 22/05/1961 PENTUKREJO RT. 03 RW. 09 KAB. KARANGANYAR
12134 1100454885 ACHMAD MUFARIKHIN 02/03/1967 GLAPAN 03/01 KAB. GROBOGAN
12135 1100454887 YUSRON 10/08/1962 WONOLOBO RT 01 RW 02 KAB. WONOSOBO
12136 1100454888 SUYATI 18/08/1959 MODINAN RT. 01 RW. 06 KAB. KARANGANYAR
12137 1100454890 SUGENG WALUYO 25/03/1963 MRANGGEN KULON 17/08 KAB. MAGELANG
12138 1100454893 DIAH PARAMITA 11/09/2001 GLAPAN 03/01 KAB. GROBOGAN
12139 1100454897 NUR FARIDA 04/04/1984 GLAPAN 03/01 KAB. GROBOGAN
12140 1100454899 RISTINA HANDAYANI ASFAH 15/01/1976 BENDOSARI GEDE 04/16 KAB. MAGELANG
12141 1100454901 NUR AZIZAH 18/04/1965 GLAPAN 02/01 KAB. GROBOGAN
12142 1100454903 SRI HARYATI 12/06/1966 MRANGGEN KULON 17/08 KAB. MAGELANG
12143 1100454909 ROHMAH 15/8/1968 SENDANG MULYO RT 06 RW 018 KOTA SURAKARTA
12144 1100454911 SITI MUAWANAH 15/12/1967 KRAKITAN RT.05 RW.05 KAB. MAGELANG
12145 1100454912 MUJIB HARSONO 26/04/1969 BENDOSARI GEDE RT.04 RW.16 KAB. MAGELANG
12146 1100454913 NGADINEM 28/09/1964 KLODRAN RT. 04 RW. 01 KAB. KARANGANYAR
12147 1100454914 KARYANAH 01/06/1962 KLITIH RT.08/02 KAB. DEMAK
12148 1100454917 WAHONO 10/06/1958 BONYOKAN 05/02 KAB. KLATEN
12149 1100454918 NANANG TAUFIQILLAH 07/09/1976 GLAPAN 03/01 KAB. GROBOGAN
12150 1100454919 ASROFAH 19/01/1961 NGROTO 04/02 KAB. GROBOGAN
12151 1100454921 SUTINEM SEPTIANI 23/09/1972 GLAPAN 02/01 KAB. GROBOGAN
12152 1100454923 SUHARTI NGARI SUPAR 19/03/1968 KELET RT 22/03 KAB. JEPARA
12153 1100454924 MUZAIROTUN 27/02/1962 KRANGKUNGAN 17/07 KAB. KLATEN
12154 1100454925 MAHMUDATUN, DRA 18/04/1967 KP. PANDEAN TMN HARJO 21-23 RT.05/01 KOTA SEMARANG
12155 1100454926 MASHUDI 27/07/1967 GLAPAN 03/01 KAB. GROBOGAN
NO NO. PORSI NAMA TANGGAL LAHIR ALAMAT KAB/KOTA KETERANGAN
12156 1100454927 TRI GINIARTI 04/06/1958 SURODENTO RT 01 RW 06 KAB. WONOSOBO
12157 1100454928 SULASTO 01/07/1964 PAKIS RT.06 RW.01 KAB. KENDAL
12158 1100454930 SITI ASIYAH 07/08/1958 Ds. SUKOHARJO KAB. PATI
12159 1100454931 ACHMAD HARYANA 27/02/1964 KRAKITAN 05/05 KAB. MAGELANG
12160 1100454933 WAHYU DWI NURYANAH 01/01/1964 PAKIS RT.06 RW.01 KAB. KENDAL
12161 1100454934 DIMAS KHARISMA RAMADHANI 19/03/1991 JL. ARJUNA NO. 15 RT. 3 RW. 7 PANJANG IN KOTA PEKALONGAN
12162 1100454936 BUDI ASTUTI 13/2/1972 KOMPLEK ANTARIKSA RT. 02 RW. 12 KAB. KARANGANYAR
12163 1100454937 SITI UMIYATI 19/11/1960 JL. ARJUNA 15 RT. 3/7 PANJANG INDAH KOTA PEKALONGAN
12164 1100454938 AHMAD JUNAIDI 01/07/1971 KOMPLEK ANTARIKSA RT. 02 RW. 12 KAB. KARANGANYAR
12165 1100454940 TITIK RUHAYATI 21/09/1961 SOROGATEN RT. 04 RW. 10 KAB. KARANGANYAR
12166 1100454942 MUZAYANAH, [Link] 03/02/1973 DUKUH BABAKAN RT.03/05 JATIMULYA KAB. TEGAL
12167 1100454945 AR ASTUTIK 04/08/1964 BUMIREJO I RT. 14/04 KAB. MAGELANG
12168 1100454946 PANEMI 14/01/1965 DUSUN KEMRONCONG RT.001 RW.03 KAB. CILACAP
12169 1100454947 MULYANTA 17/09/1962 SOROGATEN RT. 04 RW. 10 KAB. KARANGANYAR
12170 1100454948 NIHRON MUJADDID , SH 3/8/1967 SEMPU 09/04 KAB. MAGELANG
12171 1100454949 WIDAYAT 15/10/1964 BUMIREJO 14/04 KAB. MAGELANG
12172 1100454950 HARLIYADI 09/02/1962 KARANGAWEN RT.02/08 KAB. DEMAK
12173 1100454951 MUH SOLEH 14/02/1968 NGEMPLAK 02/11 KAB. MAGELANG
12174 1100454952 MUSTAMID, [Link] 5/3/1970 DUKUH BABAKAN RT.03/05 JATIMULYA KAB. TEGAL
12175 1100454953 SEMI WAHYUNINGSIH 30/12/1966 KARANGAWEN RT.02/08 KAB. DEMAK
12176 1100454954 TITI PURWANTI 21/08/1969 PERUM GRIYA PERMATA ASRI D15 RT. 02/15 KAB. KARANGANYAR
12177 1100454957 SUYADI 25/01/1963 PERUM GRIYA PERMATA ASRI NO D15 RT. 2/15 KAB. KARANGANYAR
12178 1100454962 SURADI 12/05/1973 BANARAN RT 09 KAB. SRAGEN
12179 1100454964 RIA WIDYAWATI 23/03/1982 BANARAN RT 09 KAB. SRAGEN
12180 1100454965 SITO, S. SOS. 18/02/1959 PERUM BSP I BLOK E NO. 12 RT 04 RW 10 KAB. BOYOLALI
12181 1100454969 HARNANINGSIH 24/05/1962 PERUM BSP I BLOK E NO. 12 RT 04 RW 10 KAB. BOYOLALI
12182 1100454970 RIDA PRASETYANI 01/11/1968 JL. HARTONO NO 10 RT 01 RW 02 KAB. PURBALINGGA
12183 1100454971 EDI SUSANTO 08/08/1979 PONCOL RT.03/07 LARANGAN KAB. BREBES
12184 1100454972 ISMIATUN 30/06/1966 KALIWENANG 02/02 KAB. GROBOGAN
12185 1100454973 AGUS SUSANTIYO 08/08/1964 JL. HARTONO NO 10 RT 01 RW 02 KAB. PURBALINGGA
12186 1100454974 SUDINI 11/9/1980 DK. PONCOL RT.03/07 LARANGAN KAB. BREBES
12187 1100454977 SIGIT PRASETYONO 20/12/1965 GLAPAN 03/01 KAB. GROBOGAN
12188 1100454983 SITI SAPUROH 28/11/1977 JATIBOGOR RT.02/05 SURADADI KAB. TEGAL
12189 1100454985 WARJONO 21/06/1964 [Link] BASAR RT.1/2 KUTASARI KAB. BANYUMAS
12190 1100454986 CUSMIATI 10/04/1966 [Link] RT.03 RW.11 KAB. PEMALANG
12191 1100454987 SUTIKNO 19/9/1975 JATIBOGOR RT.02/05 SURADADI KAB. TEGAL
12192 1100454988 GATI LESTARI 22/11/1965 KUTASARI RT 01 RW 02 KAB. BANYUMAS
12193 1100454990 SITI MAHMUDAH 10/12/1968 DUSUN BADAAN RT.02/RW.06 KAB. KENDAL
12194 1100454992 SATITI ASRI HADIYATMI 05/10/1969 GLAPAN 03/01 KAB. GROBOGAN
12195 1100454993 RISMAN 21/07/1966 GAMBARSARI RT. 3/1 KAB. BANYUMAS
12196 1100454994 ISTIQOMAH 24/07/1962 GREMET RT 05 RW 11 KOTA SURAKARTA
12197 1100454995 SOLEH 17/03/1959 NGROTO 04/02 KAB. GROBOGAN
12198 1100454996 HARUN 05/08/1957 JL. ANATA MANGKUYUDAN RT. 01/04 KAB. SUKOHARJO
12199 1100454998 WAHYU CATUR PUTRO 09/09/1995 SENDANGAN 05/09 KAB. KLATEN
12200 1100454999 SITI CHUSNUL CHOTIMAH 16/1/1964 GLAPAN 03/01 KAB. GROBOGAN
12201 1100455000 RIDWAN PURNOMO 20/12/1986 KURIPAN RT.005 RW.001 WATUMALANG WONOSOBOKAB. GROBOGAN
12202 1100455002 KHAERURIZAL, [Link] 15/04/1976 TUWEL RT.03/01 BOJONG KAB. TEGAL
12203 1100455003 MARIYATUN 15/09/1965 JUNGPASIR RT.02/05 KAB. DEMAK
12204 1100455004 MUKHAELANI 19/05/1965 POLAMAN 02/04 KAB. GROBOGAN
12205 1100455005 MUHLASIN 06/08/1967 PETUGAN 01/01 KAB. MAGELANG
12206 1100455006 FIKRIYATUL ANIQOH 06/09/1987 TUWEL RT.03/01 BOJONG KAB. TEGAL
12207 1100455008 WASKITO AJI 09/06/1961 [Link] III/24 RT 01/08 TELUK KAB. BANYUMAS
12208 1100455010 SRI INDARSIH 13/03/1962 [Link] III NO.24 RT. 1/8 TELUK KAB. BANYUMAS
12209 1100455013 ZAENAL MAHASIN 06/01/1983 PER. GRIYA SEKAR GADING BLK K/6 RT.05/03 KOTA SEMARANG
12210 1100455014 LAELATUL MUSTAGHFIROH 10/4/1968 DANAWARIH RT.03/04 BALAPULANG KAB. TEGAL
12211 1100455017 KUSNAN 10/11/1960 NGRAJEG RT 12 RW 03 KAB. BOYOLALI
12212 1100455024 SUNARTI 26/04/1968 JL. GG. MERAPI NO 3 4/18 KAB. GROBOGAN
12213 1100455029 MURTINI MUSTAJAB KLIWON 24/05/1960 BALONG 06/01 KEC. KEMBANG KAB. JEPARA
12214 1100455033 SITI HARYANI DARUSMIN TAMAREJA 21/04/1973 TANGGERAN RT. 01. 05 KAB. KEBUMEN
12215 1100455034 SYAMSUL MA'ARIF 07/06/1963 GOLENG 04/04 KAB. GROBOGAN
12216 1100455035 FATCHIYAH MAHFUDH MA'RUF 21/9/1968 JURANG RT 01 RW 04 KAB. KUDUS
12217 1100455036 WAHYUDIN MOHAMAD ICHSAN 14/11/1974 TANGGERAN RT. 01. 05 KAB. KEBUMEN
12218 1100455037 SUPARTI 26/09/1963 PENGKOL RT 09 KAB. SRAGEN
12219 1100455038 HAMZAH MOH. BADRUDDIN 17/03/1960 JURANG RT 01 RW 04 KAB. KUDUS
12220 1100455039 SRI YUSNANINGSIH 06/05/1971 TONGGARA RT.17/07 KEDUNGBANTENG KAB. TEGAL
12221 1100455040 TURIJAN 12/04/1960 GUNUNGJATI RT 002/002 KAB. BANJARNEGARA
12222 1100455046 MAHFIYAH 09/11/1974 KARANGSARI RT 17 RW 04 KAB. WONOSOBO
12223 1100455047 ARIPIN, [Link] 3/7/1967 TONGGARA RT.17/07 KEDUNGBANTENG KAB. TEGAL
12224 1100455048 SARIPUDIN 28/12/1957 LUWIJAWA RT.12/03 JATINEGARA KAB. TEGAL
12225 1100455049 WAHYU WIDAYATI 20/12/1968 NGADIRESO RT 06 RW 03 KAB. WONOSOBO
12226 1100455050 AGUS SUDARMIN 04/08/1962 JL. BUKIT DINGIN D-1A /1 RT 6 RW 8 KOTA SEMARANG
12227 1100455053 MUNIRUDIN 25/4/1971 GLAPAN 02/01 KAB. GROBOGAN
12228 1100455054 JARO'AH 20/12/1960 LUWIJAWA RT.12/03 JATINEGARA KAB. TEGAL
12229 1100455056 ALMUFLIH MIFTAKUL HUDA 17/09/1982 KEDUNG 05/04 KAB. GROBOGAN
12230 1100455057 EVI HERIASTUTI 12/06/1966 JL. BUKIT DINGIN D I A / 1 RT 6 RW 8 KOTA SEMARANG
12231 1100455059 LIA ANJARSARI 27/05/1988 KEDUNG 05/04 KAB. GROBOGAN
12232 1100455061 ZAENUL MUFRODAH 10/5/1973 GLAPAN 02/01 KAB. GROBOGAN
12233 1100455064 SUPARDINEM 23/11/1963 TRIYAGAN RT. 03/07 KAB. SUKOHARJO
12234 1100455065 MUSTHOFIYAH 28/10/1968 GLAPAN 01/01 KAB. GROBOGAN
12235 1100455066 SRI MURTINI 09/03/1962 JEKETRO 02/01 KAB. GROBOGAN
12236 1100455067 SAHROJI 30/1/1962 PAESAN UTARA RT.04/04 KEDUNGWUNI BARAT KAB. PEKALONGAN
12237 1100455068 MENIK SUDARWATI 13/12/1962 GLAPAN 02/01 KAB. GROBOGAN
12238 1100455070 SITI JARIYAH 25/02/1965 PAESAN UTARA RT.04/04 KEDUNGWUNI BARAT KAB. PEKALONGAN
12239 1100455071 AMIN SULINA 15/04/1965 SUKOLILO RT 02 RW 07 KAB. BLORA
12240 1100455073 JOKO PRIYANTO 10/05/1964 SUKOLILO RT 02/07 KAB. BLORA
12241 1100455075 AMANIYAH 01/01/1977 DSN. MEJING II RT. 04/02 KAB. MAGELANG
12242 1100455076 MOH MUKHLIS BUSRO SOHIB 26/06/1970 SINGOCANDI RT 01 RW 02 KAB. KUDUS
12243 1100455077 SRI MARYATI 7/2/1962 MONDOKAKI 5 CANDIREJO 02/09 KAB. KLATEN
12244 1100455078 MUSTAJAB 26/12/1974 DSN. MEJING II RT. 04/02 KAB. MAGELANG
12245 1100455080 ALINA ROHMAH DAHRONI 19/11/1974 SINGOCANDI RT 01 RW 02 KAB. KUDUS
12246 1100455086 PURWANTO 1/12/1963 KARANGRAU RT.3/3 KAB. BANYUMAS
12247 1100455089 CHRISTIN WAHYUNI 24/12/1965 KARANGRAU RT 3 RW 3 KAB. BANYUMAS
12248 1100455090 TRI NURHAYATI 26/08/1968 KARANGMLATI RT.04/01 KAB. DEMAK
12249 1100455095 SITI KOTIJAH 10/06/1969 BATURSARI RT.04/32 KAB. DEMAK
12250 1100455096 ABDURROSYID 03/09/1958 [Link] RT.04/07 KOTA SEMARANG
12251 1100455098 SAEROZI 20/07/1958 BATURSARI RT.04/32 KAB. DEMAK
12252 1100455100 SLAMET RAHARJO 15/05/1971 TUMANG TEGALREJO RT 06 RW 09 KAB. BOYOLALI
12253 1100455101 SA'DULLAH 21/3/1963 DONOROJO RT.06/02 KAB. DEMAK
12254 1100455102 TARWIYAH 17/10/1980 DONOROJO RT.06/02 KAB. DEMAK
12255 1100455103 SITI FADHILAH 08/08/1970 TUMANG TEGALREJO RT 06 RW 09 KAB. BOYOLALI
12256 1100455104 YAHMI 07/02/1964 DK. DADIHARJO RT. 06/09 KAB. SUKOHARJO
12257 1100455105 SITI MALIKHAH MA'RUF 8/5/1965 KLUMPIT RT 02 RW 04 KAB. KUDUS
12258 1100455106 BIRAWATI GANEFANINGSIH 17/10/1963 BUGANGING RT.03 RW.01 KAB. KENDAL
12259 1100455108 MARDIYO 30/12/1966 PLARUNG RT. 05/04 KAB. SUKOHARJO
12260 1100455109 PENNY SETYARINI 08/03/1965 PLARUNG RT. 05/04 KAB. SUKOHARJO
12261 1100455110 TRI WAHYUNI, [Link] 29/03/1961 DONDONG JLN. AL KAUSAR RT 05 RW 05 KAB. CILACAP
12262 1100455113 JUWANTI 13/04/1972 BANYUMENENG RT.02/06 KAB. DEMAK
12263 1100455114 AHMADI ABDUL HAMID IKSAN 01/04/1960 KLUMPIT RT 02 RW 04 KAB. KUDUS
12264 1100455115 RUSMANTO 15/07/1979 JL. SLAMET RIYADI NO. 05 RT. 05 RW. 05 KAB. CILACAP
12265 1100455117 MUH ZAIDUN 07/07/1968 BANYUMENENG RT.02/06 KAB. DEMAK
12266 1100455119 WIDIYONO TRI HARTONO 14/05/1958 BUGANGIN RT.03 RW.01 KAB. KENDAL
12267 1100455121 S. ENY ERMAENI, [Link] 15/05/1968 SINDURJAN RT. 04/03 PURWOREJO KAB. PURWOREJO
12268 1100455122 ARIF ROHMAN IMAM S 28/04/1974 GERGUNUNG 01/05 KAB. MAGELANG
12269 1100455123 RUSNI MOHAMAD 14/04/1965 PERUM BUMIREJO INDAH E2 RT. 05/14 KAB. MAGELANG
12270 1100455125 TITIK DWI LAKSMI 19/05/1960 PAGEDONGAN RT 005 RW 001 KAB. BANJARNEGARA
12271 1100455126 NGATMI 03/03/1958 [Link] TIMUR II/14 RT.05/10 KOTA SEMARANG
12272 1100455127 PRIHATIN WIDODO SPD 19/01/1968 PERUM BUMIREJO INDAH NO. E2 RT. 05/14 KAB. MAGELANG
12273 1100455128 TUGINO 15/6/1960 WONOKARTO RT.02 RW.4 KAB. WONOGIRI
12274 1100455129 SUDARMANTO 14/11/1969 GENUKSARI RT.03/06 KOTA SEMARANG
12275 1100455130 UTAMI PADRI ASTUTI 28/12/1966 WONOKARTO RT.02 RW.04 KAB. WONOGIRI
12276 1100455131 KUSDARINAH 14/08/1976 DUSUN MEKARSARI RT. 04 RW. 05 KAB. CILACAP
12277 1100455132 ISMAIL 26/5/1966 PADUROSO RT. 01/02 PURWOREJO KAB. PURWOREJO
12278 1100455133 IWAN EKO SETIAWAN 13/10/1983 PRAON RT. 02 RW.07 KOTA SURAKARTA
12279 1100455134 SITI AMINAH 03/05/1967 DAMPAK 04/02 KAB. GROBOGAN
12280 1100455136 SAMIYEM 01/06/1966 PRAON RT 002/007 KOTA SURAKARTA
12281 1100455139 MOHAMAD ANWARUDIN 17/4/1970 RT 04 RW 05 KAB. CILACAP
12282 1100455142 JAMIIN 10/12/1963 DAMPAK 04/02 KAB. GROBOGAN
12283 1100455144 ANDRI JUNI ARIFIN 17/06/1978 [Link] V/8 RT.09/04 KOTA SEMARANG
NO NO. PORSI NAMA TANGGAL LAHIR ALAMAT KAB/KOTA KETERANGAN
12284 1100455145 KASIR 12/04/1958 JLN. MALANGDIRANA NO 26 RT 02 RW 04 KAB. CILACAP
12285 1100455148 MUSTAGHFIRIN NORKHOLIS SAIROZI 12/1/1962 ROBAYAN RT 13/03 KALINYAMATAN KAB. JEPARA
12286 1100455149 DARSIH 19/11/1964 JLN. MALANG DIRANA NO. 26 RT. 02 RW. 04 KAB. CILACAP
12287 1100455151 LASTRI HALIMATUS SANGDIYA 06/10/1978 KARANGJOHO RT. 4/8 WATUAGUNG KAB. BANYUMAS
12288 1100455152 KHIKMAWATI MAKSUM JAELANI 01/04/1966 ROBAYAN RT 13/03 KEC KALINYAMATAN KAB. JEPARA
12289 1100455153 SUMRAHATI 11/6/1958 KARANGTENGAH RT 003 RW 002 KAB. BANJARNEGARA
12290 1100455154 NGATMI 31/12/1957 DSN. BADRAN RT.03 RW.01 KAB. SEMARANG
12291 1100455157 BAMBANG SUROYO, ST 15/05/1974 JL. TERI II RT.03/06 KALISAPU KAB. TEGAL
12292 1100455158 TOIFAH 29/08/1977 SIKAPAT RT 02 RW 02 KAB. WONOSOBO
12293 1100455159 SITI YAENAH 28/03/1966 JATIMAS 04/02 KAB. GROBOGAN
12294 1100455160 EKI WISILOWATI 05/03/1977 JL. TERI II RT.03/06 KALISAPU KAB. TEGAL
12295 1100455166 MARSIYAH 13/08/1958 GEMURUH .RT. 003/007 KAB. BANJARNEGARA
12296 1100455167 SUPAMBUDI 24/2/1969 SIKAPAT RT 02 RW 02 KAB. WONOSOBO
12297 1100455168 ALI SAHID ASLURI 20/10/1974 MONDOTEKO RT 006 RW 005 REMBANG KAB. REMBANG
12298 1100455172 PUJI ASTUTI MASTOER 07/10/1974 MONDOTEKO RT 006 RW 005 REMBANG KAB. REMBANG
12299 1100455173 ALI WIDODO 20/6/1974 TAGUNG RT. 01 RW. 02 KAB. KARANGANYAR
12300 1100455177 UNING ADIATI 23/11/1978 TAGUNG RT. 01 RW. 02 KAB. KARANGANYAR
12301 1100455180 KUSTIPAH 28/04/1966 KARANGLEGI 07/03 KAB. GROBOGAN
12302 1100455181 TARMINI 24/04/1960 BANJARKERTA RT 03 RW 05 KAB. PURBALINGGA
12303 1100455182 SUWITO 17/05/1960 KARANGLEGI 07/03 KAB. GROBOGAN
12304 1100455188 SUKUR 06/04/1972 BAKAL, RT.01/RW.01 KAB. TEMANGGUNG
12305 1100455189 ASRIFAH 14/06/1982 WIDOROREJO RT.02/RW.01 KAB. SUKOHARJO
12306 1100455190 CHATINAH 01/07/1960 PESANTREN RT 001 RW 002 KAB. BANJARNEGARA
12307 1100455191 BASID BURHANUDIN 31/03/1979 WIDOROREJO RT.02/RW.01 KAB. SUKOHARJO
12308 1100455193 RD. SUWIGNYO, [Link] 7/6/1964 BAPANGSARI RT 02/04 KAB. PURWOREJO
12309 1100455196 SITI RAHAYU 24/10/1979 KALIBENING RT 003 RW 004 KAB. BANJARNEGARA
12310 1100455197 LEKSANA IBNU WARSOYO 03/10/1980 MARGOYOSO RT.007/002 [Link] KAB. JEPARA
12311 1100455198 DJUNAIDAH AHMAD BASIR 23/2/1961 MARGOYOSO RT.007/002 [Link] KAB. JEPARA
12312 1100455199 KOMDIYAH 31/12/1957 JOHO LEBAN RT.01 RW.02 KAB. KENDAL
12313 1100455200 NURLAILA SAILIRROHMAH MUDZAKIR 25/2/1985 MARGOYOSO RT.007/002 [Link] KAB. JEPARA
12314 1100455201 JONI DARSONO 26/10/1973 KALIBENING RT 003 RW 004 KAB. BANJARNEGARA
12315 1100455202 AHMAD MUDZAKIR KARDJONO 17/07/1957 MARGOYOSO RT.007/002 [Link] KAB. JEPARA
12316 1100455203 MUHAMMAD NAUFALUL HAQ 08/05/1989 KP. KEMBANGAN RT.03/RW.10 KAB. KENDAL
12317 1100455206 DARIYANI DARMO PRAYITNO 28/06/1969 NOBOWETAN RT 01 RW 05 KOTA SALATIGA
12318 1100455207 SOFUWAH 19/05/1965 KP. KEMBANGAN RT.03/RW.10 KAB. KENDAL
12319 1100455209 MARGONO HANDOYO SAERAN 04/05/1965 NOBOWETAN RT 01 RW 05 KOTA SALATIGA
12320 1100455210 QOSI AMALIA 12/01/1992 KP. KEMBANGAN RT.03/RW.10 KAB. KENDAL
12321 1100455214 SITI MASLACHAH 04/06/1963 PERUM KLW INDAH B I/19 RT.05/RW.10 KAB. KENDAL
12322 1100455215 NUR ISTIKOMAH MOHAMAD CHALIMI 3/8/1984 KEBULUSAN RT. 07. 02 KAB. KEBUMEN
12323 1100455217 FAISAL HANIF WIDIYANTOKO 11/12/1986 KEBULUSAN RT.07/02 KAB. KEBUMEN
12324 1100455220 BANDI PARLAN SEMI 11/09/1967 BAKARAN WETAN 4/2 JUWANA KAB. PATI
12325 1100455221 SARINGAH 15/05/1967 BENDA KULON RT 04 RW 16 KAB. CILACAP
12326 1100455222 WAGINO 23/07/1963 BRENGKOL RT. 01/01 PITURUH KAB. PURWOREJO
12327 1100455223 SUMARDI, DRS 07/12/1961 TEGALASRI RT. 04 RW. 08 KAB. KARANGANYAR
12328 1100455224 MUHAMMAD NUR HIDAYAT 5/11/1969 BANGSA RT 08 / 01 KAB. BANYUMAS
12329 1100455228 BINTI INDIASTUTI 17/11/1966 BRENGKOL RT 01/01 KAB. PURWOREJO
12330 1100455229 SUTARMI, [Link] 05/08/1970 TEGALASRI RT. 04 RW. 08 KAB. KARANGANYAR
12331 1100455230 MARI 1/2/1968 MEGONTEN RT.01/01 KEBONAGUNG KAB. DEMAK
12332 1100455231 SUDONO 10/12/1965 GEBANGKEREP RT.02/02 SRAGI KAB. PEKALONGAN
12333 1100455232 SUMARYADI 25/08/1963 MEGONTEN RT.01/01 KEBONAGUNG KAB. DEMAK
12334 1100455233 SUWARNI SUHAR JAWI 14/08/1969 BAKARAN WETAN 4/2 JUWANA KAB. PATI
12335 1100455234 MOCHAMAD TULUS HIDAYAT 07/07/1973 DUSUN TEGAL SARI RT.04 RW.05 KAB. CILACAP
12336 1100455238 SUNARTI 08/03/1958 JL. PUCANG D 60 RT. 01 RW. 09 KAB. CILACAP
12337 1100455240 MARKATI 17/06/1974 GEBANGKEREP RT.02/02 SRAGI KAB. PEKALONGAN
12338 1100455241 NGATIDJAH JASTRO DJAYUS 01/07/1958 NGAGEL 6/5 DUKUHSETI KAB. PATI
12339 1100455242 SUMANAH 05/10/1960 PULOSARI RT 02 RW 01 KAB. WONOSOBO
12340 1100455244 PUJIYATI 21/05/1976 DUSUN TEGALSARI RT.04 RW.05 KAB. CILACAP
12341 1100455247 NUR FANDA E M, DR 05/05/1972 PERUM DEPAG IAIN BLOK I / 1 RT 1 RW 3 KOTA SEMARANG
12342 1100455248 GATOT HERU PRAKOSA, SH 05/10/1963 DESA KEMIRI RT 02 RW 04 KAB. BLORA
12343 1100455249 PUJI CHASANAH 04/08/1961 DUSUN KEMANTREN RT. 09 RW. 02 BANTARSARI KAB. CILACAP
12344 1100455250 LILAM KADARIN NURIYANTO 5/11/1971 PERUM DEPAG IAIN BLOK I/1 RT 01 RW 3 KOTA SEMARANG
12345 1100455251 RUKMI WIDIASIH 31/12/1963 DESA KEMIRI RT 02 RW 04 KAB. BLORA
12346 1100455256 MUHAMAD FAUZAN P, [Link] 13/8/1970 JL. PARKIT 3 NO.6 RT 04 RW 04 KOTA SURAKARTA
12347 1100455257 NURUL QOMARIYAH BADIE SYAEFULLAH 11/11/1971 KIRIG RT 06 RW 04 KAB. KUDUS
12348 1100455261 DYAH UTAMININGTYAS, S PD 01/06/1968 JL. PARKIT 3 NO.6 RT 04 RW 04 KOTA SURAKARTA
12349 1100455262 WAHYU SATRIHADI MOHADI 28/5/1968 KIRIG RT 06 RW 04 KAB. KUDUS
12350 1100455263 YULIASTUTI NOOR SYAHID 15/12/1978 KARANGMALANG RT 04 RW 02 KAB. KUDUS
12351 1100455264 ISTIYANAH NASUCHA MAT RAJI 12/10/1959 KARANGMALANG RT 04 RW 02 KAB. KUDUS
12352 1100455267 PATKHU ROKHMAN, IR 21/09/1967 BALAPULANG WETAN RT.03/01 KAB. TEGAL
12353 1100455268 WARSIH 06/07/1969 TEGALARUM RT 02/01 KAB. DEMAK
12354 1100455270 SRI EKO KURNIAWATI, DRA 12/09/1969 BALAPULANG WETAN RT.03/01 KAB. TEGAL
12355 1100455271 UMI BARIROH 04/02/1987 DSN KRAJAN RT.03/RW.01 KAB. KENDAL
12356 1100455274 WARYATI 10/5/1978 SEMEN RT 10/03 KAB. SRAGEN
12357 1100455276 JULIYAH 15/12/1968 MOROREJO RT.02/RW.05 KAB. KENDAL
12358 1100455279 MUHAMAD YUSUF,[Link] 20/08/1970 [Link] - [Link] IV RT.01/06 KAB. PEMALANG
12359 1100455280 SRI KUSTINI KADARI 20/08/1960 JAKENAN 1/1 JAKENAN KAB. PATI
12360 1100455281 MARHAENI KUSSUSILOWATI 31/03/1970 [Link] IV/ PR BANJARDAWA RT.01/06 KAB. PEMALANG
12361 1100455284 MOH ANWAR SALAFUDIN 21/07/1975 DSN KRAJAN RT.03/RW.01 KAB. KENDAL
12362 1100455287 DARYOSO 14/06/1963 SIMBANG DESA RT.13 RW.04 KAB. BATANG
12363 1100455288 SOLECHA 25/04/1969 SIMBANG DESA RT.13 RW.04 KAB. BATANG
12364 1100455289 SOLIKATUN 16/05/1974 JL DINAR MAS XV NO 13 RT 07 RW 18 KOTA SEMARANG
12365 1100455290 SAYIDAH, SE 02/11/1981 PAKEMBARAN RT.03/08 SLAWI KAB. TEGAL
12366 1100455297 PARTIYAH 07/10/1961 DSN. PONORUSO RT.07 RW.02 KAB. SEMARANG
12367 1100455300 MUHAMMAD SYAFIQ 17/07/1966 JL DINAR MAS XV NO 13 RT 07 RW 18 KOTA SEMARANG
12368 1100455301 ARYO SANTIKO, [Link], [Link] 29/09/1977 PAKEMBARAN RT.03/08 SLAWI KAB. TEGAL
12369 1100455305 PARIMIN DARNO SUKIRAH 11/02/1972 KARABAN 3/2 GABUS KAB. PATI
12370 1100455307 BAMBANG HOESNI SAJIMIN 11/08/1958 KALENG RT.01 RW. KAB. KEBUMEN
12371 1100455310 WETY PARLIYAH YASMIN 04/12/1958 KALENG RT.01 RW.01 KAB. KEBUMEN
12372 1100455311 JUMINI KARSAN LEGI 19/05/1975 KARABAN 3/2 GABUS KAB. PATI
12373 1100455312 MOH. ALI IMRON 07/06/1966 [Link] LOR RT.01/05 TENGENG WETAN KAB. PEKALONGAN
12374 1100455313 FAROKAH 04/05/1967 POLAMAN 02/04 KAB. GROBOGAN
12375 1100455314 KHUSNUL ROFIQOH 12/07/1985 KWAGEAN RT.04/03 WONOPRINGGO KAB. PEKALONGAN
12376 1100455315 FATKHURROHMAN 05/10/1973 KWAGEAN RT.04/03 WONOPRINGGO KAB. PEKALONGAN
12377 1100455317 AGUS SETIO WIDODO 26/08/1974 [Link] NO.20 RT.05 RW.07 KAB. PEMALANG
12378 1100455318 LILI MARFIANTI 25/03/1975 JL. MADUKORO 20 RT. 05 RW. 07 KAB. PEMALANG
12379 1100455320 SITI JUARIAH, [Link] 28/06/1965 SAPTA PRASETYA UTARA 8/4 RT.01/03 KOTA SEMARANG
12380 1100455322 NASUKA , IR 25/07/1964 SAPTA PRASETYA UTARA 8/4 RT.01/03 KOTA SEMARANG
12381 1100455325 WARSINI 01/12/1963 [Link] GG PODANG 21 RT 04/05 KAB. BLORA
12382 1100455327 KIFTIYAH MASLAN SAERI 17/03/1962 GETASRABI RT 02 RW 04 KAB. KUDUS
12383 1100455328 ENDANG PURWATI 22/02/1961 SEMALEN RT. 03/02 KAB. MAGELANG
12384 1100455329 SULISTIYONO SOEPONO HARJO USUF 03/10/1970 MLATI KIDUL RT 07 RW 01 KAB. KUDUS
12385 1100455330 SITI ANIQOH 04/01/1970 JL. PUCANG KARYA 8/7 RT.05/15 KAB. DEMAK
12386 1100455331 MUHAMMAD KHUNAENI 05/05/1963 JL. PUCANG KARYA 8/7 RT.05/15 KAB. DEMAK
12387 1100455333 MARKHAMAH 09/08/1958 DUSUN SIDAWUNG RT.03/RW.03 KAB. KENDAL
12388 1100455334 BAGUS PRIMAMUSANTO 28/9/1983 [Link] RAYA A-762 RT.05/05 KOTA SEMARANG
12389 1100455335 SALAMAH 31/12/1964 SIKUNANG RT 03 RW 01 KAB. WONOSOBO
12390 1100455342 DIETA ARIWARDHANI,[Link],[Link] 25/09/1983 [Link] RAYA A-762 RT.05/05 KOTA SEMARANG
12391 1100455346 WINARNI, SPD 29/3/1976 BESOLE RT 03/01 KAB. PURWOREJO
12392 1100455348 UMI KULSUM 17/12/1961 WONOTUNGGAL NO.94 RT.02 RW.01 KAB. BATANG
12393 1100455352 NUR FAIZAH 27/7/1971 GEMBONG KULON RT.04/03 TALANG KAB. TEGAL
12394 1100455353 HASIM AS'ARI 14/10/1969 GEMBONG KULON RT.04/03 TALANG KAB. TEGAL
12395 1100455354 BIROCHI PUSPO RAHARJO 06/06/1988 NONGKO SAWIT RT 002 / RW 001 KOTA SEMARANG
12396 1100455355 SETYO HARTONO 13/5/1974 [Link] KADIR SOKARAJA KULO RT 1/6 KAB. BANYUMAS
12397 1100455356 SRI RAHAYU 27/11/1965 KP. JUWONO RT.03/03 KOTA SEMARANG
12398 1100455357 WAHYUNI SETIYANINGSIH 29/4/1977 SOKARAJA KULON RT 2/5 KAB. BANYUMAS
12399 1100455360 MARTOMO 20/12/1960 SEMALEN RT. 05/02 KAB. MAGELANG
12400 1100455361 MUHAMMAD ARIFFANDI 26/04/1983 SETINGGIL RT.06/02 KAB. DEMAK
12401 1100455364 ZAKIA KAHFIDYA RATNASARI 9/1/1987 JL. KENANGA XVI/D.305 RT.01/04 KAB. DEMAK
12402 1100455366 SUJIYAH SANPAWIRA SANTADIWIRYA 27/12/1958 JATINEGARA RT.04/01 KAB. KEBUMEN
12403 1100455367 SRI KUNDIYATI 25/06/1960 SEMALEN 03/02 KAB. MAGELANG
12404 1100455371 AVIF SHAIFUL BAHRI 10/06/1982 KALISARI 04/03 KAB. GROBOGAN
12405 1100455372 MUSTAKIM RASMANI KARSO 14/08/1958 JATINEGARA RT.04/01 KAB. KEBUMEN
12406 1100455373 AFIDATUS SHOLIHAH FUADI 05/10/1965 TAHUNAN 04/03 KAB. JEPARA
12407 1100455376 MUSLIKAH 21/08/1980 KALISARI 04/03 KAB. GROBOGAN
12408 1100455379 DIYAH TUSSAADAH ACHADI 03/02/1974 TAHUNAN 04/03 KAB. JEPARA
12409 1100455380 TUKIJO 26/08/1965 JL. TELAGA BENING RT. 02 RW. 01 KAB. CILACAP
12410 1100455384 SRI UTOMO SURAT 25/04/1978 TAHUNAN 04/03 KAB. JEPARA
12411 1100455385 SRI ASIH WAHYUNI 25/08/1968 JL. TELAGA BENING RT. 02 RW. 01 KAB. CILACAP
NO NO. PORSI NAMA TANGGAL LAHIR ALAMAT KAB/KOTA KETERANGAN
12412 1100455388 BUDI DJATMIKO 23/8/1958 [Link] SENDANG RAYA 16 RT.04/05 KOTA SEMARANG
12413 1100455391 YASWATI WIDHIASTUTI 17/12/1960 [Link] SENDANG RAYA 16 RT.04/05 KOTA SEMARANG
12414 1100455392 SRI MAWARTI 13/08/1961 WATES JAMBESARI RT. 02 RW. 11 KOTA MAGELANG
12415 1100455393 YULIA DWI JAYANTI 01/07/1966 DUKUH RT.01/RW.10 KAB. SUKOHARJO
12416 1100455396 DHESY ROSA GIANSARI 01/12/1984 WATES JAMBESARI KOTA MAGELANG
12417 1100455398 ADI YULANDI 04/06/1980 JL. CIBEREM NO 17 RT 03 RW 007 KAB. CILACAP
12418 1100455401 ROCHILAH NGARPANI RAMISIH 01/03/1964 LODAN WETAN RT 001 RW 001 SARANG KAB. REMBANG
12419 1100455404 NOER CHOPSOH 24/2/1984 KP PANDEAN TAMAN HARJO NO 21 RT 05 RW 1 KOTA SEMARANG
12420 1100455405 AKHMAD SADIKIN 27/12/1967 KAUMAN RT.03 RW.03 KAB. BATANG
12421 1100455406 SRI SEPTYARINI 05/09/1971 KAUMAN RT.03 RW.03 KAB. BATANG
12422 1100455407 AHMAD MASUDI 28/07/1969 LOGANTUNG 10/04 KAB. KLATEN
12423 1100455408 SRI UTAMI 20/05/1967 LOGANTUNG 10/04 KAB. KLATEN
12424 1100455409 LILIK HIDAYATULLAILI 10/02/1962 KRAPYAK LOR GG. 5 /7 RT. 3 RW. 7 KOTA PEKALONGAN
12425 1100455410 SUKIMAN 05/06/1964 JL. JERUK NO. 288 RT. 01 RW. 03 KAB. CILACAP
12426 1100455411 SITI BALKIS 03/07/1959 KP. KLEDUNG 374 RT 05 RW 01 SEMARANG KOTA SEMARANG
12427 1100455412 BILAL 02/09/1958 [Link] KUSUMO X/26 RT.04/03 KOTA SEMARANG
12428 1100455413 SRI SUBEKTI 04/01/1961 CENGKLIK RT.01 RW.19 KOTA SURAKARTA
12429 1100455414 NURHAYATI 07/07/1971 BUARAN RT.11/RW.01 BANTARKAWUNG KAB. BREBES
12430 1100455415 MASRIPAH 15/2/1966 JALAN JERUK NO. 288 RT. 01 RW. 03 KAB. CILACAP
12431 1100455417 SUPARNO 21/12/1964 DUKUH RT.01/RW.10 KAB. SUKOHARJO
12432 1100455418 SRI HANDAYANI 04/04/1959 PEPE 10/04 KAB. KLATEN
12433 1100455419 SRI SULISTYANINGSIH WIDOWATI 28/06/1969 [Link] KUSUMO X/26 RT.04/03 KOTA SEMARANG
12434 1100455420 SUYATNO 08/08/1960 CENGKLIK RT 01 RW 19 KOTA SURAKARTA
12435 1100455421 DIAN HAPSARI 19/07/1981 TOHUDAN WETAN RT. 06 RW. 04 KAB. KARANGANYAR
12436 1100455424 SUKIJA 17/04/1961 NGEMPON, RT.01/RW.04 KAB. TEMANGGUNG
12437 1100455425 SUPRAPTO 30/05/1959 KALIWENANG 02/02 KAB. GROBOGAN
12438 1100455426 SITI MULYANI 17/7/1970 TUGU 01/07 KAB. KLATEN
12439 1100455427 HARIYANTO 14/11/1957 CANDI PERSIL NO. 404 RT 5 RW 5 KOTA SEMARANG
12440 1100455428 MUGHNI SUBEKTI, ST 01/05/1976 TOHUDAN WETAN RT. 06 RW. 04 KAB. KARANGANYAR
12441 1100455429 RUKMI HERTA EKOPRAPTI 13/05/1964 SOKANANDI RT 004 RW 005 KAB. BANJARNEGARA
12442 1100455430 UMAR SAHID 13/07/1979 WONOYOSO RT. 02/01 PITURUH KAB. PURWOREJO
12443 1100455433 JANATUN 10/07/1961 WATUDUWUR RT 01/01 KAB. PURWOREJO
12444 1100455434 KARMINI 17/08/1966 WATUDUWUR RT 01/01 KAB. PURWOREJO
12445 1100455437 RONJANAH 14/08/1965 MARIBAYA RT.01/01 KRAMAT KAB. TEGAL
12446 1100455438 DARIP 07/12/1964 MARIBAYA RT.01/01 KRAMAT KAB. TEGAL
12447 1100455440 KHOIRIYAH HASAN ANWAR 18/04/1960 TAHUNAN 04/03 KAB. JEPARA
12448 1100455446 RIANASARI MASWAN SURADI 25/04/1969 PURWOSARI RT 05 RW 07 KAB. KUDUS
12449 1100455449 SITI AROFAH 04/11/1967 JL. GONDOSARI III RT.01/04 KOTA SEMARANG
12450 1100455451 EDI PURWANTO KUSNAN NOORYANTO 23/05/1973 PURWOSARI RT.05 RW.07 KAB. KUDUS
12451 1100455452 SOLIKIN 10/04/1965 JL. GONDOSARI III RT.01/04 KOTA SEMARANG
12452 1100455453 ENDANG MARYANTI RM. MARTANTO 27/05/1960 DEMANGAN RT.03 RW.04 KAB. KUDUS
12453 1100455454 SITI ROMLAH, SPD 12/09/1964 TAMBAKAJI RT.02/05 KOTA SEMARANG
12454 1100455455 NOOR AKHLIS HASYIM 1/7/1959 DEMANGAN RT 03 RW 04 KAB. KUDUS
12455 1100455456 ZUMROTUN MOCH JABIR UMAR 14/10/1972 NGARUS 3/1 PATI KAB. PATI
12456 1100455457 SUYONO 27/07/1959 TAMBAKAJI RT.02 RW.05 KOTA SEMARANG
12457 1100455458 JAMI 08/08/1969 PLOSOREJO RT 04 RW 05 KAB. BLORA
12458 1100455459 SUWARTO 10/01/1958 KLAPASAWIT RT. 1/2 KAB. BANYUMAS
12459 1100455460 NUR JANAH NURUL ANWAR MARTA DIMEJA 07/10/1971 PEKUTAN RT.03/02 KAB. KEBUMEN
12460 1100455461 SRI SUGIYARTI 25/04/1965 KLAPASAWIT RT 01 RW V 02 KAB. BANYUMAS
12461 1100455462 SUPARMAN 24/06/1961 BANJARAN 05/06 KAB. MAGELANG
12462 1100455463 AGUS NUR SULAIMAN 8/8/1962 PERUM TIARA ARDI F6 RT 02 RW 11 KAB. BOYOLALI
12463 1100455465 UMI HANIK 14/12/1962 PERUM TIARA ARDI F 6 RT 02 RW 11 KAB. BOYOLALI
12464 1100455466 MUHAJIR MOKHAMAD JALALUDIN 15/6/1965 PEKUTAN RT.03/02 KAB. KEBUMEN
12465 1100455467 IMAM SUYUTI 25/12/1957 NGLANJUK RT 02/01 KAB. BLORA
12466 1100455468 TOHARUDIN, [Link] 01/12/1972 HARJOBINANGUN RT 01/05 KAB. PURWOREJO
12467 1100455469 AGUS YULIANTO 14/07/1967 JL. LILY GARDEN 5 MEGA RESIDENCE RT.12/6 KOTA SEMARANG
12468 1100455470 WARNISAH 08/10/1961 JL. DEWI SARTIKA NO.74 RT.05 RW.01 KOTA TEGAL
12469 1100455471 DARSONO GIYATMOKO 01/11/1957 JL. DEWI SARTIKA NO.74 RT.05 RW.01 KOTA TEGAL
12470 1100455472 IKA KRISTIN HARYANI 25/06/1981 BANJARAN RT. 05/06 KAB. MAGELANG
12471 1100455473 KUS PRIHARTIWI 23/9/1969 [Link] GARDEN/5 MEGA RESIDENCE RT.12/06 KOTA SEMARANG
12472 1100455474 ABDULLOH 19/10/1963 JEMBAYAT RT.01/10 MARGASARI KAB. TEGAL
12473 1100455476 MUTMAINAH 25/05/1967 JEMBAYAT RT.01/10 MARGASARI KAB. TEGAL
12474 1100455478 SRI HARTATIK 05/02/1961 NGLANJUK RT 02/01 KAB. BLORA
12475 1100455488 ANIK DWI KARYAWATI 26/06/1984 DS. PANOLAN RT 05/01 KAB. BLORA
12476 1100455489 SITI NURYATUN 26/01/1966 BUMI TEGALAYU RT 02 RW 02 KOTA SURAKARTA
12477 1100455490 BARINAH ABDURRAHMAN MARWI 1/7/1967 RAGUKLAMPITAN 19/04 KAB. JEPARA
12478 1100455491 MUHADI, S. AG 13/10/1975 DS. PANOLAN RT 05/01 KAB. BLORA
12479 1100455492 DODIT PRAJOKO, SE 12/10/1969 BUMI TEGALAYU RT 02 RW 02 KOTA SURAKARTA
12480 1100455494 LINA WAHYUNINGTYAS, [Link] 27/06/1982 HARJOBINANGUN RT. 01/05 GRABAG KAB. PURWOREJO
12481 1100455495 AFIYAH 20/6/1972 KARANGANYAR RT.04/02 TIRTO KAB. PEKALONGAN
12482 1100455496 KUN MAHANTO 10/11/1959 KUTOARJO RT 03/05 KAB. PURWOREJO
12483 1100455497 SUSILO HANDOKO, M.T 6/5/1965 MEGALREJO RT 05/14 KAB. BLORA
12484 1100455498 SITI HALIMAH 29/12/1980 JL. BLORA NO. 35 B KAB. BLORA
12485 1100455499 SLAMET RIDHO 04/06/1972 KARANGANYAR RT.04/02 TIRTO KAB. PEKALONGAN
12486 1100455500 AHMAD NIFRUL UFDA 09/11/1975 JL. BLORA NO 35 B RT 03 RW 13 KAB. BLORA
12487 1100455501 GHULAM AKHYAR RIKZA 26/09/1992 DUKUH COKRAH RT 005/ RW 002 GEJLIG KAJEN KAB. PEKALONGAN
12488 1100455502 SITI ROAISYAH 22/05/1970 MEGALREJO RT 05/14 KAB. BLORA
12489 1100455505 SITI KHUMAISIYAH 23/09/1971 COKRAH RT.05/02 GEJLIG KAJEN KAB. PEKALONGAN
12490 1100455509 ANA MASRUROH 25/08/1982 DUKUH BATURAN RT.02/RW.01 KAB. SUKOHARJO
12491 1100455510 SUMITRO 10/01/1973 BULAKPACING RT. 03/04 DUKUHWARU KAB. TEGAL
12492 1100455511 MEGA 29/06/1972 SIDAHARJA RT. 06/04 SURADADI KAB. TEGAL
12493 1100455512 MUHLISIN WIYARSO MATNI 16/07/1991 TLUWUK 03/01 WEDARIJAKSA KAB. PATI
12494 1100455513 NUR HAYATI 02/02/1964 JL. JATIKUSUMAN II NO.11 RT.01/04 KAB. DEMAK
12495 1100455514 DARORI 03/07/1962 TEGALREJO RT 03 RW 01 KAB. BOYOLALI
12496 1100455515 WAIDAH 08/02/1970 SIDAHARJA RT. 06/04 SURADADI KAB. TEGAL
12497 1100455516 SUPRAPTI 19/02/1976 BULAKPACING RT. 03/04 DUKUHWARU KAB. TEGAL
12498 1100455517 SUMARDI 06/12/1963 JL. JATIKUSUMAN II NO.11 RT.01/04 KAB. DEMAK
12499 1100455519 KUSULMI BAROKAH 20/4/1961 TEGALREJO RT 03 RW 01 KAB. BOYOLALI
12500 1100455520 PAWIYAH RACHMAT PANI 31/12/1966 BAE RT 03 RW 01 KAB. KUDUS
12501 1100455522 UMI SAIDAH 22/4/1980 MLATEN RT.06/03 KAB. DEMAK
12502 1100455525 SUMONO ACHMAD NOOR 31/12/1958 BAE RT.03 RW.01 KAB. KUDUS
12503 1100455528 SUMANTO, SPD, MPD 15/02/1965 GONDANGAN RT 32 KAB. SRAGEN
12504 1100455529 SUPARJAN 08/03/1958 PLOSOREJO RT 04 RW 05 KAB. BLORA
12505 1100455530 ZUBAEDI 12/05/1962 TRIKAYAN 02/13 KAB. MAGELANG
12506 1100455531 PURWATI, DRA 07/08/1966 GONDANGAN RT 32 KAB. SRAGEN
12507 1100455533 SITI MARDLIYAH 13/6/1971 PREMULUNG RT 01 RW 09 KOTA SURAKARTA
12508 1100455541 MOHAMAD SYARIFUDDIN DULCHALIM 28/10/1958 DS. ADIKARSO RT 01/05 KEBUMEN KAB. KEBUMEN
12509 1100455542 AGUS TRI SETIYANTO 06/08/1969 ADIKARSO RT 01. 05 KAB. KEBUMEN
12510 1100455543 SRI PUJIATI MUHAMAD BADRI 16/09/1967 ADIKARSO RT. 01. 05 KAB. KEBUMEN
12511 1100455544 SRI SAYEKTI REJEKI 29/03/1972 ADIKARSO RT. 01. 05 KAB. KEBUMEN
12512 1100455546 SUTARMO 14/06/1971 JL. MERPATI PERUM DOSEN 173 RT.03/08 KAB. SUKOHARJO
12513 1100455548 RATMINAH 08/09/1960 SINDURJAN RT 02/03 KAB. PURWOREJO
12514 1100455549 TUMINO 27/5/1962 BENTAKAN 01/13 KAB. KLATEN
12515 1100455550 SRI EKOWATI 19/11/1961 JL. JATI I NO.23 RT. 3/6 TANJUNG ELOK KAB. BANYUMAS
12516 1100455551 TRI RETNO MURNIASIH 06/02/1972 JL. MERPATI PERUM DOSEN 173 RT.03/08 KAB. SUKOHARJO
12517 1100455552 SUJI RASMIHATI, DRA 18/5/1960 CANDI TEMBAGA UTARA DALAM 854 RT.05/05 KOTA SEMARANG
12518 1100455553 SRI SUDARYATI 31/12/1963 GUMELAR LOR RT. 4/1 KAB. BANYUMAS
12519 1100455555 MUHAMMAD ZAJURI 04/11/1961 CANDI TEMBAGA UTARA DALAM 854 RT.05/05 KOTA SEMARANG
12520 1100455557 INDRIYATI 17/05/1965 BENTAKAN 01/13 KAB. KLATEN
12521 1100455559 AKHMAD, SPD 26/06/1969 JL. ARGOMULYO MUKTI VIII/282 RT.03/10 KOTA SEMARANG
12522 1100455560 SUKHAMDI 10/01/1963 GUMELAR LOR RT. 4/1 KAB. BANYUMAS
12523 1100455561 MIRZA NUR HIDAYAT 09/07/1967 ANGKATAN LOR 9/2 TAMBAKROMO KAB. PATI
12524 1100455562 YUNIARTI, SH 06/01/1978 JL. ARGOMULYO MUKTI VIII/282 RT.03/10 KOTA SEMARANG
12525 1100455563 AMIDA URFAH MUJTAHIDAH 03/01/1975 ANGKATAN LOR 9/2 TAMBAKROMO KAB. PATI
12526 1100455565 SURONO KARTO SALIMAN 09/04/1960 ANGKATAN LOR 1/2 TAMBAKROMO KAB. PATI
12527 1100455566 ENDANG SETYOWATI SUKARMAN 14/4/1967 ANGKATAN LOR 1/2 TAMBAKROMO KAB. PATI
12528 1100455567 RETNO SULISTYANINGSIH SUGENG 20/12/1968 DANYANGMULYO 4/1 WINONG KAB. PATI
12529 1100455568 MASRURI TUROYO TARMIDI 08/02/1968 DANYANGMULYO 04/01 WINONG KAB. PATI
12530 1100455570 SITI NUR INAYAH 20/06/1976 SIDOKUMPUL RT.004/002 KAB. DEMAK
12531 1100455571 SUNARTO, [Link] 26/08/1964 JL. WIJAYA KUSUMA GG.11 C.72 RT.01/05 KAB. TEGAL
12532 1100455574 NOOR IDA AMALIA 09/07/1964 NGEMBAL KULON RT 01 RW 01 KAB. KUDUS
12533 1100455575 ACHMAD MUNTOLIB,SH 5/10/1957 CANDI PAWON TENGAH ATAS II A RT.09/01 KOTA SEMARANG
12534 1100455576 NURNAENI RIYAWATI, [Link] 15/11/1966 JL WIJAYA KUSUMA GG.11 C.72 RT.01/05 KAB. TEGAL
12535 1100455577 ANIK MARDIYANTI 26/03/1963 CANDI PAWON TENGAH ATAS II A RT.09/01 KOTA SEMARANG
12536 1100455578 NOOR EDI YONO 12/02/1961 NGEMBAL KULON RT 01 RW 01 KAB. KUDUS
12537 1100455579 UMI ZAKIYAH 05/04/1973 JL. HASYIM ASY'ARI RT. 03/02 KAB. TEGAL
12538 1100455580 ABDUL GHOFIR 16/06/1976 MLATEN RT.06/03 KAB. DEMAK
12539 1100455581 SUYANTI 28/01/1980 JL. ANGGREK RT.002 RW.07 KAB. CILACAP
NO NO. PORSI NAMA TANGGAL LAHIR ALAMAT KAB/KOTA KETERANGAN
12540 1100455583 MUHAMMAD NURI 9/12/1963 MOJOSONGO RT.04 RW. 09 KOTA SURAKARTA
12541 1100455586 TRIYANA 21/12/1963 MOJOSONGO RT.04 RW.09 KOTA SURAKARTA
12542 1100455587 SHODIKUN SAWIDIN TORIJOYO 20/02/1959 KESAMBI RT 04 RW 08 KAB. KUDUS
12543 1100455588 TRI RAHAYU 06/11/1961 JL. SIDO ASIH II / 43 RT 5 RW 7 KOTA SEMARANG
12544 1100455589 NUR ROFIQ, [Link] 02/09/1971 JL. HASYIM ASY'ARI RT. 03/02 KAB. TEGAL
12545 1100455590 WAHYU SUTANTO 19/06/1974 JL. ANGGREK RT.02 RW.07 KAB. CILACAP
12546 1100455594 HENY PUJIASTUTI 24/07/1967 ASPOL BLOK C-1 RT.05/01 KOTA SEMARANG
12547 1100455595 BAGUS PANJI WIJANARKO 26/04/1968 [Link] BLOK I NO.8 03/20 KAB. GROBOGAN
12548 1100455597 NOOR HADI 16/3/1965 BANYURIP ALIT GG.3 B RT. 2 RW. 2 KOTA PEKALONGAN
12549 1100455598 SRI WAHYUNINGSIH 20/12/1961 SIDODADI RT 03 RW 02 KAB. WONOSOBO
12550 1100455599 RUFIAH ABDUR ROHMAN RABIDIN 31/12/1967 KLUMPIT RT 02 RW 07 KAB. KUDUS
12551 1100455600 AMIN JAYA 22/06/1967 KLEGO GG. 3 RT. 6 RW. 2 KOTA PEKALONGAN
12552 1100455601 DWIANA SUSWATI 18/06/1965 [Link] BLOK I NO.8 03/20 KAB. GROBOGAN
12553 1100455602 FARINAH 11/5/1967 KLEGO GG. 3 NO. 4 RT. 6 RW. 2 KOTA PEKALONGAN
12554 1100455603 TUKINEM 15/10/1965 WONOLELO RT 02 RW 01 KAB. WONOSOBO
12555 1100455604 R JUMANTRI RUSPRIYATNO 10/11/1961 ASPOL BLOK C-1 RT.05/01 KOTA SEMARANG
12556 1100455605 NIJEM ALIAS NISMAH 12/02/1960 WONOLELO RT 02 RW 01 KAB. WONOSOBO
12557 1100455606 PARTINI 16/6/1976 PANCAKARYA BLOK 48/334A RT.05/05 KOTA SEMARANG
12558 1100455609 ABDUL MALIK 11/12/1963 BRUNOSARI RT 01/03 KAB. PURWOREJO
12559 1100455610 IVA ALFIYAH ROESHAYATI 27/06/1967 PANDEAN RT. 01/03 KAB. SUKOHARJO
12560 1100455612 SRI MULYANI 01/01/1961 SULUREJO RT. 06 RW. 09 KAB. KARANGANYAR
12561 1100455613 YAMANI 10/4/1966 PANDEAN RT. 01/03 KAB. SUKOHARJO
12562 1100455614 SURATNO 27/12/1980 JL. PERTABATAN NO.26 A RT.002 RW.02 KAB. CILACAP
12563 1100455615 LULUATUL INAYAH 25/03/1979 JL. PERTABATAN NO.26A KAB. CILACAP
12564 1100455617 MULYADI 17/04/1973 PANCAKARYA BLOK-48/334A RT.05/05 KOTA SEMARANG
12565 1100455618 SITI AMINAH 02/07/1969 DK ROWO TENGAH RT 4 RW 4 KOTA SEMARANG
12566 1100455620 WAHAM, [Link] 01/07/1957 KARANGANYAR RT. 02/01 PITURUH KAB. PURWOREJO
12567 1100455621 SUNARNI 08/04/1964 GENGGONGAN RT.05/02 KAB. DEMAK
12568 1100455622 SUPARDI 13/07/1959 PONDOK GEDANG ASRI NO.35 RT.02 RW.01 KAB. SEMARANG
12569 1100455624 IN MUNTADHIMATUN, [Link] 22/07/1966 KARANGANYAR RT 02/01 KAB. PURWOREJO
12570 1100455625 SRI KUNARTI 13/6/1976 BUMIAYU RT.09/RW.03 KAB. KENDAL
12571 1100455626 ROJICHAH NOR AHMAD SIDIK 13/12/1960 KRIYAN 04/01 KEC. KALINYAMATAN KAB. JEPARA
12572 1100455627 YULIATI ENDANG NUR'AINI 28/7/1966 JL. GONDOSULI NO.20 RT.04 RW.02 KOTA SURAKARTA
12573 1100455628 NURUL FAJRIYAH 27/12/1967 PONDOK GEDANG ASRI NO.25 RT.01 RW.01 KAB. SEMARANG
12574 1100455629 R. MUHAMMAD SANAYA 10/11/1995 KP. KAUMAN RT.04/RW.09 KAB. KENDAL
12575 1100455632 TRI PURWOKO SUKRON. AKS. MM 22/1/1964 JL. GONDOSULI NO.20 MANGKUYUDAN RT.04/02 KOTA SURAKARTA
12576 1100455633 YATINI MUHADI KARTASENTANA 10/12/1976 ARGOPENI RT.01/04 KAB. KEBUMEN
12577 1100455634 MARTINI KRAMA WINTANA 15/07/1962 ARGOPENI RT. 01. 04 KAB. KEBUMEN
12578 1100455635 SUKAMDO 18/06/1971 SIDOMULYO RT. 01 RW. 09 KAB. KARANGANYAR
12579 1100455637 ADMIN MADRAJI MAWIREJA 13/05/1970 ARGOPENI RT. 01. 04 KAB. KEBUMEN
12580 1100455638 SUKARNO 8/7/1970 GENGGONGAN RT.05/02 KAB. DEMAK
12581 1100455640 IKA MURNI KURNIAWATI 19/12/1971 SIDOMULYO RT. 01 RW. 09 KAB. KARANGANYAR
12582 1100455643 BUDIARTI 17/12/1963 KALISALAK RT.3/6 KAB. BANYUMAS
12583 1100455647 ARIF AINUNAIM 30/03/1975 SUMURJURANG RT 005 / RW 003 KOTA SEMARANG
12584 1100455648 SUPRIYANTA 22/4/1967 BARONGAN 02/06 KAB. KLATEN
12585 1100455649 ANIK HARIYATI 12/12/1973 SUMURJURANG RT 5 RW 3 KOTA SEMARANG
12586 1100455655 ENDANG SULASTRI 07/04/1967 BARONGAN 02/06 KAB. KLATEN
12587 1100455662 SLAMET YHULIYANTO 31/07/1967 JETIS RT. 03/07 KAB. MAGELANG
12588 1100455663 URIP MULYATI 02/03/1963 BANJARMANGU RT 002 RW 001 KAB. BANJARNEGARA
12589 1100455664 ENDANG TEGOWATI SUKARNO ARIFIN 22/05/1963 LAU RT 01 RW 03 KAB. KUDUS
12590 1100455665 DAROJAH 27/09/1968 KALINYAMAT KULON RT.5 RW.1 KOTA TEGAL
12591 1100455667 IDA TRI HANDAYANINGSIH 13/2/1975 JETIS 03/07 KAB. MAGELANG
12592 1100455668 LATIFAH 27/12/1960 DUSUN. GINTUNG 02/01 KAB. MAGELANG
12593 1100455669 MURNI 20/10/1958 TALUNAMBA RT 004 RW 002 KAB. BANJARNEGARA
12594 1100455676 NARTO 10/06/1969 DUSUN SIDAMULYA RT.001 RW.12 KAB. CILACAP
12595 1100455677 SOLICHAH 09/12/1960 [Link] RT.07/02 RANDUSARI DORO KAB. PEKALONGAN
12596 1100455678 NUR MUTMAINAH 24/9/1973 DUSUN SIDAMULYA RT.001 RW.12 KAB. CILACAP
12597 1100455681 ANWAR SODIK 14/12/1983 PERUM BUMI ALAM SEJAHTERA RT.22/RW.07 KAB. KENDAL
12598 1100455682 SRI WAHYUNI 02/05/1959 MODRAN 01/12 KAB. KLATEN
12599 1100455684 FAUZIAH HAYU IRAWATI 15/05/1974 JETIS 12/05 KAB. KLATEN
12600 1100455685 MUHAMMAD NURCHOLIS MADJID 5/12/1970 JETIS 12/05 KAB. KLATEN
12601 1100455686 NURVARIYA 11/11/1984 PERUM BUMI ALAM SEJAHTERA RT.22/RW.07 KAB. KENDAL
12602 1100455687 ENDANG SUMARSIH 03/08/1963 KABANGAN RT 05 RW 04 KOTA SURAKARTA
12603 1100455689 UMI MAHMUDAH 15/04/1960 TODANGSAN LOR 02/04 KAB. KLATEN
12604 1100455690 TUKIRIN 04/11/1962 ASPOL PENULARAN RT.05 RW.07 KOTA SURAKARTA
12605 1100455691 SOERATNO 30/06/1962 JL. KENCUR IV NO. 236 RT 9 RW 8 KOTA SEMARANG
12606 1100455692 SRI RAHAYU SUSILOWATI 05/04/1965 [Link] IV/236 RT.09 RW.08 KOTA SEMARANG
12607 1100455693 SURAHJIATUN 17/06/1963 ASPOL PENULARAN RT.05 RT07 KOTA SURAKARTA
12608 1100455694 KHOJANAH 20/01/1984 DUKUH WATUJAJAR RT.09/02 BOJONG KAB. TEGAL
12609 1100455695 ROJUDIN, [Link] 21/05/1973 DUKUH WATUJAJAR RT.09/02 BOJONG KAB. TEGAL
12610 1100455697 MAKSUM SULAIMAN 09/12/1969 DSN KEDAWUNG RT. 02 RW. 05 KAB. PEMALANG
12611 1100455699 NUR MADINAH 15/04/1973 [Link] - SIDOREJO RT.02 RW.05 KAB. PEMALANG
12612 1100455700 FATCHURROHMAN 5/3/1967 KARANGSARI RT 01 /02 KAB. BANYUMAS
12613 1100455701 EDI SARWONO, SP 29/10/1960 KARANGSARI RT 01/01 KAB. PURWOREJO
12614 1100455702 DARYOTO 31/12/1962 DSN.V - PURWOSARI RT.02 RW.05 KAB. PEMALANG
12615 1100455703 ASRONI WAHYUDI 31/12/1964 [Link] SELATAN RT.04/07 KOTA SEMARANG
12616 1100455704 SUKENAH 10/07/1968 DSN V PURWOSARI RT. 02 RW. 05 KAB. PEMALANG
12617 1100455705 SEMIRAH 29/04/1964 TAMBONGWETAN 01/07 KAB. KLATEN
12618 1100455706 NARIMO 20/04/1965 TAMBANGWETAN 01/07 KAB. KLATEN
12619 1100455707 ROKIM 22/7/1962 MOROREJO RT.02/RW.05 KAB. KENDAL
12620 1100455708 SUPARI 11/12/1966 KALILANGSE RT.04/03 KOTA SEMARANG
12621 1100455710 KUSTONO 14/7/1971 SUGIHAN 01/06 KAB. GROBOGAN
12622 1100455712 DWI ENI KRISTIYANINGSIH 14/12/1974 MENDAK SELATAN 01/11 KAB. MAGELANG
12623 1100455713 RUKESI 04/08/1960 SIDOMULYO RT.03/02 KAB. DEMAK
12624 1100455715 SULASIH 31/5/1976 SUGIHAN 01/06 KAB. GROBOGAN
12625 1100455721 NANIK FARIANA ASFAN 29/12/1963 DEMAAN 03/06 KAB. JEPARA
12626 1100455723 DRS, BAMBANG SUBIYAKTO 23/10/1961 PERUM SRATEN PERMAI H.15 RT.03 RW.07 KAB. SEMARANG
12627 1100455725 DIAN SURYANI 06/09/1982 PRAMBATAN LOR RT 08 RW 01 KAB. KUDUS
12628 1100455728 NOR HIDAYAH MULYONO 28/09/1998 HADIPOLO RT.05 RW.04 KAB. KUDUS
12629 1100455729 BETAH REJO JADI 05/12/1973 WONOKETINGAL RT 01/04 KAB. DEMAK
12630 1100455731 SUHARDI MANGUNHARDJO ABUDULGHONI 13/01/1960 DS. KARANGDUWUR RT 03/04 PETANAHAN KAB. KEBUMEN
12631 1100455732 ELLA PUTRI RAHMAWATI 10/3/1996 PRAMBATAN KIDUL RT.10 RW.02 KAB. KUDUS
12632 1100455733 F. ETI SUSILOWATI SUKIDI 19/11/1970 PRAMBATAN KIDUL RT 10 RW 02 KAB. KUDUS
12633 1100455735 SUSILO KRESNO 01/11/1958 GRIYA PRAJA MUKTI BLOK F/15 RT.02/RW.07 KAB. KENDAL
12634 1100455736 SUWARTINI 25/02/1961 GRIYA PRAJA MUKTI BLOK F /15 RT.02/RW.07 KAB. KENDAL
12635 1100455737 USWATUN HASANAH 18/08/1969 KRADENAN GG. 2 NO. 58 RT. 3 RW. 1 KOTA PEKALONGAN
12636 1100455738 ALI SHODIQ, S. PD.I 2/6/1958 KRADENAN GG. 2 NO. 58 RT. 3 RW. 1 KOTA PEKALONGAN
12637 1100455740 SOLPIAH JASMANI BIRUN 10/10/1962 PRAMBATAN KIDUL RT 10 RW 02 KAB. KUDUS
12638 1100455741 SUDARMAN DARSAN MASIJAH 13/09/1968 KEDUNGWINONG 1/1 SUKOLILO KAB. PATI
12639 1100455742 PARJAN BAKRI TOKARYO 12/02/1959 NGEPOS RT 01 RW 07 KOTA SALATIGA
12640 1100455743 RUBIAH JASMO SIBAN 9/9/1969 KEDUNGWINONG 1/1 SUKOLILO KAB. PATI
12641 1100455744 SITI FATIMAH KADAR 24/12/1957 NGEMBAL KULON RT 05 RW 03 KAB. KUDUS
12642 1100455745 KUSTIYAH SARWO SANUSI 17/08/1961 GETAS PEJATEN RT 03 RW 03 KAB. KUDUS
12643 1100455748 ANIFIYAH SURURUDIN ABDUL KAHAR 20/08/1969 KARANGDUWUR RT. 03. 04 KAB. KEBUMEN
12644 1100455749 KARYAH MARTO DARSONO 7/3/1958 SELANG RT. 03. 04 KAB. KEBUMEN
12645 1100455751 SUDARWATI 17/10/1962 KEMBANG JERUK VII/19 RT.05/08 KOTA SEMARANG
12646 1100455753 ZUMARTI SUDARNO SYAFI'I 16/03/1967 KALIWUNGU RT 01 RW 06 KAB. KUDUS
12647 1100455755 FARIDA ARIYANI UMAR SAID 20/01/1975 SINGOCANDI RT 03 RW 01 KAB. KUDUS
12648 1100455756 EDI SUFIANTO 25/05/1959 KEMBANG JERUK VII/19 RT.05/08 KOTA SEMARANG
12649 1100455757 AGUS PRASETYO RUPITO 17/08/1972 SINGOCANDI RT 03 RW 01 KAB. KUDUS
12650 1100455758 SRI NINGSIH NGADIMIN 31/05/1982 GONDANGMANIS RT.04 RW.01 KAB. KUDUS
12651 1100455759 BAMBANG SUHARSONO KASMAN 22/08/1972 GONDANGMANIS RT 04 RW 01 KAB. KUDUS
12652 1100455760 ELIYA NIKMAH DAHRONI 18/9/1972 SINGOCANDI RT 01 RW 02 KAB. KUDUS
12653 1100455761 SUHERMAN MASIRIN SARBAWI 11/11/1970 SINGOCANDI RT 01 RW 02 KAB. KUDUS
12654 1100455762 MUH ZAKARIM, SH 12/09/1963 KAMPUNGSEWU RT.03 RW. 03 KOTA SURAKARTA
12655 1100455765 RENY SETYOWATI SLAMET RIYADI 17/07/1984 SINGOCANDI RT 04 RW 01 KAB. KUDUS
12656 1100455766 WAHYU NUGROHO 22/06/1971 PERUM ADHI GRAHA SENTOSA NO.14 RT.2/4 KAB. DEMAK
12657 1100455767 ERLINA RACHMAWATI 17/02/1973 PERUM ADHI GRAHA SENTOSA NO.14 RT.2/4 KAB. DEMAK
12658 1100455768 DIDIK ERNAWAN SUBARDI 07/08/1979 PRAMBATAN KIDUL RT.10 RW.02 KAB. KUDUS
12659 1100455769 KARTINAH 19/02/1962 KARANGSARI RT 01/01 KAB. PURWOREJO
12660 1100455770 NAILIL MUNA ATALINA 04/01/1984 PRAMBATAN KIDUL RT 10 RW 02 KAB. KUDUS
12661 1100455771 YUNIARTI MUSLIMAH 24/06/1972 KAMPUNGSEWU RT 03 RW 03 KOTA SURAKARTA
12662 1100455772 SUNARTI KARSIMAN MASRAB 16/07/1974 JETISKAPUAN RT 03 RW 03 KAB. KUDUS
12663 1100455773 SHULCHAN ROCHMAT MASIRUN 02/03/1960 JETISKAPUAN RT.03 RW.03 KAB. KUDUS
12664 1100455774 NISFUL LAILA RAMELAN 23/08/1971 PURWOSARI RT 05 RW 09 KAB. KUDUS
12665 1100455775 ISMAN HADI SUSANTO 15/04/1967 PURWOSARI RT.05 RW.09 KAB. KUDUS
12666 1100455777 SITI MAGFIROH SANUSI 10/06/1982 HADIPOLO RT 03 RW 04 KAB. KUDUS
12667 1100455778 SRI RAHAYU 14/09/1962 SUMBER BARU 03/03 KAB. KLATEN
NO NO. PORSI NAMA TANGGAL LAHIR ALAMAT KAB/KOTA KETERANGAN
12668 1100455780 SAMIRAH 07/05/1966 LANGKAP RT 05 RW 01 KERTANEGARA KAB. PURBALINGGA
12669 1100455781 SUPRIYADI 24/7/1960 SLAWI KULON RT. 01/01 SLAWI KAB. TEGAL
12670 1100455783 GUNADI 15/12/1961 DUDU WETAN RT 01/02 KAB. PURWOREJO
12671 1100455789 PARIYAH 10/04/1963 DUDU WETAN RT 01/02 KAB. PURWOREJO
12672 1100455792 SUPRIYADI SURI RASMINI 15/08/1976 KALIKALONG 5/4 TAYU KAB. PATI
12673 1100455795 SRI SUHARNI SUKEMI 11/6/1979 KALIKALONG 5/4 TAYU KAB. PATI
12674 1100455797 ZAENUN 28/10/1972 JL NUSA INDAH RT.10/RW.06 KAB. KENDAL
12675 1100455798 ARINA RIZQI HASANAH 10/02/1994 JAMPIROSO 02/01 KAB. MAGELANG
12676 1100455799 DHURIYAT 30/04/1971 JL NUSA INDAH RT.10/RW.06 KAB. KENDAL
12677 1100455803 SUMIAH PAIDJAN SUMI 20/05/1965 KARANGKONANG 7/1 WINONG KAB. PATI
12678 1100455804 ARI ROMADHON 25/6/1982 CIMOHONG NO.92 RT.01/01 BULAKAMBA KAB. BREBES
12679 1100455806 KURNIATIN 21/10/1962 KERTAYASA RT 006 RW 001 KAB. BANJARNEGARA
12680 1100455807 ERNAWATI ASPURI ASNAWI 06/02/1974 BANDUNGHARJO 03/04 KEC. DONOROJO KAB. JEPARA
12681 1100455809 BADRUZAMAN ABDULLAH FAQIH 25/09/1966 BANDUNGHARJO 03/04 KEC. DONOROJO KAB. JEPARA
12682 1100455811 SUDAR SAMSU AYUBI 06/08/1957 KARANGKONANG 7/1 WINONG KAB. PATI
12683 1100455812 ABDUL FARIK MUCHLIS ASMUDI 01/12/1981 HADIPOLO RT.03 RW.04 KAB. KUDUS
12684 1100455813 SAMIDI 20/7/1964 DUSUN SIAPIT NO. 035 RT. 04 RW. 08 KAB. CILACAP
12685 1100455814 MARYANTO KASIRAN WAKINI 10/10/1958 WINONG 8/4 PATI KAB. PATI
12686 1100455815 MUKHLISUL HADI CHOIRON 05/05/1975 TAMBAHARJO 5/1 PATI KAB. PATI
12687 1100455816 SWASTO TRIWARDI PUTRO 29/05/1960 GRIYA CIPTA LARAS RT.03 RW.09 KAB. WONOGIRI
12688 1100455817 TUGIYATI 8/8/1965 JL. MALABAR NO.29 RT.006 RW.06 KAB. CILACAP
12689 1100455818 YOGO PRATOMO 30/11/1975 KARANGSARI RT 01/03 KAB. PURWOREJO
12690 1100455819 SURATMI 10/01/1967 DUSUN SIAPIT NO. 035 RT. 04 RW. 08 KAB. CILACAP
12691 1100455821 SRI SUWARNI 09/02/1964 PERUM GRIYA CIPTA LARAS RT.03 RW.09 KAB. WONOGIRI
12692 1100455822 KARMAN SEKAR MARSANI 18/04/1966 PENGKOL 03/07 KAB. JEPARA
12693 1100455823 MUHAMMAD LUTFI 11/3/1975 GONDANG RT.06/02 WONOPRINGGO KAB. PEKALONGAN
12694 1100455826 LIN ETI AFIA MAFTUHAH 15/12/1972 MARGOREJO 2/1 MARGOREJO KAB. PATI
12695 1100455828 NUR HAYATI 04/02/1967 BANTULAN 04/02 KAB. KLATEN
12696 1100455829 KUSMIATI SURIS PAIMIN 02/06/1976 PENGKOL 03/07 KAB. JEPARA
12697 1100455830 SULISTIOWATI 18/07/1968 CENGKLIK RT 02/19 KOTA SURAKARTA
12698 1100455831 KARIS YULIASTUTI, SPDI 22/07/1979 KARANGSARI RT 01/03 KAB. PURWOREJO
12699 1100455832 MUSLIH,M,DRS 28/03/1959 BANTULAN 04/02 KAB. KLATEN
12700 1100455833 SURYATI 15/09/1959 TADAHAN RT. 03 RW. 03 KAB. KARANGANYAR
12701 1100455834 SUKAMTO 21/03/1958 TADAHAN RT. 03 RW. 03 KAB. KARANGANYAR
12702 1100455836 ZUMROH 15/06/1962 KEBONAGUNG RT.04/02 KAB. DEMAK
12703 1100455838 NOOR KHORIDA ACHMAD 09/08/1965 WINONG 8/4 PATI KAB. PATI
12704 1100455839 FATIMAH 5/5/1959 RANDUDONGKAL RT. 09 RW. O1 KAB. PEMALANG
12705 1100455840 SITI CHOTIJAH, ST 23/11/1977 JL. TAMBRA DALAM UTARA 52 RT.07/09 KOTA SEMARANG
12706 1100455841 BAMBANG ERDIYANTO 22/12/1958 RANDUDONGKAL RT.09 RW.01 KAB. PEMALANG
12707 1100455842 DUMININGSIH 23/10/1969 [Link] GG PRINGGONDANI I 07/21 KAB. GROBOGAN
12708 1100455843 SENEN RIWANTO 05/12/1966 [Link] GG PRINGGONDANI I 07/21 KAB. GROBOGAN
12709 1100455844 ENDANG WIDAYATI 23/04/1975 JL RAYA KLAREYAN RT. 02 RW. 03 KAB. PEMALANG
12710 1100455845 HERI SUYANTO 05/05/1970 KLAREYAN RT.02 RW.03 KAB. PEMALANG
12711 1100455846 ASHMA JAMAL 05/08/1964 LINGKUNGAN NGLEJOK 01/15 KAB. GROBOGAN
12712 1100455848 SUDJATMI 04/08/1966 LINGKUNGAN NGLEJOK 01/15 KAB. GROBOGAN
12713 1100455852 MOCHAMMAD FATHONI MUZTAHID 21/09/1970 MARGOREJO 2/1 MARGOREJO KAB. PATI
12714 1100455854 ELI PURWANINGSIH ATMO PAWIRO 18/04/1977 DS. KUWARU RT 01/03 KUWARASAN KAB. KEBUMEN
12715 1100455855 SITI ROMLAH 02/05/1961 DEBONG TENGAH RT.06 RW.04 KOTA TEGAL
12716 1100455857 ANIS ZAIMAH 01/10/1969 BUKO RT.03/04 KAB. DEMAK
12717 1100455858 AHMAD AFIQ MUFIDIN 02/10/1968 MUTIH KULON RT.01/04 KAB. DEMAK
12718 1100455859 M. TAUFIQ SUTOPO 05/11/1960 BUKO RT.03/04 KAB. DEMAK
12719 1100455861 RUMISIH YARMAN SEPRIN 23/06/1963 TRIMULYO 4/1 JUWANA KAB. PATI
12720 1100455863 SULARDI 12/07/1963 NGUTER RT. 02/06 KAB. SUKOHARJO
12721 1100455864 ALINA FAUZIYAH 14/05/1980 MUTIH KULON RT.01/04 KAB. DEMAK
12722 1100455865 SRIYATUN YACO WAGINAH 09/10/1967 BAKARAN WETAN 3/3 JUWANA KAB. PATI
12723 1100455869 HARTININGSIH 23/4/1964 NGUTER RT. 02/06 KAB. SUKOHARJO
12724 1100455870 TITIN BUDIYATI BAMBANG ABD HAMID 20/12/1972 MIJEN RT 04 RW 07 KAB. KUDUS
12725 1100455872 MUJIYATUN 17/06/1967 KARANGWARU RT 28/07 KAB. SRAGEN
12726 1100455874 SITI MUADAH MUSNADI 25/05/1971 SUGIHREJO 1/5 GABUS KAB. PATI
12727 1100455876 SUTRESNI,DRA 20/05/1967 SOMOPURO 20/09 KAB. KLATEN
12728 1100455877 MARDI DOTO BIRAH 07/03/1966 BAKARAN WETAN 3/3 JUWANA KAB. PATI
12729 1100455879 KHAMDIANTO ABDUL MUKTI SUHADI 03/12/1973 MIJEN RT 04 RW 07 KAB. KUDUS
12730 1100455880 SATIYAH 21/03/1972 RANDEGAN RT 3 / 9 WANGON KAB. BANYUMAS
12731 1100455881 PASMAN RESO TAMSIR 20/08/1964 SUGIHREJO 1/5 GABUS KAB. PATI
12732 1100455882 LANJAR 07/06/1964 SOMOPURO 20/09 KAB. KLATEN
12733 1100455883 KARSAN 15/7/1961 RANDEGAN RT. 3/9 KAB. BANYUMAS
12734 1100455884 RAJIATI 31/12/1960 MOJOROTO RT 20 KAB. SRAGEN
12735 1100455886 WALUYO 13/04/1963 KARANGWARU RT 28/07 KAB. SRAGEN
12736 1100455887 TRIYONO HADI SURYANTO 27/02/1960 TAHUNAN 07/07 JL. TAMAN SADEWA KAB. JEPARA
12737 1100455888 SITI MASLACHAH 10/06/1973 DK. KARANGPOH RT. 22 RW. 05 KAB. PEMALANG
12738 1100455889 MUHAMMAD SYAEFUL HS 01/05/1966 [Link] RT.022 RW.0005 KAB. PEMALANG
12739 1100455892 PRASETIYO LILIK SUTRIYARSO 7/1/1960 TIDAR WARUNG RT. 02 RW. 06 KOTA MAGELANG
12740 1100455893 INDAH TITISARI 15/10/1975 PURBAYASA N0.04 RT.06/01 TONJONG KAB. BREBES
12741 1100455894 SRI PURWATI 12/01/1959 CANDISARI 01/04 KAB. GROBOGAN
12742 1100455896 SUKRISTANTI RADJAT MASUDI 7/6/1961 TAHUNAN 07/07 JL. TAMAN SADEWA KAB. JEPARA
12743 1100455899 IDA KUSUMAWATI ABDUL CHOLIQ 18/10/1974 GAJAHMATI 4/2 PATI KAB. PATI
12744 1100455901 SITI ROHYATI 27/10/1965 TIDAR WARUNG RT. 02 RW. 06 KOTA MAGELANG
12745 1100455902 RACHMAT UTOMO SUKIMIN 13/6/1966 JL. OSAMALIKI NO.14 RT 02 RW 10 KOTA SALATIGA
12746 1100455906 SRI SLAMET RIYANI 15/12/1969 JL. OSAMALIKI NO. 14 RT 02 RW 10 KOTA SALATIGA
12747 1100455908 SITI AFWAH 03/11/1963 BKT BERINGIN ASRI IV BLOK.A404 RT.04/07 KOTA SEMARANG
12748 1100455909 NGATMIDJAN 03/05/1959 TUNGGU 03/02 KAB. GROBOGAN
12749 1100455910 ENDANG SUNDARI 26/05/1965 TUNGGU 03/02 KAB. GROBOGAN
12750 1100455911 SA'ADAH MACHFUDH BAJURI 02/06/1972 PANJUNAN RT 02 RW 02 KAB. KUDUS
12751 1100455912 TUKIRAN 18/08/1958 RANDUALAS RT 07 RW 01 KAB. BOYOLALI
12752 1100455913 SOFIATUN NATO KEMISAN 20/07/1976 MULYOHARJO 02/02 KAB. JEPARA
12753 1100455915 IDA MARWANI 17/09/1963 RANDUALAS RT 07 RW 01 KAB. BOYOLALI
12754 1100455916 HANDOYO KURDI WIROSARINI 01/08/1972 MULYOHARJO 02/02 KAB. JEPARA
12755 1100455917 TUTIK EKA HARYANI 19/04/1958 PERUM ASRIMULYO JL. A. YANI RT 02 RW 07 KAB. WONOSOBO
12756 1100455918 SRI WIJAYANTI [Link]. 09/03/1969 JL. SURABAYAN [Link] NO.66 RT.11/12 KOTA TEGAL
12757 1100455919 KUSTIYONO, MPD 24/01/1962 JL. SURABAYAN [Link] NO. 66 RT.11/12 KOTA TEGAL
12758 1100455920 ANDI YULIA MUSTIKA 16/07/1973 TAMAN ASRI B-8/16 RT. 07 RW. 04 KAB. PEMALANG
12759 1100455921 LUK AZAROH 27/7/1957 KATONSARI RT.03/01 KAB. DEMAK
12760 1100455922 ANANG ROMDLONI 31/10/1970 TAMAN ASRI B.8/16 RT.07 RW.04 KAB. PEMALANG
12761 1100455924 DRA. RINI PUJIASTUTI 28/2/1966 JL. SEDITAN INDAH RT.09/02 BREBES KAB. BREBES
12762 1100455926 IR. PRIJADI KRISTIJANTO 27/10/1965 JL. SEDITAN INDAH RT.09/02 BREBES KAB. BREBES
12763 1100455928 MAULIDA TSALIS MAROH 06/06/2000 GARUNG LOR RT 01 RW 03 KAB. KUDUS
12764 1100455929 DIAN ADININGTIAS ACHMADI. MS 27/08/1973 PRAMBATAN KIDUL RT 09 RW 04 KAB. KUDUS
12765 1100455930 MARIA MAYAWATI SUDARMO 08/07/1971 ROBAYAN 017/002 KEC. KALINYAMATAN KAB. JEPARA
12766 1100455931 ARIF SUWANTO SELAMET WAHYUDI 28/02/1972 PRAMBATAN KIDUL RT.09 RW.04 KAB. KUDUS
12767 1100455932 NURANI ADITAMA ACHMADI MASLAM 02/11/1978 PRAMBATAN KIDUL RT 09 RW 04 KAB. KUDUS
12768 1100455933 ADIDAYA WIRAWAN SOEWANDI 04/02/1979 PRAMBATAN KIDUL RT 09 RW 04 KAB. KUDUS
12769 1100455934 ACHMAD SUYANTO SHOLICHIN MUGHNI 10/7/1962 SINGOCANDI RT 01 RW 04 KAB. KUDUS
12770 1100455935 HIKMATUL HUDA ADLAN 19/10/1971 ROBAYAN 017/002 KEC KALINYAMATAN KAB. JEPARA
12771 1100455936 MUHAMAD KHASAN FAUZI 05/09/1996 SINGOCANDI RT 01 RW 04 KAB. KUDUS
12772 1100455946 DAYUNI 12/02/1981 DK. PENGILON RT. 01/04 SONGGOM KAB. BREBES
12773 1100455947 ABDUL LATIP 08/08/1969 DK PENGILON RT. 01/04 SONGGOM KAB. BREBES
12774 1100455948 NUR TAUFIQ 11/9/1971 PURBAYASA NO.04 RT. 04/01 TONJONG KAB. BREBES
12775 1100455950 NGATIPAH KAMARI MADNAWI 31/12/1959 TANJUNGREJO RT 05 RW 04 KAB. KUDUS
12776 1100455952 SUPIATI NUR ALI TOWISONO 16/4/1973 TANJUNGREJO RT 05 RW 04 KAB. KUDUS
12777 1100455953 SRI HARTINI 24/12/1969 GONILAN ASRI -1 RT.03/RW.10 KAB. SUKOHARJO
12778 1100455954 MUH IBNU SHOLEH 23/08/1970 GONILAN ASRI -1 RT.03/RW.10 KAB. SUKOHARJO
12779 1100455956 TURSINAH 18/2/1962 DAWUHAN RT 006 RW 002 KAB. BANJARNEGARA
12780 1100455957 SAHAL SULTON ABIDIN 17/10/1974 JETAK I RT. 02/04 KAB. MAGELANG
12781 1100455958 SURATNO AMAD DULAH 26/6/1962 TANJUNGREJO RT 05 RW 04 KAB. KUDUS
12782 1100455959 SITI MARIYATUN MASHURI 10/10/1960 GEDANGAN RT 01/01 KAB. JEPARA
12783 1100455960 SUMARNI 07/06/1966 PADASAN 05/02 KAB. KLATEN
12784 1100455963 NORKHAN ABU YARI 06/03/1964 GEDANGAN RT 01/01 KAB. JEPARA
12785 1100455964 DJUMARI 25/07/1960 TRIMULYO RT 2 RW 4 KOTA SEMARANG
12786 1100455965 SRI BAGIARTANI SAMTANOES 05/05/1962 JL. SUROPATI 228 A RT 01 RW 13 KOTA SALATIGA
12787 1100455966 SITI CHOMARIYAH 10/06/1960 PREMBAN RT. 03/06 KAB. SUKOHARJO
12788 1100455967 SARDIMAN 09/08/1958 [Link] TUGEL RT 3/8 KRGKLESEM KAB. BANYUMAS
12789 1100455968 KUSRIANA 01/01/1970 JL.G. TUGEL RT.3/8 KARANGKLESEM KAB. BANYUMAS
12790 1100455970 WIARTA TRILAKSANA 08/10/1995 JL. SUROPATI 228 A RT 01 RW 13 KOTA SALATIGA
12791 1100455971 SRI SATITI 11/03/1969 DANI RT.01/RW.04 KAB. SUKOHARJO
12792 1100455972 JOKO PURWANTO 05/04/1962 DANI RT.01/RW.04 KAB. SUKOHARJO
12793 1100455973 AKUN FATAT AQSOL ULA 25/05/1972 JETAK I RT. 02/04 KAB. MAGELANG
12794 1100455976 SUMASNA 20/4/1964 TEGALREJO RT 09 RW 02 KAB. BOYOLALI
12795 1100455977 MUAWANAH 24/10/1977 PLOSOREJO 01/07 KAB. GROBOGAN
NO NO. PORSI NAMA TANGGAL LAHIR ALAMAT KAB/KOTA KETERANGAN
12796 1100455978 RAKIJAN 29/01/1969 PENJALINAN 01/07 KAB. GROBOGAN
12797 1100455980 SARTINI 06/06/1961 BABADAN 01/01 KAB. KLATEN
12798 1100455983 SUYATNO 17/06/1967 GEDANGAN RT.06/RW.01 KAB. SUKOHARJO
12799 1100455984 ANGGUN BAHTIAR 01/02/1972 GRIYA CANDRA MAS DB-38 SIDOHARJO KAB. PURBALINGGA
12800 1100455986 NURGIYARTI 09/08/1974 GEDANGAN RT.06/RW.01 KAB. SUKOHARJO
12801 1100455987 MUHYATI 02/06/1960 PANICAN RT 13 RW 05 KAB. PURBALINGGA
12802 1100455990 SITI KHOIRIYAH 18/7/1966 SROYO RT. 06 RW. 10 KAB. KARANGANYAR
12803 1100455991 REFFANY CHOIRU RIZKIARNA 22/12/1994 SROYO RT. 06 RW. 10 KAB. KARANGANYAR
12804 1100455992 MUSIRIN 05/09/1962 JL. MENUR NO. 5 RT 02 RW 02 KAB. BANYUMAS
12805 1100455993 DWI HARDJANI 30/01/1961 DANGKEL, RT.02/RW.01 KAB. TEMANGGUNG
12806 1100455994 SITI ROFIQOH 13/08/1967 JL. MENUR NO 5 RT 02 RW 02 KAB. BANYUMAS
12807 1100455995 SRI KAYATI 16/06/1970 TEGAL BARU RT.01 RW.05 KOTA SURAKARTA
12808 1100455996 MARTONO, IR 07/12/1967 TEGAL BARU RT 01/05 KOTA SURAKARTA
12809 1100456003 EDY CAHYONO 5/12/1964 TMN KRADENAN ASRI G-8 RT.03/11 KOTA SEMARANG
12810 1100456005 NURHADI 25/10/1959 KALICILIK RT.03/01 KAB. DEMAK
12811 1100456006 DYAH WIDYASTUTI 29/11/1966 TAMAN KRADENAN ASRI G-8 RT 3 RW 11 KOTA SEMARANG
12812 1100456007 ASIYANAH SRI MULYANI 16/04/1979 KAUMAN MANDING, RT.01/RW.02 KAB. TEMANGGUNG
12813 1100456008 AMIN MACHSUN 24/01/1972 KAUMAN MANDING, RT.01/RW.02 KAB. TEMANGGUNG
12814 1100456010 MASRUKIN 20/09/1983 TLOGOREJO RT.03/08 KAB. DEMAK
12815 1100456011 SUPRIYADI 15/05/1960 SUMBEREJO RT.01/04 KAB. DEMAK
12816 1100456012 ROPI'AH 07/10/1969 SUMBEREJO RT.01/04 KAB. DEMAK
12817 1100456013 ENDRO WIBOWO 4/4/1972 NGAGLIK RT 04 RW 04 KAB. WONOSOBO
12818 1100456014 AINI UMAROH 24/11/1987 TLOGOREJO RT.03/08 KAB. DEMAK
12819 1100456015 DWI HANDAJANI 15/09/1971 NGAGLIK RT 04 RW 04 KAB. WONOSOBO
12820 1100456016 NURFANDILAH 10/03/1978 TELUK RT.02/07 KAB. DEMAK
12821 1100456017 SRI HARTINI 16/06/1960 TAGUNG RT 01 RW 06 KAB. BOYOLALI
12822 1100456018 ANDY MASRO INDONI 24/04/1989 KO. BUKIT MAMPANG RESIDENCE A 16 RT 005 / RW
KAB.
007BOYOLALI
12823 1100456019 SRI WURYANTI 14/08/1966 SAWAHAN BARU RT.03/RW.10 KAB. SUKOHARJO
12824 1100456020 TUTRISNO 10/5/1974 TELUK RT.02/07 KAB. DEMAK
12825 1100456021 SUPARSONO JOKO PULYANTO 22/12/1964 SAWAHAN BARU RT.03/RW.10 KAB. SUKOHARJO
12826 1100456023 KASTURI SAWINI SARIADI 03/01/1964 KELET 022/003 KAB. JEPARA
12827 1100456025 HERNY WIDIYANDANI WIJAYA 30/8/1969 DS. KEWANGUNAN RT 01/03 PETANAHAN KAB. KEBUMEN
12828 1100456026 TURAEKHAN AMAT MASRUM 10/10/1958 MIJEN RT 07 RW 04 KAB. KUDUS
12829 1100456027 SITI MASKUROTUN 22/03/1966 KP. KARANGANYAR RT.01/05 KOTA SEMARANG
12830 1100456028 ARODLUL QOLBIYAH DJAIS 04/05/1964 MIJEN RT 07 RW 04 KAB. KUDUS
12831 1100456029 DWI MULYANI 08/04/1980 KEDUNG BULUS RT 22/07 KAB. SRAGEN
12832 1100456032 NIKMAH 27/3/1969 KARANGASEM RT 03/03 KAB. DEMAK
12833 1100456034 IMTICHANU ROCHMAH 31/12/1968 SINDURJAN RT 03/03 KAB. PURWOREJO
12834 1100456036 JAMIAN JAMARI SARKAM 24/05/1974 JEPANG PAKIS RT.04 RW.04 KAB. KUDUS
12835 1100456043 DRS BAMBANG SUKMONOHADI 13/06/1968 SINDURJAN RT 03/03 KAB. PURWOREJO
12836 1100456044 SITI AMINAH 13/8/1969 KARANGTOWO RT 02/03 KAB. DEMAK
12837 1100456045 RIDWAN TRI HANDOYO 12/12/1981 SIDOKERTO RT 03 RW 03 KAB. PATI
12838 1100456047 SULARMI 07/09/1960 NGUMBUL RT 03 RW 03 KAB. BOYOLALI
12839 1100456050 MASKUN 02/01/1959 GAJI RT 02/02 KAB. DEMAK
12840 1100456051 MUSLIKAH 25/04/1967 GAJI RT 02/02 KAB. DEMAK
12841 1100456053 SUKRI 02/07/1966 KARANGTOWO RT 02/03 KAB. DEMAK
12842 1100456054 SISWANTO 29/06/1973 BUMIAYU RT.09/RW.03 KAB. KENDAL
12843 1100456056 R.A. ELOK HUSNA IRFANIYA 10/01/1997 KP. KAUMAN RT.04/RW.09 KAB. KENDAL
12844 1100456059 SRI HANDAYANI 06/04/1960 BAKALAN RT. 04/03 KAB. SUKOHARJO
12845 1100456062 NUR KHOLIDAH SHOLAHUDDIN 07/06/1968 KP. KAUMAN RT.04/RW.09 KAB. KENDAL
12846 1100456065 UMI HIDAYAH SUWARTO SASTRO 6/3/1986 KARANGSARI RT.04/04 KAB. KEBUMEN
12847 1100456066 M. SHOLAHUDDIN HUMAIDULLOH, KH 12/10/1962 KP. KAUMAN RT.04/RW.09 KAB. KENDAL
12848 1100456067 MUNIAH 10/01/1960 KP. KARANGSARI RT.03/RW.03 KAB. KENDAL
12849 1100456068 MUGITO 02/10/1962 JEKETRO 03/01 KAB. GROBOGAN
12850 1100456072 SURATIN 02/02/1958 NGROTO 04/05 KAB. GROBOGAN
12851 1100456075 MARWATI 1/1/1961 NGROTO 04/05 KAB. GROBOGAN
12852 1100456076 ABDUL HARIS 20/12/1967 PEGANDON RT.01/RW.02 KAB. KENDAL
12853 1100456077 SUMIATI 9/7/1980 PEGANDON RT.01/RW.02 KAB. KENDAL
12854 1100456078 MOHAMMAD ZAINAL MUTTAQIN 16/12/1985 GONDANGMANIS RT 01 RW 01 KAB. KUDUS
12855 1100456079 KHAYATIN 02/11/1962 JEKETRO 01/01 KAB. GROBOGAN
12856 1100456080 SUPRIYADI MANDIARJO MUSTARJA 16/05/1980 DS KARANGSARI RT 04/04 KEBUMEN KAB. KEBUMEN
12857 1100456082 MASRUROH MUKHID KAYEN 03/05/1970 HADIPOLO RT 05 RW 04 KAB. KUDUS
12858 1100456083 SUDARSO 24/8/1961 [Link] RT.01/06 WONOSARI SIWALAN KAB. PEKALONGAN
12859 1100456086 ELY ROKHINA 28/12/1969 [Link] RT.01/06 WONOSARI SIWALAN KAB. PEKALONGAN
12860 1100456088 SUYATI ATMO SAMAN 8/1/1966 HONGGOSOCO RT 06 RW 02 KAB. KUDUS
12861 1100456090 PURWANTI 13/12/1961 NGRUKI RT. 05/17 KAB. SUKOHARJO
12862 1100456092 ABDUL HALIM 03/12/1966 DK. ROWO TENGAH RT 4 RW 4 KOTA SEMARANG
12863 1100456095 SUNARTI 04/06/1960 CURUG RT.02/01 PANGKAH KAB. TEGAL
12864 1100456098 SRI WARTINI, SE 26/3/1961 SAWO 01/03 KAB. KLATEN
12865 1100456100 ANGGI MUHAMMAD ALVIANTO 17/11/1998 GATEN RT 004 / RW 004 KAB. KLATEN
12866 1100456101 JANATUN 27/08/1961 PUTAT RT 03 RW 05 KAB. BOYOLALI
12867 1100456102 SRI MARWANTI 03/07/1973 GATEN 04/04 KAB. KLATEN
12868 1100456104 SITI MANISAH 24/07/1966 KARANGBRAI RT. 07 RW. 02 KAB. PEMALANG
12869 1100456106 SLAMET SUBROTO 06/07/1961 KARANGBRAI RT07 RW 02 KAB. PEMALANG
12870 1100456109 MAKHSUN SAN ROKHMAN SAN MURDJI 31/7/1971 TAMBAKAGUNG RT.01/02 KAB. KEBUMEN
12871 1100456110 NGATMIN MAT KIROM 10/10/1964 TERANGMAS RT.03 RW.02 KAB. KUDUS
12872 1100456111 DINIARTI SOESILANINGSIH SOEKANDAR 10/11/1962 PATI WETAN 1/1 PATI KAB. PATI
12873 1100456112 SUHARNI WASLIM SANMURSID 23/08/1968 TAMBAKAGUNG RT. 01. 02 KAB. KEBUMEN
12874 1100456114 WARTONO 07/07/1977 KEDUNG BULUS RT 22/07 KAB. SRAGEN
12875 1100456115 ANA SHOFWATUN KHASANAH 24/02/1985 BUMIREJO RT. 04. 05 KAB. KEBUMEN
12876 1100456116 ENDAH RATNA PUTRI 17/04/1986 [Link] KEDUNGWRINGIN 18 RT. 1/2 KAB. BANYUMAS
12877 1100456118 SUTARNI WAHONO SUROIJAN 30/7/1965 TERANGMAS RT 04 RW 02 KAB. KUDUS
12878 1100456119 AGUS WISMOKO MARIYANTO 23/12/1957 PATI WETAN 1/1 PATI KAB. PATI
12879 1100456121 ZAKI MUBAROK BANI AMER 03/02/1985 [Link] GG NUSA INDAH RT 2 /7 KAB. BANYUMAS
12880 1100456123 WIDYA NUGRAHA BADRUN AZHAR 8/9/1980 BUMIRJO RT 04/05 KEBUMEN KAB. KEBUMEN
12881 1100456125 NOVI PAMUNGKAS SETYA AMI 14/11/1976 DS. KEMBANGSAWIT RT 01/04 AMBAL KAB. KEBUMEN
12882 1100456127 YUNITA APRILIA 18/4/1992 PERUM BAGONGAN ASRI C42 02/11 KAB. MAGELANG
12883 1100456128 SUNADI SLAMET HADI 10/12/1961 KEMBANGSAWIT RT.01/04 KAB. KEBUMEN
12884 1100456129 AMBARWATI 10/09/1968 SEMAWUNGDALEMAN RT 02/03 KAB. PURWOREJO
12885 1100456130 RUSMINI 24/04/1963 JL. BUKIT CEMPAKA II NO. 27 RT 11 RW 21 KOTA SEMARANG
12886 1100456134 SRI NINGSIH 04/11/1960 MENGORI RT. 02 RW. 03 KAB. PEMALANG
12887 1100456136 DRS ABDUL GOFUR 15/1/1964 SEMAWUNGDALEMAN RT 02/03 KAB. PURWOREJO
12888 1100456138 MURSID TRIWIDODO 20/10/1970 KWAON 07/04 KAB. KLATEN
12889 1100456140 TWENTIANA NUR FARIDA FATMAWATI 23/01/1977 KWAON 07/04 KAB. KLATEN
12890 1100456142 SUMARNI 15/06/1959 TABAKWARU 05/13 KAB. MAGELANG
12891 1100456145 MUNASIRI 18/04/1975 PUCANG BARU/PERKIOSAN 01/09 KAB. KLATEN
12892 1100456146 ELIDA DWI YUNITA 29/06/1992 NGALIYAN RT.03 RW.02 KAB. BATANG
12893 1100456147 AFIFAH NUR AZIZAH 22/09/2001 KUNDEN RT.04/02 KUNDEN KARANGANAOM KAB. KLATEN
12894 1100456148 HARJANTI 20/07/1963 KUNDEN 04/02 KAB. KLATEN
12895 1100456150 MUKHLISIN 19/07/1965 NGAREN RT03 RW01 KAB. TEMANGGUNG
12896 1100456152 SHOLICHATUN 03/07/1962 JL. WONOSOBO NO.206 RT01 RW04 KAB. TEMANGGUNG
12897 1100456153 PARNO 2/2/1973 KERTEN RT 06 RW 02 KAB. BOYOLALI
12898 1100456155 ANITA WIDYANINGRUM 18/12/1978 BEKON RT 01/01 KAB. SRAGEN
12899 1100456156 UMI SALAMAH 10/1/1963 NGAREN RT03 RW01 KAB. TEMANGGUNG
12900 1100456158 MADIKSAN 30/12/1959 DUSUN CIGEBRET .001 RW.05 KAB. CILACAP
12901 1100456159 ASMARI 06/03/1968 JL. KEBON PERMAI XI NO. 5 RT.05/22 KAB. DEMAK
12902 1100456160 ISTIYANAH 17/07/1969 NGEBONG, RT.01/RW.09 KAB. TEMANGGUNG
12903 1100456163 SUMARNI 28/03/1963 JL. KAWI I NO. 61 RT 4 RW 5 KOTA SEMARANG
12904 1100456164 MULYANI 13/05/1969 NGEBONG, RT.01/RW.09 KAB. TEMANGGUNG
12905 1100456165 TUMIRAH 10/06/1961 DUSUN CIGEBRET RT. 01 RW. 05 KAB. CILACAP
12906 1100456166 MINA HANDAYANI 02/04/1978 KERTEN RT 06 RW 02 KAB. BOYOLALI
12907 1100456170 ISWATUN HASANAH 04/02/1976 TLOGOREJO RT.02/11 KAB. DEMAK
12908 1100456171 PRAPTONO ADHI SULISTOMO 07/06/1978 JL. KASUARI NO.04 RT 03 RW 09 KOTA SALATIGA
12909 1100456172 YUNININGSIH 19/06/1968 DK. PATIHAN RT 04 RW 03 KAB. BLORA
12910 1100456173 QOYYIMAH 14/06/1959 BULAN RT02 RW02 KAB. TEMANGGUNG
12911 1100456174 SAKRONI 15/07/1969 TLOGOREJO RT.02/11 KAB. DEMAK
12912 1100456175 MUH TANIR 15/09/1959 BULAN RT02 RW02 KAB. TEMANGGUNG
12913 1100456176 SENO SUPARDI 26/07/1963 KOWANGAN UTAMA, L.12, RT.04/RW.05 KAB. TEMANGGUNG
12914 1100456177 WASRIPAH 14/05/1975 CENANG RT.01/05 SONGGOM KAB. BREBES
12915 1100456179 SUDJANAH 07/12/1970 PENGGARON LOR RT 4 RW 1 KOTA SEMARANG
12916 1100456180 TARMONO 8/4/1972 CENANG RT.01/05 SONGGOM KAB. BREBES
12917 1100456181 TRI MAWARNI 25/12/1968 KOWANGAN UTAMA, L. 12, RT.04/RW.05 KAB. TEMANGGUNG
12918 1100456183 AMIR MAHMUD 16/03/1970 PERUM NUSA INDAH PERMAI D.16 RT.04/02 KAB. DEMAK
12919 1100456186 SITI HAMIDAH 08/10/1961 KASIHAN, RT.03/RW.07 KAB. TEMANGGUNG
12920 1100456187 IDAROTUS SA'ADAH 05/07/1977 PERUM NUSA INDAH PERMAI D.16 RT.04/02 KAB. DEMAK
12921 1100456190 TARYATI 12/08/1963 KESENET RT 005/001 KAB. BANJARNEGARA
12922 1100456192 SUGIYARTO 27/01/1973 BEKON RT 01/01 KAB. SRAGEN
12923 1100456193 SLAMET MUKIDIN 26/07/1967 NGEBONG, RT.01/RW.08 KAB. TEMANGGUNG
NO NO. PORSI NAMA TANGGAL LAHIR ALAMAT KAB/KOTA KETERANGAN
12924 1100456194 MUTIK 06/06/1969 NGEBONG, RT.01/RW.08 KAB. TEMANGGUNG
12925 1100456195 SUTARNO 15/01/1959 CEPLISAN RT 18/04 KAB. SRAGEN
12926 1100456196 MUHAMAD ATIFUDIN 28/5/1977 KRAKAHAN RT.01/03 TANJUNG KAB. BREBES
12927 1100456199 SUTARMI 30/12/1967 CEPLISAN RT 18/04 KAB. SRAGEN
12928 1100456201 RODHOTUL JANAH 18/06/1973 BEDUG RT.06/02 PANGKAH KAB. TEGAL
12929 1100456207 ISTI ROKHAFIYAH 23/04/1958 WIDURI, RT.01/RW.06 KAB. TEMANGGUNG
12930 1100456208 SUWAJI 22/06/1963 KORIPAN 03/10 KAB. GROBOGAN
12931 1100456209 IMRON 14/04/1962 BULAKPAREN RT.03/03 BULAKAMBA KAB. BREBES
12932 1100456210 SURTINI 24/04/1962 SOSORAN, RT.10/RW.03 KAB. TEMANGGUNG
12933 1100456212 DARTI ASIH 14/07/1972 KORIPAN 03/10 KAB. GROBOGAN
12934 1100456213 NURLAELA 27/08/1968 BULAKJPAREN RT.03/03 BULAKAMBA KAB. BREBES
12935 1100456214 SUYATNO 14/06/1959 REMBUN RT 02 RW 03 KAB. BOYOLALI
12936 1100456215 SUKUSNANTO, SP 20/09/1964 KESUGIHAN RT 03/02 KAB. PURWOREJO
12937 1100456218 ABD ROUF HAMBALI MASHAT 24/08/1966 HONGGOSOCO RT 06 RW 02 KAB. KUDUS
12938 1100456220 YUYUN SRI REJEKI 25/06/1966 KESUGIHAN RT 03/02 KAB. PURWOREJO
12939 1100456226 ARIS HERMAWAN 8/8/1976 SAMBUNGREJO RT 27 RW 04 KAB. BOYOLALI
12940 1100456228 ROHMIYATUN 18/12/1975 SAMBUNGREJO ET 27 RW 04 KAB. BOYOLALI
12941 1100456230 GINEM SUJIYEM 11/9/1958 KURAHAN RT 01 RW 03 KAB. BOYOLALI
12942 1100456231 ARIFIN 22/12/1972 BEDUG RT.06/02 PANGKAH KAB. TEGAL
12943 1100456234 SUYITNO 01/05/1961 KERTEN RT 01 RW 04 KAB. BOYOLALI
12944 1100456235 HIMAWAN BAYU AJI 23/03/1978 [Link] POL SUMARTO RT. 6/4 PURWANEGARKAB. BANYUMAS
12945 1100456236 HIMAWATI RAHAYU 10/05/1979 [Link] POL SUMARTO RT.6/4 PURWANEGARKAB. BANYUMAS
12946 1100456237 AINA HADIYATI 30/09/1965 KERTEN RT 01 RW 04 KAB. BOYOLALI
12947 1100456238 TRI MUKTINI 13/6/1980 [Link] POL SOEMARTO RT.6/4 PURWANEGAKAB. BANYUMAS
12948 1100456241 SITI KHUMAEDAH 30/12/1972 DSN SERDADI GG. MELATI III RT. 06 RW. 09 KAB. PEMALANG
12949 1100456243 RUMI HARTATI 06/06/1965 SARIMULYO RT 06 RW 01 KAB. BOYOLALI
12950 1100456244 MULYONO 04/10/1958 GANDEKAN RT.02/04 KAB. SUKOHARJO
12951 1100456245 SUDIBYO 06/04/1973 JL. PESAYANGAN NO. 288 RT.002 RW.05 KAB. CILACAP
12952 1100456247 PANIYO 3/1/1963 SARIMULYO RT 06 RW01 KAB. BOYOLALI
12953 1100456248 ENI HARISTIYATI , DRA 29/11/1962 PERUM SRATEN PERMAI H15 RT.03/07 TUNTANG KAB. SEMARANG
12954 1100456249 SUGENG PANUWUN 12/09/1962 GANDEKAN RT.02/04 KAB. SUKOHARJO
12955 1100456251 SRINENI 17/04/1983 JL. PESAYANGAN NO. 288 RT. 02/05 KAB. CILACAP
12956 1100456254 TABI'IN 21/7/1967 [Link] [Link] III RT.06 RW.09 KAB. PEMALANG
12957 1100456255 SRI HARTATI ENDANG MURNISARI 28/11/1965 REMBUN RT 02 RW 03 KAB. BOYOLALI
12958 1100456257 IZA NURUL HIDAYATI 26/06/1963 KEMANTRAN RT. 01/01 KRAMAT KAB. TEGAL
12959 1100456259 CIPTO 26/09/1968 SENGONWETAN 04/02 KAB. GROBOGAN
12960 1100456261 SUWARNI 04/05/1980 SENGONWETAN 04/02 KAB. GROBOGAN
12961 1100456263 SUMIYATI 3/11/1979 DUKUHTURI RT. 01/02 KETANGGUNGAN KAB. BREBES
12962 1100456264 KUSMIATUN KARIM MADISWAN 12/12/1964 JOGOPATEN RT. 01. 01 KAB. KEBUMEN
12963 1100456265 SAIFUDDIN ALFAIZIN 18/08/1997 [Link] LAMA RT 01RW 02 KAB. BANYUMAS
12964 1100456267 RATIH WINANTI 27/08/1970 [Link] LAMA RT. 1/2 KEDUNGUTER KAB. BANYUMAS
12965 1100456268 SYA'RONI 22/6/1970 DUKUHTURI RT. 01/02 KETANGGUNGAN KAB. BREBES
12966 1100456269 M. MULYADI, DRS 17/11/1966 JL. SIMONGAN RT.03/07 KOTA SEMARANG
12967 1100456273 SHOLEKAH 07/03/1967 JL. SIMONGAN RT.03/07 KOTA SEMARANG
12968 1100456275 SUTIKNO SARIMIN RASMI 10/03/1977 KEBEN 3/4 TAMBAKROMO KAB. PATI
12969 1100456276 MOCHAMMAD IMRON 19/08/1981 MARGA AYU RT.04/02 MARGASARI KAB. TEGAL
12970 1100456277 ISMAWATI KARDI SUPARMI 20/3/1981 KEBEN 3/4 TAMBAKROMO KAB. PATI
12971 1100456278 NGADIMIN SUMARDJO DULAH MAKSUM 31/12/1964 JOGOPATEN RT. 01. 01 KAB. KEBUMEN
12972 1100456279 NURUDDIN 17/02/1964 KAUMAN BARAT RT.01/01 SAWANGAN KAB. PEKALONGAN
12973 1100456281 KARTIMAH 5/1/1963 KALADAWA RT. 05/01 TALANG KAB. TEGAL
12974 1100456283 NAHLAH 28/12/1973 MARGA AYU RT.04/02 MARGASARI KAB. TEGAL
12975 1100456287 MURNIATI 25/11/1957 LAREN RT. 01/03 BUMIAYU KAB. BREBES
12976 1100456289 KISWANTO 22/07/1958 BANJARHARJO RT.08/01 BANJARHARJO KAB. BREBES
12977 1100456290 SAKUR 13/9/1961 SETU RT.06/02 TARUB KAB. TEGAL
12978 1100456291 ENDANG AYU RETNO 18/10/1964 BANJARHARJO RT.08/01 BANJARHARJO KAB. BREBES
12979 1100456292 CHOFIDAH, [Link] 2/6/1972 BULUS RT 04/01 KAB. PURWOREJO
12980 1100456293 RUSTINI 10/11/1964 SETU RT.06/02 TARUB KAB. TEGAL
12981 1100456294 DRA. SUPARJIYATI 05/02/1967 PADUROSO RT 01/01 KAB. PURWOREJO
12982 1100456295 AHMAD SYAEKHU 05/10/1972 TEGALGANDU RT.01/04 WANASARI KAB. BREBES
12983 1100456296 DRS. AYUB HERI SANTOSO 10/1/1967 PADUROSO RT 01/01 KAB. PURWOREJO
12984 1100456297 REZA RAHMANDA PUTRA 19/12/2001 PADUROSO RT 01/01 KAB. PURWOREJO
12985 1100456298 MARIYA ULFAH 17/08/1981 TEGALGANDU RT. 01/04 WANASARI KAB. BREBES
12986 1100456299 MUHAMMAD ZAENAL MUSTAQIM 03/05/1992 DK. BANGERAN RT 02/04 KAMOLAN BLORA KAB. BLORA
12987 1100456300 MOHAMAD SOPANI 02/05/1958 KALADAWA RT. 05/01 TALANG KAB. TEGAL
12988 1100456301 SRI HENDRAYATI 01/09/1968 SIDOREJO RT. 02/06 KAB. SUKOHARJO
12989 1100456302 DJERMANTO 21/05/1969 DK. BANGERAN RT 02/04 KOTA SEMARANG
12990 1100456303 AKHMAD NURUDIN 22/01/1960 PARAKANCANGGAH RT 002/003 KAB. BANJARNEGARA
12991 1100456304 FATIMATUS ZAHRO 17/02/1968 GLAPAN 01/01 KAB. GROBOGAN
12992 1100456305 TIN RUSTINI 07/04/1961 PARAKANCANGGAH RT 002 RW 003 KAB. BANJARNEGARA
12993 1100456306 PARLUDJI MUHAMAD DARMUDJI 25/6/1959 KARANGDUWUR RT.01/03 KAB. KEBUMEN
12994 1100456307 SITI UMAYAH 26/10/1982 KEMURANG WETAN RT.03/02 TANJUNG KAB. BREBES
12995 1100456309 SUPARTO 27/04/1975 KEMURANG WETAN RT.03/02 TANJUNG KAB. BREBES
12996 1100456311 MUDRIKIN MUDRIK MANSUR 20/04/1961 SUROTRUNAN RT. 02. 03 KAB. KEBUMEN
12997 1100456312 MASKANAH DUMROH MUKTIRJA 09/06/1971 SUROTRUNAN RT. 02. 03 KAB. KEBUMEN
12998 1100456313 SITI KHOTIJAH ABDUL KHOLIK MOHAMADUN 23/03/1967 KARANGDUWUR RT. 01. 03 KAB. KEBUMEN
12999 1100456314 MOH SOLEH 05/02/1966 KRADENAN RT 03/07 KAB. SUKOHARJO
13000 1100456315 SITI NUR CAHYO 12/04/1969 KRADENAN RT 03/07 KAB. SUKOHARJO
13001 1100456318 SULARDI 01/02/1978 SUMBER RT.05 RW.03 KAB. WONOGIRI
13002 1100456320 SUMARDI 15/07/1965 CIKAWUNG RT 02 RW 02 KAB. BANYUMAS
13003 1100456322 WARTI 18/07/1975 SUMBER RT.05 RT.03 KAB. WONOGIRI
13004 1100456324 MARSONO 20/08/1969 JL. JENDERAL SUPRAPTO [Link] RT.7/7 KAB. CILACAP
13005 1100456325 PURWANTI 12/02/1977 JL. JEND. SUPRAPTO GG. MELON 8 RT. 7/7 KAB. CILACAP
13006 1100456328 PARSINI 15/05/1967 CIKAWUNG RT. 2/2 KAB. BANYUMAS
13007 1100456330 WINARSIH 15/07/1974 BANGARUM RT.01 RW.01 KAB. WONOGIRI
13008 1100456331 SARNO 06/10/1971 BANGARUM RT.01 RW.01 KAB. WONOGIRI
13009 1100456332 JOKO PURNOMO 06/06/1980 SIDANEGARA INDAH BLOK 15 584 A RT. 6/19 KAB. CILACAP
13010 1100456334 NANIK AMBARWATI NOOR FAIZAH 14/03/1980 SIDANEGARA INDAH BLOK 15/584 A RT. 6/19 KAB. CILACAP
13011 1100456335 KARYATMI 20/02/1968 KEDUNG RT.02 RW.11 KAB. WONOGIRI
13012 1100456336 TJAHYO HERI K 03/05/1961 [Link] RAYA 2/94 RT. 1/11 TELUK KAB. BANYUMAS
13013 1100456337 SRI KUNARTI 25/04/1967 [Link] RAYA II/94 RT 1/11 TELUK KAB. BANYUMAS
13014 1100456339 SULISTIYA 30/03/1961 DK. KOPEN RT 07/02 KAB. BLORA
13015 1100456340 PARMO 04/02/1960 KENDUNG RT.02 RW.11 KAB. WONOGIRI
13016 1100456341 DARTIK UTAMININGSIH 18/03/1967 DK. KOPEN RT 07/02 KAB. BLORA
13017 1100456344 YATMINI 10/08/1971 NGLEDOK RT.01 RW.07 KAB. WONOGIRI
13018 1100456345 ERNA HIDAYAT 10/09/1975 DALEMAN RT. 02 RW. 02 KAB. WONOGIRI
13019 1100456346 MUSTAQIMATIN 17/8/1961 KARANGCEGAK RT. 2/2 KAB. BANYUMAS
13020 1100456348 JUMINO 31/12/1970 NGLEDOK RT.01 RW.07 KAB. WONOGIRI
13021 1100456350 ARIN WIWIK PUJI HASTUTI 25/04/1978 DALEMAN RT. 02 RW. 02 KAB. WONOGIRI
13022 1100456352 HARTATI WINARSIH 22/09/1962 TAMAN TALANG II RT 3 RW 7 KOTA SEMARANG
13023 1100456355 TRI WIDODO 05/05/1958 TAMAN TALANG II RT 03 RW 7 KOTA SEMARANG
13024 1100456358 MUHAMMAD MUNTAHA 16/09/1972 NGRUKI BARU RT.04/RW.16 KAB. SUKOHARJO
13025 1100456360 SUSIYANTO 06/08/1978 [Link] RT.03/04 NOTOGIWANG KAB. PEKALONGAN
13026 1100456362 ABDULLAH 13/08/1971 DK. ROWADI RT 003 / RW 004 KAB. PEKALONGAN
13027 1100456363 TUMINEM 10/03/1966 KARANGWARU RT 28 KAB. SRAGEN
13028 1100456364 SUTARNO, [Link] 4/4/1964 KAYANGAN RT. 01 RW. 04 KAB. KARANGANYAR
13029 1100456366 ENDANG SULASTRI, SE 12/10/1968 KAYANGAN RT. 01 RW. 04 KAB. KARANGANYAR
13030 1100456367 SITI SUMARNI 01/07/1984 [Link] RT.03/04 NOTOGIWANG KAB. PEKALONGAN
13031 1100456370 WIWIK KARNASIH 20/04/1978 JARANMATI NGENDAK RT. 02 RW. 09 KAB. WONOGIRI
13032 1100456372 DURIYAH 23/01/1958 KAUMAN TIMUR RT.02/01 SAWANGAN KAB. PEKALONGAN
13033 1100456374 KARJO 12/02/1975 JARANMATI NGENDAK RT. 02 RW. 09 KAB. WONOGIRI
13034 1100456375 PANGADI 27/08/1967 KARANGWARU RT 28 KAB. SRAGEN
13035 1100456376 RATI 09/02/1970 [Link] RT.01/02 SAWANGAN PANINGGARANKAB. PEKALONGAN
13036 1100456381 SRI ROCHANI, SPD 18/6/1960 TEMANGGAL 08/04 KAB. MAGELANG
13037 1100456382 SURATMI 31/12/1958 KARANGWARU RT 28 KAB. SRAGEN
13038 1100456383 WARSITO 29/03/1968 DANGKRANG RT.02 RW.04 KAB. WONOGIRI
13039 1100456384 BIMA PRADANA 06/12/1995 GANG PISANG KAPAS RT.18 RW.04 KAB. KENDAL
13040 1100456385 TITIK SETYANINGSIH 25/03/1969 PENGKRUK RT 11 KAB. SRAGEN
13041 1100456386 SLAMET WIDODO 25/03/1962 PENGKRUK RT 11 KAB. SRAGEN
13042 1100456388 NUR RACHMAT 29/04/1959 SARATAN II RT.09 RW.15 KAB. MAGELANG
13043 1100456390 NOOR AZIZAH 03/12/1968 GANG PISANG KAPAS RT.18 RW.04 KAB. KENDAL
13044 1100456391 SASMINAH 20/06/1967 SARATAN II RT.09 RW.15 KAB. MAGELANG
13045 1100456392 MUSTINI 17/04/1962 KRAJAN 3 RT. 07/03 KAB. MAGELANG
13046 1100456394 TOTO BUDIARTO 19/03/1975 PERUM TNI-AL BLOK C IV/8 RT 022 / RW 007 KAB. KEBUMEN
13047 1100456395 EVA ANDARINI 23/03/1970 DSN. GANDON 10 RT. 05/01 KAB. MAGELANG
13048 1100456397 SITI ROBIYAH 12/3/1958 MANDIRAJA KULON RT 001 RW 001 KAB. BANJARNEGARA
13049 1100456398 MUH AMIN 30/10/1957 KRAJAN 3 RT. 07/03 KAB. MAGELANG
13050 1100456399 TAMBAH 21/03/1959 DSN. GANDON 10 RT. 05/01 KAB. MAGELANG
13051 1100456402 YAYAH FATMIYATI ROHMIYATUN 25/03/1973 KARANGLUHUR RT 03 RW 03 KAB. WONOSOBO
NO NO. PORSI NAMA TANGGAL LAHIR ALAMAT KAB/KOTA KETERANGAN
13052 1100456403 SUBAGYO 29/03/1966 JL. BARITO NO.6 PANCAARGA RT. 05/16 KAB. MAGELANG
13053 1100456405 SURATMINI 17/05/1965 JL. BARITO NO.6 PANCAARGA RT. 05/16 KAB. MAGELANG
13054 1100456406 MIFTAHUDIN 13/8/1980 JETIS RT 03 RW 03 KAB. WONOSOBO
13055 1100456407 WAHMIATUN HADI PRAMONO 24/11/1967 KAMBANGSARI RT. 02. 04 KAB. KEBUMEN
13056 1100456408 TRI HASTUTI 31/12/1975 LINGKUNGAN SAMBITILENG RT. 01 RW. 08 KAB. WONOGIRI
13057 1100456409 DWI HIDAYAT 21/06/1967 KARANG LUHUR RT.03 RW.03 KAB. WONOSOBO
13058 1100456410 HARIYANTO, [Link]. 29/01/1971 LINGKUNGAN SAMBITILENG RT. 01 RW. 08 KAB. WONOGIRI
13059 1100456413 SULARMI 04/05/1962 KRISAK KULON RT.02 RW.05 KAB. WONOGIRI
13060 1100456418 TRI PRAWOTO 09/08/1957 KRISAK KULON RT.02 RW.05 KAB. WONOGIRI
13061 1100456419 SUYATI 15/01/1963 TURIREJO RT.05/09 KAB. DEMAK
13062 1100456421 TUTI MINTARTININGSIH 16/07/1980 JETIS RT.03 RW.03 KAB. WONOSOBO
13063 1100456422 AGUS SUMARNO 10/08/1960 [Link] UMBUL 3-C RT.05/04 KOTA SEMARANG
13064 1100456423 SLAMET 3/5/1960 KRISAK KULON RT.02 RW.05 KAB. WONOGIRI
13065 1100456424 WAHDIYATI HADI PRAMONO 20/10/1960 KAMBANGSARI RT. 02. 01 KAB. KEBUMEN
13066 1100456425 SUNDARI 05/02/1964 KRISAK KULON RT.02 RW.05 KAB. WONOGIRI
13067 1100456426 RACHMADI 09/12/1964 KAUMAN JL. AKASIA 4 NO.28 RT.08 RW.08 KAB. BATANG
13068 1100456427 WARNI 05/11/1960 JIPANG RT 01/4 KAB. BANYUMAS
13069 1100456428 RETNO ANDAR WIGATI 09/02/1960 [Link] UMBUL 3-C RT.05/04 KOTA SEMARANG
13070 1100456429 RUMAWI KARJANI MARJOSATRI 11/04/1968 SUMANDING 10/03 KEC. KEMBANG KAB. JEPARA
13071 1100456430 NINIK SUMARNI KARMIJAN 19/7/1967 SUMANDING 10/03 KEC. KEMBANG KAB. JEPARA
13072 1100456431 FARIDAH,DRA 27/12/1966 KAUMAN [Link] 4 NO.28 RT.04 RW.09 KAB. BATANG
13073 1100456432 SARMIN 12/04/1958 JL. LAMPER TENGAH RT 4 RW 8 KOTA SEMARANG
13074 1100456433 FARIDA SP 11/4/1962 JL. KOP TANWIR RT 02 RW 02 KAB. PURBALINGGA
13075 1100456435 TUMINI 12/11/1957 LAMPERTENGAH RT.04/08 KOTA SEMARANG
13076 1100456437 ZARKONI SURI KANAFI 2/12/1958 LANGON 03/02 KAB. JEPARA
13077 1100456439 SITI KUSNIPAH SARI 14/12/1962 LANGON 03/02 KAB. JEPARA
13078 1100456441 ANY YUNI ASTUTI 23/06/1981 KUTOSARI RT. 02. 02 KAB. KEBUMEN
13079 1100456444 SUGIYO 24/04/1968 TUBAN KIDUL RT. 04 RW. 05 KAB. KARANGANYAR
13080 1100456446 SUDARNI, [Link] 11/03/1971 TUBAN KIDUL RT. 04 RW. 05 KAB. KARANGANYAR
13081 1100456447 SUMARDI 10/01/1961 MUNGGUR RT. 01 RW. 03 KAB. KARANGANYAR
13082 1100456449 SUHARTINI 29/06/1960 BENER RT 26/08 KAB. SRAGEN
13083 1100456450 SUGIYARTO 07/07/1957 BENER RT 20/08 KAB. SRAGEN
13084 1100456451 ANDITA WAHYU PRASETYA 09/03/1997 BANGAK RT.003/001 KAB. SRAGEN
13085 1100456453 SUMARNI, SH 13/07/1965 BANGAK RT 03/01 KAB. SRAGEN
13086 1100456454 RUSTAMAJI 04/05/1959 REJOWINANGUN RT. 02/03 KEMIRI KAB. PURWOREJO
13087 1100456455 MULYATI 05/07/1961 SUMBERSARI RT 003 RW 001 KAB. WONOSOBO
13088 1100456456 AMINAH 6/7/1965 REJOWINANGUN RT. 02/03 KEMIRI KAB. PURWOREJO
13089 1100456457 RUMIYATI SARIP SAGIMAN CULIK 26/10/1963 PASURUHAN KIDUL KAB. KUDUS
13090 1100456459 JAHID ABDUR ROCHIM YASTRO KASIBAN 24/10/1962 PASURUHAN KIDUL RT 02 RW 03 KAB. KUDUS
13091 1100456460 WARJO 17/08/1967 TORO KIDUL RT 06 KAB. SRAGEN
13092 1100456461 SU'UDI 19/05/1961 GAJI RT.03/05 KAB. DEMAK
13093 1100456462 AGUS SUWANTO 08/08/1964 KEMPLONG RT.04/RW.06 KAB. SUKOHARJO
13094 1100456464 SITI MUKANAH 09/12/1971 GAJI RT.03/05 KAB. DEMAK
13095 1100456467 BANGUN WAHYONO 03/06/1963 DSN. SOKA 02/01 KAB. MAGELANG
13096 1100456468 TATIEK YEKTI SRIHARYANI 06/04/1962 [Link] BATANG UTARA NO.16 RT.02 RW.20 KOTA SURAKARTA
13097 1100456469 SRI PUJI WIDAYATI 06/04/1974 SOKA RT.02 RW.01 KAB. MAGELANG
13098 1100456473 ASAROH 9/9/1969 PUCUNG RT.01/01 TIRTO KAB. PEKALONGAN
13099 1100456475 SUDARGO, DRS 13/11/1960 JL. SIDODRAJAT II/20 RT.02/19 KOTA SEMARANG
13100 1100456476 LUSTARI 15/01/1960 BANJAR PLUMBON RT 02/03 KAB. BLORA
13101 1100456477 RASYID HADI 13/06/1958 [Link] NO 2B RT 05/02 KAB. BLORA
13102 1100456478 PUJI SISWATI 17/5/1965 [Link] NO 2B RT 05/02 KAB. BLORA
13103 1100456479 DRS EDI RISTIONO 22/12/1958 NGRAJEK III RT.05 RW.06 KAB. MAGELANG
13104 1100456481 SUPARTI, DRA 13/09/1965 JL. SIDODRAJAT II/20 RT.02/19 KOTA SEMARANG
13105 1100456482 RUSMADI HARJO SUPARTO 01/12/1961 DS. BUMIREJO RT 03/06 KEBUMEN KAB. KEBUMEN
13106 1100456483 PONIMAN 02/04/1962 GRIYA SERBA ASRI D.20 RT. 07/03 KAB. SUKOHARJO
13107 1100456485 TURMUDZI 10/07/1962 SIKELE RT.02/02 SAWANGAN PANINGGARAN KAB. PEKALONGAN
13108 1100456486 RUSMIYATI TONDO BERWIRO 10/07/1964 DS. BUMIREJO RT 03/06 KEBUMEN KAB. KEBUMEN
13109 1100456487 TOHIROTUN 04/07/1970 SIKELE RT.02/02 SAWANGAN PANINGGARAN KAB. PEKALONGAN
13110 1100456488 MUHAMMAD MASKUR 14/02/1976 [Link] RT.02/02 KOTA SEMARANG
13111 1100456490 SUMARNO 25/01/1959 BADRAN ASRI RT.04/RW.05 KAB. SUKOHARJO
13112 1100456491 RIRIN ITSNAWATI 12/03/1978 KP. MAGERSARI RT 2 RW 2 KOTA SEMARANG
13113 1100456492 NGUDI HARTONO 16/04/1972 KAUMAN RT.02/01 SAWANGAN PANINGGARAN KAB. PEKALONGAN
13114 1100456494 RUKHANAH 02/02/1960 DEMANGHARJO RT. 05/04 WARUREJO KAB. TEGAL
13115 1100456495 SRI MURTININGSIH, S. PD 08/11/1982 KARANGJATI RT 05/02 KAB. BLORA
13116 1100456496 NOVI PRAMESTI, SE 25/04/1978 JL ERLANGGA NO 64 BADRANASRI RT. 02/11 KAB. KARANGANYAR
13117 1100456497 MARIYAH 13/08/1979 KAUMAN RT.02/01 SAWANGAN PANINGGARAN KAB. PEKALONGAN
13118 1100456498 SUYAHMI 11/07/1960 BANARAN RT.02 RW.03 KAB. SEMARANG
13119 1100456499 YATIN RUADAH 25/06/1967 KAUMAN RT.02/01 SAWANGAN PANINGGARAN KAB. PEKALONGAN
13120 1100456500 AGUS FAHRUROJI 29/03/1984 KARANGJATI RT 05/02 KAB. BLORA
13121 1100456502 PERMATA ARIYANTO NUGROHO, SE, MM 15/09/1978 JL ERLANGGA NO 64 BADRANASRI RT. 02/11 KAB. KARANGANYAR
13122 1100456504 CHOLIFATUN ASTANTININGSIH 6/5/1964 SAMBERAN 01/04 KAB. KLATEN
13123 1100456505 ANNAS SHOLIKHAN 13/11/1974 JL. PERKUTUT GG. MERPATI NO.4A RT.05 RW4 KAB. CILACAP
13124 1100456506 ARIS HARYONO 10/08/1959 BANARAN RT.02 RW.03 KAB. SEMARANG
13125 1100456507 MARSONO 14/04/1959 PERUM BKD BLOK XI/A119 RT.03 RW.10 KAB. CILACAP
13126 1100456508 NUNIK HERAWATI 10/02/1975 JL. PERKUTUT GG MERPATI NO.4A RT.5 RW.4 KAB. CILACAP
13127 1100456510 DZULFAHMI 20/04/1993 DUSUN KEMUSUK RT.01 RW 02 KAB. KEBUMEN
13128 1100456511 MURTI WINARSIH 06/01/1962 PERUM BKD [Link] A RT.03 RW.10 KAB. CILACAP
13129 1100456513 IBNU SEJATI 08/02/1964 SAMBERAN 01/04 KAB. KLATEN
13130 1100456515 SITI NASEKHAH SAMILIN MUCHTADI 05/10/1965 MANGUNWENI RT. 01. 02 KAB. KEBUMEN
13131 1100456519 LAILATUL HABIBAH MOCH. ARIFIN 09/04/1988 PACING RT 007 RW 002 SEDAN KAB. REMBANG
13132 1100456520 RUMINI PARJOYO KARSO 03/05/1965 KUWUKAN RT 04 RW 01 KAB. KUDUS
13133 1100456523 SUGIYANTI 13/7/1969 [Link] SARPO I/69 RT.02/13 KOTA SEMARANG
13134 1100456524 MUH WARODJI 21/11/1957 BLANCERAN 01/05 KAB. KLATEN
13135 1100456525 KUMARIRIN PURWANTI 18/4/1976 JL. BELIMBING TIMUR DALAM RT 8 RW 7 KOTA SEMARANG
13136 1100456526 WAWAN HARYANTO 27/12/1976 [Link] TIMUR DALAM RT.08/07 KOTA SEMARANG
13137 1100456529 ZAINURI 04/06/1969 [Link] SARPO I/69 RT.02/13 KOTA SEMARANG
13138 1100456530 TRI BUDIYATI 29/07/1967 BLANCERAN 01/05 KAB. KLATEN
13139 1100456532 RATNA NINGSIH 20/03/1980 JLN. KI AGENG PENGGING B. AXVI GIRIMULYO RT.06
[Link].
KLATEN
13140 1100456534 BUDIHARJO 11/09/1961 BORO KULON RT 02/06 KAB. PURWOREJO
13141 1100456536 KHOTIMAH MAT LIK 16/08/1962 KAJEN 4/1 MARGOYOSO KAB. PATI
13142 1100456537 HELMI PRAMONO 2/9/1974 JLN. KI AGENG PENGGING B. AXVI GIRIMULYO RT.06
[Link].
KLATEN
13143 1100456538 VIVI FARIDA 10/11/1960 CONDONGSARI RT. 02/01 BANYUURIP KAB. PURWOREJO
13144 1100456539 MUHARIROH, [Link] 16/02/1974 TEGAL KUBUR RT.05/09 YAMANSARI KAB. TEGAL
13145 1100456541 NINIK KRISMIYATI 07/05/1969 BORO KULON RT 02/06 KAB. PURWOREJO
13146 1100456542 FITROTIS SALIMAH 20/06/1990 SELILING RT. 01. 05 KAB. KEBUMEN
13147 1100456546 HERI MARYATI SUSISWO 06/03/1963 KEJAWANG RT. 02. 01 KAB. KEBUMEN
13148 1100456547 M. AINUL YAQIN 21/04/1984 DUSUN GADING RT 004 / RW 004 KAB. KENDAL
13149 1100456548 MAKMUM 09/10/1968 GUNUNGREJA RT.01/03 KAB. CILACAP
13150 1100456549 UMI MARDIYAH 24/08/1971 BANTENGMATI 03/04 KAB. GROBOGAN
13151 1100456550 PAMBUDI HASTUTI 21/4/1974 MAYANG RT.03/RW.04 KAB. SUKOHARJO
13152 1100456551 ATNAN HERY PRASETYADI 16/12/1986 TEGAL CANDRAN 05/02 KAB. KLATEN
13153 1100456553 MUALIFATUL ISTIANAH, [Link] 25/03/1977 TEGAL KUBUR RT.05/09 YAMANSARI KAB. TEGAL
13154 1100456555 TUTI CAHYA HANDAYANI 14/03/1975 GANG SRIKAYA 07/03 KAB. GROBOGAN
13155 1100456556 HARIYANTO 11/04/1971 MAYANG RT.03/RW.04 KAB. SUKOHARJO
13156 1100456557 SUGIYATNO 14/06/1972 DUSUN CIBENON RT.05 RW.02 KAB. CILACAP
13157 1100456558 AHMAD SUBKHAN 12/09/1961 BANTENGMATI 03/04 KAB. GROBOGAN
13158 1100456559 SRI WAHYUNI 7/2/1984 DUSUN CIBENON RT.005 RW.02 KAB. CILACAP
13159 1100456560 DARMANTO 20/12/1974 [Link] NO.45 RT.01 RW.24 KAB. PEMALANG
13160 1100456561 MOKH SUBKHI MOCH TACHAZIZAN 25/6/1971 KAJEN 1/1 MARGOYOSO KAB. PATI
13161 1100456562 ENDANG SRI HARDANI 13/12/1960 BRANGKALI 01/10 KAB. KLATEN
13162 1100456564 ROJIKIN, SH. [Link] 10/2/1965 TEGAL KUBUR RT.05/09 YAMANSARI KAB. TEGAL
13163 1100456565 SUNGKONO WAGIMIN SUYUTI 20/10/1963 JL. ARGOYUWONO NO. 72 RT 07 RW 01 KOTA SALATIGA
13164 1100456566 YASMINNISA 17/01/1972 JL. JENDERAL SUDIRMAN NO.90 RT.001 RW.07 KAB. CILACAP
13165 1100456567 HARIYADI SUPRAPTO SUWARNO 21/03/1962 JL. ARGOYUWONO NO. 48 RT 07 RW 01 KOTA SALATIGA
13166 1100456568 JUM'ATI 29/7/1979 WINDUAJI RT.02/01 PANINGGARAN KAB. PEKALONGAN
13167 1100456571 SRI MASRIAH DARSUKI 12/10/1971 TUNJUNGREJO 2/5 MARGOYOSO KAB. PATI
13168 1100456574 SUHARDI MASHUDI AYUMI 4/4/1967 TUNJUNGREJO 2/5 MARGOYOSO KAB. PATI
13169 1100456579 MUBARIZI 16/12/1986 JL. URIP SUMOHARJO GG. 6 / 69 RT. 6/6 KOTA PEKALONGAN
13170 1100456582 LAILATUN NAFISAH 14/03/1984 JL. URIP SUMOHARJO GG. 6/ 69 RT. 6/6 KOTA PEKALONGAN
13171 1100456583 SRI DARWATI KASAN 11/8/1961 UJUNG WATU RT.001/003 [Link] KAB. JEPARA
13172 1100456585 SUMIATI 10/10/1964 KRAJAN RT. 01 RW. 03 KAB. KENDAL
13173 1100456588 AKROM KHASANI 31/12/1964 JENGGOT GG.5 RT.02 RW.07 KOTA PEKALONGAN
13174 1100456589 MUNFIROH 2/10/1962 JETAK KIDUL RT.05/01 WONOPRINGGO KAB. PEKALONGAN
13175 1100456590 SUKARTI 12/11/1957 NEPEN 01/05 KAB. MAGELANG
13176 1100456591 MASRUKAH CHOLIL SHOLICHATUN 2/1/1974 KAJEN 1/1 MARGOYOSO KAB. PATI
13177 1100456592 PURWANTI 19/12/1959 SAWAHAN RT 04 RW 01 KAB. BOYOLALI
13178 1100456593 KASWIDI MASRUP SAEDAH 3/8/1964 TLOGOSARI 3/2 TLOGOWUNGU KAB. PATI
13179 1100456594 SULASMI, [Link] 10/11/1977 NGELO RT. 03 RW. 12 KAB. KARANGANYAR
NO NO. PORSI NAMA TANGGAL LAHIR ALAMAT KAB/KOTA KETERANGAN
13180 1100456595 RUMISIH SUNOTO SUTAJI 02/01/1968 TLOGOSARI 3/2 TLOGOWUNGU KAB. PATI
13181 1100456597 SUWARTI 11/02/1961 PEGADEN TENGAH RT.06/02 WONOPRINGGO KAB. PEKALONGAN
13182 1100456600 SUYATNO 25/04/1974 NGELO RT. 03 RW. 12 KAB. KARANGANYAR
13183 1100456601 ANIK 10/05/1983 KUBANG RT.08/04 LOGENDENG KARANGDADAP KAB. PEKALONGAN
13184 1100456602 PUJIYATMI 05/02/1967 TUMPUK RT.01 RW.02 KAB. WONOGIRI
13185 1100456603 RUDY HARYONO 02/07/1969 KETAPANG RT.13 RW.04 KAB. KENDAL
13186 1100456604 KASDIN 22/07/1978 KUBANG RT.08/04 LOGENDENG KARANGDADAP KAB. PEKALONGAN
13187 1100456606 MUHAMMAD MASKUR 15/08/1978 GAREN RT 02 RW 03 KAB. BOYOLALI
13188 1100456607 GIYANTI 7/7/1977 GAREN RT 02 RW 03 KAB. BOYOLALI
13189 1100456609 KRISTIANI 24/12/1971 KETAPANG RT.13 RW.04 KAB. KENDAL
13190 1100456610 KASNI 20/12/1957 TUMPUK RT. 01 RW. 02 KAB. WONOGIRI
13191 1100456613 SUTI 10/11/1970 KARANGLO RT.05 RW.03 KAB. WONOGIRI
13192 1100456614 HAMZANI SYAHZAKI SAFITRA 13/12/2001 BESERAN 1 RT.04 RW.01 KAB. MAGELANG
13193 1100456616 SAIFUDIN 14/01/1976 WONOKERTO RT.04 RW.04 KAB. BATANG
13194 1100456618 DARNO 17/02/1960 KARANGLO RT.05 RW.03 KAB. WONOGIRI
13195 1100456619 NURAYATI 15/07/1980 WONOKERTO RT.04 RW.04 KAB. BATANG
13196 1100456620 ERRY DWI CHRISTIANI 02/02/1973 NGEMPLAK RT.07/09 KOTA SEMARANG
13197 1100456621 SETYO NUR SUSILO 02/03/1976 SENENG I RT. 01/01 KAB. MAGELANG
13198 1100456622 M. DARDIRI 07/06/1962 NGEMPLAK RT 7 RW 9 KOTA SEMARANG
13199 1100456623 TRIAS NAFIULANA 10/8/1976 GRONONG RT. 02 RW. 03 KAB. KARANGANYAR
13200 1100456625 WIDIA LINDA SANTI 19/10/1985 PAGILARAN JATIREJO RT. 02 RW. 07 KAB. PEMALANG
13201 1100456626 WIDODO 16/08/1971 GRONONG RT. 02 RW. 03 KAB. KARANGANYAR
13202 1100456628 ASNAWI,[Link] 19/1/1980 DKH. PAGILARAN RT.02 RW.07 KAB. PEMALANG
13203 1100456629 SRI MARTIYEM 30/12/1957 KLAMPEAN RT 10 KAB. SRAGEN
13204 1100456630 NAFISAH 30/12/1980 JL. LETJEND SUPRAPTO RT. 3 RW. 2 KOTA PEKALONGAN
13205 1100456631 AHMAD WILDAN 20/8/1982 JL. LETJEND SUPRAPTO RT. 3 RW. 2 KOTA PEKALONGAN
13206 1100456636 MUCHAYAT 29/12/1959 PUCUNG RT.01/01 TIRTO KAB. PEKALONGAN
13207 1100456637 IKHTIYAR 15/05/1963 KRANDEGAN RT.01/01 SIRAWAN PANINGGARAN KAB. PEKALONGAN
13208 1100456638 SRI MUJIYATI 26/02/1961 [Link] RT.09 RW.02 KAB. KENDAL
13209 1100456639 JANATUN 01/07/1968 SERANG RT 01 RW 06 KAB. WONOSOBO
13210 1100456640 SAODAH 05/05/1965 KRANDEGAN RT.01/01 SIRAWAN PANINGGARAN KAB. PEKALONGAN
13211 1100456641 SISWANTO 28/03/1966 SERANG RT 01 RW 06 KAB. WONOSOBO
13212 1100456643 SUTINI 10/01/1965 JL. DIPONEGORO RT.005 RW.01 KAB. CILACAP
13213 1100456645 SUGENG 18/06/1962 JL. DIPONEGORO NO. 98 RT. 05 RW. 01 KAB. CILACAP
13214 1100456646 WAHONO 19/07/1966 CONDOREJO RT.06/11 KOTA SEMARANG
13215 1100456648 SAKRI 07/10/1960 CIGADUNG RT.01/01 BANJARHARJO KAB. BREBES
13216 1100456649 AFIFAH MUSLIMIN NGATEMIN 11/04/1968 JERUK WANGI 04/01 KAB. JEPARA
13217 1100456650 HERISTANTI SETYORINI 14/09/1962 [Link] ABDI BANGSA NO.70 RT.08/01 KOTA SEMARANG
13218 1100456651 TUMINI 13/08/1962 CIGADUNG RT. 01/01 BANJARHARJO KAB. BREBES
13219 1100456653 UBAIDUR ROHMAN 04/08/1976 WEDELAN RT 001 / RW 001 KAB. JEPARA
13220 1100456657 FAUZAN 16/07/1960 SASAK RT 02/02 KAB. BLORA
13221 1100456658 SRI MURNIYATI 16/09/1958 JL KAUMAN II/18 RT.01/07 KOTA SEMARANG
13222 1100456659 SURTINAH 05/07/1958 KALITINGGAR KIDUL RT 03 RW 01 KAB. PURBALINGGA
13223 1100456660 SLAMET 28/04/1963 KAUMAN BARAT RT.01/01 SAWANGAN KAB. PEKALONGAN
13224 1100456661 SRI LESTARI 14/4/1966 SASAK RT 02/02 KAB. BLORA
13225 1100456664 M. ILHAM ROBBIY 21/11/1999 PUCUNG RT 001 / RW 001 KAB. PEKALONGAN
13226 1100456666 PURWANTI 13/07/1969 PANDEYAN RT.01 RW.04 KAB. WONOGIRI
13227 1100456667 WINOTO ABDULLAH 16/01/1981 PERUM KELAPA GADING PERMAI BLOK D3/13 RT KAB.
001 / RW
PEKALONGAN
13228 1100456668 AMIR SARIFUDIN 22/01/1968 PANDEYAN RT. 01 RW. 04 KAB. WONOGIRI
13229 1100456669 ENDANG KUSMIARTI 28/07/1957 KALIMADE RT.02/02 KESESI KAB. PEKALONGAN
13230 1100456670 LASIRAH TOSARI LEGIMAN 1/7/1961 WATUAJI 04/02 KAB. JEPARA
13231 1100456671 SITI UMI ASA'DAH 31/10/1957 GEDAWUNG RT.01 RW.09 KAB. WONOGIRI
13232 1100456672 SRI SUKARTINI 16/12/1965 SAMBEK RT 02 RW 05 KAB. WONOSOBO
13233 1100456673 MOCH. WASIK HADI 05/10/1974 KP. MERTOJOYO INGAS 143 RT 3 RW 3 KOTA SEMARANG
13234 1100456675 ADHI DIAN SWASTIKA 18/06/1995 MALANGAN RT. 04 RW. 13 KOTA MAGELANG
13235 1100456676 S. RIYANA 16/04/1977 KP. MERTOJOYO INGAS 143 RT.03/03 KOTA SEMARANG
13236 1100456677 WARDI 10/02/1959 TAMBAK MERANG RT.02 RW,O8 KAB. WONOGIRI
13237 1100456681 SALAMUN ROHMAN 3/1/1983 KELET 18/03 [Link] KAB. JEPARA
13238 1100456682 SOLECHAH SUTANTO PURWADI 18/11/1978 PULODARAT 20/02 KAB. JEPARA
13239 1100456683 CATUR LITASARI 02/01/1968 MALANGAN RT. 04 RW. 13 KOTA MAGELANG
13240 1100456684 SUPRIHATNO 09/04/1962 SAMBEK RT 02 RW 05 KAB. WONOSOBO
13241 1100456685 AHMAD RISDIANTO SUBARDI 8/6/1970 PULODARAT 20/02 KAB. JEPARA
13242 1100456686 EKO BASUKI 22/11/1959 JL. KAUMAN NO. 40 RT.01 RW.11 KAB. CILACAP
13243 1100456687 SRI HATI ALWI 10/01/1958 BERMI 4/3 GEMBONG KAB. PATI
13244 1100456688 SRI HARTATI 20/04/1964 JL. KAUMAN NO. 40 RT. 01 RW. 11 KAB. CILACAP
13245 1100456689 ENDANG PURWANTI 24/09/1958 BANJAREJO 01/03 KAB. KLATEN
13246 1100456691 MEDI WIDADA, DRS. [Link]. 14/5/1959 BANJAREJA 01/03 KAB. KLATEN
13247 1100456692 HENI MARDHIANI 26/12/1981 KARANGMALANG KOTA PEKALONGAN
13248 1100456693 SARTI 11/02/1971 JATIBEDUG RT.05 RW.07 KAB. WONOGIRI
13249 1100456696 DARNO 4/12/1965 SEMPON, RT.02/RW.03 KAB. TEMANGGUNG
13250 1100456697 ARIS SUGIYANTO 16/12/1981 KARANG MALANG KOTA PEKALONGAN
13251 1100456698 YIYIN NUR HIDAYAH 18/07/1982 SOWAN LOR 14/04 KAB. JEPARA
13252 1100456699 ROHYATI 19/09/1967 SEMPON, RT.02/RW.03 KAB. TEMANGGUNG
13253 1100456700 SARIYADI SUKIMAN PAWI 04/02/1974 SOWAN LOR 14/04 KAB. JEPARA
13254 1100456701 NISWATUN BAIDLOWI MALIKHAH 14/04/1969 CEBOLEK KIDUL 3/3 MARGOYOSO KAB. PATI
13255 1100456702 SUDARSI SUJADI SUKIYAM 01/07/1965 KAYEN 2/7 KAYEN KAB. PATI
13256 1100456703 HALIMI NGARSAN MARSUMI 25/05/1961 CEBOLEK KIDUL 3/3 MARGOYOSO KAB. PATI
13257 1100456706 SARMADI 8/1/1962 BEMBEM RT. 01/03 KAB. SUKOHARJO
13258 1100456707 TOTOK SUGIYARTO 12/10/1967 JATIBEDUG RT. 05 RW. 07 KAB. WONOGIRI
13259 1100456709 TUGINEM 31/12/1965 BEMBEM RT. 01/03 KAB. SUKOHARJO
13260 1100456710 SUTATA WIRYOSUKARTO PANGESTU 11/12/1959 KAUMAN RT 03 RW 02 KOTA SALATIGA
13261 1100456711 SUDIPYO 21/05/1968 PRANTEN SIGEMPLONG RT.01 RW.03 KAB. BATANG
13262 1100456713 SITI SOFIAH KARSOMO 05/07/1967 KAUMAN RT 03 RW 02 KOTA SALATIGA
13263 1100456717 KASTINI KAPRAWI WARDI 12/05/1958 TELUK WETAN 16/02 KAB. JEPARA
13264 1100456718 SUTADI 02/02/1963 NGARENG RT 03/08 KAB. BLORA
13265 1100456719 SUMARSO 02/01/1968 KEBASEN RT 2 / 2 KAB. BANYUMAS
13266 1100456720 PANITI 10/07/1972 NGARENG RT 03/08 KAB. BLORA
13267 1100456721 SITI JAENAB 23/02/1969 KEBASEN RT 02 /02 KAB. BANYUMAS
13268 1100456722 RASIWEN 01/07/1960 LIMBANGAN RT 15 RW 08 KAB. PURBALINGGA
13269 1100456723 SUKARMAN 22/07/1968 JL. TAMAN SISWA [Link] RT 04/11 KAB. BLORA
13270 1100456724 PUJIATI 24/06/1974 [Link] SISWA [Link] RT 04/11 KAB. BLORA
13271 1100456727 SRI WAHYUNI 14/01/1960 JL DUSUN TEGALSARI RT.002 RW.06 KAB. CILACAP
13272 1100456729 SUTARNI 02/11/1961 DULAS RT 02 KAB. SRAGEN
13273 1100456730 WARSITO 04/03/1963 PERUM MADU ASRI BLOK C 37 RT. 01/09 KAB. KARANGANYAR
13274 1100456732 MAHRUDIN ISMANGIL SAKUN 11/02/1963 RANTEWRINGIN RT. 02. 02 KAB. KEBUMEN
13275 1100456733 PURWANINGSIH 22/03/1964 PERUM MADU ASRI BLOK C 37 RT. 01/09 KAB. KARANGANYAR
13276 1100456734 M. MUSTAQIM 03/06/1971 ROWOKEMBU RT.05 RW.03 WONOPRINGGO KAB. PEKALONGAN
13277 1100456735 JOKO SUKWANDIYANTO 11/07/1965 JLN. JAMBU NO 191 01/02 KAB. GROBOGAN
13278 1100456736 MAISAROH 08/05/1962 JL. MALUKU 24 RT. 04/18 KAB. MAGELANG
13279 1100456737 NANIK IRNAWATI 01/03/1981 JL JAMBU NO 191 1/2 KAB. GROBOGAN
13280 1100456739 NUR ROKHMAWATI 13/4/1969 SELEMBARAN RT.04 RW.03 KOTA SURAKARTA
13281 1100456740 UDIN UDOYONO 23/10/1972 JL. JAMBU NO 109 02/02 KAB. GROBOGAN
13282 1100456741 SUWANTO 03/03/1961 JL MALUKU NO.24 RT.04 RW.18 KAB. MAGELANG
13283 1100456742 SUKIYAH, [Link] 4/7/1968 PERUM ARGO KILOSO RT. 01 RW. 06 KAB. KARANGANYAR
13284 1100456743 TITIK TJAHYANI 11/11/1973 JL. JAMBU NO 109 2/2 KAB. GROBOGAN
13285 1100456745 LILIK SUPRIYANTONO 13/12/1967 JL. JAMBU 01/02 KAB. GROBOGAN
13286 1100456746 ACHMAD SABARI 27/6/1969 PERUM ARGO KILOSO RT. 01 RW. 06 KAB. KARANGANYAR
13287 1100456747 HERLAMBANG 21/10/1963 TEGALSARI RT.06 RW.01 KAB. BATANG
13288 1100456748 RIYADHOTUN NUROH 26/11/1978 JL. JAMBU 01/02 KAB. GROBOGAN
13289 1100456749 KHOFIFAH ANWAR 05/09/1974 TEGALSARI RT.06 RW.01 KAB. BATANG
13290 1100456753 YULIAH ROHANI 12/01/1975 LEMAHBANG RT. 03 RW. 11 KAB. KARANGANYAR
13291 1100456755 PUPUS RISNAWATI 26/08/1974 BADRAN ASRI RT.04/RW.05 KAB. SUKOHARJO
13292 1100456756 SUNARSO, BA 12/07/1958 TAGUNG RT. 01 RW. 01 KAB. KARANGANYAR
13293 1100456757 TAMI 5/3/1959 PLOSO WETAN RT. 01 RW. 03 KAB. KARANGANYAR
13294 1100456758 DARMANTO 12/10/1967 KREBET RT 13/04 KAB. SRAGEN
13295 1100456760 NUR SRISUTAMI 08/04/1973 AMBOWETAN RT.02 RW.03 KAB. PEMALANG
13296 1100456762 NUROFINGAH 21/06/1967 GRUMBULREJO RT. 02 RW. 01 KAB. KARANGANYAR
13297 1100456763 INDARTI 15/03/1968 KREBET RT 13/04 KAB. SRAGEN
13298 1100456764 MULYONO 01/06/1967 GRUMBULREJO RT. 02 RW. 01 KAB. KARANGANYAR
13299 1100456765 NARDI 02/08/1961 TANJANG RT 22/07 KAB. SRAGEN
13300 1100456767 SUGIYEM 18/08/1968 TANJANG RT 22/07 KAB. SRAGEN
13301 1100456768 KOMARODIN 08/04/1961 BANJARSARI 03/04 KAB. MAGELANG
13302 1100456769 AGUS PURWADIANTO 11/08/1971 DUNGDANG RT 02 KAB. SRAGEN
13303 1100456770 SRI TUGINI 07/06/1980 PATIHAN RT 16/04 KAB. SRAGEN
13304 1100456771 JUMBADI 04/05/1975 PATIHAN RT 16/04 KAB. SRAGEN
13305 1100456772 ZUHDI YASIN DAHLAN 12/08/1963 MANYARGADING 03/01 KEC. KALINYAMATAN KAB. JEPARA
13306 1100456774 BUDHI HANDANI 15/03/1966 SUKOREME 27/08 KAB. KLATEN
13307 1100456775 KHOIRUL ANAM 02/08/1997 MANYARGADING RT.04/01 KEC. KALINYAMATAN KAB. JEPARA
NO NO. PORSI NAMA TANGGAL LAHIR ALAMAT KAB/KOTA KETERANGAN
13308 1100456777 SITI KHUMAIDAH WAGIRAN 14/07/1973 MANYARGADING RT.003/001 [Link]. JEPARA
13309 1100456778 YENNI ASTUTI 11/08/1979 MEKARSARI RT 001 RW 013 KAB. WONOSOBO
13310 1100456779 ARIF AL DARIYAT 11/04/1974 MEKARSARI RT 001 RW 013 KAB. WONOSOBO
13311 1100456780 ZURIYAH MUHAMAD MUNADI 20/09/1966 MANYARGADING 04/01 KEC. KALINYAMATAN KAB. JEPARA
13312 1100456782 IBROHIM ASSODIG 3/7/1980 BUMI MULYO RT 05 RW 01 KAB. WONOSOBO
13313 1100456783 MIATUN 21/10/1957 BERAN KULON 02/10 KAB. MAGELANG
13314 1100456784 RITA ISNAINI 02/10/1966 SUKORAME 27/08 KAB. KLATEN
13315 1100456786 KHAERUDIN 02/06/1970 GEMBONG UTARA RT.01/01 KEDUNGWUNI TIMURKAB. PEKALONGAN
13316 1100456787 AHMAD MUNJID S,PD 16/08/1966 DUKUHTENGAH RT.08/02 KETANGGUNGAN KAB. BREBES
13317 1100456788 PARYONO 24/6/1966 DERSANAN NO 001 01/05 KAB. MAGELANG
13318 1100456789 GUMILANG LISTIATI, [Link] 30/10/1974 DUKUHTENGAH RT.08/02 KETANGGUNGAN KAB. BREBES
13319 1100456790 TRI MULYANINGSIH 30/06/1972 DERSANAN 01/05 KAB. MAGELANG
13320 1100456794 FERA ANDIANY DEWI 12/02/1980 GEMBONG UTARA RT.01/01 KEDUNGWUNI TIMURKAB. PEKALONGAN
13321 1100456799 KAMIDAH 23/07/1975 BONOREJO RT 05 RW 15 KOTA SURAKARTA
13322 1100456800 NUR ANISAH 06/05/1974 JENGGOT GG.5 RT.02 RW.07 KOTA PEKALONGAN
13323 1100456803 KOMARUDIN 08/11/1959 KALILOKA RT. 05/04 SIRAMPOG KAB. BREBES
13324 1100456805 WASILAH 2/3/1960 KALILOKA RT. 05/04 SIRAMPOG KAB. BREBES
13325 1100456806 SUTRISNO 19/10/1967 KEL BARU RT 04 RW 01 PASAR REBO JAKARTA TIMUR
KAB. SUKOHARJO
13326 1100456808 SRI WAHYUNINGSIH 17/10/1971 NGABLAK RT.04/RW.11 KAB. SUKOHARJO
13327 1100456810 MUCHLISIN 10/06/1977 DUSUN SUKUP WETAN RT. 02 RW. 01 KAB. KENDAL
13328 1100456811 MAFTULIKHAH 01/07/1965 SERANGAN RT.02/03 KAB. DEMAK
13329 1100456812 MUSTOFA 24/02/1967 KRAPYAK RT.06/XI KAB. DEMAK
13330 1100456814 MAEMONAH 21/05/1973 KRAPYAK RT.06/XI KAB. DEMAK
13331 1100456818 MUANAH SUYUTI 10/06/1966 KESATRIAN RT.04/RW.03 KAB. KENDAL
13332 1100456820 SULASTRI 27/08/1959 DK. KARANGLEGI RT 02 RW 06 KAB. BLORA
13333 1100456823 MUHAMAD KITAM 10/09/1971 TANJUNGTIRTA. RT. 002/003 KAB. BANJARNEGARA
13334 1100456824 TAUFIQ 6/6/1965 JL. AKASIA NO.19 RT.01/13 PASARBATANG KAB. BREBES
13335 1100456825 SARMINI 11/11/1978 TANJUNGTIRTA. RT.002/003 KAB. BANJARNEGARA
13336 1100456826 SITI NURHAYATI 19/3/1972 JL. AKASIA RT.01/13 PASARBATANG KAB. BREBES
13337 1100456827 MUDRIKAH MARTUNIS DUL KASAN 31/12/1957 KARANGAMPEL RT 01 RW 01 KAB. KUDUS
13338 1100456828 MUDIYONO 30/12/1958 LEMAHJAYA RT 001 RW 003 KAB. BANJARNEGARA
13339 1100456829 TANTI 16/02/1970 LEMAHJAYA RT 001/003 KAB. BANJARNEGARA
13340 1100456830 ABDUL KOHAR 21/07/1970 PUCUNGBEDUG RT 003 RW 003 KAB. BANJARNEGARA
13341 1100456831 IRMAWAN EKO PUTRANTO 12/03/1988 PELEMKEREP RT.05/03 MAYONG JEPARA KAB. JEPARA
13342 1100456832 SUBIYANTI KUSRIN WIJOYO KUSUMO 23/07/1957 PLOSO RT.06 RW.05 KAB. KUDUS
13343 1100456833 TUHAENAH 22/03/1968 CONDONGCAMPUR RT 004 RW 002 KAB. BANJARNEGARA
13344 1100456834 DRA ELFY DWITJAHJANINGTYAS 14/1/1962 PERUM TIDAR ASRI NO 24A 04/06 KAB. MAGELANG
13345 1100456835 SULASMI TARWI WIROGUNO 31/12/1961 KANDANGMAS RT 04 RW 02 KAB. KUDUS
13346 1100456838 RATNA SITHARESMI 27/01/1970 JL. RINJANI 21 RT. 02 RW. 09 MULYOHARJO KAB. PEMALANG
13347 1100456839 INDARTIK IKAYAT ABDULLAH 05/05/1965 PELEMKEREP RT 05/03 KAB. JEPARA
13348 1100456840 SURIPNO 31/1/1965 MANDIRAJA WETAN RT 003 RW 001 KAB. BANJARNEGARA
13349 1100456842 SITI USWATIN HASANAH 18/12/1978 DUSUN TEGALSARI RT.002 RW.06 KAB. CILACAP
13350 1100456843 SUTANTO 06/09/1966 JL. RINJANI 21 RT. 02 RW 09 MULYOHARJO KAB. PEMALANG
13351 1100456844 JAMROJI 12/08/1962 PERUM TIDAR ASRI NO 240 RT.04/06 KAB. MAGELANG
13352 1100456846 INDARTI 31/01/1969 SEMAWUNG 03/17 KAB. MAGELANG
13353 1100456847 MUSTAKIMAH 06/01/1964 DOPLANG RT. 05/02 PURWOREJO KAB. PURWOREJO
13354 1100456848 WAKIAH 14/08/1962 JL. BAJA KRAJAN BARAT RT. 09 RW. 02 KAB. PEMALANG
13355 1100456850 M. NGALAIHIM RD 23/05/1965 TREMBULREJO RT 03 RW 02 KAB. BLORA
13356 1100456851 SUKAMTONO 09/12/1964 SEMAWUNG 03/17 KAB. MAGELANG
13357 1100456852 DRS. MUCHROFIQ 04/09/1957 DOPLANG RT. 05/02 PURWOREJO KAB. PURWOREJO
13358 1100456853 NUR ALI 05/10/1977 DUSUN TEGALSARI RT.02 RW.06 KAB. CILACAP
13359 1100456855 UMA FARIDA 05/05/1970 TREMBULREJO RT 03 RW 02 KAB. BLORA
13360 1100456856 SIGIT RAHARJO 09/08/1960 SOPRAYAN 11/05 KAB. KLATEN
13361 1100456860 ENI SISWANTI 03/09/1966 SOPRAYAN 11/05 KAB. KLATEN
13362 1100456861 SRI SUDJATMI HERMAN 19/01/1959 JL. PUDAKSARI NO. 01 RT 01 RW 07 KOTA SALATIGA
13363 1100456862 KUSNADI SUTRIMO TRUMOLEGIO 19/05/1964 PURWOREJO RT 03 RW 01 KAB. KUDUS
13364 1100456864 MUANIFAH 02/05/1975 SURADADI RT. 01/10 KAB. TEGAL
13365 1100456866 WUWUH SRI RAHAYU 29/09/1971 [Link] 3 NO 7 RT 04/04 KAB. BLORA
13366 1100456867 KANTHI PAMUNGKAS SARI 26/04/1969 BANDUNGAN 01/05 KAB. MAGELANG
13367 1100456868 IRAWATI MASKURI KASRUN 17/08/1976 PURWOREJO RT 03 RW 01 KAB. KUDUS
13368 1100456869 WASRIM 12/09/1970 SURADADI RT. 01/10 KAB. TEGAL
13369 1100456870 SUGENG KARYANTO 24/2/1972 [Link] 3 NO 7 RT 04/04 KAB. BLORA
13370 1100456875 SUTIKNO 13/12/1957 BERAN RT 01/01 KAB. BLORA
13371 1100456876 MARJIYEM 06/04/1961 BODORAN RT 05 RW 02 KAB. WONOSOBO
13372 1100456879 SRI SUHARWATI 08/11/1969 BLADO RT.16 RW.06 KAB. BATANG
13373 1100456880 NUR FATMAWATI 08/08/1977 [Link] TIMUR RT.05/03 ROWOKEMBU KAB. PEKALONGAN
13374 1100456881 AGUS EFMANTO,[Link] 20/08/1962 BLADO RT.16 RW.06 KAB. BATANG
13375 1100456883 ENY HARINI,[Link] 27/07/1962 NGALIYAN RT.03 RW.02 KAB. BATANG
13376 1100456884 MUHAMMAD ASHAR 18/8/1958 DK. GATAK RT.03/RW.03 KAB. KENDAL
13377 1100456885 TUTUK MARFUAH KUSNO 13/10/1975 TANJUNGSARI 1/2 JAKENAN KAB. PATI
13378 1100456886 SILVIA ANDRIANI 06/10/1960 GIYANTI, RT.02/RW.01 KAB. TEMANGGUNG
13379 1100456887 SITI NURUL AMINAH 01/01/1971 PANTIREJO RT 05 KAB. SRAGEN
13380 1100456888 YULI LESTARI 9/9/1989 SEMBUNGAN RT 18/06 SIDOHARJO SRAGEN KAB. SRAGEN
13381 1100456889 TUGINEM 31/12/1960 SEMBUNGAN RT 18/06 KAB. SRAGEN
13382 1100456890 SAMSUL 28/12/1959 KEDUNGKENDANG RT 15 KAB. SRAGEN
13383 1100456891 MULYANI 09/06/1961 KEDUNGKENDANG RT 15 KAB. SRAGEN
13384 1100456892 MUHAMMAD AL AMIN 10/09/1981 PILANG RT 15 KAB. SRAGEN
13385 1100456893 SITI ROFIAH [Link] 12/04/1980 PILANG RT 15 KAB. SRAGEN
13386 1100456894 SUWARTO 02/02/1958 MUNGGUR RT 23 KAB. SRAGEN
13387 1100456896 NUR SIWIATI 08/01/1963 MUNGGUR RT 23 KAB. SRAGEN
13388 1100456897 MEMI SULISTYANINGSIH 15/09/1976 TORO KIDUL RT 06 KAB. SRAGEN
13389 1100456901 SITI ZUBAIDAH 04/03/1968 GRIYA SERBA ASRI D.20 RT. 07/03 KAB. SUKOHARJO
13390 1100456902 PUJI WARDANI 11/08/1968 PARAKANCANGGAH RT 001 RW 011 KAB. BANJARNEGARA
13391 1100456903 WARSINAH 2/10/1967 PENCIL RT 03 RW 01 KAB. WONOSOBO
13392 1100456908 SRI MARYATI SUPAR 16/11/1960 GETASPEJATEN RT 11 RW 03 KAB. KUDUS
13393 1100456910 WAGIRAH WIRYOREJO TRUNOSEMITO 16/12/1959 DS. GRENGGENG RI 02/01 KARANGAYAR KAB. KEBUMEN
13394 1100456912 SITI KHABSAH SIDIK 08/05/1963 KUWASEN RT.014/004 KAB. JEPARA
13395 1100456913 SHOBIRIN 03/04/1969 TURIREJO RT 02 RW 03 KAB. DEMAK
13396 1100456914 SUPONO KARIYONO SARIMAN 11/09/1966 KUWASEN RT 01/04 KAB. JEPARA
13397 1100456915 RIO RAJAB 28/05/1981 KOMP. WALIKOTA RT.006/006 SUKAPURA CILINCING
KAB. CILACAP
13398 1100456916 SOFIATUN KARMO SARMIN 10/07/1969 SIDIGEDE 14/03 KAB. JEPARA
13399 1100456918 KHOIRIYATUN NIKMAH 06/04/1974 TURIREJO RT 02 RW 03 KAB. DEMAK
13400 1100456920 SATRIANI TRISNI SETYOWATI 31/05/1966 JL. PARANGSARPO VIII/6 RT.04/12 KOTA SEMARANG
13401 1100456921 MUHADI 04/07/1962 JL. PARANGSARPO VIII/6 RT.04/12 KOTA SEMARANG
13402 1100456923 ASTRI MULYONO SUPARMI 11/03/1967 BANGSALREJO 3/2 WEDARIJAKSA KAB. PATI
13403 1100456924 KUSWATI 16/06/1961 AWILUAR RT. RT. 02 RW. 07 KAB. CILACAP
13404 1100456927 SYAFIK MUHDI HASNA 5/4/1966 KEDUNGLEPER 02/04 KAB. JEPARA
13405 1100456928 SITI MUTMAINAH 29/12/1959 SUMBERAN 08/05 KAB. KLATEN
13406 1100456930 SAHIR 06/02/1973 PRETEK KEDUNGDAWA RT.03 RW.03 KAB. BATANG
13407 1100456931 SAROH 01/02/1978 PRETEK KEDUNGDAWA RT.03 RW.03 KAB. BATANG
13408 1100456933 ASRI HERMAWAN 30/03/1968 KAUMAN [Link] PELAJAR NO.33 06/09 KAB. BATANG
13409 1100456934 ANY DWI RUSATI 07/06/1967 KAUMAN [Link] NO.23 RT.05 RW.08 KAB. BATANG
13410 1100456936 PONCO SAPUTRO 24/06/1960 JL. PROGO NO.98 RT.03 RW.02 KAB. CILACAP
13411 1100456937 MUHAMMAD HAMZAH ASYROFI 09/09/1959 SROBYONG 004/001 KAB. JEPARA
13412 1100456938 MUGIARTO 09/05/1963 GRIYA BUARAN INDAH B. 110 RT. 3 RW. 8 KOTA PEKALONGAN
13413 1100456939 DWI LENGGANI 25/04/1961 JL. PROGO NO.98 RT.03 RW.02 KAB. CILACAP
13414 1100456940 NOR FAIQ ABDUL BASYIR 27/4/1981 BAWU 01/01 KAB. JEPARA
13415 1100456941 SRI KISWATI, SE. 23/10/1964 GRIYA BUARAN INDAH B. 110 RT. 3 RW. 8 KOTA PEKALONGAN
13416 1100456942 SULARMI MARSID SAMINI 12/05/1964 ASEMPAPAN 3/1 TRANGKIL KAB. PATI
13417 1100456943 PIPIP SUSILA EFTIKARIANA 08/09/1971 PERUM DOMAS BLOK RU NO.01 RT 05 RW 10 KOTA SALATIGA
13418 1100456944 WAISAH 19/04/1959 JL. G. SLAMET I RT. 03/06 BLUBUK KAB. TEGAL
13419 1100456945 EMA YUSNANITA MARIYONO 03/05/1986 BAWU 01/01 KAB. JEPARA
13420 1100456946 SURADI NOTO WIHARJO 1/9/1968 PERUM DOMAS BLOK RU NO.01 RT 05 RW 10 KOTA SALATIGA
13421 1100456949 SODIK LUKMAWAN 28/12/1983 GRANTING RT 012 / RW 006 KAB. KLATEN
13422 1100456950 DJUMADI KATMO JANIPAN 20/06/1960 KECAPI RT.024/004 KAB. JEPARA
13423 1100456951 WARNITI LAILATUL MAGHFIROH 17/06/1982 KETELENG RT.04 RW.01 KAB. BATANG
13424 1100456952 WAGIYEM AL WAGIYANTI 07/05/1960 GRANTING 12/06 KAB. KLATEN
13425 1100456953 SUMIYATI LASDI KARSINI 01/07/1965 KEDUNGMULYO 2/1 JAKENAN KAB. PATI
13426 1100456954 SUDILAN 31/01/1960 SUMBERAN 01/05 KAB. KLATEN
13427 1100456955 TASMI DARSONO RONOKUSIRUN 03/05/1965 KECAPI RT.024/004 KAB. JEPARA
13428 1100456956 MAHMUDIN 02/07/1966 DSN GEBYOG RT. 03 RW. 01 KAB. PEMALANG
13429 1100456957 DARSONO 12/08/1965 AYODYA I JL. ANOMAN NO.14 A 03/20 KAB. GROBOGAN
13430 1100456958 WINDIANA 04/05/1968 [Link] RT.03 RW.01 KAB. PEMALANG
13431 1100456959 NGADIMIN 05/05/1961 BANJARSARI 01/04 KAB. KLATEN
13432 1100456960 CAHYO 08/06/1976 KETELENG RT.04 RW.01 KAB. BATANG
13433 1100456961 NURHAYATI 20/1/1972 AYODYA I [Link] NO.14 A 03/20 KAB. GROBOGAN
13434 1100456963 MARINI 31/12/1959 TAMBONG WETAN 02/03 KAB. KLATEN
13435 1100456964 ASHEHAN INSANTANG 20/8/1982 TAMBONG WETAN 02/03 KAB. KLATEN
NO NO. PORSI NAMA TANGGAL LAHIR ALAMAT KAB/KOTA KETERANGAN
13436 1100456965 SOLICHIN 31/12/1980 DUSUN SITINGGIL RT.003 RW.01 KAB. CILACAP
13437 1100456966 MURIYAH 21/05/1968 PESANTREN RT.05 RW.02 KAB. BATANG
13438 1100456968 DEDI SAHARA 04/03/1981 TAMBONG WETAN 02/03 KAB. KLATEN
13439 1100456969 SUTADI 26/07/1959 TEMPEL RT 16 RW 4 KAB. BOYOLALI
13440 1100456970 SLAMET SASMO SUCIPTO 25/06/1958 NGAMPUNAN RT 23 KAB. SRAGEN
13441 1100456971 SITI LATIFAH 12/7/1977 DUSUN SITINGGIL RT.003 RT.01 KAB. CILACAP
13442 1100456972 TOAT 10/12/1960 PESANTREN RT.05 RW.02 KAB. BATANG
13443 1100456973 LALANG PALAMBANG 11/12/1993 TAMBONG WETAN 02/03 KAB. KLATEN
13444 1100456975 SUMINAH 21/08/1961 NGAMPUNAN RT 23 KAB. SRAGEN
13445 1100456976 SITI AMINAH 03/03/1964 BANDAR [Link] SIDOMULYO RT.03 RW.05 KAB. BATANG
13446 1100456977 SLAMET BADARUDIN 06/02/1970 BANDAR [Link] SIDOMULYO RT.03 RW.05 KAB. BATANG
13447 1100456979 HERI PURNOMO JOESOEF 18/02/1968 JL. TIRTOYOSO RT 04 RW 09 KOTA SALATIGA
13448 1100456980 AGUS WIRYONO 12/08/1968 TENGAHAN 01/01 KAB. KLATEN
13449 1100456982 DWI KURNIAWATI HANDAYANI 02/11/1970 JL. TIRTOYOSO RT 04 RW 09 KOTA SALATIGA
13450 1100456983 SAIYAH 16/9/1969 COKRO RT.01 RW.01 KAB. BATANG
13451 1100456985 NUR ARIFAH ADCHANI 18/11/1977 TENGAHAN 01/01 KAB. KLATEN
13452 1100456988 SUDARMI 11/10/1961 TEMPEL RT 16 RW 04 KAB. BOYOLALI
13453 1100456989 SUBADRI 22/11/1968 COKRO RT.01 RW.01 KAB. BATANG
13454 1100456990 SUKARTO SUKARMAN KASIRAH 03/07/1957 SIDOKERTO 3/2 PATI KAB. PATI
13455 1100456992 SRI YATI WAGE SOEWONO 17/08/1957 SIDOKERTO 3/2 PATI KAB. PATI
13456 1100456993 JAMJURI NGARDJO PASRI 21/02/1971 BULUMANIS KIDUL 3/3 MARGOYOSO KAB. PATI
13457 1100456994 ZIDNI 24/07/1966 PRIGI RT 04 RW 08 KAB. BOYOLALI
13458 1100456997 TOLI ATUL IZAH NGATENO 03/08/1978 KECAPI 29/05 KAB. JEPARA
13459 1100457000 WASONO 12/05/1973 JL. KELAPA SAWITRT 003 RW 002 KAB. CILACAP
13460 1100457001 SUKOYO RAWI POLEMPUK 07/04/1973 KECAPI 29/05 KAB. JEPARA
13461 1100457002 HUSAINI ASBIN SITI ZUBAIDAH 03/04/1973 KAJAR 3/2 TRANGKIL KAB. PATI
13462 1100457003 SRI HARYANTI MUDJIATI 17/09/1977 JL. PRAMBANAN TIMUR II RT.04/11 KOTA SEMARANG
13463 1100457004 RIMA KURNIATI SUDARNO 12/03/1981 PEGANJARAN RT 01 RW 02 KAB. KUDUS
13464 1100457006 SHOLIHATUN SUWAWI ASFIYATUN 26/09/1977 KAJAR 3/2 TRANGKIL KAB. PATI
13465 1100457007 ROSYID OTONG ARSYANI 15/8/1976 LODAN WETAN RT 001 RW 003 SARANG KAB. REMBANG
13466 1100457008 SUPRIHADI 25/10/1957 CEPOKO RT.04/01 KOTA SEMARANG
13467 1100457009 MUHAMAD NURHADI 4/1/1965 TEBON RT. 03/05 KAB. SUKOHARJO
13468 1100457010 BASAROH 12/12/1958 JAWENG RT 02 RW 01 KAB. BOYOLALI
13469 1100457011 SUKRAM BEJO WONO 27/04/1982 PEGANJARAN RT 01 RW 02 KAB. KUDUS
13470 1100457013 UMI SALAMAH KASMURI 01/04/1976 LODAN WETAN RT 001 RW 003 SARANG KAB. REMBANG
13471 1100457015 WAKIYEM 10/1/1959 TEMPLEK RT 10/05 KAB. SRAGEN
13472 1100457017 SUTRISNO 11/10/1965 JL. PRAMBANAN TIMUR II RT.04/11 KOTA SEMARANG
13473 1100457019 IZZATUL FAHIROH ABDUL MALIK 27/02/1988 LODAN WETAN RT 001 RW 003 SARANG KAB. REMBANG
13474 1100457020 HARWAN BUDIWIYONO 11/04/1977 SUMBERKULON 09/04 KAB. KLATEN
13475 1100457021 SURURUL MARFUAH 3/1/1971 RINGIN REJO RT 01 RW 05 KAB. BOYOLALI
13476 1100457022 NUR CHOLIS ACHMAD HASAN 11/12/1971 LODAN WETAN RT 001 RW 003 SARANG KAB. REMBANG
13477 1100457023 PURWANI 25/11/1973 COMBONGAN RT.02/RW.01 KAB. SUKOHARJO
13478 1100457024 BUDI SARONO 19/03/1969 SUMBEREJO RT. 06 RW. 03 KAB. KARANGANYAR
13479 1100457025 SRI LESTARI 26/09/1974 SUMBEREJO RT. 06 RW. 03 KAB. KARANGANYAR
13480 1100457027 SUROSO 03/08/1964 RINGINREJO RT 01 RW 05 KAB. BOYOLALI
13481 1100457028 FITRI SUHARYANI 19/07/1982 SUMBERKULON 09/04 KAB. KLATEN
13482 1100457029 AHMAD YAJID 08/07/1974 REJOSARI RT 04 RW 01 KAB. WONOSOBO
13483 1100457031 SUAT MAHFUDLI [Link] 11/7/1968 WANUTENGAH RT02 RW01 KAB. TEMANGGUNG
13484 1100457032 YETY FITRIANA HARIYANI 13/12/1969 RANDUBLATUNG RT 01/02 KAB. BLORA
13485 1100457033 SUMIYATI 15/11/1979 REJOSARI RT 04 RW 01 KAB. WONOSOBO
13486 1100457034 DR. MUH FAJAR BANANI 16/01/1967 RANDUBLATUNG RT 01/02 KAB. BLORA
13487 1100457036 SITI MUTI'AH YAMIN 20/02/1966 WARU RT 006 RW 003 REMBANG KAB. REMBANG
13488 1100457037 SITI KATIMAH 08/08/1959 CABEYAN RT.05/RW.03 KAB. SUKOHARJO
13489 1100457038 MUNAWAR AMSAR YAHMAN 13/3/1959 WARU RT 006 RW 003 REMBANG KAB. REMBANG
13490 1100457039 ERVINA PUJIWATI MASNAN 28/10/1961 MLATI LOR RT 01 RW 02 KAB. KUDUS
13491 1100457040 SUGIMIN 31/12/1960 SELIRAN RT.02/RW.05 KAB. SUKOHARJO
13492 1100457041 BUDI WAHYONO 28/12/1969 REJOSARI RT 04 RW 01 KAB. WONOSOBO
13493 1100457042 HARTAYA 18/09/1969 BRATAN PAJANG RT.06 RW.06 KOTA SURAKARTA
13494 1100457045 HARYANTI 16/5/1981 REJOSARI RT 04 RW 01 KAB. WONOSOBO
13495 1100457046 SAYADI DARSO TINOYO 10/12/1963 WINONG 2/4 PATI KAB. PATI
13496 1100457047 SRI UTAMI BASRI MOCH ASWAD 16/01/1964 WINONG 2/4 PATI KAB. PATI
13497 1100457049 TAMSILAH KROMO TAWI 12/07/1963 KANDANGMAS RT 05 RW 02 KAB. KUDUS
13498 1100457050 RANTINAH 05/04/1966 PENGILON RT. 04/04 SONGGOM KAB. BREBES
13499 1100457051 IKHWAN 22/07/1957 PENGILON RT. 04/04 SONGGOM KAB. BREBES
13500 1100457052 MASYATUN SAMSURI SIMAN 05/02/1969 TELUK WETAN 13/02 KAB. JEPARA
13501 1100457053 KHARIS HARYONO ASHADI 14/08/1960 KRIYAN RT.011/003 [Link] KAB. JEPARA
13502 1100457054 SUTEJO TASKAN KASMO 7/3/1962 TELUK WETAN 13/02 KAB. JEPARA
13503 1100457055 TARMIDJAN SAIDI KORJO NGADI 31/12/1963 KANDANGMAS RT 05 RW 02 KAB. KUDUS
13504 1100457057 SUMI 01/12/1958 JL. CIMAHI RT.02 RW.02 KOTA TEGAL
13505 1100457058 AKMALUDDIN AGUNG PRATOMO 25/08/1982 JL. KH. AHMAD DAHLAN RT.02/06 BREBES KAB. BREBES
13506 1100457059 KHOSIATUN AZMI 09/06/1984 JL. KH. AHMAD DAHLAN RT.02/06 BREBES KAB. BREBES
13507 1100457061 SLAMET EDI SETIANTO 20/09/1971 MENJANGAN RT.08/03 BOJONG KAB. PEKALONGAN
13508 1100457063 NING SUSILOWATI 08/03/1977 MENJANGAN RT.08/03 BOJONG KAB. PEKALONGAN
13509 1100457064 ABRORI 02/12/1967 LIMBANGAN, RT.02/01 LOSARI KAB. BREBES
13510 1100457065 PARTI 10/01/1961 DSN. PURWAYASA RT. 02 RW. 01 KAB. CILACAP
13511 1100457066 SOPRIDAH 06/09/1977 LIMBANGAN RT. 02/01 LOSARI KAB. BREBES
13512 1100457068 MA'RIFAH 04/09/1974 LIMBANGAN RT. 02/01 LOSARI KAB. BREBES
13513 1100457071 MUSLIH 14/3/1966 LIMBANGAN RT. 02/01 LOSARI KAB. BREBES
13514 1100457072 WAGITO 22/11/1964 DUSUN KARANGSALAM RT.02 RW.06 KAB. CILACAP
13515 1100457073 EDY PURNOMO 04/11/1960 KRIKILAN 01/03 KAB. KLATEN
13516 1100457074 MUFLIKHAH 02/08/1960 LIMBANGAN RT. 02/01 LOSARI KAB. BREBES
13517 1100457075 SRI WAHYUNI 02/06/1965 KRIKILAN 01/03 KAB. KLATEN
13518 1100457076 SUHARTINI 21/4/1968 DUSUN KARANGSALAM RT.002 RW.06 KAB. CILACAP
13519 1100457077 SUKATI SUPARDI SURANGAIDIN 16/11/1967 KRIYAN RT.011/003 [Link] KAB. JEPARA
13520 1100457078 DARNYOTO 30/05/1958 PASEKARAN [Link] V NO.13 04/03 KAB. BATANG
13521 1100457079 RASEM 06/08/1961 GUNUNGGIANA RT 003 RW 002 KAB. BANJARNEGARA
13522 1100457083 SOLIHAH TOHARI HUSNAN 02/05/1974 KEDUNGLEPER 02/04 KAB. JEPARA
13523 1100457086 APRI ASIH MEDIYAH 16/04/1983 TEGALSARI NO.10 RT.10 RW.01 KAB. BATANG
13524 1100457087 NASECHAT 20/03/1958 DEPOK RT.02/RW.01 KAB. KENDAL
13525 1100457088 KISBANDIYAH,[Link] 9/1/1971 KALIBOYO RT.06 RW.02 KAB. BATANG
13526 1100457089 MARIYOTO MARZUKI SAKIJAN 13/10/1968 SEKURO 27/06 KAB. JEPARA
13527 1100457090 TRI WIDIYAWATI SUBAGYO 11/03/1978 SEKURO 27/06 KAB. JEPARA
13528 1100457091 KUSDINO 28/08/1977 TEGALSARI NO.10 RT.10 RW.01 KAB. BATANG
13529 1100457092 SAPA'ATI 29/07/1959 DEPOK RT.02/RW.01 KAB. KENDAL
13530 1100457094 SUMAIDAH 02/02/1961 KRANJANG KIDUL RT. 03/06 KAB. MAGELANG
13531 1100457097 MARDANI,SH 6/5/1964 KAUMAN [Link] NO.54 RT.05 RW.08 KAB. BATANG
13532 1100457099 RONDIYAH P. 30/11/1962 BATURSARI RT.01/04 KAB. DEMAK
13533 1100457101 MUHAMAD MAHASIN 10/05/1975 TIDAR UTARA RT 003 / RW 009 KAB. TEMANGGUNG
13534 1100457102 SUNARNI 4/7/1966 KAUMAN [Link] NO.54 RT.01 RW.09 KAB. BATANG
13535 1100457103 KAIRIN TEMON KIBAN 31/12/1960 LAU RT 03 RW 06 KAB. KUDUS
13536 1100457107 PARTIAH SUMARNO KASERAN 11/10/1968 LAU RT 03 RW 06 KAB. KUDUS
13537 1100457108 SANTI 17/02/1980 BISMO RT.02 RW.01 KAB. BATANG
13538 1100457110 WAHYUDIN 26/04/1973 PANUSUPAN RT 04 RW 03 KAB. BANYUMAS
13539 1100457111 SITI MUTAMIMAH 26/07/1979 PANUSUPAN RT 04 / 03 KAB. BANYUMAS
13540 1100457112 NISMAN 6/8/1970 BISMO RT.02 RW.01 KAB. BATANG
13541 1100457113 WINARTI 19/10/1963 JELEHAN KULON RT. 02/13 KAB. MAGELANG
13542 1100457114 MARWOTO SUWARSUM 20/07/1961 JELEHAN KILON 02/13 KAB. MAGELANG
13543 1100457115 TURAH 05/07/1993 BLADO BISMO RT.03 RW.02 KAB. BATANG
13544 1100457116 MADHORI NGATEMIN ABDUL GONI 11/2/1973 BURIKAN RT 02 RW 03 KAB. KUDUS
13545 1100457117 MUHAMMAD KODIM 10/10/1980 KALANGAN RT. 02/07 KAB. MAGELANG
13546 1100457118 WIDODO 05/06/1965 GATAK 41/17 KAB. KLATEN
13547 1100457119 SITI SHOLICHATIN IKSAN 01/03/1977 BURIKAN RT 02 RW 03 KAB. KUDUS
13548 1100457120 PAINEM 23/08/1967 GATAK 41/17 KAB. KLATEN
13549 1100457121 NUR SUSANTO 29/03/1968 JOGAHAN RT.01/RW.09 KAB. SUKOHARJO
13550 1100457122 SHOLEH 24/03/1973 GUNUNGSARI RT 05 RW 06 KAB. BOYOLALI
13551 1100457123 SRI HASTUTI 31/05/1970 JOGAHAN RT.01/RW.09 KAB. SUKOHARJO
13552 1100457124 SUMINTEN,SPD 03/03/1962 KANUTAN 01/06 KAB. KLATEN
13553 1100457125 SURASA 03/03/1962 NGAGLIK RT.03/RW.07 KAB. SUKOHARJO
13554 1100457126 NGATIJAN,SPD 03/05/1959 KANUTAN 01/06 KAB. KLATEN
13555 1100457127 ASHADI 22/8/1966 TANJUNG SARI RT.01 RW.08 KAB. PEMALANG
13556 1100457128 USWATUN KHASANAH 10/10/1968 TANJUNGSARI RT. 01 RW. 08 KAB. PEMALANG
13557 1100457129 AHMAD SYINDID ADAM 05/08/1974 [Link] NO.10 RT.05 RW.05 KAB. PEMALANG
13558 1100457131 SITI SA'DIYAH 4/11/1982 [Link] NO.10 RT.05 RW.05 KAB. PEMALANG
13559 1100457132 ARMI 31/12/1958 CONDROMULYO 17/07 KAB. MAGELANG
13560 1100457133 MULYANI 12/06/1968 NGAGLIK RT.03/RW.07 KAB. SUKOHARJO
13561 1100457134 YAYUK ALFA BARIYYAH 23/03/1979 [Link] NO.10 RT.05 RW.05 KAB. PEMALANG
13562 1100457135 MENUK NUDIYATI TSUROYAH 04/10/1975 JL. KH. SAMANHUDI NO. 21 RT. 05 RW. 06 KAB. PEMALANG
13563 1100457136 TEGUH SUPRIYANTO 3/3/1978 JL. SAMANHUDI NO.21 RT.05 RW.06 KAB. PEMALANG
NO NO. PORSI NAMA TANGGAL LAHIR ALAMAT KAB/KOTA KETERANGAN
13564 1100457139 [Link] MAKIN 16/10/1985 [Link] NO.10 RT.05 RW.05 KAB. PEMALANG
13565 1100457140 MARYONO 08/08/1959 JABAN RT.02 RW.4 KAB. WONOGIRI
13566 1100457141 ELY UMMU HAWA 12/07/1984 JL. PROGO NO. 10 RT. 05 RW. 05 KAB. PEMALANG
13567 1100457142 SRI NURHAYATI SARASNO MUHJAHID HASAN 04/06/1972 DS. SEMBIR KADIPATEN RT 01/01 PREMBUN KAB. KEBUMEN
13568 1100457143 SUNARTO AMAT MAROJI 02/05/1964 SEMBIRKADIPATEN RT.01/01 KAB. KEBUMEN
13569 1100457144 SITI MARYAM 28/04/1974 BABAD 4 30/14 KAB. KLATEN
13570 1100457146 NUR SALIM 25/08/1972 BABAD 4 30/14 KAB. KLATEN
13571 1100457147 MURNI SAEROJI SITI ROMLAH 01/07/1960 KAYEN 5/8 KAYEN KAB. PATI
13572 1100457149 SALIYEM 25/7/1959 DK LEDOK RT 01/06 KAB. SUKOHARJO
13573 1100457150 HARJONO 16/11/1977 [Link] SARTIKA BARAT IV/7 RT.03/03 KOTA SEMARANG
13574 1100457151 HERLINA 19/12/1977 JL. DEWI SARTIKA BARAT IV /7 RT.03/03 KOTA SEMARANG
13575 1100457154 DAIMAH 21/10/1964 WANADRI RT 003 RW 001 KAB. BANJARNEGARA
13576 1100457155 INDRA NAROTAMA JOKO PURWANTO 05/05/1987 MLATI NOROWITO RT 04 RW 02 KAB. KUDUS
13577 1100457156 DAHRONI ABU SARI 04/04/1960 TELUK WETAN 10/02 KAB. JEPARA
13578 1100457157 HENDY ARYO ARDHIANTORO 16/05/1989 BUMI WANAMUKTI [Link]/7 RT.04/04 KOTA SEMARANG
13579 1100457158 SITI KHOTIMAH SUMAM 11/4/1969 BUGEL 08/03 KAB. JEPARA
13580 1100457159 SUTRIYAH 13/11/1964 KOROWELANGKULON RT.07/RW.02 KAB. KENDAL
13581 1100457160 KASMUI KASDI SEMIDIN 07/03/1962 BUGEL 08/03 KAB. JEPARA
13582 1100457161 NUR KHOLILAH SANAZI 06/12/1960 BUGEL RT.016/004 KAB. JEPARA
13583 1100457163 HENI PUSPITASARI NOOR CHOLIS 17/6/1986 MLATI NOROWITO RT 04 RW 02 KAB. KUDUS
13584 1100457165 ENI MUJIBATUN 12/10/1974 DUNGDANG RT 02 KAB. SRAGEN
13585 1100457167 SRI YATUN 03/11/1970 BORO RT 007 / RW 002 KAB. SRAGEN
13586 1100457170 ST ASKARIJAH 4/3/1959 SAPEN RT 24 KAB. SRAGEN
13587 1100457172 PURNOMO 10/10/1961 NGUNUT RT 21/09 KAB. SRAGEN
13588 1100457173 SRIYATUN 05/07/1965 NGUNUT RT 21/09 KAB. SRAGEN
13589 1100457175 ZAENAL ABIDIN 27/04/1968 KENJER RT 002 RW 006 KERTEK KAB. WONOSOBO
13590 1100457176 SRI SUWARNI 14/01/1962 TUNGGUL RT 11 KAB. SRAGEN
13591 1100457179 ISTIYARSIH 22/02/1966 CONDONG, RT.01/RW.03 KAB. TEMANGGUNG
13592 1100457181 TITIK MULYANINGSIH 21/08/1959 [Link] HUSADA PERMAI L.06 03/10 KAB. KLATEN
13593 1100457183 SRI WIDODO SP 29/09/1970 DONOSUTAN RT 14 KAB. SRAGEN
13594 1100457184 ANNA LUSIANA [Link] 17/01/1971 DONOSUTAN RT 14 KAB. SRAGEN
13595 1100457186 SUTIYONO 13/08/1965 METESEH 01/05 KAB. MAGELANG
13596 1100457187 ASROFAH MASWAN JAMASRI 19/06/1975 HONGGOSOCO RT 01 RW 05 KAB. KUDUS
13597 1100457188 SUPIYATUN 20/02/1965 METESEH RT. 02/05 KAB. MAGELANG
13598 1100457189 NGATMIYANTI 06/02/1962 KEDUNGDOWO RT 05 KAB. SRAGEN
13599 1100457190 SLAMET MUHTADIN 18/03/1964 BULU RT.01 RW.01 KAB. PEMALANG
13600 1100457191 SETIYO UTOMO KASNIN 05/04/1970 HONGGOSOCO RT 01 RW05 KAB. KUDUS
13601 1100457193 EVI LISTIYO WATI 18/04/1976 KALIKUNING 02/02 KAB. KLATEN
13602 1100457196 MASRI'AH KASNIN SUWARNO 16/08/1966 HONGGOSOCO RT 03 RW 05 KAB. KUDUS
13603 1100457197 NUR AENI 25/08/1960 KEBAGUSAN RT.22 RW.04 KAB. PEMALANG
13604 1100457198 SHOFIATUN 21/02/1969 SIDOKUMPUL RT.07/03 KAB. DEMAK
13605 1100457200 MUSLIH AHYANI 24/04/1978 JL. SANINTEN TIMUR I/96 RT.04/17 KOTA SEMARANG
13606 1100457201 ANDRI ANSYAH 26/06/1977 WATES SANGGRAHAN RT 02 RW 06 KOTA MAGELANG
13607 1100457202 FATCHUR ROHMAN FAINDHI 03/06/1977 HONGGOSOCO RT 02 RW 05 KAB. KUDUS
13608 1100457203 DWI YULI ASTUTI 24/07/1967 BULU RT.01 RW.01 KAB. PEMALANG
13609 1100457204 AHMAD KHASAN 21/08/1964 SIDOKUMPUL RT.07/03 KAB. DEMAK
13610 1100457206 DINAR SRI INDRAYUDA 31/08/1980 WATES SANGGRAHAN RT. 02 RW. 06 KOTA MAGELANG
13611 1100457207 TARNINGSIH 23/07/1975 DUKUHTENGAH RT.05/RW.01 KETANGGUNGAN KAB. BREBES
13612 1100457208 ENDANG MURWATI SUTARWI 10/05/1978 HONGGOSOCO RT 02 RW 05 KAB. KUDUS
13613 1100457209 SAIMAN SPD. MM 15/3/1967 JASEM RT 15 KAB. SRAGEN
13614 1100457210 SUTAPA 12/12/1969 KALIKUNING 02/02 KAB. KLATEN
13615 1100457212 KASMI SE 15/06/1966 JAASEM RT 15 KAB. SRAGEN
13616 1100457213 AFIF FABANA 10/01/1974 DUKUHTENGAH RT.05/RW.01 KETANGGUNGAN KAB. BREBES
13617 1100457215 PUSPA WINDI ASTUTI 16/09/1975 TURI BARU RT.03/RW.10 KAB. SUKOHARJO
13618 1100457216 UMAYAH 30/03/1966 SUMUR MUNDING RT.04 RW.03 KAB. PEMALANG
13619 1100457217 NOOR SULISTYOWATI SUMADI 03/05/1963 KARANGBENER RT 03 RW 06 KAB. KUDUS
13620 1100457219 RULY DWIUTAMI 23/09/1980 JL. SANINTEN TIMUR I NO. 94 RT 4 RW 17 KOTA SEMARANG
13621 1100457221 SUYAMI,DRA,[Link] 01/01/1965 DAGEN 12/04 KAB. KLATEN
13622 1100457223 WAGINI 13/07/1966 KEDUNGKARANG RT 04 RW 01 KAB. DEMAK
13623 1100457226 SYARIFUDDIN 03/01/1977 TURI BARU RT.03/RW.10 KAB. SUKOHARJO
13624 1100457227 R. SYAIFUDIN AL GHIFARI 21/08/1974 NGLABAN RT 07/02 KAB. SRAGEN
13625 1100457228 MUSTANIFAH 07/01/1963 KEDUNGKARANG RT 02 RW 01 KAB. DEMAK
13626 1100457229 KARTINAH SALAMIN SURADI 06/06/1968 CENDONO RT 03 RW 02 KAB. KUDUS
13627 1100457230 ENNY ROHMAWATI 25/05/1975 NGLABAN RT 07 KAB. SRAGEN
13628 1100457231 MUHAMMAD IBRAHIM 5/4/1982 JL. SANINTEN TIMUR I NO. 94 RT 4 RW 17 KOTA SEMARANG
13629 1100457233 SUYANTO, SPD SD 10/10/1959 PONDOKREJO RT 20 KAB. SRAGEN
13630 1100457234 SHOLIFATUN 10/09/1963 KEDUNGKARANG RT 04 RW 01 KAB. DEMAK
13631 1100457236 TRI WIDIASTUTI,IR 28/03/1965 [Link] DALAM 26 RT.06/16 KOTA SEMARANG
13632 1100457237 ZAENUDIN AHLIS IHSAN 10/02/1979 LORAM WETAN RT 03 RW 03 KAB. KUDUS
13633 1100457238 ABDUL WAHAB, IR, MT 07/01/1960 JL. KALINGGA DALAM NO. 26 RT 6 RW 16 KOTA SEMARANG
13634 1100457240 ENDANG SUPRIYATI 17/09/1963 PONDOKREJO RT 20 KAB. SRAGEN
13635 1100457241 ARIANI IKHA PALUPI 21/2/1979 JL. SANINTEN TIMUR I/96 RT.04/17 KOTA SEMARANG
13636 1100457243 LUK YATI 15/10/1976 KATONSARI RT 05 RW 03 KAB. DEMAK
13637 1100457244 KUSNO WARDOYO SP 01/05/1959 TERMAS RT 17 KAB. SRAGEN
13638 1100457245 MAHMUDI 18/04/1975 KATONSARI RT 05 RW 03 KAB. DEMAK
13639 1100457246 SUWARSIH, SPD 18/08/1960 TERMAS RT 17 KAB. SRAGEN
13640 1100457249 SRI HASTUTIK 15/02/1967 GONDANGBARU RT 14 KAB. SRAGEN
13641 1100457250 ANISSA PUTRI ANINGSIH 03/12/1996 GONDANG BARU RT 14/- GONDANG KAB. SRAGEN
13642 1100457253 UMI LATHIFAH 2/1/1995 GEGERSAPI RT 24 RW 04 GLONGGONG GONDANGKAB.
SRAGEN
SRAGEN
13643 1100457254 MARGIATI 10/10/1972 [Link] PURI ASRI RT.01 RW.21 KAB. PEMALANG
13644 1100457256 IWAN TEGUH SETIAWAN 24/03/1966 [Link] PURI ASRI RT.01 RW.21 KAB. PEMALANG
13645 1100457258 SADI 24/5/1969 WONOREJO RT 09 KAB. SRAGEN
13646 1100457259 WARTI 21/12/1974 WONOREJO RT 09 KAB. SRAGEN
13647 1100457261 EDY PRASETYO 25/10/1982 TEMULUS RT 05 RW 04 KAB. KUDUS
13648 1100457262 SLAMET SUBAGIYO 28/02/1958 KARAKAN RT 03 KAB. SRAGEN
13649 1100457263 SRI WANINGSIH [Link] 25/03/1965 JL. ELANG PGRI NO. 140 B RT. 13/18 KAB. MAGELANG
13650 1100457264 SUWANTO SANUSI KASMUIN 03/08/1966 PEDAWANG RT 01 RW 02 KAB. KUDUS
13651 1100457266 TUMINI 12/07/1970 WONOSARI RT 01/01 KAB. SRAGEN
13652 1100457267 JUMIATI MASRIKAN PAINI 16/06/1972 PEDAWANG RT 01 RW 02 KAB. KUDUS
13653 1100457269 WISONO 8/6/1966 WONOSARI RT 01 KAB. SRAGEN
13654 1100457270 ALI MAFTUH MASYKURI 30/11/1974 SIRAHAN 4/11 CLUWAK KAB. PATI
13655 1100457272 DARNI 13/12/1958 BULAKREJO RT 03 KAB. SRAGEN
13656 1100457273 KASMU 02/10/1973 KEDUNGMUTIH RT.05/03 KAB. DEMAK
13657 1100457274 IR WINDIARTO DRESTI R 05/04/1962 JL. ELANG PGRI NO.140 B RT. 13/18 KAB. MAGELANG
13658 1100457278 MOHAMAD IKSAN 11/04/1969 KEDUNGMUTIH RT.05/03 KAB. DEMAK
13659 1100457279 BADARIYAH 29/9/1961 KARANGWULUH RT. 01/02 KUTOARJO KAB. PURWOREJO
13660 1100457280 SYAIFUDIN ARIF 15/11/1962 SUMPIUH RT. 3/3 KAB. BANYUMAS
13661 1100457281 SITI AROFAH THOYIB 10/2/1979 SIRAHAN 4/11 CLUWAK KAB. PATI
13662 1100457286 PANCAWATI BUDI PRIHATININGSIH 14/11/1965 SUMPIUH RT 03 / 3 KAB. BANYUMAS
13663 1100457287 SUPARDI 05/10/1957 MENTIR RT 10 KAB. SRAGEN
13664 1100457288 SUNARTI 11/06/1964 MENTIR RT 10 KAB. SRAGEN
13665 1100457289 BUDI DIYATMIKO 28/08/1958 GATAK 05/02 KAB. KLATEN
13666 1100457290 INDIYAH KUSUMANINGSIH 21/03/1963 GATAK 05/02 KAB. KLATEN
13667 1100457294 SAHONO SURI SAKINAH 01/10/1969 SIDOMUKTI 4/2 MARGOYOSO KAB. PATI
13668 1100457295 SHOFIYAH JAMIN KARLIN 14/03/1978 SIDOMUKTI 4/2 MARGOYOSO KAB. PATI
13669 1100457297 PAISAH RESO PAIDIN 01/07/1959 LANGENHARJO 3/2 MARGOREJO KAB. PATI
13670 1100457298 ANI SOFIYAH NASUCHA 06/01/1978 LORAM W2ETAN RT 03 RW 03 KAB. KUDUS
13671 1100457299 KUCI OKTAVIANI 3/10/1979 NGADIGUNUNG, RT.02/RW.05 KAB. TEMANGGUNG
13672 1100457302 TASIRONINGSIH 10/11/1958 PRUPUK SELATAN RT.01/05 MARGASARI KAB. TEGAL
13673 1100457303 NENI DIYASTUTI 10/04/1972 KALORAN RT.02 RW.07 KAB. WONOGIRI
13674 1100457306 AGUS HASTONO 06/07/1970 KALORAN RT.02 RW.07 KAB. WONOGIRI
13675 1100457307 NURDIANTI 03/09/1963 PECABEAN RT. 15/05 PANGKAH KAB. TEGAL
13676 1100457309 SAMSUDIN 01/01/1960 PECABEAN RT. 15/05 PANGKAH KAB. TEGAL
13677 1100457310 SUGIYARTI 18/07/1965 GUNUNGAN RT.03/RW.09 KAB. SUKOHARJO
13678 1100457312 SANIATI RONO ASTRO 17/08/1957 BANDUNGHARJO 002/002 KEC. DONOROJO KAB. JEPARA
13679 1100457315 RIKA KUSUMAWATI 04/11/1976 JL CERMAI RAYA KOTA SURAKARTA
13680 1100457316 PURBO SISWO WARDOYO 27/3/1965 JL CERMAI RAYA KOTA SURAKARTA
13681 1100457317 YAMI BLUMUT 15/12/1969 NGADIGUNUNG, RT.02/RW.05 KAB. TEMANGGUNG
13682 1100457318 EKO SUPRIYONO 19/04/1977 JOMBOR RT.04 RW.07 KAB. SEMARANG
13683 1100457320 LUTFIA IMA RAHMAWATI 31/05/1979 JOMBOR RT.04 RW.07 KAB. SEMARANG
13684 1100457322 MUSLIM 28/05/1979 DSN. JO0MBOR RT.02 RW.07 KAB. SEMARANG
13685 1100457323 SRI SUSANTI 26/5/1985 DSN. JOMBOR RT.02 RW.07 KAB. SEMARANG
13686 1100457324 NANIK MASLICHAH, BA 16/10/1960 GRIYAN RT.01 RW.10 KOTA SURAKARTA
13687 1100457328 SRI NURSINGGIH 12/12/1959 MAYANGAN RT.25/09 WIRADESA KAB. PEKALONGAN
13688 1100457329 SULASIH TASMAN SASWATI 01/07/1958 PASUCEN 7/2 TRANGKIL KAB. PATI
13689 1100457330 CISWATI 09/12/1970 KARANGSARI RT.04/02 BOJONG KAB. PEKALONGAN
13690 1100457332 HERMAN NUGROHO 17/02/1958 MAYANGAN RT.25/09 WIRADESA KAB. PEKALONGAN
13691 1100457333 YULIANA SAJAKA 27/07/1976 TANON 21/08 KAB. KLATEN
NO NO. PORSI NAMA TANGGAL LAHIR ALAMAT KAB/KOTA KETERANGAN
13692 1100457334 MUKHAMMAD SAEFUDIN 26/07/1990 KARANGSARI RT 004/ RW 002, KARANGSARI, BOJONG
KAB. PEKALONGAN
13693 1100457335 HERI SUBAGIONO 04/05/1972 TANON 21/08 KAB. KLATEN
13694 1100457337 ZUBAIDI LEGIYO LEGIMAN 29/03/1969 BLINGOH RT.010/003 [Link] KAB. JEPARA
13695 1100457338 YULI PRASETYANI 23/07/1969 KEMIRIOMBO RT 13 RW 02 KAB. WONOSOBO
13696 1100457339 MAHMUDAH MASHUR MATWASIL 14/07/1972 BLINGOH RT.010/003 [Link] KAB. JEPARA
13697 1100457340 MOCH MASDUKI 14/01/1965 KEMBANGLAMPIR RT 02 RW 03 KAB. BOYOLALI
13698 1100457341 ASNGARI 30/8/1966 KEMIRIOMBO RT 13 RW 02 KAB. WONOSOBO
13699 1100457344 SITI SURINI DASIR 31/12/1962 TLOGOREJO 5/1 WINONG KAB. PATI
13700 1100457347 SUPRIYONO 14/5/1970 PLUMUTAN RT 06 RW 01 KAB. BOYOLALI
13701 1100457349 SRI BUDI RETNANINGSIH 15/11/1967 PLUMUTAN RT 06 RW 01 KAB. BOYOLALI
13702 1100457350 SUPRIYATIN WIDODO SOEDARMO 06/04/1969 TINGKIR HATI BERIMAN NO.15 RT 03 RW 07 KOTA SALATIGA
13703 1100457352 TATIK UMUL SUNIYATI 09/04/1959 MARGOMULYO RT 13 KAB. SRAGEN
13704 1100457353 ENDANG SUCIATI SOEGIYO 15/02/1968 TINGKIR HATI BERIMAN NO.15 RT 03 RW 07 KOTA SALATIGA
13705 1100457354 NURSIWI SRI BAGIYANTI 12/04/1966 [Link] KULON 49 SKRJ TNGH RT.2/4 KAB. BANYUMAS
13706 1100457355 SANUJI 9/5/1961 JL. KENANGA I RT.12 RW.02 REJOSARI KAB. SEMARANG
13707 1100457357 SAHRONI 12/10/1970 PENDOWO RT.05 RW.05 KAB. PEMALANG
13708 1100457358 IMROH 10/05/1964 JL. KENANGA I RT.12 RW.02 REJOSARI KAB. SEMARANG
13709 1100457359 MUYASAROH 05/11/1975 PENDOWO RT.05 RW.05 KAB. PEMALANG
13710 1100457360 NURWAHYUDI, [Link] 05/05/1960 KALIJAMBU RT.03/02 BOJONG KAB. TEGAL
13711 1100457362 SUMROH ANIZAH 27/06/1966 KALIJAMBU RT. 03/02 BOJONG KAB. TEGAL
13712 1100457364 BUNIYAH 23/07/1965 [Link] KOTA RT.02/09 KESESI KAB. PEKALONGAN
13713 1100457365 BUDIYONO 24/04/1959 JL. GRINSING VIII/06 RT.06/02 KOTA SEMARANG
13714 1100457366 SUWADI 21/02/1973 [Link] RT.05/03 KARANGANYAR KAB. PEKALONGAN
13715 1100457367 ROKHIDIN 07/02/1972 CIMOHONG RT.02/03 BULAKAMBA KAB. BREBES
13716 1100457368 NUR SUSANTI 26/05/1971 CIMOHONG RT.02/03 BULAKAMBA KAB. BREBES
13717 1100457369 AMIROH 05/02/1986 [Link] RT.05/03 KARANGANYAR KAB. PEKALONGAN
13718 1100457370 RACHMAD SETIJADI 30/01/1968 [Link] INDAH B2/37 RT 2/10 SKNEGARA KAB. BANYUMAS
13719 1100457371 NIKEN ERI WINARTI 24/4/1977 WANTILAN 12/05 KAB. KLATEN
13720 1100457373 DINA ELFANITA 24/12/1969 [Link] INDAH B.2 NO.37 RT. 2/X SKNGR KAB. BANYUMAS
13721 1100457374 MADAJI 01/01/1982 [Link] RT.02/01 GUTOMO KARANGANYAR KAB. PEKALONGAN
13722 1100457376 TRIYANTO 08/05/1972 WANTILAN 12/05 KAB. KLATEN
13723 1100457377 NADIA PUSPITANTI 14/01/1984 [Link] RT.02/01 GUTOMO KARANGANYAR KAB. PEKALONGAN
13724 1100457380 SRI SUPADMI 05/12/1957 PULEREJO RT 08 RW 01 KAB. BOYOLALI
13725 1100457382 WIDI SULISTIANI 1/6/1964 JLN. CENDRAWASIH RT.05 RW. 08 KAB. CILACAP
13726 1100457383 WINARNI 22/10/1967 JL. PALMERAH I NO.55 RT.06 RW.12 KAB. SEMARANG
13727 1100457384 HARTATI 3/10/1961 KETITANG 17/06 KAB. KLATEN
13728 1100457385 WAHYU JATMIKO 13/11/1963 JLN. CENDRAWASIH RT. 05 RW. 08 KAB. CILACAP
13729 1100457386 MUCHOTOB 10/11/1961 JOJOGAN RT 04 RW 02 KAB. WONOSOBO
13730 1100457388 AZIZAHTUN NAVIAH 31/8/2000 KARANG BENDO RT 16/04 KRIKILAN MASARAN KAB. SRAGEN
13731 1100457391 HARTIYEM 31/12/1965 [Link] RT.08/02 KOTA SEMARANG
13732 1100457392 SUGIYONO 26/08/1960 JL. PALMERAH I NO.55 RT.05 RW. 12 KAB. SEMARANG
13733 1100457393 AGUNG WINARNO 13/04/1979 WONOBOYO 04/02 KAB. GROBOGAN
13734 1100457394 SUTIMAH 01/07/1966 JOJOGAN RT 04 RW 02 KAB. WONOSOBO
13735 1100457395 UMI NUGROHOWATI 23/01/1965 JL. CANDI PAWON TIMUR NO. 36 RT.07/07 KOTA SEMARANG
13736 1100457397 MASMUAH 02/11/1960 SEMBUNGHARJO RT.08/02 KOTA SEMARANG
13737 1100457398 CHODRI MUSTAQIM SPD 10/7/1982 NGARINGREJO RT 02 KAB. SRAGEN
13738 1100457401 ANA MARATUL HASANAH 24/10/1984 NGARINGREJO RT 02/01 KAB. SRAGEN
13739 1100457402 DARONI WIDJIATMO 11/8/1957 GETASARI RT 01 RW 02 KAB. BOYOLALI
13740 1100457405 RISTIYATI ACHMATIN BAWI 18/12/1962 JEPANG RT 03 RW 08 KAB. KUDUS
13741 1100457406 SAMIYEM 12/05/1958 NGARINGREJO RT 02/01 KAB. SRAGEN
13742 1100457407 DARYATI 12/08/1959 GETASARI RT 01 RW 02 KAB. BOYOLALI
13743 1100457409 MUNISIH DJAMHARI AB MOIN 20/08/1960 MEDINI RT 01 RW 04 KAB. KUDUS
13744 1100457410 MARYATUN 1/3/1964 NGARINGREJO RT 02 KAB. SRAGEN
13745 1100457411 WIDHY UTOMO MUNADI 24/10/1957 MEDINI RT 01 RW 04MEDINI KAB. KUDUS
13746 1100457412 ALI AMIRRUDIN AHMAD 4/7/1992 NGARINGREJO RT 02 KAB. SRAGEN
13747 1100457413 AYU MASRUROH 15/12/2000 NGARINGREJO RT 02 KAB. SRAGEN
13748 1100457415 MUFADILAN 17/5/1962 JLMLIWIS 1 NO.11 RT.07 RW.2 KAB. CILACAP
13749 1100457418 SRI BADRIYATI SUPARMAN 31/12/1958 PANJUNAN RT 01 RW 01 KAB. KUDUS
13750 1100457420 MUTMAINAH 26/3/1967 TROMBOL RT 25 KAB. SRAGEN
13751 1100457422 ARDIANA DWIE ANANTI 14/11/1973 JL. MLIWIS1 NO.11 RT.07 RW.02 KAB. CILACAP
13752 1100457423 DWI NUGROHO RISTRIATMANTO,ST 23/12/1988 GONDANGBARU RT 16 KAB. SRAGEN
13753 1100457425 TRININGSIH SUKRESNAWATI 26/02/1960 GONDANGBARU RT 16 KAB. SRAGEN
13754 1100457426 PURWATMO KRISTIYANTO, ST 10/4/1985 GONDANGBARU RT 16 KAB. SRAGEN
13755 1100457427 MUJIONO 31/12/1961 GOKETEN RT 19/05 KAB. SRAGEN
13756 1100457428 SARITI 3/1/1962 PEMARON RT.02/04 BREBES KAB. BREBES
13757 1100457429 WALIYEM 31/12/1963 GOKETEN RT 19/05 KAB. SRAGEN
13758 1100457430 LASTOTO 09/05/1959 REJOWINANGUN RT 17/06 KAB. SRAGEN
13759 1100457432 YUNI ISNAWATI 28/06/1966 REJOWINANGUN RT 17/06 KAB. SRAGEN
13760 1100457436 SUWARTI 03/06/1960 KEDUNGDOWO RT 02 KAB. SRAGEN
13761 1100457437 SITI ZAFROTIN MOCH SHOLIKHIN 17/06/1964 JEKULO RT 01 RW 04 KAB. KUDUS
13762 1100457439 ARWAN ASKAN KUSNADI 06/06/1964 JEKULO RT 01 RW 04 KAB. KUDUS
13763 1100457441 ABDUL MUTHOLIB 26/6/1963 PENGIN RT. 02/02 KAB. SUKOHARJO
13764 1100457443 IDA MARIANI ASIH 13/12/1965 PENGIN RT.02/RW.02 KAB. SUKOHARJO
13765 1100457446 SUNGKONO SAMIAN NGASIJAN 15/06/1963 KERJASAN RT 02 RW 02 KAB. KUDUS
13766 1100457448 BAGUS SADEWO 10/02/1996 SIDOMULYO RT 47/14 SRAGEN WETAN KAB. SRAGEN
13767 1100457450 RAHARJO 13/09/1978 PAJANGAN 03/04 KAB. KLATEN
13768 1100457451 DIAH PUSPITASARI 30/08/1970 JL. ABABIL INDAH I NO.12 RT.10 RW.10 KOTA TEGAL
13769 1100457453 ENIE PURWANDARI 09/10/1977 PRIGI RT 001 RW 001 KAB. BANJARNEGARA
13770 1100457456 SUKINAH 02/02/1960 PRIGI RT 001 RW 001 KAB. BANJARNEGARA
13771 1100457457 SUPRATMAN 19/9/1965 JL. ABABIL INDAH I NO.12 RT.10 RW.10 KOTA TEGAL
13772 1100457458 NOK ASWIN 26/11/1957 SANTREN 33 RT. 02/09 KAB. MAGELANG
13773 1100457460 MOH PAKURROJI 19/12/1976 DSN PAMUTIHAN RT. 13 RW. 03 KAB. PEMALANG
13774 1100457462 WAKINI 05/04/1963 BANTENGAN RT 02 RW 03 KAB. BOYOLALI
13775 1100457464 PARYATI 03/01/1967 KEMAWI RT 2 /RW 3 KAB. BANYUMAS
13776 1100457465 DWI AGUS RIYANTI 17/8/1958 DS. TAMANWINANGUN RT 01/10 KEBUMEN KAB. KEBUMEN
JEMAAH CADANGAN
NO NO. PORSI NAMA TANGGAL LAHIR ALAMAT KAB/KOTA KETERANGAN
1 1100457468 TOYIB 21/10/1963 KLUWAK RT.04 RW.04 KAB. KENDAL CADANGAN
2 1100457470 NGATIJAH 1/1/1966 LUWAK RT.04 RW.04 KAB. KENDAL CADANGAN
3 1100457471 FUAD SIDIQ 1/11/1989 KALICEBONG RT 006 RW 003 KAB. BOYOLALI CADANGAN
4 1100457476 SUKINAH 15/6/1961 KOPEN RT.01/RW.07 KAB. SUKOHARJO CADANGAN
5 1100457477 IRBAH FATIN ARISKA 19/1/1996 RENGASPWNDAWA RT.11/02 LARANGAN KAB. BREBES CADANGAN
6 1100457478 SITI ZUMAROH ZAWAWI 25/11/1974 BULUMANIS KIDUL 3/4 MARGOYOSO KAB. PATI CADANGAN
7 1100457480 SUYUTI NGARNO SARINAH 20/4/1972 BULUMANIS KIDUL 3/4 MARGOYOSO KAB. PATI CADANGAN
8 1100457481 MURYANI 8/5/1964 BULUKERTO RT 11 RW 02 KAB. BOYOLALI CADANGAN
9 1100457482 NURUL RIZQI ARFIAN 21/1/1991 RENGASPENDAWA RT.11/02 LARANGAN KAB. BREBES CADANGAN
10 1100457483 SUBCHAN SUDJUDI, SE 5/7/1967 WONODRI SENDANG III/13 RT.02/05 KOTA SEMARANG CADANGAN
11 1100457484 SITI KABSAH 11/4/1961 DUSUN KESATRIAN RT.01/RW.03 KAB. KENDAL CADANGAN
12 1100457485 SUGENG PRIYATNO 10/11/1972 KALIORI RT 02 / 02 KAB. BANYUMAS CADANGAN
13 1100457486 JAMIL 30/11/1960 KALICEBONG RT 06 RW 03 KAB. BOYOLALI CADANGAN
14 1100457487 ANISAH 16/4/1978 KARANG KIMPUL RT.08/01 KOTA SEMARANG CADANGAN
15 1100457488 SUPARLAN 25/1/1958 KACANGAN RT 04 RW 01 KAB. BOYOLALI CADANGAN
16 1100457489 AHMAD KHASANI 29/1/1975 KARANGKIMPUL RT.08/01 KOTA SEMARANG CADANGAN
17 1100457490 MULYANI 12/5/1964 KACANGAN RT 04 RW 01 KAB. BOYOLALI CADANGAN
18 1100457492 S. ANIK INDRAYATI, DR 17/9/1967 WONODRI SENDANG III/13 RT.02/05 KOTA SEMARANG CADANGAN
19 1100457494 ALI SHODIQIN 24/12/1967 [Link] INDAH RT.003/001 KETITANG GODONGKAB. GROBOGAN CADANGAN
20 1100457495 SUPRAPTI 24/2/1965 TAMBAHREJO RT.02 RW.01 KAB. BATANG CADANGAN
21 1100457496 ACHMAD SOLIKIN 20/3/1965 MLATI 04/01 KAB. GROBOGAN CADANGAN
22 1100457498 SIHWATI,SE 10/5/1965 MERANTI RAYA NO.14 RT.04/15 KOTA SEMARANG CADANGAN
23 1100457499 WARSIYEM 16/2/1964 PERUM KORPRI BLOK [Link]/7 RT.05/06 KOTA SEMARANG CADANGAN
24 1100457500 ANIS FITRIYANI 13/9/1981 MLATI 04/01 KAB. GROBOGAN CADANGAN
25 1100457501 DIKIN 20/8/1962 MANGLI RT. 01 RW. 01 KAB. PEMALANG CADANGAN
26 1100457502 LESTIYO BUDIHARJO,IR 9/8/1962 MERANTI RAYA NO.14 RT.04/15 KOTA SEMARANG CADANGAN
27 1100457503 SITI MULYATI 12/12/1963 MANGLI RT. 01 RW. 01 KAB. PEMALANG CADANGAN
28 1100457504 SITI SOLIKHAH KHOLIL 10/11/1976 NGELING RT.004/006 KAB. JEPARA CADANGAN
29 1100457506 PAIRAN SURAWI NGONGADI 17/12/1969 NGELING 04/06 KAB. JEPARA CADANGAN
30 1100457507 ARIFIN HERI PRASETYO 30/9/1979 PERUM BUKIT SEJAHTERA BLOK BP-02 RT 014 / RW
KAB.
004BLORA CADANGAN
31 1100457508 SUBEKTI 26/7/1965 KP. ANYAR RT.01/RW.08 KAB. KENDAL CADANGAN
32 1100457510 APRILIAN MISBAKHUL JIHAD 13/4/1996 KP. ANYAR RT.01/RW.08 KAB. KENDAL CADANGAN
33 1100457512 MARDIATUL KHIBTIYAH 8/11/1968 KP. ANYAR RT.01/RW.08 KAB. KENDAL CADANGAN
34 1100457514 WARSIYEM 12/12/1963 PULOGENDOL 03/03 KAB. GROBOGAN CADANGAN
35 1100457516 MASKUROH 14/5/1962 KP. ANYAR RT.01/RW.08 KAB. KENDAL CADANGAN
36 1100457517 KUNANTO SUGITO SADILAH 2/5/1970 JAMBEAN KIDUL 07/04 MARGOREJO KAB. PATI CADANGAN
37 1100457519 ESTI WIDODO 14/10/1977 PRIGI RT 001 RW 001 KAB. BANJARNEGARA CADANGAN
38 1100457520 SRI HARTIWIN SUDJITO 6/6/1974 JAMBEAN KIDUL 7/4 MARGOREJO KAB. PATI CADANGAN
39 1100457521 SRI HARTATIK NGASILAN 18/8/1959 TASIKHARJO RT 002 RW 001 KALIORI KAB. REMBANG CADANGAN
NO NO. PORSI NAMA TANGGAL LAHIR ALAMAT KAB/KOTA KETERANGAN
40 1100457524 WAHYU NUGROHO 2/2/1961 PALUR WETAN RT,01/RW.04 KAB. SUKOHARJO CADANGAN
41 1100457525 SUYONO 9/5/1958 KRAMALAN SELATAN RT.05 RW.06 KAB. BATANG CADANGAN
42 1100457526 ROBIAH 12/4/1960 DK. NGAMPON RT.08/RW.04 KAB. KENDAL CADANGAN
43 1100457527 SRI SUNARSIH 2/3/1967 KRAMALAN SELATAN RT.05 RW.06 KAB. BATANG CADANGAN
44 1100457528 SRI AGUSTINA BUDININGSIH 19/8/1961 PALUR WETAN RT.01/RW.04 KAB. SUKOHARJO CADANGAN
45 1100457530 LISDIANAWATI 7/5/1992 KRAMALAN SELATAN RT.05 RW.06 KAB. BATANG CADANGAN
46 1100457532 [Link] 3/3/1962 WONOREJO RT.02 RW.04 KAB. KENDAL CADANGAN
47 1100457533 RISKA NESA SETIAWAN 11/6/1995 KRAMALAN SELATAN RT.05 RW.06 KAB. BATANG CADANGAN
48 1100457535 ROCHMAD SODIKIN 8/12/1982 DESA KUMPULREJO RT.03/RW.03 KAB. KENDAL CADANGAN
49 1100457537 RISKI INDO RAHARJO 11/6/1995 KRAMALAN SELATAN RT.05 RW.06 KAB. BATANG CADANGAN
50 1100457538 NUR AINI 8/8/1968 WONOREJO RT.02 RW.04 KAB. KENDAL CADANGAN
51 1100457539 MAHSUN 25/5/1963 GRINGSING RT.01 RW.05 KAB. BATANG CADANGAN
52 1100457540 MILKHATUN 27/4/1970 [Link] RT.04 RW.05 KAB. PEMALANG CADANGAN
53 1100457541 IMKANAH 28/5/1968 GRINGSING RT.01 RW.05 KAB. BATANG CADANGAN
54 1100457542 KASMURAH 1/7/1958 SENGON RT.03 RW.03 KAB. BATANG CADANGAN
55 1100457544 TOTOK WIDIARTO 8/3/1972 JL. HASANUDIN NO.21 RT 05/02 PUTATAN KAB. SRAGEN CADANGAN
56 1100457547 TRI ASIH 30/4/1974 [Link] NO. 21 RT 05/02 PUTATAN KAB. SRAGEN CADANGAN
57 1100457548 MA'SUMAH MOCHAMAD DAMIRI 19/11/1958 ADIKARSO RT.01/05 KAB. KEBUMEN CADANGAN
58 1100457551 SARIFUDIN 2/3/1966 KALISALAK RT 01 RW 06 KAB. BANYUMAS CADANGAN
59 1100457552 SITI SUWARNI 22/9/1962 MENDUNGAN RT19/08 KAB. SRAGEN CADANGAN
60 1100457553 UMI HANI 10/11/1975 KALISALAK RT 01 RW 06 KAB. BANYUMAS CADANGAN
61 1100457554 SRI HARWATI , SPD 31/12/1957 JANGKUNGAN 14/06 KAB. MAGELANG CADANGAN
62 1100457556 SITI MUSLIKHAH 10/9/1959 BLAMBANGAN RT 004 RW 002 KAB. BANJARNEGARA CADANGAN
63 1100457557 PARYONO 23/2/1964 GUNUNGGIANA RT 003 RW 004 KAB. BANJARNEGARA CADANGAN
64 1100457558 AHMAD SUYUDI 9/7/1975 BLITAR RT 001 RW 002 KAB. BANJARNEGARA CADANGAN
65 1100457559 UNING WINARTI 3/7/1984 BLITAR RT 001 RW 002 KAB. BANJARNEGARA CADANGAN
66 1100457560 SISWO 14/12/1960 KEDUNGWARU 01/02 KAB. GROBOGAN CADANGAN
67 1100457561 SUPARMI 26/11/1965 KEDUNGWARU 01/02 KAB. GROBOGAN CADANGAN
68 1100457562 SUTEDJO 16/7/1958 CITRO MANGGISAN 07/02 KAB. MAGELANG CADANGAN
69 1100457564 SITI RUFIATUN ABDUL GHONI 25/10/1965 GENENG 18/03 KAB. JEPARA CADANGAN
70 1100457566 SUPRAPTI 3/9/1959 SIRKANDI RT 006 RW 003 KAB. BANJARNEGARA CADANGAN
71 1100457567 RULIONO SUTARMO M. SUDIRMAN 3/8/1960 GARUNG LOR RT 01 RW 03 KAB. KUDUS CADANGAN
72 1100457570 SURATMAN 7/2/1966 SUMBEREJO RT 004 RW 002 KAB. BANJARNEGARA CADANGAN
73 1100457571 HAYU MARDIYANTI CITY 31/12/1995 GENENG 09/02 KAB. JEPARA CADANGAN
74 1100457572 SULISTYOWATI SURATNO WONGSO HERMAN 18/4/1966 GARUNG LOR RT01 RW 03 KAB. KUDUS CADANGAN
75 1100457574 AHMAD FAISHOL TUNARDI 16/7/1960 GENENG 18/03 KAB. JEPARA CADANGAN
76 1100457578 SITI PARINI 2/6/1958 PANTIREJO RT. 02/03 KAB. SUKOHARJO CADANGAN
77 1100457579 BADRIYAH 22/1/1977 SUMBEREJO RT 004 RW 002 KAB. BANJARNEGARA CADANGAN
78 1100457582 SLAMET UMARSONO 5/8/1962 TURI REJO RT 01/10 KAB. SRAGEN CADANGAN
79 1100457584 SRI HARSINI 8/11/1964 TURIREJO RT 01/10 KAB. SRAGEN CADANGAN
80 1100457585 SITI CHOMISAH 29/3/1973 JL. RAYA SLARANG RT.02 RW.12 KAB. CILACAP CADANGAN
81 1100457586 GIYARNI JARIYO SAINI 1/7/1959 PAGERHARJO 02/02 WEDARIJAKSA KAB. PATI CADANGAN
82 1100457587 ARMEDIANTO DWI WIBOWO 13/3/1966 JL. RAYA SLARANG RT.02 RW.12 KAB. CILACAP CADANGAN
83 1100457590 WIROAH 28/2/1959 TEGALGLAGAH RT.02/02 BULAKAMBA KAB. BREBES CADANGAN
84 1100457591 SAMINANTO,SPD 4/6/1972 [Link] NGALIYAN II/56 RT.10/03 KOTA SEMARANG CADANGAN
85 1100457593 MASNURI 21/10/1957 TEGALGLAGAH RT.02/02 BULAKAMBA KAB. BREBES CADANGAN
86 1100457594 SRI REJEKI,SPD 19/5/1973 [Link] NGALIYAN II/56 RT.10/03 KOTA SEMARANG CADANGAN
87 1100457596 MUHAMMAD ABDILLAH WIRAWAN 25/5/1989 [Link] RT.04 RW.03 KAB. PEMALANG CADANGAN
88 1100457599 RUMIYATI NINGSIH 13/3/1960 SUMPET RT 02 RW 01 KAB. WONOSOBO CADANGAN
89 1100457601 SUNARWAN,DRS 26/3/1966 BULUREJO 01/02 KAB. KLATEN CADANGAN
90 1100457604 YUSUP TAUZIRI 1/9/1961 GANGGAWANG RT.04/01 SALEM KAB. BREBES CADANGAN
91 1100457606 AINI RAHMAWATI 26/1/1979 GANG SELO PUCANGREJO RT.02/RW.04 KAB. KENDAL CADANGAN
92 1100457608 DWI WAHYUNI SIWI HASTUTI 26/6/1970 BULUREJO 01/02 KAB. KLATEN CADANGAN
93 1100457609 PARTIWI 12/7/1959 SARANGAN RT. 04 RW. 03 KAB. PEMALANG CADANGAN
94 1100457611 SULIKHAN ABDUL GHONI 28/12/1959 GENENG 09/02 KAB. JEPARA CADANGAN
95 1100457614 MASDUKI 16/5/1973 GANG SELO PUCANGREJO RT.02/RW.04 KAB. KENDAL CADANGAN
96 1100457616 SULISTINAH 15/5/1973 JL. RAYA PANICAN RT 05 RW 02 KAB. PURBALINGGA CADANGAN
97 1100457617 WAROH 5/7/1973 GANGGAWANG RT.04/01 SALEM KAB. BREBES CADANGAN
98 1100457619 DWI BAMBANG HERMAWAN 22/6/1985 GENENG 09/02 KAB. JEPARA CADANGAN
99 1100457620 SUTINAH 15/7/1958 BOGOSARI RT.03/06 KAB. DEMAK CADANGAN
100 1100457621 KABUL 12/5/1965 BOGOSARI RT.03/06 KAB. DEMAK CADANGAN
101 1100457622 NUNUNG ULISTIONO 18/9/1974 JL. RAYA PANICAN RT 05 RW 02 KAB. PURBALINGGA CADANGAN
102 1100457629 SUPIYAH KARTO KARWI 13/12/1963 MINTOBASUKI 01/01 GABUS KAB. PATI CADANGAN
103 1100457630 AGUS WINYARTO LASNO 19/8/1983 MINTOBASUKI 01/01 GABUS KAB. PATI CADANGAN
104 1100457631 ALI MUSYAFAK 5/2/1962 GRIYA PRAJA MUKTI BLOK H.1 RT.04/RW.07 KAB. KENDAL CADANGAN
105 1100457632 FEBRIANA SIWI RAHAYU 23/2/1974 GARUNG RT 01 RW 01 KAB. WONOSOBO CADANGAN
106 1100457633 RIDWAN 21/2/1966 DUKUHMAJA RT.01/01 SONGGOM KAB. BREBES CADANGAN
107 1100457635 MACHFIYAH 12/1/1968 DUKUH MAJA RT.01/01 SONGGOM KAB. BREBES CADANGAN
108 1100457636 C ISMARYASTUTI,SE 15/8/1969 [Link] PRASETYA UTARA VI/159 RT.05/03 KOTA SEMARANG CADANGAN
109 1100457637 PUJIYONO, [Link] 5/7/1969 JL SAPTAPRASETYA UTR VI NO 159 RT 5 RW 3 KOTA SEMARANG CADANGAN
110 1100457638 MISKIYEM 28/10/1959 PUCANG RT 003 RW 009 KAB. BANJARNEGARA CADANGAN
111 1100457640 SUMALI SUDARTO MOHAMAD SAYUTI 28/7/1966 BLATER RT.02/01 KAB. KEBUMEN CADANGAN
112 1100457641 IKAH 3/6/1976 JL . KANGURU NO. 03 RT. 03 RW. 05 KAB. CILACAP CADANGAN
113 1100457642 NASILAH DULWAHID MADIDRIS 27/11/1967 BLATER RT. 02. 01 PONCOWARNO KAB. KEBUMEN CADANGAN
114 1100457645 SAKINAH DULWAKHID MAD IDRIS 17/12/1960 BLATER RT.02/01 KAB. KEBUMEN CADANGAN
115 1100457647 WIJI HASTUTI 21/5/1968 JL. PUCANGGADING RAYA NO.79 RT.09/12 KAB. DEMAK CADANGAN
116 1100457649 MANGESTI AGUNG PRAPTANTI 6/4/1976 KLEGENWONOSARI RT.03/04 KAB. KEBUMEN CADANGAN
117 1100457650 SITI ROCHYATI, [Link] 21/10/1970 JL. LUWUNGSRI RT.01/01 BUMIHARJA KAB. TEGAL CADANGAN
118 1100457651 BUTSIAWAN MOYOHARJONO MUDJIJONO 14/12/1974 KLEGENWONOSARI RT. 03. 04 KAB. KEBUMEN CADANGAN
119 1100457653 WACHRODIN, [Link] 20/3/1971 JL. LUWUNGSRI RT.01/01 BUMIHARJA KAB. TEGAL CADANGAN
120 1100457654 WASISTO PRI UTOMO 15/5/1971 SIMBANGKULON BLOK 4 GG.2 RT.11/04 BUARAN KAB. PEKALONGAN CADANGAN
121 1100457657 SAIDAH 4/7/1974 SIMBANGKULON BLOK 4 GG.2 RT.11/04 BUARAN KAB. PEKALONGAN CADANGAN
122 1100457659 MASRUR 5/9/1967 KRADENAN GG. 9 RT. 2 RW. 7 KOTA PEKALONGAN CADANGAN
123 1100457660 RAINYAH 7/5/1960 JETAK NO.23 RT. 03/07 SIRAMPOG KAB. BREBES CADANGAN
124 1100457661 IMAROTUN NAFISAH 28/9/1979 KRADENAN GG. 9 RT. 2 RW. 7 KOTA PEKALONGAN CADANGAN
125 1100457662 ABDULLAH 1/6/1963 KERTIJAYAN GG. 6 RT.17/06 BUARAN KAB. PEKALONGAN CADANGAN
126 1100457663 SA'IROH 1/6/1970 KERTIJAYAN GG.6 RT.17/06 BUARAN KAB. PEKALONGAN CADANGAN
127 1100457664 ALI MUKTAR SUKIRJO 4/9/1965 WIROGATEN RT. 06. 01 KAB. KEBUMEN CADANGAN
128 1100457665 SUNAICHAH MUFID SUKARDJI 27/9/1962 PADURENAN RT 04 RW 02 KAB. KUDUS CADANGAN
129 1100457666 KUNTI ROBIKHAH 1/1/1980 JL. DR. WAHIDIN NO.34 RT.02 RW.01 KOTA SURAKARTA CADANGAN
130 1100457667 AGUS MA'ARIF 10/5/1979 JL. DR. WAHIDIN NO.34 RT.02 RW.01 KOTA SURAKARTA CADANGAN
131 1100457668 SUPARTI SOLIKIN SANWARNO 10/1/1971 DS.. WIROGATEN RT 06/01 MIRIT KAB. KEBUMEN CADANGAN
132 1100457672 ANDI SETIYA CAHYA IJAYA 24/1/1979 Candi Asri I KAB. SRAGEN CADANGAN
133 1100457676 EKO SUGIYANTO 23/5/1982 MOJOSONGO RT 04 RW 09 KOTA SURAKARTA CADANGAN
134 1100457677 WAHONO 1/4/1960 JL. PERINTIS KEMERDEKAAN NO.42 RT.2/12 KAB. CILACAP CADANGAN
135 1100457678 SRI WIYATI 5/2/1963 DANARAJA RT 001 RW 007 KAB. BANJARNEGARA CADANGAN
136 1100457679 EMRY KARNILA 14/1/1981 PLIKEN RT. 5/5 KAB. BANYUMAS CADANGAN
137 1100457680 SARIMAN 5/11/1963 KALIURIP RT 01/02 KAB. PURWOREJO CADANGAN
138 1100457681 WAKHIDAH 24/10/1973 KALIURIP RT 01/02 KAB. PURWOREJO CADANGAN
139 1100457682 RISMAWAN BURI SUKMA 23/3/1981 PLIKEN RT 5 /5 KAB. BANYUMAS CADANGAN
140 1100457683 ROQHIB 7/10/1962 GUNUNGMULYO RT 004 RW 001 SARANG KAB. REMBANG CADANGAN
141 1100457684 BADERUZZAMAN 5/10/1982 LEBAK RT. 02/02 BRINGIN KAB. SEMARANG CADANGAN
142 1100457687 DZURRIYATUN NAFIAH 19/10/1982 LEBAK RT. 02/02 BRINGIN KAB. SEMARANG CADANGAN
143 1100457688 KHOLID WIBOWO 23/10/1976 LEBAK RT,01/03 BRINGIN KAB. SEMARANG CADANGAN
144 1100457690 SISWO SUBARYANTO 10/5/1975 CUNGKUP RT.06 RW.02 KAB. MAGELANG CADANGAN
145 1100457695 IMAM SUSANTO 25/6/1987 PAMONGAN RT.06/01 KAB. DEMAK CADANGAN
146 1100457697 GUNARDI 4/6/1968 BANJAREJO RT.01/01 KAB. DEMAK CADANGAN
147 1100457698 MARWATI 15/1/1967 SOKASARI RT. 02/02 BUMIJAWA KAB. TEGAL CADANGAN
148 1100457699 INDAH PURLIANA 7/9/1981 JL. KH. DEWANTARA GG. 27 NO.12 RT.8/1 KOTA TEGAL CADANGAN
149 1100457700 EDY KRISTIANTO 19/10/1961 GUNUNGAN RT.03/RW.09 KAB. SUKOHARJO CADANGAN
150 1100457701 EDI SANTOSO 6/8/1974 JL. KH. DEWANTARA GG. 27 NO. 12 RT. 8/1 KOTA TEGAL CADANGAN
151 1100457703 SRI ROHNEKI 10/12/1965 PAMONGAN RT.09/02 KAB. DEMAK CADANGAN
152 1100457704 SRIMINAH 8/3/1979 LINGKUNGAN CONGOL RT.02 RW.02 KAB. SEMARANG CADANGAN
153 1100457705 SAFRUDIN 16/2/1961 SOKASARI RT. 02/02 BUMIJAWA KAB. TEGAL CADANGAN
154 1100457706 JUMIARTO 11/5/1973 JL. MELATI SRATEN I NO.02 RT.01 RW.01 KAB. SEMARANG CADANGAN
155 1100457709 EMA SULISTIYANI KASWANTO 8/6/1971 PEDAWANG RT.01 RW.02 KAB. KUDUS CADANGAN
156 1100457711 SITI MUJAHIDAH 3/6/1965 DEMANGHARJO RT. 06/01 WARUREJO KAB. TEGAL CADANGAN
157 1100457712 SRI HARYANI 24/6/1959 KERTANEGARA RT 04 RW 01 KAB. PURBALINGGA CADANGAN
158 1100457713 MOH RIFAI SHOCHIB DASUKI 1/8/1965 PEDAWANG RT 01 RW 02 KAB. KUDUS CADANGAN
159 1100457714 HENI MAULIDATI 10/2/1980 SLARANG KIDUL RT. 03/02 LEBAKSIU KAB. TEGAL CADANGAN
160 1100457718 AHMAD RIFAI, [Link].I 11/6/1979 SLARANG KIDUL RT. 03/02 LEBAKSIU KAB. TEGAL CADANGAN
161 1100457719 KHOFIDIN 10/10/1959 TUWEL RT. 04/02 BOJONG KAB. TEGAL CADANGAN
162 1100457720 DAVID IBRAHIM 10/12/1994 GEDANGALAS RT 11 RW 05 KAB. DEMAK CADANGAN
163 1100457721 ALFIYAH 31/12/1964 TUWEL RT. 04/02 BOJONG KAB. TEGAL CADANGAN
164 1100457722 NALAM 17/5/1966 KARANGNANAS RT 7 RW 2 KAB. BANYUMAS CADANGAN
165 1100457725 PRASETYO HARIYONO 23/8/1971 KARANGKEDAWUNG RT. 5/2 KAB. BANYUMAS CADANGAN
166 1100457726 DAIM HARYANTO 19/11/1960 PASUSUKAN RT.07 RW.04 KAB. BATANG CADANGAN
167 1100457727 SLAMET RIYADI 11/4/1959 GEDANGALAS RT 11 RW 05 KAB. DEMAK CADANGAN
NO NO. PORSI NAMA TANGGAL LAHIR ALAMAT KAB/KOTA KETERANGAN
168 1100457728 SAIDAH 22/3/1965 KARANGKEDAWUNG RT RT 5 RW 2 KAB. BANYUMAS CADANGAN
169 1100457729 UMROH 28/4/1966 PASUSUKAN RT.07 RW.04 KAB. BATANG CADANGAN
170 1100457732 SUDIRMAN 5/11/1963 TANJUNGANYAR RT.01/03 KAB. DEMAK CADANGAN
171 1100457734 NURYATUN 7/9/1970 TANJUNGANYAR RT.01/03 KAB. DEMAK CADANGAN
172 1100457736 FAUZAN 5/5/1958 KUWON, RT.02/RW.02 KAB. TEMANGGUNG CADANGAN
173 1100457737 SUSILO ANDAYANI 7/4/1959 DAYAKAN RT03 RW01 KAB. TEMANGGUNG CADANGAN
174 1100457738 DAISEM 17/6/1966 KARANG NANAS RT 07 RW 02 KAB. BANYUMAS CADANGAN
175 1100457739 SRI IDHAWATI SUTARDJO 22/1/1961 PRAMBATAN LOR RT 07 RW 01 KAB. KUDUS CADANGAN
176 1100457740 AMIN LESTARI 21/9/1967 KUWON, RT.02/RW.02 KAB. TEMANGGUNG CADANGAN
177 1100457743 TRI SETYA HANDAKA 28/2/1967 PERUM TELAGA MUKTI, NO.09, RT.04/RW.07 KAB. TEMANGGUNG CADANGAN
178 1100457744 ERLY ROSITA CHAYAT SANUSI 1/7/1980 GETASPEJATEN RT.02 RW.02 KAB. KUDUS CADANGAN
179 1100457745 SITI SOLICHAH 21/3/1966 PERUM TELAGA MUKTI, NO.09, RT.04/RW.07 KAB. TEMANGGUNG CADANGAN
180 1100457747 SRI PARYANTI, [Link] 10/6/1966 JETIS KAUMAN, RT.06/RW.12 KAB. TEMANGGUNG CADANGAN
181 1100457748 PROYEDI SUDARMAN DARMA WIJAYA 16/10/1974 GETASPEJATEN RT 02 RW 02 KAB. KUDUS CADANGAN
182 1100457749 PURWO SUSILO 5/5/1960 [Link] [Link]/12 A TANJUNG RT. 1/5 KAB. BANYUMAS CADANGAN
183 1100457750 SUDARNO 6/1/1963 NGEMUL RT.03/RW.01 KAB. SUKOHARJO CADANGAN
184 1100457755 HARTINI 22/6/1961 NGAGLIK RT.03/RW.06 KAB. SUKOHARJO CADANGAN
185 1100457756 TUKIMIN 14/4/1958 NGAGLIK RT. 03/06 KAB. SUKOHARJO CADANGAN
186 1100457757 ARNING HARTATI 18/12/1965 [Link] [Link]/12 A TANJUNG RT. 1/5 KAB. BANYUMAS CADANGAN
187 1100457758 SUMARSI 5/4/1960 DUKUH KLAMPISREJO RT.01/RW.08 KAB. SUKOHARJO CADANGAN
188 1100457759 SARBINI 3/12/1972 DK. CENDONO RT. 01/07 KAB. SUKOHARJO CADANGAN
189 1100457760 MOHAMMAD ROSYID RIDHO 29/3/1971 DK. CENDONO RT. 01/07 KAB. SUKOHARJO CADANGAN
190 1100457761 FAROKHI, ST, MT 31/1/1971 BSB JATISARI INDAH B/1 NO. 18 RT 4 RW 7 KOTA SEMARANG CADANGAN
191 1100457762 PAIMAN 5/7/1971 SIRING RT.03/RW.06 KAB. SUKOHARJO CADANGAN
192 1100457764 MUSLIKHAH, SKM 30/12/1971 BSB JATISARI INDAH B-1 NO. 18 RT 4 RW 7 KOTA SEMARANG CADANGAN
193 1100457767 FATHONAH 23/5/1974 CENDONO RT.01/RW.07 KAB. SUKOHARJO CADANGAN
194 1100457768 SATRIA SUSIADI MULJADI 5/11/1976 PATI KIDUL 5/4 PATI KAB. PATI CADANGAN
195 1100457769 SUGIMIN 13/5/1969 CENDONO RT.01/RW.07 KAB. SUKOHARJO CADANGAN
196 1100457770 SURATMI 26/7/1974 DK. KUMBULAN RT03/RW.10 KAB. SUKOHARJO CADANGAN
197 1100457771 SUHARNO 2/10/1965 DK. KUMBULAN RT. 03/10 KAB. SUKOHARJO CADANGAN
198 1100457772 SULIMAH MUH ALI SA'ADAH 10/5/1980 PATI KIDUL 5/4 PATI KAB. PATI CADANGAN
199 1100457777 SUHARTI 28/7/1957 [Link] RT.03 RW.02 KAB. KENDAL CADANGAN
200 1100457778 SUNARI NGADJIMAN SAMIBAN 1/1/1968 TASIKAGUNG RT 003 RW 002 REMBANG KAB. REMBANG CADANGAN
201 1100457779 MUNADI 10/1/1959 DSN. KAWAH RT.06 RW.06 KAB. SEMARANG CADANGAN
202 1100457782 SUWARTI 5/10/1962 DSN. KAWAH RT.06 RW.06 KAB. SEMARANG CADANGAN
203 1100457784 GIYANTI 21/12/1972 SIRING RT.03/RW.06 KAB. SUKOHARJO CADANGAN
204 1100457785 RYAN FARHI TSANI 13/4/1996 KARANGNANGKA RT. 2/3 KAB. BANYUMAS CADANGAN
205 1100457786 NURUL HIDAYAH DJOKO UNTUNG 25/6/1977 KLALING RT.10 RW.04 KAB. KUDUS CADANGAN
206 1100457787 RIYANTO 11/3/1961 KARANGNANGKA RT 2 / 3 KAB. BANYUMAS CADANGAN
207 1100457790 SOEKAINI LOERI AMOERWANI 18/1/1969 GEDAWANG PERMAI BLOK E/8 RT.03/04 KOTA SEMARANG CADANGAN
208 1100457791 RASIH 25/12/1969 JATIKANDANG JL. KOPEK RT 03 RW 08 KAB. CILACAP CADANGAN
209 1100457792 OI SETIA RINI 11/12/2001 GEDAWANG PERMAI E/8 RT 3 RW 4 KOTA SEMARANG CADANGAN
210 1100457795 BASUKI SUPRIYADI 8/11/1967 LANGENHARJO RT. 05 RW. 02 KAB. KENDAL CADANGAN
211 1100457796 MASRUH 28/4/1959 KARANGANOM RT.01/RW.01 KAB. KENDAL CADANGAN
212 1100457797 AKHMAD KHAMDAN 10/1/1962 SETINGGIL GG. III B NO.12 RT.03/02 KAB. DEMAK CADANGAN
213 1100457800 CHUSNUL CHOTIMAH 22/4/1977 DUSUN GEMPOLKUNING RT.02/RW.04 KAB. KENDAL CADANGAN
214 1100457801 SOLICHATUN 19/9/1971 SETINGGIL GG. III B NO.12 RT.03/02 KAB. DEMAK CADANGAN
215 1100457804 SUSWONDO 8/7/1960 SUNGAPAN RT. 03 RW. 03 KAB. PEMALANG CADANGAN
216 1100457806 SRI MUKTININGRUM 27/2/1964 SUNGAPAN RT. 03 RW. 03 KAB. PEMALANG CADANGAN
217 1100457807 NOOR MUDRIKAH 7/8/1972 JL. UTAMA TIMUR NO. 9/31 RT. 04 RW. 05 KAB. KENDAL CADANGAN
218 1100457810 SUNTARIYAH 5/6/1958 DUSUN GLADAGSARI RT.01/RW.12 KAB. KENDAL CADANGAN
219 1100457812 KARDI SARMIN BUSARI 31/12/1959 GONDOSARI RT 03 RW 01 KAB. KUDUS CADANGAN
220 1100457813 NASEKHAH 15/8/1967 JL. KARYA BAKTI VII/ 62 RT. 6 RW. 4 KOTA PEKALONGAN CADANGAN
221 1100457814 HARI MURNI, IR 22/12/1964 JL. MENOREH TENGAH XI RT.06/07 KOTA SEMARANG CADANGAN
222 1100457815 ASWANDI, SE 20/3/1961 JL. MENOREH TENGAH XI RT.06/07 KOTA SEMARANG CADANGAN
223 1100457816 WARSINAH 9/1/1971 LANGENHARJO RT. 05 RW. 02 KAB. KENDAL CADANGAN
224 1100457817 MUJAMIL 25/4/1961 JL. KARYA BAKTI VII/ 62 RT. 6 RW. 4 KOTA PEKALONGAN CADANGAN
225 1100457818 SUMINAH 27/12/1972 KEBONSARI RT.01 RW.05 KAB. KENDAL CADANGAN
226 1100457819 UMI ROKHMAH 20/5/1971 DSN. SUCEN KIDUL 03/02 KAB. MAGELANG CADANGAN
227 1100457820 YUNI SULISTYOWATI 3/12/1978 PENUSUPAN RT 003 RW 005 KAB. BANJARNEGARA CADANGAN
228 1100457821 SITI SURAHMI 4/12/1962 DESA TRAYU RT.05/RW.02 KAB. KENDAL CADANGAN
229 1100457822 TOKHID 1/10/1974 PENUSUPAN RT 003 RW 005 KAB. BANJARNEGARA CADANGAN
230 1100457824 ROSYIDIN S. PD. 28/7/1969 JL. NAKULA RT. 01/06 KOTA TEGAL CADANGAN
231 1100457825 TITI SUNARTI, S. PD. 14/3/1969 JL. NAKULA RT. 01/06 KOTA TEGAL CADANGAN
232 1100457826 RONDHI MASYHURI 8/12/1958 DESA TRAYU RT.05/RW.02 KAB. KENDAL CADANGAN
233 1100457828 YATINI JAYIN TOHA 20/11/1963 GONDOSARI RT 03 RW 01 KAB. KUDUS CADANGAN
234 1100457829 ZAENAL ABIDIN 28/12/1971 KEBONSARI RT.01 RW.05 KAB. KENDAL CADANGAN
235 1100457831 KARTI PASNO GARENG 20/3/1966 SUMANDING RT 07/02 KEC. KEMBANG KAB. JEPARA CADANGAN
236 1100457832 IIN RIWAYATI 25/8/1963 KARANGANOM RT.01/RW.01 KAB. KENDAL CADANGAN
237 1100457833 CARTO NURYANTO NURYADI 7/5/1959 MLATI NOROWITO RT 04 RW 02 KAB. KUDUS CADANGAN
238 1100457835 IDA ROSYIDA DYAH KUMASTUTI 11/4/1986 JL PANDU DEWANATA I NO 2 RT 03 RW 06 KOTA SURAKARTA CADANGAN
239 1100457836 RURUN WAHYUNI S. SUNARNO 5/12/1962 MLATI NOROWITO RT 04 RW 02 KAB. KUDUS CADANGAN
240 1100457837 NAFISAH SPDI 11/9/1960 JL. SIBELA TENGAH NO.22 RT.03 RW.24 KOTA SURAKARTA CADANGAN
241 1100457838 SARJUKI 10/5/1958 SUDIPAYUNG RT.03/RW.03 KAB. KENDAL CADANGAN
242 1100457840 SUWATI JOSEMEN LEGIMAN 5/3/1963 SUMANDING 17/05 KEC. KEMBANG KAB. JEPARA CADANGAN
243 1100457841 SRI KUSWARDANI 25/10/1964 SUDIPAYUNG RT.03/RW.03 KAB. KENDAL CADANGAN
244 1100457847 USMAN RAIS 15/9/1974 [Link] SARI RAYA NO.3 RT.01/08 KOTA SEMARANG CADANGAN
245 1100457849 MULYANI WIRYO MARTONO 5/9/1957 PAMOTAN RT 002 RW 001 PAMOTAN KAB. REMBANG CADANGAN
246 1100457851 ENDANG SUSILOWATI SAKIBAN SURAHMAN 21/7/1981 PAMOTAN RT 002 RW 001 PAMOTAN KAB. REMBANG CADANGAN
247 1100457852 ABDUL MUJIB MASDUKI MUJAYIN 7/7/1974 PAMOTAN RT 002 RW 002 PAMOTAN KAB. REMBANG CADANGAN
248 1100457854 MURDIYANTI 9/3/1959 SUBALI MAKAM I/12 RT.01/02 KOTA SEMARANG CADANGAN
249 1100457855 NUR HASANAH 27/12/1980 MANGKANG KULON RT 4 RW 4 KOTA SEMARANG CADANGAN
250 1100457857 YATIMAH 21/9/1958 KUMPULREJO RT. 02/01 GRABAG KAB. PURWOREJO CADANGAN
251 1100457858 EVITA ZAERINA ELIZA 13/4/1973 JL. WISMA SARI RAYA NO. 3 RT.01/08 KOTA SEMARANG CADANGAN
252 1100457859 PENIATI 15/6/1960 PERUM PETRAGRIYA BLOK H/19 02/23 KAB. GROBOGAN CADANGAN
253 1100457860 YETTIE RISNIAWATIE, AMD 8/1/1976 KLIPAN RT. 02 RW. 02 KAB. KARANGANYAR CADANGAN
254 1100457861 MUCHOYIR 15/5/1973 MANGKANG KULON RT 4 RW 4 KOTA SEMARANG CADANGAN
255 1100457862 WARSINI 4/8/1967 PERUM PENERBAD JL. CASA H-6 RT 1 RW 2 KOTA SEMARANG CADANGAN
256 1100457864 DJUMADI, DRS, [Link] 28/7/1968 KLIPAN RT. 02 RW. 02 KAB. KARANGANYAR CADANGAN
257 1100457865 MARYUTI KASAN MUKMIN 13/9/1976 PANJER RT.04/02 KAB. KEBUMEN CADANGAN
258 1100457866 MURYANI 24/9/1960 DOPLANG RT 13/02 KAB. BLORA CADANGAN
259 1100457869 RIYANTO SUPARMAN MISMAN 5/2/1973 PANJER RT.04/02 KAB. KEBUMEN CADANGAN
260 1100457870 SUPARTI 5/6/1973 BERINGIN RT.05/08 KOTA SEMARANG CADANGAN
261 1100457872 AHMAD SYAEFUDIN 2/1/1967 BOJONGBATA RT.03 RW.12 KAB. PEMALANG CADANGAN
262 1100457873 AGUSTIN 16/8/1964 BOJONGBATA RT.03 RW.12 KAB. PEMALANG CADANGAN
263 1100457875 HAIRUN ISA 11/12/1966 LINGK. BRAJAN, NO. 017, RT.01/RW.03 KAB. TEMANGGUNG CADANGAN
264 1100457876 ARWAH 31/12/1958 BERINGIN RT 4 RW 1 KOTA SEMARANG CADANGAN
265 1100457878 SUJIYATI 1/1/1968 GADELAN RT 03 RW 01 KAB. BOYOLALI CADANGAN
266 1100457880 SUBARKAH EKO SETIYANTO, [Link] 24/7/1959 KROYO LOR RT. 01/02 KEMIRI KAB. PURWOREJO CADANGAN
267 1100457881 WARIS 5/12/1975 DUSUN SUMBEREJA RT. 06 RW. 03 KAB. CILACAP CADANGAN
268 1100457882 PARSIH PAIRAN KAREN 2/5/1961 KUNIR 05/02 KAB. JEPARA CADANGAN
269 1100457883 WAGINEM 16/8/1978 DUSUN SUMBEREJA RT. 06 RW. 03 KAB. CILACAP CADANGAN
270 1100457892 DJURAIMI 17/7/1960 TINJOMOYO RT.01/08 KOTA SEMARANG CADANGAN
271 1100457893 SITI NUROKHMAH 1/1/1969 [Link] RAYA [Link] RT.02 RW.19 KAB. PEMALANG CADANGAN
272 1100457894 BUDIARTO 23/8/1961 [Link] RAYA [Link] RT.02 RW.19 KAB. PEMALANG CADANGAN
273 1100457895 AISAH SETIOWATI 13/11/1968 DUKUH POJOK PENGGARUTAN RT.05/02 BUMIAYUKAB. BREBES CADANGAN
274 1100457896 PUJI RESTUTI 23/4/1962 DUSUN GEDANGAN RT. 06 RW. 06 KAB. KENDAL CADANGAN
275 1100457898 ENDANG SUKARNI, DRA 7/1/1968 NGEMPLAK 02/07 KAB. KLATEN CADANGAN
276 1100457899 EDY SANTOSO 18/11/1962 DUSUN GEDANGAN RT. 06 RW. 06 KAB. KENDAL CADANGAN
277 1100457900 AZIS BUDIYANTA, SPD 6/6/1965 NGEMPLAK 02/07 KAB. KLATEN CADANGAN
278 1100457901 ABDUL MUTHOLIB 13/9/1959 DUKUH POJOK PENGGARUTAN RT.05/02 BUMIAYUKAB. BREBES CADANGAN
279 1100457903 KAINAH 2/5/1959 BATUANTEN RT 05 / 03 KAB. BANYUMAS CADANGAN
280 1100457904 SRI MULAT HANDAYANINGRUM 30/3/1962 KUTABANJARNEGARA. RT. 003/007 KAB. BANJARNEGARA CADANGAN
281 1100457905 BEKTI LESTARI 14/5/1964 [Link] III/15 01/07 KAB. GROBOGAN CADANGAN
282 1100457906 LEGIMIN 11/6/1972 PUCANG RT 004/008 KAB. BANJARNEGARA CADANGAN
283 1100457907 MUNAWAROH 19/7/1972 PUCANG RT 004/008 KAB. BANJARNEGARA CADANGAN
284 1100457908 JOKO NUGROHO 7/10/1963 JL. KEPODANG III NO. 15 01/07 KAB. GROBOGAN CADANGAN
285 1100457910 ARIS BUDI SETIYAWAN 2/3/1964 JL. LABAN NO.68 RT.03 RW.07 KAB. CILACAP CADANGAN
286 1100457911 YAQOB SUKIMANTO 3/5/1969 SAMBUNG RT.06/02 KAB. DEMAK CADANGAN
287 1100457912 BUDI ASTUTI 15/4/1961 JL. LABAN NO.68 RT.03 RW07 KAB. CILACAP CADANGAN
288 1100457913 USWATUN KHASANAH 11/1/1972 SAMBUNG RT.06/02 KAB. DEMAK CADANGAN
289 1100457915 SUHERMI 30/6/1973 DEMANGHARJO RT. 02/01 WARUREJO KAB. TEGAL CADANGAN
290 1100457916 TARONO, DRS. [Link]. 15/12/1967 DEMANGHARJO RT. 02/01 WARUREJO KAB. TEGAL CADANGAN
291 1100457921 SUHARTOYO 22/9/1957 KRAMAT RT.08/02 KAB. DEMAK CADANGAN
292 1100457923 SUPARNI 3/1/1962 KRAMAT RT.08/02 KAB. DEMAK CADANGAN
293 1100457927 RAHMAD WAHYU AJI 17/2/1995 DK. JETIS RT.03/RW.07 TAWANGSARI KAB. SUKOHARJO CADANGAN
294 1100457928 SUPRAPTINI 6/6/1963 DK. JETIS RT.03/RW.07 KAB. SUKOHARJO CADANGAN
295 1100457930 SITI SYAROCH MARFUAH WIJARWATI 21/9/1979 JL DAHLIA NO 26 PERUM JPI RT. 06 RW. 19 KAB. KARANGANYAR CADANGAN
NO NO. PORSI NAMA TANGGAL LAHIR ALAMAT KAB/KOTA KETERANGAN
296 1100457933 JUWANDI 23/4/1962 JL DAHLIA NO 26 PERUM JPI RT. 06 RW. 19 KAB. KARANGANYAR CADANGAN
297 1100457936 MAKMUNI ABDUL CHOLIK MUKSIN 12/12/1964 TEMPERAK RT 006 RW 001 SARANG KAB. REMBANG CADANGAN
298 1100457937 SITI MUSYAFAROH 25/7/1961 WONOSEGORO RT 02 RW 04 KAB. BOYOLALI CADANGAN
299 1100457939 SITI ROIPAH 28/5/1959 KEDUNGBUNGKUS RT. 06/02 TARUB KAB. TEGAL CADANGAN
300 1100457940 WASINEM 24/8/1962 KETOYAN RT 01 RW 01 KAB. BOYOLALI CADANGAN
301 1100457943 ELLY NURYANTI 25/10/1964 GRIYA TAMAN ASRI BLOK B1 NO.31 RT.6 RW.5 KAB. PEMALANG CADANGAN
302 1100457945 SUTRISNA,DRS 27/11/1962 JONTAAN 01/03 KAB. KLATEN CADANGAN
303 1100457946 SEMININGSIH 21/6/1961 JONTAAN 01/03 KAB. KLATEN CADANGAN
304 1100457947 LILI KASWADI 15/5/1969 WANUTUNGGAL 07/03 KAB. GROBOGAN CADANGAN
305 1100457948 RUKINI 22/11/1968 WANUTUNGGAL 07/03 KAB. GROBOGAN CADANGAN
306 1100457949 ALFIYAH 24/4/1973 PERUM KLW INDAH BLOK A1 NO. 15 RT. 01/10 KAB. KENDAL CADANGAN
307 1100457950 BAHRUDIN SAMSURI HASAN 24/10/1974 TROSO 01/02 KAB. JEPARA CADANGAN
308 1100457951 MALKANAH KASBULLAH ABDUR 3/11/1980 TROSO 01/02 KAB. JEPARA CADANGAN
309 1100457952 NUR CHOLIS 28/3/1976 PERUM KLW INDAH BLOK A1 NO.15 RT. 01/10 KAB. KENDAL CADANGAN
310 1100457953 ENI CHAMDIYATI 17/4/1967 TINJOMOYO RT.01/08 KOTA SEMARANG CADANGAN
311 1100457956 WALUYO, S KAR 21/8/1962 KAPLINGAN RT.02 RW.20 KOTA SURAKARTA CADANGAN
312 1100457959 HENI NURIL MUHARAMIWATI. [Link] 23/4/1967 KAPLINGAN RT.02 RW.20 KOTA SURAKARTA CADANGAN
313 1100457963 SUTRISNO 18/2/1963 JL. RINJANI TIMUR III/20 RT 04 RW 019 KOTA SURAKARTA CADANGAN
314 1100457965 ARIATUN DARNO KASMAN 16/4/1961 KEMUJAN 001/002 KAB. JEPARA CADANGAN
315 1100457967 UCI KUSDIAH 12/8/1975 SALEM RT.09/02 SALEM KAB. BREBES CADANGAN
316 1100457969 WALIDI 3/10/1969 PEDAK RT 02/01 KAB. SRAGEN CADANGAN
317 1100457970 MUHAMMAD ROSYID BAJURI 25/9/1978 TEGALSAMBI 08/02 KAB. JEPARA CADANGAN
318 1100457971 TUMINAH 6/12/1970 PEDAK RT 02/01 KAB. SRAGEN CADANGAN
319 1100457972 FATHIYATUN NIKMAH ZAENURI 17/5/1979 TEGALSAMBI 08/02 KAB. JEPARA CADANGAN
320 1100457973 MASRIKAH MUHSIN BANI 23/4/1959 CEPOGO RT.003/012 [Link] KAB. JEPARA CADANGAN
321 1100457975 MUTIM 10/2/1971 JEJEG RT.06/01 BUMIJAWA KAB. TEGAL CADANGAN
322 1100457976 EVI DESLINDA 15/12/1964 JL. TLOGO TIMUR RAYA NO. 2-A RT 11 RW 3 KOTA SEMARANG CADANGAN
323 1100457978 MUDMAROH 12/10/1962 KLAPAGADING RT.02 RW.011 KAB. BANYUMAS CADANGAN
324 1100457980 NUNUK PUJIASTUTI SOEMARJO 28/9/1961 PANJER RT 01. 06 KAB. KEBUMEN CADANGAN
325 1100457981 SUTRIYO 10/4/1969 GUDANG RT.03 RW.03 LOPAIT KAB. SEMARANG CADANGAN
326 1100457982 JAMIAN 16/4/1969 GOLENG 04/04 KAB. GROBOGAN CADANGAN
327 1100457983 SUWANTI 13/2/1973 GALANG 04/04 KAB. GROBOGAN CADANGAN
328 1100457985 DIAN SANDRA MAYASARI, SE 24/4/1976 [Link] SUNANDAR 13 RT 02/03 KAB. BLORA CADANGAN
329 1100457986 SRI LESTARI 27/8/1970 PADAS 02/02 KAB. KLATEN CADANGAN
330 1100457987 SUKARMINI 18/5/1960 SEMAMPIR RT 02/04 KAB. BLORA CADANGAN
331 1100457989 SUNARTO,DRS 11/7/1964 PADAS 02/02 KAB. KLATEN CADANGAN
332 1100457990 SULEKAH 11/3/1973 GUDANG RT.03 RW.03 LOPAIT KAB. SEMARANG CADANGAN
333 1100457992 ETY WIDI INDRIANI 19/8/1970 ARCAWINANGUN RT.1/XI KAB. BANYUMAS CADANGAN
334 1100457993 IWAN NUR ISNANTIYO, ST 2/2/1973 [Link] SUNANDAR 13 RT 02/03 KAB. BLORA CADANGAN
335 1100457995 SAKUM 22/7/1960 JL. KEDUNGPASUNG NO. 38 RT. 02 RW .04 KAB. CILACAP CADANGAN
336 1100457996 SIYAMTO 16/2/1963 ARCAWINANGUN RT 01 / RW 11 KAB. BANYUMAS CADANGAN
337 1100457997 FARIDA HERAWATI 6/10/1978 JALAN MENJANGAN RT.04 RW.02 KAB. TEGAL CADANGAN
338 1100457998 SUPARNI 12/12/1965 DUSUN 4 RT 002 / RW 005 KAB. BANJARNEGARA CADANGAN
339 1100458000 IMAM FURQON ROZIKIN 13/5/1977 JALAN MENJANGAN RT.04 RW.02 KAB. TEGAL CADANGAN
340 1100458001 MACHRI 17/12/1958 DEMANGHARJO RT. 08/01 WARUREJO KAB. TEGAL CADANGAN
341 1100458003 TA'ATI 20/2/1966 DEMANGHARJO RT. 08/01 WARUREJO KAB. TEGAL CADANGAN
342 1100458004 BANIYEM 15/9/1964 JL. KEDUNGPASUNG NO.38 RT.02 RW. 04 KAB. CILACAP CADANGAN
343 1100458005 PILIANTO SOEKAMTO 3/7/1971 MLANDANG 002 22/09 KAB. KLATEN CADANGAN
344 1100458006 SRI PURWANINGSIH 19/11/1960 MLANDEN 03/05 KAB. MAGELANG CADANGAN
345 1100458010 NOVA ASTUTI RIANAWATI 8/11/1977 MLANDANG 002 22/09 KAB. KLATEN CADANGAN
346 1100458011 NASIRAH NASIBAN WAGINI 17/6/1959 TRANGKIL 01/01 TRANGKIL KAB. PATI CADANGAN
347 1100458013 SRI YULIANTI 6/7/1971 [Link] NO.34 RT.05/05 BREBES KAB. BREBES CADANGAN
348 1100458014 PUJIATI 30/8/1970 DUKUHWALUH RT 01 RW 07 KAB. BANYUMAS CADANGAN
349 1100458016 SALAMUN 28/9/1966 JL. DAHLIA NO.34 RT.05/05 BREBES KAB. BREBES CADANGAN
350 1100458017 MAT YUNADI 9/6/1960 MENUR RT.03/02 KAB. DEMAK CADANGAN
351 1100458018 SUNARTO 19/4/1969 KAUMAN RT 20 KAB. SRAGEN CADANGAN
352 1100458019 AMIROH 2/6/1964 MENUR RT.02/02 KAB. DEMAK CADANGAN
353 1100458022 WIWIK WIDYASTUTI 13/5/1972 JL CILANGKAP RT 07 / RW 04 CILANGKAP CIPAYUNG
KAB. BOYOLALI CADANGAN
354 1100458023 NUR KHAMID ALI RIDWAN 14/7/1977 KRAPYAK RT.002/005 KAB. JEPARA CADANGAN
355 1100458024 RODIYAH 31/12/1965 KUWON 01/05 KAB. GROBOGAN CADANGAN
356 1100458025 ELA ELFIANA MARTONO 24/5/1988 KRAPYAK RT.002/005 KAB. JEPARA CADANGAN
357 1100458026 ENDANG RUSMIYATI 27/10/1958 DUKUHWALUH RT. 1/7 KAB. BANYUMAS CADANGAN
358 1100458027 SRI WIDOWATI 30/11/1969 KAUMAN RT 20 KAB. SRAGEN CADANGAN
359 1100458031 NIKMAH ALI 9/7/1959 JL. INTAN NO. 5 RT. 3 RW. 8 KOTA PEKALONGAN CADANGAN
360 1100458033 MOH. KHOLIDIN 25/2/1970 DUKUHWALUH RT 01 / 07 KAB. BANYUMAS CADANGAN
361 1100458034 SITI ZAENAB KHOLIL 1/7/1957 LUWANG 3/2 TAYU KAB. PATI CADANGAN
362 1100458035 MARSILAH WIRYO SUDARNO 31/12/1965 TANON 20/08 KAB. KLATEN CADANGAN
363 1100458041 SRI REJEKI 5/5/1959 CENDRAWASIH 3, BANJARASRI RT 02 RW 10 KAB. SRAGEN CADANGAN
364 1100458047 PARIYEM 21/4/1959 BENDUNGAN RT. 04 RW. 05 KAB. KARANGANYAR CADANGAN
365 1100458048 TITI YENI SUGIARTI 10/1/1972 CANDIWULAN RT 17 RW 07 KAB. PURBALINGGA CADANGAN
366 1100458050 NGAISATUN 8/5/1998 MAKAM DUSUN 4 RT 05 RW 07 KAB. PURBALINGGA CADANGAN
367 1100458051 MIFTAKHUL ARIFIN 29/2/1980 BALUN SAWAHAN RT 02/11 KAB. BLORA CADANGAN
368 1100458052 BENY ARSANTO 13/11/1977 PANASAN BARU RT 05 RW 02 KAB. BOYOLALI CADANGAN
369 1100458053 PARJI 9/9/1957 SURUHAN RT 03/01 COKROWATI KAB. BLORA CADANGAN
370 1100458054 EDY BAHRUDIN 14/1/1962 CANDIWULAN RT 17 RW 07 KAB. PURBALINGGA CADANGAN
371 1100458055 MAS'AMAH SULAIMAN SUDIRMAN 16/9/1977 PAMOTAN RT 003 RW 001 PAMOTAN KAB. REMBANG CADANGAN
372 1100458059 IDA NUR KHASANAH 27/12/1984 [Link] RAYA 29 RT 02/04 KAB. BLORA CADANGAN
373 1100458062 GUSNADI 17/8/1963 KRENGSENG KRAJAN RT.03 RW.03 KAB. BATANG CADANGAN
374 1100458064 SRI PURWATI SAMRONI 6/8/1963 GONDANGMANIS RT 01 RW 10 KAB. KUDUS CADANGAN
375 1100458065 SITI MUNFANGATI 22/6/1966 KRENGSENG KRAJAN RT.03 RW.03 KAB. BATANG CADANGAN
376 1100458066 ABDUL AZIZ 31/12/1959 KADIROGO 05/06 KAB. MAGELANG CADANGAN
377 1100458067 MOCHAMMAD ARIFIN BISRI 12/11/1962 PAMOTAN RT 003 RW 001 PAMOTAN KAB. REMBANG CADANGAN
378 1100458068 SETYO MARGONO 8/6/1967 TROWANGSARI RT.01 RW 14 KAB. BOYOLALI CADANGAN
379 1100458071 SUGIYATI 14/5/1970 SIDOMULYO RT.06/06 KAB. DEMAK CADANGAN
380 1100458072 TUSWATI 24/8/1964 KRENGSENG JENDOGO RT.02 RW.06 KAB. BATANG CADANGAN
381 1100458075 NURYATI WAKOMAN ABDULLAH SURAJI 24/9/1974 MEGAWON RT 06 RW 01 KAB. KUDUS CADANGAN
382 1100458076 UDI UTOMO SANUSI 19/8/1972 MEGAWON RT 06 RW 01 KAB. KUDUS CADANGAN
383 1100458077 HARUM BAKOH CAHYONO 13/4/1983 [Link] RAYA 29 RT 02/04 KAB. BLORA CADANGAN
384 1100458079 PUTRI JUNIANTI 15/6/1984 BALUN SAWAHAN RT 02/11 KAB. BLORA CADANGAN
385 1100458080 RUWIYANTO , SH , MH 17/6/1968 JL. MERPATI NO. 22 PETET RT.04/01 TUNTAN KAB. SEMARANG CADANGAN
386 1100458081 KASMIN SUKANI TORJO 7/10/1965 BANDENGAN 16/05 KAB. JEPARA CADANGAN
387 1100458082 MARYATI 30/12/1959 JL. KENDENG RT.002 RW.07 KAB. CILACAP CADANGAN
388 1100458083 ENY HADIYANTI 16/2/1959 JL SINGOTORO III/12 A RT 03 RW 04 KOTA SEMARANG CADANGAN
389 1100458084 SUPRYANTO SUDARLAN SAIMAN 16/2/1964 BANDENGAN 16/05 KAB. JEPARA CADANGAN
390 1100458086 SUNARTO ALFANDI ABDULLAH SAYUTI 15/6/1959 KARANGGAYAM RT.05/02 KAB. KEBUMEN CADANGAN
391 1100458087 SUTRISNO 6/4/1959 [Link] III/12-A RT.03/04 KOTA SEMARANG CADANGAN
392 1100458088 SAPARWATI 27/6/1966 JL. MERPATI NO.22 PETET RT.04/01 TUNTANG KAB. SEMARANG CADANGAN
393 1100458089 NURYATI MAMONTO 9/10/1967 KARONSIH SELATN VII NO.606 RT.04/06 KOTA SEMARANG CADANGAN
394 1100458090 TUGINI 12/10/1974 PAKUNCEN RT 02 RW 03 KAB. PURBALINGGA CADANGAN
395 1100458091 RAMIN REDJO YUWONO 17/3/1964 TLAHAB LOR RT 02 RW 03 KAB. PURBALINGGA CADANGAN
396 1100458092 SRI BUDHI KARYATI 25/5/1958 JL. RAYA NO.46 RT.02 RW.02 KAB. CILACAP CADANGAN
397 1100458094 NINIK ISGIANTI 28/4/1968 TLAHAB LOR RT 02 RW 03 KAB. PURBALINGGA CADANGAN
398 1100458095 RULIYAH AHMAD YUSRO 30/12/1964 KERTODESO RT. 01. 02 KAB. KEBUMEN CADANGAN
399 1100458098 ASMIYATUN A ACHMAD SUJANGI 22/12/1961 KARANGGAYAM RT. 05. 02 KAB. KEBUMEN CADANGAN
400 1100458099 SUNDARI 23/12/1963 BULAK INDAH RT.03 RW.07 KOTA SURAKARTA CADANGAN
401 1100458100 SRI RUSIWATI 11/12/1959 PERUM TEGAL ASRI BLOK. A/80 RT. 07/16 KAB. CILACAP CADANGAN
402 1100458101 BAGUS ARI WIBOWO 15/3/1985 JL. PERINTIS KEMERDEKAAN RT 011 / RW 001 KOTA SURAKARTA CADANGAN
403 1100458102 MUHAMAD KHAKIM DOLAH KASIH 30/12/1960 KERTODESO RT.01/02 KAB. KEBUMEN CADANGAN
404 1100458103 SUSI RATNAWATI 29/9/1976 KINIBALU TIMUR NO.10 RT.03/03 KOTA SEMARANG CADANGAN
405 1100458104 YHOPI KRISTIAWAN 11/8/1979 BANYUURIP TENGAH, NO. 150, RT.05/RW.02 KAB. TEMANGGUNG CADANGAN
406 1100458105 ARIF WAHYU PURWANTO,IR 15/3/1967 KINIBALU TIMUR NO.10 RT.03/03 KOTA SEMARANG CADANGAN
407 1100458107 SUGIARTO 12/2/1958 BANGBAYANG RT.01/01 BANTARKAWUNG KAB. BREBES CADANGAN
408 1100458108 PATHAYATI 7/5/1964 BANGBAYANG RT. 01/01 BANTARKAWUNG KAB. BREBES CADANGAN
409 1100458110 AGUS DEWATA 7/8/1970 KARANGANYAR RT 03 KAB. SRAGEN CADANGAN
410 1100458112 ILHAM AJI PUTRA DEWATA 20/3/2003 KARANGAYAR RT 03 KAB. SRAGEN CADANGAN
411 1100458113 RUBIYONO 10/3/1962 WATESALIT [Link] NO.20 RT.02 RW.06 KAB. BATANG CADANGAN
412 1100458114 JUMINAH 25/8/1962 KUTABANJARNEGARA RT 001 RW 005 KAB. BANJARNEGARA CADANGAN
413 1100458115 RONDIYAH 18/5/1969 WATESALIT [Link] NO.20 RT.02 RW.06 KAB. BATANG CADANGAN
414 1100458117 NIKEM 1/7/1967 KALIERANG RT 02 RW 03 KAB. WONOSOBO CADANGAN
415 1100458120 SUTARNO KARNEN 1/7/1964 KALIERANG RT 02 RW 03 KAB. WONOSOBO CADANGAN
416 1100458121 DRA. TUSIYAH 19/6/1962 PERUM G BMP BLOK A2 NO. I/A RT. 02/08 KAB. PURWOREJO CADANGAN
417 1100458123 NUR FIANTA, [Link] 15/6/1962 PERUM BMP D2/10 RT. 03/08 KAB. PURWOREJO CADANGAN
418 1100458124 KHOERUN 13/12/1965 TEMON 02/01 KAB. GROBOGAN CADANGAN
419 1100458125 FITRIYANTI SLAMET HARYADI 1/8/1981 PADURENAN RT 02 RW 04 KAB. KUDUS CADANGAN
420 1100458126 SRI MULYATI 31/12/1974 TEMON 02/01 KAB. GROBOGAN CADANGAN
421 1100458128 FAHRUDDIN SOFWAN SURAT 25/5/1968 PADURENAN RT 02 RW 04 KAB. KUDUS CADANGAN
422 1100458129 JAWAT 10/2/1961 GIRIJOYO RT. 01/03 KEMIRI KAB. PURWOREJO CADANGAN
423 1100458130 ISWAHYUNINGSIH MASHUDI SURAWIGUNO 1/12/1964 BESITO RT 06 RW 04 KAB. KUDUS CADANGAN
NO NO. PORSI NAMA TANGGAL LAHIR ALAMAT KAB/KOTA KETERANGAN
424 1100458131 JARIYAH 6/11/1970 LIMBANGAN RT 001 RW 003 KAB. BANJARNEGARA CADANGAN
425 1100458132 SHOFIYANTO SYAECHUN SEREMI 9/7/1959 BESITO RT.06 RW.04 KAB. KUDUS CADANGAN
426 1100458133 UMI YASAROH, SE 7/12/1965 JL. GEDEGIRI NO.12 RT.22/06 PEGIRIKAN KAB. TEGAL CADANGAN
427 1100458135 NUR ALIFAH AFANDI 7/7/1965 BESITO RT 05 RW 07 KAB. KUDUS CADANGAN
428 1100458136 ATIK WARDIYANINGSIH MAWARDI 22/1/1982 WELAHAN RT.001/002 KAB. JEPARA CADANGAN
429 1100458139 KUNTORI SUROWAGIMAH RAPIYO 13/12/1968 TELUK WETAN 16/02 KAB. JEPARA CADANGAN
430 1100458140 MOH SAIRONI ANWAR MIRI 27/1/1972 WELAHAN RT.001/002 KAB. JEPARA CADANGAN
431 1100458142 MUNZARIKAH SUPRAPTO SIBAN 21/4/1973 TELUK WETAN 16/02 KAB. JEPARA CADANGAN
432 1100458143 MUSLICHAN SHOLICHUN BARMAWI 15/7/1964 BESITO RT 05 RW 07 KAB. KUDUS CADANGAN
433 1100458145 NOOR SICHAH GHOZALI 12/2/1963 BARONGAN RT 03 RW 03 KAB. KUDUS CADANGAN
434 1100458147 MAHIROH 16/7/1962 ADIWERNA RT. 01/02 KAB. TEGAL CADANGAN
435 1100458148 MASTIKA, SE 4/7/1963 JL. GEDEGIRI NO.12 RT.22/06 PEGIRIKAN KAB. TEGAL CADANGAN
436 1100458150 ANWAR AHMAD SAUBAN 1/1/1968 KARANGREJO 4/1 PUCAKWANGI KAB. PATI CADANGAN
437 1100458152 SUPARMIN SINGGIH SUKI 17/2/1966 JAKENAN 04/01 JAKENAN KAB. PATI CADANGAN
438 1100458154 IMBUH ZAINUDIN 15/8/1978 GINTUNGAN RT 01/05 KAB. PURWOREJO CADANGAN
439 1100458155 SRI DARTATIK KAMSU 15/4/1974 JAKENAN 4/1 JAKENAN KAB. PATI CADANGAN
440 1100458157 KHUSNAN 12/6/1964 GINTUNGAN RT 01/05 KAB. PURWOREJO CADANGAN
441 1100458158 SUNARDI RADIMAN SARMISIH 5/3/1969 BUMIREJO 1/1 JUWANA KAB. PATI CADANGAN
442 1100458161 EKO WIDI PRASETYO, [Link] 11/11/1962 KLODRAN RT. 02 RW. 03 KAB. KARANGANYAR CADANGAN
443 1100458165 MURTININGSIH, [Link] 26/12/1963 KLODRAN RT. 02 RW. 03 KAB. KARANGANYAR CADANGAN
444 1100458166 WINDARTI HADI PARIYONO 7/7/1967 BUMIREJO 1/1 JUWANA KAB. PATI CADANGAN
445 1100458168 TSAMINUDHIYAH 17/2/1970 P. RADEN PATAH BLOK N.2 RT.08/04 NO.08 KAB. DEMAK CADANGAN
446 1100458169 R. WIDI POERNOMO,BE 4/12/1960 JL. PUCANG RINENGGO I NO.03 RT.02/14 KAB. DEMAK CADANGAN
447 1100458170 ENDAH DWI SURYANINGSIH 21/3/1969 PERUM BUMIREJO INDAH E/17 RT/05/14 KAB. MAGELANG CADANGAN
448 1100458171 ROESMIYATI 11/11/1966 JL. PUCANG RINENGGO I NO.03 RT.02/14 KAB. DEMAK CADANGAN
449 1100458172 GUNAWAN ANDI PRIHANANTA 26/3/1968 BUMIREJO INDAH NO 017 05/14 KAB. MAGELANG CADANGAN
450 1100458173 BUDIAWAN 9/10/1965 P. RADEN PATAH BLOK N.2 RT.08/04 NO.08 KAB. DEMAK CADANGAN
451 1100458175 ISMIYATI 1/10/1978 KEMBANGARUM RT.01/05 KAB. DEMAK CADANGAN
452 1100458176 KASTONAH ICHWATUN NIKMAH 22/1/1970 BERMI RT.03/01 KAB. DEMAK CADANGAN
453 1100458177 ROBBI 20/4/1971 KEMBANGARUM RT.01/05 KAB. DEMAK CADANGAN
454 1100458178 BAGIYONO 24/8/1970 BERMI RT.03/01 KAB. DEMAK CADANGAN
455 1100458179 UMI KULSUM KASMENI SUNARDI 18/4/1970 BANDENGAN RT 16/05 KAB. JEPARA CADANGAN
456 1100458181 SITI AMINDAH SARIYONO 1/2/1979 NGEMBALREJO RT 07 RW 02 KAB. KUDUS CADANGAN
457 1100458182 RITA SULISTYANINGSIH 25/4/1975 KAUMAN 01/07 KAB. MAGELANG CADANGAN
458 1100458184 RIF'AN SLAMET JAIZ 3/1/1977 NGEMBALREJO RT.07 RW.02 KAB. KUDUS CADANGAN
459 1100458186 JANU WINDARTO 15/11/1976 KAUMAN 01/07 KAB. MAGELANG CADANGAN
460 1100458189 SITI JARIPAH 9/7/1970 JOMPONG RT 08/04 KAB. BLORA CADANGAN
461 1100458191 SAGI 11/2/1962 JOMPONG RT 08/04 KAB. BLORA CADANGAN
462 1100458196 TRI HASTUTI WINARSIH 1/6/1969 SUKOMANGU RT.01. RW.03 KAB. WONOGIRI CADANGAN
463 1100458197 KARDI 6/7/1962 SUKOMANGU RT.01 RW.03 KAB. WONOGIRI CADANGAN
464 1100458198 SUGIYONO 21/6/1962 BANYUURIP TIMUR, RT.04/RW.04 KAB. TEMANGGUNG CADANGAN
465 1100458199 UMI KHOMSATUN 16/5/1971 PERUM GPI BLOK C.1 RT.01/04 TANJUNGSARI KAB. PEKALONGAN CADANGAN
466 1100458200 NUR LAILI ROHMAH 28/5/1984 [Link] ISKANDAR RT 06/03 KAB. BLORA CADANGAN
467 1100458201 DARMIYATI 11/10/1967 JL. SULAWESI NO.5 RT. 03/RW.02 KAB. SUKOHARJO CADANGAN
468 1100458202 SUTRISMAN 18/2/1973 PERUM GPI BLOK C.1 RT.01/04 TANJUNGSARI KAB. PEKALONGAN CADANGAN
469 1100458203 DARTIM 10/7/1964 SOKAYASA RT 001 RW 003 KAB. BANJARNEGARA CADANGAN
470 1100458204 TURNIYAH 5/2/1965 SOKAYASA RT 001 RW 003 KAB. BANJARNEGARA CADANGAN
471 1100458205 RIDHO UNGGUL NUR RAHMADI 13/4/1994 JL. SULAWESI NO.5 RT.03/RW.02 KAB. SUKOHARJO CADANGAN
472 1100458206 SUYATMI BUDIATI 18/7/1967 PERUM GRIYA KAJEN INDAH RT.02/12 KAJEN KAB. PEKALONGAN CADANGAN
473 1100458207 SARYO 10/8/1958 SAMBONG RT 005 RW 002 KAB. BANJARNEGARA CADANGAN
474 1100458209 PUJI LAKSONO 30/11/1975 SUMILIR RT 06 RW 02 KAB. PURBALINGGA CADANGAN
475 1100458210 SUESTI 3/9/1960 SAMBONG RT 005 RW 002 KAB. BANJARNEGARA CADANGAN
476 1100458211 RINI WIDYASTUTI 15/12/1970 BANYUURIP TIMUR, RT.04/RW.04 KAB. TEMANGGUNG CADANGAN
477 1100458212 ADHANIA ILHAM 24/3/1999 PERUM GRIYA KAJEN INDAH RT 02/ RW 12, GANDARUM,
KAB. PEKALONGAN
KA CADANGAN
478 1100458214 SUWARDI 28/12/1974 JL. [Link] NO.03 RT.02 RW.01 KOTA SURAKARTA CADANGAN
479 1100458215 SUSIYANTI 10/6/1980 JL. KH SAMANHUDI NO.3 TEGALSARI RT.2/01 KOTA SURAKARTA CADANGAN
480 1100458216 NUR SALIM KASMANY, LC 5/3/1973 [Link] RT 06/03 KAB. BLORA CADANGAN
481 1100458218 NOKI RACHMAT FADLI 28/11/1996 JL. DAMAR TIMUR DALAM III/339 RT.03/11 KOTA SEMARANG CADANGAN
482 1100458219 ANIFAH NASIRIN JOYO SUPAR 10/5/1966 JEPANGPAKIS RT 03 RW 03 KAB. KUDUS CADANGAN
483 1100458220 SUMILAH 14/6/1961 DS. GONDEL RT 07/02 KAB. BLORA CADANGAN
484 1100458221 SOFIAN DJAESAN KIMSONAH 2/5/1966 GEDONGMULYO RT 004 RW 002 LASEM KAB. REMBANG CADANGAN
485 1100458222 ACHMAD RIVA'I 25/1/1985 DESA GONDEL RT 007 / RW 002 KAB. BLORA CADANGAN
486 1100458223 RENIWATI WIJI LESTARI 25/10/1958 JL. DAMAR TIMUR DALAM III/339 RT.03/11 KOTA SEMARANG CADANGAN
487 1100458224 ASTRI NUGRAHENI 31/12/1982 BALESARI RT. 01/05 KAB. SUKOHARJO CADANGAN
488 1100458225 SUCIONO, [Link] 4/6/1965 KERTAYASA RT.04/03 KRAMAT KAB. TEGAL CADANGAN
489 1100458226 ENI INDRIYANI 12/10/1970 KERTAYASA RT.04/03 KRAMAT KAB. TEGAL CADANGAN
490 1100458227 HERLIYIN SUSMIYATI SUNARYO 10/10/1968 GEDONGMULYO RT 004 RW 002 LASEM KAB. REMBANG CADANGAN
491 1100458231 SUTIYEM 6/7/1962 [Link] SUKUH RT.05/04 KOTA SEMARANG CADANGAN
492 1100458232 MAFRIQOH 13/10/1967 KAMBANGAN RT.03/01 LEBAKSIU KAB. TEGAL CADANGAN
493 1100458234 SUTARDI SARMIN SIPAN 26/6/1963 JEPANGPAKIS RT 03 RW 03 KAB. KUDUS CADANGAN
494 1100458237 SAHID PARYONO 3/7/1960 BARAN RT.02/RW.03 KAB. SUKOHARJO CADANGAN
495 1100458239 RAHMI 15/12/1963 BLITAR RT 001 RW 002 KAB. BANJARNEGARA CADANGAN
496 1100458240 SUNARTI 11/4/1959 JL. SEPAT GG. 3 NO. 36 KOTA TEGAL CADANGAN
497 1100458245 QOWIM, [Link] 2/6/1962 WADO RT 01/01 KAB. BLORA CADANGAN
498 1100458247 SUTARJO 2/2/1966 KAMBANGAN RT.03/01 LEBAKSIU KAB. TEGAL CADANGAN
499 1100458248 MUSRIANI, S. PD I 10/8/1963 WADO RT 01/01 KAB. BLORA CADANGAN
500 1100458249 SUMINI 11/6/1969 BARAN RT.02/RW.03 KAB. SUKOHARJO CADANGAN
501 1100458250 SURYADI DJADJULI DULGANI 14/6/1959 TANJUNGSARI RT. 02. 03 KAB. KEBUMEN CADANGAN
502 1100458251 SUDARMAN 12/2/1965 DUSUN KALIREJA RT. 02 RW. 03 KAB. CILACAP CADANGAN
503 1100458252 DORA PINASTI NURROKHMAH 8/4/1990 TANJUNGSARI RT. 02. 03 KAB. KEBUMEN CADANGAN
504 1100458253 ROBINGAH ASLIMIN DULAH MUKMIN 28/7/1964 TANJUNGSARI RT. 02. 03 KAB. KEBUMEN CADANGAN
505 1100458254 MOCHAMMAD YUSMAN YUNUS 22/9/1967 PENAMBUHAN 2/1 MARGOREJO KAB. PATI CADANGAN
506 1100458255 ISMIYATI 17/12/1962 KAWERON 02/04 KAB. MAGELANG CADANGAN
507 1100458258 DWI INDRAWATI ABDUL SUKUR 12/7/1979 PENAMBUHAN 2/1 MARGOREJO KAB. PATI CADANGAN
508 1100458259 SUHARTO 16/11/1960 KAWERON 02/04 KAB. MAGELANG CADANGAN
509 1100458260 DAYAT RIYONO 9/4/1965 PASIR KIDUL RT. 5/2 KAB. BANYUMAS CADANGAN
510 1100458262 SITI NURFATIMAH 16/4/1972 DUSUN KALIREJA RT. 02 RW. 03 KAB. CILACAP CADANGAN
511 1100458263 PURWATI 17/8/1970 PASIR KIDUL RT 05 RW 02 KAB. BANYUMAS CADANGAN
512 1100458268 SULASTRI MUSTAMIN SUBADI 2/10/1963 TANGSI BESAR E. 22 RT 02 RW 07 KOTA SALATIGA CADANGAN
513 1100458269 RAGIL KURNIAWAN 11/5/1994 BENDOSARI RT.01 RW.05 ARGOMULYO KOTA SALATIGA CADANGAN
514 1100458272 KATIJAN 9/10/1957 DUSUN MEKARSARI RT. 03 RW. 05 KAB. CILACAP CADANGAN
515 1100458273 ISWATI 7/9/1967 NGRAJEK III RT. 05/06 KAB. MAGELANG CADANGAN
516 1100458274 JAMAN SURONO SATIMIN 13/4/1960 PENAMBUHAN 1/1 MARGOREJO KAB. PATI CADANGAN
517 1100458275 NURHADI HARDJO SAIDIN 7/7/1974 SUKOHARJO 1/1 WEDARIJAKSA KAB. PATI CADANGAN
518 1100458278 PARYATI 26/9/1975 JL. MENUR NO.9 A RT.01 RW.2 KAB. CILACAP CADANGAN
519 1100458279 LAMBANG SETIYOAJI LEKSONO 7/5/1991 PENAMBUHAN 1/1 MARGOREJO KAB. PATI CADANGAN
520 1100458280 IDA LESTARININGSIH NYAMIN 16/3/1980 SUKOHARJO 1/1 WEDARIJAKSA KAB. PATI CADANGAN
521 1100458284 NASOHA SALEH 19/8/1970 PESONA GRIYA PANJANG BLOK E-2 RT.2 RW.11 KOTA PEKALONGAN CADANGAN
522 1100458285 MISTIYAH 14/6/1976 PESONA GRIYA PANJANG BLOK E-2 RT.2 RW.11 KOTA PEKALONGAN CADANGAN
523 1100458286 SRI INDAH WAHYUNI 11/7/1971 SIDOMULYO RT 01 RW 02 KAB. KUDUS CADANGAN
524 1100458287 SRI MURWANI 15/3/1968 [Link] RT.01 RW.02 KAB. PEMALANG CADANGAN
525 1100458288 MOH. ZUFAR MUBAROK 11/9/1975 KRANJI GG. MASJID RT.02/09 KEDUNGWUNI KAB. PEKALONGAN CADANGAN
526 1100458289 LASMINAH 17/4/1966 KEDUNGPOH RT. 01/02 LOANO KAB. PURWOREJO CADANGAN
527 1100458290 TEGUH HADI PRAMONO 9/10/1969 [Link] RT.01 RW.02 KAB. PEMALANG CADANGAN
528 1100458292 JAHURI ARUM WASERAN 3/8/1963 SIDOMULYO RT 01 RW 02 KAB. KUDUS CADANGAN
529 1100458293 KUSWANTO 27/9/1982 JL. SERIBU RT 06 RW 04 KAB. CILACAP CADANGAN
530 1100458295 MOHAMMAD SIFA' 6/4/1958 PURI SELATAN II.A RT.11/16 KEDUNGWUNI KAB. PEKALONGAN CADANGAN
531 1100458299 NURROHIMAH 10/2/1969 PURI SELATAN II.A RT.11/16 KEDUNGWUNI KAB. PEKALONGAN CADANGAN
532 1100458300 SUWARNI 20/12/1964 SAWAHAN RT 01 KAB. SRAGEN CADANGAN
533 1100458304 TASRIPAN 14/2/1966 KADILANGU RT.01/05 KAB. DEMAK CADANGAN
534 1100458305 CUK ARGOWATI 6/12/1967 LINGK. BRAJAN, NO. 017, RT.01/RW.03 KAB. TEMANGGUNG CADANGAN
535 1100458306 NUR WIJAYANTI 14/8/1964 JOGOLATAN RT. 01 RW. 15 KAB. KARANGANYAR CADANGAN
536 1100458309 SUNARTI 11/4/1972 KADILANGU RT.01/05 KAB. DEMAK CADANGAN
537 1100458310 SAYOTO 6/8/1958 CALUK 07/09 KAB. GROBOGAN CADANGAN
538 1100458312 DARIJEM 8/9/1966 CALUK 07/09 KAB. GROBOGAN CADANGAN
539 1100458313 RAHAYU , SPD 6/4/1964 KEMBARAN III RT. 07/04 KAB. MAGELANG CADANGAN
540 1100458314 SUNARTO 8/9/1959 JOGOLATAN RT. 01 RW. 15 KAB. KARANGANYAR CADANGAN
541 1100458316 MUHSIN 20/5/1975 SIDAMULYA RT. 5/3 KAB. BANYUMAS CADANGAN
542 1100458317 NGAISAH 5/6/1960 GONDANG RT.04/RW.05 KAB. KENDAL CADANGAN
543 1100458318 SISMANTO, SPD 19/4/1959 KEMBARAN III RT. 07/04 KAB. MAGELANG CADANGAN
544 1100458319 MOHAMAD MUHDI 26/1/1961 BERMI RT.03/02 KAB. DEMAK CADANGAN
545 1100458320 ERMAYATI 4/3/1977 SIDAMULYA RT 5 RW III KAB. BANYUMAS CADANGAN
546 1100458321 HARWATI 7/12/1973 BERMI RT.03/02 KAB. DEMAK CADANGAN
547 1100458323 RODHIYAH 22/1/1968 BERMI RT.05/02 KAB. DEMAK CADANGAN
548 1100458324 SRI PURWATI JOYO SUMITO 4/4/1963 BAPANGAN RT.001/001 KAB. JEPARA CADANGAN
549 1100458326 SULIS DARWANTI 7/5/1973 NGAWEN RT. 03 RW. 02 KAB. KARANGANYAR CADANGAN
550 1100458327 SOLIKHATI 10/11/1983 DAMARWULAN RT.06/01 KAB. DEMAK CADANGAN
551 1100458328 MULYONO KASNI KASLI 30/1/1959 BAPANGAN RT.001/001 KAB. JEPARA CADANGAN
NO NO. PORSI NAMA TANGGAL LAHIR ALAMAT KAB/KOTA KETERANGAN
552 1100458329 EKO SETYAWAN 5/7/1973 NGADIREJO RT. 02/04 KAB. SUKOHARJO CADANGAN
553 1100458330 MASROKAH 2/8/1958 PUCUKSARI RT. 04 RW. 01 KAB. KENDAL CADANGAN
554 1100458331 ARIS INDARTA 13/7/1967 GRIYA SATRIA SAGA BLK A-4 RT 10/01 KOBER KAB. BANYUMAS CADANGAN
555 1100458333 FEBRU SETIAWAN 15/2/1967 KEDUNGJATI 01/08 KAB. GROBOGAN CADANGAN
556 1100458335 SRI MARDUWI 6/3/1975 NGADIREJO RT. 02/04 KAB. SUKOHARJO CADANGAN
557 1100458337 TARNO 4/7/1968 NGAWEN RT. 03 RW. 02 KAB. KARANGANYAR CADANGAN
558 1100458338 SONI ADHIWIJAYA 2/3/1983 JL. JANGLI PERBALAN NO. 23 RT 2 RW 6 KOTA SEMARANG CADANGAN
559 1100458339 SRI SUGIYANTI 29/12/1966 JL. KELAPA SAWIT III/261 RT.04/07 KOTA SEMARANG CADANGAN
560 1100458340 SAIFUDIN MUCHTAR 19/9/1964 KARANGANYAR TUGU RT.07/01 KOTA SEMARANG CADANGAN
561 1100458341 SUZI NOOR WIJAYA 2/3/1977 JANGLI PERBALAN NO. 23 RT 2 RW 6 KOTA SEMARANG CADANGAN
562 1100458342 NUR HIDAYATI 12/5/1975 JL. PALA BARAT 3 E NO.67 RT. 003/014 MEJASEM KAB.
BARATBANYUMAS CADANGAN
563 1100458344 MAHMUDAH 20/1/1967 KARANGANYAR RT.07/01 KOTA SEMARANG CADANGAN
564 1100458345 MASWAN 7/4/1966 JOTANG RT.03/RW.01 KAB. KENDAL CADANGAN
565 1100458347 SRI WIDADI WIJI LESTARI 16/1/1967 DAWUNG KIDUL RT 05 RW 05 KAB. BOYOLALI CADANGAN
566 1100458349 MAHMUDI 2/10/1962 DAWUNG KIDUL RT 05 RW 05 KAB. BOYOLALI CADANGAN
567 1100458350 NOOR ACHMAD WARSONO AHSAN 27/9/1958 ROBAYAN 21/03 KEC. KALINYAMATAN KAB. JEPARA CADANGAN
568 1100458351 MUNROJI 1/7/1961 TAMBI RT 14 RW 05 KAB. WONOSOBO CADANGAN
569 1100458352 MEGAWATI YASIM KUWARDI 9/7/1964 ROBAYAN 21/03 KEC. KALINYAMATAN KAB. JEPARA CADANGAN
570 1100458353 JAMILATUN 11/3/1964 KARANGASEM RT.03 RW.08 KOTA SURAKARTA CADANGAN
571 1100458355 BEDJO 13/6/1962 KARANGASEM RT.03 RW.08 KOTA SURAKARTA CADANGAN
572 1100458356 RISTHONAH 8/5/1960 GEMBONG KAB. SRAGEN CADANGAN
573 1100458357 SYARIDA NUZULUL ROIS 16/8/1983 SINANGGUL 26/05 KAB. JEPARA CADANGAN
574 1100458358 SITI FATHONAH 12/12/1959 GRIYAN RT.07 RW.10 KOTA SURAKARTA CADANGAN
575 1100458359 SITI MARYATI 16/2/1962 JL. TANJUNG NO.68 RT.05 RW.04 KOTA TEGAL CADANGAN
576 1100458361 AGUS SUHARYONO 10/2/1968 SIDOMULYO RT 24 KAB. SRAGEN CADANGAN
577 1100458362 TUHU JATMIKA DRIYO 24/6/1965 TEGALWERO 01/03 PUCAKWANGI KAB. PATI CADANGAN
578 1100458363 NANIK MULYANI 15/6/1968 SIDOMULYO RT 24 KAB. SRAGEN CADANGAN
579 1100458365 ERNI LESTARI 10/9/1968 SEKARAN 02/05 KAB. MAGELANG CADANGAN
580 1100458366 SITI PATIMAH SAPURI 8/6/1966 TEGALWERO 01/03 PUCAKWANGI KAB. PATI CADANGAN
581 1100458367 SYARIF HIDAYAT JAYADI 17/4/1978 SINANGGUL 26/05 KAB. JEPARA CADANGAN
582 1100458368 SITI SUWAIBAH 12/8/1960 MARON RT 01/04 KAB. PURWOREJO CADANGAN
583 1100458369 IMRON SAMURI 18/12/1979 JL. LAYANG NO. 56 /110 RT. 3/9 KOTA TEGAL CADANGAN
584 1100458370 WIYARSI 4/10/1979 NGRINGIN RT. 02 RW. 05 KAB. KARANGANYAR CADANGAN
585 1100458373 MARDIYAH 13/2/1959 BANDUNGREJO RT.01/03 KAB. DEMAK CADANGAN
586 1100458375 SITI MAESAROH 5/8/1979 JL. LAYANG NO. 56/110 TEGALSARI RT 3/ 9 KOTA TEGAL CADANGAN
587 1100458377 SANIPAH 22/10/1967 MENUR RT.08/04 KAB. DEMAK CADANGAN
588 1100458378 LILIK MASLIKAH SUYANTO 12/1/1980 SOKOPULUHAN 07/05 PUCAKWANGI KAB. PATI CADANGAN
589 1100458379 SITI KHOMSAH MOHAMAD MUCHLASIN 6/10/1960 BUMIAGUNG RT.04/04 KAB. KEBUMEN CADANGAN
590 1100458380 SUNARYO SUMARDI SARMANI 25/2/1960 ROBAYAN 24/03 KEC. KALINYAMATAN KAB. JEPARA CADANGAN
591 1100458382 TASMIAH 2/5/1959 NGLEREP 36/17 KAB. MAGELANG CADANGAN
592 1100458383 ALIFAH MASWAN SIDIQ 21/7/1959 ROBAYAN 24/03 KEC. KALINYAMATAN KAB. JEPARA CADANGAN
593 1100458386 WITNOYO, SE 6/11/1976 LUMINGSER RT.20/03 ADIWERNA KAB. TEGAL CADANGAN
594 1100458387 ENDANG PURWANTI,SPD 2/10/1969 PLANGGU 01/01 KAB. KLATEN CADANGAN
595 1100458388 SITI FATIMAH 10/3/1974 MALAHAYU RT.01/02 BANJARHARJO KAB. BREBES CADANGAN
596 1100458389 AULIA ZAHROTUL CHAMIDAH, SE 11/1/1987 LUMINGSER RT.20/03 ADIWERNA KAB. TEGAL CADANGAN
597 1100458390 SOMADILAH 17/12/1970 MALAHAYU RT.01 RW.01 BANJARHARJO KAB. BREBES CADANGAN
598 1100458393 NUR AKHSAN SAHADI 4/6/1974 SOKOPULUHAN 07/05 PUCAKWANGI KAB. PATI CADANGAN
599 1100458394 SULISTYONO 4/5/1964 SEKARAN 02/05 KAB. MAGELANG CADANGAN
600 1100458395 SUPARNO 10/7/1963 MENUR RT.08/04 KAB. DEMAK CADANGAN
601 1100458397 TASRIPAH 30/12/1963 KEMBANGPAES 1070 RT 2 RW 5 KOTA SEMARANG CADANGAN
602 1100458402 AGUS GIYANTI 17/8/1981 DK. MUNINGAN RT.03/RW.01 KAB. SUKOHARJO CADANGAN
603 1100458404 JOKO SANTOSO 5/1/1976 DK. MUNINGAN RT.03/RW.01 KAB. SUKOHARJO CADANGAN
604 1100458406 KARSIYO DULSAMAD SAN TAYIB 1/7/1959 GROGOLBENINGSARI RT.01/02 KAB. KEBUMEN CADANGAN
605 1100458408 DARSIYAH DARSIKIN KASANMUSTAMA 1/7/1962 GROGOLBENINGSARI RT.001/002 KAB. KEBUMEN CADANGAN
606 1100458409 SAWABE 8/4/1963 SUMYANG 02/06 KAB. KLATEN CADANGAN
607 1100458410 SRI MURTI HADIWATI 1/11/1957 PARANG SARPO I/48 RT 02 RW 13 KOTA SEMARANG CADANGAN
608 1100458411 WAHYU BUDI RAHARJO, SE 4/5/1972 TANGGUL 10/05 KAB. KLATEN CADANGAN
609 1100458412 SUMARJOKO 1/1/1966 PAKIS RT 10 KAB. SRAGEN CADANGAN
610 1100458415 SUHARTI 15/5/1971 PAKIS RT 10 KAB. SRAGEN CADANGAN
611 1100458416 MARYANTI 30/7/1959 NGLEDOK 01/05 KAB. KLATEN CADANGAN
612 1100458417 PARTINI 30/11/1959 MARGOREJO 09/06 KAB. KLATEN CADANGAN
613 1100458418 MOHAMMAD MUNDORI SUPAAT 18/10/1974 MLATI NOROWITO RT 03 RW 07 KAB. KUDUS CADANGAN
614 1100458419 PUJI HAYATI BUDIRAHAYU 2/9/1972 TANGGUL 10/05 KAB. KLATEN CADANGAN
615 1100458420 SARYONO 12/3/1961 MARGOREJO 09/06 KAB. KLATEN CADANGAN
616 1100458421 ANY KRIS WAHYUNINGSIH 19/5/1977 MLATI NOROWITO RT 03 RW 07 KAB. KUDUS CADANGAN
617 1100458422 PONIMIN 11/4/1962 KENDAGA RT 002/004 KAB. BANJARNEGARA CADANGAN
618 1100458423 WIDATI 20/9/1958 PLAMONGAN SARI RT.02/01 KOTA SEMARANG CADANGAN
619 1100458424 KEMAN 18/9/1961 KEMETIRAN RT 12 KAB. SRAGEN CADANGAN
620 1100458426 SETIYAMADA RUKMAWATI SUPANTO 3/4/1971 MANTINGAN RT.003/001 KAB. JEPARA CADANGAN
621 1100458427 TURSINI 10/7/1980 JL. SUNAN GUNUNGJATI RT.04/02 BREBES KAB. BREBES CADANGAN
622 1100458428 AMANAH 7/8/1972 PODO KIDUL RT.15/04 PODO KEDUNGWUNI KAB. PEKALONGAN CADANGAN
623 1100458430 UMIATI KATAM DJOJODIHARDJO 14/7/1965 PAMOTAN RT 004 RW 002 PAMOTAN KAB. REMBANG CADANGAN
624 1100458431 INDARTI 9/2/1967 KEMETIRAN RT 12 KAB. SRAGEN CADANGAN
625 1100458433 TRISNO 27/1/1977 JL.. SUNAN GUNUNGJATI RT.04/02 BREBES KAB. BREBES CADANGAN
626 1100458434 SULARMI 15/11/1961 JATIREJO 03/15 KAB. KLATEN CADANGAN
627 1100458436 AMAT MU'ALIM KASIMIN 1/9/1967 PREMBUN RT. 03. 01 KAB. KEBUMEN CADANGAN
628 1100458439 SUKINO 31/12/1958 JATIREJO 03/15 KAB. KLATEN CADANGAN
629 1100458441 SRI ENGGARWATI 4/6/1962 KALITENGAH KAB. KLATEN CADANGAN
630 1100458444 ENY WAHYU HIDAYATI 26/12/1967 SAWAHAN BARU M 26 RT.02/RW.09 KAB. SUKOHARJO CADANGAN
631 1100458445 AGUNG PRASETYO SURYADI 6/1/1980 BARONGAN RT 01 RW 01 KAB. KUDUS CADANGAN
632 1100458446 SUKIMAN 5/2/1970 JL. PESANTREN RT. 25 RW. 08 KAB. CILACAP CADANGAN
633 1100458447 SITI MUNTAMAH 9/8/1979 JL. PESANTREN RT. 25 RW. 08 KAB. CILACAP CADANGAN
634 1100458449 KARSINI SUMARDI MARTO WAGIRAN 31/12/1957 KARANGMALNG RT 04 RW 03 KAB. KUDUS CADANGAN
635 1100458451 BAMBANG TRIDOSO 10/10/1959 SAWAHAN BARU M 26 RT.02/RW.09 KAB. SUKOHARJO CADANGAN
636 1100458452 SITI WATSIQOH 25/8/1976 WONOSEKAR RT 01 RW 10 KAB. DEMAK CADANGAN
637 1100458456 AKHMAD ZAENUDIN ROHYAT 19/8/1977 WELAHAN 05/04 KAB. JEPARA CADANGAN
638 1100458457 TOTO SUMARNO 8/7/1957 GIRIKOTA RT 21 KAB. SRAGEN CADANGAN
639 1100458458 NUR WACHIDAH 24/3/1978 KROMPA'AN RT. 02 RW. 02 KAB. KENDAL CADANGAN
640 1100458460 NURUN NADHIFAH RONZI 24/12/1984 WELAHAN 05/04 KAB. JEPARA CADANGAN
641 1100458461 SUHARMINI, S. PD.I. 24/11/1960 JL KH. HASYIM ASY'ARI GG. 9 RT. 2 RW. 4 KOTA PEKALONGAN CADANGAN
642 1100458463 ROSIKUN 6/7/1970 KROMPA'AN RT. 02 RW. 02 KAB. KENDAL CADANGAN
643 1100458464 RAHAYU 20/1/1975 SEMUT RT.05/02 WONOKERTO KAB. PEKALONGAN CADANGAN
644 1100458465 WARYONO 1/7/1972 SEMUT RT.05/02 WONOKERTO KAB. PEKALONGAN CADANGAN
645 1100458466 TRI SUSANTO 6/12/1965 SEKOPEK WETAN RT. 04 RW. 01 KAB. KENDAL CADANGAN
646 1100458467 NURHAYATI EKONINGSIH 29/8/1968 NGASINAN, RT.04/RW.03 KAB. TEMANGGUNG CADANGAN
647 1100458468 SRI SULASTRI 5/10/1968 BANGUNHARJO RT 07 RW 02 KAB. BOYOLALI CADANGAN
648 1100458469 ZAENI 20/5/1960 NGASINAN, RT.04/RW.03 KAB. TEMANGGUNG CADANGAN
649 1100458473 TRIYONO 26/1/1981 JIRAPAN RT 08/03 KAB. SRAGEN CADANGAN
650 1100458476 SITI SUHARNI 30/11/1980 JIRAPAN RT 08/03 KAB. SRAGEN CADANGAN
651 1100458478 SAMINAH 3/4/1961 PAMULIHAN RT.02 RW.02 KAB. CILACAP CADANGAN
652 1100458479 RAHMAWAN HENDI PRABOWO 7/3/1993 BANGUNHARJO RT 07 RW 02 KAB. BOYOLALI CADANGAN
653 1100458480 SITI ZAINAB 10/3/1970 WEDING RT.02/09 KAB. DEMAK CADANGAN
654 1100458483 ABDUL MUIN 5/3/1966 WEDING RT.02/09 KAB. DEMAK CADANGAN
655 1100458485 SAMINGUN 8/1/1968 GENEN RT 04/02 KAB. BLORA CADANGAN
656 1100458486 TUMIYATI 2/5/1958 LEBAK RT 37 KAB. SRAGEN CADANGAN
657 1100458487 SRI MURNI 2/4/1963 BOTOSIMAN RT 07 RW 07 KAB. DEMAK CADANGAN
658 1100458488 SUHARTINI 15/1/1972 GENEN RT 04/02 KAB. BLORA CADANGAN
659 1100458489 KASMI 13/6/1959 GENEN RT 03/02 KAB. BLORA CADANGAN
660 1100458491 UTAMI DEWI SUMADI 21/12/1979 PUYOH RT 03 RW 07 KAB. KUDUS CADANGAN
661 1100458493 EFEN MARSONI RUMAIN 2/5/1978 PUYOH RT 03 RW 07 KAB. KUDUS CADANGAN
662 1100458495 EROWATI 8/3/1962 CANDISARI RT 02/01 KAB. PURWOREJO CADANGAN
663 1100458496 TRIMO SUGIARTO 10/4/1959 CANDISARI RT 02/01 KAB. PURWOREJO CADANGAN
664 1100458497 MASRIYAH 7/12/1978 DUSUN SIDAMULYA RT. 02 RW. 11 KAB. CILACAP CADANGAN
665 1100458499 ALI MA'MUN 7/9/1979 DUSUN SIDAMULYA RT. 02 RW. 11 KAB. CILACAP CADANGAN
666 1100458502 EDI SULAIMAN 2/8/1985 SUSUKAN RT 003 / RW 005 KAB. CILACAP CADANGAN
667 1100458503 ANA FITROTUN ASIYAH 5/2/1982 JL. PADAT KARYA RT.017/006 WIDARAPAYUNG KULONKAB. CILACAP CADANGAN
668 1100458504 RETNO SRI MULYATI 20/1/1967 PURBALINGGA KIDUL RT 02 RW 04 KAB. PURBALINGGA CADANGAN
669 1100458505 TETI ROHAETI 5/8/1968 JL. DONAN RAYA 3 RT. 01 RW. 04 KAB. CILACAP CADANGAN
670 1100458506 KASRINATUN SUKADI RETNO 24/6/1973 TEMPERAK RT 001 RW 001 SARANG KAB. REMBANG CADANGAN
671 1100458508 WARNADI 3/6/1960 JL. DONAN RAYA 3 RT. 01 RW. 04 KAB. CILACAP CADANGAN
672 1100458509 SARBANI DJOYO REJO 8/8/1971 TEMPERAK RT 001 RW 001 SARANG KAB. REMBANG CADANGAN
673 1100458512 TARDI 1/7/1963 KEBUMEN RT.03 RW.01 KAB. BATANG CADANGAN
674 1100458514 SLAMET 11/10/1970 KEBUMEN RT.03 RW.01 KAB. BATANG CADANGAN
675 1100458515 MUSYAROFAH DASIRAN SARIWONGSO 12/7/1971 PANDANGAN WETAN RT 008 RW 003 KRAGAN KAB. REMBANG CADANGAN
676 1100458516 SANIPAH 18/7/1963 CANDISARI RT 05 RW 02 KAB. DEMAK CADANGAN
677 1100458517 ARIEF DHARMAWAN SUPIYONO 30/6/1981 NGARUS 5/1 PATI KAB. PATI CADANGAN
678 1100458518 MUSLIH 7/11/1962 CANDISARI RT 05 RW 02 KAB. DEMAK CADANGAN
679 1100458519 MUNFARIDAH ABDUL SAKUR MUSLIM 22/10/1973 LODAN WETAN RT 001 RW 002 SARANG KAB. REMBANG CADANGAN
NO NO. PORSI NAMA TANGGAL LAHIR ALAMAT KAB/KOTA KETERANGAN
680 1100458520 MOHAMMAD MUQORROBIN SAAD EFFENDI 13/12/1970 LODAN WETAN RT 001 RW 002 SARANG KAB. REMBANG CADANGAN
681 1100458521 RININTA SETYANINGSIH KUSLAN 12/6/1980 NGARUS 5/1 PATI KAB. PATI CADANGAN
682 1100458524 SITI KOMARIYAH MUHAMAD SIDIK 17/2/1974 KEDAWUNG RT. 01. 02 KAB. KEBUMEN CADANGAN
683 1100458525 BUDIYONO 12/6/1961 [Link] RT.08 RW.04 KAB. SEMARANG CADANGAN
684 1100458526 SUPAAT SUDJARI SURANI 24/9/1975 BAKALAN RT.009/002 [Link] KAB. JEPARA CADANGAN
685 1100458529 ROSIDAH NURHADI DASIM 17/6/1970 BAKALAN RT.009/002 [Link] KAB. JEPARA CADANGAN
686 1100458530 SITI FATIMAH 12/4/1961 DSN. WAWAR LOR RT.08 RW.04 KAB. SEMARANG CADANGAN
687 1100458531 SUDARMADJI ASMUNI ASMUNI 17/7/1957 KEDAWUNG RT.01/02 KAB. KEBUMEN CADANGAN
688 1100458536 A. NAHROWI 29/5/1970 NGEBONG, RT.02/RW.08 KAB. TEMANGGUNG CADANGAN
689 1100458538 PARTINAH 6/5/1968 DEMANGAN, RT.01/RW.07 KAB. TEMANGGUNG CADANGAN
690 1100458539 JOKO SUSILO 5/7/1962 DEMANGAN, RT.01/RW.07 KAB. TEMANGGUNG CADANGAN
691 1100458540 SUBAGYO 21/3/1959 [Link] BARU NO.18 RT.10/02 REJOSARI KAB. SEMARANG CADANGAN
692 1100458542 SRI ELMIYATI 24/12/1962 [Link] BARU NO.18 RT.10/02 REJOSARI KAB. SEMARANG CADANGAN
693 1100458548 NUR ILAM RISBIYATI 9/9/1962 KEDUNGWUNGU 01/02 KAB. GROBOGAN CADANGAN
694 1100458549 JAMIYAH 7/8/1972 KALIBEBER RT 02 RW 05 KAB. WONOSOBO CADANGAN
695 1100458550 RAMIN 5/2/1972 KRASAK RT 01 RW 03 KAB. WONOSOBO CADANGAN
696 1100458551 SITI ZUMROTUN 12/9/1958 BERGAS LOR RT.06 RW.03 KAB. SEMARANG CADANGAN
697 1100458552 AKHMAD SUPANDI DJAMASRI 6/7/1963 KUWASEN RT.017/005 KAB. JEPARA CADANGAN
698 1100458554 MUZAYANAH NOOR HADI 14/7/1971 TELUK WETAN RT.024/003 KAB. JEPARA CADANGAN
699 1100458555 SUGENG SANTOSA 7/12/1964 PURBALINGGA KIDUL RT 02 RW 04 KAB. PURBALINGGA CADANGAN
700 1100458556 ANISTIYANI 10/4/1982 BERGAS LOR RT.06 RW.03 KAB. SEMARANG CADANGAN
701 1100458557 ERNY YULIASTUTI MOH RONDJI 16/7/1972 KUWASEN RT.017/005 KAB. JEPARA CADANGAN
702 1100458559 NOOR KHAMID SLAMET 1/3/1967 TELUK WETAN RT.024/003 KAB. JEPARA CADANGAN
703 1100458562 SOLIKHIN 10/2/1974 KARANGMANGU RT. 08/02 TARUB KAB. TEGAL CADANGAN
704 1100458563 SUNANTI 26/7/1979 KARANGMANGU RT. 08/02 TARUB KAB. TEGAL CADANGAN
705 1100458565 MUH LATIF 10/5/1975 SEDAYU RT 01/07 KAB. PURWOREJO CADANGAN
706 1100458568 RISTA HAPSARI KUSUMANINGRUM 1/10/1975 BANGSRI RT.002/001 KAB. JEPARA CADANGAN
707 1100458570 SAFIK TAS'AN MANSYUR 13/6/1969 BANGSRI RT.002/001 KAB. JEPARA CADANGAN
708 1100458571 SARWONO 10/6/1968 GADUNGAN RT. 01 RW. 14 KAB. KARANGANYAR CADANGAN
709 1100458573 SUHARTO 25/8/1972 NGRINGIN RT. 02 RW. 05 KAB. KARANGANYAR CADANGAN
710 1100458574 MUHAMMAD HUSAIN ARIFFUDIN 5/5/1989 SUMBERGIRANG RT 001 RW 001 LASEM KAB. REMBANG CADANGAN
711 1100458576 WIWIK SUGIARTI 12/12/1959 KARANGBOYO 10/04 KAB. MAGELANG CADANGAN
712 1100458578 MUHLASIN 26/5/1965 PURBALINGGA LOR RT 03 RW 03 KAB. PURBALINGGA CADANGAN
713 1100458580 SEPTI WINDARSIH 21/9/1963 JL. WARU 5 NO.46 RT.02 RW.08 KAB. BANYUMAS CADANGAN
714 1100458581 ENDANG KISMARYANI 27/5/1973 PURBALINGGA LOR RT 03 RW 03 KAB. PURBALINGGA CADANGAN
715 1100458582 TUWARNO SUDIMORA 14/3/1973 LOSARI RT 02 RW 01 KAB. PURBALINGGA CADANGAN
716 1100458583 SETIARTI 7/6/1978 LOSARI RT 02 RW 01 KAB. PURBALINGGA CADANGAN
717 1100458584 MISTAM 21/6/1983 PRIGI RT 002 RW 001 KAB. BANJARNEGARA CADANGAN
718 1100458585 WIWI WAGINAH 17/4/1985 PRIGI RT 002/001 KAB. BANJARNEGARA CADANGAN
719 1100458588 CHAMDIYAH 17/9/1961 DUSUN CIKARAG RT. 02 RW. 04 KAB. CILACAP CADANGAN
720 1100458589 ENDANG NUTI REJEKI 23/8/1971 SELANG RT. 01. 07 KAB. KEBUMEN CADANGAN
721 1100458590 ARIS BUDIYANTO 17/4/1976 WANGON RT 002 RW 002 KAB. BANJARNEGARA CADANGAN
722 1100458591 YULIA KURNIAWATI 12/1/1976 WANGON RT 002 RW 002 KAB. BANJARNEGARA CADANGAN
723 1100458592 SAPTO WIMARTONO SUKARNO 23/3/1972 SELANG RT.01/07 KAB. KEBUMEN CADANGAN
724 1100458597 IDA ROSIDAH 24/4/1981 JL. WATES NO. 28 DEBONG KIDUL RT. 02/01 KOTA TEGAL CADANGAN
725 1100458598 CARYONO 27/5/1974 JL. WATES NO 28 DEBONG KIDUL RT. 02/01 KOTA TEGAL CADANGAN
726 1100458601 MARDANI 21/6/1978 SANGGRAHAN RT. 01 RW. 04 KAB. KARANGANYAR CADANGAN
727 1100458602 SITI MUSTANIFAH 25/4/1976 DUSUN BRAYOBARAT RT. 04 RW. 06 KAB. KENDAL CADANGAN
728 1100458603 JAMBARI 27/6/1971 DUSUN BRAYO BARAT RT. 04 RW. 06 KAB. KENDAL CADANGAN
729 1100458604 NILO PRABOWO 7/9/1963 JL. SUNAN GUNUNGJATI RT.03/02 BREBES KAB. BREBES CADANGAN
730 1100458605 AMALAH 7/1/1971 JL. SUNAN GUNUNGJATI RT.03/02 BREBES KAB. BREBES CADANGAN
731 1100458606 SITI KHASANAH 30/12/1959 DSN. KARANGGULI RT.02 RW.02 KAB. SEMARANG CADANGAN
732 1100458609 SAMIRAN MAD DANURI 5/6/1970 PUCANGAN RT. 01. 04 KAB. KEBUMEN CADANGAN
733 1100458611 SURIMAN 6/5/1975 DUSUN BRAYOBARAT RT. 04 RW. 06 KAB. KENDAL CADANGAN
734 1100458612 AHMAD MAFTUHIN 15/6/1975 JLN. H. MA'RUF RT. 08 RW. 14 KAB. CILACAP CADANGAN
735 1100458613 SITI MUSTAQFIROH 20/10/1982 DUSUN BRAYOBARAT RT. 04 RW. 06 KAB. KENDAL CADANGAN
736 1100458614 SARINGAH 15/10/1972 JLN. H. MA'RUF RT. 08 RW. 14 KAB. CILACAP CADANGAN
737 1100458615 SUNARIKAH SUHADAK WIRYO 28/8/1958 SUMBERGIRANG RT 001 RW 001 LASEM KAB. REMBANG CADANGAN
738 1100458618 BAWON 1/7/1957 GAPURO RT.04 RW.02 KAB. BATANG CADANGAN
739 1100458619 NUR FATIYAH SUNADI SURENI 26/3/1976 KRAPYAK 03/07 KAB. JEPARA CADANGAN
740 1100458620 MILA LUTFIANA 21/4/1978 BRUMBUNG RT.01/03 KAB. DEMAK CADANGAN
741 1100458621 SUPARIYAH 21/5/1958 NGEMPLAK RT.03/RW.04 KAB. KENDAL CADANGAN
742 1100458622 MUHAMMAD SUBHAN AHMAD KURDI 1/3/1972 GROWONG LOR 1/1 JUWANA KAB. PATI CADANGAN
743 1100458623 SUPRIYADI 13/2/1972 BRUMBUNG RT.01/03 KAB. DEMAK CADANGAN
744 1100458624 ANIK CHOSYATI MANSUR 3/7/1975 GROWONG LOR 1/1 JUWANA KAB. PATI CADANGAN
745 1100458625 KHUSNUL KHOTIMAH 23/2/1986 DUSUN SOMOPURO RT.03 RW.07 KAB. KENDAL CADANGAN
746 1100458629 ANDI RAHMANTO, SE 8/1/1979 JL. LAMONGAN BARAT VIII/6 RT.08/05 KOTA SEMARANG CADANGAN
747 1100458630 SITI AMINAH 31/12/1958 KARANGLEWAS KIDUL RT 01/04 KAB. BANYUMAS CADANGAN
748 1100458632 ROOSWITHA HARIASTUTI 28/10/1969 KUMPULREJO RT.02 RW.03 KAB. KENDAL CADANGAN
749 1100458633 LENI NUR SETIAWATI, SSI 27/5/1975 JL. LAMONGAN BARAT VIII/6 RT.08/05 KOTA SEMARANG CADANGAN
750 1100458634 MUKHAMAD IQBAL 6/1/1969 DESA KUMPULREJO RT.02 RW.03 KAB. KENDAL CADANGAN
751 1100458639 SOFIATUN 11/6/1959 SAMBUNG RT.05/01 KAB. DEMAK CADANGAN
752 1100458641 PURNOMO PARGO SARIMIN 30/5/1963 LAU RT 01 RW 06 KAB. KUDUS CADANGAN
753 1100458642 MARIA ULFA 17/2/1984 BAROS RT. 3 RW. 2 KOTA PEKALONGAN CADANGAN
754 1100458643 RETNO SUMARTI 25/8/1957 SOKANANDI RT 003 RW 005 KAB. BANJARNEGARA CADANGAN
755 1100458645 ROKHIMAH KAMID MUSLIH 3/5/1967 LAU RT 01 RW 06 KAB. KUDUS CADANGAN
756 1100458646 RAGIL KARYANTI 4/9/1974 PATUK KIDUL RT.001 RW.05 KAB. WONOGIRI CADANGAN
757 1100458647 MOCH. SHOLEH 26/5/1977 BAROS RT. 3 RW. 2 KOTA PEKALONGAN CADANGAN
758 1100458648 WAHYU GAMA TRIANINGRUM 25/6/1984 SOKANANDI RT 003 RW 005 BANJARNEGARA KAB. BANJARNEGARA CADANGAN
759 1100458649 SUMARTO 25/3/1966 PATUK KIDUL RT.01 RW.05 KAB. WONOGIRI CADANGAN
760 1100458650 SITI MUSRIFAH 11/4/1982 KRASAK RT 001 RW 001 KAB. WONOSOBO CADANGAN
761 1100458651 DEDI RUDIAT HENDRIADI 20/1/1970 JL. KALIBENER [Link] NO.666 RT.04 RW.02 KAB. BANYUMAS CADANGAN
762 1100458652 ISTIQOMAH 26/7/1977 DUSUN BRAYO TIMUR RT. 02 RW. 03 KAB. KENDAL CADANGAN
763 1100458653 FANNY IRYAWATI MINTARSO 6/2/1977 [Link] GG.11 NO.666 RT. 4/2 KRANJI KAB. BANYUMAS CADANGAN
764 1100458654 AMINUDIN 24/4/1977 KRASAK RT 001 RW 001 KAB. WONOSOBO CADANGAN
765 1100458655 NURKHOLIS 26/7/1973 DUSUN BRAYO TIMUR RT. 02 RW. 03 KAB. KENDAL CADANGAN
766 1100458656 IDA MUSTIKAWATI 5/5/1971 NONGKOSARI RT 09 RW 03 KAB. WONOSOBO CADANGAN
767 1100458657 NOR SA'DIYAH SUWAR 16/6/1967 TROSO RT.004/002 KAB. JEPARA CADANGAN
768 1100458659 MISBAHUL ANAM ALFA JUNIOR 15/4/1965 TROSO 04/01 KAB. JEPARA CADANGAN
769 1100458660 SRI WAHYUNI MUHTAR ASMO 29/5/1971 SEKURO 13/03 KAB. JEPARA CADANGAN
770 1100458661 JEMADI KAMSARI SOTAR 6/11/1968 SEKURO 13/03 KAB. JEPARA CADANGAN
771 1100458664 HARSANA 21/1/1960 DK. JOMBOR INDAH RT.04/RW.03 KAB. SUKOHARJO CADANGAN
772 1100458665 SLAMET WITORO 3/5/1960 BLAWONG RT 05 RW 03 KAB. WONOSOBO CADANGAN
773 1100458668 SITI FATIMAH BADRI 5/1/1984 KLEPU RT.004/003 KAB. JEPARA CADANGAN
774 1100458669 LILIK SUPARWANTO 2/3/1964 SEKIP RT.001 RW.023 KOTA SURAKARTA CADANGAN
775 1100458670 AHMADI MUHARI KALIL 29/9/1980 KLEPU RT.004/003 KAB. JEPARA CADANGAN
776 1100458671 NING PUJIASTUTI 10/12/1958 BLAWONG RT 05 RW 03 KAB. WONOSOBO CADANGAN
777 1100458672 SUNARSI 31/12/1958 JETIS RT. 11/05 KAB. MAGELANG CADANGAN
778 1100458673 NAFIATUN 6/12/1973 KRAJAN RT 001 / RW 001 KAB. JEPARA CADANGAN
779 1100458674 WALIMAH, [Link] 9/4/1968 JURU TENGAH RT 10 RW 03 KAB. WONOSOBO CADANGAN
780 1100458676 SARIYAH MADISMAN SOLICHIN 8/12/1958 PECANGAAN KULON 02/02 KAB. JEPARA CADANGAN
781 1100458677 EDI PRAYITNO ALI JUPRI 12/12/1960 PECANGAAN KULON 02/02 KAB. JEPARA CADANGAN
782 1100458679 PAIDI 6/1/1962 DUSUN BRAYO BARAT RT. 03 RW. 06 KAB. KENDAL CADANGAN
783 1100458680 SOBARI 25/7/1968 DAWUHAN KULON RT.02 RW.01 KAB. BANYUMAS CADANGAN
784 1100458681 SITI NUR NIHAYAH 11/3/1964 BAKALAN 02/01 KEC. KALINYAMATAN KAB. JEPARA CADANGAN
785 1100458685 ANNI KUSRIYATUN SALAMUN 20/4/1979 KUWASEN 17/05 KAB. JEPARA CADANGAN
786 1100458686 AHMAD FAQIH HUDHORI 3/6/1997 JURU TENGAH RT 10 RW 03 KAB. WONOSOBO CADANGAN
787 1100458687 EDI SULISTIYONO MAKSUM 25/3/1978 KUWASEN 17/05 KAB. JEPARA CADANGAN
788 1100458688 KUSTIYAH 24/4/1962 DUSUN BRAYO BARAT RT. 03 RW. 06 KAB. KENDAL CADANGAN
789 1100458689 DRS. WALUYA 21/4/1966 PERUM KOWANGAN UTAMA, RT.04/RW.05 KAB. TEMANGGUNG CADANGAN
790 1100458690 SARTINI JUPRI SUMARSI 7/6/1975 TROSO RT.006/009 KAB. JEPARA CADANGAN
791 1100458691 ANIK RISTIYATUN 5/3/1970 PERUM KOWANGAN UTAMA, RT.04/RW.05 KAB. TEMANGGUNG CADANGAN
792 1100458692 SUDARNO MATUKIN KASMINAH 9/8/1967 TROSO RT.006/009 KAB. JEPARA CADANGAN
793 1100458695 MUSANADAH TUMARI WIRORAJI 6/10/1974 SINANGGUL 38/07 KAB. JEPARA CADANGAN
794 1100458696 FATCHUROCHMAN 9/11/1971 [Link] PERSADA BLOK B2 NO 6 RT 02/05 KAB. WONOSOBO CADANGAN
795 1100458698 NUR HASEM SUJUD 8/3/1967 SINANGGUL 38/07 KAB. JEPARA CADANGAN
796 1100458699 ABDUL MUKHID KHAMBALI 20/4/1964 GENENG 05/01 KAB. JEPARA CADANGAN
797 1100458700 MUNTATIK 28/7/1969 DUSUN BRAYO BARAT RT.01 RW.06 KAB. KENDAL CADANGAN
798 1100458703 DURROTUN NADHIFAH SAID 10/3/1973 GENENG 05/01 KAB. JEPARA CADANGAN
799 1100458704 MARTIN DYAH SUPRAPTI 4/3/1971 T. MUTIARA PERSADA BLOK B2 NO.6 RT 02/05 KAB. WONOSOBO CADANGAN
800 1100458705 AHMAD FURQON 27/9/1966 SUROBAYAN RT.01/01 WONOPRINGGO KAB. PEKALONGAN CADANGAN
801 1100458706 SRI SURYATI NAIMUN 5/5/1971 KAUMAN 01/03 KAB. JEPARA CADANGAN
802 1100458707 SURANA SUMO WIHARDJO 27/5/1967 KAUMAN 01/03 KAB. JEPARA CADANGAN
803 1100458708 MOHAMMAD ZAINUL ANWAR 12/12/1983 DAREN RT.02/01 KAB. JEPARA CADANGAN
804 1100458711 SITI FATKHIYAH 20/1/1970 [Link] UTARA RT.07/04 ROWOKEMBU KAB. PEKALONGAN CADANGAN
805 1100458712 SITI MUFARIHAH NURHASAN 8/8/1973 KERSO RT.001/002 KAB. JEPARA CADANGAN
806 1100458713 MARDHIYAH TRIYULIATI 15/7/1969 SUROBAYAN RT.01/01 WONOPRINGGO KAB. PEKALONGAN CADANGAN
807 1100458715 EKO WINARNO 8/1/1978 SIDOMUKTI RT 03 / RW 01 KAB. PATI CADANGAN
NO NO. PORSI NAMA TANGGAL LAHIR ALAMAT KAB/KOTA KETERANGAN
808 1100458716 RINA WIJAYANTI 12/8/1973 PERON WETAN RT. 01 RW. 01 KAB. KENDAL CADANGAN
809 1100458723 WARSITI 12/7/1963 MANGUNREJO RT.02/03 KEBONAGUNG KAB. DEMAK CADANGAN
810 1100458724 ULFATUL QUSTONTINIA 12/6/1997 SINANGGUL 01/01 KAB. JEPARA CADANGAN
811 1100458725 RAHADIAN ADI RIYANTO 16/6/1992 WATES RT 02 RW 02 WATES UNDAAN KAB. KUDUS CADANGAN
812 1100458726 NOOR CHAYATI SHOLEH 7/11/1969 SINANGGUL 01/01 KAB. JEPARA CADANGAN
813 1100458727 RUMINAH SADJIYO SALI 29/7/1970 WATES RT 02 RW 02 KAB. KUDUS CADANGAN
814 1100458729 NASRULLAH SALAFUDDIN 29/12/1975 SINGOROJO RT 01/02 KAB. JEPARA CADANGAN
815 1100458730 NURYATI SUTOMO SUPARNO 10/7/1968 BAKALAN RT.004/001 [Link] KAB. JEPARA CADANGAN
816 1100458731 SOLEH TAS'AN BASRUN 11/11/1963 BAKALAN RT.004/001 [Link] KAB. JEPARA CADANGAN
817 1100458732 ANI WIJAYATI 19/9/1958 SOKANANDI RT 004 RW 002 KAB. BANJARNEGARA CADANGAN
818 1100458733 RETNO WIJAYANTI, SH 20/1/1974 JL. KUTAI BARAT NO.001 RT.04 RW.09 KOTA SURAKARTA CADANGAN
819 1100458734 EDI NURYANTO 22/2/1968 TARI WETAN RT 10 RW 02 KAB. BOYOLALI CADANGAN
820 1100458735 ASWIN KARUNIAWAN, IR 3/9/1972 JL. KUTAI BARAT 3 NO.1 RT 04 RW 09 KOTA SURAKARTA CADANGAN
821 1100458736 SUMIATI 1/4/1967 TARIWETAN RT 10 RW 02 KAB. BOYOLALI CADANGAN
822 1100458737 FIFTI MINIASIH SUROSO 5/2/1972 KARANGGEDANG RT.03/03 KAB. KEBUMEN CADANGAN
823 1100458740 KRIDO SULISTYO 21/6/1977 WIRUN RT 07 KAB. SRAGEN CADANGAN
824 1100458741 BEJAN SYAHIDAN 7/11/1971 PERUM GEDAWANG PERMAI III G-4 RT.09/02 KOTA SEMARANG CADANGAN
825 1100458743 SUGENG SUPRIYONO PARTOSUWITO 4/5/1973 KARANGGEDANG RT. 03. 03 KAB. KEBUMEN CADANGAN
826 1100458744 MUSTAQIM 7/8/1979 GUNUNGWATU RT. 02 RW. 04 KAB. KARANGANYAR CADANGAN
827 1100458746 SURATNO, [Link] 4/5/1958 JUNGKARE 58 04/02 KAB. KLATEN CADANGAN
828 1100458748 IIN ROSIDAH 21/12/1980 WIRUN RT 07 KAB. SRAGEN CADANGAN
829 1100458750 RAHAYUNINGSIH 23/1/1968 MARGO ASRI NO.183 RT 25/08 KAB. SRAGEN CADANGAN
830 1100458751 SUNARTO 4/11/1957 MANGSULAN 08/04 KAB. GROBOGAN CADANGAN
831 1100458754 ENDANG SUKISWORINI 31/12/1963 MANGSULAN 08/04 KAB. GROBOGAN CADANGAN
832 1100458755 SUGINO 9/6/1963 MARGOASRI NO. 182 RT 25/08 KAB. SRAGEN CADANGAN
833 1100458756 HARUN 12/11/1958 KUMUDASMORO TENGAH III RT.03/08 KOTA SEMARANG CADANGAN
834 1100458757 ENDANG WARSININGSIH 16/2/1972 JL. SLAMET RIYADI NO. 175 RT 27/08 KAB. SRAGEN CADANGAN
835 1100458758 SLAMET SUPRAPTO 29/12/1963 KARANGSARI RT.02/01 BOJONG KAB. PEKALONGAN CADANGAN
836 1100458759 NURFAQIROH 1/1/1974 KUMUDASMORO TENGAH III RT 3 RW 8 KOTA SEMARANG CADANGAN
837 1100458760 IMAM ROCHADI 8/9/1970 JL. SLAMET RIYADI NO. 175 RT 27/08 KAB. SRAGEN CADANGAN
838 1100458763 WIWIK ROHAYATI, BA 21/1/1961 JUNGKARE 58 04/02 KAB. KLATEN CADANGAN
839 1100458764 ISTIKHAROH 6/12/1971 KARANGSARI RT.02/01 BOJONG KAB. PEKALONGAN CADANGAN
840 1100458766 HARTATI SETIYOWATI 25/4/1970 JL. CENDRAWASIH 16, RT 01 RW 10 KAB. SRAGEN CADANGAN
841 1100458767 SRI LESTARI 6/9/1974 PERUM GEDAWANG PERMAI III G-4 RT.09/02 KOTA SEMARANG CADANGAN
842 1100458768 FIFIK ZAKIYAH 10/1/1967 KALIANGET RT 02 RW 10 KAB. WONOSOBO CADANGAN
843 1100458769 SURONO HADI 11/5/1966 [Link] 16, RT 01 RW 10 KAB. SRAGEN CADANGAN
844 1100458770 TAZKIYA MUTHMAINNAH SUKMAWATI 8/10/2000 BUKIT KELAPA GADING V BLK AM-22 RT.07/11 KOTA SEMARANG CADANGAN
845 1100458772 SRI KASADWATI HANDAYANI, [Link] 12/4/1971 GETAS RT. 02 RW. 10 KAB. KARANGANYAR CADANGAN
846 1100458773 SUDJARWO, DRS 13/6/1959 DOMPON RT 03 RW 05 KAB. WONOSOBO CADANGAN
847 1100458774 RETNO DEWAYANI 22/12/1970 BUKIT KELAPA GADING V/AM-22 RT.07/11 KOTA SEMARANG CADANGAN
848 1100458777 WIDYO MUGIYANTO, SE 26/9/1968 GETAS RT. 02 RW. 10 KAB. KARANGANYAR CADANGAN
849 1100458779 SITI ZUBAEDAH, [Link].I 7/5/1971 KAUMAN RT 26 RW 09 KAB. WONOSOBO CADANGAN
850 1100458781 SRI ENI 6/3/1960 DOMPON RT 03 RW 05 KAB. WONOSOBO CADANGAN
851 1100458782 EKO WIDODO 27/3/1964 JL. MT. HARYONO NO. 26 RT. 08 RW. 06 KAB. CILACAP CADANGAN
852 1100458783 SITI NAJIKHAH CHUDLORI 27/7/1970 KEDUNG LEPER RT.001/001 KAB. JEPARA CADANGAN
853 1100458784 HISAM 12/10/1967 KASMARAN RT 002 RW 001 KAB. BANJARNEGARA CADANGAN
854 1100458786 HARYANTO 7/9/1959 JL. SIDOLUHUR I/34 RT.04/06 KOTA SEMARANG CADANGAN
855 1100458787 PUTRI RIZKIA PURDANINGTYAS 26/4/1996 DSN GANDON RT.02/01 BANJARSARI WINDUSARI KAB. MAGELANG CADANGAN
856 1100458788 SAMSIYATI 20/2/1971 KASMARAN RT 002 RW 001 KAB. BANJARNEGARA CADANGAN
857 1100458789 IRHAS SETIYATI 7/11/1964 JL. MT. HARYONO NO. 26 RT. 08 RW. 06 KAB. CILACAP CADANGAN
858 1100458790 SUDARWATI 25/11/1959 [Link] I/34 RT.04/06 KOTA SEMARANG CADANGAN
859 1100458791 AGUNG BUDI NUGROHO 3/10/1964 JL MEGA RAYA NO 244 RT 07 RW 07 KOTA SEMARANG CADANGAN
860 1100458792 BAMBANG WIDIYANTO 8/2/1964 REJOSARI RT.07/02 BOJONG KAB. PEKALONGAN CADANGAN
861 1100458793 SLAMET WIDODO 7/11/1957 KARANGLO 02/09 KAB. KLATEN CADANGAN
862 1100458794 WALIDUN 1/2/1967 BINORONG RT 003 RW 002 KAB. BANJARNEGARA CADANGAN
863 1100458795 ENDANG MURNIATI 20/2/1970 REJOSARI RT.07/02 BOJONG KAB. PEKALONGAN CADANGAN
864 1100458796 NURMALA ZAENAH 19/9/1967 BINORONG RT 003 RW 002 KAB. BANJARNEGARA CADANGAN
865 1100458797 KUSMANTO 1/7/1976 KAJEN RT 24/07 KAB. SRAGEN CADANGAN
866 1100458798 HARTATI 23/10/1959 KARANGLO 02/09 KAB. KLATEN CADANGAN
867 1100458799 ROBYAH DIYASWATI 18/3/1973 KAJEN RT 24/07 KAB. SRAGEN CADANGAN
868 1100458800 PINARDI RIDWAN DARSUKI 1/3/1963 KELET RT.023/004 KAB. JEPARA CADANGAN
869 1100458801 KARIYATI MUSTABAT SARIMAN 6/9/1966 BONDO RT.002/004 KAB. JEPARA CADANGAN
870 1100458802 HENDRARTININGTYAS [Link] 5/5/1966 JL PARANG KESIT II NO 23 RT 02 RW 05 KOTA SEMARANG CADANGAN
871 1100458803 SUROSO TARMAN KARTOKEBON 14/1/1963 BONDO RT.002/004 KAB. JEPARA CADANGAN
872 1100458804 TITIN SRIPARTINI 5/10/1962 KLEGEN 02/01 KAB. KLATEN CADANGAN
873 1100458805 DJASWATI 23/12/1961 KARANGLO 02/09 KAB. KLATEN CADANGAN
874 1100458806 NUR MUSLIMAH 3/9/1980 KALIWATUBUMI RT 01/02 KAB. PURWOREJO CADANGAN
875 1100458810 NURNINGSIH 1/7/1959 TANDON RT. 01 RW. 02 KAB. WONOGIRI CADANGAN
876 1100458813 ENTIN SUHARTINI 1/1/1966 TEGALMAS 01/12 KAB. KLATEN CADANGAN
877 1100458816 PONIJAN 18/3/1960 KARANGLO 02/09 KAB. KLATEN CADANGAN
878 1100458818 SITI ROBINGATUN DULAH IHSAN 17/7/1958 LUMBU RT. 03. 02 KAB. KEBUMEN CADANGAN
879 1100458819 MASNGUDIN 16/10/1987 LUMBU RT.03/02 KAB. KEBUMEN CADANGAN
880 1100458820 PARDINAH,SPD 20/10/1958 SEMOWO 02/06 KAB. KLATEN CADANGAN
881 1100458821 SUPARMI 10/7/1963 KARANGLO 01/09 KAB. KLATEN CADANGAN
882 1100458822 KUSYANTI 16/4/1964 JL. DIVISI 63 RT 03 RW 07 KAB. BANYUMAS CADANGAN
883 1100458823 BENI DWI SAPUTRO 16/2/1987 SEMOWO RT.02/06 PLOSOWANGI CAWAS KAB. KLATEN CADANGAN
884 1100458824 MUKLAS MOHAMAD BAEDOWI 20/3/1965 MERDEN RT.04/01 KAB. KEBUMEN CADANGAN
885 1100458826 SEMIARTI AMAD ROCHIM 4/11/1964 MERDEN RT. 04. 01 PADURESO KAB. KEBUMEN CADANGAN
886 1100458827 SUGIARNI, DRA 21/1/1965 KARANGMALANG RT 19/05 KAB. SRAGEN CADANGAN
887 1100458828 RANUNG PAGUSTA, DRS, E,C,MM 11/8/1962 KARANGMALANG RT 19/05 KAB. SRAGEN CADANGAN
888 1100458829 SUMARLAN 21/4/1965 GOLENG 01/04 KAB. GROBOGAN CADANGAN
889 1100458830 HARTINI 4/11/1972 GOLENG 01/04 KAB. GROBOGAN CADANGAN
890 1100458831 SITI FATIMAH 11/9/1964 BHAYANGKARA RT 04 RW 15 KAB. BOYOLALI CADANGAN
891 1100458836 RINA SUWANDARI 7/7/1962 GAWANAN BARAT RT. 03 RW. 02 KAB. KARANGANYAR CADANGAN
892 1100458839 ANDY ANSORRY 5/5/1961 JL. ANGGREK NO.39 RT.06 RW.03 KOTA TEGAL CADANGAN
893 1100458841 FARIDAH HIDAYAT ASMICHAN 22/5/1975 MAYONG LOR RT.005/009 KAB. JEPARA CADANGAN
894 1100458843 LISWARTI AZWAR. [Link] 10/10/1959 JL. ANGGREK NO. 39 RT.06 RW.03 KOTA TEGAL CADANGAN
895 1100458845 HERY TOTOWIYONO SAMUNI 6/8/1965 MAYONG LOR RT.005/009 KAB. JEPARA CADANGAN
896 1100458846 MUJI ASTUTI 2/5/1961 [Link] 69 RT.01/04 KOTA SEMARANG CADANGAN
897 1100458847 SRI REJEKI 4/6/1964 GODEAN RT.05 RW.02 KAB. WONOGIRI CADANGAN
898 1100458848 BASUKI 23/4/1970 TLOBONG 19/05 KAB. KLATEN CADANGAN
899 1100458849 SUKARMIN 12/3/1959 DUKUH DEWE RT 15 KAB. SRAGEN CADANGAN
900 1100458851 SHOBAH ANISATUN 23/10/1982 GUNTUR RT 07 RW 02 KAB. DEMAK CADANGAN
901 1100458852 IIM MARIANI ULFAH 31/5/1972 TLOBONG 19/05 KAB. KLATEN CADANGAN
902 1100458853 TAUFIK HIDAYAT 16/3/1982 GUNTUR RT 07 RW 02 KAB. DEMAK CADANGAN
903 1100458854 SUGENG WASKITO 17/10/1962 NGASEM 01/01 KAB. KLATEN CADANGAN
904 1100458855 SOEJATI SUHUD KASNADI 15/1/1958 DERSALAM RT 05 RW 04 KAB. KUDUS CADANGAN
905 1100458856 HANDOKO PUJI SUSILO 17/12/1970 KAYANGAN RT. 01 RW. 04 KAB. KARANGANYAR CADANGAN
906 1100458857 WARNO 14/12/1964 GODEAN RT.05 RW.02 KAB. WONOGIRI CADANGAN
907 1100458858 JOKO PURWANTO 10/7/1959 MLESE 01/05 KAB. KLATEN CADANGAN
908 1100458859 SAPARWIYATI 21/7/1962 MLESE 01/05 KAB. KLATEN CADANGAN
909 1100458861 RISNOWATI 9/2/1971 KAYANGAN RT. 01 RW. 04 KAB. KARANGANYAR CADANGAN
910 1100458862 BONADI,DRS 23/9/1963 SUMBER KULON 03/01 KAB. KLATEN CADANGAN
911 1100458865 SUKIYAN 28/8/1967 PANGENJURUTENGAH RT. 03/02 PURWOREJO KAB. PURWOREJO CADANGAN
912 1100458866 TITIK HAYATMI 18/4/1966 GIRIKOTA RT 21 KAB. SRAGEN CADANGAN
913 1100458867 SUDIRMAN 8/11/1964 PILANGAN RT 20/08 KAB. SRAGEN CADANGAN
914 1100458868 MUCHOLIFAH 28/6/1968 PANGENJURUTENGAH RT 03/02 KAB. PURWOREJO CADANGAN
915 1100458869 SEMI 21/10/1966 PILANGAN RT 20/08 KAB. SRAGEN CADANGAN
916 1100458870 GUDI WIYONO 7/2/1968 GIRIKOTA RT 21 KAB. SRAGEN CADANGAN
917 1100458871 MASDINAR 6/12/1972 WONOLOPO KOTA SEMARANG CADANGAN
918 1100458873 DANISAH 12/3/1965 [Link] WETAN RT.02/06 YOSOREJO SIWALANKAB. PEKALONGAN CADANGAN
919 1100458880 SUMARTI, AMPD 17/8/1958 KLEBEN 02/02 KAB. MAGELANG CADANGAN
920 1100458882 SUMARYATI 13/7/1960 KARANG TENGAH 01/04 KAB. MAGELANG CADANGAN
921 1100458883 SAMROTUL QULUB 28/8/1967 KENDALDOYONG RT.04/02 KAB. DEMAK CADANGAN
922 1100458884 MUHDI NOOR 21/11/1962 KENDALDOYONG RT.04/02 KAB. DEMAK CADANGAN
923 1100458885 YATININGSIH 20/11/1966 JAPUNAN 02/04 KAB. MAGELANG CADANGAN
924 1100458887 DWI SETYANI YUNIARTI 19/6/1986 KEBUTUH JURANG RT 002 RW 001 KAB. BANJARNEGARA CADANGAN
925 1100458888 SAHBUDDIN . M 19/8/1971 WONOLOPO KOTA SEMARANG CADANGAN
926 1100458889 SULASTRI 21/12/1966 PELEM RT 02/04 KAB. BLORA CADANGAN
927 1100458891 SARIPAH 14/7/1963 KEDUNGREJA RT. 07 RW. 07 KAB. CILACAP CADANGAN
928 1100458892 DENI ARI SETIYAWAN 16/5/1984 PUCANG RT 002 RW 009 KAB. BANJARNEGARA CADANGAN
929 1100458893 SITI NURANIYATUN 4/8/1964 JETIS RT.08 RW.03 KOTA SURAKARTA CADANGAN
930 1100458894 SITI NURCHAYATI 20/2/1969 JETIS RT 08 RW 03 KOTA SURAKARTA CADANGAN
931 1100458895 JUANITA 10/10/1976 [Link] BLOK K-4 /34 RT 1/5 BOJONGSARI KAB. BANYUMAS CADANGAN
932 1100458896 BADRUDIN, SE 15/12/1957 JETIS RT 08 RW 03 KOTA SURAKARTA CADANGAN
933 1100458899 SUGINO 1/3/1963 DSN. SUSUKAN RT.04 RW.04 KAB. SEMARANG CADANGAN
934 1100458900 NASIHATUN 18/8/1967 JL. BANGETAYU WETAN RT.07/01 KOTA SEMARANG CADANGAN
935 1100458901 NOR KHOZIN, DRS 12/3/1962 JL. GALAR XI/3 RT.05/17 KOTA SEMARANG CADANGAN
NO NO. PORSI NAMA TANGGAL LAHIR ALAMAT KAB/KOTA KETERANGAN
936 1100458903 MADROKAN 31/12/1959 [Link] RT.02/04 KOTA SEMARANG CADANGAN
937 1100458904 ABDAN 31/12/1961 JL. BANGETAYU WETAN RT.07/01 KOTA SEMARANG CADANGAN
938 1100458905 LASTARI 2/8/1967 DS. KEDIREN RT 08/02 KAB. BLORA CADANGAN
939 1100458906 ULFI FITRIYANTI 15/3/1994 [Link] RT 002 / RW 004 KOTA SEMARANG CADANGAN
940 1100458909 SITI ASIYAH, S. AG 11/8/1969 DS. KEDIREN RT 08/02 KAB. BLORA CADANGAN
941 1100458911 SRI KISYANI 16/3/1978 SAMBIROTO RT 06/01 KAB. BLORA CADANGAN
942 1100458913 MAESUN 31/12/1959 JL. BANGETAYU WETAN RT.02/01 KOTA SEMARANG CADANGAN
943 1100458914 ZULFAH 12/9/1964 MLEKANG RT.02/01 KAB. DEMAK CADANGAN
944 1100458919 BUDI HARTONO 26/1/1968 SAMBIROTO RT06/01 KAB. BLORA CADANGAN
945 1100458920 MASRURUN REBIN ACHMAD 11/1/1971 KARANG REJO RT 03 RW 03 KOTA SALATIGA CADANGAN
946 1100458921 DENI MEI LIYANTO 10/5/1981 JL. JEND, SUDIRMAN NO.90 RT.01 RW.05 KAB. SEMARANG CADANGAN
947 1100458924 ARYATI 6/12/1962 LANGENSARI RT.01 RW.05 KAB. SEMARANG CADANGAN
948 1100458927 SUNGESTI RAHAYU 23/7/1979 DAMPIT RT 01 RW 03 KAB. BOYOLALI CADANGAN
949 1100458928 KHIKMATUL MAULA MASTUR 18/2/1982 KARANGREJO RT 03 RW 03 KOTA SALATIGA CADANGAN
950 1100458930 EKO PRAMONO 3/5/1970 DAMPIT RT 01 RW 03 KAB. BOYOLALI CADANGAN
951 1100458931 MARTIN 5/6/1967 DOLOGAN RT 03/01 KAB. BLORA CADANGAN
952 1100458932 SURATI 12/2/1966 SUSUKAN RT.04 RW.04 KAB. SEMARANG CADANGAN
953 1100458933 M. RUSDI SYAHID 6/9/1966 DK. NGROWO RT 05/01 KAB. BLORA CADANGAN
954 1100458934 SOFITAMAWATI YULAICHAH 16/5/1970 PEDALANGAN KOTA SEMARANG CADANGAN
955 1100458935 SITI KAMILAH 22/10/1970 BEGANJING RT 06/01 KAB. BLORA CADANGAN
956 1100458936 SARMOAH 11/12/1960 LINGK. KRAJAN RT.03 RW.04 KAB. SEMARANG CADANGAN
957 1100458937 KAMTO 7/5/1965 BOGEM RT 02/01 KAB. BLORA CADANGAN
958 1100458938 EVI LISTIOWATI 9/10/1984 BULAK RT. 01 RW. 07 KAB. KARANGANYAR CADANGAN
959 1100458939 SUWARNI 3/5/1971 BOGEM RT 02/01 KAB. BLORA CADANGAN
960 1100458941 KARNI 1/12/1970 DOLOGAN RT 03/01 KAB. BLORA CADANGAN
961 1100458942 WAHYU NUGROHO 18/4/1964 PEDALANGAN KOTA SEMARANG CADANGAN
962 1100458945 SITI HAFIDHOH 8/9/1968 DK. NGROWO RT 05/01 KAB. BLORA CADANGAN
963 1100458947 UMI ERYANTI 26/9/1962 JL. NUSABARUNG VII NO 66 RT 02 RW 13 KAB. PEMALANG CADANGAN
964 1100458948 NAPSIYAH 4/1/1961 HARJOBINANGUN RT 01/05 KAB. PURWOREJO CADANGAN
965 1100458950 DARNIYATI 24/10/1968 JL. AMARTA RT08 RW 04 KAB. PEMALANG CADANGAN
966 1100458951 SUTIYEM 2/12/1971 KADISIMO 17/07 KAB. KLATEN CADANGAN
967 1100458952 MUSOLAH 19/10/1964 KARANGKLESEM RT 11 RW 05 KAB. PURBALINGGA CADANGAN
968 1100458954 DARKIM 18/7/1965 WANGON RT 3 / 6 KAB. BANYUMAS CADANGAN
969 1100458956 AMRIN 31/12/1961 GEDONGAN 03/05 KAB. MAGELANG CADANGAN
970 1100458957 SUTARMAN,DRS 9/1/1961 KADISIMO 17/07 KAB. KLATEN CADANGAN
971 1100458958 MUHAMMAD ASHAR AL MIRZAQ 19/11/1986 PAGER RT.13 RW.05 KAB. SEMARANG CADANGAN
972 1100458962 TRI WAHYU WIDIANI 21/6/1962 KARANGKLESEM RT 11 RW 05 KAB. PURBALINGGA CADANGAN
973 1100458964 SRI SUWARNI 7/9/1963 [Link] RT.02 RW.01 KAB. SEMARANG CADANGAN
974 1100458968 MUHAJIR 25/2/1958 BUNIWAH RT.04/01 SIRAMPOG KAB. BREBES CADANGAN
975 1100458970 KHURIYAH 5/8/1961 BUNIWAH RT.04/01 SIRAMPOG KAB. BREBES CADANGAN
976 1100458972 SUGIARTI 28/10/1966 JL. CANDI MULYO NO. 03 RT.03/12 KAB. MAGELANG CADANGAN
977 1100458979 EKO KUNCORONOTO SH 12/12/1963 JL. CANDI MULYO NO.03 RT.03/12 KAB. MAGELANG CADANGAN
978 1100458981 SUDRAJAT 4/5/1960 JL. BUNGA RAMPAI 1 NO 71 RT 06 RW 03 KAB. PURBALINGGA CADANGAN
979 1100458982 CASMUDI 22/2/1964 [Link] RT.02 RW.04 KAB. PEMALANG CADANGAN
980 1100458983 SITI ROJIYAH 3/2/1969 [Link] RT.02 RW.04 KAB. PEMALANG CADANGAN
981 1100458984 LESTARI 14/9/1975 CEPLUKAN RT. 03 RW. 17 KAB. KARANGANYAR CADANGAN
982 1100458986 FAJAR SUGIARTI 4/4/1967 SABRANGAN 02/05 KAB. KLATEN CADANGAN
983 1100458987 ANANTA ATMA ADI PRANOTO 22/12/1997 LEMAHJAYA RT 003 RW 002 KAB. BANJARNEGARA CADANGAN
984 1100458988 SUDARTA 27/3/1963 SABRANGAN 02/05 KAB. KLATEN CADANGAN
985 1100458990 MISSBAH ZAINAL MUSTOFA 23/3/1985 GEMBONG SELATAN RT.04/11 KEDUNGWUNI KAB. PEKALONGAN CADANGAN
986 1100458991 SUMANGIL 14/9/1975 CEPLUKAN RT. 03 RW. 17 KAB. KARANGANYAR CADANGAN
987 1100458992 SRI HARWATI KUSNAN 2/1/1991 KANDANGMAS RT 03 RW 02 KAB. KUDUS CADANGAN
988 1100458994 IFADATUL MUSTAFIDA 9/11/1986 GEMBONG SELATAN RT.04/11 KEDUNGWUNI KAB. PEKALONGAN CADANGAN
989 1100458996 DJUMIRAH SURO SARIDJAN 31/12/1957 KANDANGMAS RT 03 RW 14 KAB. KUDUS CADANGAN
990 1100458997 SITI NGADAH 12/9/1981 PARIKESIT RT 08 RW 04 KAB. WONOSOBO CADANGAN
991 1100458998 MIFTAHUL HUDA 12/4/1977 PARIKESIT RT 08 RW 04 KAB. WONOSOBO CADANGAN
992 1100458999 SUMANTO BAKRIN RUSMIN 31/1/1978 KANDANGMAS RT 03 RW 02 KAB. KUDUS CADANGAN
993 1100459000 AGUS SULISTIYONO TOHIRUN 22/4/1967 KLALING RT 08 RW 03 KAB. KUDUS CADANGAN
994 1100459001 AMINI PARMIN SODIRONO 30/12/1964 PUYOH RT 03 RW 04 KAB. KUDUS CADANGAN
995 1100459004 ROMDHONI 6/2/1963 JOGOSATRON 03/06 KAB. KLATEN CADANGAN
996 1100459005 SITI MUNAWAROH SYUKUR 28/11/1978 KLALING RT 06 RW 03 KAB. KUDUS CADANGAN
997 1100459008 SUWARTI 12/4/1962 KARANGNANAS RT. 3/5 KAB. BANYUMAS CADANGAN
998 1100459009 ERNAWATI SUWARNO MASTRO SAIMAN 20/3/1977 KARANGBENER RT 02 RW 08 KAB. KUDUS CADANGAN
999 1100459011 MUKHAMAD FUAD 31/07/1974 GUNUNGJATI RT 003 RW 002 KAB. BANJARNEGARA CADANGAN
1000 1100459012 ZULY FATCHIYYATUL INAYAH 01/07/1992 SINGOCANDI RT 003 / RW 002 KAB. KUDUS CADANGAN
1001 1100459013 GUNAWAN WIDODO 19/05/1971 [Link] II 04/04 KAB. GROBOGAN CADANGAN
1002 1100459014 HARMANTO 15/2/1966 JETIS RT. 03 RW. 01 KAB. KARANGANYAR CADANGAN
1003 1100459016 SITI MUTMAINAH 26/12/1971 JETIS RT. 03 RW. 01 KAB. KARANGANYAR CADANGAN
1004 1100459017 SRI HARDJANTI 27/06/1970 JOGOSATRON 03/06 KAB. KLATEN CADANGAN
1005 1100459021 SUDARMINAH 25/04/1963 LK. BANDANG 03/04 KAB. GROBOGAN CADANGAN
1006 1100459022 ILYAS 16/09/1963 [Link] RT.01/05 PURWODADI SRAGI KAB. PEKALONGAN CADANGAN
1007 1100459023 SRINATUN 28/4/1964 [Link] RT.01/05 PURWODADI SRAGI KAB. PEKALONGAN CADANGAN
1008 1100459024 SRI ARIYANI 30/10/1961 TIRTOMOYO RT.02 RW.10 KAB. WONOGIRI CADANGAN
1009 1100459025 ROFINGI 08/06/1960 TIRTOMOYO RT.02 RW.10 KAB. WONOGIRI CADANGAN
1010 1100459026 DARINI 07/04/1962 GEDANGAN RT. 02 RW. 02 KAB. KARANGANYAR CADANGAN
1011 1100459027 WAGIMIN 03/02/1959 MUNINGAN 01/06 KAB. KLATEN CADANGAN
1012 1100459030 RIYANI 26/03/1961 JL. CANDI PENATARAN UTARA III/8 RT 10/4 KOTA SEMARANG CADANGAN
1013 1100459032 ROBICHIN 13/03/1958 JL. RUMONO NO,04 RT.06/01 BUMIAYU KAB. BREBES CADANGAN
1014 1100459033 ULUNG WIBOWO 25/04/1990 KARANGANYAR RT 003 RW 004 KAB. BOYOLALI CADANGAN
1015 1100459034 IMBANG SRI UTAMI 14/01/1966 CANDI PENATARAN UTARA III/8 RT.10/04 KOTA SEMARANG CADANGAN
1016 1100459035 SUTRIANI EKOWATI 17/07/1960 JL. RUMONO NO,04 RT.06/01 BUMIAYU KAB. BREBES CADANGAN
1017 1100459036 TARKINAH 24/03/1973 CIPUTIH RT.04/01 NO.06 SALEM KAB. BREBES CADANGAN
1018 1100459037 SUDIRNO. SPD 23/05/1972 CIPUTIH RT.04/01 SALEM KAB. BREBES CADANGAN
1019 1100459038 AL QOTIMAH IMAM KASADI 8/4/1977 JL. LANGENREJO NO.336 RT 08 RW 02 KOTA SALATIGA CADANGAN
1020 1100459039 TANDJICHAH 25/11/1968 GROBOG WETAN RT.04/03 PANGKAH KAB. TEGAL CADANGAN
1021 1100459040 MOKHAMMAD ARIES KHOZIN 09/06/1971 DUKUH MILMAN RT.01/RW.08 KAB. KENDAL CADANGAN
1022 1100459041 ROFIKOH 07/06/1973 DUKUH MILMAN RT.01/RW.08 KAB. KENDAL CADANGAN
1023 1100459043 AKHMAD, [Link]. H 4/12/1962 GROBOG WETAN RT.04/03 PANGKAH KAB. TEGAL CADANGAN
1024 1100459046 ALWI PURWOTO 10/10/1962 NGADISARI RT 02 RW 07 KAB. WONOSOBO CADANGAN
1025 1100459049 RUKIYAH 31/12/1966 NGADISARI RT 02 RW 07 KAB. WONOSOBO CADANGAN
1026 1100459050 MARGIJONO AL ABDUL WAHIB 31/12/1963 PANDAN 01/04 KAB. GROBOGAN CADANGAN
1027 1100459051 HERNING HANDAYANI,SPD 18/10/1961 GADUNGAN 07/04 KAB. KLATEN CADANGAN
1028 1100459052 TURSIJAH 10/10/1962 KEPANDEAN RT. 03/04 DUKUHTURI KAB. TEGAL CADANGAN
1029 1100459056 MARYANA,SPD 10/11/1962 GADUNGAN 07/04 KAB. KLATEN CADANGAN
1030 1100459058 AHMAD KHADIB 05/02/1960 MENDURAN 06/01 KAB. GROBOGAN CADANGAN
1031 1100459061 MUSADAH 01/01/1968 MENDURAN 06/01 KAB. GROBOGAN CADANGAN
1032 1100459062 SUNARDI 30/04/1973 KEDUNGJERUK RT. 03 RW. 15 KAB. KARANGANYAR CADANGAN
1033 1100459063 SUTARMI 09/11/1963 NGELO RT. 02 RW. 17 KAB. KARANGANYAR CADANGAN
1034 1100459064 SITI CHOMSIAH 30/09/1957 SUDIMARA RT 4 / 01 KAB. BANYUMAS CADANGAN
1035 1100459065 ALI MUNIF 26/01/1962 BADONG RT 01/01 KAB. BLORA CADANGAN
1036 1100459066 MUDRIKAH 14/07/1968 BADONG RT 01/01 KAB. BLORA CADANGAN
1037 1100459067 USWATUN HASANAH 21/8/1974 PERUM ARUM ASRI REGENCY RT. 05/10 KAB. KARANGANYAR CADANGAN
1038 1100459070 ROMI CHODRIYATUN 31/12/1965 BRANTI RT02 RW05 KAB. TEMANGGUNG CADANGAN
1039 1100459071 NURIL HUDA 09/12/1964 KOPEN, RT.02/RW.03 KAB. TEMANGGUNG CADANGAN
1040 1100459075 SUMARDIYANTO 01/12/1969 SIMPING 04/02 KAB. MAGELANG CADANGAN
1041 1100459076 SRI YUANI. SPD 13/03/1967 DS. JAGAPURA RT.04/03 KERSANA KAB. BREBES CADANGAN
1042 1100459077 SRI WAHYUNI MAS'AD 25/05/1970 PENGKOL RT.003/002 KAB. JEPARA CADANGAN
1043 1100459078 SOLIHUDIN MAHMUDIN WONGSODIWIRYO 07/08/1961 SIDOMORO RT. 03. 01 KAB. KEBUMEN CADANGAN
1044 1100459079 SUBUR 10/6/1968 SITAIL RT. 01/02 JATINEGARA KAB. TEGAL CADANGAN
1045 1100459080 IKHSAN RIFAI 12/11/1967 BANJARAN RT.06 RW.08 KAB. SEMARANG CADANGAN
1046 1100459081 JAKARIA, BSC, SIP, MM 18/09/1959 JAGAPURA RT.04/03 KERSANA KAB. BREBES CADANGAN
1047 1100459082 NURLAELA 4/4/1975 SITAIL RT. 01/02 JATINEGARA KAB. TEGAL CADANGAN
1048 1100459083 MARTINI MARJUKI MAD JAMAN 13/11/1967 SIDOMORO RT.03/01 KAB. KEBUMEN CADANGAN
1049 1100459084 MUSLIMIN YATNO YADI 19/09/1969 PENGKOL RT.003/002 KAB. JEPARA CADANGAN
1050 1100459085 PRASTITI HENI ASTUTI 10/07/1964 KADIPIRO ASRI RT. 02 RW. 09 KAB. KARANGANYAR CADANGAN
1051 1100459086 HERY MULYADI, DRS, [Link] 04/10/1964 KADIPIRO ASRI RT. 02 RW. 09 KAB. KARANGANYAR CADANGAN
1052 1100459088 WIJI SANTOSA [Link],MM 18/02/1963 SIDOKERSO 37/16 KAB. KLATEN CADANGAN
1053 1100459089 DYAH ARUM HETTYNINGTYAS 10/7/1976 KALIPUCANG WETAN 01/04 KAB. JEPARA CADANGAN
1054 1100459090 TASLIMAH 15/12/1967 GEDANGAN RT 08 RW 05 KAB. WONOSOBO CADANGAN
1055 1100459091 KHORIDATUL UMMAH 14/06/1977 BANJARAN RT.06 RW.08 KAB. SEMARANG CADANGAN
1056 1100459092 UMI HANIF MUSLIMAH 05/04/1969 SIMPING 04/02 KAB. MAGELANG CADANGAN
1057 1100459093 SISWADI 10/07/1961 SURDANAN 01/04 KAB. KLATEN CADANGAN
1058 1100459094 HARTINI [Link] 16/08/1960 SIDOKERSO 37/16 KAB. KLATEN CADANGAN
1059 1100459096 TARYONO TASLIM MURMAH 07/04/1966 KALIPUCANG WETAN 01/04 KAB. JEPARA CADANGAN
1060 1100459098 ENDANG HASTUTININGSIH 27/08/1960 JOMBOR INDAH RT. 04/03 KAB. SUKOHARJO CADANGAN
1061 1100459099 KATINAH MAT SUKARDI 10/01/1963 KLUMPIT 7/2 TOGOWUNGU KAB. PATI CADANGAN
1062 1100459104 ADIYATNI 22/06/1965 SURDANAN 02/04 KAB. KLATEN CADANGAN
1063 1100459107 RUSDIONO 05/05/1962 SIKAYU RT. 03 RW. 04 KAB. PEMALANG CADANGAN
NO NO. PORSI NAMA TANGGAL LAHIR ALAMAT KAB/KOTA KETERANGAN
1064 1100459108 SITI YULIATIN 23/03/1964 JL RANDUBLATUNG RT 04 RW 02 KAB. BLORA CADANGAN
1065 1100459111 LUTIANAWATI 22/08/1962 SANGGRAHAN RT 04 RW 02 KAB. BOYOLALI CADANGAN
1066 1100459112 SUNOTO SUJOYO SAILAH 01/07/1957 KLUMPIT 7/2 TLOGOWUNGU KAB. PATI CADANGAN
1067 1100459114 RUSLAN 14/04/1961 JL RANDUBLATUNG RT 04 RW 02 KAB. BLORA CADANGAN
1068 1100459117 UMI SUGIYANTI 9/8/1959 KEDUNGBAKUNG RT. 06 RW. 08 KAB. CILACAP CADANGAN
1069 1100459118 SITI FAJARSAH 17/12/1965 KLAHANG RT.04 RW.02 KAB. BANYUMAS CADANGAN
1070 1100459119 KUAT RISYANTO 16/5/1964 KLAHANG RT.04 RW.02 KAB. BANYUMAS CADANGAN
1071 1100459121 SRI WULAN SEJATI 30/10/1971 KLODRAN INDAH BARAT E21 RT. 05/09 KAB. KARANGANYAR CADANGAN
1072 1100459122 EKO SANTOSO 26/09/1967 KETELENG KEMADANG RT.06 RW.02 KAB. BATANG CADANGAN
1073 1100459123 QOHDARI,SPD 20/02/1966 MARGOREJO 18/08 KAB. KLATEN CADANGAN
1074 1100459124 DWI ANUNG NUGROHO 16/06/1981 PERUM ARUM ASRI REGENCY RT. 05/10 KAB. KARANGANYAR CADANGAN
1075 1100459126 ELI ROHAYATI 10/02/1969 KETELENG KEMADANG RT.06 RW.02 KAB. BATANG CADANGAN
1076 1100459127 UTOMO 05/06/1966 KLODRAN INDAH BARAT NO E21 RT. 05/09 KAB. KARANGANYAR CADANGAN
1077 1100459128 NGUDIARTO 22/02/1965 KEPUNDUHAN RT.10/02 KRAMAT KAB. TEGAL CADANGAN
1078 1100459129 SUPRAPTI MURNI 26/01/1969 MARGAREJO 18/08 KAB. KLATEN CADANGAN
1079 1100459131 SRI PURWANTI, [Link] 19/07/1968 KEPUNDUHAN RT.10/02 KRAMAT KAB. TEGAL CADANGAN
1080 1100459132 SRI WARDATI 6/7/1958 BENDOLEGI RT 09 RW 02 KAB. BOYOLALI CADANGAN
1081 1100459133 ALI PARMANTO 16/12/1958 NGELO RT. 02 RW. 17 KAB. KARANGANYAR CADANGAN
1082 1100459134 KARIM 10/12/1973 DK. SEBUMI RT.01/01 KOTA SEMARANG CADANGAN
1083 1100459135 SITI ASIAH 08/02/1958 PACEKELAN RT 01/07 KAB. PURWOREJO CADANGAN
1084 1100459136 MIFTACHUL HUDA 04/05/1958 MLEKANG RT.01/02 KAB. DEMAK CADANGAN
1085 1100459138 ASNAFIYAH 15/04/1962 KRAJAN RT 01 RW 03 KAB. WONOSOBO CADANGAN
1086 1100459139 SIDIK AGUS WIJAYA, [Link] 06/08/1971 DK. SEBUMI RT.01/01 KOTA SEMARANG CADANGAN
1087 1100459140 ROSIDAH 6/2/1981 MLEKANG RT.05/03 KAB. DEMAK CADANGAN
1088 1100459141 LASINEM 10/10/1967 KURUKAN RT 04 RW 09 KAB. BOYOLALI CADANGAN
1089 1100459146 AMAD ZAINUDIN 19/6/1962 PACEKELAN RT 01/07 KAB. PURWOREJO CADANGAN
1090 1100459149 DYAH WIDORETNO HANDOJO 12/11/1959 JL. TEGALSARI II NO.02 RT 03 RW 03 KOTA SALATIGA CADANGAN
1091 1100459151 BAMBANG SETIYO MARGONO 16/05/1969 KARANGTENGAH RT.01 RW.06 KAB. BATANG CADANGAN
1092 1100459152 YANI SUHERNI 01/01/1960 SIDOKERTO RT. 01/06 KAB. SUKOHARJO CADANGAN
1093 1100459154 RAHMAYANI NOVIA PUSPITARINI 06/11/1984 SIDOKERTO RT.01/RW.06 KAB. SUKOHARJO CADANGAN
1094 1100459155 HERDIWIYANTO POERNOMO 18/06/1981 SIDOKERTO RT.01/RW.06 KAB. SUKOHARJO CADANGAN
1095 1100459162 AMIN SUPOMO SOEMARDJO 24/3/1967 DERSALAM RT 01 RW 02 KAB. KUDUS CADANGAN
1096 1100459164 SUKARNO SUHARNO DURROHMAN 12/10/1969 NGASEM RT.005/001 KAB. JEPARA CADANGAN
1097 1100459165 WIDIYOWATI 02/10/1977 KARANGSEMBUNG RT.02/06 SONGGOM KAB. BREBES CADANGAN
1098 1100459168 ADJIDJAH 09/08/1967 JL. PALA 6 NO. 16 RT. 07/10 KAB. TEGAL CADANGAN
1099 1100459170 ROZIKIN, SE 14/05/1970 KARANGSEMBUNG RT.02/06 SONGGOM KAB. BREBES CADANGAN
1100 1100459171 SUWANTI SUKARDJAN MARTOJAM 12/08/1967 DERSALAM RT 01 RW 02 KAB. KUDUS CADANGAN
1101 1100459172 BAYU SURYO NAGORO 01/10/1985 JOMBOR INDAH RT.04/RW.03 KAB. SUKOHARJO CADANGAN
1102 1100459173 ROCHMATUN RUSMADI KASMURI 11/05/1974 NGASEM RT.005/001 KAB. JEPARA CADANGAN
1103 1100459174 HANDOKO DWI ARIYANTO 5/2/1985 GEBAL WETAN RT 17 / RW 10 KAB. KLATEN CADANGAN
1104 1100459175 AKHMAD KIDWAY 20/12/1965 JL. PALA 6 NO. 16 RT. 07/10 KAB. TEGAL CADANGAN
1105 1100459179 SUKIRMAN SUTOYO MARI 17/06/1965 TEMPUR RT.004/002 KAB. JEPARA CADANGAN
1106 1100459180 PONIYO 03/06/1960 DUSUN NUSAORI NO 317 RT. 01 RW. 02 KAB. CILACAP CADANGAN
1107 1100459181 INDARWATI MUHADI PARDI 14/04/1974 TEMPUR RT.004/002 KAB. JEPARA CADANGAN
1108 1100459182 IDA DEWI MARTINI 28/02/1979 SAMBIREJO RT. 003 RW. 008 GONDANGREJO KAB. KARANGANYAR CADANGAN
1109 1100459183 SUHARYADI 04/05/1963 JL. GEBANGSARI RAYA RT.07/32 KAB. DEMAK CADANGAN
1110 1100459184 SUTIYANI 11/04/1962 DUSUN NUSAORI NO 317 RT. 01 RW. 02 KAB. CILACAP CADANGAN
1111 1100459185 WIDARTO DRS 17/09/1962 KALINGGA TENGAH 2 NO.9 RT.06/2 KOTA SURAKARTA CADANGAN
1112 1100459187 DYAH HARIYANTI 8/2/1964 JL. GEBANGSARI RAYA RT.07/32 KAB. DEMAK CADANGAN
1113 1100459192 HERMAWAN YUDHISTIRO 12/12/1980 KOMPERTA RSPC F 1 / 2 RT. 03/12 KAB. CILACAP CADANGAN
1114 1100459193 RESTU PATRIANY 01/02/1983 KOMPERTA RSPC BLOK F 1/2 RT.3/12 KAB. CILACAP CADANGAN
1115 1100459195 PARMONO 15/09/1966 LEMAH BEDAH RT 02/01 KAB. SRAGEN CADANGAN
1116 1100459196 SUTEJO SURODIHARJO WAGE 29/03/1963 SAMBIREJO 4/2 GABUS KAB. PATI CADANGAN
1117 1100459197 DYAH RIANASARI 08/11/1970 WATUAGUNG RT.01/09 SURUH KAB. SEMARANG CADANGAN
1118 1100459199 NENENG ARIZINA, S. KOM 19/6/1982 JL. DEMPEL BERLIAN I NO. 28 RT 1 RW 25 KOTA SEMARANG CADANGAN
1119 1100459200 MUHAMMAD ROHIB HIRZI 20/11/1972 WATUAGUNG RT.01 RW.09 KAB. SEMARANG CADANGAN
1120 1100459201 SRI UMIYATUN 06/06/1967 LEMAH BEDAH RT 02 KAB. SRAGEN CADANGAN
1121 1100459202 ROHMAN 16/8/1967 PUCUNG RT. 04 RW. 03 KAB. KENDAL CADANGAN
1122 1100459203 EKO SETYO PRIHATININGRUM 13/10/1969 SAMBIREJO 4/2 GABUS KAB. PATI CADANGAN
1123 1100459204 AGUS SUYANTO, SKOM 24/04/1980 JL. DEMPEL BERLIAN I/28 RT.01/25 KOTA SEMARANG CADANGAN
1124 1100459205 MUSTA'IN KASTAM SARJI 09/01/1969 TELUK WETAN RT.011/002 KAB. JEPARA CADANGAN
1125 1100459206 BINTI MUSTAQIMAH HADI 6/9/1969 TELUK WETAN RT.011/002 KAB. JEPARA CADANGAN
1126 1100459207 MAGHFIROTUS SHOLIHAH 21/12/1972 TEGALARUM RT 01 RW 03 KAB. DEMAK CADANGAN
1127 1100459208 HERLINA FAJAR HIDAYAH 18/12/1982 SIBUNGKANG RT 01 RW 06 KAB. WONOSOBO CADANGAN
1128 1100459209 RAMINI 20/02/1973 PUCUNG RT. 04 RW. 03 KAB. KENDAL CADANGAN
1129 1100459210 MUH RIFA'I 06/02/1961 TEGALARUM RT 01 RW 03 KAB. DEMAK CADANGAN
1130 1100459211 AHMAD ASIEF ROISUL AMRI 21/03/2000 LING KRAJAN RT.02 RW.01 KAB. SEMARANG CADANGAN
1131 1100459215 TATA EKA SUDIGDA 02/06/1959 GLANTENGAN RT 03 RW 02 KAB. KUDUS CADANGAN
1132 1100459216 ATIYAH 09/10/1965 LINGK. KRAJAN RT.02 RW.01 KAB. SEMARANG CADANGAN
1133 1100459217 MIRROH FIKRIYATI 14/05/1981 GUMPANG PERMAI GG SATRIA RT.06/RW.03 KAB. SUKOHARJO CADANGAN
1134 1100459218 SUGINI, [Link] 21/01/1966 DUKUH WANATAWANG RT.03/05 YAMANSARI KAB. TEGAL CADANGAN
1135 1100459220 MASITOH, [Link] 30/03/1971 DUKUH WANATAWANG RT.03/05 YAMANSARI KAB. TEGAL CADANGAN
1136 1100459222 DAMIRI 30/03/1960 KARANGANYAR RT. 04 RW. 10 KAB. KENDAL CADANGAN
1137 1100459223 AZMI SRIWINTARI 19/05/1967 ROGOSUTAN 01/03 KAB. KLATEN CADANGAN
1138 1100459224 ABDUR ROZAQ 15/08/1978 TAMPIRJO RT.01/05 KOTA SEMARANG CADANGAN
1139 1100459226 SUPRIYANTO 8/10/1964 ROGOSUTAN 01/03 KAB. KLATEN CADANGAN
1140 1100459227 SITI MUBAROKAH 10/10/1980 TAMPIRJO RT 01 RW 05 ROWOSARI KOTA SEMARANG CADANGAN
1141 1100459229 FAUZI MUHAROM 05/02/1975 GUMPANG PERMAI GG SATRIA RT.06/RW.03 KAB. SUKOHARJO CADANGAN
1142 1100459232 SLAMET WIDODO 24/03/1975 MUNINGAN 02/06 KAB. KLATEN CADANGAN
1143 1100459233 BAMBANG MUNTAHA 21/3/1972 JL. JATIRAYA NO.82 RT.02 RW.03 KAB. SEMARANG CADANGAN
1144 1100459234 RONDIYAH 19/10/1969 PUCUNG RT. 04 RW. 03 KAB. KENDAL CADANGAN
1145 1100459235 SUNAMI 11/09/1961 KARANGANYAR RT.02/04 KAB. DEMAK CADANGAN
1146 1100459237 SITI KHOERIYAH 01/01/1974 JL. JATIRAYA NO.82 RT.01 RW.03 SAROWO KAB. SEMARANG CADANGAN
1147 1100459238 FAIZAH 02/12/1971 KP. SARIMANAN RT. 03 RW. 04 KAB. KENDAL CADANGAN
1148 1100459239 SUHARNI 8/1/1969 MUNINGAN 02/06 KAB. KLATEN CADANGAN
1149 1100459243 FAKHRI ARDIAN PUTRA 17/10/1994 GLANTENGAN KAB. KUDUS CADANGAN
1150 1100459245 FATIMATUZ ZAHRO ABDUL GONI 03/09/1979 SIDIGEDE 01/01 KAB. JEPARA CADANGAN
1151 1100459247 AHMAD SAID SARJO 07/06/1973 SRIKANDANG 01/05 KAB. JEPARA CADANGAN
1152 1100459248 MUHAMMAD SAIFUL MUTTAQIN 21/7/1981 WELAHAN 03/04 KAB. JEPARA CADANGAN
1153 1100459249 SRI WATI 12/10/1979 SAMAS RT 002 / RW 002 KAB. PATI CADANGAN
1154 1100459250 UNTUNG MARYADI 28/01/1963 KARANGSARI RT 01 RW 10 KAB. BOYOLALI CADANGAN
1155 1100459251 SITI ISTIKOMAH 05/08/1972 KEMBARAN 02/06 KAB. MAGELANG CADANGAN
1156 1100459252 KADRI 10/05/1964 PUCUNG RT. 04 RW. 03 KAB. KENDAL CADANGAN
1157 1100459253 IDA NUR HIDAJATI, DRA 19/02/1970 KEPUH RT. 01 RW. 03 KAB. KARANGANYAR CADANGAN
1158 1100459255 IFA DURROTI ABDUL SALAM 18/06/1987 SRIKANDANG 01/05 KAB. JEPARA CADANGAN
1159 1100459257 SAIFUL AMRI SUKRI 24/02/1981 TROSO RT.004/001 KAB. JEPARA CADANGAN
1160 1100459258 SAKDIYAH 4/10/1959 KRANGGAN WATES RT.01 RW.06 KAB. BATANG CADANGAN
1161 1100459259 PARANSIH WIDIYASTUTI 12/10/1968 KEPUH RT. 01 RW. 03 KAB. KARANGANYAR CADANGAN
1162 1100459261 SRI EKOWATI BAMBANG 02/01/1982 BACIN RT 03 RW 01 KAB. KUDUS CADANGAN
1163 1100459262 MUHAMMAD KAMIL DASIMIN 01/01/1970 PANDANGAN WETAN RT 008 RW 003 KRAGAN KAB. REMBANG CADANGAN
1164 1100459263 MASDUQI DARSONO SUKADI 08/07/1969 SIDIGEDE 01/01 KAB. JEPARA CADANGAN
1165 1100459264 SITI KUMARYATI 1/2/1966 KEMBARAN 02/06 KAB. MAGELANG CADANGAN
1166 1100459266 FADHOLI RATIP KORNADI 11/11/1981 BACIN RT 03 RW 01 KAB. KUDUS CADANGAN
1167 1100459268 FAZA AMALIA MUCHLIS 21/9/1981 WELAHAN 03/04 KAB. JEPARA CADANGAN
1168 1100459269 MUNTANAH 22/11/1963 KARANGANYAR RT. 04 RW. 10 KAB. KENDAL CADANGAN
1169 1100459270 NOER ADIBAH MUCHLIS 28/12/1985 TROSO RT.004/001 KAB. JEPARA CADANGAN
1170 1100459271 ROFIATUN DJASMURI ATMO 28/8/1972 SROBYONG RT.003/002 KAB. JEPARA CADANGAN
1171 1100459272 MUSLIHIN 31/12/1963 GINTUNGAN RT 01/05 KAB. PURWOREJO CADANGAN
1172 1100459273 MUHAMMAD NAUFAL MAROM 04/08/1983 WELAHAN 03/04 KAB. JEPARA CADANGAN
1173 1100459274 ABDULLAH AFIF GHOZALI 28/4/1971 SROBYONG RT.003/002 KAB. JEPARA CADANGAN
1174 1100459280 ANISAH 28/12/1971 JL. SRININDITO SELATAN IV RT 2 RW 2 KOTA SEMARANG CADANGAN
1175 1100459281 NUR SHOLIKAH 08/12/1988 WUWUR RT 002 / RW 001 KAB. REMBANG CADANGAN
1176 1100459282 UNTUNG PAMUJI 23/08/1967 JL. SRININDITO SELATAN IV RT.02/02 KOTA SEMARANG CADANGAN
1177 1100459283 MARYATI 16/09/1974 DAKAH RT. 05 RW. 04 KAB. KENDAL CADANGAN
1178 1100459284 SUPRIASTUTI 10/02/1964 KLIPANG PERMAI N - V NO 05 RT 10 RW 23 KOTA SEMARANG CADANGAN
1179 1100459285 TRI WIGATI 3/9/1977 JL. KENDALISODO KLAREYAN RT 02 RW 02 KAB. PEMALANG CADANGAN
1180 1100459286 AGUS SUBAGYO, [Link] 26/10/1959 BEJI RT. 02 RW. 03 KAB. KARANGANYAR CADANGAN
1181 1100459287 PARTINI, [Link] 31/01/1964 BEJI RT. 02 RW. 03 KAB. KARANGANYAR CADANGAN
1182 1100459290 SITI SANGIRAH 17/03/1969 CANDUK RT.03 RW.01 KAB. BANYUMAS CADANGAN
1183 1100459291 NUR ALI 12/02/1976 JL. KENDALISODO KELAREYAN RT 02 RW 02 KAB. PEMALANG CADANGAN
1184 1100459293 DARMI WIRJO KAMSU 14/04/1960 GLAGAH KULON RT 03 RW 01 KAB. KUDUS CADANGAN
1185 1100459299 HANDRIYANTO, ST 13/03/1973 JL. WIJAYA KUSUMA NO.59 RT.05 RW.04 KAB. SEMARANG CADANGAN
1186 1100459300 BUDIARTI, [Link] 7/10/1972 JL. WIJAYA KUSUMA NO.59 RT.05 RW.04 KAB. SEMARANG CADANGAN
1187 1100459301 PATUROHMAN 10/12/1964 [Link] RT.05 RW.01 KAB. PEMALANG CADANGAN
1188 1100459303 YUNIATUN 16/06/1971 [Link] SOKARAJA LOR RT 4 /4 KAB. BANYUMAS CADANGAN
1189 1100459306 SRI WAHYUNINGSIH, SPD 09/09/1959 JL. BUKIT KELAPA SAWIT VI/10 RT.01/11 KOTA SEMARANG CADANGAN
1190 1100459307 MASLIHATI 06/09/1986 SURUH KALONG RT. 06 RW. 07 KAB. KARANGANYAR CADANGAN
1191 1100459309 AGUNG JAYADI 27/9/1981 PARAKANCANGGAH RT 002 RW 007 KAB. BANJARNEGARA CADANGAN
NO NO. PORSI NAMA TANGGAL LAHIR ALAMAT KAB/KOTA KETERANGAN
1192 1100459312 BOEKHORI MARSATUN WAKID 10/12/1961 UJUNGWATU RT.003/002 [Link] KAB. JEPARA CADANGAN
1193 1100459313 WISMARESMI WARA DRUPADI 19/12/1995 SEMAWUNGDALEMAN RT 02/01 KAB. PURWOREJO CADANGAN
1194 1100459314 FERNICA SOFIA RINI 23/05/1982 PARAKANCANGGAH RT 002 RW 007 KAB. BANJARNEGARA CADANGAN
1195 1100459315 PARJONO 11/08/1978 SURUH KALONG RT. 06 RW. 07 KAB. KARANGANYAR CADANGAN
1196 1100459316 KENIA AYU SICA ORYZIANA 6/8/1996 KALIWATUKRANGGAN RT 01/01 KAB. PURWOREJO CADANGAN
1197 1100459317 ULISTINAH SUYUTI KUDASI 12/12/1975 UJUNGWATU RT.003/002 [Link] KAB. JEPARA CADANGAN
1198 1100459321 ALI SAFUAN SUTOMO 29/08/1973 PEKALONGAN 01/02 KAB. JEPARA CADANGAN
1199 1100459323 TAZKIA AMBARWATI 25/02/1991 LINGK. MARDISARI, NO.16, RT.09/RW.03 KAB. TEMANGGUNG CADANGAN
1200 1100459324 MUHAMMAD QOMARUDDIN 31/05/1971 PERUM GRIYA KENCANA RESIDENT KAB. KENDAL CADANGAN
1201 1100459325 IWAN SETIAWATI 16/02/1967 LINGK. MARDISARI, NO.16, RT.09/RW.03 KAB. TEMANGGUNG CADANGAN
1202 1100459326 ENDANG JAMALATUN ZAHROH 6/9/1974 PEKALONGAN 01/02 KAB. JEPARA CADANGAN
1203 1100459327 BUDIARSO, [Link] 30/12/1970 MANGGEH RT. 04 RW. 13 KAB. KARANGANYAR CADANGAN
1204 1100459328 FARIDAH HIDAYATI 14/4/1971 PERUM GRIYA KENCANA RESIDENT KAB. KENDAL CADANGAN
1205 1100459331 SITI ROHMI 10/12/1967 KRAJAN II, RT.05/RW.02 KAB. TEMANGGUNG CADANGAN
1206 1100459332 NOER IMA KALTSUM, [Link] 02/09/1971 MANGGEH RT. 04 RW. 13 KAB. KARANGANYAR CADANGAN
1207 1100459334 SUTARMI 30/1/1960 KRAJAN 1 RT02 RW01 KAB. TEMANGGUNG CADANGAN
1208 1100459335 DARYANTI 30/12/1962 MONGKO RT 25 RW 06 KAB. BOYOLALI CADANGAN
1209 1100459337 MAFRUDIN 18/08/1976 PINGIT LAWANG, RT.03/RW.02 KAB. TEMANGGUNG CADANGAN
1210 1100459338 SARBINI 07/01/1960 KARANGJOHO RT 19 RW 07 KAB. BOYOLALI CADANGAN
1211 1100459339 WATINI 22/07/1977 KARANGJOHO RT 19 RW 07 KAB. BOYOLALI CADANGAN
1212 1100459340 AR FUJIATUN 12/02/1981 PINGIT LAWANG, RT.03/RW.02 KAB. TEMANGGUNG CADANGAN
1213 1100459341 KINTAN AYU SIVA SALSABILA 21/09/1999 KALIWATUKRANGGAN RT 01/01 KAB. PURWOREJO CADANGAN
1214 1100459342 UMAR SUYUTI 20/06/1981 [Link] RT01 RW04 KAB. TEMANGGUNG CADANGAN
1215 1100459343 TRI MAKNO WIDODO 21/08/1980 WONOSEGORO RT 03 RW 05 KAB. BOYOLALI CADANGAN
1216 1100459344 UMI FITRIYANI 15/06/1985 [Link] RT01 RW04 KAB. TEMANGGUNG CADANGAN
1217 1100459346 SUMIYATI DIRJO PAWIRO 02/08/1968 BLATER RT. 02. 01 PONCOWARNO KAB. KEBUMEN CADANGAN
1218 1100459347 SUMBONO DIRAN DULAH MUKMIN 23/04/1961 BLATER RT.02/01 KAB. KEBUMEN CADANGAN
1219 1100459350 ANI ROHANAH 5/5/1966 GADINGAN RT 03 RW 01 KAB. WONOSOBO CADANGAN
1220 1100459353 SURATMI 31/12/1964 DURUHAN RT 01 RW 04 KAB. BOYOLALI CADANGAN
1221 1100459356 SUWARDI 31/12/1962 PECING RT 03/14 KAB. SRAGEN CADANGAN
1222 1100459357 MOKHAMAD HASANNUDIN 15/09/1999 SINGOROJO 01/02 KAB. JEPARA CADANGAN
1223 1100459358 AMINI 25/09/1959 WONOSEGORO RT 03 RW 05 KAB. BOYOLALI CADANGAN
1224 1100459362 DASIKUN SALAWI SALELI 3/5/1964 SINGOROJO RT.001/002 KAB. JEPARA CADANGAN
1225 1100459363 MARINEM 31/12/1969 PECING RT 03/14 KAB. SRAGEN CADANGAN
1226 1100459364 SUTRIYANTO SOEKADI DJAMBARI 30/03/1971 JINGGOTAN RT.001/003 [Link] KAB. JEPARA CADANGAN
1227 1100459366 SRI ASWATI ABDUL CHAMID 02/04/1968 JINGGOTAN RT.001/003 [Link] KAB. JEPARA CADANGAN
1228 1100459367 MARYATI KASTO TORO 12/06/1965 KENDENGSIDIALIT RT.004/001 KAB. JEPARA CADANGAN
1229 1100459369 NGASIATUN 10/08/1963 KLOPODUWUR RT 08/02 KAB. BLORA CADANGAN
1230 1100459370 BASUKI 14/05/1959 KLOPODUWUR RT 08/02 KAB. BLORA CADANGAN
1231 1100459372 SUGIONO 12/08/1962 JL. COCAK RAWA 53 RT 04/05 KAB. BLORA CADANGAN
1232 1100459373 SUMINAH 25/08/1974 SIDAKATON RT.04/01 DUKUHTURI KAB. TEGAL CADANGAN
1233 1100459374 BUDIYANTI 08/04/1964 [Link] RAWA 53 RT 04/05 KAB. BLORA CADANGAN
1234 1100459378 KARNADI 07/03/1968 SIDAKATON RT.04/01 DUKUHTURI KAB. TEGAL CADANGAN
1235 1100459381 PIDIYANI 04/06/1974 GRINGSING RT.02 RW.07 KAB. BATANG CADANGAN
1236 1100459382 NINING ERTANTI 30/03/1961 DUKUHTENGAH RT.05/02 MARGASARI KAB. TEGAL CADANGAN
1237 1100459383 KHALIMAH 04/03/1977 GRINGSING RT.02 RW.07 KAB. BATANG CADANGAN
1238 1100459384 AGUS KHABIB 18/09/1977 KAUMAN RT.13/07 KAUMAN WIRADESA KAB. PEKALONGAN CADANGAN
1239 1100459388 MOCH. SYIFA 05/08/1968 SEMUT RT.01/01 WONOKERTO KAB. PEKALONGAN CADANGAN
1240 1100459389 MASNUR MAEMANAH 2/4/1961 PRAPAG KIDUL RT.01/03 LOSARI KAB. BREBES CADANGAN
1241 1100459390 MURJIYAH 10/12/1957 PANDANSIMPING 01/03 KAB. KLATEN CADANGAN
1242 1100459391 NAPIYAH 28/02/1969 SEMUT RT.01/01 WONOKERTO KAB. PEKALONGAN CADANGAN
1243 1100459392 HENDRO YULIARTO 15/07/1983 PANDANSIMPING 01/03 KAB. KLATEN CADANGAN
1244 1100459393 TIFLATUN KHORIYATUN LAELA 20/06/1977 PURBAYASA RT. 04/01 TONJONG KAB. BREBES CADANGAN
1245 1100459394 ANGGRAINI LILIS PROBOWATI 15/03/1986 PANDANSIMPING 01/03 KAB. KLATEN CADANGAN
1246 1100459395 MAKINUN AMIN 26/09/1972 PURBAYASA RT. 04/01 TONJONG KAB. BREBES CADANGAN
1247 1100459397 AGOES MOERWANTO 26/08/1971 BOJANEGARA NO 05 RT 02 RW 04 KAB. PURBALINGGA CADANGAN
1248 1100459398 SUTARTI 4/8/1960 SAMBIJAJAR RT.02 RW.05 KAB. WONOGIRI CADANGAN
1249 1100459399 PONIYEM 16/11/1965 GUMULAN 02/01 KAB. KLATEN CADANGAN
1250 1100459400 LUXIA FAJARATI 20/03/1984 BOJANEGARA NO 05 RT 02 RW 04 KAB. PURBALINGGA CADANGAN
1251 1100459402 ROHAYATI 01/04/1970 JL KELINCI UTARA I NO.12 RT.05/03 BREBES KAB. BREBES CADANGAN
1252 1100459404 IDA SULIANTARI SUSMARTINA 27/02/1962 BATURETNO KAB. WONOGIRI CADANGAN
1253 1100459405 SRI SUGIYARTI 31/05/1970 JATI RT.03 RW.02 KAB. WONOGIRI CADANGAN
1254 1100459406 SUPRIYANTO 4/12/1967 JATI RT.03 RW.02 KAB. WONOGIRI CADANGAN
1255 1100459407 WAHYUNI 12/10/1960 JATINOM RT.06 RW.02 KAB. WONOGIRI CADANGAN
1256 1100459408 SUGITO 12/08/1958 JATINOM RT.06 RW.02 KAB. WONOGIRI CADANGAN
1257 1100459409 TRI HARNANI 15/08/1972 KRAJANSARI RT.02/06 KEBUMEN BANYUBIRU KAB. SEMARANG CADANGAN
1258 1100459411 SUMI 13/03/1967 JAIMAS 04/02 KAB. GROBOGAN CADANGAN
1259 1100459414 SRI MARTINI 04/09/1967 PLOSO RT.01 RW.07 KAB. WONOGIRI CADANGAN
1260 1100459416 KURNIAWAN KARTIKA PUTRA 29/05/1995 DUKUH KEDEMANGAN RT.04/08 LEBAKSIU LOR KAB. TEGAL CADANGAN
1261 1100459417 WIJI MARTUTI 01/03/1966 DUKUH KEDEMANGAN RT.04/08 LEBAKSIU LOR KAB. TEGAL CADANGAN
1262 1100459419 SITI NURHIDAYATI 06/03/1972 KARANGLO 07/03 KAB. KLATEN CADANGAN
1263 1100459420 RAJAN 20/07/1963 GUNUNGLURAH RT. 5/5 KAB. BANYUMAS CADANGAN
1264 1100459421 SITI CHASANAH 27/03/1969 GUNUNGLURAH RT. 5/5 KAB. BANYUMAS CADANGAN
1265 1100459422 AHMAD FURQON 29/07/1974 KADEMANGAN RT.04/08 LEBAKSIU LOR KAB. TEGAL CADANGAN
1266 1100459423 SUTRISNO 05/07/1962 PLOSO RT.01 RW.07 KAB. WONOGIRI CADANGAN
1267 1100459426 JUBAEDAH 02/05/1972 JL. PALA 6 NO.14 RT.07/10 MEJASEM BARAT KAB. TEGAL CADANGAN
1268 1100459427 JOKO SUSILO 22/07/1965 JL. PALA 6 NO.14 RT.07/10 MEJASEM BARAT KAB. TEGAL CADANGAN
1269 1100459428 HANITA WIDYASTUTI 24/04/1971 PERUM KOWANGAN UTAMA M.18 RT04 RW05 KAB. TEMANGGUNG CADANGAN
1270 1100459429 AGUS WIJATMIKO 09/09/1966 PERUM KOWANGAN UTAMA M.18 RT04 RW05 KAB. TEMANGGUNG CADANGAN
1271 1100459430 SRI WAHYUNINGSIH 05/06/1968 PAGEYAN RT.01 RW.08 KAB. WONOGIRI CADANGAN
1272 1100459432 ZUMAROH 07/02/1959 HARJOWINANGUN BARAT TEMPURAN RT.03 RW.02 KAB. BATANG CADANGAN
1273 1100459436 WACHTIN PURWANTINI 30/06/1962 KEBORANGAN RT.01 RW.01 KAB. BATANG CADANGAN
1274 1100459437 SITI MARYAM 15/02/1969 SUMBAGA RT.02/02 BUMIJAWA KAB. TEGAL CADANGAN
1275 1100459438 EKO PRASETIYO AJI 23/04/1966 BAJINGJOWO RT 012 RW 004 SARANG KAB. REMBANG CADANGAN
1276 1100459439 ASIKIN 10/07/1965 SUMBAGA RT.02/02 BUMIJAWA KAB. TEGAL CADANGAN
1277 1100459440 ADHIKA DIRGANTARA 10/06/1981 [Link] RT.29/10 NO.828 BUARAN KAB. PEKALONGAN CADANGAN
1278 1100459441 SRI SUGININGSIH 27/02/1977 KADEMANGAN RT.04/08 LEBAKSIU LOR KAB. TEGAL CADANGAN
1279 1100459442 MUNADI, SH 12/05/1962 KARANGJATI RT.04 RW.03 KAB. SEMARANG CADANGAN
1280 1100459444 VESTA FIDENTIA 14/03/1982 JL. KERTIJAYAN RT.29/10 NO.828 BUARAN KAB. PEKALONGAN CADANGAN
1281 1100459446 JUMADI 13/04/1966 PAGEYAN RT.01 RW.08 KAB. WONOGIRI CADANGAN
1282 1100459447 ELLY MULYATI 10/09/1978 KEBANDINGAN RT.16/04 KEDUNGBANTENG KAB. TEGAL CADANGAN
1283 1100459448 MOHAMAD SUBEHAN, [Link] 05/02/1980 KEBANDINGAN RT.16/04 KEDUNGBANTENG KAB. TEGAL CADANGAN
1284 1100459449 ADY NUGROHO 20/05/1979 JL. KABA RAYA NO. 28 RT.02/11 KOTA SEMARANG CADANGAN
1285 1100459450 SOLIKHIN 16/04/1961 [Link] RT.04 RW.03 KAB. PEMALANG CADANGAN
1286 1100459452 SYUKRON AHMAD 11/02/1958 [Link] PEKAJANGAN RT.02/01 KEDUNGWUNI KAB. PEKALONGAN CADANGAN
1287 1100459453 SUTIMAN 21/4/1960 DEMANGAN RT. 01 RW. 14 KAB. KARANGANYAR CADANGAN
1288 1100459454 SULIAH 30/11/1960 [Link] RT.04 RW.03 KAB. PEMALANG CADANGAN
1289 1100459456 YUNI LISTIANTI, SPD 08/06/1980 JL. KABA RAYA NO.28 RT.02/11 KOTA SEMARANG CADANGAN
1290 1100459457 RINA INDRA ISWARI 6/2/1994 PER. GRIYA SEKAR GADING K-11 RT 006 / RW 003KOTA SEMARANG CADANGAN
1291 1100459460 SUWANTI 13/10/1965 SUMINGKIR RT 02 RW 01 KAB. PURBALINGGA CADANGAN
1292 1100459461 NURAENI 01/07/1958 BODEH RT.05 RW.02 KAB. PEMALANG CADANGAN
1293 1100459462 PURWANTO 20/09/1963 SUMINGKIR RT 02 RW 01 KAB. PURBALINGGA CADANGAN
1294 1100459463 SUWARNO BASTAM SAELAN 29/09/1960 MOJOWARNO RT 001 RW 001 KALIORI KAB. REMBANG CADANGAN
1295 1100459464 AMAR MUSODIK 29/07/1982 KALILUNJAR RT 001 RW 003 KAB. BANJARNEGARA CADANGAN
1296 1100459465 TUTIYAH 18/6/1983 KALILUNJAR RT 001/003 KAB. BANJARNEGARA CADANGAN
1297 1100459466 ROBIYATUN 25/12/1985 DK TEMPUR RT 11 RW 02 KAB. REMBANG CADANGAN
1298 1100459467 AZHAR ZUBAEDI,[Link] 04/04/1965 PENDOWO RT.02 RW.03 KAB. PEMALANG CADANGAN
1299 1100459469 ABDI DARUZZAMAN NOOR, [Link] 04/05/1973 BOJONG RT.09/02 KAB. TEGAL CADANGAN
1300 1100459470 ROHIMAH 02/01/1974 PENDOWO RT. 02 RW. 03 KAB. PEMALANG CADANGAN
1301 1100459473 SRI YUNIATI 14/01/1966 PER. GRIYA SEKAR GADING K-11 RT.06/03 KOTA SEMARANG CADANGAN
1302 1100459474 IDA BARRU FITRIYAH, DR 15/08/1980 BOJONG RT.09/02 KAB. TEGAL CADANGAN
1303 1100459476 NANIK ANITASARI BASIRAN 04/01/1972 BAKALANKRAPYAK RT 03 RW 04 KAB. KUDUS CADANGAN
1304 1100459477 BADRIYAH 21/9/1972 KERTIJAYAN GG.13 RT.30/10 BUARAN KAB. PEKALONGAN CADANGAN
1305 1100459478 RIJAWAN SENOADJI RAMELAN 14/11/1972 BAKALANKRAPYAK RT 03 RW 04 KAB. KUDUS CADANGAN
1306 1100459479 RODHIYAH ACHMAD NURSAN 08/01/1967 PANDEAN RT 003 RW 002 REMBANG KAB. REMBANG CADANGAN
1307 1100459480 SOFWAN 18/03/1961 [Link] BARAT RT.01 RW.02 KAB. PEMALANG CADANGAN
1308 1100459481 HERMAN SUKOCO SOEMARNO 19/09/1968 PANDEAN RT 003 RW 002 REMBANG KAB. REMBANG CADANGAN
1309 1100459482 MAESAROH 13/07/1969 DK. KRAJAN BARAT RT. 01 RW. 02 KAB. PEMALANG CADANGAN
1310 1100459483 TARYATI 15/04/1974 ARCAWINANGUN RT.03 RW.05 KAB. BANYUMAS CADANGAN
1311 1100459484 RUSYANTO 06/07/1964 ARCAWINANGUN RT 003 RW 005 KAB. BANYUMAS CADANGAN
1312 1100459486 FITROTUL AIDA 12/03/1997 KERTIJAYAN GG.13 RT.30/10 BUARAN KAB. PEKALONGAN CADANGAN
1313 1100459487 ANY PUJI ARIANTI 01/01/1968 GABAHAN RT.04/RW.12 KAB. SUKOHARJO CADANGAN
1314 1100459488 NICA SISWI AYU ADININGRUM 06/05/1996 GABAHAN RT. 04/12 KAB. SUKOHARJO CADANGAN
1315 1100459490 MUHAMAD ARIFIN 18/08/1974 DUSUN CIKALONG RT02 RW04 KAB. CILACAP CADANGAN
1316 1100459492 ADITYA ARYA PUTRA WIRA PRADANA 23/09/1998 GABAHAN RT.04/12 KAB. SUKOHARJO CADANGAN
1317 1100459493 SUMADI 27/01/1964 GABAHAN RT.04/RW.12 KAB. SUKOHARJO CADANGAN
1318 1100459494 MOHAMAD KHUSNUDIN 02/11/1960 BULUPAYUNG RT.01 RW.02 KAB. CILACAP CADANGAN
1319 1100459495 MASITOH 14/08/1965 BULUPAYUNG RT.01 RW.02 KAB. CILACAP CADANGAN
NO NO. PORSI NAMA TANGGAL LAHIR ALAMAT KAB/KOTA KETERANGAN
1320 1100459496 CAHYONO TOKRIB SITI 12/3/1964 PRAWOTO 1/3 SUKOLILO KAB. PATI CADANGAN
1321 1100459497 MARYONO 28/12/1966 WONOSARI RT.01/RW.01 KAB. SUKOHARJO CADANGAN
1322 1100459500 MUSRIYAH SUJADI SUJARMI 27/06/1967 PRAWOTO 1/3 SUKOLILO KAB. PATI CADANGAN
1323 1100459504 UTOYO 18/09/1968 CANTEL KULON RT 02/22 KAB. SRAGEN CADANGAN
1324 1100459505 M. MUTAWALI 08/06/1974 KARANGJOMPO RT.03/01 TIRTO KAB. PEKALONGAN CADANGAN
1325 1100459506 SRI SUPATMI 3/3/1973 CANTEL KULON RT 02/22 KAB. SRAGEN CADANGAN
1326 1100459507 NUR KHIKMAH 13/10/1979 KARANGJOMPO RT.03/01 TIRTO KAB. PEKALONGAN CADANGAN
1327 1100459508 ISYAK NURHADI 22/11/1973 DUSUN GENTAN LOR RT.05 RW.03 KAB. KENDAL CADANGAN
1328 1100459509 SOLIKHIN 05/05/1962 TUNJUNG RT 03 RW 02 KAB. BANYUMAS CADANGAN
1329 1100459510 RINA NUGROHO 24/02/1981 DUSUN GENTAN LOR RT.05 RW.03 KAB. KENDAL CADANGAN
1330 1100459514 LILIK BIDAYATI ROHMAH 03/09/1976 JEKULO RT 03 RW 09 KAB. KUDUS CADANGAN
1331 1100459515 ZUMAROH MUNAWIR DULAH DAROJI 11/02/1973 SELANG RT. 02. 02 KAB. KEBUMEN CADANGAN
1332 1100459516 SUHARYOTO 18/6/1962 [Link] IV/160 TANJUNG RT. 5/7 KAB. BANYUMAS CADANGAN
1333 1100459518 AHMAD SODIKIN 27/10/1966 LEGOKSARI RT.03 RW.03 KAB. SEMARANG CADANGAN
1334 1100459519 ISYANI 12/04/1971 LEGOKSARI RT.03 RW.03 KAB. SEMARANG CADANGAN
1335 1100459521 USWATUN CHASANAH 22/08/1971 KARANGLO RT 01 RW 01 KAB. BANYUMAS CADANGAN
1336 1100459522 SUPARTI 4/1/1971 BAYEMREJO RT 05 RW 03 KAB. BOYOLALI CADANGAN
1337 1100459523 NOFI SETIA BUDI 22/11/1968 KARANGLO RT 01 / 01 KAB. BANYUMAS CADANGAN
1338 1100459525 ARI KURNIAWAN MUJAHID 04/12/1974 SELANG RT.02/02 KAB. KEBUMEN CADANGAN
1339 1100459526 FITRIA ROHMAH 30/06/1984 BAGAN RT 01/01 KAB. SRAGEN CADANGAN
1340 1100459527 MUHAMMAD AGUS YUSRUN NAFI' 15/04/1976 JEKULO RT 03 RW 09 KAB. KUDUS CADANGAN
1341 1100459528 MAHMUD ANNA 22/1/1979 BAGAN RT 01/01 KAB. SRAGEN CADANGAN
1342 1100459529 SUKIYATI HARIATMI 16/11/1962 MERANTI IV/ 160 TANJUNG ELOK RT 5/7 KAB. BANYUMAS CADANGAN
1343 1100459532 ROZIQOH 12/06/1978 BENDA II RT. 02/02 SIRAMPOG KAB. BREBES CADANGAN
1344 1100459534 SRI MULYATI 13/08/1959 KEBONAGUNG RT.03 RW.01 KAB. WONOGIRI CADANGAN
1345 1100459536 KASNARI 05/12/1958 [Link] BARAT II NO.136 RT.01 RW.14 KAB. PEMALANG CADANGAN
1346 1100459537 KUSDIYATNI 03/03/1963 JL. SAMOSIR BARAT II N. 136 RT. 01 / 14 KAB. PEMALANG CADANGAN
1347 1100459540 ROHMADI 02/05/1968 SUMENGKO RT 03/12 KAB. SRAGEN CADANGAN
1348 1100459541 JAMIL 10/2/1960 SROWOT RT 04 RW 03 KAB. BANYUMAS CADANGAN
1349 1100459542 DIDHING SUPARITI 27/12/1970 SUMENGKO RT 03/12 KAB. SRAGEN CADANGAN
1350 1100459543 SUWARTO SYARIFUDIN 5/7/1972 JANTUNG RT 05 RW 02 KAB. BOYOLALI CADANGAN
1351 1100459546 SRIYATI 23/12/1976 JANTUNG RT 05 RW 02 KAB. BOYOLALI CADANGAN
1352 1100459547 IMAM WAHYUDI SUBADI 24/11/1963 JATI KULON RT 02 RW 05 KAB. KUDUS CADANGAN
1353 1100459549 MUGIYANTO 15/06/1966 DOMPON RT. 03 RW. 09 KAB. KARANGANYAR CADANGAN
1354 1100459550 SULIYAH 21/05/1970 SROWOT RT. 4/3 KAB. BANYUMAS CADANGAN
1355 1100459551 MUJAYIN 04/06/1962 MOJOREJO RT 05 RW 06 KAB. BOYOLALI CADANGAN
1356 1100459552 SUMARNI 08/09/1963 DOMPON RT. 03 RW. 09 KAB. KARANGANYAR CADANGAN
1357 1100459553 PURWANTI MARTOMINO JOIKROMO 26/02/1967 JATI KULON RT 02 RW 05 KAB. KUDUS CADANGAN
1358 1100459554 JANATUN, [Link] 06/01/1962 DEMANGAN RT. 01 RW. 14 KAB. KARANGANYAR CADANGAN
1359 1100459555 INTIYAH 25/3/1972 MOJOREJO RT 05 RW 06 KAB. BOYOLALI CADANGAN
1360 1100459556 AHMAD MUDZAKIR DUL DJAPAR 17/12/1967 BUMIREJO RT.02/04 KAB. KEBUMEN CADANGAN
1361 1100459557 YANUAR BUDILAKSONO 05/01/1985 JL. PANDEMEN SIDABOWA RT.03/05 PATIKRAJA BANYUMAS
KAB. BANYUMAS CADANGAN
1362 1100459558 MUKHIT ABDUL MUIN 07/04/1964 DLIKOSARI RT.04 RW.02 KOTA SALATIGA CADANGAN
1363 1100459559 SULASTRI SH 14/08/1975 JL. OTTO ISKANDAR DINATA RT.01 RW.01 KOTA TEGAL CADANGAN
1364 1100459562 MOH. MUDAKIR, SH 12/04/1972 JL. OTTO ISKANDAR DINATA RT.01 RW.01 KOTA TEGAL CADANGAN
1365 1100459566 NGATIPAH DJASWADI DARMO 4/8/1968 WARU RT 005 RW 003 REMBANG KAB. REMBANG CADANGAN
1366 1100459568 SITI AFIFAH FAUZI KUSEN 30/11/1979 PAMOTAN RT 002 RW 004 PAMOTAN KAB. REMBANG CADANGAN
1367 1100459569 AMIR MAHMUD SUKANDAR 05/10/1970 PAMOTAN RT 002 RW 004 PAMOTAN KAB. REMBANG CADANGAN
1368 1100459570 SUDARMAN 19/04/1961 DSN. DUREN RT.01 RW.04 KAB. SEMARANG CADANGAN
1369 1100459571 GUNADI SASMITO 27/06/1966 SINDURJAN RT. 05/03 PURWOREJO KAB. PURWOREJO CADANGAN
1370 1100459572 SRI HANDAYANI 25/03/1965 KARANGGAMBAS RT 02 RW 04 KAB. PURBALINGGA CADANGAN
1371 1100459574 SUJIYATUN 15/09/1965 DSN. DUREN RT.01 RW.04 KAB. SEMARANG CADANGAN
1372 1100459576 ROTO SUYONO 17/08/1962 JL. SEKAR JAGAT NO.2 SARIMULYO RT .06/02 KOTA SURAKARTA CADANGAN
1373 1100459577 RASAM 04/04/1959 JL. ADIPATI MERSI NO.59 RT.01 RW.05 KAB. BANYUMAS CADANGAN
1374 1100459579 SUDARNO SISWOYO SANMUSTAWI 02/10/1957 BLATER RT. 02. 01 PONCOWARNO KAB. KEBUMEN CADANGAN
1375 1100459580 SRI HASTUTI PURWANI 15/05/1964 KETONGGO RT.01 RW.01 KAB. WONOGIRI CADANGAN
1376 1100459581 SUCAHYO HADI F 13/4/1974 PUCANG RT 003/009 KAB. BANJARNEGARA CADANGAN
1377 1100459582 TIEN ESKANANTI 27/11/1975 PUCANG RT 003 RW 009 KAB. BANJARNEGARA CADANGAN
1378 1100459583 RUSDIYATI MOHAMAD SAHID 07/12/1960 BLATER RT.02/01 KAB. KEBUMEN CADANGAN
1379 1100459584 PARTOYO 02/03/1959 KETONGGO RT.01 RW.01 KAB. WONOGIRI CADANGAN
1380 1100459585 NANGIMAH 15/05/1958 REJASARI RT 004 RW 003 KAB. BANJARNEGARA CADANGAN
1381 1100459586 DIAH DAMAYANTI KUSUMANINGTIAS 17/08/1970 KUNIRAN 3/3 BATANGAN KAB. PATI CADANGAN
1382 1100459587 SRI SUKARYANI 22/03/1980 BALEDONO RT. 01/08 PURWOREJO KAB. PURWOREJO CADANGAN
1383 1100459588 KOMARUDIN 15/07/1977 CANGKRING RT.01/01 TALANG KAB. TEGAL CADANGAN
1384 1100459589 FATCHANUDIN 10/09/1979 BALEDONO RT. 01/08 PURWOREJO KAB. PURWOREJO CADANGAN
1385 1100459590 BIASAYUDYAH SEKAR WANGI 09/11/2000 KUNIRAN 3/3 BATANGAN KAB. PATI CADANGAN
1386 1100459591 NUR KHOIRI 25/05/1962 [Link] RT.15/07 JREBENGKEMBANG KAB. PEKALONGAN CADANGAN
1387 1100459593 KOWIYATI 24/08/1970 [Link] RT.15/07 JREBENGKEMBANG KAB. PEKALONGAN CADANGAN
1388 1100459594 MALIKHATUN 12/05/1976 CANGKRING RT.01/01 TALANG KAB. TEGAL CADANGAN
1389 1100459595 SUPRATNO QOMARI SRIWATI 15/05/1970 KUNIRAN 3/3 BATANGAN KAB. PATI CADANGAN
1390 1100459596 DRADJAD PRASONGKO, SE 25/02/1968 LEMPUYANG III NO 519 RT 11 RW 08 KOTA SEMARANG CADANGAN
1391 1100459597 MISTAM 10/09/1957 REJASARI RT 004 RW 003 KAB. BANJARNEGARA CADANGAN
1392 1100459598 MUHAMMAD RIZA EKO SAPUTRO 27/02/1991 BENDUNGAN RT. 02 RW. 12 KAB. KARANGANYAR CADANGAN
1393 1100459599 SOKIBI MARNAWI NGAIRAH 21/4/1959 TLOGOSARI 2/1 TLOGOWUNGU KAB. PATI CADANGAN
1394 1100459600 JUMINI NASIBAN SUMINI 18/10/1965 TLOGOSARI 2/1 TLOGOWUNGU KAB. PATI CADANGAN
1395 1100459601 BARISTINA SARI, SE 26/12/1963 BENDUNGAN RT. 02 RW. 12 KAB. KARANGANYAR CADANGAN
1396 1100459603 URIPAH SA'DATUNISA 08/02/2001 [Link] NO.119 RT 002 / RW 001 KAJEN KAB. PEKALONGAN CADANGAN
1397 1100459604 MAGHFUROTUL ALIYAH 18/05/1967 PENDAWA RT.07/06 LEBAKSIU KAB. TEGAL CADANGAN
1398 1100459605 KHURIROH 25/04/1968 JL. DIPONEGORO NO.119 RT.02/01 KAJEN KAB. PEKALONGAN CADANGAN
1399 1100459606 NARTI 06/11/1973 JETIS 03/15 KAB. KLATEN CADANGAN
1400 1100459612 SANGADI 6/7/1969 JETIS 03/15 KAB. KLATEN CADANGAN
1401 1100459613 WASRIYAH 31/12/1960 LEDUG RT. 4/4 KAB. BANYUMAS CADANGAN
1402 1100459614 MULYANI 28/03/1974 WONOWOSO RT 01/08 KAB. SRAGEN CADANGAN
1403 1100459616 DEWI DHOMROH AHYAS 05/06/1962 GENENG 14/03 KAB. JEPARA CADANGAN
1404 1100459618 MAKMUN KHOIRI NGARPANI 3/9/1957 GENENG 14/03 KAB. JEPARA CADANGAN
1405 1100459621 NORWAHID 14/12/1957 JATIREJO RT.12/02 KAB. DEMAK CADANGAN
1406 1100459622 SULASMI 04/03/1964 DK. KARANGJOHO RT.02/RW.01 KAB. KENDAL CADANGAN
1407 1100459624 SARTINI 17/01/1966 JATIREJO RT.12/02 KAB. DEMAK CADANGAN
1408 1100459626 JUAIR [Link], MM 08/02/1974 TUTUP RT 01 RW 01 KAB. BLORA CADANGAN
1409 1100459627 MUHAMMAD ZAENURI SAHAD 08/06/1976 KALIPUCANG WETAN RT.001/001 KAB. JEPARA CADANGAN
1410 1100459628 SRI SUSWIHARTINI 05/07/1967 [Link] V/32 RT.01 RW.017 KAB. PEMALANG CADANGAN
1411 1100459629 ZULIYATI MAHDUM KAMDI 15/07/1981 KALIPUCANG WETAN 001/001 KAB. JEPARA CADANGAN
1412 1100459631 KHILYA ULIN NUR 17/07/1984 TUTUP RT 01 RW 01 KAB. BLORA CADANGAN
1413 1100459632 SRI WAHYUNI 22/04/1966 MAGANGREJO RT 09 RW 02 KAB. BOYOLALI CADANGAN
1414 1100459634 NURUL FADHILAH 03/01/1961 PROYONANGGAN SELATAN DRACIK KRAMAT 02/01 KAB. BATANG CADANGAN
1415 1100459635 DWI YONO 29/08/1963 MAGANG REJO RT 09 RW 02 KAB. BOYOLALI CADANGAN
1416 1100459639 HERI KRISTIONO 18/03/1971 KP. PUNGKURAN RT. 04 RW. 03 KAB. KENDAL CADANGAN
1417 1100459643 ROSIYAH 20/02/1960 MAJALENGKA RT 002 RW 006 KAB. BANJARNEGARA CADANGAN
1418 1100459644 MUHARI, SPD 07/02/1969 TEMPEL RT.01 RW.07 KOTA SURAKARTA CADANGAN
1419 1100459646 SITI SHOFIYAH 16/03/1976 SEMBUNGHARJO RT.02/04 KOTA SEMARANG CADANGAN
1420 1100459647 ALI MAS'UD 10/04/1967 SEMBUNGHARJO RT.02/04 KOTA SEMARANG CADANGAN
1421 1100459650 KASTIYAH 12/06/1969 GATAK RT. 06 RW. 03 KAB. KENDAL CADANGAN
1422 1100459651 WINTO 04/04/1973 [Link] RT.05/02 KANDANGSERANG KAB. PEKALONGAN CADANGAN
1423 1100459652 KUSWANDI 04/05/1965 JL. JAGAPATI RT.012 RW.006 KAB. CILACAP CADANGAN
1424 1100459653 MARIYAH 05/10/1980 [Link] RT.05/02 KANDANGSERANG KAB. PEKALONGAN CADANGAN
1425 1100459654 KHABIBAH HASAN MASHURI 22/07/1964 BUMIREJO RT.02/04 KAB. KEBUMEN CADANGAN
1426 1100459655 SUTARMI 02/08/1967 JL. JAGAPATI NO.69 RT.012 RW.69 KAB. CILACAP CADANGAN
1427 1100459656 SUPRIYATI 26/05/1965 JL. JAGAPATI NO.69 RT.12 RW.06 KAB. CILACAP CADANGAN
1428 1100459660 NUR WACHIDAH 01/07/1978 KP. PUNGKURAN RT. 04 RW. 03 KAB. KENDAL CADANGAN
1429 1100459661 SURADI 12/04/1964 TANDON RT.02 RW.02 KAB. WONOGIRI CADANGAN
1430 1100459663 SUDARYANTI 12/05/1967 TANDON RT. 02 RW. 02 KAB. WONOGIRI CADANGAN
1431 1100459664 AGUS MUHLISUN 17/08/1973 SODONG RT.01 RW.05 WADAS LINTANG KAB. WONOSOBO CADANGAN
1432 1100459665 MUHAMAD WAKHID NURUDIN 20/04/1984 DK JOHO RT 03 RW 01 KAB. KEBUMEN CADANGAN
1433 1100459666 SRI WAHYUNI 05/07/1965 PURWOREJO RT 08 RW 02 KAB. BOYOLALI CADANGAN
1434 1100459668 ENY KUWATI MOHAMAD DAIR 21/7/1957 RANTEREJO RT.03/01 KAB. KEBUMEN CADANGAN
1435 1100459669 WASIYEM 23/12/1959 JL. TUNA KRAMA RT. 01 RW. 07 KAB. CILACAP CADANGAN
1436 1100459670 SUNARDI 07/09/1963 PURWOREJO RT 08 RW 02 KAB. BOYOLALI CADANGAN
1437 1100459671 MAR'AH 06/06/1960 TONJONG RT.01/04 TONJONG KAB. BREBES CADANGAN
1438 1100459672 MASTURIN ROHMAT HARUN 03/04/1970 TUMPANGKRASAK RT 03 RW 07 KAB. KUDUS CADANGAN
1439 1100459673 SUYATNO 05/06/1962 KARANGTENGAH RT. 11 RW. 04 KAB. KARANGANYAR CADANGAN
1440 1100459676 EKO NUR KHAYATI 21/05/1980 BRAMBANG RT.01/01 KAB. DEMAK CADANGAN
1441 1100459677 SITI AMAROH MASIRAN 05/05/1974 TUMPANGKRASAK RT 03 RW 07 KAB. KUDUS CADANGAN
1442 1100459679 SUWANTI 07/06/1967 KARANGTENGAH RT. 11 RW. 04 KAB. KARANGANYAR CADANGAN
1443 1100459680 WINARTO 14/09/1966 PUCUNG 05/03 KAB. MAGELANG CADANGAN
1444 1100459681 ENDAH WINARNI 11/09/1975 GOMBANG 02/05 KAB. KLATEN CADANGAN
1445 1100459682 UUD THONY WIBOWO 13/3/1976 GOMBANG 02/05 KAB. KLATEN CADANGAN
1446 1100459683 ARTI RAHAYU 16/11/1970 PUCUNG 05/03 KAB. MAGELANG CADANGAN
1447 1100459688 ISHARININGRUM 01/01/1981 KALANGAN RT 04 KAB. SRAGEN CADANGAN
NO NO. PORSI NAMA TANGGAL LAHIR ALAMAT KAB/KOTA KETERANGAN
1448 1100459689 RUSMANTO SUTRIMAN SABAR 04/10/1969 TAHUNAN 01/03 KAB. JEPARA CADANGAN
1449 1100459690 NUR ARIFAH 17/3/1967 DARMAKRADENAN RT.05 RW.01 KAB. BANYUMAS CADANGAN
1450 1100459691 FAKHIS ZUNAEKAH MASLURI 11/12/1977 TAHUNAN 01/03 KAB. JEPARA CADANGAN
1451 1100459692 HERMAWATI, DRA. MT 24/05/1962 JL. PURNAKARYA III NO.10 RT.04 RW.02 KAB. SEMARANG CADANGAN
1452 1100459694 MARSATCA NURDIANA 4/3/1965 SUKOMULYO RT.07 RW.06 KOTA SURAKARTA CADANGAN
1453 1100459695 MURYATI 13/10/1958 SONO 02/10 KAB. KLATEN CADANGAN
1454 1100459697 SRI HARYANTI SUKARNO 23/06/1979 TERBAN RT.05 RW.07 KAB. KUDUS CADANGAN
1455 1100459699 MUHAMMAD NURYANTO KUSNIN 7/4/1969 JEKULO RT 05 RW 07 KAB. KUDUS CADANGAN
1456 1100459700 CAHYO SAPUTRO 22/12/1977 KALANGAN RT 04 KAB. SRAGEN CADANGAN
1457 1100459706 SUHARDI 10/06/1961 SUKOMULYO RT 07 RW 06 KOTA SURAKARTA CADANGAN
1458 1100459710 ROKHANIYAH 05/12/1969 SELAK 01/02 KAB. MAGELANG CADANGAN
1459 1100459712 ANITA SILVIANA 18/06/1991 JL. KH IKHSAN 08 RT. 2 RW. 5 KOTA PEKALONGAN CADANGAN
1460 1100459714 M. NANDOM DONI 21/07/1975 DSN KEDAWUNG RT. 04 RW. 05 KAB. PEMALANG CADANGAN
1461 1100459716 SLAMET WAHAB 30/01/1968 TAMBAHREJO SIDODOT RT.03 RW.03 KAB. BATANG CADANGAN
1462 1100459718 ALI NUR TAUFIQ 20/9/1978 LINGK. BEJI NO.40 RT.02/04 BERGAS LOR KAB. SEMARANG CADANGAN
1463 1100459719 RA NUR IDA WAHYUNINGRUM 25/11/1981 LINGK. BEJI NO.40 RT.02/04 BERGAS LOR KAB. SEMARANG CADANGAN
1464 1100459721 TRI LUSIANI 27/07/1982 DSN KEDAWUNG RT. 04 RW. 05 KAB. PEMALANG CADANGAN
1465 1100459725 WIGI INDRIYAH 12/4/1964 BOGOSARI RT. 05 RW. 01 KAB. KENDAL CADANGAN
1466 1100459727 MUSTANGIN 13/12/1961 KARANGANYAR RT 06 RW 01 KAB. PURBALINGGA CADANGAN
1467 1100459729 KUSNANTO 16/06/1960 KEDOKOMBO 03/02 KAB. GROBOGAN CADANGAN
1468 1100459730 ABDUL CHOLIK 17/09/1971 BLENDUNG RT.02 RW.02 KAB. PEMALANG CADANGAN
1469 1100459731 PASIMAH SOWI SADAK 29/07/1965 BLINGOH RT.007/002 [Link] KAB. JEPARA CADANGAN
1470 1100459732 JUMINTARSIH 28/07/1967 KEDOKOMBO 03/02 KAB. GROBOGAN CADANGAN
1471 1100459734 SUNAWI MUSRAN MORORADI 22/06/1960 BLINGOH RT.007/002 [Link] KAB. JEPARA CADANGAN
1472 1100459736 LISA HARMILIYA 09/01/1986 JL. MASJID NO.36 RT.03/RW.01 KAB. KENDAL CADANGAN
1473 1100459737 SARIPAH 07/06/1965 NGADIKROMO 02/06 KAB. MAGELANG CADANGAN
1474 1100459741 [Link] 10/01/1976 AMBOWETAN RT.05 RW.02 KAB. PEMALANG CADANGAN
1475 1100459744 EKO BUDI ASTUTI 03/02/1966 JL. MASJID NO.36 RT.03/RW.01 KAB. KENDAL CADANGAN
1476 1100459745 ACHMAD JOHAN RIVAI, SH 14/05/1977 JOYOTAKAN RT 03 RW 02 KOTA SURAKARTA CADANGAN
1477 1100459746 MATHOLIUL HUDA 20/5/1968 SUSUKAN RT.01 RW.02 KAB. SEMARANG CADANGAN
1478 1100459747 MOHAMMAD IDI 28/12/1967 MOJO KAB. BOYOLALI CADANGAN
1479 1100459748 KUSMARIYANI. [Link] 12/5/1978 JL. WAKHID HASYIM NO.23 RT.03 RW.02 KOTA SURAKARTA CADANGAN
1480 1100459749 YETTI ASHUL 23/11/1975 MOJO KAB. BOYOLALI CADANGAN
1481 1100459751 PURWATI 09/06/1968 KLARISAN RT 03 RW 07 KAB. BOYOLALI CADANGAN
1482 1100459752 FITHRIA ROHAYATI SHOLIKHATUN 13/08/1980 GUNUNGJATI RT 003 RW 002 KAB. BANJARNEGARA CADANGAN
1483 1100459754 SUTARJO 06/05/1969 KLARISAN RT 03 RW 07 KAB. BOYOLALI CADANGAN
1484 1100459756 ADILLAH NISWATY 09/04/1971 SUSUKAN RT.01 RW.02 KAB. SEMARANG CADANGAN
1485 1100459759 SUYONO 30/04/1984 KLITEH RT 10/02 KAB. SRAGEN CADANGAN
1486 1100459761 SOEKESI 20/08/1962 LAMPERTENGAH VIII/21 RT.06/07 KOTA SEMARANG CADANGAN
1487 1100459762 MUCH MAKFUT SIDIK 08/10/1960 JL. GARUDA II NO. 1 PANASAN BARU KAB. BOYOLALI CADANGAN
1488 1100459763 SRI SUWARNI, DRA,MPD 07/04/1964 JOYOTAKAN RT.03 RW.03 KOTA SURAKARTA CADANGAN
1489 1100459766 MUHAMMAD FUADI , SPD 16/08/1962 KRAJAN RT.05/03 SURUH KAB. SEMARANG CADANGAN
1490 1100459767 SITI ROFIATUN 29/09/1965 DSN. KRAJAN RT.05/03 SURUH KAB. SEMARANG CADANGAN
1491 1100459768 JUPRI 07/06/1970 TLOGOREJO RT.02/13 KAB. DEMAK CADANGAN
1492 1100459770 SITI NURKHIKMAH 4/1/1978 BALAMOA RT.01/05 PANGKAH KAB. TEGAL CADANGAN
1493 1100459771 SAMSUDIN 25/10/1972 BALAMOA RT.01/05 PANGKAH KAB. TEGAL CADANGAN
1494 1100459772 MASLAKAH 10/04/1975 TLOGOREJO RT.02/13 KAB. DEMAK CADANGAN
1495 1100459775 SITI FATONAH 01/12/1968 KAJONGAN RT 01 RW 05 KAB. PURBALINGGA CADANGAN
1496 1100459778 RR. SUDARYANI LENIWATI 01/06/1960 LAMPERTENGAH RT.01/08 KOTA SEMARANG CADANGAN
1497 1100459781 ELVI NURYANI 09/03/1975 MENDIRO RT.04/07 KALONGAN UNG TIMUR KAB. SEMARANG CADANGAN
1498 1100459783 TUTIK NUR HANDAJANI 03/09/1971 BENTAK KAB. SRAGEN CADANGAN
1499 1100459784 JOKO PRASOJO 3/4/1969 BENTAK KAB. SRAGEN CADANGAN
1500 1100459787 HARTIYAR 31/12/1959 DUWARI 01/04 KAB. GROBOGAN CADANGAN
1501 1100459789 DOSI NURMALA 20/07/1988 JL. HOS COKROAMINOTO NO. 417 A RT. 3 / 4 KOTA PEKALONGAN CADANGAN
1502 1100459790 MUHAMMAD NOOR 01/01/1984 JL. HOS. COKROAMINOTO NO.417 A RT. 3 RW. KOTA PEKALONGAN CADANGAN
1503 1100459793 ENI KUSUMAWATI 14/06/1973 [Link] DAHLAN 1 RT 29/12 KAB. KLATEN CADANGAN
1504 1100459794 DIDIK ABDUL ROSYID 25/04/1972 [Link] DAHLAN 1 RT 29/12 KAB. KLATEN CADANGAN
1505 1100459796 ALFAFA IMAM SUYUTI 12/05/1965 PLAWANGAN RT 006 RW 002 KRAGAN KAB. REMBANG CADANGAN
1506 1100459797 SUDARMANI 25/04/1960 SANGGRAHAN RT 11 RW 02 KAB. BOYOLALI CADANGAN
1507 1100459798 MOCH NOOR HASAN 15/05/1963 PLAWANGAN RT 006 RW 002 KRAGAN KAB. REMBANG CADANGAN
1508 1100459800 IDA SUDARTI ASMONO 04/05/1965 TLOGOREJO 7/1 TLOGOWUNGU KAB. PATI CADANGAN
1509 1100459801 SUJIMAN KURDI SUMI 01/07/1957 KADILANGU 4/1 TRANGKIL KAB. PATI CADANGAN
1510 1100459802 KELAN MARYANI LASIMAH 12/5/1961 BENDAR 2/2 JUWANA KAB. PATI CADANGAN
1511 1100459803 SUPRIHATI A YASIR DARNI 10/11/1965 BENDAR 2/3 JUWANA KAB. PATI CADANGAN
1512 1100459804 KUNDHORI DANURI ASIYAH 13/1/1963 TLOGOREJO 7/1 TLOGOWUNGU KAB. PATI CADANGAN
1513 1100459808 SUWARTO 10/11/1957 SANGGRAHAN RT.01/RW.05 KAB. SUKOHARJO CADANGAN
1514 1100459810 WAKIDAH 07/07/1957 SANGGRAHAN RT.01/RW.05 KAB. SUKOHARJO CADANGAN
1515 1100459811 TRIYONO 22/05/1968 GIRIROTO RT 01 RW 03 KAB. BOYOLALI CADANGAN
1516 1100459813 MUTINGAH 18/08/1974 GIRIROTO RT 01 RW 03 KAB. BOYOLALI CADANGAN
1517 1100459814 JUMINAH 21/07/1959 KEMBARAN WETAN RT 03 RW 01 KAB. PURBALINGGA CADANGAN
1518 1100459815 SULASIH TROLASIMAN AMINAH 1/7/1957 ROGOMULYO 6/4 KAYEN KAB. PATI CADANGAN
1519 1100459816 SUWANDI 24/11/1962 WONOREJO RT 08/03 KAB. SRAGEN CADANGAN
1520 1100459817 NGATEMI 10/05/1968 WONOREJO RT 08/03 KAB. SRAGEN CADANGAN
1521 1100459818 KHAKIMUDIN 03/12/1968 DROJOGAN 04/02 KAB. MAGELANG CADANGAN
1522 1100459819 SUNAR KUSNO KASINAH 07/12/1962 TAMANSARI 2/1 TLOGOWUNGU KAB. PATI CADANGAN
1523 1100459821 MINASIH DARDI SARNI 08/07/1966 TAMANSARI 2/1 TLOGOWUNGU KAB. PATI CADANGAN
1524 1100459824 SUMARTI 12/07/1959 JL. RAYA MUJUR RT. 01 RW. 01 KAB. CILACAP CADANGAN
1525 1100459826 QORIAH SUPAR SAHAL 5/12/1964 JURANG RT 02 RW 02 KAB. KUDUS CADANGAN
1526 1100459827 AHMAD BADAWI QOMARI 27/10/1973 LORAM KULON RT01 RW 03 KAB. KUDUS CADANGAN
1527 1100459828 MARINI MAHMUDAH MAHMUDI 20/02/1983 LORAM KULON RT 01 RW 03 KAB. KUDUS CADANGAN
1528 1100459829 FATKHURROHMAN,DR 28/04/1974 TERSONO NO.24 RT.01 RW.01 KAB. BATANG CADANGAN
1529 1100459830 DIYAH SRI REJEKI,DR 10/04/1979 TERSONO NO.24 RT.01 RW.01 KAB. BATANG CADANGAN
1530 1100459831 SITI HARYUNINGSIH,AMD 18/02/1972 JL. PARANG BARONG VII/58 RT.07/09 KOTA SEMARANG CADANGAN
1531 1100459832 MOH FAHMI INSETYONOTO, DRS 24/09/1966 JL. PARANG BARONG VII/58RT.07/09 KOTA SEMARANG CADANGAN
1532 1100459834 RUSTYANINGSIH 06/04/1962 SANAN RT.01 RW.05 KAB. WONOGIRI CADANGAN
1533 1100459836 SITI MUALIMAH 01/12/1957 BLAGUNGAN RT 16 KAB. SRAGEN CADANGAN
1534 1100459838 SITI FATIMAH 05/06/1971 WONOLOPO RT.02/10 KOTA SEMARANG CADANGAN
1535 1100459839 SUTRISNO 07/05/1961 SANAN RT.01 RW.05 KAB. WONOGIRI CADANGAN
1536 1100459840 SUYANI 31/01/1967 WONOLOPO RT.02/10 KOTA SEMARANG CADANGAN
1537 1100459844 SITI SUNDARI 01/06/1959 JIWOKULON 15/06 KAB. KLATEN CADANGAN
1538 1100459846 RUPIATUN NGATMAN KASWADI 15/08/1967 GONDANGMANIS RT 07 RW 11 KAB. KUDUS CADANGAN
1539 1100459848 LILIK WINARNO SUMAKNO 18/06/1986 PEGANJARAN RT 02 RW 02 KAB. KUDUS CADANGAN
1540 1100459849 WIWIN KUSUMANINGSIH 29/09/1970 SIDOMULYO RT.01/RW.03 KAB. SUKOHARJO CADANGAN
1541 1100459850 MUHAMMAD HARUN NAMIR 05/11/1965 SIDOMULYO RT.01/RW.03 KAB. SUKOHARJO CADANGAN
1542 1100459851 FADILLAH NOOR ACHMAD ACHSIN 28/09/1989 PEGANJARAN RT 02 RW 02 KAB. KUDUS CADANGAN
1543 1100459852 ARIEF ISPRIYANTO SAKRI 7/9/1981 KARANGMALANG RT 02 RW 02 KAB. KUDUS CADANGAN
1544 1100459853 NOIFAH SUMAKNO LOSO 29/11/1982 KARANGMALANG RT 02 RW 02 KAB. KUDUS CADANGAN
1545 1100459854 DARMONO SARIPIN KARTO KARIDIN 1/7/1973 KARANGMALANG RT 02 RW 02 KAB. KUDUS CADANGAN
1546 1100459855 EVI INDRIANI 28/10/1971 [Link] GG SUTOYO 18 RT8/1 KOBER KAB. BANYUMAS CADANGAN
1547 1100459856 SOFIYATUN SUMAKNO LOSO 13/11/1979 KARANGMALANG RT 02 RW 02 KAB. KUDUS CADANGAN
1548 1100459857 WASISTO 22/12/1957 [Link] GG. SUTOYO 18 RT. 8/1 KOBER KAB. BANYUMAS CADANGAN
1549 1100459863 NANI ROSDIJATI,DRA,MM 05/04/1959 [Link] UTARA 376 RT.06/03 KOTA SEMARANG CADANGAN
1550 1100459864 SHOFIYAH 01/02/1975 TLOGO I/22 RT.01/08 KAB. DEMAK CADANGAN
1551 1100459865 SURATMI 02/01/1973 DSN. KALIGINTUNG RT.08 RW.02 KAB. SEMARANG CADANGAN
1552 1100459866 WIJONO 12/01/1972 DSN. KALIGINTUNG RT.08 RW.02 KAB. SEMARANG CADANGAN
1553 1100459867 SHOLEKHAH 11/5/1962 SIDOGEMAH RT.03/01 KAB. DEMAK CADANGAN
1554 1100459869 SITI ZUMROTUN 31/10/1972 BATURSARI RT.03 RW.02 BATANGAN KAB. PATI CADANGAN
1555 1100459872 SUYOTO, DRS 2/3/1964 SELOMULYO MUKTI BLOK F/319 RT.05/08 KOTA SEMARANG CADANGAN
1556 1100459873 SETYANI RAHAYU 28/12/1972 TLAHAB LOR RT 02 RW 03 KAB. PURBALINGGA CADANGAN
1557 1100459874 RENY EKOWATI 14/11/1959 PAMUJAN TENGAH V/337 RT.3/10 TELUK KAB. BANYUMAS CADANGAN
1558 1100459877 DWI HARTONO 9/4/1976 [Link] RT.06 RW.03 KAB. PEMALANG CADANGAN
1559 1100459878 AIDA HERLINA, SPD 22/10/1969 SELOMULYO MUKTI BLOK F/319 KOTA SEMARANG CADANGAN
1560 1100459880 MUAFANAH 7/10/1970 KETAPANG RT. 09 RW. 03 KAB. KENDAL CADANGAN
1561 1100459881 MUSLICHAH AHMAD DJAMARI 20/10/1962 MLATI KIDUL RT 01 RW 01 KAB. KUDUS CADANGAN
1562 1100459882 LISTYOWATI 10/02/1980 DSN II LOWA RT. 06 RW. 03 KAB. PEMALANG CADANGAN
1563 1100459883 HELMI NATUSSHOLIKAH ASHADI 08/01/1977 PECANGAAN KULON RT.005/006 KAB. JEPARA CADANGAN
1564 1100459884 ALI HAMZAH MUH ZUHRI 06/06/1973 PECANGAAN KULON RT.005/006 KAB. JEPARA CADANGAN
1565 1100459885 ACHMAD SLAMET SUPARNO 01/05/1969 MLATI KIDUL RT 01 RW 01 KAB. KUDUS CADANGAN
1566 1100459886 FATIMAH UTAMI 14/03/1973 JL TAPE BARU RT 04 RW 09 KAB. BOYOLALI CADANGAN
1567 1100459887 SUTARTI 27/08/1958 NGRICIK RT. 02 RW. 08 KAB. WONOGIRI CADANGAN
1568 1100459888 SITI TASRI'AH 12/07/1957 WONOREJO RT.03/03 KAB. DEMAK CADANGAN
1569 1100459889 DJOKO SUGIYARTO 1/1/1958 WONOREJO RT.03/03 KAB. DEMAK CADANGAN
1570 1100459890 RODHI 11/11/1959 MANGGISAN LAMA RT.04 RW.05 KAB. WONOSOBO CADANGAN
1571 1100459891 MUJIYONO 24/08/1966 JL TAPE BARU RT 04 RW 09 KAB. BOYOLALI CADANGAN
1572 1100459892 NURJANAH 25/07/1966 PROCOT RT.05/01 SLAWI KAB. TEGAL CADANGAN
1573 1100459897 SRI KHAYATI 22/07/1964 GANG ARJUNA NO 25 C RT.002 RW.04 KAB. CILACAP CADANGAN
1574 1100459899 AGUS MARTONO 16/08/1967 GAJAH RT.02/02 KAB. DEMAK CADANGAN
1575 1100459900 MUZAROCHATUN 20/07/1972 GAJAH RT.02/02 KAB. DEMAK CADANGAN
NO NO. PORSI NAMA TANGGAL LAHIR ALAMAT KAB/KOTA KETERANGAN
1576 1100459901 TITIK HASTUTI 19/2/1961 TEGALSARI RT 01 RW 02 KAB. BOYOLALI CADANGAN
1577 1100459902 SARSONO, DRS,. [Link] 27/11/1958 BULUREJO RT. 02 RW. 08 KAB. KARANGANYAR CADANGAN
1578 1100459904 RUSMAN 01/12/1959 PUNGANGAN RT.03 RW.05 KAB. BATANG CADANGAN
1579 1100459905 SAWIJI 09/01/1961 TEGALSARI RT 01 RW 02 KAB. BOYOLALI CADANGAN
1580 1100459907 HARTATI, [Link] 06/10/1967 BULUREJO RT. 02 RW. 08 KAB. KARANGANYAR CADANGAN
1581 1100459908 MUHAMAD UMAR 27/5/1978 PR. GRIYA SATRIA BLOK P-7 RT.3 RW.10 KAB. BANYUMAS CADANGAN
1582 1100459909 NURHIDAYAH SOLIKHIN SUKUR 21/10/1976 DS. SIDOMORO RT 01/06 BULUSPESANTREN KAB. KEBUMEN CADANGAN
1583 1100459911 DWI ARI PANGESTUTI 06/02/1983 PRM GRIYA SATRIA BLK P 7 RT. 3/10 BNTRSK KAB. BANYUMAS CADANGAN
1584 1100459912 NINGSIH S 02/09/1966 KALIMANAH KULON RT 02 RW 02 KAB. PURBALINGGA CADANGAN
1585 1100459914 SRI INDRIASTUTI 31/01/1969 WONOKERTI RT 05 RW 01 KAB. BOYOLALI CADANGAN
1586 1100459915 NUR FAIZIN 15/06/1982 KALISALAK RT.01 RW.04 KAB. BATANG CADANGAN
1587 1100459916 SITI WASIATUL KHOIRIYAH SUWANDI 14/04/1961 TAMANWINANGUN RT.03/07 KAB. KEBUMEN CADANGAN
1588 1100459917 NUR AZIS SETIAJI 13/01/1969 WONOKERTI RT 05 RW 01 KAB. BOYOLALI CADANGAN
1589 1100459919 SRI PURWANI 10/09/1961 NGLADON 02/01 KAB. KLATEN CADANGAN
1590 1100459921 EVAH NAFILATI, S. PD. 05/05/1980 JL. NUSA INDAH NO. 11 RT. 4 RW. 6 KOTA PEKALONGAN CADANGAN
1591 1100459922 NAJIBUL MAHBUB, S. PD. 13/03/1981 JL. NUSA INDAH NO. 11 RT. 4 RW. 6 KOTA PEKALONGAN CADANGAN
1592 1100459923 SUMINI 5/5/1964 DEMANGAN 02/09 KAB. KLATEN CADANGAN
1593 1100459925 SITI MARFUAH 12/10/1962 DSN. BELON RT.01 RW.02 KAB. SEMARANG CADANGAN
1594 1100459926 MUTIAH 01/12/1960 PUNGANGAN RT.03 RW.05 KAB. BATANG CADANGAN
1595 1100459927 JUMIYAH 09/07/1971 PENDEM 02/03 KAB. KLATEN CADANGAN
1596 1100459931 KHULIDIYATI,DRA 08/05/1966 CUNGKRUNGAN 01/01 KAB. KLATEN CADANGAN
1597 1100459933 TRI YULISETYANINGSIH 27/09/1963 JL. NAKULA NO.3-4 RT.02 RW.011 KAB. BANYUMAS CADANGAN
1598 1100459934 SULASTRI SALAMUN PROYOGUNO 03/07/1973 LAU RT 05 RW 04 KAB. KUDUS CADANGAN
1599 1100459935 PURWANTA,DRS 21/08/1962 CUNGKRUNGAN 01/01 KAB. KLATEN CADANGAN
1600 1100459937 ALI ASNAWI 16/06/1972 MANGUN SUPARNAN 09/05 KAB. KLATEN CADANGAN
1601 1100459939 ITA RAHMAWATI 12/09/1981 MANGUN SUPARNAN 09/05 KAB. KLATEN CADANGAN
1602 1100459942 IMAM MAKRUF 01/08/1971 BETENGSARI RT.02/RW.12 KAB. SUKOHARJO CADANGAN
1603 1100459943 SAIDAH KAROMAH 14/08/1977 WONOREJO RT.07/02 KAB. DEMAK CADANGAN
1604 1100459944 ENDAH TEJANINGSIH 09/06/1972 BETENGSARI RT.02/RW.12 KAB. SUKOHARJO CADANGAN
1605 1100459945 PUJIONO HADI BROTO 24/03/1974 WONOREJO RT.07/02 KAB. DEMAK CADANGAN
1606 1100459946 PURWANTA 14/06/1964 PENDEM 02/03 KAB. KLATEN CADANGAN
1607 1100459947 SAYID 03/02/1961 KLAPAGADING RT.03 RW.12 KAB. BANYUMAS CADANGAN
1608 1100459948 YANTI RAHAYU YATIN 04/10/1957 WINONG 5/2 PATI KAB. PATI CADANGAN
1609 1100459949 ASRIMI 08/09/1962 KARANGANYAR RT.02/03 KAB. DEMAK CADANGAN
1610 1100459951 SUHARSONO 31/08/1960 PAGERGUNUNG RT.03 RW.03 KAB. PEMALANG CADANGAN
1611 1100459952 SOLIHATI 10/08/1965 KLAPAGADING RT. 3/12 KAB. BANYUMAS CADANGAN
1612 1100459956 SUCI WIHARYEKTI 16/07/1963 PAGERGUNUNG RT. 03 RW. 03 KAB. PEMALANG CADANGAN
1613 1100459957 ALIMAH 13/04/1959 KLAPAGADING RT.01 RW.08 KAB. BANYUMAS CADANGAN
1614 1100459958 MAS'UDI BIZI 27/05/1958 BANJARAN RT.03 RW.03 KAB. PEMALANG CADANGAN
1615 1100459959 SIRTU MARYAM 15/08/1960 BANJARAN RT. 03 RW. 03 KAB. PEMALANG CADANGAN
1616 1100459961 ARIS NUR RAHMAT 18/09/1980 JL. RAJAWALI NO. 328 RT. 03 RW. 02 KAB. CILACAP CADANGAN
1617 1100459962 SITI ROCHANA 14/02/1979 JL. RAJAWALI NO. 328 RT. 03 RW. 02 KAB. CILACAP CADANGAN
1618 1100459963 SRI MARYATUN 26/09/1957 KARANGJATI RT 03 RW 03 KAB. BOYOLALI CADANGAN
1619 1100459964 MUFFI DATUL ULYA 04/09/1994 PUCUNG 05/03 KAB. MAGELANG CADANGAN
1620 1100459967 DIDIK IBNU SARDIYANTO 09/01/1962 SEMAITAN 04/09 KAB. MAGELANG CADANGAN
1621 1100459970 MASIYATI TABRI SUKAYAT 18/06/1972 GEGUNUNG WETAN RT 005 RW 001 REMBANG KAB. REMBANG CADANGAN
1622 1100459971 SUWANTO SUMARTO SUKAR 05/06/1966 GEGUNUNG WETAN RT 005 RW 001 REMBANG KAB. REMBANG CADANGAN
1623 1100459972 SUPIYATI SURADI MUNASIH 09/09/1973 BULUMANIS KIDUL 1/2 MARGOYOSO KAB. PATI CADANGAN
1624 1100459973 SRI LESTARININGSIH 21/09/1965 SEMAITAN 04/09 KAB. MAGELANG CADANGAN
1625 1100459974 ABDUL MUNTOHIR SUWARNO 08/07/1974 BULUMANIS KDIUL 1/4 MARGOYOSO KAB. PATI CADANGAN
1626 1100459975 SUPARTINI 05/07/1958 PEKUTAN RT 01/02 KAB. PURWOREJO CADANGAN
1627 1100459976 MUH HARIS IMAM NURHADI 6/2/1966 NOBOWETAN RT 01 RW 06 KOTA SALATIGA CADANGAN
1628 1100459977 IDA NURUL FARIDA 13/10/1968 NOBOWETAN RT 01 RW 06 KOTA SALATIGA CADANGAN
1629 1100459979 AHMAD YASIR 15/6/1970 BANGUN ASRI RT.02/RW.02 KAB. SUKOHARJO CADANGAN
1630 1100459980 HADI MARSONO 12/10/1957 BEDONO KLUWUNG RT 01/02 KAB. PURWOREJO CADANGAN
1631 1100459982 SABAR 20/05/1963 BEDONO KLUWUNG RT 02/02 KAB. PURWOREJO CADANGAN
1632 1100459983 SANIMAN 15/7/1968 PUCANGAGUNG RT 04/06 KAB. PURWOREJO CADANGAN
1633 1100459985 SUNTARI SUKAWI SADAK 25/10/1969 MAMBAK RT.003/004 [Link] KAB. JEPARA CADANGAN
1634 1100459986 PRABOWO ARIATMOKO 25/08/1987 JL. WOLOGITO RAYA 36E RT.09/01 KOTA SEMARANG CADANGAN
1635 1100459987 MUSTAJAB 11/06/1964 JL. JERUK NO.213 GRIYA RT.01/06 SRAGI KAB. PEKALONGAN CADANGAN
1636 1100459988 SADARMI 21/04/1972 BANGUN ASRI RT. 02/02 KAB. SUKOHARJO CADANGAN
1637 1100459994 MOHAMAD TAUFIK SETYO BUDI 26/01/1978 PERUM SEHATI BLOK G NO 281 RT 004 RW 014 KAB. GROBOGAN CADANGAN
1638 1100459998 WIWIK KUSMIYATI SUMARYO 01/04/1974 DEMAAN RT.003/001 KAB. JEPARA CADANGAN
1639 1100459999 SUBIYONO SARIDJOYO SAPAN 08/09/1969 DEMAAN RT.003/001 KAB. JEPARA CADANGAN
1640 1100460000 SRIYANI TAREJO REKAT 15/05/1966 BANCAAN TENGAH RT 03 RW 05 KOTA SALATIGA CADANGAN
1641 1100460001 SLAMET FAHRUDIN 05/05/1963 KARANGANYAR RT.05/02 DUKUHTURI KAB. TEGAL CADANGAN
1642 1100460002 MISAM SUTOMO KARYAREJA 6/3/1969 BANCAAN TENGAH RT 03 RW 05 KOTA SALATIGA CADANGAN
1643 1100460003 SHOIMATUN 16/10/1972 KARANGANYAR RT.05/02 DUKUHTURI KAB. TEGAL CADANGAN
1644 1100460006 MARTINI 07/06/1973 KERTOSARI RT. 01 RW. 01 KAB. PEMALANG CADANGAN
1645 1100460008 DARJAT 23/07/1966 KERTOSARI RT.01 RW.01 KAB. PEMALANG CADANGAN
1646 1100460009 M. WAHID BAKHTIAR 13/07/1976 MENJANGAN TENGAH RT.04/02 BOJONG KAB. PEKALONGAN CADANGAN
1647 1100460011 SURYO BANENDRO 08/04/1961 [Link] PELAJAR NO.17 RT.3/4 PAMIJEN KAB. BANYUMAS CADANGAN
1648 1100460012 RINA WIDANARNI 31/03/1965 TREKO II NO. 19 B RT. 01/02 KAB. MAGELANG CADANGAN
1649 1100460013 PUJI PRIHATINI 03/04/1963 [Link] PELAJAR 17 RT.3/4 PAMIJEN KAB. BANYUMAS CADANGAN
1650 1100460014 M MUNIR 07/04/1964 BOGORAME RT 02 RW 01 KAB. DEMAK CADANGAN
1651 1100460015 KHOIROTIN NIHAYATI 18/05/1976 MENJANGAN TENGAH RT.04/02 BOJONG KAB. PEKALONGAN CADANGAN
1652 1100460017 MIMIN AMINAH 30/09/1965 BOGORAME RT 02 RW 01 KAB. DEMAK CADANGAN
1653 1100460018 ISNA FAHMI USWATI 12/4/1981 JL. TERATAI 3 NO.15 RT.04 RW.14 KOTA SURAKARTA CADANGAN
1654 1100460019 SUWARNO 15/12/1959 TREKO II NO. 19B RT.02/02 KAB. MAGELANG CADANGAN
1655 1100460020 ACHMAD SHOCHIB MUNIR 17/10/1977 SODITAN RT 006 RW 003 LASEM KAB. REMBANG CADANGAN
1656 1100460021 MOH TAMIM 30/12/1959 JENGGOT GG. 5 NO. 14 RT. 3 RW. 7 KOTA PEKALONGAN CADANGAN
1657 1100460023 NUR CHASANAH 12/7/1957 PRINGLANGU GG. 7 / 50 A RT. 3 RW. 2 KOTA PEKALONGAN CADANGAN
1658 1100460025 NAJIYAH 31/12/1962 MONTONGSARI RT. 02 RW. 02 KAB. KENDAL CADANGAN
1659 1100460026 SUGIH KRIDARSO SUKO 28/11/1962 JOKO TINGKIR KAV-1 RT 01 RW 09 KOTA SALATIGA CADANGAN
1660 1100460027 SRI KOMARIYAH 10/12/1966 DUSUN KEDUNGBAKUNG RT. RT. 06 RW. 08 KAB. CILACAP CADANGAN
1661 1100460029 SITI WAHIDAH 26/12/1971 DESA PURWOSARI RT.12/RW.03 KAB. KENDAL CADANGAN
1662 1100460030 SRI NURANI 24/03/1963 JL. AMBON NO.402 RT.03/08 BREBES KAB. BREBES CADANGAN
1663 1100460032 NURIKHA 02/06/1972 JL. MEGA RAYA NO. 244 RT.07/07 KOTA SEMARANG CADANGAN
1664 1100460035 DWI KISWATI SAMSRINI, DRA 11/08/1960 MARS III/1-30 JANGLI PERMAI RT.04/05 KOTA SEMARANG CADANGAN
1665 1100460039 AGUSTUTI 10/08/1965 JEMAWU TIMUR RT. 05 RW.02 KAB. BATANG CADANGAN
1666 1100460040 NURDI 07/10/1963 JEMAWU RT. 05 RW.02 KAB. BATANG CADANGAN
1667 1100460042 MUKHAYATI 18/05/1958 SIBALUNG RT. 3/3 KAB. BANYUMAS CADANGAN
1668 1100460045 MASFIAH 12/2/1968 JL. SINAR SURYA IV / 936 B RT 13 RW 1 KOTA SEMARANG CADANGAN
1669 1100460046 NANIK ISNAENY, DRA 26/12/1963 JAJAR RT.04 RW.08 KOTA SURAKARTA CADANGAN
1670 1100460047 AKHMAD AGUS KHAERUN ANWAR 22/8/1983 CEPIRING RT.09/RW.04 KAB. KENDAL CADANGAN
1671 1100460048 GUNARSO 10/12/1960 JL. SINAR SURYA IV / 936 B RT 13 RW 1 KOTA SEMARANG CADANGAN
1672 1100460050 BAMBANG WAHYONO, DRS, MM 08/04/1962 JAJAR RT.04 RW. 08 KOTA SURAKARTA CADANGAN
1673 1100460051 SURATMIN 18/07/1958 CABEAN RT 07/03 KAB. DEMAK CADANGAN
1674 1100460052 MUNASIH 04/12/1966 CABEAN RT 07/03 KAB. DEMAK CADANGAN
1675 1100460053 PONIAH 16/8/1958 JL. LABAN NO.171 RT.04 RW.13 KAB. CILACAP CADANGAN
1676 1100460055 SLAMET SAEFUDIN 29/11/1975 SIDOASIH MUKTIHARJO NO 38 RT 06 RW 04 KOTA SEMARANG CADANGAN
1677 1100460056 SRIYANI 25/09/1965 SUMBER KETANDAN 19/06 KAB. MAGELANG CADANGAN
1678 1100460059 SITI KHOTIMAH 2/10/1980 JL. SIDOASIH VI / 38 RT 6 RW 4 KOTA SEMARANG CADANGAN
1679 1100460060 WIYONO 22/11/1960 SUMBER KETANDA 19/06 KAB. MAGELANG CADANGAN
1680 1100460062 RUBIATUN ASTRO TONAH 5/8/1957 SODITAN RT 006 RW 003 LASEM KAB. REMBANG CADANGAN
1681 1100460063 M. ABIDIN HAKIM ISLAH 24/12/1973 MLATI KIDUL RT 03 RW 02 KAB. KUDUS CADANGAN
1682 1100460064 BANIROH 31/12/1964 BADAKARYA. RT. 002/004 KAB. BANJARNEGARA CADANGAN
1683 1100460065 SYU'BAH YUNI WARDATI 14/06/1977 MLATI KIDUL RT 03 RW 02 KAB. KUDUS CADANGAN
1684 1100460067 KARNIDA WAHYUNANTO 06/12/1968 MADU INDAH 3 NO. 16 RT. 05 RW. 01 BENDO KAB. KARANGANYAR CADANGAN
1685 1100460068 KODRIYAH MOHAMAD TARMIDI 08/08/1961 BUMIREJO RT.01/05 KAB. KEBUMEN CADANGAN
1686 1100460069 SITI KHODIJAH MASYKUR 22/03/1977 MENGANTI 07/02 KAB. JEPARA CADANGAN
1687 1100460070 ARDIAN KURNIA RAHMAN 15/04/1997 PLAMONGAN HIJAU NO.67 RT 004 / RW 008 KOTA SEMARANG CADANGAN
1688 1100460071 NGATMIN KUSTONO 13/04/1960 [Link] [Link] RT.5/5 TANJUNG KAB. BANYUMAS CADANGAN
1689 1100460072 ENDAH SAWITRI, [Link] 13/5/1971 PERUM MADU INDAH 3 NO 16 RT. 05 RW. 01 KAB. KARANGANYAR CADANGAN
1690 1100460075 MARGIATI 11/12/1967 JL. PAHLAWAN GG. IX RT 05 RW 05 KAB. BANYUMAS CADANGAN
1691 1100460077 SIPAH KARMAIN MERTOWISONO 08/04/1963 SOCO RT 04 RW 02 KAB. KUDUS CADANGAN
1692 1100460080 SRI YUNIATI WULANDARI 03/06/1964 PLAMONGAN HIJAU NO. 67 RT 4 RW 8 KOTA SEMARANG CADANGAN
1693 1100460081 SUTARMI 01/05/1961 NGEMPLAK RT 11 RW 06 KAB. SRAGEN CADANGAN
1694 1100460082 RAKHMAWATI 14/05/1958 MANGUNEGARA RT 05 RW 01 KAB. PURBALINGGA CADANGAN
1695 1100460083 DWI RETNO NUGRAHENI 21/02/1976 TEJOSARI, RT.02/RW.01 KAB. TEMANGGUNG CADANGAN
1696 1100460085 ZAMNA ROFIQ ZAKARIA 02/02/1978 TEJOSARI, RT.02/RW.01 KAB. TEMANGGUNG CADANGAN
1697 1100460088 SRI KOWATI 13/04/1972 KEDONDONG RT.05/03 KAB. DEMAK CADANGAN
1698 1100460089 MURYOTO 8/5/1971 JAMBEARUM RT. 01 RW. 06 KAB. KENDAL CADANGAN
1699 1100460090 MAHFUD 19/10/1966 KEDONDONG RT.05/03 KAB. DEMAK CADANGAN
1700 1100460091 HENY ASMIYATI 25/1/1969 KADILANGU RT.01/04 KAB. DEMAK CADANGAN
1701 1100460092 SAGIMAN KARTOMO MANREJA 31/12/1961 LEREPKEBUMEN RT. 02. 04 PONCOWARNO KAB. KEBUMEN CADANGAN
1702 1100460093 SAPUANINGSIH 03/04/1961 JIKEN RT 01/13 KAB. BLORA CADANGAN
1703 1100460094 SITI KHOMSATUN 15/8/1976 JAMBEARUM RT. 01 RW. 06 KAB. KENDAL CADANGAN
NO NO. PORSI NAMA TANGGAL LAHIR ALAMAT KAB/KOTA KETERANGAN
1704 1100460095 GIYONO, S. PD 21/11/1959 JIKEN RT 01/13 KAB. BLORA CADANGAN
1705 1100460101 MALIKAH 10/02/1962 KRAJAN RT. 08/01 KAB. MAGELANG CADANGAN
1706 1100460104 AGUS SUBHAN 17/08/1971 DUSUN. KRAJAN 08/01 KAB. MAGELANG CADANGAN
1707 1100460106 MURTI 01/07/1966 SUGIHAN 02/13 KAB. GROBOGAN CADANGAN
1708 1100460108 IDA YUZIANA 10/07/1978 BAKAL RT 01/04 ANDONGREJO BLORA KAB. BLORA CADANGAN
1709 1100460109 SUPARMIN 25/01/1960 SUGIHAN 02/13 KAB. GROBOGAN CADANGAN
1710 1100460110 RETNO SULISTIAWAN 08/08/1981 BAKAL RT.01/04 ANDONGREJO BLORA KAB. BLORA CADANGAN
1711 1100460117 ISTIQOMAH 28/02/1960 DSN. BINTARO 02/12 KAB. MAGELANG CADANGAN
1712 1100460119 SRI SUNARTI 02/04/1968 PERMATA PURI E-4/03 RT.06/11 KOTA SEMARANG CADANGAN
1713 1100460120 SETYO NUGROHO MARTONO 29/03/1973 JL. TEMPELREJO II NO.11 RT 03 RW 03 KOTA SALATIGA CADANGAN
1714 1100460121 USWATUN KHASANAH 06/10/1981 BAKALREJO RT.04/02 KAB. DEMAK CADANGAN
1715 1100460122 DIAN FARIDA ANIES 06/04/1972 JL. TEMPELREJO II NO.11 RT 03 RW 03 KOTA SALATIGA CADANGAN
1716 1100460123 ALI SA'AD MASYFU' 26/01/1981 BAKALREJO RT.04/02 KAB. DEMAK CADANGAN
1717 1100460126 TITI ADRIYANTI 17/03/1971 [Link] BARAT 232 RT. 4/10 TELUK KAB. BANYUMAS CADANGAN
1718 1100460127 DUROSID 6/3/1962 PERUM BANK NIAGA C-21 RT.02/14 KOTA SEMARANG CADANGAN
1719 1100460130 GESTI WALUYANTI 10/10/1966 KARANGNANGKA RT 03 RW 04 KAB. PURBALINGGA CADANGAN
1720 1100460131 DWI ASTUTI SALIMAN 13/08/1961 KAMULYAN RT. 02. 01 KAB. KEBUMEN CADANGAN
1721 1100460133 WAHYU WIDIANTI 01/09/1962 PERUM BANK NIAGA C-21 RT.02/14 KOTA SEMARANG CADANGAN
1722 1100460134 SUGIARNO 11/09/1957 KARANGNANGKA RT 02 RW 01 KAB. PURBALINGGA CADANGAN
1723 1100460135 TITIN HERMIN SETYANINGSIH 09/04/1964 KARANGNANGKA RT 02 RW 01 KAB. PURBALINGGA CADANGAN
1724 1100460136 MARSIDI 07/12/1960 KABUNAN RT07 RW01 KAB. TEMANGGUNG CADANGAN
1725 1100460137 WAHID HATTA 24/03/1963 PONGGOK 01/13 KAB. MAGELANG CADANGAN
1726 1100460138 TASIRAH 17/01/1965 CINDAGA RT. 1/10 KAB. BANYUMAS CADANGAN
1727 1100460139 ZAENAB 25/03/1959 KLAMPOKLOR RT.05/01 KEBONAGUNG KAB. DEMAK CADANGAN
1728 1100460142 ISTIROKAH QOMARUDDIN ANWAR 03/05/1970 PECANGAAN WETAN 03/04 KAB. JEPARA CADANGAN
1729 1100460144 SUSANTI, [Link] 23/03/1982 KLAMPOK LOR RT.05/01 KEBONAGUNG KAB. DEMAK CADANGAN
1730 1100460145 MASLAH 10/5/1961 CINDAGA RT 01 RW 10 KAB. BANYUMAS CADANGAN
1731 1100460146 MARYAM 25/12/1962 JL. JEND. SUDIRMAN RT 005 / RW 003 KAB. BREBES CADANGAN
1732 1100460149 WIWI HARTATI 24/9/1960 GANDATAPA RT 02 / 6 KAB. BANYUMAS CADANGAN
1733 1100460150 WAHID 17/11/1957 GANDATAPA RT.02 RW.06 KAB. BANYUMAS CADANGAN
1734 1100460152 SETIADI AKHMAD 01/02/1971 RANDEGAN RT. 5/8 KAB. BANYUMAS CADANGAN
1735 1100460155 DWI PRIHATIN 11/03/1976 RANDEGAN RT 05 RW 08 KAB. BANYUMAS CADANGAN
1736 1100460156 SUNARTO ABDULLAH KARTO LEGIMAN 17/01/1964 PECANGAAN WETAN 03/04 KAB. JEPARA CADANGAN
1737 1100460161 WARMI WARIMAN WARNO 5/7/1971 MULYOHARJO 04/02 KAB. JEPARA CADANGAN
1738 1100460162 MIDAH 31/12/1957 DELES 03/09 KAB. MAGELANG CADANGAN
1739 1100460163 SITI SA'DIAH EFENDI 14/02/1978 SULANG RT 003 RW 005 SULANG KAB. REMBANG CADANGAN
1740 1100460164 JAYADI MATORI SARMAN 13/03/1965 MULYOHARJO 04/02 KAB. JEPARA CADANGAN
1741 1100460165 M MAFTUHIN MUSLIM 21/08/1974 SULANG RT 003 RW 005 SULANG KAB. REMBANG CADANGAN
1742 1100460167 DJOHAN DJUWARSA 01/01/1959 BENTAR RT. 05/04 SALEM KAB. BREBES CADANGAN
1743 1100460169 RUKMINI 09/07/1963 BENTAR RT.05/04 SALEM KAB. BREBES CADANGAN
1744 1100460170 REDI MARIYA AGUS STIAWAN 31/08/1979 SIDOMULYO RT.003/005 SIDOMULYO WONOSALAM KAB. DEMAK CADANGAN
1745 1100460174 RETNO BANGUN TEKI 7/9/1962 KP. STASIUN NO.11 RT.09/02 KAB. DEMAK CADANGAN
1746 1100460175 SITI AMALIAH 16/11/1973 TEMBOK LUWUNG RT.38/08 ADIWERNA KAB. TEGAL CADANGAN
1747 1100460177 ARIPIN 23/09/1970 TEMBOK LUWUNG RT.38/08 ADIWERNA KAB. TEGAL CADANGAN
1748 1100460178 SAIFUDDIN UZAIR ABDUL HAMID 12/6/1958 SIDOREJO RT 002 RW 002 SEDAN KAB. REMBANG CADANGAN
1749 1100460179 WAHIDAH MOH. THOYIB 31/12/1970 SIDOREJO RT 002 RW 002 SEDAN KAB. REMBANG CADANGAN
1750 1100460180 LAELY ROSYIDHA 04/12/1970 [Link]. 001/005 KAB. BANJARNEGARA CADANGAN
1751 1100460181 KASMINAH MUSTAREDJA PATAREDJA 16/08/1957 WADASMALANG RT.01/04 KAB. KEBUMEN CADANGAN
1752 1100460182 SUWARNO 06/11/1981 BEJI RT 002 / RW 002 KAB. BANJARNEGARA CADANGAN
1753 1100460185 SUGIARTI 02/12/1960 SADAKAN RT.02/RW.04 KAB. SUKOHARJO CADANGAN
1754 1100460186 ACHMAD MUTAMIRIN 1/7/1962 GRIYA BUARAN INDAH BLOK C/59 RT. 2 RW. 8 KOTA PEKALONGAN CADANGAN
1755 1100460187 WUWUH ASRINING PURI 26/11/1981 KASILIB RT 003/002 KAB. BANJARNEGARA CADANGAN
1756 1100460188 HARLINI SETIYANA 14/04/1967 GRIYA BUARAN INDAH BLOK C/ 59 RT 2 RW. 8 KOTA PEKALONGAN CADANGAN
1757 1100460190 LATIF BUDIAJI 24/07/1979 [Link]. 003/002 KAB. BANJARNEGARA CADANGAN
1758 1100460191 DIYONO,[Link] 14/04/1969 PADOMASAN RT.02 RW.02 KAB. BATANG CADANGAN
1759 1100460192 ISTIQOMAH,[Link].I 15/05/1982 PADOMASAN NO.04 RT.02 RW.02 KAB. BATANG CADANGAN
1760 1100460193 NGATMAN 24/02/1959 SUBAH [Link] RT.04 RW.03 KAB. BATANG CADANGAN
1761 1100460196 SARIFATUN 5/2/1978 DUSUN REJOSARI RT.03 RW.03 KAB. KENDAL CADANGAN
1762 1100460200 KABUL MUKTIARTO 21/11/1957 JATIROKEH RT.01/03 SONGGOM KAB. BREBES CADANGAN
1763 1100460201 IMAM SETIAWAN 27/04/1979 GUMIWANG RT 03 RW 02 KAB. PURBALINGGA CADANGAN
1764 1100460202 DAKHIRIN 20/05/1967 GLONGGONG RT. 05/01 WANASARI KAB. BREBES CADANGAN
1765 1100460204 SUMINDAR 28/1/1977 JL. PUCANGJAJAR RAYA NO.04 RT.06/24 KAB. DEMAK CADANGAN
1766 1100460205 JULIKHA 21/10/1971 GLONGGONG RT.05/01 WANASARI KAB. BREBES CADANGAN
1767 1100460206 PURWANTI 22/07/1977 JL. PUCANGJAJAR RAYA NO.04 RT.06/24 KAB. DEMAK CADANGAN
1768 1100460207 NGAMINAH 15/08/1963 BANYUURIP WETAN RT. 02 RW. 03 KAB. KENDAL CADANGAN
1769 1100460208 SHOLIHAH 28/2/1974 KRAJAN RT.12 RW.02 KAB. SEMARANG CADANGAN
1770 1100460209 LAELATUL FAIZAH 28/12/1981 KEDUNGPANE RT 1 RW 10 KOTA SEMARANG CADANGAN
1771 1100460210 IR MUCHIB WACHIDIN 09/04/1968 KRAJAN RT.012 RW.02 KAB. SEMARANG CADANGAN
1772 1100460211 KISWATI 07/01/1964 DK. TEGOLAYANG RT. 02 RW. 05 KAB. KENDAL CADANGAN
1773 1100460212 AGUS SISWANTO 26/08/1981 KEDUNGPANE RT 1 RW 10 KOTA SEMARANG CADANGAN
1774 1100460213 SAPARDI 29/04/1968 WONOKERSO RT.04 RW.03 KAB. BATANG CADANGAN
1775 1100460217 KHOIRUL HUDA 21/05/1968 KEDUNGROMBONG RT.06 RW.06 KAB. KENDAL CADANGAN
1776 1100460218 SITI MUALLIFAH SOEMEDI 22/02/1960 KALIKALONG 6/2 TAYU KAB. PATI CADANGAN
1777 1100460219 SUMAYA SETYA WAHYUNINGTYAS 22/06/1971 PONGGOK 01/18 KAB. MAGELANG CADANGAN
1778 1100460220 MUSLIHATUN MUSIR JAMAL 16/01/1977 GROGOLBENINGSARI RT. 01. 05 KAB. KEBUMEN CADANGAN
1779 1100460221 USWATUN HASANAH 15/03/1972 KEDUNGROMBONG RT.06 RW.06 KAB. KENDAL CADANGAN
1780 1100460222 LILIK PURWANTO, DRS 11/06/1965 JL NUSA INDAH 3/IB RT. 03 RW. 18 KAB. KARANGANYAR CADANGAN
1781 1100460223 MAKSUDI DARMUJI SAN ISMANGIL 16/08/1973 GROGOLBENINGSARI RT. 01. 05 KAB. KEBUMEN CADANGAN
1782 1100460224 JOEJOEN DWI ARINI 02/12/1972 JL NUSA INDAH 3/IB RT. 03 RW. 18 KAB. KARANGANYAR CADANGAN
1783 1100460225 MALIHATIN SANUSI MAHMUDAH 02/08/1974 BULUNGAN 5/2 TAYU KAB. PATI CADANGAN
1784 1100460226 ZUMRONAH 22/05/1965 KURIPAN LOR GG. 15 /29 RT. 2 RW. 5 KOTA PEKALONGAN CADANGAN
1785 1100460227 DRA. SITI UMAIYAH 6/3/1968 SUMBER RT 02/02 KAB. BLORA CADANGAN
1786 1100460229 WASIRIN 15/12/1958 KURIPAN LOR GG. 15/ 29 RT. 2 RW. 5 KOTA PEKALONGAN CADANGAN
1787 1100460230 JUWARNI 15/07/1965 NGRAYUNG RT 07/03 KAB. BLORA CADANGAN
1788 1100460231 NUR AMALI ARISWATI 17/07/1974 JURANG, RT.02/RW.06 KAB. TEMANGGUNG CADANGAN
1789 1100460232 AKHMAD SOKHIB SUTARIP 13/08/1968 BULUNGAN 5/2 TAYU KAB. PATI CADANGAN
1790 1100460234 SISWO 12/06/1968 MANGGAR 02/04 KAB. GROBOGAN CADANGAN
1791 1100460235 RATNA UMI 27/06/1970 WONOKERSO RT.04 RW.03 KAB. BATANG CADANGAN
1792 1100460236 MUCHAMMAD IZZUDDIN 1/7/1972 JURANG, RT.02/RW.06 KAB. TEMANGGUNG CADANGAN
1793 1100460237 NARYATI 15/10/1975 MANGGAR 02/04 KAB. GROBOGAN CADANGAN
1794 1100460238 PARMAN 12/03/1963 PURNO 01/13 KAB. KLATEN CADANGAN
1795 1100460239 PUJI LESTARI KLIWON 04/03/1971 MANGUNLEGI 3/1 BATANGAN KAB. PATI CADANGAN
1796 1100460241 TATIK HANDAYANI 10/02/1970 PURNO 01/13 KAB. KLATEN CADANGAN
1797 1100460242 SUKISWANTO 15/03/1960 JAPUN I RT. 04/10 KAB. MAGELANG CADANGAN
1798 1100460243 AMIROH 04/07/1972 SIDAYU RT.05 RW.01 KAB. BATANG CADANGAN
1799 1100460244 HIMAYATUN NASIROH ZAINUDIN 18/3/1987 SIDOMULYA RT 01 RW 02 KAB. KUDUS CADANGAN
1800 1100460245 UMI FARWAH 12/10/1968 JAPUN I RT. 04/10 KAB. MAGELANG CADANGAN
1801 1100460247 SOBIKHA 12/06/1964 JENGGOT GG. 5 NO. 14 RT. 3 RW. 7 KOTA PEKALONGAN CADANGAN
1802 1100460248 YASMIRAH SUGIONO DARMINI 13/09/1981 MANGUNLEGI 3/1 BATANGAN KAB. PATI CADANGAN
1803 1100460251 MUHLISIN 30/04/1975 DUSUN REJOSARI RT.03 RW.03 KAB. KENDAL CADANGAN
1804 1100460252 SODIQ TOEKINUN SETIAWAN,SPD 01/01/1963 SIDAYU NO.14 RT.05 RW.01 KAB. BATANG CADANGAN
1805 1100460256 MUNIRI 19/03/1969 DUKOH 10/01 KAB. GROBOGAN CADANGAN
1806 1100460257 ISTIQOMAH 02/05/1978 DUKOH 10/01 KAB. GROBOGAN CADANGAN
1807 1100460258 JOKO PRAYITNO 06/01/1970 GATAK RT. 06 RW. 03 KAB. KENDAL CADANGAN
1808 1100460259 RUDI RIYANTO UMAR SAHID 02/11/1972 KEBULUSAN RT. 03. 01 KAB. KEBUMEN CADANGAN
1809 1100460260 SUTIRAH 28/02/1959 MARIBAYA RT 01 RW 02 KAB. PURBALINGGA CADANGAN
1810 1100460261 KUSMIARTI 20/06/1965 MAJATENGAH RT 06 RW 02 KAB. PURBALINGGA CADANGAN
1811 1100460262 SURTINI 17/07/1973 GAJIHAN 22/10 KAB. KLATEN CADANGAN
1812 1100460263 ACHMAD SHOIM 27/02/1959 KUNDURAN RT 07/02 KAB. BLORA CADANGAN
1813 1100460264 SURYONO 29/9/1957 MAJATENGAH RT 06 RW 02 KAB. PURBALINGGA CADANGAN
1814 1100460265 SRI UNTARI UNTUNG 11/10/1973 GG KENARI NO.17 RT 07 RW 02 KOTA SALATIGA CADANGAN
1815 1100460266 SITI ZULAIKAH 26/10/1963 KUNDURAN RT 07/02 KAB. BLORA CADANGAN
1816 1100460267 ROVIIN MUH NASRI 26/05/1973 GG KENARI NO. 17 RT 07 RW 02 KOTA SALATIGA CADANGAN
1817 1100460268 SITI ZOEMROH NIYATOEN 24/01/1969 GLODOGAN INDAH B NO.452 08/07 KAB. KLATEN CADANGAN
1818 1100460269 TUNUT 03/05/1961 KEDUNGBANJAR RT.06 RW.04 KAB. PEMALANG CADANGAN
1819 1100460270 WASIMAH 08/08/1961 LANGGAR RT 01 RW 04 KAB. PURBALINGGA CADANGAN
1820 1100460271 SUHARTO 01/12/1958 KEDUNGBANJAR RT.06 RW.04 KAB. PEMALANG CADANGAN
1821 1100460272 JOKO PURMADI 07/07/1970 DESA KALISALAK RT 001 RW 06 KAB. BANYUMAS CADANGAN
1822 1100460273 DRA. SRI RATIH 05/09/1965 PERUM PURI KENCANA D.14 RT01 RW05 KAB. TEMANGGUNG CADANGAN
1823 1100460274 MAFTUCHAH WINARNI 02/06/1974 KALISALAK RT. 1/6 KAB. BANYUMAS CADANGAN
1824 1100460275 HENDRA ABADI 17/1/1980 DSN. KRAJAN RT.05 RW.07 KAB. SEMARANG CADANGAN
1825 1100460276 ADI NURTANTIO 20/12/1963 PERUM PURI KENCANA D.14 RT01 RW05 KAB. TEMANGGUNG CADANGAN
1826 1100460277 LUTVI SUROYA 27/09/1985 DSN. KRAJAN RT.05 RW.07 KAB. SEMARANG CADANGAN
1827 1100460280 MUSLIKHA 24/04/1976 PESAREAN RT.33/08 ADIWERNA KAB. TEGAL CADANGAN
1828 1100460281 MUHAMMAD TAJUDDIN MAS'UD 15/05/1972 PESAREAN RT.33/08 ADIWERNA KAB. TEGAL CADANGAN
1829 1100460284 NIHRIROH 12/09/1970 JUNGPASIR RT.03/04 KAB. DEMAK CADANGAN
1830 1100460287 SUWATI 10/03/1960 KUNCIR RT.06/03 KAB. DEMAK CADANGAN
1831 1100460288 SINWANIN A. UBAID ROIZ 07/03/1963 JUNGPASIR RT.03/04 KAB. DEMAK CADANGAN
NO NO. PORSI NAMA TANGGAL LAHIR ALAMAT KAB/KOTA KETERANGAN
1832 1100460291 SRI SUPARNI 04/04/1963 TROWANGSAN RT. 02 RW. 14 KAB. KARANGANYAR CADANGAN
1833 1100460293 ARIS KAWIYONO 17/7/1975 NGEBRUSAN RT.03 RW.02 KOTA SURAKARTA CADANGAN
1834 1100460294 SAEROJI SANAJI KASWATI 12/10/1976 GUYANGAN 7/1 TRANGKIL KAB. PATI CADANGAN
1835 1100460295 NUR ENY 07/04/1977 NGEBRUSAN RT.03 RW.02 KOTA SURAKARTA CADANGAN
1836 1100460296 NUR INAYAH M YUSUF 16/03/1974 GUYANGAN 7/1 TRANGKIL KAB. PATI CADANGAN
1837 1100460297 TUMIYEM 10/1/1959 KARABAN RT 12 KAB. SRAGEN CADANGAN
1838 1100460299 IMRO'ATUN ASIYAH,SE 11/11/1975 BLADON 04/01 KAB. KLATEN CADANGAN
1839 1100460300 ASMICHAN RIF'AN KARSANI 15/05/1968 KRASAK RT.004/001 KAB. JEPARA CADANGAN
1840 1100460301 UMAR WIDI HIDAYAT,ST 21/09/1974 BLADON 04/01 KAB. KLATEN CADANGAN
1841 1100460303 AGUSTY HADI WIDARTO 09/08/1984 PURWOSARI RT. 19 RW. 04 KAB. KENDAL CADANGAN
1842 1100460304 PURWADI 07/11/1962 KARANGANOM 02/06 KAB. KLATEN CADANGAN
1843 1100460305 FERY KUSBINTARI 15/02/1983 PURWOSARI RT. 19 RW. 04 KAB. KENDAL CADANGAN
1844 1100460306 MUSTAIN 10/05/1959 TAMBAKMULYO RT 8 RW 12 KOTA SEMARANG CADANGAN
1845 1100460307 ISTIYAH 21/05/1963 KP. TAMBAK MULYO RT 8 RW 12 KOTA SEMARANG CADANGAN
1846 1100460309 PARMI 02/06/1960 PULEREJO RT 02 RW 01 KAB. BOYOLALI CADANGAN
1847 1100460311 SITI ISTIQOMAH 11/03/1961 GRIYA BHAKTI PRAJA RT.01/07 KAB. DEMAK CADANGAN
1848 1100460312 SARIPAH SARIMIN SUWATI 01/07/1963 CENGKALSEWU 3/5 SUKOLILO KAB. PATI CADANGAN
1849 1100460313 DARMO SUWITO 18/01/1958 PULEREJO RT 02 RW 01 KAB. BOYOLALI CADANGAN
1850 1100460314 HERI UTOMO 22/6/1959 GRIYA BHAKTI PRAJA RT.01/07 KAB. DEMAK CADANGAN
1851 1100460315 MARYANTO 15/11/1970 JORONG RT.03 RW.03 KAB. WONOGIRI CADANGAN
1852 1100460316 RONY SUNARSIH 25/03/1978 JORONG RT.03 RW.03 KAB. WONOGIRI CADANGAN
1853 1100460318 SUMARGONO 07/09/1961 JOMBLANG RT. 01 RW. 09 KAB. KARANGANYAR CADANGAN
1854 1100460319 NURJANAH 11/08/1968 JOMBLANG RT. 01 RW. 09 KAB. KARANGANYAR CADANGAN
1855 1100460320 SUMIRAH 27/07/1963 POKOH BARU GANG MELATI RT. 09 RW. 06 KAB. KARANGANYAR CADANGAN
1856 1100460322 DWI RETNA MARHAENI SUBUR 09/06/1965 PENGKOL 02/06 KAB. JEPARA CADANGAN
1857 1100460324 TUHUDI DUL BISRI TRUNO 26/04/1961 PENGKOL 02/06 KAB. JEPARA CADANGAN
1858 1100460327 PRETI ASKUNALA WIKAN 21/08/1990 KLEPUSARI SELATAN RT.002 / RW.001 SUGIHWARAS
[Link]
KEBUMEN CADANGAN
1859 1100460328 HARIYANTO 17/05/1959 TENING RT13 RW03 KAB. TEMANGGUNG CADANGAN
1860 1100460330 ROUDHOTUL JANAH 26/04/1966 CETOKAN 19/10 KAB. MAGELANG CADANGAN
1861 1100460333 SRI UTAMI 15/02/1980 PURO RT 03 RW 01 KAB. SRAGEN CADANGAN
1862 1100460334 TOTOK SETYO NUGROHO 21/5/1976 PURO RT 03 RW 01 KAB. SRAGEN CADANGAN
1863 1100460335 SLAMET HADI WARSONO 31/12/1959 PURBOWANGI RT.02/05 KAB. KEBUMEN CADANGAN
1864 1100460337 RIYONO 02/02/1963 KEDUNGBANTENG RT 41 KAB. SRAGEN CADANGAN
1865 1100460338 CHOTIJAH 17/8/1958 JL. KAUMAN NO. 33 RT 3 RW 2 KOTA SEMARANG CADANGAN
1866 1100460342 SUHARTI 20/10/1970 KEDUNGBANTENG RT 41 KAB. SRAGEN CADANGAN
1867 1100460345 DULROCHMAD 27/07/1962 KETITANG 295 16/06 KAB. KLATEN CADANGAN
1868 1100460346 RISTININGSIH 01/07/1966 KETITANG 295 16/06 KAB. KLATEN CADANGAN
1869 1100460348 BUDIYONO BASIRUN KASTIAH 5/7/1967 BERMI 3/7 GEMBONG KAB. PATI CADANGAN
1870 1100460349 MUNTA'AH MUNAWAR LASI 11/10/1970 BERMI 3/7 GEMBONG KAB. PATI CADANGAN
1871 1100460351 SUBARDI 28/08/1964 KUTOSARI SENDANG WUNGU RT.05 RW.03 KAB. BATANG CADANGAN
1872 1100460352 SUKASDI 5/9/1959 PENDAWA RT.02/02 LEBAKSIU KAB. TEGAL CADANGAN
1873 1100460353 DWI SUSANTI 11/12/1977 KUTOSARI SENDANG WUNGU RT.05 RW.03 KAB. BATANG CADANGAN
1874 1100460354 WASIKHA 08/10/1977 PENDAWA RT.02/02 LEBAKSIU KAB. TEGAL CADANGAN
1875 1100460358 SUMINAH 10/03/1976 BANJARKERTA RT 02 RW 05 KAB. PURBALINGGA CADANGAN
1876 1100460359 ADIMIARTO 11/02/1974 BANJARKERTA RT 03 RW 05 KAB. PURBALINGGA CADANGAN
1877 1100460360 SITI MARKHAMAH 20/02/1961 KARANGJOHO RT 19 RW 07 KAB. BOYOLALI CADANGAN
1878 1100460361 SARINI 30/4/1964 BANJARKERTA RT 01 RW 05 KAB. PURBALINGGA CADANGAN
1879 1100460363 NAPSIYAH 31/12/1962 PABEAN RT.01 RW.05 KAB. BATANG CADANGAN
1880 1100460364 SRI RAHAYU, [Link] 02/06/1958 KLEDUNG KRADENAN RT 03/03 KAB. PURWOREJO CADANGAN
1881 1100460365 SRI ERLINA LESTARI 14/08/1979 [Link] LAWU NO.25 02/18 KAB. GROBOGAN CADANGAN
1882 1100460367 KOMARNI 06/04/1966 GOMBANG 01/02 KAB. KLATEN CADANGAN
1883 1100460369 DODIET DWI WAHYONO 31/07/1978 JL. GUNUNG LAWU NO. 25 02/18 KAB. GROBOGAN CADANGAN
1884 1100460371 RESMIYATI,SPD 05/08/1971 JURANGJERO 02/01 KAB. KLATEN CADANGAN
1885 1100460372 BUDHI DARMAWAN SHOLIKHIN 12/02/1977 GEMIRING LOR RT.003/005 KAB. JEPARA CADANGAN
1886 1100460373 ANI RATNA RACHIM 31/03/1986 GEMIRING LOR RT.003/005 KAB. JEPARA CADANGAN
1887 1100460374 MUSRI 15/05/1960 KARANGSONO RT.04/02 KAB. DEMAK CADANGAN
1888 1100460375 SONI WIDIYANTO 08/06/1971 JURANGJERO 02/01 KAB. KLATEN CADANGAN
1889 1100460376 SUTIYAH 02/01/1965 KARANGSONO RT.04/02 KAB. DEMAK CADANGAN
1890 1100460377 WAHYU HERNADHI 18/01/1972 KP. SARIMANAN RT. 02 RW. 04 KAB. KENDAL CADANGAN
1891 1100460378 ROCHMATUN 15/02/1972 KP. SARIMANAN RT. 02 RW. 04 KAB. KENDAL CADANGAN
1892 1100460380 GUNARYO 04/12/1972 GRIYA SANTIKA RT.02/03 PENGABEAN KAB. TEGAL CADANGAN
1893 1100460381 PRIYATININGSIH 24/04/1958 PANGENREJO RT 01/03 KAB. PURWOREJO CADANGAN
1894 1100460383 RAHAYU 29/04/1974 GRIYA SANTIKA RT.02/03 PENGABEAN KAB. TEGAL CADANGAN
1895 1100460384 TAUFIQ 16/01/1961 PEKAJANGAN GG.4 RT.38/14 KEDUNGWUNI KAB. PEKALONGAN CADANGAN
1896 1100460385 LAILA ROHMAWATI 25/3/1966 PEKAJANGAN GG.4 RT.38/14 KEDUNGWUNI KAB. PEKALONGAN CADANGAN
1897 1100460388 LESTARI UTAMI 21/10/1962 REJOSARI RT.03/01 KOTA SEMARANG CADANGAN
1898 1100460389 SANCOYO SETYO ATMANTO 07/08/1959 MONDOKAN 01/06 KAB. KLATEN CADANGAN
1899 1100460390 TRI SUWARNI WIDAYATI 30/6/1969 MONDOKAN 01/06 KAB. KLATEN CADANGAN
1900 1100460391 SUHARTI, [Link] 16/12/1959 NGROTO RT 02 RW 02 KAB. BLORA CADANGAN
1901 1100460392 MUSTAMIR JUREMI MASUDI 01/03/1965 HADIPOLO RT 06 RW 01 KAB. KUDUS CADANGAN
1902 1100460394 ABDUL MALIK CHAROMAIN 06/05/1980 TLOGOREJO RT 002 / RW 002 KAB. DEMAK CADANGAN
1903 1100460395 SUTINAH PARTONO RONO PASIMAN 19/07/1968 HADIPOLO RT 06 RW 01 KAB. KUDUS CADANGAN
1904 1100460397 JUDDI SYAMSU SUKAMAT 14/04/1971 HADIPOLO RT 05 RW 01 KAB. KUDUS CADANGAN
1905 1100460400 SUKARMI RUSDI SARIBAN 29/06/1974 HADIPOLO RT 05 RW 01 KAB. KUDUS CADANGAN
1906 1100460401 AMAD SUHUD SAMINGAN 03/08/1957 LUMBU RT.03/02 KAB. KEBUMEN CADANGAN
1907 1100460402 SUMADI TURI KARBO 18/01/1967 KLALING RT 10 RW 04 KAB. KUDUS CADANGAN
1908 1100460403 RUMIYATI 13/05/1960 SIDAKATON RT.02/03 DUKUHTURI KAB. TEGAL CADANGAN
1909 1100460406 DEDY HERMANTO 17/09/1981 KP. CIBITUNG KAUM RT 007 RW 013 KAB. TEGAL CADANGAN
1910 1100460407 PURWANTO KUSNAN KINAH 01/07/1964 SUKOLILO 4/8 SUKOLILO KAB. PATI CADANGAN
1911 1100460409 SRI WATI PENO 01/07/1967 SUKOLILO 4/8 SUKOLILO KAB. PATI CADANGAN
1912 1100460413 NUROKHIM 10/3/1980 CLAPAR RT.01 RW.01 KAB. BATANG CADANGAN
1913 1100460417 SRI WAHYUNINGSIH 16/10/1967 PAKANG RT 04 RW 02 KAB. BOYOLALI CADANGAN
1914 1100460420 SUWARDI KASDI WAKINI 27/6/1966 BUMIREJO 5/3 MARGOREJO KAB. PATI CADANGAN
1915 1100460421 BAKHTIAR ZAENAL ISTIARTO 19/12/1988 KUTOARJO RT 01/06 KAB. PURWOREJO CADANGAN
1916 1100460425 MURNI JAIMAN NGATINI 15/04/1971 BUMIREJO 5/3 MARGOREJO KAB. PATI CADANGAN
1917 1100460428 SARTOYAH AHMAD DARMUJI 08/12/1959 SUGIHWARAS RT.02/01 KAB. KEBUMEN CADANGAN
1918 1100460431 ISHAK SAMINGAN BANI 06/05/1971 KARANGASEM RT 002 RW 003 SEDAN KAB. REMBANG CADANGAN
1919 1100460433 MANGIL SUSWANTO SANREJA 21/07/1959 SUGIHWARAS RT. 02. 01 KAB. KEBUMEN CADANGAN
1920 1100460434 TRI SUHARTINI SUDIMAN 05/12/1963 KUTOHARJO 5/10 PATI KAB. PATI CADANGAN
1921 1100460437 EDI PRANOTO 07/12/1964 BANJARSARI RT. 03 RW. 06 KAB. KARANGANYAR CADANGAN
1922 1100460438 ADI SANTOSA 9/9/1970 JL. RAJAWALI XII A/2 RT 01 RW 05 KAB. BLORA CADANGAN
1923 1100460439 THOYIBATI 17/10/1957 KARANG 01/07 KAB. MAGELANG CADANGAN
1924 1100460440 SRI SUKARYANI KARYOSENTONO 17/01/1960 MANGUNHARJO RT. 02. 04 KAB. KEBUMEN CADANGAN
1925 1100460443 MAHERI 1/1/1966 JL. BENGAWAN G-93 PAYUNGMAS RT.06/10 KOTA SEMARANG CADANGAN
1926 1100460447 IKA WULAN PRAFITRI, STP 30/10/1970 JL. RAJAWALI XII A/2 RT 01 RW 05 KAB. BLORA CADANGAN
1927 1100460448 YUSMANTO KROMO KASMAN 12/09/1965 KUTOHARJO 5/10 PATI KAB. PATI CADANGAN
1928 1100460449 ANINDAH DAHLAN 28/08/1967 [Link] G-93 PAYUNGMAS RT.06/10 KOTA SEMARANG CADANGAN
1929 1100460450 SUTARNI 19/01/1964 BANJARSARI RT. 03 RW. 06 KAB. KARANGANYAR CADANGAN
1930 1100460451 SURIPAH MUHAMAD CHAMDANI 10/09/1963 SIDOMULYO RT. 01. 01 KAB. KEBUMEN CADANGAN
1931 1100460452 IMRON ROSIDI SUPRIYOTO 18/05/1966 NGAGEL 5/2 DUKUHSETI KAB. PATI CADANGAN
1932 1100460453 MUSTATI'AH RUBAI ROZAQ 20/06/1972 NGAGEL 5/2 DUKUHSETI KAB. PATI CADANGAN
1933 1100460454 ALFIYANTI 12/03/1984 CLAPAR RT.01 RW.01 KAB. BATANG CADANGAN
1934 1100460457 ASMURI SURAHMAN RONOLATIF 16/07/1959 PRAMBATAN KIDUL RT 04 RW 01 KAB. KUDUS CADANGAN
1935 1100460460 SRI MERDEKAWATI KARSONO 25/05/1964 PRAMBATAN KIDUL RT 04 RW 01 KAB. KUDUS CADANGAN
1936 1100460469 SRI SUPENINGSIH KUSNAN 01/01/1959 DRESI KULON RT 002 RW 001 KALIORI KAB. REMBANG CADANGAN
1937 1100460470 SRI WAHYUNINGSIH MARSONO DIHARJO 12/01/1973 PRAGU RT 004 RW 001 SULANG KAB. REMBANG CADANGAN
1938 1100460471 BAMBANG TRIYONO MOENDI OETOMO 24/05/1969 PRAGU RT 004 RW 001 SULANG KAB. REMBANG CADANGAN
1939 1100460472 SUPARWATI BATIN NGADIYO 11/04/1969 TUNGGULSARI RT 002 RW 001 KALIORI KAB. REMBANG CADANGAN
1940 1100460474 MASHUD MARKABAN SANADI 27/09/1965 TUNGGULSARI RT 002 RW 001 KALIORI KAB. REMBANG CADANGAN
1941 1100460476 UMI HANIK BUCHORI 23/08/1968 NGOTET RT 005 RW 004 REMBANG KAB. REMBANG CADANGAN
1942 1100460477 MULTAZAM SUBANDI RUSLAN 10/06/1967 NGOTET RT 005 RW 004 REMBANG KAB. REMBANG CADANGAN
1943 1100460478 SITI RUWIYAH 26/4/1965 PLATAR 13/05 KAB. KLATEN CADANGAN
1944 1100460479 TOYIBAH 31/12/1959 [Link] LAMA GG. III/602 RT.1/4 KAB. BANYUMAS CADANGAN
1945 1100460480 NURKHOLIS JURI TOYIB 01/03/1961 SUROWANGSAN RT 01 RW 05 KOTA SALATIGA CADANGAN
1946 1100460481 MOH. JUPRI, DRS 07/03/1960 KEMANTREN RT 01/01 KAB. BLORA CADANGAN
1947 1100460482 JOKO SANTOSO, SE 03/07/1961 [Link] RT04 RW01 KAB. TEMANGGUNG CADANGAN
1948 1100460483 SITI KOMARIYAH 15/05/1972 KEMANTREN RT 01/01 KAB. BLORA CADANGAN
1949 1100460484 FUJIATUL ABADIYAH 20/7/1962 DUSUN JENGGALAN RT. 03 RW. 01 KAB. CILACAP CADANGAN
1950 1100460485 SRI UTAMI KURDI 13/12/1971 SUROWANGSAN RT 01 RW 05 KOTA SALATIGA CADANGAN
1951 1100460486 MUDJINAH MOCHAMMAD SAID 07/02/1962 TANJUNGSARI RT 003 RW 002 REMBANG KAB. REMBANG CADANGAN
1952 1100460487 DJUPRI 5/10/1959 PLATAR 13/05 KAB. KLATEN CADANGAN
1953 1100460490 MOHAMMAD MAHFUDZ TAMUN 15/11/1970 TANJUNGSARI RT 003 RW 002 REMBANG KAB. REMBANG CADANGAN
1954 1100460491 SUPARDI MOIBUN SARMI 15/12/1960 JATIROTO 1/3 KAYEN KAB. PATI CADANGAN
1955 1100460492 ANDRITAWATI 01/10/1975 GUMELEM [Link]. 004/001 KAB. BANJARNEGARA CADANGAN
1956 1100460493 YULIATI 31/07/1970 SINGAMERTA RT 002/002 KAB. BANJARNEGARA CADANGAN
1957 1100460495 HUSNUL KHOTIMAH IMAM HANAFI 17/04/1971 MENORO RT 004 RW 003 SEDAN KAB. REMBANG CADANGAN
1958 1100460496 JOHAR EFENDI ABDUL JALIL 06/01/1971 MENORO RT 004 RW 002 SEDAN KAB. REMBANG CADANGAN
1959 1100460497 EZIN FACHRURRAZI 6/10/1966 SINGAMERTA RT 002 RW 002 KAB. BANJARNEGARA CADANGAN
NO NO. PORSI NAMA TANGGAL LAHIR ALAMAT KAB/KOTA KETERANGAN
1960 1100460498 MUNASIH SURO WAGIYO 22/10/1963 JATIROTO 1/2 KAYEN KAB. PATI CADANGAN
1961 1100460499 SUNARLAN LEGIMAN PRAWIGUNO 31/07/1973 DRESI KULON RT 002 RW 001 KALIORI KAB. REMBANG CADANGAN
1962 1100460500 UMU SANGADAH 4/5/1977 JL. GARUDA RT.01 RW.011 KAB. CILACAP CADANGAN
1963 1100460501 SARPIYATUN DAMIRI SARPANGI 23/10/1976 DRESI KULON RT 002 RW 001 KALIORI KAB. REMBANG CADANGAN
1964 1100460502 SUYANTO 12/09/1958 KEBULEN GG. 13/ 14 B RT. 2 RW. 6 KOTA PEKALONGAN CADANGAN
1965 1100460503 TRININGSIH 08/04/1975 BALEDONO RT 06/05 KAB. PURWOREJO CADANGAN
1966 1100460504 MASKHANAH, S. AG 04/01/1971 SENDANGGUWO NO. 2 RT 3 RW 1 KOTA SEMARANG CADANGAN
1967 1100460505 MARDLIYAH 04/04/1967 KEBULEN GG. 13 NO. 14 B RT. 2 RW. 6 KOTA PEKALONGAN CADANGAN
1968 1100460506 ABDUL BAKIR 08/12/1968 JL. GARUDA RT 001 RW 011 KAB. CILACAP CADANGAN
1969 1100460507 LATIF USMAN 26/03/1972 JL. TEGALKANGKUNG RAYA NO. 17 RT.01/02 KOTA SEMARANG CADANGAN
1970 1100460508 USWATUN HASANAH 26/03/1976 JL. FATMAWATI RAYA NO. 17 RT.01/02 KOTA SEMARANG CADANGAN
1971 1100460509 FARIQOH, [Link] 27/04/1971 JATIMULYA RT.02/06 LEBAKSIU KAB. TEGAL CADANGAN
1972 1100460510 MASKURI 23/06/1965 DSN. KRAJAN RT.05/02 LEMAH IRENG BAWEN KAB. SEMARANG CADANGAN
1973 1100460511 RAHMAT CHAERUL UMAM 04/04/1990 JL. TEGALKANGKUNG RAYA NO. 17 RT.01/02 KOTA SEMARANG CADANGAN
1974 1100460512 MAGHFUR 6/5/1973 TIRTO GG.18 / 23 RT.04 RW.05 KOTA PEKALONGAN CADANGAN
1975 1100460513 SITI HANIYAH 12/11/1962 KRADENAN RT 02 RW 01 KAB. PURBALINGGA CADANGAN
1976 1100460514 SITI MUMUN MUNIROH 01/07/1982 TIRTO GG. 18/ 23 RT. 4 RW. 5 KOTA PEKALONGAN CADANGAN
1977 1100460516 MUNIRAH 02/10/1962 DS. JIPANG NO.05 RT.01/05 BANTARKAWUNG KAB. BREBES CADANGAN
1978 1100460517 MUHAMMAD FATKHUROKHIM 14/07/1970 JETAKLENGKONG RT.04/02 WONOPRINGGO KAB. PEKALONGAN CADANGAN
1979 1100460518 SARMIAN 28/03/1967 DS. JIPANG NO.5 RT.01/05 BANTARKWUNG KAB. BREBES CADANGAN
1980 1100460519 MOH NASIR 20/04/1966 MIJEN RT.02/04 KAB. DEMAK CADANGAN
1981 1100460520 ANI RAHMAWATI 01/05/1970 MIJEN RT.02/04 KAB. DEMAK CADANGAN
1982 1100460522 SITI MUNZAENAB KASIONO 18/08/1971 RENGGING RT.019/003 KAB. JEPARA CADANGAN
1983 1100460524 M. FAUZI RIDWAN MERTOSUR 01/12/1960 RENGGING RT.019/003 KAB. JEPARA CADANGAN
1984 1100460527 NOOR SAIDAH ABU KHONDIM 27/08/1979 LEBUAWU 05/01 KAB. JEPARA CADANGAN
1985 1100460528 A ZAINURI BASRI MUNASIRIN 17/9/1976 LEBUAWU 05/01 KAB. JEPARA CADANGAN
1986 1100460529 RUJUMIYATI SUYONO KARMO 28/10/1960 WARUGUNUNG RT 001 RW 001 PANCUR KAB. REMBANG CADANGAN
1987 1100460531 PARLANTO KARSODIKROMO SOIKROMO 30/01/1959 WARUGUNUNG RT 001 RW 001 PANCUR KAB. REMBANG CADANGAN
1988 1100460532 MASRIAH IMRON MUSRI 01/07/1969 BAWU RT.020/004 KAB. JEPARA CADANGAN
1989 1100460534 MAHMUDI ABDUL KARIM 02/03/1969 BANJARAN 03/12 KAB. JEPARA CADANGAN
1990 1100460535 NINIK ENDANG WAHYUNI 26/03/1975 BANJARAN 03/12 KAB. JEPARA CADANGAN
1991 1100460536 SITI AMINAH 11/8/1981 BANJARHARJO RT.03/04 BANJARHARJO KAB. BREBES CADANGAN
1992 1100460537 M. SOLEH MUHAMMAD MARDI 21/11/1978 UJUNGPANDAN 08/03 KAB. JEPARA CADANGAN
1993 1100460539 MUHAMMAD IWAN BUDIARTO 03/05/1975 DUKUH KRAJAN 3 RT.01/05 LEBAKSIU LOR KAB. TEGAL CADANGAN
1994 1100460540 SITI ANISAH SELAMET 16/08/1981 UJUNGPANDAN 08/03 KAB. JEPARA CADANGAN
1995 1100460541 ISMAIL 05/08/1975 BANJARHARJO RT.04/02 BANJARHAJO KAB. BREBES CADANGAN
1996 1100460542 ALI AHMADI MASKAT KUSEN 30/6/1970 BALONG 01/01 KEC. KEMBANG KAB. JEPARA CADANGAN
1997 1100460543 DAHYUNINGSIH CHAMIM SUMERI 16/11/1971 JL. MERPATI NO.09 RT 02 RW 09 KOTA SALATIGA CADANGAN
1998 1100460544 AMIK WIDIARTI WAGIMAN 12/05/1971 BALONG RT 01/01 KEC. KEMBANG KAB. JEPARA CADANGAN
1999 1100460545 KUSMIYATI SABAR MITRO MENI 25/03/1977 SENENAN 09/03 KAB. JEPARA CADANGAN
2000 1100460547 A. JAZULI UMAR SYAHID 03/07/1966 SENENAN 09/03 KAB. JEPARA CADANGAN
2001 1100460548 SITI KHANIFAH UMAR 12/09/1962 POTROYUDAN 03/01 KAB. JEPARA CADANGAN
2002 1100460549 SUTIYANA 03/03/1967 DAWUKAN 13/06 KAB. KLATEN CADANGAN
2003 1100460550 ABDUL KHARIS, [Link] 13/3/1971 JATIMULYA RT.02/06 LEBAKSIU KAB. TEGAL CADANGAN
2004 1100460552 DEWI INDRIYATI MUSTAFIR 20/12/1967 PEJAGOAN RT.01/03 KAB. KEBUMEN CADANGAN
2005 1100460553 SAMIJO 10/10/1962 PELEM RT 02 RW 02 KAB. BOYOLALI CADANGAN
2006 1100460554 NGATMI 10/05/1960 PELEM RT 02 RW 02 KAB. BOYOLALI CADANGAN
2007 1100460555 TRI LAMI 8/1/1960 DAWUKAN 13/06 KAB. KLATEN CADANGAN
2008 1100460556 ROKHMIATI 27/11/1974 DUKUH KRAJAN 3 RT.01/05 LEBAKSIU LOR KAB. TEGAL CADANGAN
2009 1100460557 SARDIYANTO 13/07/1964 JLKENANGART 01 RW 03 KAB. KEBUMEN CADANGAN
2010 1100460558 SARDIYANTO SUMERI KERTO 13/07/1964 PEJAGOAN RT.01/03 KAB. KEBUMEN CADANGAN
2011 1100460559 WAESIH 04/11/1978 SIDAKATON RT. 03/04 DUKUHTURI KAB. TEGAL CADANGAN
2012 1100460560 INDAH PRATIWI 08/01/1994 JEPANG RT.04/01 JEPANG MEJOBO KAB. KUDUS CADANGAN
2013 1100460562 NURUL LATIFAH PANCAWARDANI 27/09/1967 DUSUN KRAJAN BARAT RT. 03 RW. 01 KAB. KENDAL CADANGAN
2014 1100460563 MU'IDAH SALEMAN BUGEL 5/4/1974 HADIWARNO RT 01 RW 02 KAB. KUDUS CADANGAN
2015 1100460568 SUDIBYO 30/12/1959 DAWUKAN 06/04 KAB. KLATEN CADANGAN
2016 1100460569 SUDARYANI DARBI SASTRO DARSONO 10/1/1959 LAU RT 03 RW 03 KAB. KUDUS CADANGAN
2017 1100460570 SUNARNI 30/12/1959 DAWUKAN 06/04 KAB. KLATEN CADANGAN
2018 1100460571 MUSWATI 04/06/1963 PENOLIH RT 01 RW 02 KAB. PURBALINGGA CADANGAN
2019 1100460575 SUMARJO 03/12/1968 SIDAKATON RT. 03/04 DUKUHTURI KAB. TEGAL CADANGAN
2020 1100460576 INTAN KHULLIYA SILFI 16/04/2002 DUKUH GRINGGING RT 02 RW 02 KAB. KUDUS CADANGAN
2021 1100460578 SUTRISNO MUHJAWUL SELAN 09/10/1962 GUYANGAN RT.004/011 KAB. JEPARA CADANGAN
2022 1100460579 YOYOK SALIYANTO 07/05/1962 KWAGEAN 02/01 KAB. KLATEN CADANGAN
2023 1100460581 DRA. SITI RUBIYAH 03/01/1966 DSN. KRAJAN RT.05 RW.02 KAB. SEMARANG CADANGAN
2024 1100460582 WINDAYATI 11/02/1973 JOJOGAN, RT.10/RW.01 KAB. TEMANGGUNG CADANGAN
2025 1100460583 BAMBANG RIYANTO SAEFUDIN SAPANI 06/05/1958 NGAWEN 1/2 CLUWAK KAB. PATI CADANGAN
2026 1100460584 MARDIYUN 05/06/1966 JOJOGAN, RT.10/RW.01 KAB. TEMANGGUNG CADANGAN
2027 1100460585 BAGUS ASHARI SOEHARDJONO 05/08/1989 MLATI NOROWITO RT 03 RW 03 KAB. KUDUS CADANGAN
2028 1100460587 SRI SUNARTI 21/6/1962 PIJINAN RT 30 KAB. SRAGEN CADANGAN
2029 1100460589 LENI MARLINA 28/11/1972 JL. RAYA RT.001 RW.03 KAB. CILACAP CADANGAN
2030 1100460590 KARYATI HARJO PARDI 05/08/1959 NGAWEN 1/2 CLUWAK KAB. PATI CADANGAN
2031 1100460591 M LAILA CHUSNANI 05/06/1960 KORIPAN 06/05 KAB. MAGELANG CADANGAN
2032 1100460592 SUPARNO 03/07/1965 JL. WATULAWANG TIMUR I NO. 18 RT 3/8 KOTA SEMARANG CADANGAN
2033 1100460593 IMRON MAS'ADI CHALIMI 13/05/1974 MIJEN RT.02 RW.02 KAB. KUDUS CADANGAN
2034 1100460595 YUYUS MOHAMAD ILYAS DJUNAEDY 17/03/1970 JL. RAYA RT 001 RW 003 KAB. CILACAP CADANGAN
2035 1100460597 MUNAJAT KHARIS MUCHAMAD CHALIMI 02/11/1982 KEBULUSAN RT.01/01 KAB. KEBUMEN CADANGAN
2036 1100460598 ISTANTI 10/08/1968 JL. WATULAWANG TIMUR I NO. 18 RT 3 RW 8 KOTA SEMARANG CADANGAN
2037 1100460599 MARETSHA NUANTY SOEHARDJONO 11/03/1988 MLATI NOROWITO RT 03 RW 03 KAB. KUDUS CADANGAN
2038 1100460600 SADARNI MUNARDJO MAN BAKRI 02/08/1957 BEJIRUYUNG RT.02/01 KAB. KEBUMEN CADANGAN
2039 1100460603 WAHIDAH ROHMAD SHIDIK 01/06/1974 BOGOREJO RT 003 RW 003 SEDAN KAB. REMBANG CADANGAN
2040 1100460604 TITIK DWI JAYANTI 04/04/1988 WERDOYO 06/01 KAB. GROBOGAN CADANGAN
2041 1100460606 HELMY FAHRIZAL SOEHARDJONO 12/5/1991 MLATI NOROWITO RT 03 RW 03 KAB. KUDUS CADANGAN
2042 1100460608 SITI DEWI AMINAH 31/12/1972 HONGGOSOCO RT 06 RW 02 KAB. KUDUS CADANGAN
2043 1100460610 SUKASIH 23/04/1959 NGEMPLIK WETAN RT.06/02 KAB. DEMAK CADANGAN
2044 1100460611 AGUS YULIANTO 25/03/1985 WERDOYO 06/01 KAB. GROBOGAN CADANGAN
2045 1100460612 NASRI'AH MAKIN MARTO 07/07/1974 GUYANGAN RT.004/011 KAB. JEPARA CADANGAN
2046 1100460618 AEP SAEPULOH DJAENUDIN 07/11/1972 BESITO RT 07 RW 07 KAB. KUDUS CADANGAN
2047 1100460619 JOKO PAMUNGKAS 18/3/1983 WONOSARI RT 05 RW 08 KAB. BOYOLALI CADANGAN
2048 1100460620 RAHARTO 30/12/1960 JEPANGREJO RT 01/07 KAB. BLORA CADANGAN
2049 1100460621 SRI PAMUJI 17/04/1965 NGAGLIK RT.01/RW.07 KAB. SUKOHARJO CADANGAN
2050 1100460623 SUPARMAN 04/10/1960 LONING RT 02 RW 01 KAB. BOYOLALI CADANGAN
2051 1100460625 SUTARTI 15/07/1964 LONING RT 02 RW 01 KAB. BOYOLALI CADANGAN
2052 1100460626 PURWANTI MEI WULANTARI 26/05/1966 JEPANGREJO RT 01/07 KAB. BLORA CADANGAN
2053 1100460627 UNIK AGUSTINA KURNIASARI 18/08/1985 BANJARKERTA RT 01 RW 05 KAB. PURBALINGGA CADANGAN
2054 1100460628 SRI HARTANA 01/05/1967 SIDOMULYO RT. 03 RW. 09 KAB. KARANGANYAR CADANGAN
2055 1100460629 UFIK UDIN PRIYANTO 29/07/1978 BANJARKERTA RT 01 RW 05 KAB. PURBALINGGA CADANGAN
2056 1100460630 SRI PURWATI 22/09/1968 JL. R SUPRAPTO GANG PRINGGODANI 1 07/21 KAB. GROBOGAN CADANGAN
2057 1100460633 LINAWATI 07/04/1972 SIDOMULYO RT. 03 RW. 09 KAB. KARANGANYAR CADANGAN
2058 1100460635 MUHAMMAD AMINUDIN 29/03/1977 DK. KEMBANG KUNING RT. 02 RW. 04 KAB. PEMALANG CADANGAN
2059 1100460636 SAENI 12/04/1963 PENGARASAN RT.10/02 DUKUHTURI KAB. TEGAL CADANGAN
2060 1100460640 SUMIAN 31/01/1970 KP. DADAPAN RT 5 RW 2 KOTA SEMARANG CADANGAN
2061 1100460641 DWI SUSTANTI 21/04/1984 BANJARKERTA RT 01 RW 05 KAB. PURBALINGGA CADANGAN
2062 1100460642 SUKNO 25/04/1973 BANJARKERTA RT 01 RW 05 KAB. PURBALINGGA CADANGAN
2063 1100460643 SUKESI 28/4/1973 KP. DADAPAN RT 5 RW 2 KOTA SEMARANG CADANGAN
2064 1100460644 MASYKURI, [Link] 20/12/1959 PENGARASAN RT.10/02 DUKUHTURI KAB. TEGAL CADANGAN
2065 1100460645 AGUS SUTRIMO 28/8/1985 BANJARKERTA RT 01 RW 05 KAB. PURBALINGGA CADANGAN
2066 1100460646 OKI WAHYUNI 16/10/1987 BANJARKERTA RT 01 RW 05 KAB. PURBALINGGA CADANGAN
2067 1100460647 SUGIYANTO SUKARDI 10/04/1962 KALAPACUNG RT 01 RW 01 KAB. PURBALINGGA CADANGAN
2068 1100460648 SUGIYANTI 06/05/1969 KALAPACUNG RT 01 RW 01 KAB. PURBALINGGA CADANGAN
2069 1100460649 RUSNI ERNAWATI NINA 12/08/1961 PENGARASAN RT.10/02 DUKUHTURI KAB. TEGAL CADANGAN
2070 1100460650 SASMITO 22/08/1972 SENDANGMULTO RT 002 RW 001 SARANG KAB. REMBANG CADANGAN
2071 1100460654 WINARNINGSIH 29/09/1958 MLEKANG RT.01/03 KAB. DEMAK CADANGAN
2072 1100460655 AHMAD RODLI ABDUL JABAR 08/08/1969 BOGOREJO RT 003 RW 003 SEDAN KAB. REMBANG CADANGAN
2073 1100460657 TRI MULATININGSIH 02/06/1958 NGLARANGAN RT.01 RW.01 KAB. WONOGIRI CADANGAN
2074 1100460659 KARMAT SUBONO SUMITO 03/04/1967 KEDUNGSARI RT 02 RW 06 KAB. KUDUS CADANGAN
2075 1100460660 SITI ZULAIKHAH MAHMUD 21/09/1977 KEDUNGSARI RT 02 RW 06 KAB. KUDUS CADANGAN
2076 1100460661 DWI UTAMI 4/5/1961 MONTONG KRAJAN RT. 02 RW. 01 KAB. KENDAL CADANGAN
2077 1100460662 MUSTA'IN 27/12/1967 JL. BUKIT DINGIN I D-1/22 RT.05/08 KOTA SEMARANG CADANGAN
2078 1100460666 FERRY SUHITO 07/08/1966 BANJARKERTA RT 03 RW 04 KAB. PURBALINGGA CADANGAN
2079 1100460667 TUTUT NAWANG TRIWULANDARI 02/10/1971 BANJARKERTA RT 03 RW 04 KAB. PURBALINGGA CADANGAN
2080 1100460668 SUMADYO WIBOWO 27/09/1969 JL JERUK SELATAN SANDEN RT 05 RW 08 KOTA MAGELANG CADANGAN
2081 1100460669 SUHARDI 6/9/1968 BANJARKERTA RT 02 RW 04 KAB. PURBALINGGA CADANGAN
2082 1100460670 TRI SURYANTI 31/12/1967 BANJARKERTA RT 02 RW 04 KAB. PURBALINGGA CADANGAN
2083 1100460672 LUSY HIKMAHWATI 03/10/1968 JL. JERUK SELATAN SANDEN RT 05 RW 08 KOTA MAGELANG CADANGAN
2084 1100460679 SITI MUTOLINGAH 07/08/1975 DIENG RT 08 RW 02 KAB. WONOSOBO CADANGAN
2085 1100460682 MUHAMMAD NASIHUN 04/09/1972 DIENG RT 08 RW 02 KAB. WONOSOBO CADANGAN
2086 1100460684 MUL SRIYATI, SE 04/04/1961 TEGALKUNING RT. 02/01 BANYUURIP KAB. PURWOREJO CADANGAN
2087 1100460687 HARTOYO SUKMANTO 01/01/1962 WIRASANA RT 01 RW 01 KAB. PURBALINGGA CADANGAN
NO NO. PORSI NAMA TANGGAL LAHIR ALAMAT KAB/KOTA KETERANGAN
2088 1100460689 MUH DAHLAN, SE 23/04/1960 TEGALKUNING RT. 02/01 BANYUURIP KAB. PURWOREJO CADANGAN
2089 1100460690 ZUMROTUN KHASANAH 4/5/1987 LOBANG RT 01 RW 03 KAB. WONOSOBO CADANGAN
2090 1100460691 SUDARTO MASHUDI ABDULLAH HASAN 28/12/1959 GROGOLPENATUS RT.03/02 KAB. KEBUMEN CADANGAN
2091 1100460692 MAFRUCHUDIN 17/03/1979 LOBANG RT.01 RW.03 KAB. WONOSOBO CADANGAN
2092 1100460693 SUDARYANTI 13/2/1961 WIRASANA RT 01 RW 01 KAB. PURBALINGGA CADANGAN
2093 1100460698 EMY SURASDIJANTI R. SOETARDJO 29/12/1962 GROGOLPENATUS RT. 03. 02 KAB. KEBUMEN CADANGAN
2094 1100460699 YULIATI MASTAM SARIJAN 08/08/1974 BESITO RT 07 RW 07 KAB. KUDUS CADANGAN
2095 1100460702 AHMAD ZAINI RUSMAN 16/8/1963 BAWU RT.020/004 KAB. JEPARA CADANGAN
2096 1100460703 NY SUGIYATI 31/12/1960 DUSUN. TUMBREB 10/05 KAB. MAGELANG CADANGAN
2097 1100460706 NURUN NISYAK MASYHUDI 19/11/1979 TEMPERAK RT 006 RW 001 SARANG KAB. REMBANG CADANGAN
2098 1100460708 YOGAMUKTI HERMAN SUTANTO 23/07/1980 TEMPERAK RT 006 RW 001 SARANG KAB. REMBANG CADANGAN
2099 1100460710 MUSTOFA DUTA PERMANA 20/07/1997 JL. KISORENG NO 64 RT 01 RW 03 KAB. BLORA CADANGAN
2100 1100460712 NURFUAT 18/6/1959 MLEKANG RT.01/03 KAB. DEMAK CADANGAN
2101 1100460713 MUKHAMAD HUSNI TAMRIN 26/12/1983 GUNUNGLURAH RT 03 RW 06 KAB. BANYUMAS CADANGAN
2102 1100460715 YUNITA PUTRI HARTATI 26/06/1992 JL. KISORENG NO 64 RT 01 RW 03 KAB. BLORA CADANGAN
2103 1100460716 CASMUDI 18/07/1963 JL. IR. SUTAMI RT. 1 RW. 8 KOTA PEKALONGAN CADANGAN
2104 1100460717 RIF'ATUN 08/08/1967 JL. IR. SUTAMI RT. 1 RW. 6 KOTA PEKALONGAN CADANGAN
2105 1100460718 DANANG SEPTIYANTO NUGROHO 20/09/1986 TEGAL KALORAN 01/07 KAB. KLATEN CADANGAN
2106 1100460719 SRI MININGSIH 30/7/1963 TANGKILAN 01/17 KAB. MAGELANG CADANGAN
2107 1100460720 RAMINAH, SE 23/12/1964 JL. KISORENG NO 64 RT 01 RW 03 KAB. BLORA CADANGAN
2108 1100460721 SUGIYONO 14/05/1961 TANGKILAN 01/17 KAB. MAGELANG CADANGAN
2109 1100460722 HARTOTO, [Link] 15/08/1960 JL. KISORENG NO. 64 RT 01 RW 03 KAB. BLORA CADANGAN
2110 1100460728 SARI YULIASTUTI 16/07/1985 GEDONGAN RT.02/RW.04 KAB. SUKOHARJO CADANGAN
2111 1100460730 SITI NURHIDAYATI 11/03/1960 DUSUN TARUB RT.02/RW.01 KAB. KENDAL CADANGAN
2112 1100460731 ARIES DWI SADANI 30/03/1973 NGUTER RT. 01/04 KAB. SUKOHARJO CADANGAN
2113 1100460732 NUSINAH 13/07/1968 TIMBANG RT.001 RW.01 KAB. CILACAP CADANGAN
2114 1100460733 ARYO YUDHO SUROTO 02/07/1962 BAYAN KRAJAN RT.08 RW.20 KOTA SURAKARTA CADANGAN
2115 1100460734 CARITO 19/07/1961 [Link] RT.02/08 REMBUN SIWALAN KAB. PEKALONGAN CADANGAN
2116 1100460735 SUHARTONO 05/10/1968 MANJUNG 02/01 KAB. KLATEN CADANGAN
2117 1100460736 SRI WIDJI RUDIATMI 25/02/1963 BAYAN KRAJAN RT.08 RW 20 KOTA SURAKARTA CADANGAN
2118 1100460738 MARNO 6/7/1957 NGESENG RT 03 KAB. SRAGEN CADANGAN
2119 1100460739 SRI HASTUTI PURWANINGSIH 17/10/1973 NGUTER RT. 01/04 KAB. SUKOHARJO CADANGAN
2120 1100460741 SRI WULANINGSIH 16/3/1969 MANJUNG 02/01 KAB. KLATEN CADANGAN
2121 1100460742 MU'ALIM 15/10/1975 MENUR RT.09/04 KAB. DEMAK CADANGAN
2122 1100460743 SATMAH 13/03/1982 MENUR RT.09/04 KAB. DEMAK CADANGAN
2123 1100460744 RIBUT 31/08/1961 JAMBON WOT RT 08 RW 06 KOTA MAGELANG CADANGAN
2124 1100460745 SUBAGYO HARYANTO, SH 10/05/1964 KERNEN 04/06 KAB. KLATEN CADANGAN
2125 1100460746 YUNI INDRAWATI 02/02/1968 CANGGALAN 04/04 KAB. MAGELANG CADANGAN
2126 1100460747 KASTIAH 07/07/1959 PERUM DOLOG PASADENA 91 RT 4 / 1 KOTA SEMARANG CADANGAN
2127 1100460748 SUPARNI 05/06/1961 CANDIWULAN RT 17 RW 07 KAB. PURBALINGGA CADANGAN
2128 1100460749 SITI KHODIYATUN 06/07/1965 KERNEN 04/06 KAB. KLATEN CADANGAN
2129 1100460750 PARJI, [Link] 03/07/1972 JL DAHLIA III NO.66 RT. 1/15 PRUMNAS KAB. KARANGANYAR CADANGAN
2130 1100460751 SITI AMINAH 30/01/1960 KALIMAS RT.01 RW.01 KAB. PEMALANG CADANGAN
2131 1100460753 ENDANG SAWIJI 23/03/1972 JL DAHLIA III NO.6 RT. 1/15 PRUMNAS KAB. KARANGANYAR CADANGAN
2132 1100460755 SRI PUJI ASTUTI, DRA 16/01/1967 JL. SEKAR JAGAD III/7 RT.03/28 KOTA SEMARANG CADANGAN
2133 1100460758 KOMARUDIN 10/05/1968 KANDANGWANGI RT 006/002 KAB. BANJARNEGARA CADANGAN
2134 1100460759 KRISTANTO WAHYU SAPTONO, DRS 23/06/1963 JL. SEKAR JAGAD III/7 RT.03/28 KOTA SEMARANG CADANGAN
2135 1100460760 HERI CAHYONO AL AZIZ 07/11/1976 KARANGSARI RT 19 RW 05 KAB. WONOSOBO CADANGAN
2136 1100460761 MAIDAH 21/03/1982 KARANGSARI RT 19 RW 05 KAB. WONOSOBO CADANGAN
2137 1100460762 LIYATUN NIHAYATI 27/09/1995 BANJARDOWO RT.07/05 SEMBUNGHARJO KAB. GROBOGAN CADANGAN
2138 1100460763 SUKIRAN 08/07/1969 CANGGALAN 04/04 KAB. MAGELANG CADANGAN
2139 1100460764 MOHAMMAD MUHIBBIN 4/10/1963 KALITENGAH RT.01/02 KAB. DEMAK CADANGAN
2140 1100460765 MASAMAH 17/11/1966 BANJARDOWO 07/05 KAB. GROBOGAN CADANGAN
2141 1100460766 SITI AMINAH 09/08/1984 TURIBANG RT 001 / RW 005 KAB. BOYOLALI CADANGAN
2142 1100460769 ABDUL ROCHMAN 04/09/1981 MADOH RT 002 / RW 008 KAB. BOYOLALI CADANGAN
2143 1100460770 SYARIFAH YUNITA ERAWATI 07/06/1978 JL. BUKIT DELIMA BLOK 1A/14 RT.08/08 KOTA SEMARANG CADANGAN
2144 1100460771 NUR INAYATIKA 08/07/1974 KALITENGAH RT.01/02 KAB. DEMAK CADANGAN
2145 1100460772 ADI [Link] 03/01/1978 [Link] DELIMA BLOK I.A/14 RT.08/08 KOTA SEMARANG CADANGAN
2146 1100460773 RATNA WIDJAJAJANTI 14/5/1970 TIDAR WARUNG RT. 01 RW. 04 KOTA MAGELANG CADANGAN
2147 1100460776 DANNUR SUHADI 14/12/1963 WONOPLUMBON RT.06/01 KOTA SEMARANG CADANGAN
2148 1100460777 SITI ASIYAH 26/10/1960 KARANGNONGKO RT 07 RW 02 KAB. BOYOLALI CADANGAN
2149 1100460779 NUR KHASANAH 09/06/1972 WONOPLUMBON RT.06/01 KOTA SEMARANG CADANGAN
2150 1100460781 MUHAMMAD DHIA ADIYANA NAUFEL 06/08/1998 JL. MASJID NO. 36 RT. 03 RW. 01 KAB. KENDAL CADANGAN
2151 1100460784 AKROM 2/10/1959 TOSO RT.06 RW.02 KAB. BATANG CADANGAN
2152 1100460785 BETTY SULIHTYANDARI 14/10/1975 BUKIT KELAPA GADING V AM 19 RT 7/11 KOTA SEMARANG CADANGAN
2153 1100460786 SUDIYONO 03/02/1966 KRAJAN 05/01 KAB. GROBOGAN CADANGAN
2154 1100460788 SITI NURUSSA'ADAH 25/05/1970 MARGOREJO 01/03 KAB. GROBOGAN CADANGAN
2155 1100460790 WARISAH 17/09/1967 MUNCANGLARANG RT.01/04 BUMIJAWA KAB. TEGAL CADANGAN
2156 1100460792 MASROKIN 10/03/1961 BATU RT.03/07 KAB. DEMAK CADANGAN
2157 1100460793 HERU CUNDOKO 04/01/1973 JL. BUKIT KELAPA GADING V AM 19 RT 7/11 KOTA SEMARANG CADANGAN
2158 1100460794 DALIYEM 15/03/1964 MAJASTO RT. 01/06 KAB. SUKOHARJO CADANGAN
2159 1100460795 SRI MURNI WIDODO 22/05/1969 KRAJAN 05/01 KAB. GROBOGAN CADANGAN
2160 1100460796 AROFAH 04/05/1962 TOSO RT.06 RW.02 KAB. BATANG CADANGAN
2161 1100460797 ISTIQOMAH 14/06/1992 MAJASTO RT.01/RW.06 KAB. SUKOHARJO CADANGAN
2162 1100460798 SOLEKAN 07/08/1967 MARGOREJO 01/03 KAB. GROBOGAN CADANGAN
2163 1100460799 MUHAMAD SUGIARTO 28/09/1970 TIDAR WARUNG RT 01 RW 04 KOTA MAGELANG CADANGAN
2164 1100460801 M. TAUCHID 13/08/1963 DK. GLADAGSARI RT.03/RW.12 KAB. KENDAL CADANGAN
2165 1100460804 DARMAWAN WIDODO 27/04/1973 KARANG 14/01 KAB. GROBOGAN CADANGAN
2166 1100460805 SITI AMINAH 04/03/1958 PRAMPELAN RT.01/03 KAB. DEMAK CADANGAN
2167 1100460807 HAFID ABDILLAH LUBIS 21/9/1984 GANG PERKUTUT WARINGINREJO RT.01/RW.19 KAB. SUKOHARJO CADANGAN
2168 1100460808 PUJI HASTUTI 21/10/1972 KARANG 14/01 KAB. GROBOGAN CADANGAN
2169 1100460809 ZANA ELIYA ANDRIYANINGSIH 16/01/1971 SENGON BUGEL 06/02 KAB. JEPARA CADANGAN
2170 1100460811 MUHAMMAD AKHID 16/04/1967 BRAMBANG RT 05 RW 01 KAB. DEMAK CADANGAN
2171 1100460812 DADAN MISBAH TIRTA 27/06/1965 SENGON BUGEL 06/02 KAB. JEPARA CADANGAN
2172 1100460813 MUZAKKY MIFTAH 26/5/1975 PERUM GRIYA SATRIA NO.C4 RT.01/12 KAB. BREBES CADANGAN
2173 1100460815 SUJIYO 12/12/1958 CENGKLIK 01/06 KAB. GROBOGAN CADANGAN
2174 1100460816 SHOLEKAH 10/05/1968 BRAMBANG RT 05 RW 01 KAB. DEMAK CADANGAN
2175 1100460818 DJALAL SUYUTI ZARKASI 06/06/1960 KUANYAR 001/001 KAB. JEPARA CADANGAN
2176 1100460819 SUPRIYANTO 04/06/1974 DK. SAMBIROTO RT.006 RW.001 NGAWEN KAB. BLORA CADANGAN
2177 1100460821 UMUL MALIDAH 5/10/1989 PERUM GRIYA SATRIA C4 RT.01/12 JATIBARAN KAB. BREBES CADANGAN
2178 1100460822 SAMINI 31/12/1957 DK. KALIREJO RT 05 RW 02 KAB. BLORA CADANGAN
2179 1100460823 ZUMROTUL ULYA SALIMI 13/12/1965 KUANYAR 001/001 KAB. JEPARA CADANGAN
2180 1100460827 SUNARNI 03/03/1963 CENGKLIK 01/06 KAB. GROBOGAN CADANGAN
2181 1100460828 ERNA WIDAYANTI 19/03/1987 DK. KALIREJO RT 05 RW 02 KAB. BLORA CADANGAN
2182 1100460830 SITI AISAH 12/03/1972 PUCUNG RT.01 RW.04 KAB. KENDAL CADANGAN
2183 1100460837 AGUS PRAMONO 20/08/1979 KEDUNGLEPER 02/02 KAB. JEPARA CADANGAN
2184 1100460841 SUPARTINI PARYADI PARDI 25/04/1972 KAUMAN RT 03/05 KAB. JEPARA CADANGAN
2185 1100460843 ANJASWADI MUSLIH MASRUKAN 02/10/1972 KAUMAN RT 03/05 KAB. JEPARA CADANGAN
2186 1100460844 CASTIAH 24/5/1963 TIWULANDU RT.02/02 BANJARHARJO KAB. BREBES CADANGAN
2187 1100460846 DILMY NURDIANSYAH SYAFRUDIN HUSIN 20/12/1982 KEMBANGSAWIT RT. 01. 04 KAB. KEBUMEN CADANGAN
2188 1100460849 SITI WARIYAH SAHRI 14/06/1968 ROBAYAN RT.01/01 [Link] KAB. JEPARA CADANGAN
2189 1100460851 ABDUL ADHIM RATMONO 17/03/1958 PELEMKEREP 03/02 KAB. JEPARA CADANGAN
2190 1100460853 TASMILAH TASLIM THOYIB 18/08/1960 PELEMKEREP 03/02 KAB. JEPARA CADANGAN
2191 1100460859 SAEFUR 24/06/1966 KARANGMALANG WETAN RT. 05 RW. 03 KAB. KENDAL CADANGAN
2192 1100460860 SUNHADI 03/03/1969 PUCUNG RT. 01 RW. 04 KAB. KENDAL CADANGAN
2193 1100460862 TRI ASTUTI HANDAYANI 07/08/1963 BANYUURIP 06/04 KAB. GROBOGAN CADANGAN
2194 1100460864 HARTINI 25/08/1963 KP. MEKARSARI RT 05 RW 12 KAB. WONOSOBO CADANGAN
2195 1100460865 UMI FARIDA MASYHUDI 15/06/1973 MANTINGAN 03/01 KAB. JEPARA CADANGAN
2196 1100460867 NIKMAWATI 17/09/1960 AJIBARANG KULON RT.2/6 KAB. BANYUMAS CADANGAN
2197 1100460869 JUNAEDI AMAD SUMEDI 03/06/1970 KRANGSARI RT.01/05 KAB. KEBUMEN CADANGAN
2198 1100460870 SITI SHOLECHAH 12/09/1966 KARANGMALANG WETAN RT. 05 RW. 03 KAB. KENDAL CADANGAN
2199 1100460871 TRI EDI HARYONO 17/1/1967 KEBOKUNING 04/03 KAB. MAGELANG CADANGAN
2200 1100460873 NUR ROHMAN ACHID IRSYAD 19/11/1968 MANTINGAN 03/01 KAB. JEPARA CADANGAN
2201 1100460875 CATUR SARI 20/07/1980 WANGKAH RT.07/RW.04 KAB. SUKOHARJO CADANGAN
2202 1100460876 NUR ROCHANI 07/10/1976 JOHO LOR RT.02 RW.11 KAB. WONOGIRI CADANGAN
2203 1100460880 SRI WIDAYATI 05/04/1961 MLEKANG RT 01/03 KAB. DEMAK CADANGAN
2204 1100460881 TRI HANDAYANI 04/11/1976 JLOPO RT 005 / RW 004 KAB. SUKOHARJO CADANGAN
2205 1100460883 SURAMIN 20/01/1960 MLEKANG RT 03/02 KAB. DEMAK CADANGAN
2206 1100460885 RIWANTO 12/01/1982 WANGKAH RT. 07/04 KAB. SUKOHARJO CADANGAN
2207 1100460886 BASUKI ROHMAN 30/3/1982 PENGKOL RT. 02 RW. 06 KAB. WONOGIRI CADANGAN
2208 1100460887 ETI RIYANTINI 27/12/1961 DESA DANARAJA RT 03 RW 01 KAB. BANYUMAS CADANGAN
2209 1100460889 NURAZIZAH 31/12/1967 GETASBLAWONG RT.03/RW.02 KAB. KENDAL CADANGAN
2210 1100460890 MULYONO 31/12/1961 KEMBANGAN RT.01/12 KAB. SUKOHARJO CADANGAN
2211 1100460891 MUHAMAD HUDA 17/05/1986 GG. AKUR PESANTREN RT 002/ RW 005 PENANGGULAN
KAB. KENDAL CADANGAN
2212 1100460892 AGUSYANTO 10/9/1969 DSN. SUMURMUNDING RT.03 RW.04 PEMALANG KAB. PEMALANG CADANGAN
2213 1100460893 HARTINI 31/12/1973 KEMBANGAN RT. 01/12 KAB. SUKOHARJO CADANGAN
2214 1100460897 ABDUR ROCHMAN 29/03/1971 PAKIS TENGAH 03/01 KAB. MAGELANG CADANGAN
2215 1100460898 NGATIYEM 01/07/1967 TANJUNG RT 24 RW 06 KAB. BOYOLALI CADANGAN
NO NO. PORSI NAMA TANGGAL LAHIR ALAMAT KAB/KOTA KETERANGAN
2216 1100460901 PITOYO 12/3/1967 CANTELAN RT. 02/03 KAB. SUKOHARJO CADANGAN
2217 1100460902 TIANA 31/12/1966 BANJARDAWA RT.03 RW.04 KAB. PEMALANG CADANGAN
2218 1100460903 RETNO KUSUMOWATI 14/01/1970 CANTELAN RT. 02/03 KAB. SUKOHARJO CADANGAN
2219 1100460904 SRI PANTES 2/9/1963 TEGALREJO RT. 04/04 KAB. SUKOHARJO CADANGAN
2220 1100460905 OEMI HIDAYATI 12/12/1972 JL. TAMPOMAS UTARA III/11 RT 4 RW 4 KOTA SEMARANG CADANGAN
2221 1100460906 SRI ROCHMAWATI 12/09/1957 JL. GAJAH MADA NO 69 PERUMDA 03/20 KAB. GROBOGAN CADANGAN
2222 1100460907 TRI MURYANTO 24/01/1959 TEGALREJO RT.04/04 KAB. SUKOHARJO CADANGAN
2223 1100460908 CARTA 01/07/1958 BODAS RT. 10 RW. 03 KAB. PEMALANG CADANGAN
2224 1100460910 TONI NOVERA HARIADI, ST 08/11/1973 DSN. JAMBU LOR RT.02 RW.01 KAB. SEMARANG CADANGAN
2225 1100460911 AMIYAH 10/09/1967 BODAS RT. 10 RW. 03 KAB. PEMALANG CADANGAN
2226 1100460912 LUWIYAH 02/06/1974 WANADADI RT 002/006 KAB. BANJARNEGARA CADANGAN
2227 1100460915 VERA NOVITA HADIATI, SH 24/04/1975 DSN. JAMBU LOR RT.02 RW.01 KAB. SEMARANG CADANGAN
2228 1100460917 TAUFIK HIDAYAT 07/08/1965 KARANGTENGAH RT.02 RW.01 KAB. BANJARNEGARA CADANGAN
2229 1100460919 SITI NGAISAH 21/06/1971 KARANGTENGAH RT.02 RW.01 KAB. BANJARNEGARA CADANGAN
2230 1100460920 PURNAWAN WIDODO 29/04/1975 KRAJAN 05/01 KAB. GROBOGAN CADANGAN
2231 1100460924 ENDANG SUSFANDIARY 04/04/1960 PERUM GEMURUH GRIYA BLOK A.16 KAB. BANJARNEGARA CADANGAN
2232 1100460925 PANUT 10/05/1970 MANGGUNG RT 02 RW 05 KAB. BOYOLALI CADANGAN
2233 1100460926 SULIYANTI 16/04/1982 MOJOBAYI RT 06 KAB. SRAGEN CADANGAN
2234 1100460927 MEI ANI RAHMAWATI 21/05/1981 JL. BRIGJEN SOEWONDO RT 03 RW 01 KAB. PURBALINGGA CADANGAN
2235 1100460928 NINA FITRIANA 31/07/1981 KRAJAN 05/01 KAB. GROBOGAN CADANGAN
2236 1100460929 DJAMSILAH 14/07/1966 SIDOKUMPUL RT.04/02 KAB. DEMAK CADANGAN
2237 1100460931 SUWARSIH 13/06/1971 MANGGUNG RT 02 RW 05 KAB. BOYOLALI CADANGAN
2238 1100460932 MUHAMMAD MA'RUF 10/04/1960 JL. URIPSUMOHARJO GG. 5 / 60 A RT. 7/6 KOTA PEKALONGAN CADANGAN
2239 1100460933 ETY SURYANI SUMEDI 10/9/1974 KRANGSARI RT.01/05 KAB. KEBUMEN CADANGAN
2240 1100460934 SUPRIONO 14/11/1972 CLAPAR RT 003/001 KAB. BANJARNEGARA CADANGAN
2241 1100460935 SURATMAN 31/12/1975 GUYANGAN 01/01 KAB. GROBOGAN CADANGAN
2242 1100460936 SUHARWANTI 14/11/1976 CLAPAR RT 003/001 KAB. BANJARNEGARA CADANGAN
2243 1100460937 UNTUNG PRAYITNO 2/4/1965 JL. PALA BARAT 1 BLOK E/29 RT.05/09 KAB. TEGAL CADANGAN
2244 1100460938 SUYATNO 20/12/1969 JL. TAMPOMAS UTARA III / 11 RT 4 RW 4 KOTA SEMARANG CADANGAN
2245 1100460939 LUMIYATI 10/01/1975 GUYANGAN 01/01 KAB. GROBOGAN CADANGAN
2246 1100460941 SUTRIYANTO 06/07/1980 MOJOBAYI RT 06 KAB. SRAGEN CADANGAN
2247 1100460942 SUDIROH PRASETIO 20/09/1984 DSN POLIR PEGUNDAN RT. 04 RW. 05 KAB. PEMALANG CADANGAN
2248 1100460943 SRI SUDIYARSIH 17/5/1972 JL. PALA BARAT 1 BLOK E/29 RT.05/09 KAB. TEGAL CADANGAN
2249 1100460945 SUHARYANTO 31/10/1963 PERUM DOSEN TRIYAGAN RT.05/RW.08 KAB. SUKOHARJO CADANGAN
2250 1100460948 AGUS ROMADONI 01/08/1979 JL. BRIGJEN SOEWONDO RT 03 RW 01 KAB. PURBALINGGA CADANGAN
2251 1100460949 TUYATI 30/9/1959 KEYONGAN RT 16 KAB. SRAGEN CADANGAN
2252 1100460951 NIKEN SUSILOWATI 18/12/1972 PERAK KOTABARU 014 09/03 KAB. KLATEN CADANGAN
2253 1100460952 SUHARNO 06/03/1961 KADIREJO 50/17 KAB. KLATEN CADANGAN
2254 1100460955 SUDARTI 28/05/1972 PERUM DOSEN TRIYAGAN RT.05/RW.08 KAB. SUKOHARJO CADANGAN
2255 1100460957 IMAM MUTAQIEN 02/12/1959 KEDUNGJATI RT 02 RW 02 KAB. PURBALINGGA CADANGAN
2256 1100460958 SIDIK NUR ISTIADI 31/07/1965 PERAK KOTABARU 014 09/03 KAB. KLATEN CADANGAN
2257 1100460965 SULIGI, SIP. 23/03/1963 JL. ANGSANA RAYA NO. 76 RT. 04/04 KAB. TEGAL CADANGAN
2258 1100460967 HENING BARU MARHATI 01/01/1965 NGREBINAN RT 02 RW 02 KAB. BOYOLALI CADANGAN
2259 1100460971 SUMANTO 04/05/1962 NGREBINAN RT 02 RW 02 KAB. BOYOLALI CADANGAN
2260 1100460972 RONI DARMAWAN,SH 18/01/1971 TAMAN ASRI B.4 NO.25 RT.04 RW.04 KAB. PEMALANG CADANGAN
2261 1100460974 AMALIA KRISTIANA,SE,[Link] 28/05/1970 TAMAN ASRI B.4 NO.25 RT.04 RW.04 KAB. PEMALANG CADANGAN
2262 1100460976 BADRIYAH 26/2/1965 JL KAUMAN NO.12 RT.15 RW.04 KAB. CILACAP CADANGAN
2263 1100460977 UMI MARWIYATI 27/12/1968 SUMBER NO.4B RT.05 [Link] KOTA SURAKARTA CADANGAN
2264 1100460979 NGATINI 17/2/1972 DK. GLADAGSARI RT.03/RW.12 KAB. KENDAL CADANGAN
2265 1100460980 RUSTIATIN, [Link] 23/10/1962 JL. KRAKATAU. NO. 20 RT 02 RW 02 KAB. PEMALANG CADANGAN
2266 1100460981 AHMAD SAMIIN 13/11/1971 PILANGREJO RT.05/01 KAB. DEMAK CADANGAN
2267 1100460983 ROISUL AMIN 07/04/1969 BEJI RT. 02 RW. 15 KAB. PEMALANG CADANGAN
2268 1100460984 FATHUR ROCHIM 07/05/1965 SUMBER RT 05/XI KOTA SURAKARTA CADANGAN
2269 1100460985 HIDAYATUN 01/10/1980 BEJI RT.02 RW.15 KAB. PEMALANG CADANGAN
2270 1100460988 ARY YULIONO 07/07/1992 [Link] NO.20 RT.02 RW.02 KAB. PEMALANG CADANGAN
2271 1100460989 SRI HENING WIDYASTUTI 05/01/1968 JL. WIJAYA KUSUMA 49 RT 03/15 KOTA SURAKARTA CADANGAN
2272 1100460990 SUSWANTO 04/04/1973 PRANGKOAN 02/01 KAB. MAGELANG CADANGAN
2273 1100460991 AMINING 08/08/1959 LEDOK RT 04/01 KAB. BLORA CADANGAN
2274 1100460996 SURATNO 05/09/1958 DEMANGAN 02/09 KAB. KLATEN CADANGAN
2275 1100460999 AGUS HERI BINDARTO, DRS 19/04/1961 JL. WIJAYAKUSUMA 49 RT.03 RW.15 KOTA SURAKARTA CADANGAN
2276 1100461002 SUPARJO 14/08/1963 BANJARBANGGI 06/02 KAB. GROBOGAN CADANGAN
2277 1100461004 SUTI 17/08/1961 SENGKLEYAN RT 19 KAB. SRAGEN CADANGAN
2278 1100461007 KAYATIN 7/8/1972 BANJARBANGGI 06/02 KAB. GROBOGAN CADANGAN
2279 1100461008 ENDANG SRI MARDANI 10/10/1958 TORIYO RT.02/02 KAB. SUKOHARJO CADANGAN
2280 1100461009 RATIYEM 07/01/1960 DUSUN SIDAMULYA RT02 RW12 KAB. CILACAP CADANGAN
2281 1100461010 EDI MULYONO 19/06/1971 TUMBAL 07/03 KAB. GROBOGAN CADANGAN
2282 1100461012 RAFI ZULIYATIN 21/02/1976 TUMBAL 07/03 KAB. GROBOGAN CADANGAN
2283 1100461013 FARIHIN 16/07/1972 KRANGGAN WATES RT.02 RW.06 KAB. BATANG CADANGAN
2284 1100461014 YUNAN HAMAMI MUBAROK 21/04/1978 LOSARI 03/01 KAB. MAGELANG CADANGAN
2285 1100461015 AGUSTIN KHOLIDAH 01/08/1973 KRANGGAN WATES RT.02 RW.06 KAB. BATANG CADANGAN
2286 1100461016 DWI PURWANTO SUPARNO 23/03/1959 KARANGWONO 1/3 TAMBAKROMO KAB. PATI CADANGAN
2287 1100461020 KURNIASIH ABAS LASMANA 04/10/1981 JATIMULYO RT.02/01 KAB. KEBUMEN CADANGAN
2288 1100461021 ZAENAL ARIFIN ABDUL AZIS 16/03/1975 JATIMULYO RT.02/01 KAB. KEBUMEN CADANGAN
2289 1100461022 SITI ROKHANI 01/09/1974 NGEMPLAK RT. 02/01 GEBANG KAB. PURWOREJO CADANGAN
2290 1100461023 ERRY HARTINI SUWADI 5/3/1961 KARANGWONO 1/3 TAMBAKROMO KAB. PATI CADANGAN
2291 1100461026 M. ASRORI SUKIBAN SUKO 21/10/1968 LEBUAWU RT.003/001 KAB. JEPARA CADANGAN
2292 1100461028 JUMALI PAWIRA KUKUH 17/08/1965 KAUMAN KIDUL RT 01 RW 05 KOTA SALATIGA CADANGAN
2293 1100461029 SUNARTI KAMSO LASMI 01/07/1962 KLUMPIT 7/2 TLOGOWUNGU KAB. PATI CADANGAN
2294 1100461031 NOR IDA KUSRIA 2/9/1980 LEBUAWU RT.003/001 KAB. JEPARA CADANGAN
2295 1100461032 SURATMI SARJU TUMIRAH 13/10/1960 SUNDOLUHUR 20/3 KAYEN KAB. PATI CADANGAN
2296 1100461033 SUDIRMAN JAMADI PARTI 05/06/1962 PASUCEN 6/6 TRANGKIL KAB. PATI CADANGAN
2297 1100461034 HETMI WIDANINGSIH 14/08/1972 [Link] CERMAI GG.G AGUNG RT. 9/3 BBSN KAB. BANYUMAS CADANGAN
2298 1100461035 RUMISIH JOYO JIMIN 12/01/1964 PASUCEN 6/6 TRANGKIL KAB. PATI CADANGAN
2299 1100461036 SUBUR 07/03/1967 BOBOSAN RT 09 RW 03 KAB. BANYUMAS CADANGAN
2300 1100461037 CUNTIAH TOKRIB SITI ZAENI 20/9/1958 PRAWOTO 3/3 SUKOLILO KAB. PATI CADANGAN
2301 1100461038 RUSDI SUBARI RUKAMAH 31/12/1960 KASIYAN 2/1 SUKOLILO KAB. PATI CADANGAN
2302 1100461039 MARTINAH 31/12/1961 DUSUN SIDAMULYA RT02 RW11 KAB. CILACAP CADANGAN
2303 1100461040 MUAZIROH A. DOBAS SITI MARFUAH 01/07/1965 KASIYAN 2/1 SUKOLILO KAB. PATI CADANGAN
2304 1100461041 PUJI PRANOTO KARDI 15/01/1965 MULYOHARJO 9/1 PATI KAB. PATI CADANGAN
2305 1100461043 SRI MARTINI 24/1/1970 SRIYATNO RT 01 RW 01 KAB. BOYOLALI CADANGAN
2306 1100461044 KARPI SELAMET WARSIH 24/11/1965 MULYOHARJO 9/1 PATI KAB. PATI CADANGAN
2307 1100461045 SIHONO 08/09/1959 NGLADON 02/01 KAB. KLATEN CADANGAN
2308 1100461046 ABD. HAMID NAUHI 8/3/1967 PANDANARUM RT.02/03 TIRTO KAB. PEKALONGAN CADANGAN
2309 1100461047 PARTI SISWO SUWARNO 20/10/1961 GOMBANG 02/05 KAB. KLATEN CADANGAN
2310 1100461048 SITI MUSTATIKATUN 20/6/1971 PILANGREJO RT.05/01 KAB. DEMAK CADANGAN
2311 1100461049 TANTO HASTONO 17/12/1968 SRIYATNO RT 01 RW 01 KAB. BOYOLALI CADANGAN
2312 1100461050 SISWO SUWARNO 31/12/1960 GOMBANG 02/05 KAB. KLATEN CADANGAN
2313 1100461051 NUR AZIZAH 12/07/1968 PANDANARUM RT.02/03 TIRTO KAB. PEKALONGAN CADANGAN
2314 1100461052 PRIYADI, [Link]. 01/01/1972 TEGALGADING 31/11 KAB. KLATEN CADANGAN
2315 1100461054 ELIA WULANDARI, [Link]. 03/06/1974 TEGALGADING 31/11 KAB. KLATEN CADANGAN
2316 1100461055 KASMURI 01/09/1961 WONOBOYO 03/02 KAB. GROBOGAN CADANGAN
2317 1100461056 WARTINI 13/03/1966 WONOBOYO 03/02 KAB. GROBOGAN CADANGAN
2318 1100461057 JOKO TRIYANTO 21/2/1962 NGADIJAYAN RT.05/RW.02 KAB. SUKOHARJO CADANGAN
2319 1100461058 TRI HARYANTI 12/12/1965 NGADIJAYAN RT.05/RW.02 KAB. SUKOHARJO CADANGAN
2320 1100461059 SITI SAKHIYAH 17/05/1968 NGAMBAK 03/02 KAB. GROBOGAN CADANGAN
2321 1100461060 WIDOYO 2/8/1958 SUKOREJO 03/09 KAB. KLATEN CADANGAN
2322 1100461062 TURIYAH 31/12/1961 DUSUN DONGKELAN RT02 RW02 KAB. CILACAP CADANGAN
2323 1100461063 RUM NUR AINI 15/03/1971 SUKOREJO 03/09 KAB. KLATEN CADANGAN
2324 1100461065 AGUS HIDAYATUDDIN 29/03/1976 PERUM CITRA INDAH BLOK E 5 KRAPYAK 01/13 KAB. KLATEN CADANGAN
2325 1100461066 MOHTAR POTRO DJOYO 01/07/1957 KUNIRAN 4/3 BATANGAN KAB. PATI CADANGAN
2326 1100461068 IDA NURROHANI 12/05/1976 PERUM CITRA INDAH E5 01/13 KAB. KLATEN CADANGAN
2327 1100461070 SULATI KARDIMIN TARMI 01/07/1963 KUNIRAN 4/3 BATANGAN KAB. PATI CADANGAN
2328 1100461072 DHAHRI MUNAWAR 30/07/1969 MANTON 10/05 KAB. KLATEN CADANGAN
2329 1100461073 SUMAELAH 09/09/1974 SAMBONG WIROSARI 3 NO.10 RT.01 RW.09 KAB. BATANG CADANGAN
2330 1100461074 SRI NGATEMI 09/09/1973 MANTON 10/05 KAB. KLATEN CADANGAN
2331 1100461078 NGADENAN, SPD 19/07/1970 TEBON GEDE 03/08 KAB. KLATEN CADANGAN
2332 1100461082 ENDANG RATNAWATI 12/7/1963 JL. PAJAJARAN 35 RT. 1 RW. 10 KOTA PEKALONGAN CADANGAN
2333 1100461083 SITI NURJANAH HANDAYANI 16/10/1960 KLEPU 03/03 KAB. KLATEN CADANGAN
2334 1100461084 SITI MARIYAH 14/02/1971 JL. PATIKRAJA RT 06 RW II KAB. BANYUMAS CADANGAN
2335 1100461087 SUTOPO 11/05/1963 JL. PAJAJARAN 35 RT. 1 RW. 10 KOTA PEKALONGAN CADANGAN
2336 1100461088 MUKHOYAROH 24/02/1977 RANDUSULUR RT 003 / RW 002 KAB. DEMAK CADANGAN
2337 1100461089 INDAH DWI HASTUTI 12/02/1965 SUKOHARJO 4/6 MARGOREJO KAB. PATI CADANGAN
2338 1100461093 PURWANI SRI LESTARI 17/08/1957 NOSUTAN 01/06 KAB. KLATEN CADANGAN
2339 1100461094 PARMIN 18/06/1969 JOHO LOR RT.02 RW.11 KAB. WONOGIRI CADANGAN
2340 1100461095 RIFAI DARADJAT HIMAM 20/06/1960 SUKOHARJO 4/6 MARGOREJO KAB. PATI CADANGAN
2341 1100461098 SUBARI 19/08/1957 [Link] WIJOYO 05/01 KAB. GROBOGAN CADANGAN
2342 1100461100 SUPADMI,SH 08/07/1961 DANGSRI 01/03 KAB. KLATEN CADANGAN
2343 1100461101 ENDANG DWI SUSILOWATI 07/08/1960 JL. MERTO WIJOYO 05/01 KAB. GROBOGAN CADANGAN
NO NO. PORSI NAMA TANGGAL LAHIR ALAMAT KAB/KOTA KETERANGAN
2344 1100461102 SAROPAH 17/4/1968 SANTREN 02/09 KAB. MAGELANG CADANGAN
2345 1100461103 SUSILA WARDAYA 13/11/1973 KRAPYAK LOR 16/09 KAB. KLATEN CADANGAN
2346 1100461104 SARTINAH 31/12/1967 TEMPURAN, RT.06/RW.03 KAB. TEMANGGUNG CADANGAN
2347 1100461105 SURATMI 20/07/1959 BLAGUNG RT 05 RW 01 KAB. BOYOLALI CADANGAN
2348 1100461106 MARSIYEM 14/08/1957 JETIS 02/06 KAB. KLATEN CADANGAN
2349 1100461107 TUN FAHMI AFIF 12/01/1968 JL. PERTIWI NO. 12A RT 05 RW 04 KAB. BANYUMAS CADANGAN
2350 1100461108 ASMU'I 14/02/1968 TEMPURAN, RT.06/RW.03 KAB. TEMANGGUNG CADANGAN
2351 1100461109 RACHMI HELMAWATI 05/05/1969 [Link] NO.12 A RT.5/4 MERSI KAB. BANYUMAS CADANGAN
2352 1100461110 PRANOTO HADI SUKONO 15/2/1961 BODASKARANGJATI RT 03 RW 02 KAB. PURBALINGGA CADANGAN
2353 1100461111 YUSUF CHAMDANI, ST 30/11/1979 GEBANG RT. 01/03 KAB. PURWOREJO CADANGAN
2354 1100461113 TITI LESTARI MIRMOPAWIRO 31/12/1958 KAWEDUSAN RT.04/02 KAB. KEBUMEN CADANGAN
2355 1100461114 RODIYAH 08/05/1968 BODASKARANGJATI RT 03 RW 02 KAB. PURBALINGGA CADANGAN
2356 1100461115 DR. DEWI SUSILOWARDANI 21/05/1979 GEBANG RT. 01/03 KAB. PURWOREJO CADANGAN
2357 1100461116 TOYIB AROIZI 20/03/1964 BESARAN, RT.02/RW.07 KAB. TEMANGGUNG CADANGAN
2358 1100461117 SUYADI 06/09/1957 SIKUNIR RT 01 RW 5 KOTA SEMARANG CADANGAN
2359 1100461118 CARSIH 04/07/1967 PANUSUPAN RT 02 RW 09 KAB. PURBALINGGA CADANGAN
2360 1100461119 RUMDANI DWI MURSINGGIH 25/06/1963 KARANGKEDAWUNG RT 05/02 KAB. BANYUMAS CADANGAN
2361 1100461120 FAJAR HIDAYAT 30/09/1967 JAMBANGAN RT 27 KAB. SRAGEN CADANGAN
2362 1100461121 RUBINGAH 08/05/1968 BESARAN, RT.02/RW.07 KAB. TEMANGGUNG CADANGAN
2363 1100461122 SRI YULIYATI 17/07/1962 KARANGKEDAWUNG RT 5 / 2 KAB. BANYUMAS CADANGAN
2364 1100461123 HADI WAHYONO 04/07/1966 PANUSUPAN RT 02 RW 09 KAB. PURBALINGGA CADANGAN
2365 1100461124 SITI ROHMAH 29/01/1962 KP. SIKUNIR RT.01/05 KOTA SEMARANG CADANGAN
2366 1100461125 SRI WINARTI 04/01/1974 JAMBANGAN KAB. SRAGEN CADANGAN
2367 1100461126 SITI CHOLISOH 14/8/1959 JL LAWET NO 18 RT 02 RW 03 KAB. PURBALINGGA CADANGAN
2368 1100461127 SUTARMAN ABU SAERI SULAIMAN 31/12/1957 KEMANGGUAN RT. 04. 01 KAB. KEBUMEN CADANGAN
2369 1100461128 SRI WIKADARNINGSIH 19/11/1960 KADIREJO 50/17 KAB. KLATEN CADANGAN
2370 1100461131 INDRI RAHMAWATI 03/07/1986 TAMAN SARI RT 36 RW 15 KAB. SRAGEN CADANGAN
2371 1100461133 MUNFIAH 01/07/1963 BAJONG RT 02 RW 03 KAB. PURBALINGGA CADANGAN
2372 1100461134 SRI NINGSIH HARDJO SUHADI 13/05/1962 TERJAN RT 002 RW 002 KRAGAN KAB. REMBANG CADANGAN
2373 1100461135 SUMARNI 19/4/1959 RINGINASRI RT. 01 RW. 12 KAB. KARANGANYAR CADANGAN
2374 1100461136 BAMBANG SUPRIYONO SAIDI PRAPTOWIJOYO 16/12/1958 KAWEDUSAN RT.04/01 KAB. KEBUMEN CADANGAN
2375 1100461138 SUTRISNA MUHAMMAD DAMAN HURI 29/10/1966 JL. ARGOLUWIH NO. 17 A RT 11 RW 01 KOTA SALATIGA CADANGAN
2376 1100461140 HETI OKDIARTI 13/10/1979 PATIKRAJA RT 01 RW 08 KAB. BANYUMAS CADANGAN
2377 1100461143 DEWI IRMAYANTI KUSTATININGRUM 08/08/1968 JL. ARGOLUWIH NO. 17 A RT 11 RW 01 KOTA SALATIGA CADANGAN
2378 1100461144 SUHARTINAH 16/06/1958 JL. PIPA TIMUR NO.24 RT04 RW10 KAB. CILACAP CADANGAN
2379 1100461145 NURJANNAH, [Link] 18/05/1964 BURAN WETAN RT. 08 RW. 02 KAB. KARANGANYAR CADANGAN
2380 1100461147 MUNASIR TODIKROMO TASMIN 10/01/1961 TERJAN RT 002 RW 002 KRAGAN KAB. REMBANG CADANGAN
2381 1100461150 SUYANTI 16/06/1976 JL. KENANGA NO.52 RT.004 RW.03 KAB. CILACAP CADANGAN
2382 1100461151 BAMBANG SRIJATNO, [Link], MM 30/01/1958 RINGINASRI RT. 01 RW. 12 KAB. KARANGANYAR CADANGAN
2383 1100461152 DRS. WAQOF ADRO'I, [Link] 5/4/1965 KRAJAN RT.04 RW.02 KAB. SEMARANG CADANGAN
2384 1100461155 RADEN RORO ENDANG SULISTYAWATI 16/12/1969 DUSUN BANGUNSARI RT.02 RW.05 KAB. CILACAP CADANGAN
2385 1100461156 AMAT SUMERI 29/01/1964 MAJIR RT 03/03 KAB. PURWOREJO CADANGAN
2386 1100461158 CHANIFUDDIN, [Link] MSI 03/07/1968 WIYOROWETAN RT 03 RW 01 KAB. PEMALANG CADANGAN
2387 1100461159 S. HADIYANTO 18/05/1959 BURAN WETAN RT. 08 RW. 02 KAB. KARANGANYAR CADANGAN
2388 1100461161 AFIAH, [Link] 1/5/1970 WIYOROWETAN RT 03 RW 01 KAB. PEMALANG CADANGAN
2389 1100461162 MIFTAHUL JANNAH, DRA 21/11/1966 KRAJAN RT.04 RW.02 BANYUKUNING KAB. SEMARANG CADANGAN
2390 1100461164 MUHSINUN SUKIDI RASIDIN 12/10/1970 JL. HASANUDIN NO.116 B RT 09 RW 06 KOTA SALATIGA CADANGAN
2391 1100461165 SUPINO 03/08/1965 JL. KENANGA NO. 51 RT.04 RW.03 KAB. CILACAP CADANGAN
2392 1100461167 NGATINAH 08/10/1959 SAMBIREJO RT 24 KAB. SRAGEN CADANGAN
2393 1100461168 UMA FARIDA 15/05/1972 MAJIR RT 03/03 KAB. PURWOREJO CADANGAN
2394 1100461173 EMI TRIANA 24/05/1968 BAWANG RT 002/005 KAB. BANJARNEGARA CADANGAN
2395 1100461175 GINI WURYATI 22/04/1964 BANARAN RT 25 KAB. SRAGEN CADANGAN
2396 1100461180 TITIK MULYANI 01/12/1962 DUKUHREJO RT 01 RW 02 KAB. BOYOLALI CADANGAN
2397 1100461181 EDY CUSYONO 21/01/1964 PROYONANGGAN SELATAN DRACIK RT.03 RW.04KAB. BATANG CADANGAN
2398 1100461184 EDI HARJONO 11/9/1966 BAWANG RT 002/005 KAB. BANJARNEGARA CADANGAN
2399 1100461185 HARMANTO 12/12/1958 DUKUHREJO RT 01 RW 02 KAB. BOYOLALI CADANGAN
2400 1100461186 ISNI HIDAYATI NGUSMAN 08/07/1968 PENGKOL 02/07 KAB. JEPARA CADANGAN
2401 1100461187 NINING HARYANTI 29/8/1982 JETAK RT 12 KAB. SRAGEN CADANGAN
2402 1100461189 MUKMINAH MASKUN KASPAN 18/12/1965 REJOSARI RT 03 RW 04 KAB. KUDUS CADANGAN
2403 1100461190 ALI ASFARI IMAM SUHADI 12/06/1961 PENGKOL 02/07 KAB. JEPARA CADANGAN
2404 1100461191 ISMI MUFTICHAH 26/03/1963 BANGSAN RT. 01/01 KAB. SUKOHARJO CADANGAN
2405 1100461192 EDI MARGONO 05/03/1972 JETAK RT 12 KAB. SRAGEN CADANGAN
2406 1100461194 SRI WALYATI 01/05/1963 BENGKAL, RT.02/RW.01 KAB. TEMANGGUNG CADANGAN
2407 1100461195 SOLEH PRAYITNO 17/08/1966 RT 02 RW 03 MERGAWATI KAB. CILACAP CADANGAN
2408 1100461197 LAMIYATUN 15/7/1966 RT 03 RW 03 MERGAWATI KAB. CILACAP CADANGAN
2409 1100461198 GIYATMI 18/10/1971 JENGKILUNG RT 20 KAB. SRAGEN CADANGAN
2410 1100461199 RUKIMIN ACHMAD SYUKUR 14/01/1959 REJOSARI RT 03 RW 04 KAB. KUDUS CADANGAN
2411 1100461200 AGUS AMPERIYANTO, SE 08/08/1966 PENUSUPAN RT.03/04 PANGKAH KAB. TEGAL CADANGAN
2412 1100461201 SUYATI YAMARI SUKINAH 01/07/1957 TRANGKIL 4/1 TRANGKIL KAB. PATI CADANGAN
2413 1100461202 MUH HABIB 2/3/1969 JENGKILUNG RT 20 KAB. SRAGEN CADANGAN
2414 1100461203 SRI DIYAH ARIASTUTI 12/10/1958 SANGGRAHAN RT.02 RW.08 KAB. WONOGIRI CADANGAN
2415 1100461204 SUTARMI 25/04/1960 DUNGRINGIN RT. 23 RW. 01 KAB. WONOGIRI CADANGAN
2416 1100461205 MUSLIM 25/09/1960 BANGSAN RT. 01/01 KAB. SUKOHARJO CADANGAN
2417 1100461207 ISTIYANTO 03/11/1962 BENGKAL, RT.02/RW.01 KAB. TEMANGGUNG CADANGAN
2418 1100461209 SUPARIYANTI 24/05/1961 CANTEL KULON RT 01/23 KAB. SRAGEN CADANGAN
2419 1100461210 SITI NUR AZIZAH ULFAH 4/7/1980 PERUM KBN A8 PANGENJURUTENGAH KAB. PURWOREJO CADANGAN
2420 1100461215 SOLICHAH 12/12/1958 GROGOL, RT.01/RW.03 KAB. TEMANGGUNG CADANGAN
2421 1100461216 AYIT MUSTOFA AHMAD LATIF TOHIR 12/11/1972 TLOGOPRAGOTO RT. 02. 02 KAB. KEBUMEN CADANGAN
2422 1100461217 TUMINAH 26/05/1958 JL. MUNDU GG SUKUN NO.03 RT08 RW11 KAB. CILACAP CADANGAN
2423 1100461218 MUSODDIQOH 25/06/1959 RANDUSARI RT.18 RW.04 KAB. SEMARANG CADANGAN
2424 1100461219 SRI PUJILESTARI YUSRO SINDU PRAMONO 25/4/1974 TLOGOPRAGOTO RT. 02. 02 KAB. KEBUMEN CADANGAN
2425 1100461220 SRI SULASTRI 20/12/1967 WERU RT.02 RW.11 KAB. WONOGIRI CADANGAN
2426 1100461221 JOKO TRI PURWANTA 6/1/1968 GETASAN 03/02 KAB. KLATEN CADANGAN
2427 1100461223 MOCH. AGUNG MULIA 16/10/1997 SALEM RT. 02/02 SALEM KAB. BREBES CADANGAN
2428 1100461224 MARNO 03/10/1962 WERU RT.02 RW.11 KAB. WONOGIRI CADANGAN
2429 1100461225 BUDI HARTATI 01/01/1971 SALEM RT. 02/02 SALEM KAB. BREBES CADANGAN
2430 1100461226 SUTADI YUSRO SINDU PRAMONO 10/6/1978 WINONG RT. 01. 02 KAB. KEBUMEN CADANGAN
2431 1100461227 SUMARNI 12/12/1957 JATISRONO RT.03 RW.01 KAB. WONOGIRI CADANGAN
2432 1100461230 SRI PALUPI 14/06/1978 BORO KULON RT 01/06 KAB. PURWOREJO CADANGAN
2433 1100461231 MAHMUDAH NGAMRUN ROMLI 02/02/1989 WINONG RT. 01. 02 KAB. KEBUMEN CADANGAN
2434 1100461233 SENTHOT PURNOMO 22/09/1972 WATES WETAN RT.01 RW.06 KAB. WONOGIRI CADANGAN
2435 1100461234 SUYONO 9/3/1966 TLOGOREJO RT.02/03 KAB. DEMAK CADANGAN
2436 1100461235 HANIEF KHALIFA, SP 24/12/1988 GABUDAN RT.01 RW,07 KOTA SURAKARTA CADANGAN
2437 1100461236 SARWINI 18/01/1980 WATES WETAN RT.01 RW.06 KAB. WONOGIRI CADANGAN
2438 1100461237 MISNO 2/6/1959 EROMOKO WETAN RT.05 RW.03 KAB. WONOGIRI CADANGAN
2439 1100461238 TEOPHILA BUDIHARSI, DRS 29/12/1959 JL NAKULO NO 104 RT. 04 RW. 13 KAB. KARANGANYAR CADANGAN
2440 1100461239 IN. ROESMIEDI, DRS, MM 12/03/1958 JL NAKULO NO 104 RT. 04 RW. 13 KAB. KARANGANYAR CADANGAN
2441 1100461240 YATINI 24/04/1965 EROMOKO WETAN RT.05 RW.03 KAB. WONOGIRI CADANGAN
2442 1100461241 WORO HASTUTI ARTININGSIH 02/08/1960 JL. A YANI NO.109 RT. 07/19 BREBES KAB. BREBES CADANGAN
2443 1100461242 WINARYO 21/02/1959 JL.A YANI NO. 109 RT.07/19 BREBES KAB. BREBES CADANGAN
2444 1100461243 SITI RAHYUNI 01/01/1959 WATES WETAN RT.02 RW.06 KAB. WONOGIRI CADANGAN
2445 1100461245 SRI MARYANTI 22/01/1976 SIDOKRIYO RT.04 RW.05 KAB. WONOGIRI CADANGAN
2446 1100461246 WIYONO 9/8/1963 WALANG RT 02/02 KAB. SUKOHARJO CADANGAN
2447 1100461248 RAHAYU 31/12/1967 WALANG RT.02/RW.02 KAB. SUKOHARJO CADANGAN
2448 1100461249 TUTI WINARSIH 06/12/1957 WATULEMBU KULON RT.01 RW.05 KAB. WONOGIRI CADANGAN
2449 1100461250 SITI QOMARIYAH 18/07/1969 JATIREJO RT.01/RW.07 KAB. SUKOHARJO CADANGAN
2450 1100461251 SUPARNA 05/07/1963 JATIREJO RT.01/RW.07 KAB. SUKOHARJO CADANGAN
2451 1100461256 SUMILAH SARPIN SARIJAH 09/05/1966 KUNIRAN 2/1 BATANGAN KAB. PATI CADANGAN
2452 1100461258 AHMAD FAIZIN MASTAWIN 25/03/1960 KUNIRAN 2/1 BATANGAN KAB. PATI CADANGAN
2453 1100461259 ENDANG SETYOWATIE 28/05/1972 [Link] RT.01 RW.02 KAB. WONOGIRI CADANGAN
2454 1100461261 KISWANTO 07/11/1969 JL. NAKULA I RT.01 RW.13 KAB. WONOGIRI CADANGAN
2455 1100461263 ZARKONI SUNAWI NGADAM 14/06/1984 WELAHAN 09/03 KAB. JEPARA CADANGAN
2456 1100461264 SRI HARTINI 24/04/1958 LINGK. DANGKRANG RT.02 RW.04 KAB. WONOGIRI CADANGAN
2457 1100461265 WIKOYATI 19/06/1973 DUSUN KARANGTURI RT.06 RW.04 KAB. KENDAL CADANGAN
2458 1100461270 HAFIDLOTUN NASIHAH NIDLOM 20/06/1992 WELAHAN 09/03 KAB. JEPARA CADANGAN
2459 1100461271 SUTARMI 05/11/1961 SUKOROYOM KULON RT. 02 RW. 03 KAB. WONOGIRI CADANGAN
2460 1100461272 LISAYANTI WIDAYATI 19/02/1966 DAGEN RT. 01 RW. 09 KAB. KARANGANYAR CADANGAN
2461 1100461274 KUSTAMTO 11/04/1966 [Link] DUSUN KRAMAT KRAJAN 01/02 KAB. GROBOGAN CADANGAN
2462 1100461277 SUGIYANTO 17/07/1976 ASRAMA II YON ARMED 4/105 GS [Link] RUMPUT
[Link].0
GROBOGAN CADANGAN
2463 1100461280 JAMROJI 28/01/1974 PUNUKAN WETAN RT 005 / RW 010 KAB. KARANGANYAR CADANGAN
2464 1100461282 SITI NUR ARIFAH 29/03/1971 KEBONAN RT 07 RW 01 KAB. BOYOLALI CADANGAN
2465 1100461284 AMAN DARMATIN 07/07/1971 KEBONAN RT 07 RW 01 KAB. BOYOLALI CADANGAN
2466 1100461285 SUKMANDARI SUGENG RIYADI 05/11/1970 JAMBU TIMUR RT.004/001 KAB. JEPARA CADANGAN
2467 1100461286 YOSENI, SE 11/05/1969 JUNGKE RT. 01 RW. 01 KAB. KARANGANYAR CADANGAN
2468 1100461287 EDY SUYANTO SATUKIN 25/8/1970 JAMBU TIMUR RT.004/001 KAB. JEPARA CADANGAN
2469 1100461288 SUMARTINAH KARTO INANGUN 29/12/1957 BUCU 01/04 KEC. KEMBANG KAB. JEPARA CADANGAN
2470 1100461290 HARYANTO 02/05/1958 TERWIDI RT.03/04 KOTA SEMARANG CADANGAN
2471 1100461291 WAHYU UTOMO WISNUGROHO 7/2/1986 BUCU 01/04 KEC. KEMBANG KAB. JEPARA CADANGAN
NO NO. PORSI NAMA TANGGAL LAHIR ALAMAT KAB/KOTA KETERANGAN
2472 1100461293 SRI SUNGATMIYATI 29/12/1962 TERWIDI RT.03/04 KOTA SEMARANG CADANGAN
2473 1100461295 MIFTAHUL AMIN 07/02/1964 JL. MASJID NO. 83 RT.04/RW.01 KAB. KENDAL CADANGAN
2474 1100461296 MIFTAHUL ARIF MUCHLISIN 13/08/1984 HONGGOSOCO RT 01 RW 05 KAB. KUDUS CADANGAN
2475 1100461297 SULASIH 01/09/1966 BERGOLO RT 02 RW 01 KAB. BLORA CADANGAN
2476 1100461298 ARUM WINARNI UNTUNG SANTOSO 16/07/1985 HONGGOSOCO RT 01 RW 05 KAB. KUDUS CADANGAN
2477 1100461299 ARIF QOMARUDDIN 27/08/1958 JL. ARGOMULYO MUKTI 04 / D-169 RT 1 / 10 KOTA SEMARANG CADANGAN
2478 1100461301 MOHRI 11/02/1970 KP. KAUMAN LOR RT. 01 RW. 04 KAB. KENDAL CADANGAN
2479 1100461302 M. NUR ALVIN MUBAROK 16/09/1999 KP. KAUMAN LOR RT.01 RW. 04 KAB. KENDAL CADANGAN
2480 1100461303 ROZANAH 18/04/1963 PANDES RT.04 RW.01 KAB. KENDAL CADANGAN
2481 1100461304 RENNY CHRISTIANA 01/12/1971 PERUM BIB BLOK C NO.1 RT. 08 RW. 03 KAB. KARANGANYAR CADANGAN
2482 1100461310 FATIKHA 3/3/1962 TUWEL RT.02/03 BOJONG KAB. TEGAL CADANGAN
2483 1100461311 SUSIYANTO ACHMAD, [Link] 15/10/1960 JL. LUWUNGRI RT.02/01 BUMIHARJA KAB. TEGAL CADANGAN
2484 1100461312 RINI WAHYUNINGSIH, [Link] 8/6/1973 JL. PUTER BLOK C1/3 PRUM UNS V RT. 02/23 KAB. KARANGANYAR CADANGAN
2485 1100461313 MUHAJIRUN, [Link] 11/10/1972 JL. PUTER C1/03 PRUMNAS UNS V RT. 2/23 KAB. KARANGANYAR CADANGAN
2486 1100461314 ROCHYATI, [Link] 12/09/1966 JL. LUWUNGRI RT.02/01 BUMIHARJA KAB. TEGAL CADANGAN
2487 1100461315 SUHARJIANTO 03/01/1961 KUYUDAN RT.02/05 KAB. SUKOHARJO CADANGAN
2488 1100461316 IKHWAN KHOIRUDIN 09/07/1986 SIDOREJO RT. 07 RW. 02 KAB. KARANGANYAR CADANGAN
2489 1100461317 DHENIS KUSUMAWARDHANI 01/11/1991 BONENG RT. 01 RW. 09 KAB. KARANGANYAR CADANGAN
2490 1100461320 NASIATUL IMAMAH 07/07/1965 KUYUDAN RT.02/RW.05 KAB. SUKOHARJO CADANGAN
2491 1100461321 ARIS YUWANI, DRA 10/04/1965 PERUM JOSROYO RT 11 RW 16 KAB. KARANGANYAR CADANGAN
2492 1100461323 SUPRIYANTI 01/08/1971 JL. PALA BARAT I BLOK D/33 RT.04/09 KAB. TEGAL CADANGAN
2493 1100461324 ASEP RIDIAMAN 02/03/1964 DUSUN KANCI I RT. 02/03 KAB. MAGELANG CADANGAN
2494 1100461325 SAYATUN 05/08/1963 BUNTU RT.06/03 MESOYI TALUN KAB. PEKALONGAN CADANGAN
2495 1100461326 SULISTIYANTO, [Link] 15/07/1964 JL. PALA BARAT I BLOK D/33 RT.04/09 KAB. TEGAL CADANGAN
2496 1100461327 SRI EKO LUSMIYATI 29/06/1968 KANCI I RT. 02/03 KAB. MAGELANG CADANGAN
2497 1100461328 EDY PRAYITNO, S PD 07/01/1965 JL. ABABIL [Link] RT.07 RW.06 KOTA TEGAL CADANGAN
2498 1100461329 SETIANINGRUM 24/04/1974 JL. ABABIL [Link] RT.07 RW.06 KOTA TEGAL CADANGAN
2499 1100461330 WARSITO 07/03/1967 TANJUNGSARI RT. 01/05 KAB. SUKOHARJO CADANGAN
2500 1100461331 DWI SUYARNI 17/6/1976 DK. TANJUNG RT. 02/09 KAB. SUKOHARJO CADANGAN
2501 1100461333 MURDIYANTO 14/10/1969 DK. TANJUNG RT. 02/09 KAB. SUKOHARJO CADANGAN
2502 1100461335 SUKAMTI 24/07/1959 JL. SUNAN AMPEL NO. 10 RT 08 RW 01 KOTA MAGELANG CADANGAN
2503 1100461339 TOHA MUSLIM 05/09/1970 JL. GRIYA PRASETYA UTARA III/9 RT 6/10 KOTA SEMARANG CADANGAN
2504 1100461341 RAHAYU CATUR RETNO 28/03/1976 JL. GRIYA PRASETYA UTARA III/9 RT 6 / 10 KOTA SEMARANG CADANGAN
2505 1100461346 MUHTADI 19/07/1970 NGAMBAKREJO 02/01 KAB. GROBOGAN CADANGAN
2506 1100461347 MAHDUM 28/08/1977 PEDURUNGAN LOR RT.02/05 KOTA SEMARANG CADANGAN
2507 1100461348 NURUL HIDAYAH 14/05/1977 PEDURUNGAN LOR RT.02/05 KOTA SEMARANG CADANGAN
2508 1100461349 SULASTRI 27/01/1970 KP. NGABLAK KIDUL RT.02/08 KOTA SEMARANG CADANGAN
2509 1100461351 LILIS SETIYOWATI 21/09/1976 NGAMBAKREJO 02/01 KAB. GROBOGAN CADANGAN
2510 1100461353 SRI REJEKI 02/04/1964 PLAMONGAN INDAH BLOK D.1 NO.11 RT.09/27 KAB. DEMAK CADANGAN
2511 1100461354 TARPIATIN 17/08/1957 DS. KARANGTENGAH RT 04/02 KAB. BLORA CADANGAN
2512 1100461355 NANANG SYAFIQ SUNARMA 17/07/1975 DS. SOKA RT.07/04 LEREP UNGARAN BARAT KAB. SEMARANG CADANGAN
2513 1100461356 MURINAH 12/05/1962 BAKUNGAN RT.04/01 MULYOREJO KESESI KAB. PEKALONGAN CADANGAN
2514 1100461358 RUKHIYAT MULYADI 10/1/1961 PLAMONGAN INDAH BLOK D.1 NO.11 RT.09/27 KAB. DEMAK CADANGAN
2515 1100461359 NUR FAINDAH 23/10/1968 KELENGAN KECIL C/583 RT 6 RW 4 KOTA SEMARANG CADANGAN
2516 1100461361 YAYUK PARAGAWATI 29/09/1975 DS. SOKA RT.07/04 LEREP UNGARAN BARAT KAB. SEMARANG CADANGAN
2517 1100461362 ALFIANA DWI WIJAYANTI 31/05/1992 PURWODININGRATAN RT.02 RW.08 KOTA SURAKARTA CADANGAN
2518 1100461363 ABDUL WAHAB AQIL 17/06/1987 PURWOPURAN RT.02 RW.08 KOTA SURAKARTA CADANGAN
2519 1100461364 MUSYAFFA' ST 27/7/1974 KRASAK RT.02/01 BOTO BANCAK KAB. SEMARANG CADANGAN
2520 1100461367 SUFIATUN 29/12/1978 KALIKATIR RT.01 RW.06 KAB. WONOGIRI CADANGAN
2521 1100461368 NEKA KOMARINDAH 08/03/1984 KELENGAN KECIL C/583 RT.06/04 KOTA SEMARANG CADANGAN
2522 1100461369 DARMASTUTI 06/02/1971 JL. MASHELLA [Link] NO.83 RT.04 RW.02 KOTA SURAKARTA CADANGAN
2523 1100461370 MOH. JAZULI 28/9/1975 KALIKATIR RT.01 RW.06 KAB. WONOGIRI CADANGAN
2524 1100461371 AFNI LISTIANA 28/11/1982 KRASAK RT.02/01 BOTO BANCAK KAB. SEMARANG CADANGAN
2525 1100461373 ASMU'I 15/12/1968 DSN. GADING RT.05/02 TUNTANG KAB. SEMARANG CADANGAN
2526 1100461374 MUSRIYANTO 2/6/1968 MUTIHKULON RT.02/05 KAB. DEMAK CADANGAN
2527 1100461375 TRI MULMINAH 31/12/1960 PEDURUNGAN LOR RT.02/05 KOTA SEMARANG CADANGAN
2528 1100461376 ARYA ZUNITA 27/03/1974 DSN. GADING RT. 05/02 TUNTANG KAB. SEMARANG CADANGAN
2529 1100461377 SUPARNI 16/02/1975 PADANGAN 03/04 KAB. KLATEN CADANGAN
2530 1100461378 SRI SAMROTUN 02/07/1976 MUTIHKULON RT.02/05 KAB. DEMAK CADANGAN
2531 1100461379 [Link], MT 29/05/1967 JL. SUMBAWA VII / 100-101 RT.02 RW.09 KAB. SEMARANG CADANGAN
2532 1100461381 MUHARSIH 11/03/1975 JL. SUMBAWA VI/100-101 RT.02 RW.09 KAB. SEMARANG CADANGAN
2533 1100461382 LASIMAH 07/05/1965 CONDOREJO RT.06/11 KOTA SEMARANG CADANGAN
2534 1100461385 EMY FITRIANI YUSFI 24/09/1976 PARAKANCANGGAH. RT.009/011 KAB. BANJARNEGARA CADANGAN
2535 1100461386 SUHARYOTO 01/01/1963 [Link] RT.01 RW.09 KAB. SEMARANG CADANGAN
2536 1100461388 ANWAR AROSID 05/02/1972 PADANGAN 03/04 KAB. KLATEN CADANGAN
2537 1100461389 [Link] 22/05/1969 PARAKANCANGGAH. RT. 009/011 KAB. BANJARNEGARA CADANGAN
2538 1100461390 TITIK ISWARI 01/05/1963 DSN. NGOGAK RT.01 RW.09 KAB. SEMARANG CADANGAN
2539 1100461392 INDARTO SUKENDAR 01/01/1961 SOKAYASA RT. 002/001 KAB. BANJARNEGARA CADANGAN
2540 1100461393 MAR'ATAENI 05/03/1966 SOKAYASA RT. 002/001 KAB. BANJARNEGARA CADANGAN
2541 1100461396 SITI FAIZAH, SPD 05/09/1977 JL. ADI SUMARMO NO. 182 RT 02 RW 06 KOTA SURAKARTA CADANGAN
2542 1100461398 TINTIN SUMARNI 8/9/1959 LEBO SANTREN RT.03 RW.05 KAB. BATANG CADANGAN
2543 1100461399 NUR TRI CAHYOBOWONO 21/10/1984 KARANGLO RT.03/03 KOTA SEMARANG CADANGAN
2544 1100461400 SUWARDI 21/02/1971 [Link] TEMURUN II/32 RT.08/21 KOTA SEMARANG CADANGAN
2545 1100461402 ACHMAD MUSHOFFA FARIZJI 08/10/1986 DEMANGAN RT 03 RW 03 KAB. KUDUS CADANGAN
2546 1100461403 RR EVIE DHEWAJANI 30/8/1971 [Link] TEMURUN II/32 RT.08/21 KOTA SEMARANG CADANGAN
2547 1100461405 IRAWATI 19/12/1976 LEBO SANTREN RT.03 RW.05 KAB. BATANG CADANGAN
2548 1100461406 IR SUNARDI 18/08/1968 JL. MURI IX NO.02 RT.07 RW.05 KAB. SEMARANG CADANGAN
2549 1100461408 LAILA KHURRIYAH 30/03/1976 JL. MURIA IX NO.02 RT.07 RW.05 KAB. SEMARANG CADANGAN
2550 1100461409 DJOKO WARDONO 20/05/1963 KEPATIHAN KULON RT.04 RW.02 KOTA SURAKARTA CADANGAN
2551 1100461410 SRI SUHARTI 05/04/1961 KEPATIHAN KULON RT. 04 RW.02 KOTA SURAKARTA CADANGAN
2552 1100461411 EDY ARIS MURWANTO 01/11/1960 JL. BATAM BLOK H-35 RT 10 RW 08 KOTA MAGELANG CADANGAN
2553 1100461413 MUHAMMAD SOFYAN HARIS 04/01/2002 MOJOREJO RT. 03/03 KAB. SUKOHARJO CADANGAN
2554 1100461414 WARTINI 18/05/1980 MOJOREJO RT. 03/03 KAB. SUKOHARJO CADANGAN
2555 1100461415 RIYANA ABRIYANI 05/10/1985 MANGGEH RT. 01 RW. 05 KAB. KARANGANYAR CADANGAN
2556 1100461416 INSAN JANANTA 15/7/1977 MANGGEH RT. 01 RW. 05 KAB. KARANGANYAR CADANGAN
2557 1100461417 SUDARMOYO 19/10/1968 JL. GUNUNG BROMO 04/18 KAB. GROBOGAN CADANGAN
2558 1100461418 AHMAD KHAERUDIN 11/6/1991 BEJIRUYUNG RT. 001 RW. 001 SEMPOR KAB. KEBUMEN CADANGAN
2559 1100461419 SRI PUJI ASTUTI 17/10/1968 JL. GUNUNG BROMO 04/18 KAB. GROBOGAN CADANGAN
2560 1100461421 SAGIYATI MUNARJO MANBAKRI 28/06/1964 BEJIRUYUNG RT. 01. 01 KAB. KEBUMEN CADANGAN
2561 1100461422 SUGITO 02/04/1962 DSN. BLIMBING RT.05 RW.06 KAB. SEMARANG CADANGAN
2562 1100461423 ASMINI 04/02/1967 DSN. BLIMBING RT.05 RW.06 KAB. SEMARANG CADANGAN
2563 1100461424 SUPIYATI 5/7/1957 MANJUNG KULON RT.02 RW.04 KAB. WONOGIRI CADANGAN
2564 1100461425 AHMAD ZAENURI 26/12/1978 LEBO SANTREN RT.03 RW.05 KAB. BATANG CADANGAN
2565 1100461427 UMI LATIPAH 04/10/1980 JL. MAWAR NO.19 RT.01 RW.05 KAB. TEGAL CADANGAN
2566 1100461428 ABU KHUSAERI 04/05/1969 JENGGOT GG.5 NO.27 RT.02 RW.07 KOTA PEKALONGAN CADANGAN
2567 1100461429 DAIROTUL HASANAH 12/08/1973 JENGGOT GG.5 NO.27 RT.02 RW.07 KOTA PEKALONGAN CADANGAN
2568 1100461430 MOHAMAD AKSIN, DRS 22/05/1967 JL. MAWAR NO.19 RT.01 RW.05 KAB. TEGAL CADANGAN
2569 1100461431 LUSDIARTO WARIS SA SAMINAH 10/01/1964 TRANGKIL 4/2 TRANGKIL KAB. PATI CADANGAN
2570 1100461432 ROISAH 05/05/1975 [Link] RT.02/08 REMBUN SIWALAN KAB. PEKALONGAN CADANGAN
2571 1100461433 SIRWATI SUYOTO SUKANAH 01/07/1969 JETAK 1/1 WEDARIJAKSA KAB. PATI CADANGAN
2572 1100461434 SUNARTI 02/11/1974 SUMBEREJO 1/4 JAKEN KAB. PATI CADANGAN
2573 1100461437 ENDANG SULISTIYANI SAHID 25/01/1970 TRANGKIL 4/2 TRANGKIL KAB. PATI CADANGAN
2574 1100461438 SUWITO 11/07/1964 NGALURAN RT.01/05 KAB. DEMAK CADANGAN
2575 1100461440 ABD HARIS 08/03/1966 KRAJAN LOR RT. 02 RW. 01 KAB. KENDAL CADANGAN
2576 1100461441 ULIYATUT TADZKIROH 01/07/1974 KRAJAN LOR RT. 02 RW. 01 KAB. KENDAL CADANGAN
2577 1100461442 INDAYAWATI 02/08/1982 LANGENHARJO 2/3 MARGOREJO KAB. PATI CADANGAN
2578 1100461444 SUKRIANTO 04/07/1975 GUNUNGGIANA. RT. 002/004 KAB. BANJARNEGARA CADANGAN
2579 1100461445 SRI HARTATI 03/05/1984 GUNUNGGIANA .RT. 002/004 KAB. BANJARNEGARA CADANGAN
2580 1100461447 INDARTO 16/09/1968 PUCANG RT . 001/001 KAB. BANJARNEGARA CADANGAN
2581 1100461448 TEDJI ANGGOROWATI 07/07/1970 PUCANG RT . 001/001 KAB. BANJARNEGARA CADANGAN
2582 1100461449 EMA 04/05/1958 KALIBENDA RT. 2/1 KAB. BANYUMAS CADANGAN
2583 1100461450 DEWI ISROLIS 26/9/1978 NGALURAN RT.01/05 KAB. DEMAK CADANGAN
2584 1100461451 SARIMIN SUMARJO DULAH MAKSUM 31/12/1963 JOGOPATEN 03/03 KAB. KEBUMEN CADANGAN
2585 1100461452 SARTINAH DULAH KASAN 26/05/1958 JOGOPATEN RT.03/02 KAB. KEBUMEN CADANGAN
2586 1100461453 SUPRATIWI 31/08/1975 BUKIT KELAPA GADING II/AQ-15 RT.08/11 KOTA SEMARANG CADANGAN
2587 1100461454 WARSINI PARMAN SUMINAH 12/02/1978 SINOMWIDODO 7/1 TAMBAKROMO KAB. PATI CADANGAN
2588 1100461455 TARDI WARNO KARTINI 07/04/1968 SINOMWIDODO 7/1 TAMBAKROMO KAB. PATI CADANGAN
2589 1100461456 ESTI SUDIARTI 06/03/1959 MAJASEM RT 07 RW 03 KAB. PURBALINGGA CADANGAN
2590 1100461457 SRI SJAJIDAH KOMARIYAH 21/03/1965 BALUN MEGAL REJO RT 004 / RW 014 KAB. BLORA CADANGAN
2591 1100461458 NANA SUDIANA 15/09/1975 BUKIT KELAPA GADING II/AQ-15 RT.08/11 KOTA SEMARANG CADANGAN
2592 1100461459 WAGIMAN SUMARJO DULAH MASUM 15/08/1958 JOGOPATEN RT.03/02 KAB. KEBUMEN CADANGAN
2593 1100461460 MARWATI SARWADI SANDARMIN 14/09/1970 JOGOPATEN RT.03/03 KAB. KEBUMEN CADANGAN
2594 1100461464 YATINI 10/06/1959 MAJASEM RT 15 RW 07 KAB. PURBALINGGA CADANGAN
2595 1100461473 AMANAH 15/02/1959 PUCANGREJO RT. 01 RW. 04 KAB. KENDAL CADANGAN
2596 1100461480 SRIATI 15/07/1973 JL. MASJID NO.83 RT.04/RW.01 KAB. KENDAL CADANGAN
2597 1100461484 WINDIARTI 8/6/1972 BANJARKERTA RT 02 RW 02 KAB. PURBALINGGA CADANGAN
2598 1100461485 SRI BUDIYAH 28/10/1964 TLANGU RT. 06 RW. 03 KAB. KENDAL CADANGAN
2599 1100461490 EKO CAHYONO 27/01/1972 JLAMPRANG RT.02 RW.03 KAB. WONOSOBO CADANGAN
NO NO. PORSI NAMA TANGGAL LAHIR ALAMAT KAB/KOTA KETERANGAN
2600 1100461491 AGUS MUTOIF 30/08/1972 BANJARKERTA RT 02 RW 02 KAB. PURBALINGGA CADANGAN
2601 1100461492 SRI SUNARTI 10/05/1963 CEPERAN RT 14 KAB. SRAGEN CADANGAN
2602 1100461493 SUJANO 22/04/1959 DESA WADO RT 05 RW 05 KAB. BLORA CADANGAN
2603 1100461495 PRAMUDA 16/4/1960 CEPERAN RT 14 KAB. SRAGEN CADANGAN
2604 1100461496 NGAISAH 25/10/1974 JLAMPRANG RT 02 RW 03 KAB. WONOSOBO CADANGAN
2605 1100461499 RATIB 8/7/1959 BANTARKAWUNG RT. 01/01 BANTARKAWUNG KAB. BREBES CADANGAN
2606 1100461501 NUNUNG NURHIDAYAH 14/10/1979 BANTARKAWUNG RT. 01/01 BANTARKAWUNG KAB. BREBES CADANGAN
2607 1100461504 SUYATINI 01/01/1961 JL. FLAMBOYAN 48 RT 03 RW 04 KAB. BLORA CADANGAN
2608 1100461505 SURYATNI 25/03/1963 JL. BABAKAN NO.58 RT.05 RW.02 KAB. CILACAP CADANGAN
2609 1100461506 SUGIYONO 03/12/1961 JL. BABAKAN NO.58 RT.05 RW.02 KAB. CILACAP CADANGAN
2610 1100461507 MAHMUDAH 16/05/1969 JL. BABAKAN NO.21 RT.04 RW.02 KAB. CILACAP CADANGAN
2611 1100461508 SUPRANTO 04/08/1960 JL. BABAKAN NO.21 RT.04 RW.02 KAB. CILACAP CADANGAN
2612 1100461511 BUDIONO SUYADI LASMITO WIJOYO 15/05/1959 NGOTET RT 005 RW 003 REMBANG KAB. REMBANG CADANGAN
2613 1100461512 SUNARNI 25/01/1961 KEPATIHAN RT.03. RW.01 KAB. WONOGIRI CADANGAN
2614 1100461513 SRI MURNI KURDI 3/3/1962 NGOTET RT 005 RW 003 REMBANG KAB. REMBANG CADANGAN
2615 1100461514 SARIYEM 15/12/1959 JL. KEDUNGPASUNG NO.05 RT02 RW04 KAB. CILACAP CADANGAN
2616 1100461515 SAGIMANTO 17/08/1959 KEPATIHAN RT.03 RW.01 KAB. WONOGIRI CADANGAN
2617 1100461520 EVI MUSLIHAH 3/7/1977 DUSUN BODO RT 01 RW02 KAB. CILACAP CADANGAN
2618 1100461523 SUPARNO 31/12/1957 MLUYO RT 06 RW 02 KAB. BOYOLALI CADANGAN
2619 1100461524 RUSMIYATUN ABDUL KARIM SUMPAAT 08/10/1969 GUNEM RT 001 RW 001 GUNEM KAB. REMBANG CADANGAN
2620 1100461528 SUMARNI 12/02/1980 BANTERAN RT 02 RW 03 KAB. BANYUMAS CADANGAN
2621 1100461529 SUYATNO KURDI ABDUL KAHAR 23/08/1964 GUNEM RT 001 RW 001 GUNEM KAB. REMBANG CADANGAN
2622 1100461530 JARWAN 11/09/1970 BANTERAN RT. 2/3 WANGON KAB. BANYUMAS CADANGAN
2623 1100461531 KARSO 03/09/1958 JL. SAKURA NO. 15 RT.003/006 KOTA TEGAL CADANGAN
2624 1100461534 PARTINI 09/03/1968 MLUYO RT 05 RW 02 KAB. BOYOLALI CADANGAN
2625 1100461535 TURINO 13/06/1977 DUSUN BODO RT01 RW02 KAB. CILACAP CADANGAN
2626 1100461536 TOASIH 15/08/1962 SUMBAGA RT.01/03 BUMIJAWA KAB. TEGAL CADANGAN
2627 1100461537 SUPRIYATIN 01/06/1973 JL. MEKARJAYA RT 02 RW 02 KAB. PURBALINGGA CADANGAN
2628 1100461538 AMIN EDY NUR ARIS 02/12/1968 JL. MEKARJAYA RT 02 RW 02 KAB. PURBALINGGA CADANGAN
2629 1100461539 AKROMAH 06/10/1963 JL. SAKURA NO. 15 RT. 003/006 KOTA TEGAL CADANGAN
2630 1100461545 AGUS PRAMONO 30/05/1960 JREBENG RT02 RW 02 KAB. BOYOLALI CADANGAN
2631 1100461546 SUHARIYANTO SOEMARDJONO SAHID 09/06/1960 MEJOBO RT 09 RW 03 KAB. KUDUS CADANGAN
2632 1100461548 SUPARMIN WASI PARDI 05/12/1957 SENDANG 02/02 KEC. KALINYAMATAN KAB. JEPARA CADANGAN
2633 1100461549 MUCH ROKIM, SH 29/7/1965 PERUMAHAN KORPRI RT.02 RT.07 KAB. SEMARANG CADANGAN
2634 1100461550 ZUNIYATI SUKARMAN KASMAN 16/12/1971 KALIPUCANG WETAN 05/04 KAB. JEPARA CADANGAN
2635 1100461554 JASMIDAH 15/05/1962 DADIREJO RT.02/04 TIRTO KAB. PEKALONGAN CADANGAN
2636 1100461555 ALI MUSTOFA 17/7/1980 COKRAH GALIH RT.01/02 DADIREJO TIRTO KAB. PEKALONGAN CADANGAN
2637 1100461556 KHOTIMAH 31/12/1960 MLUYO RT 06 RW 02 KAB. BOYOLALI CADANGAN
2638 1100461558 NAILUL MUNA 21/5/1982 COKRAH GALIH RT.01/02 DADIREJO TIRTO KAB. PEKALONGAN CADANGAN
2639 1100461559 SRI SUSILOWATI 24/11/1960 SEGERAN KENDALSARI RT. 09 RW. 02 KAB. PEMALANG CADANGAN
2640 1100461560 SETIYO PURWANTO 12/09/1966 PEMUKTI BARU 13/04 KAB. KLATEN CADANGAN
2641 1100461561 NARTO 20/9/1965 DESA PANINGKABAN RT 06 / 05 KAB. BANYUMAS CADANGAN
2642 1100461562 SULISTIYANTI SOERATNO KARTO SAWIJAN 10/10/1965 MEJOBO RT 09 RW 03 KAB. KUDUS CADANGAN
2643 1100461564 NUR FARIDA SUKAHAR 13/12/1977 BLINGOH 06/01 KEC. DONOROJO KAB. JEPARA CADANGAN
2644 1100461567 RUMIYAH 30/12/1958 KALIWANG RT 01 RW 01 KAB. WONOSOBO CADANGAN
2645 1100461568 KAMINAH 10/01/1970 PANINGKABAN RT. 6/5 KAB. BANYUMAS CADANGAN
2646 1100461570 AHMAD FAROHI ABDULLAH 25/04/1974 BLINGOH 06/01 KEC. DONOROJO KAB. JEPARA CADANGAN
2647 1100461571 TRIYAYATI 06/02/1965 CIREBAH RT. 2/6 KAB. BANYUMAS CADANGAN
2648 1100461572 TUGIMAN 05/05/1965 CIREBAH RT 02 RW 06 KAB. BANYUMAS CADANGAN
2649 1100461573 TUMINI PARSANI MUNAJI RASIBAN 02/03/1960 TANJUNGREJO RT 04 RW 04 KAB. KUDUS CADANGAN
2650 1100461574 PAINAH 12/04/1966 NGARGOTIRTO RT 05 RW 04 KAB. BOYOLALI CADANGAN
2651 1100461577 WIWIK ENDANG SETIAWATI 03/01/1976 DUKUH KRAJAN RT.11/02 LUWIJAWA KAB. TEGAL CADANGAN
2652 1100461578 SWAIBATUL UMAIYAH SUKANDAR 15/06/1975 LEBAK 01/05 KEC. PAKIS AJI KAB. JEPARA CADANGAN
2653 1100461579 SAFRUDIN ISMAIL 24/5/1976 DUKUH KRAJAN RT.11/02 LUWIJAWA KAB. TEGAL CADANGAN
2654 1100461580 SAHRI KARTUN RASIMAN 27/10/1965 LEBAK 01/05 KEC. PAKIS AJI KAB. JEPARA CADANGAN
2655 1100461581 KASRU SULBI JASMIN 15/6/1962 TANJUNGREJO RT 04 RW 04 KAB. KUDUS CADANGAN
2656 1100461583 AIDA NAHAR I'TISHOM 21/11/1977 KALIPUCANG KULON 05/03 KAB. JEPARA CADANGAN
2657 1100461585 SUPATMI NGOJAN KARSINI 1/7/1962 LANGENHARJO 2/3 MARGOREJO KAB. PATI CADANGAN
2658 1100461588 SOLICHAH MUNASRI AHMAT 31/12/1965 PEGANJARAN RT 01 RW 01 KAB. KUDUS CADANGAN
2659 1100461589 SUSWIYONO ASMO DIHARJO 11/9/1970 TEGALOMBO 5/1 DUKUHSETI KAB. PATI CADANGAN
2660 1100461590 DWI MUSYAFAK HASYIM 10/11/1974 KALIPUCANG KULON 05/03 KAB. JEPARA CADANGAN
2661 1100461591 SITI ZUHAIROH ROHMAT MUAWIN 01/03/1968 NGEMPLAK RT 01 RW 03 KAB. KUDUS CADANGAN
2662 1100461592 EMA YUSMIARTI SUMADI 10/08/1974 TEGALOMBO 5/1 DUKUHSETI KAB. PATI CADANGAN
2663 1100461593 MUH SIKUN KASRI SUJARI 05/03/1961 NGEMPLAK RT 01 RW 03 KAB. KUDUS CADANGAN
2664 1100461595 SUYATMI HARJOTANI WASIYO 05/04/1969 MANYARGADING 04/01 KEC KALINYAMATAN KAB. JEPARA CADANGAN
2665 1100461596 MASRIKAN NGARPAN YAKIBAN 15/04/1962 PEGANJARAN RT 01 RW 01 KAB. KUDUS CADANGAN
2666 1100461598 SRI MURYATI SUMADI 05/06/1961 BAE RT 02 RW 05 KAB. KUDUS CADANGAN
2667 1100461599 RONNY PRADANA 07/08/1987 PAGONGAN RT. 06/03 DUKUHTURI KAB. TEGAL CADANGAN
2668 1100461601 MISWANTO 12/09/1970 BANJARPARAKAN RT 01 RW 02 KAB. BANYUMAS CADANGAN
2669 1100461602 SITI FAUZIAH 09/05/1974 BANJARPARAKAN RT. 1/2 KAB. BANYUMAS CADANGAN
2670 1100461604 DEWI ANGGRAENI 04/01/1965 MINDAKA RT. 03/02 TARUB KAB. TEGAL CADANGAN
2671 1100461607 SAMSUDIN 7/10/1964 MINDAKA RT. 03/02 TARUB KAB. TEGAL CADANGAN
2672 1100461608 MUBAROKAH 30/12/1982 KEMBANGAN RT.07/02 KAB. DEMAK CADANGAN
2673 1100461609 TOWIL 15/03/1965 CIKOKOL RT.07/06 JIPANG BANTARKAWUNG KAB. BREBES CADANGAN
2674 1100461610 SUTRISNO BIN TARWAD 27/8/1958 JL. KAPT. SUDIBYO NO. 45 RT. 09/08 KOTA TEGAL CADANGAN
2675 1100461611 IMRON 12/11/1974 KEMBANGAN RT.07/02 KAB. DEMAK CADANGAN
2676 1100461612 ABDULLAH , DRS 01/05/1966 [Link] IV / D-91 RT.03/11 BEJI KAB. SEMARANG CADANGAN
2677 1100461614 MEKARSARI 17/8/1964 CIKOKOL RT.07/06 JIPANG BANTARKAWUNG KAB. BREBES CADANGAN
2678 1100461615 ARINA , DRA 27/10/1967 [Link] IV / D-91 RT.03/11 BEJI KAB. SEMARANG CADANGAN
2679 1100461616 LUKMAN 17/03/1968 GANGGAWANG RT.01/01 SALEM KAB. BREBES CADANGAN
2680 1100461622 SITI MUTIAH 25/8/1970 BEKU RT 09 KAB. SRAGEN CADANGAN
2681 1100461623 IKHSANUDIN 29/10/1969 BEKU RT 09 KAB. SRAGEN CADANGAN
2682 1100461626 DWI ANGRUNI 07/07/1976 NGARUM RT 06 KAB. SRAGEN CADANGAN
2683 1100461628 AHMAD HISYAM 04/02/1962 GANJURAN I RT. 01/06 KAB. MAGELANG CADANGAN
2684 1100461629 SOLICHIN RASYID 08/01/1971 NGARUM RT 06 KAB. SRAGEN CADANGAN
2685 1100461631 ENI SUKARTI WARSO 13/05/1977 KROPAK 3/2 WINONG KAB. PATI CADANGAN
2686 1100461632 SAID SUGIYANTO 11/06/1962 KEMLOKO, RT.14/RW.07 KAB. TEMANGGUNG CADANGAN
2687 1100461633 KHUMEDI 10/04/1968 KEDAWON RT.06/08 LARANGAN KAB. BREBES CADANGAN
2688 1100461634 YAGUS PRIHATIN 11/05/1963 LEMBU 02/01 KAB. KLATEN CADANGAN
2689 1100461636 NUNING TUNGGAL BAGIYATI 05/01/1965 LEMBU 02/01 KAB. KLATEN CADANGAN
2690 1100461637 SITI KOTIMAH 05/08/1971 KEMLOKO, RT.14/RW.07 KAB. TEMANGGUNG CADANGAN
2691 1100461638 LANJAR HARTONO 30/01/1967 SRAGO CILIK 03/06 KAB. KLATEN CADANGAN
2692 1100461640 NURKHOFIFAH 28/04/1974 KEDAWON RT.06/08 LARANGAN KAB. BREBES CADANGAN
2693 1100461641 RUWANTO BROTO ATMAJA 03/09/1959 GONDANGREJO 02/13 KAB. KLATEN CADANGAN
2694 1100461642 MAT AMRONI 12/06/1965 MAGETAN RT01 RW01 KAB. TEMANGGUNG CADANGAN
2695 1100461643 SRI WINDARYATI 23/03/1967 GANJURAN I RT. 01/06 KAB. MAGELANG CADANGAN
2696 1100461644 SUMARDI SARIJAN PARMI 27/06/1969 KROPAK 3/2 WINONG KAB. PATI CADANGAN
2697 1100461645 RETNOWATI 05/07/1968 MAGETAN RT01 RW01 KAB. TEMANGGUNG CADANGAN
2698 1100461649 PARWOTO 04/05/1963 PUTAT RT 03 KAB. SRAGEN CADANGAN
2699 1100461651 RAHAYUNINGSIH 29/05/1974 DK. SENDANGAGUNG RT 01 RW 03 KAB. BLORA CADANGAN
2700 1100461652 KUNTI RUKMINI 07/05/1965 PUTAT RT 03 KAB. SRAGEN CADANGAN
2701 1100461654 KATUGINO KASIDIN BAINI 25/08/1973 WINONG 2/5 PATI KAB. PATI CADANGAN
2702 1100461655 TITI PURWANTI 15/05/1970 JL. KAUMAN GANG I NO.36 RT.11/03 KAB. DEMAK CADANGAN
2703 1100461656 INDAH SETYO MARTIYANTI 14/03/1973 WINONG 2/5 PATI KAB. PATI CADANGAN
2704 1100461657 ACHMAD CHARIF 9/3/1971 GLAGAH I RT. 04/03 KAB. MAGELANG CADANGAN
2705 1100461658 FAIZ AL MU'TABAR JABIR HASAN 20/11/1974 PEKALONGAN 3/2 WINONG KAB. PATI CADANGAN
2706 1100461659 MUDRIKAH KUNDORI SYUFAATUN 02/05/1983 PEKALONGAN 3/2 WINONG KAB. PATI CADANGAN
2707 1100461661 CARIYA 06/03/1964 DOMPOL 11/06 KAB. KLATEN CADANGAN
2708 1100461662 ANI KURNIAWATI 19/02/1978 GLAGAH I RT. 04/03 KAB. MAGELANG CADANGAN
2709 1100461664 MARIYATUL QIBTIYAH KULSUM 08/09/1966 SEKURO RT 16/04 KAB. JEPARA CADANGAN
2710 1100461665 AGUS FATAH 15/02/1965 BUMIAYU RT.05/07 BUMIAYU KAB. BREBES CADANGAN
2711 1100461667 NUR SALIM SODIQ ASRONI 09/08/1959 SEKURO RT 16/04 KAB. JEPARA CADANGAN
2712 1100461668 YUNI SETYOWATI SUKARDI 30/06/1981 BLINGOH 07/06 KEC. DONOROJO KAB. JEPARA CADANGAN
2713 1100461669 TUMARIYAH SUWITO SULIYAH 12/4/1958 BEJEN KAB. TEMANGGUNG CADANGAN
2714 1100461670 SRI HANDAYANINGSIH,AMD 27/12/1970 BANJARAN 01/03 KAB. KLATEN CADANGAN
2715 1100461673 SISWANTO KHOIRIN KASAN 13/7/1974 BLINGOH 07/06 KEC. DONOROJO KAB. JEPARA CADANGAN
2716 1100461675 BUDIARTI 29/12/1962 JL. PUCANG INDAH V NO.08 RT.05/19 KAB. DEMAK CADANGAN
2717 1100461676 KUSTINAH SUDONO DARIYO 12/05/1960 BANYUMANIS 01/08 KEC. DONOROJO KAB. JEPARA CADANGAN
2718 1100461677 SUTARMAN 03/04/1967 MOJO RT.02/RW.05 KAB. SUKOHARJO CADANGAN
2719 1100461678 MASRUR 15/04/1963 KRINCING 17/07 KAB. MAGELANG CADANGAN
2720 1100461681 AZILAH 26/04/1965 KARANGJATI RT.06/02 WIRADESA KAB. PEKALONGAN CADANGAN
2721 1100461684 TITIK SUDARMANI 29/05/1968 MOJO RT.03/RW.05 KAB. SUKOHARJO CADANGAN
2722 1100461686 ZAENURI 26/02/1962 KARANGJATI RT.06/02 WIRADESA KAB. PEKALONGAN CADANGAN
2723 1100461690 NURUZZAMAN,[Link] 01/04/1981 KALISALAK [Link] II NO.6 RT.02 RW.01 KAB. BATANG CADANGAN
2724 1100461691 AGUS MULYADI 06/08/1963 PULUTAN RT 12 RW 02 KAB. BOYOLALI CADANGAN
2725 1100461692 BASARAH 14/05/1969 PULUTAN RT 12 RW 02 KAB. BOYOLALI CADANGAN
2726 1100461693 MUSTARI 12/05/1973 KARANGANYAR 03/02 KAB. GROBOGAN CADANGAN
2727 1100461694 WIDHI ASTRI HANDAYANI 26/1/1981 KALISALAK [Link] II NO.6 RT.02 RW.01 KAB. BATANG CADANGAN
NO NO. PORSI NAMA TANGGAL LAHIR ALAMAT KAB/KOTA KETERANGAN
2728 1100461695 YASRIN RIFA'AN SURAMIN 29/11/1978 SURODADI RT.002/001 KAB. JEPARA CADANGAN
2729 1100461697 DWI LESTARI 6/8/1976 KARANGANYAR 03/02 KAB. GROBOGAN CADANGAN
2730 1100461699 ANA ARISTA NUR SALIM 11/12/1990 SURODADI RT.002/001 KAB. JEPARA CADANGAN
2731 1100461700 SLAMET RUSNOTO 08/08/1983 [Link] WARENG RT01/02 KEBONSARI KAB. PEKALONGAN CADANGAN
2732 1100461701 GIYONO 15/06/1961 NANDAN RT.01/RW.05 KAB. SUKOHARJO CADANGAN
2733 1100461702 PAISAH 04/06/1963 SIWURAN RT 04 RW 02 KAB. WONOSOBO CADANGAN
2734 1100461703 MUHSIN 27/08/1957 TURUNAN RT 02 RW 05 KAB. BOYOLALI CADANGAN
2735 1100461704 KHAYATUL IMAN 02/02/1984 [Link] WARENG RT.01/02 KEBONSARI KAB. PEKALONGAN CADANGAN
2736 1100461705 ZAINI,DRS 05/07/1967 BANJARAN 01/03 KAB. KLATEN CADANGAN
2737 1100461706 ISWANTI 08/02/1962 NANDAN KEBAYAN 2 RT.01/RW.05 KAB. SUKOHARJO CADANGAN
2738 1100461711 SUTRISNO 29/03/1968 TENGKEK RT.03/RW.08 KAB. SUKOHARJO CADANGAN
2739 1100461713 SITI NGAISAH HENDARI SETYOWATI 1/2/1958 KESENET .RT.005/001 KAB. BANJARNEGARA CADANGAN
2740 1100461714 HARMI SUPRAWATI 13/11/1969 TENGKEK RT.03/RW.08 KAB. SUKOHARJO CADANGAN
2741 1100461715 NURWANINGSIH 24/08/1976 JERON RT 01 RW 02 KAB. BOYOLALI CADANGAN
2742 1100461716 SURO 19/03/1970 JERON RT 01 RW 02 KAB. BOYOLALI CADANGAN
2743 1100461717 BUDIYATI 03/01/1980 WATES, RT.02/RW.01 KAB. TEMANGGUNG CADANGAN
2744 1100461719 EKO AL HABIB 18/4/1975 WATES, RT.02/RW.01 KAB. TEMANGGUNG CADANGAN
2745 1100461720 KAMSUN KUSAWI MUSAJI 20/10/1957 KRASAK 04/04 KAB. JEPARA CADANGAN
2746 1100461721 SITI MASRONAH AHMAD 07/02/1961 KRASAK 04/04 KAB. JEPARA CADANGAN
2747 1100461723 SUTINI SADINI KARTO 7/7/1962 SENDANG 02/02 KEC. KALINYAMATAN KAB. JEPARA CADANGAN
2748 1100461724 RIRIN KISWOROWATI, DRA, PSI 25/11/1964 JL. MANDASIA IV/384 RT.03/01 KOTA SEMARANG CADANGAN
2749 1100461725 LILIS SURYANI 20/01/1966 JL. MUJAHIDIN NO.70, TLASRI KAB. TEMANGGUNG CADANGAN
2750 1100461726 ABDUL LATIF 11/06/1961 KRAJAN RT. 01/01 KAB. MAGELANG CADANGAN
2751 1100461730 ENDANG SUMARTININGSIH 05/04/1965 KRAJAN 01/01 KAB. MAGELANG CADANGAN
2752 1100461732 DJUDJUN NUGRAHETI 11/2/1963 [Link] AGUNG 127 RT.09/01 KOTA SEMARANG CADANGAN
2753 1100461734 MUILAH 31/12/1963 PAGONGAN RT. 06/03 DUKUHTURI KAB. TEGAL CADANGAN
2754 1100461735 YUDI SUPOMO 30/09/1980 GURUNG RT 11 RW 03 KAB. BOYOLALI CADANGAN
2755 1100461739 ENNY SUPOMO 21/7/1979 GURUNG RT 11 RW 03 KAB. BOYOLALI CADANGAN
2756 1100461744 SUGIYATI SUPARNYO HARJO SUPONO 19/12/1961 PESUNINGAN RT. 04. 03 KAB. KEBUMEN CADANGAN
2757 1100461745 EDDY SURIPTO SARIMIN 15/03/1959 PESUNINGAN RT.04/03 KAB. KEBUMEN CADANGAN
2758 1100461748 SUTOPO ANTYO MARJUKI 25/02/1963 JL. SINDORO 4 NO. 3 RT.03 RW.06 KAB. SEMARANG CADANGAN
2759 1100461750 ATIK IRAWATI 13/06/1973 JL. NAKULA II NO.02 RT.09 RW.9 KAB. SEMARANG CADANGAN
2760 1100461752 SUYATNO 12/02/1961 JL. NAKULA II NO. 2 RT.09 RW.09 KAB. SEMARANG CADANGAN
2761 1100461754 NURHAYATI 09/06/1964 JL. SINDORO IV NO-03 RT.03 RW.06 KAB. SEMARANG CADANGAN
2762 1100461756 DEWI RATIH 12/03/1986 [Link] RT.02/02 PAIT SIWALAN KAB. PEKALONGAN CADANGAN
2763 1100461757 SRI SULISTIYANI 20/1/1958 JL. MARTOLOYO NO.31 RT.05 RW.08 KOTA TEGAL CADANGAN
2764 1100461758 BUDI SULIS SETIO 12/10/1992 [Link] RT.02/02 PAIT SIWALAN KAB. PEKALONGAN CADANGAN
2765 1100461759 NUR ROCHIM 23/06/1970 KEDUNGGUDEL RT. 02/03 KAB. SUKOHARJO CADANGAN
2766 1100461760 KHORIROH 04/12/1974 DSN. SRUWEN RT.01 RW.04 KAB. SEMARANG CADANGAN
2767 1100461761 MARYANAH 27/01/1967 DUKUH RT. 01/10 KAB. SUKOHARJO CADANGAN
2768 1100461762 SRI UTAMI 01/12/1975 DSN. NANGGULAN RT.05 RW.07 KAB. SEMARANG CADANGAN
2769 1100461763 RATNA SULISTYA ARTI 01/09/1981 JL. JOKO TINGKIR 109 RT. 5 RW. 5 KOTA PEKALONGAN CADANGAN
2770 1100461764 SURATI 10/04/1958 MANDIRAJAKULON .RT. 008/001 KAB. BANJARNEGARA CADANGAN
2771 1100461767 KHUZAIRI 02/12/1972 JL. JOKO TINGKIR 109 RT. 5 RW. 5 KOTA PEKALONGAN CADANGAN
2772 1100461768 TRI HIDAYATI 25/06/1966 KRAJAN, RT.01/RW.01 KAB. TEMANGGUNG CADANGAN
2773 1100461769 SUHARTATIK SUTARNO SUMO REJO 01/03/1973 JATI WETAN RT 07 RW 02 KAB. KUDUS CADANGAN
2774 1100461770 SUPRIJONO 17/03/1960 GIRIPURWO KAB. WONOGIRI CADANGAN
Direktur Jenderal Penyelenggaraan Haji dan Umrah
Hilman Latief